<?xml version="1.0" encoding="UTF-8" standalone="no" ?>
<gpx xmlns="http://www.topografix.com/GPX/1/1" xmlns:xsi="http://www.w3.org/2001/XMLSchema-instance" xsi:schemaLocation="http://www.topografix.com/GPX/1/1 http://www.topografix.com/GPX/1/1/gpx.xsd" version="1.1" creator="VisuGPX - https://www.visugpx.com">
  <metadata>
    <name>Méréville </name>
  </metadata>
  <trk>
    <name><![CDATA[Méréville _1]]></name>
    <extensions>
      <line xmlns="http://www.topografix.com/GPX/gpx_style/0/2">
        <color>0000FF</color>
        <width>4</width>
      </line>
    </extensions>
    <trkseg>
      <trkpt lat="48.62258" lon="2.01832">
        <ele>138</ele>
        <time>2023-12-14T07:34:02Z</time>
      </trkpt>
      <trkpt lat="48.62258" lon="2.01832">
        <ele>139</ele>
        <time>2023-12-14T07:34:03Z</time>
      </trkpt>
      <trkpt lat="48.62256" lon="2.01833">
        <ele>140.2</ele>
        <time>2023-12-14T07:34:04Z</time>
      </trkpt>
      <trkpt lat="48.62255" lon="2.01835">
        <ele>140.2</ele>
        <time>2023-12-14T07:34:05Z</time>
      </trkpt>
      <trkpt lat="48.62253" lon="2.01837">
        <ele>140.2</ele>
        <time>2023-12-14T07:34:06Z</time>
      </trkpt>
      <trkpt lat="48.62251" lon="2.01839">
        <ele>139.8</ele>
        <time>2023-12-14T07:34:07Z</time>
      </trkpt>
      <trkpt lat="48.62249" lon="2.01842">
        <ele>140.2</ele>
        <time>2023-12-14T07:34:08Z</time>
      </trkpt>
      <trkpt lat="48.62249" lon="2.01844">
        <ele>140.2</ele>
        <time>2023-12-14T07:34:09Z</time>
      </trkpt>
      <trkpt lat="48.62249" lon="2.01846">
        <ele>140.2</ele>
        <time>2023-12-14T07:34:10Z</time>
      </trkpt>
      <trkpt lat="48.62249" lon="2.0185">
        <ele>140.2</ele>
        <time>2023-12-14T07:34:11Z</time>
      </trkpt>
      <trkpt lat="48.62249" lon="2.01853">
        <ele>140</ele>
        <time>2023-12-14T07:34:12Z</time>
      </trkpt>
      <trkpt lat="48.6225" lon="2.01857">
        <ele>140</ele>
        <time>2023-12-14T07:34:13Z</time>
      </trkpt>
      <trkpt lat="48.62252" lon="2.01861">
        <ele>140</ele>
        <time>2023-12-14T07:34:14Z</time>
      </trkpt>
      <trkpt lat="48.62253" lon="2.01864">
        <ele>140</ele>
        <time>2023-12-14T07:34:15Z</time>
      </trkpt>
      <trkpt lat="48.62254" lon="2.01867">
        <ele>140.2</ele>
        <time>2023-12-14T07:34:16Z</time>
      </trkpt>
      <trkpt lat="48.62253" lon="2.01871">
        <ele>140.2</ele>
        <time>2023-12-14T07:34:17Z</time>
      </trkpt>
      <trkpt lat="48.62252" lon="2.01873">
        <ele>140.2</ele>
        <time>2023-12-14T07:34:18Z</time>
      </trkpt>
      <trkpt lat="48.62249" lon="2.01875">
        <ele>140.2</ele>
        <time>2023-12-14T07:34:19Z</time>
      </trkpt>
      <trkpt lat="48.62246" lon="2.01875">
        <ele>139.8</ele>
        <time>2023-12-14T07:34:20Z</time>
      </trkpt>
      <trkpt lat="48.62244" lon="2.01875">
        <ele>139.8</ele>
        <time>2023-12-14T07:34:21Z</time>
      </trkpt>
      <trkpt lat="48.62242" lon="2.01874">
        <ele>139.8</ele>
        <time>2023-12-14T07:34:22Z</time>
      </trkpt>
      <trkpt lat="48.6224" lon="2.01873">
        <ele>139.8</ele>
        <time>2023-12-14T07:34:23Z</time>
      </trkpt>
      <trkpt lat="48.62238" lon="2.0187">
        <ele>139.4</ele>
        <time>2023-12-14T07:34:24Z</time>
      </trkpt>
      <trkpt lat="48.62237" lon="2.01867">
        <ele>139.4</ele>
        <time>2023-12-14T07:34:25Z</time>
      </trkpt>
      <trkpt lat="48.62236" lon="2.01862">
        <ele>139.4</ele>
        <time>2023-12-14T07:34:26Z</time>
      </trkpt>
      <trkpt lat="48.62237" lon="2.01858">
        <ele>139.6</ele>
        <time>2023-12-14T07:34:27Z</time>
      </trkpt>
      <trkpt lat="48.62238" lon="2.01853">
        <ele>139.6</ele>
        <time>2023-12-14T07:34:28Z</time>
      </trkpt>
      <trkpt lat="48.62239" lon="2.01849">
        <ele>139.6</ele>
        <time>2023-12-14T07:34:29Z</time>
      </trkpt>
      <trkpt lat="48.62239" lon="2.01843">
        <ele>139.6</ele>
        <time>2023-12-14T07:34:30Z</time>
      </trkpt>
      <trkpt lat="48.6224" lon="2.01838">
        <ele>139.6</ele>
        <time>2023-12-14T07:34:31Z</time>
      </trkpt>
      <trkpt lat="48.6224" lon="2.01832">
        <ele>140.2</ele>
        <time>2023-12-14T07:34:32Z</time>
      </trkpt>
      <trkpt lat="48.6224" lon="2.01826">
        <ele>140.2</ele>
        <time>2023-12-14T07:34:33Z</time>
      </trkpt>
      <trkpt lat="48.62241" lon="2.01821">
        <ele>140.2</ele>
        <time>2023-12-14T07:34:34Z</time>
      </trkpt>
      <trkpt lat="48.62241" lon="2.01815">
        <ele>139.6</ele>
        <time>2023-12-14T07:34:35Z</time>
      </trkpt>
      <trkpt lat="48.62241" lon="2.01808">
        <ele>139.6</ele>
        <time>2023-12-14T07:34:36Z</time>
      </trkpt>
      <trkpt lat="48.62241" lon="2.01802">
        <ele>139.6</ele>
        <time>2023-12-14T07:34:37Z</time>
      </trkpt>
      <trkpt lat="48.62241" lon="2.01796">
        <ele>139.6</ele>
        <time>2023-12-14T07:34:38Z</time>
      </trkpt>
      <trkpt lat="48.62242" lon="2.0179">
        <ele>139.4</ele>
        <time>2023-12-14T07:34:39Z</time>
      </trkpt>
      <trkpt lat="48.62243" lon="2.01784">
        <ele>139.2</ele>
        <time>2023-12-14T07:34:40Z</time>
      </trkpt>
      <trkpt lat="48.62244" lon="2.01777">
        <ele>139.2</ele>
        <time>2023-12-14T07:34:41Z</time>
      </trkpt>
      <trkpt lat="48.62245" lon="2.0177">
        <ele>139.2</ele>
        <time>2023-12-14T07:34:42Z</time>
      </trkpt>
      <trkpt lat="48.62246" lon="2.01763">
        <ele>139.2</ele>
        <time>2023-12-14T07:34:43Z</time>
      </trkpt>
      <trkpt lat="48.62246" lon="2.01757">
        <ele>138.6</ele>
        <time>2023-12-14T07:34:44Z</time>
      </trkpt>
      <trkpt lat="48.62247" lon="2.01751">
        <ele>138.6</ele>
        <time>2023-12-14T07:34:45Z</time>
      </trkpt>
      <trkpt lat="48.62248" lon="2.01745">
        <ele>138.6</ele>
        <time>2023-12-14T07:34:46Z</time>
      </trkpt>
      <trkpt lat="48.62249" lon="2.01738">
        <ele>138.6</ele>
        <time>2023-12-14T07:34:47Z</time>
      </trkpt>
      <trkpt lat="48.6225" lon="2.01731">
        <ele>138.6</ele>
        <time>2023-12-14T07:34:48Z</time>
      </trkpt>
      <trkpt lat="48.62252" lon="2.01724">
        <ele>138.6</ele>
        <time>2023-12-14T07:34:49Z</time>
      </trkpt>
      <trkpt lat="48.62255" lon="2.0172">
        <ele>138.6</ele>
        <time>2023-12-14T07:34:50Z</time>
      </trkpt>
      <trkpt lat="48.62257" lon="2.01714">
        <ele>138.6</ele>
        <time>2023-12-14T07:34:51Z</time>
      </trkpt>
      <trkpt lat="48.62258" lon="2.01707">
        <ele>139</ele>
        <time>2023-12-14T07:34:52Z</time>
      </trkpt>
      <trkpt lat="48.62258" lon="2.01702">
        <ele>139</ele>
        <time>2023-12-14T07:34:53Z</time>
      </trkpt>
      <trkpt lat="48.62257" lon="2.01699">
        <ele>139</ele>
        <time>2023-12-14T07:34:54Z</time>
      </trkpt>
      <trkpt lat="48.62256" lon="2.01692">
        <ele>139.8</ele>
        <time>2023-12-14T07:34:55Z</time>
      </trkpt>
      <trkpt lat="48.62255" lon="2.01684">
        <ele>139.8</ele>
        <time>2023-12-14T07:34:56Z</time>
      </trkpt>
      <trkpt lat="48.62256" lon="2.01677">
        <ele>139.8</ele>
        <time>2023-12-14T07:34:57Z</time>
      </trkpt>
      <trkpt lat="48.62255" lon="2.01671">
        <ele>139.8</ele>
        <time>2023-12-14T07:34:58Z</time>
      </trkpt>
      <trkpt lat="48.62255" lon="2.01665">
        <ele>139.2</ele>
        <time>2023-12-14T07:34:59Z</time>
      </trkpt>
      <trkpt lat="48.62255" lon="2.01659">
        <ele>139.8</ele>
        <time>2023-12-14T07:35:00Z</time>
      </trkpt>
      <trkpt lat="48.62255" lon="2.01652">
        <ele>139.8</ele>
        <time>2023-12-14T07:35:01Z</time>
      </trkpt>
      <trkpt lat="48.62256" lon="2.01643">
        <ele>139.8</ele>
        <time>2023-12-14T07:35:02Z</time>
      </trkpt>
      <trkpt lat="48.62256" lon="2.01635">
        <ele>139.6</ele>
        <time>2023-12-14T07:35:03Z</time>
      </trkpt>
      <trkpt lat="48.62256" lon="2.01627">
        <ele>139.8</ele>
        <time>2023-12-14T07:35:04Z</time>
      </trkpt>
      <trkpt lat="48.62256" lon="2.01619">
        <ele>139.8</ele>
        <time>2023-12-14T07:35:05Z</time>
      </trkpt>
      <trkpt lat="48.62256" lon="2.0161">
        <ele>139.8</ele>
        <time>2023-12-14T07:35:06Z</time>
      </trkpt>
      <trkpt lat="48.62256" lon="2.01602">
        <ele>139.8</ele>
        <time>2023-12-14T07:35:07Z</time>
      </trkpt>
      <trkpt lat="48.62256" lon="2.01593">
        <ele>140</ele>
        <time>2023-12-14T07:35:08Z</time>
      </trkpt>
      <trkpt lat="48.62256" lon="2.01586">
        <ele>140</ele>
        <time>2023-12-14T07:35:09Z</time>
      </trkpt>
      <trkpt lat="48.62256" lon="2.01577">
        <ele>140</ele>
        <time>2023-12-14T07:35:10Z</time>
      </trkpt>
      <trkpt lat="48.62256" lon="2.01569">
        <ele>139.6</ele>
        <time>2023-12-14T07:35:11Z</time>
      </trkpt>
      <trkpt lat="48.62256" lon="2.01561">
        <ele>140</ele>
        <time>2023-12-14T07:35:12Z</time>
      </trkpt>
      <trkpt lat="48.62256" lon="2.01553">
        <ele>140</ele>
        <time>2023-12-14T07:35:13Z</time>
      </trkpt>
      <trkpt lat="48.62256" lon="2.01545">
        <ele>140</ele>
        <time>2023-12-14T07:35:14Z</time>
      </trkpt>
      <trkpt lat="48.62256" lon="2.01537">
        <ele>139.6</ele>
        <time>2023-12-14T07:35:15Z</time>
      </trkpt>
      <trkpt lat="48.62256" lon="2.0153">
        <ele>139.6</ele>
        <time>2023-12-14T07:35:16Z</time>
      </trkpt>
      <trkpt lat="48.62256" lon="2.01522">
        <ele>139.6</ele>
        <time>2023-12-14T07:35:17Z</time>
      </trkpt>
      <trkpt lat="48.62256" lon="2.01514">
        <ele>139.6</ele>
        <time>2023-12-14T07:35:18Z</time>
      </trkpt>
      <trkpt lat="48.62256" lon="2.01506">
        <ele>140.4</ele>
        <time>2023-12-14T07:35:19Z</time>
      </trkpt>
      <trkpt lat="48.62256" lon="2.01498">
        <ele>140</ele>
        <time>2023-12-14T07:35:20Z</time>
      </trkpt>
      <trkpt lat="48.62256" lon="2.0149">
        <ele>140</ele>
        <time>2023-12-14T07:35:21Z</time>
      </trkpt>
      <trkpt lat="48.62256" lon="2.01482">
        <ele>140</ele>
        <time>2023-12-14T07:35:22Z</time>
      </trkpt>
      <trkpt lat="48.62256" lon="2.01474">
        <ele>140.6</ele>
        <time>2023-12-14T07:35:23Z</time>
      </trkpt>
      <trkpt lat="48.62257" lon="2.01467">
        <ele>140.6</ele>
        <time>2023-12-14T07:35:24Z</time>
      </trkpt>
      <trkpt lat="48.62257" lon="2.01459">
        <ele>140.6</ele>
        <time>2023-12-14T07:35:25Z</time>
      </trkpt>
      <trkpt lat="48.62256" lon="2.01452">
        <ele>140.6</ele>
        <time>2023-12-14T07:35:26Z</time>
      </trkpt>
      <trkpt lat="48.62256" lon="2.01444">
        <ele>140.2</ele>
        <time>2023-12-14T07:35:27Z</time>
      </trkpt>
      <trkpt lat="48.62257" lon="2.01437">
        <ele>140.8</ele>
        <time>2023-12-14T07:35:28Z</time>
      </trkpt>
      <trkpt lat="48.62257" lon="2.01429">
        <ele>140.8</ele>
        <time>2023-12-14T07:35:29Z</time>
      </trkpt>
      <trkpt lat="48.62257" lon="2.01422">
        <ele>140.8</ele>
        <time>2023-12-14T07:35:30Z</time>
      </trkpt>
      <trkpt lat="48.62257" lon="2.01414">
        <ele>140.8</ele>
        <time>2023-12-14T07:35:31Z</time>
      </trkpt>
      <trkpt lat="48.62257" lon="2.01407">
        <ele>141.2</ele>
        <time>2023-12-14T07:35:32Z</time>
      </trkpt>
      <trkpt lat="48.62257" lon="2.01399">
        <ele>141.2</ele>
        <time>2023-12-14T07:35:33Z</time>
      </trkpt>
      <trkpt lat="48.62257" lon="2.01392">
        <ele>141.2</ele>
        <time>2023-12-14T07:35:34Z</time>
      </trkpt>
      <trkpt lat="48.62257" lon="2.01385">
        <ele>141.2</ele>
        <time>2023-12-14T07:35:35Z</time>
      </trkpt>
      <trkpt lat="48.62257" lon="2.01378">
        <ele>140.8</ele>
        <time>2023-12-14T07:35:36Z</time>
      </trkpt>
      <trkpt lat="48.62257" lon="2.01371">
        <ele>140.8</ele>
        <time>2023-12-14T07:35:37Z</time>
      </trkpt>
      <trkpt lat="48.62257" lon="2.01364">
        <ele>140.8</ele>
        <time>2023-12-14T07:35:38Z</time>
      </trkpt>
      <trkpt lat="48.62257" lon="2.01357">
        <ele>140.8</ele>
        <time>2023-12-14T07:35:39Z</time>
      </trkpt>
      <trkpt lat="48.62257" lon="2.0135">
        <ele>142.2</ele>
        <time>2023-12-14T07:35:40Z</time>
      </trkpt>
      <trkpt lat="48.62257" lon="2.01343">
        <ele>142.2</ele>
        <time>2023-12-14T07:35:41Z</time>
      </trkpt>
      <trkpt lat="48.62257" lon="2.01337">
        <ele>142.2</ele>
        <time>2023-12-14T07:35:42Z</time>
      </trkpt>
      <trkpt lat="48.62257" lon="2.0133">
        <ele>143.2</ele>
        <time>2023-12-14T07:35:43Z</time>
      </trkpt>
      <trkpt lat="48.62258" lon="2.01323">
        <ele>143.2</ele>
        <time>2023-12-14T07:35:44Z</time>
      </trkpt>
      <trkpt lat="48.62258" lon="2.01316">
        <ele>143.2</ele>
        <time>2023-12-14T07:35:45Z</time>
      </trkpt>
      <trkpt lat="48.62258" lon="2.01309">
        <ele>143.2</ele>
        <time>2023-12-14T07:35:46Z</time>
      </trkpt>
      <trkpt lat="48.62258" lon="2.01302">
        <ele>143.2</ele>
        <time>2023-12-14T07:35:47Z</time>
      </trkpt>
      <trkpt lat="48.62258" lon="2.01296">
        <ele>143.6</ele>
        <time>2023-12-14T07:35:48Z</time>
      </trkpt>
      <trkpt lat="48.62258" lon="2.01289">
        <ele>143.6</ele>
        <time>2023-12-14T07:35:49Z</time>
      </trkpt>
      <trkpt lat="48.62258" lon="2.01282">
        <ele>143.6</ele>
        <time>2023-12-14T07:35:50Z</time>
      </trkpt>
      <trkpt lat="48.62258" lon="2.01275">
        <ele>144</ele>
        <time>2023-12-14T07:35:51Z</time>
      </trkpt>
      <trkpt lat="48.62259" lon="2.01269">
        <ele>145.2</ele>
        <time>2023-12-14T07:35:52Z</time>
      </trkpt>
      <trkpt lat="48.62259" lon="2.01262">
        <ele>145.2</ele>
        <time>2023-12-14T07:35:53Z</time>
      </trkpt>
      <trkpt lat="48.62259" lon="2.01256">
        <ele>145.2</ele>
        <time>2023-12-14T07:35:54Z</time>
      </trkpt>
      <trkpt lat="48.62259" lon="2.01249">
        <ele>145.2</ele>
        <time>2023-12-14T07:35:55Z</time>
      </trkpt>
      <trkpt lat="48.62259" lon="2.01242">
        <ele>145.4</ele>
        <time>2023-12-14T07:35:56Z</time>
      </trkpt>
      <trkpt lat="48.62259" lon="2.01236">
        <ele>145.4</ele>
        <time>2023-12-14T07:35:57Z</time>
      </trkpt>
      <trkpt lat="48.62259" lon="2.0123">
        <ele>145.4</ele>
        <time>2023-12-14T07:35:58Z</time>
      </trkpt>
      <trkpt lat="48.6226" lon="2.01223">
        <ele>145.6</ele>
        <time>2023-12-14T07:35:59Z</time>
      </trkpt>
      <trkpt lat="48.6226" lon="2.01217">
        <ele>146</ele>
        <time>2023-12-14T07:36:00Z</time>
      </trkpt>
      <trkpt lat="48.6226" lon="2.01212">
        <ele>146</ele>
        <time>2023-12-14T07:36:01Z</time>
      </trkpt>
      <trkpt lat="48.62261" lon="2.01206">
        <ele>146</ele>
        <time>2023-12-14T07:36:02Z</time>
      </trkpt>
      <trkpt lat="48.62261" lon="2.012">
        <ele>146</ele>
        <time>2023-12-14T07:36:03Z</time>
      </trkpt>
      <trkpt lat="48.62261" lon="2.01194">
        <ele>147</ele>
        <time>2023-12-14T07:36:04Z</time>
      </trkpt>
      <trkpt lat="48.62262" lon="2.01188">
        <ele>147</ele>
        <time>2023-12-14T07:36:05Z</time>
      </trkpt>
      <trkpt lat="48.62262" lon="2.01181">
        <ele>147</ele>
        <time>2023-12-14T07:36:06Z</time>
      </trkpt>
      <trkpt lat="48.62263" lon="2.01175">
        <ele>146</ele>
        <time>2023-12-14T07:36:07Z</time>
      </trkpt>
      <trkpt lat="48.62263" lon="2.01168">
        <ele>145.8</ele>
        <time>2023-12-14T07:36:08Z</time>
      </trkpt>
      <trkpt lat="48.62263" lon="2.01161">
        <ele>145.8</ele>
        <time>2023-12-14T07:36:09Z</time>
      </trkpt>
      <trkpt lat="48.62263" lon="2.01154">
        <ele>145.8</ele>
        <time>2023-12-14T07:36:10Z</time>
      </trkpt>
      <trkpt lat="48.62263" lon="2.01147">
        <ele>144.8</ele>
        <time>2023-12-14T07:36:11Z</time>
      </trkpt>
      <trkpt lat="48.62263" lon="2.01141">
        <ele>144.6</ele>
        <time>2023-12-14T07:36:12Z</time>
      </trkpt>
      <trkpt lat="48.62262" lon="2.01134">
        <ele>144.6</ele>
        <time>2023-12-14T07:36:13Z</time>
      </trkpt>
      <trkpt lat="48.62262" lon="2.01127">
        <ele>144.6</ele>
        <time>2023-12-14T07:36:14Z</time>
      </trkpt>
      <trkpt lat="48.62262" lon="2.0112">
        <ele>144.6</ele>
        <time>2023-12-14T07:36:15Z</time>
      </trkpt>
      <trkpt lat="48.62261" lon="2.01111">
        <ele>143.2</ele>
        <time>2023-12-14T07:36:16Z</time>
      </trkpt>
      <trkpt lat="48.6226" lon="2.01103">
        <ele>143.2</ele>
        <time>2023-12-14T07:36:17Z</time>
      </trkpt>
      <trkpt lat="48.62258" lon="2.01094">
        <ele>143.2</ele>
        <time>2023-12-14T07:36:18Z</time>
      </trkpt>
      <trkpt lat="48.62257" lon="2.01086">
        <ele>142.2</ele>
        <time>2023-12-14T07:36:19Z</time>
      </trkpt>
      <trkpt lat="48.62256" lon="2.01077">
        <ele>141</ele>
        <time>2023-12-14T07:36:20Z</time>
      </trkpt>
      <trkpt lat="48.62255" lon="2.01067">
        <ele>141</ele>
        <time>2023-12-14T07:36:21Z</time>
      </trkpt>
      <trkpt lat="48.62254" lon="2.0106">
        <ele>141</ele>
        <time>2023-12-14T07:36:22Z</time>
      </trkpt>
      <trkpt lat="48.62253" lon="2.01051">
        <ele>141</ele>
        <time>2023-12-14T07:36:23Z</time>
      </trkpt>
      <trkpt lat="48.62252" lon="2.0104">
        <ele>140</ele>
        <time>2023-12-14T07:36:24Z</time>
      </trkpt>
      <trkpt lat="48.62251" lon="2.0103">
        <ele>140</ele>
        <time>2023-12-14T07:36:25Z</time>
      </trkpt>
      <trkpt lat="48.6225" lon="2.01019">
        <ele>140</ele>
        <time>2023-12-14T07:36:26Z</time>
      </trkpt>
      <trkpt lat="48.62248" lon="2.01007">
        <ele>139</ele>
        <time>2023-12-14T07:36:27Z</time>
      </trkpt>
      <trkpt lat="48.62247" lon="2.00994">
        <ele>137.4</ele>
        <time>2023-12-14T07:36:28Z</time>
      </trkpt>
      <trkpt lat="48.62246" lon="2.00983">
        <ele>137.4</ele>
        <time>2023-12-14T07:36:29Z</time>
      </trkpt>
      <trkpt lat="48.62244" lon="2.00971">
        <ele>137.4</ele>
        <time>2023-12-14T07:36:30Z</time>
      </trkpt>
      <trkpt lat="48.62243" lon="2.00959">
        <ele>136.4</ele>
        <time>2023-12-14T07:36:31Z</time>
      </trkpt>
      <trkpt lat="48.62241" lon="2.00947">
        <ele>134.4</ele>
        <time>2023-12-14T07:36:32Z</time>
      </trkpt>
      <trkpt lat="48.62239" lon="2.00932">
        <ele>134.4</ele>
        <time>2023-12-14T07:36:33Z</time>
      </trkpt>
      <trkpt lat="48.62236" lon="2.00918">
        <ele>134.4</ele>
        <time>2023-12-14T07:36:34Z</time>
      </trkpt>
      <trkpt lat="48.62234" lon="2.00903">
        <ele>134.4</ele>
        <time>2023-12-14T07:36:35Z</time>
      </trkpt>
      <trkpt lat="48.62232" lon="2.00889">
        <ele>132.2</ele>
        <time>2023-12-14T07:36:36Z</time>
      </trkpt>
      <trkpt lat="48.6223" lon="2.00875">
        <ele>132.2</ele>
        <time>2023-12-14T07:36:37Z</time>
      </trkpt>
      <trkpt lat="48.62228" lon="2.00861">
        <ele>132.2</ele>
        <time>2023-12-14T07:36:38Z</time>
      </trkpt>
      <trkpt lat="48.62226" lon="2.00848">
        <ele>131.2</ele>
        <time>2023-12-14T07:36:39Z</time>
      </trkpt>
      <trkpt lat="48.62225" lon="2.00833">
        <ele>130.6</ele>
        <time>2023-12-14T07:36:40Z</time>
      </trkpt>
      <trkpt lat="48.62224" lon="2.00818">
        <ele>130.6</ele>
        <time>2023-12-14T07:36:41Z</time>
      </trkpt>
      <trkpt lat="48.62223" lon="2.00804">
        <ele>130.6</ele>
        <time>2023-12-14T07:36:42Z</time>
      </trkpt>
      <trkpt lat="48.62221" lon="2.0079">
        <ele>129.6</ele>
        <time>2023-12-14T07:36:43Z</time>
      </trkpt>
      <trkpt lat="48.62219" lon="2.00775">
        <ele>128.2</ele>
        <time>2023-12-14T07:36:44Z</time>
      </trkpt>
      <trkpt lat="48.62217" lon="2.00761">
        <ele>128.2</ele>
        <time>2023-12-14T07:36:45Z</time>
      </trkpt>
      <trkpt lat="48.62216" lon="2.00747">
        <ele>128.2</ele>
        <time>2023-12-14T07:36:46Z</time>
      </trkpt>
      <trkpt lat="48.62214" lon="2.00734">
        <ele>128.2</ele>
        <time>2023-12-14T07:36:47Z</time>
      </trkpt>
      <trkpt lat="48.62212" lon="2.00721">
        <ele>127.6</ele>
        <time>2023-12-14T07:36:48Z</time>
      </trkpt>
      <trkpt lat="48.62211" lon="2.00708">
        <ele>127.6</ele>
        <time>2023-12-14T07:36:49Z</time>
      </trkpt>
      <trkpt lat="48.62209" lon="2.00696">
        <ele>127.6</ele>
        <time>2023-12-14T07:36:50Z</time>
      </trkpt>
      <trkpt lat="48.62208" lon="2.00683">
        <ele>127.6</ele>
        <time>2023-12-14T07:36:51Z</time>
      </trkpt>
      <trkpt lat="48.62206" lon="2.00671">
        <ele>128</ele>
        <time>2023-12-14T07:36:52Z</time>
      </trkpt>
      <trkpt lat="48.62205" lon="2.00658">
        <ele>128</ele>
        <time>2023-12-14T07:36:53Z</time>
      </trkpt>
      <trkpt lat="48.62203" lon="2.00647">
        <ele>128</ele>
        <time>2023-12-14T07:36:54Z</time>
      </trkpt>
      <trkpt lat="48.62201" lon="2.00636">
        <ele>128</ele>
        <time>2023-12-14T07:36:55Z</time>
      </trkpt>
      <trkpt lat="48.622" lon="2.00625">
        <ele>128.6</ele>
        <time>2023-12-14T07:36:56Z</time>
      </trkpt>
      <trkpt lat="48.62199" lon="2.00614">
        <ele>128.6</ele>
        <time>2023-12-14T07:36:57Z</time>
      </trkpt>
      <trkpt lat="48.62197" lon="2.00603">
        <ele>128.6</ele>
        <time>2023-12-14T07:36:58Z</time>
      </trkpt>
      <trkpt lat="48.62196" lon="2.00594">
        <ele>127.8</ele>
        <time>2023-12-14T07:36:59Z</time>
      </trkpt>
      <trkpt lat="48.62195" lon="2.00585">
        <ele>128.2</ele>
        <time>2023-12-14T07:37:00Z</time>
      </trkpt>
      <trkpt lat="48.62195" lon="2.00575">
        <ele>128.2</ele>
        <time>2023-12-14T07:37:01Z</time>
      </trkpt>
      <trkpt lat="48.62194" lon="2.00564">
        <ele>128.2</ele>
        <time>2023-12-14T07:37:02Z</time>
      </trkpt>
      <trkpt lat="48.62193" lon="2.00554">
        <ele>128.2</ele>
        <time>2023-12-14T07:37:03Z</time>
      </trkpt>
      <trkpt lat="48.62192" lon="2.00544">
        <ele>128.6</ele>
        <time>2023-12-14T07:37:04Z</time>
      </trkpt>
      <trkpt lat="48.62191" lon="2.00532">
        <ele>128.6</ele>
        <time>2023-12-14T07:37:05Z</time>
      </trkpt>
      <trkpt lat="48.6219" lon="2.00521">
        <ele>128.6</ele>
        <time>2023-12-14T07:37:06Z</time>
      </trkpt>
      <trkpt lat="48.62189" lon="2.00512">
        <ele>128.4</ele>
        <time>2023-12-14T07:37:07Z</time>
      </trkpt>
      <trkpt lat="48.62188" lon="2.00501">
        <ele>127.6</ele>
        <time>2023-12-14T07:37:08Z</time>
      </trkpt>
      <trkpt lat="48.62187" lon="2.0049">
        <ele>127.6</ele>
        <time>2023-12-14T07:37:09Z</time>
      </trkpt>
      <trkpt lat="48.62186" lon="2.00479">
        <ele>127.6</ele>
        <time>2023-12-14T07:37:10Z</time>
      </trkpt>
      <trkpt lat="48.62185" lon="2.00467">
        <ele>128.2</ele>
        <time>2023-12-14T07:37:11Z</time>
      </trkpt>
      <trkpt lat="48.62183" lon="2.00456">
        <ele>127.8</ele>
        <time>2023-12-14T07:37:12Z</time>
      </trkpt>
      <trkpt lat="48.62182" lon="2.00445">
        <ele>127.8</ele>
        <time>2023-12-14T07:37:13Z</time>
      </trkpt>
      <trkpt lat="48.62181" lon="2.00435">
        <ele>127.8</ele>
        <time>2023-12-14T07:37:14Z</time>
      </trkpt>
      <trkpt lat="48.6218" lon="2.00424">
        <ele>127.8</ele>
        <time>2023-12-14T07:37:15Z</time>
      </trkpt>
      <trkpt lat="48.62178" lon="2.00414">
        <ele>127.6</ele>
        <time>2023-12-14T07:37:16Z</time>
      </trkpt>
      <trkpt lat="48.62176" lon="2.00404">
        <ele>127.6</ele>
        <time>2023-12-14T07:37:17Z</time>
      </trkpt>
      <trkpt lat="48.62175" lon="2.00394">
        <ele>127.6</ele>
        <time>2023-12-14T07:37:18Z</time>
      </trkpt>
      <trkpt lat="48.62174" lon="2.00384">
        <ele>126.6</ele>
        <time>2023-12-14T07:37:19Z</time>
      </trkpt>
      <trkpt lat="48.62173" lon="2.00374">
        <ele>126.8</ele>
        <time>2023-12-14T07:37:20Z</time>
      </trkpt>
      <trkpt lat="48.62171" lon="2.00364">
        <ele>126.8</ele>
        <time>2023-12-14T07:37:21Z</time>
      </trkpt>
      <trkpt lat="48.6217" lon="2.00354">
        <ele>126.8</ele>
        <time>2023-12-14T07:37:22Z</time>
      </trkpt>
      <trkpt lat="48.62169" lon="2.00344">
        <ele>126.8</ele>
        <time>2023-12-14T07:37:23Z</time>
      </trkpt>
      <trkpt lat="48.62167" lon="2.00335">
        <ele>127.4</ele>
        <time>2023-12-14T07:37:24Z</time>
      </trkpt>
      <trkpt lat="48.62166" lon="2.00325">
        <ele>127.4</ele>
        <time>2023-12-14T07:37:25Z</time>
      </trkpt>
      <trkpt lat="48.62164" lon="2.00316">
        <ele>127.4</ele>
        <time>2023-12-14T07:37:26Z</time>
      </trkpt>
      <trkpt lat="48.62163" lon="2.00308">
        <ele>127.4</ele>
        <time>2023-12-14T07:37:27Z</time>
      </trkpt>
      <trkpt lat="48.62162" lon="2.00299">
        <ele>127.2</ele>
        <time>2023-12-14T07:37:28Z</time>
      </trkpt>
      <trkpt lat="48.62161" lon="2.0029">
        <ele>127.2</ele>
        <time>2023-12-14T07:37:29Z</time>
      </trkpt>
      <trkpt lat="48.6216" lon="2.0028">
        <ele>127.2</ele>
        <time>2023-12-14T07:37:30Z</time>
      </trkpt>
      <trkpt lat="48.62159" lon="2.00271">
        <ele>128.2</ele>
        <time>2023-12-14T07:37:31Z</time>
      </trkpt>
      <trkpt lat="48.62156" lon="2.00262">
        <ele>127.8</ele>
        <time>2023-12-14T07:37:32Z</time>
      </trkpt>
      <trkpt lat="48.62153" lon="2.00254">
        <ele>127.8</ele>
        <time>2023-12-14T07:37:33Z</time>
      </trkpt>
      <trkpt lat="48.6215" lon="2.00245">
        <ele>127.8</ele>
        <time>2023-12-14T07:37:34Z</time>
      </trkpt>
      <trkpt lat="48.62147" lon="2.00237">
        <ele>126.8</ele>
        <time>2023-12-14T07:37:35Z</time>
      </trkpt>
      <trkpt lat="48.62144" lon="2.00228">
        <ele>126.6</ele>
        <time>2023-12-14T07:37:36Z</time>
      </trkpt>
      <trkpt lat="48.62141" lon="2.00219">
        <ele>126.6</ele>
        <time>2023-12-14T07:37:37Z</time>
      </trkpt>
      <trkpt lat="48.62138" lon="2.0021">
        <ele>126.6</ele>
        <time>2023-12-14T07:37:38Z</time>
      </trkpt>
      <trkpt lat="48.62135" lon="2.00202">
        <ele>126.2</ele>
        <time>2023-12-14T07:37:39Z</time>
      </trkpt>
      <trkpt lat="48.62131" lon="2.00192">
        <ele>125.2</ele>
        <time>2023-12-14T07:37:40Z</time>
      </trkpt>
      <trkpt lat="48.62128" lon="2.00183">
        <ele>125.2</ele>
        <time>2023-12-14T07:37:41Z</time>
      </trkpt>
      <trkpt lat="48.62124" lon="2.00173">
        <ele>125.2</ele>
        <time>2023-12-14T07:37:42Z</time>
      </trkpt>
      <trkpt lat="48.62121" lon="2.00164">
        <ele>124.2</ele>
        <time>2023-12-14T07:37:43Z</time>
      </trkpt>
      <trkpt lat="48.62117" lon="2.00154">
        <ele>122.6</ele>
        <time>2023-12-14T07:37:44Z</time>
      </trkpt>
      <trkpt lat="48.62113" lon="2.00145">
        <ele>122.6</ele>
        <time>2023-12-14T07:37:45Z</time>
      </trkpt>
      <trkpt lat="48.6211" lon="2.00135">
        <ele>122.6</ele>
        <time>2023-12-14T07:37:46Z</time>
      </trkpt>
      <trkpt lat="48.62107" lon="2.00126">
        <ele>122.6</ele>
        <time>2023-12-14T07:37:47Z</time>
      </trkpt>
      <trkpt lat="48.62103" lon="2.00117">
        <ele>122.6</ele>
        <time>2023-12-14T07:37:48Z</time>
      </trkpt>
      <trkpt lat="48.62099" lon="2.00108">
        <ele>122.6</ele>
        <time>2023-12-14T07:37:49Z</time>
      </trkpt>
      <trkpt lat="48.62096" lon="2.00098">
        <ele>122.6</ele>
        <time>2023-12-14T07:37:50Z</time>
      </trkpt>
      <trkpt lat="48.62092" lon="2.00089">
        <ele>122.6</ele>
        <time>2023-12-14T07:37:51Z</time>
      </trkpt>
      <trkpt lat="48.62089" lon="2.0008">
        <ele>123.4</ele>
        <time>2023-12-14T07:37:52Z</time>
      </trkpt>
      <trkpt lat="48.62086" lon="2.00071">
        <ele>123.4</ele>
        <time>2023-12-14T07:37:53Z</time>
      </trkpt>
      <trkpt lat="48.62083" lon="2.00061">
        <ele>123.4</ele>
        <time>2023-12-14T07:37:54Z</time>
      </trkpt>
      <trkpt lat="48.6208" lon="2.00051">
        <ele>123.4</ele>
        <time>2023-12-14T07:37:55Z</time>
      </trkpt>
      <trkpt lat="48.62077" lon="2.00041">
        <ele>121.8</ele>
        <time>2023-12-14T07:37:56Z</time>
      </trkpt>
      <trkpt lat="48.62075" lon="2.00031">
        <ele>121.8</ele>
        <time>2023-12-14T07:37:57Z</time>
      </trkpt>
      <trkpt lat="48.62073" lon="2.00021">
        <ele>121.8</ele>
        <time>2023-12-14T07:37:58Z</time>
      </trkpt>
      <trkpt lat="48.62072" lon="2.00011">
        <ele>122.4</ele>
        <time>2023-12-14T07:37:59Z</time>
      </trkpt>
      <trkpt lat="48.6207" lon="2.00001">
        <ele>122.4</ele>
        <time>2023-12-14T07:38:00Z</time>
      </trkpt>
      <trkpt lat="48.62069" lon="1.99991">
        <ele>122.4</ele>
        <time>2023-12-14T07:38:01Z</time>
      </trkpt>
      <trkpt lat="48.62068" lon="1.99981">
        <ele>122.4</ele>
        <time>2023-12-14T07:38:02Z</time>
      </trkpt>
      <trkpt lat="48.62067" lon="1.99971">
        <ele>122.4</ele>
        <time>2023-12-14T07:38:03Z</time>
      </trkpt>
      <trkpt lat="48.62065" lon="1.99961">
        <ele>122.6</ele>
        <time>2023-12-14T07:38:04Z</time>
      </trkpt>
      <trkpt lat="48.62064" lon="1.99952">
        <ele>122.6</ele>
        <time>2023-12-14T07:38:05Z</time>
      </trkpt>
      <trkpt lat="48.62063" lon="1.99944">
        <ele>122.6</ele>
        <time>2023-12-14T07:38:06Z</time>
      </trkpt>
      <trkpt lat="48.62062" lon="1.99936">
        <ele>123.6</ele>
        <time>2023-12-14T07:38:07Z</time>
      </trkpt>
      <trkpt lat="48.62061" lon="1.99929">
        <ele>124.2</ele>
        <time>2023-12-14T07:38:08Z</time>
      </trkpt>
      <trkpt lat="48.62061" lon="1.99922">
        <ele>124.2</ele>
        <time>2023-12-14T07:38:09Z</time>
      </trkpt>
      <trkpt lat="48.62062" lon="1.99915">
        <ele>124.2</ele>
        <time>2023-12-14T07:38:10Z</time>
      </trkpt>
      <trkpt lat="48.62064" lon="1.99909">
        <ele>124.2</ele>
        <time>2023-12-14T07:38:11Z</time>
      </trkpt>
      <trkpt lat="48.62068" lon="1.99903">
        <ele>123.6</ele>
        <time>2023-12-14T07:38:12Z</time>
      </trkpt>
      <trkpt lat="48.62072" lon="1.99898">
        <ele>123.6</ele>
        <time>2023-12-14T07:38:13Z</time>
      </trkpt>
      <trkpt lat="48.62076" lon="1.99893">
        <ele>123.6</ele>
        <time>2023-12-14T07:38:14Z</time>
      </trkpt>
      <trkpt lat="48.62081" lon="1.99888">
        <ele>123.6</ele>
        <time>2023-12-14T07:38:15Z</time>
      </trkpt>
      <trkpt lat="48.62086" lon="1.99884">
        <ele>124</ele>
        <time>2023-12-14T07:38:16Z</time>
      </trkpt>
      <trkpt lat="48.62091" lon="1.99881">
        <ele>124</ele>
        <time>2023-12-14T07:38:17Z</time>
      </trkpt>
      <trkpt lat="48.62096" lon="1.99877">
        <ele>124</ele>
        <time>2023-12-14T07:38:18Z</time>
      </trkpt>
      <trkpt lat="48.62101" lon="1.99874">
        <ele>124</ele>
        <time>2023-12-14T07:38:19Z</time>
      </trkpt>
      <trkpt lat="48.62106" lon="1.99871">
        <ele>124</ele>
        <time>2023-12-14T07:38:20Z</time>
      </trkpt>
      <trkpt lat="48.62111" lon="1.99868">
        <ele>124</ele>
        <time>2023-12-14T07:38:21Z</time>
      </trkpt>
      <trkpt lat="48.62115" lon="1.99864">
        <ele>124</ele>
        <time>2023-12-14T07:38:22Z</time>
      </trkpt>
      <trkpt lat="48.6212" lon="1.99861">
        <ele>125</ele>
        <time>2023-12-14T07:38:23Z</time>
      </trkpt>
      <trkpt lat="48.62124" lon="1.99858">
        <ele>125.2</ele>
        <time>2023-12-14T07:38:24Z</time>
      </trkpt>
      <trkpt lat="48.62129" lon="1.99854">
        <ele>125.2</ele>
        <time>2023-12-14T07:38:25Z</time>
      </trkpt>
      <trkpt lat="48.62133" lon="1.9985">
        <ele>125.2</ele>
        <time>2023-12-14T07:38:26Z</time>
      </trkpt>
      <trkpt lat="48.62137" lon="1.99847">
        <ele>126.2</ele>
        <time>2023-12-14T07:38:27Z</time>
      </trkpt>
      <trkpt lat="48.62142" lon="1.99843">
        <ele>126.4</ele>
        <time>2023-12-14T07:38:28Z</time>
      </trkpt>
      <trkpt lat="48.62146" lon="1.9984">
        <ele>126.4</ele>
        <time>2023-12-14T07:38:29Z</time>
      </trkpt>
      <trkpt lat="48.6215" lon="1.99836">
        <ele>126.4</ele>
        <time>2023-12-14T07:38:30Z</time>
      </trkpt>
      <trkpt lat="48.62155" lon="1.99832">
        <ele>126.4</ele>
        <time>2023-12-14T07:38:31Z</time>
      </trkpt>
      <trkpt lat="48.62159" lon="1.99828">
        <ele>126.8</ele>
        <time>2023-12-14T07:38:32Z</time>
      </trkpt>
      <trkpt lat="48.62163" lon="1.99824">
        <ele>126.8</ele>
        <time>2023-12-14T07:38:33Z</time>
      </trkpt>
      <trkpt lat="48.62167" lon="1.9982">
        <ele>126.8</ele>
        <time>2023-12-14T07:38:34Z</time>
      </trkpt>
      <trkpt lat="48.6217" lon="1.99816">
        <ele>126.8</ele>
        <time>2023-12-14T07:38:35Z</time>
      </trkpt>
      <trkpt lat="48.62174" lon="1.99812">
        <ele>127.6</ele>
        <time>2023-12-14T07:38:36Z</time>
      </trkpt>
      <trkpt lat="48.62178" lon="1.99807">
        <ele>127.6</ele>
        <time>2023-12-14T07:38:37Z</time>
      </trkpt>
      <trkpt lat="48.62182" lon="1.99802">
        <ele>127.6</ele>
        <time>2023-12-14T07:38:38Z</time>
      </trkpt>
      <trkpt lat="48.62186" lon="1.99798">
        <ele>127.6</ele>
        <time>2023-12-14T07:38:39Z</time>
      </trkpt>
      <trkpt lat="48.62189" lon="1.99792">
        <ele>127.4</ele>
        <time>2023-12-14T07:38:40Z</time>
      </trkpt>
      <trkpt lat="48.62193" lon="1.99787">
        <ele>127.4</ele>
        <time>2023-12-14T07:38:41Z</time>
      </trkpt>
      <trkpt lat="48.62197" lon="1.99782">
        <ele>127.4</ele>
        <time>2023-12-14T07:38:42Z</time>
      </trkpt>
      <trkpt lat="48.622" lon="1.99777">
        <ele>127</ele>
        <time>2023-12-14T07:38:43Z</time>
      </trkpt>
      <trkpt lat="48.62203" lon="1.99771">
        <ele>127.2</ele>
        <time>2023-12-14T07:38:44Z</time>
      </trkpt>
      <trkpt lat="48.62205" lon="1.99764">
        <ele>127.2</ele>
        <time>2023-12-14T07:38:45Z</time>
      </trkpt>
      <trkpt lat="48.62207" lon="1.99756">
        <ele>127.2</ele>
        <time>2023-12-14T07:38:46Z</time>
      </trkpt>
      <trkpt lat="48.62208" lon="1.99748">
        <ele>126.2</ele>
        <time>2023-12-14T07:38:47Z</time>
      </trkpt>
      <trkpt lat="48.62209" lon="1.99739">
        <ele>125.8</ele>
        <time>2023-12-14T07:38:48Z</time>
      </trkpt>
      <trkpt lat="48.62209" lon="1.99731">
        <ele>125.8</ele>
        <time>2023-12-14T07:38:49Z</time>
      </trkpt>
      <trkpt lat="48.62209" lon="1.99723">
        <ele>125.8</ele>
        <time>2023-12-14T07:38:50Z</time>
      </trkpt>
      <trkpt lat="48.62209" lon="1.99715">
        <ele>126.8</ele>
        <time>2023-12-14T07:38:51Z</time>
      </trkpt>
      <trkpt lat="48.62209" lon="1.99706">
        <ele>126</ele>
        <time>2023-12-14T07:38:52Z</time>
      </trkpt>
      <trkpt lat="48.62209" lon="1.99697">
        <ele>126</ele>
        <time>2023-12-14T07:38:53Z</time>
      </trkpt>
      <trkpt lat="48.6221" lon="1.99688">
        <ele>126</ele>
        <time>2023-12-14T07:38:54Z</time>
      </trkpt>
      <trkpt lat="48.62211" lon="1.99679">
        <ele>125.2</ele>
        <time>2023-12-14T07:38:55Z</time>
      </trkpt>
      <trkpt lat="48.62212" lon="1.99668">
        <ele>125.2</ele>
        <time>2023-12-14T07:38:56Z</time>
      </trkpt>
      <trkpt lat="48.62213" lon="1.99658">
        <ele>125.2</ele>
        <time>2023-12-14T07:38:57Z</time>
      </trkpt>
      <trkpt lat="48.62214" lon="1.99647">
        <ele>125.2</ele>
        <time>2023-12-14T07:38:58Z</time>
      </trkpt>
      <trkpt lat="48.62215" lon="1.99636">
        <ele>124.2</ele>
        <time>2023-12-14T07:38:59Z</time>
      </trkpt>
      <trkpt lat="48.62216" lon="1.99625">
        <ele>123.2</ele>
        <time>2023-12-14T07:39:00Z</time>
      </trkpt>
      <trkpt lat="48.62217" lon="1.99614">
        <ele>123.2</ele>
        <time>2023-12-14T07:39:01Z</time>
      </trkpt>
      <trkpt lat="48.62219" lon="1.99602">
        <ele>123.2</ele>
        <time>2023-12-14T07:39:02Z</time>
      </trkpt>
      <trkpt lat="48.6222" lon="1.9959">
        <ele>122.2</ele>
        <time>2023-12-14T07:39:03Z</time>
      </trkpt>
      <trkpt lat="48.6222" lon="1.99578">
        <ele>119.4</ele>
        <time>2023-12-14T07:39:04Z</time>
      </trkpt>
      <trkpt lat="48.6222" lon="1.99565">
        <ele>119.4</ele>
        <time>2023-12-14T07:39:05Z</time>
      </trkpt>
      <trkpt lat="48.6222" lon="1.99553">
        <ele>119.4</ele>
        <time>2023-12-14T07:39:06Z</time>
      </trkpt>
      <trkpt lat="48.6222" lon="1.9954">
        <ele>118.4</ele>
        <time>2023-12-14T07:39:07Z</time>
      </trkpt>
      <trkpt lat="48.62219" lon="1.99528">
        <ele>117.8</ele>
        <time>2023-12-14T07:39:08Z</time>
      </trkpt>
      <trkpt lat="48.62219" lon="1.99514">
        <ele>117.8</ele>
        <time>2023-12-14T07:39:09Z</time>
      </trkpt>
      <trkpt lat="48.62219" lon="1.99501">
        <ele>117.8</ele>
        <time>2023-12-14T07:39:10Z</time>
      </trkpt>
      <trkpt lat="48.62219" lon="1.99488">
        <ele>117.8</ele>
        <time>2023-12-14T07:39:11Z</time>
      </trkpt>
      <trkpt lat="48.62219" lon="1.99475">
        <ele>116.6</ele>
        <time>2023-12-14T07:39:12Z</time>
      </trkpt>
      <trkpt lat="48.62219" lon="1.99461">
        <ele>116.6</ele>
        <time>2023-12-14T07:39:13Z</time>
      </trkpt>
      <trkpt lat="48.62219" lon="1.99447">
        <ele>116.6</ele>
        <time>2023-12-14T07:39:14Z</time>
      </trkpt>
      <trkpt lat="48.62218" lon="1.99434">
        <ele>116.6</ele>
        <time>2023-12-14T07:39:15Z</time>
      </trkpt>
      <trkpt lat="48.62218" lon="1.9942">
        <ele>115.2</ele>
        <time>2023-12-14T07:39:16Z</time>
      </trkpt>
      <trkpt lat="48.62217" lon="1.99407">
        <ele>115.2</ele>
        <time>2023-12-14T07:39:17Z</time>
      </trkpt>
      <trkpt lat="48.62217" lon="1.99393">
        <ele>115.2</ele>
        <time>2023-12-14T07:39:18Z</time>
      </trkpt>
      <trkpt lat="48.62216" lon="1.9938">
        <ele>115.2</ele>
        <time>2023-12-14T07:39:19Z</time>
      </trkpt>
      <trkpt lat="48.62215" lon="1.99367">
        <ele>115.2</ele>
        <time>2023-12-14T07:39:20Z</time>
      </trkpt>
      <trkpt lat="48.62214" lon="1.99355">
        <ele>115.2</ele>
        <time>2023-12-14T07:39:21Z</time>
      </trkpt>
      <trkpt lat="48.62213" lon="1.99342">
        <ele>115.2</ele>
        <time>2023-12-14T07:39:22Z</time>
      </trkpt>
      <trkpt lat="48.62212" lon="1.9933">
        <ele>114.6</ele>
        <time>2023-12-14T07:39:23Z</time>
      </trkpt>
      <trkpt lat="48.6221" lon="1.99318">
        <ele>114.6</ele>
        <time>2023-12-14T07:39:24Z</time>
      </trkpt>
      <trkpt lat="48.62207" lon="1.99307">
        <ele>114.6</ele>
        <time>2023-12-14T07:39:25Z</time>
      </trkpt>
      <trkpt lat="48.62205" lon="1.99296">
        <ele>114.6</ele>
        <time>2023-12-14T07:39:26Z</time>
      </trkpt>
      <trkpt lat="48.62202" lon="1.99285">
        <ele>114.6</ele>
        <time>2023-12-14T07:39:27Z</time>
      </trkpt>
      <trkpt lat="48.62199" lon="1.99275">
        <ele>114.8</ele>
        <time>2023-12-14T07:39:28Z</time>
      </trkpt>
      <trkpt lat="48.62196" lon="1.99265">
        <ele>114.8</ele>
        <time>2023-12-14T07:39:29Z</time>
      </trkpt>
      <trkpt lat="48.62194" lon="1.99256">
        <ele>114.8</ele>
        <time>2023-12-14T07:39:30Z</time>
      </trkpt>
      <trkpt lat="48.62191" lon="1.99247">
        <ele>115</ele>
        <time>2023-12-14T07:39:31Z</time>
      </trkpt>
      <trkpt lat="48.62188" lon="1.99238">
        <ele>116.4</ele>
        <time>2023-12-14T07:39:32Z</time>
      </trkpt>
      <trkpt lat="48.62184" lon="1.9923">
        <ele>116.4</ele>
        <time>2023-12-14T07:39:33Z</time>
      </trkpt>
      <trkpt lat="48.62181" lon="1.99223">
        <ele>116.4</ele>
        <time>2023-12-14T07:39:34Z</time>
      </trkpt>
      <trkpt lat="48.62177" lon="1.99216">
        <ele>116.8</ele>
        <time>2023-12-14T07:39:35Z</time>
      </trkpt>
      <trkpt lat="48.62173" lon="1.9921">
        <ele>117.2</ele>
        <time>2023-12-14T07:39:36Z</time>
      </trkpt>
      <trkpt lat="48.62168" lon="1.99204">
        <ele>117.2</ele>
        <time>2023-12-14T07:39:37Z</time>
      </trkpt>
      <trkpt lat="48.62164" lon="1.99198">
        <ele>117.2</ele>
        <time>2023-12-14T07:39:38Z</time>
      </trkpt>
      <trkpt lat="48.6216" lon="1.99191">
        <ele>117.4</ele>
        <time>2023-12-14T07:39:39Z</time>
      </trkpt>
      <trkpt lat="48.62155" lon="1.99184">
        <ele>117</ele>
        <time>2023-12-14T07:39:40Z</time>
      </trkpt>
      <trkpt lat="48.62151" lon="1.99177">
        <ele>117</ele>
        <time>2023-12-14T07:39:41Z</time>
      </trkpt>
      <trkpt lat="48.62147" lon="1.99169">
        <ele>117</ele>
        <time>2023-12-14T07:39:42Z</time>
      </trkpt>
      <trkpt lat="48.62143" lon="1.99162">
        <ele>117</ele>
        <time>2023-12-14T07:39:43Z</time>
      </trkpt>
      <trkpt lat="48.62139" lon="1.99154">
        <ele>115.8</ele>
        <time>2023-12-14T07:39:44Z</time>
      </trkpt>
      <trkpt lat="48.62135" lon="1.99146">
        <ele>115.8</ele>
        <time>2023-12-14T07:39:45Z</time>
      </trkpt>
      <trkpt lat="48.62131" lon="1.99138">
        <ele>115.8</ele>
        <time>2023-12-14T07:39:46Z</time>
      </trkpt>
      <trkpt lat="48.62126" lon="1.9913">
        <ele>115.8</ele>
        <time>2023-12-14T07:39:47Z</time>
      </trkpt>
      <trkpt lat="48.62122" lon="1.99122">
        <ele>115.8</ele>
        <time>2023-12-14T07:39:48Z</time>
      </trkpt>
      <trkpt lat="48.62118" lon="1.99114">
        <ele>115.8</ele>
        <time>2023-12-14T07:39:49Z</time>
      </trkpt>
      <trkpt lat="48.62114" lon="1.99106">
        <ele>115.8</ele>
        <time>2023-12-14T07:39:50Z</time>
      </trkpt>
      <trkpt lat="48.62109" lon="1.99098">
        <ele>115.8</ele>
        <time>2023-12-14T07:39:51Z</time>
      </trkpt>
      <trkpt lat="48.62105" lon="1.9909">
        <ele>116.2</ele>
        <time>2023-12-14T07:39:52Z</time>
      </trkpt>
      <trkpt lat="48.62101" lon="1.99082">
        <ele>116.2</ele>
        <time>2023-12-14T07:39:53Z</time>
      </trkpt>
      <trkpt lat="48.62097" lon="1.99075">
        <ele>116.2</ele>
        <time>2023-12-14T07:39:54Z</time>
      </trkpt>
      <trkpt lat="48.62093" lon="1.99067">
        <ele>116.2</ele>
        <time>2023-12-14T07:39:55Z</time>
      </trkpt>
      <trkpt lat="48.62089" lon="1.99059">
        <ele>116</ele>
        <time>2023-12-14T07:39:56Z</time>
      </trkpt>
      <trkpt lat="48.62086" lon="1.99051">
        <ele>116</ele>
        <time>2023-12-14T07:39:57Z</time>
      </trkpt>
      <trkpt lat="48.62082" lon="1.99043">
        <ele>116</ele>
        <time>2023-12-14T07:39:58Z</time>
      </trkpt>
      <trkpt lat="48.62079" lon="1.99035">
        <ele>116</ele>
        <time>2023-12-14T07:39:59Z</time>
      </trkpt>
      <trkpt lat="48.62075" lon="1.99027">
        <ele>115.8</ele>
        <time>2023-12-14T07:40:00Z</time>
      </trkpt>
      <trkpt lat="48.62072" lon="1.99019">
        <ele>115.8</ele>
        <time>2023-12-14T07:40:01Z</time>
      </trkpt>
      <trkpt lat="48.62069" lon="1.9901">
        <ele>115.8</ele>
        <time>2023-12-14T07:40:02Z</time>
      </trkpt>
      <trkpt lat="48.62066" lon="1.99002">
        <ele>116.2</ele>
        <time>2023-12-14T07:40:03Z</time>
      </trkpt>
      <trkpt lat="48.62063" lon="1.98994">
        <ele>116</ele>
        <time>2023-12-14T07:40:04Z</time>
      </trkpt>
      <trkpt lat="48.62061" lon="1.98986">
        <ele>116</ele>
        <time>2023-12-14T07:40:05Z</time>
      </trkpt>
      <trkpt lat="48.62058" lon="1.98978">
        <ele>116</ele>
        <time>2023-12-14T07:40:06Z</time>
      </trkpt>
      <trkpt lat="48.62055" lon="1.9897">
        <ele>116</ele>
        <time>2023-12-14T07:40:07Z</time>
      </trkpt>
      <trkpt lat="48.62052" lon="1.98962">
        <ele>116.2</ele>
        <time>2023-12-14T07:40:08Z</time>
      </trkpt>
      <trkpt lat="48.62049" lon="1.98954">
        <ele>116.2</ele>
        <time>2023-12-14T07:40:09Z</time>
      </trkpt>
      <trkpt lat="48.62047" lon="1.98946">
        <ele>116.2</ele>
        <time>2023-12-14T07:40:10Z</time>
      </trkpt>
      <trkpt lat="48.62044" lon="1.98939">
        <ele>116.8</ele>
        <time>2023-12-14T07:40:11Z</time>
      </trkpt>
      <trkpt lat="48.62041" lon="1.98931">
        <ele>116.8</ele>
        <time>2023-12-14T07:40:12Z</time>
      </trkpt>
      <trkpt lat="48.62038" lon="1.98923">
        <ele>116.8</ele>
        <time>2023-12-14T07:40:13Z</time>
      </trkpt>
      <trkpt lat="48.62035" lon="1.98916">
        <ele>116.8</ele>
        <time>2023-12-14T07:40:14Z</time>
      </trkpt>
      <trkpt lat="48.62032" lon="1.98908">
        <ele>116.8</ele>
        <time>2023-12-14T07:40:15Z</time>
      </trkpt>
      <trkpt lat="48.62028" lon="1.989">
        <ele>116.6</ele>
        <time>2023-12-14T07:40:16Z</time>
      </trkpt>
      <trkpt lat="48.62025" lon="1.98893">
        <ele>116.6</ele>
        <time>2023-12-14T07:40:17Z</time>
      </trkpt>
      <trkpt lat="48.62021" lon="1.98886">
        <ele>116.6</ele>
        <time>2023-12-14T07:40:18Z</time>
      </trkpt>
      <trkpt lat="48.62017" lon="1.9888">
        <ele>116.4</ele>
        <time>2023-12-14T07:40:19Z</time>
      </trkpt>
      <trkpt lat="48.62013" lon="1.98874">
        <ele>116.6</ele>
        <time>2023-12-14T07:40:20Z</time>
      </trkpt>
      <trkpt lat="48.62008" lon="1.98867">
        <ele>116.6</ele>
        <time>2023-12-14T07:40:21Z</time>
      </trkpt>
      <trkpt lat="48.62004" lon="1.98862">
        <ele>116.6</ele>
        <time>2023-12-14T07:40:22Z</time>
      </trkpt>
      <trkpt lat="48.61999" lon="1.98856">
        <ele>116.8</ele>
        <time>2023-12-14T07:40:23Z</time>
      </trkpt>
      <trkpt lat="48.61993" lon="1.98851">
        <ele>117</ele>
        <time>2023-12-14T07:40:24Z</time>
      </trkpt>
      <trkpt lat="48.61988" lon="1.98846">
        <ele>117</ele>
        <time>2023-12-14T07:40:25Z</time>
      </trkpt>
      <trkpt lat="48.61983" lon="1.98841">
        <ele>117</ele>
        <time>2023-12-14T07:40:26Z</time>
      </trkpt>
      <trkpt lat="48.61977" lon="1.98836">
        <ele>117</ele>
        <time>2023-12-14T07:40:27Z</time>
      </trkpt>
      <trkpt lat="48.61972" lon="1.98832">
        <ele>116.6</ele>
        <time>2023-12-14T07:40:28Z</time>
      </trkpt>
      <trkpt lat="48.61966" lon="1.98827">
        <ele>116.6</ele>
        <time>2023-12-14T07:40:29Z</time>
      </trkpt>
      <trkpt lat="48.6196" lon="1.98822">
        <ele>116.6</ele>
        <time>2023-12-14T07:40:30Z</time>
      </trkpt>
      <trkpt lat="48.61955" lon="1.98818">
        <ele>116.6</ele>
        <time>2023-12-14T07:40:31Z</time>
      </trkpt>
      <trkpt lat="48.61949" lon="1.98813">
        <ele>116</ele>
        <time>2023-12-14T07:40:32Z</time>
      </trkpt>
      <trkpt lat="48.61944" lon="1.98808">
        <ele>116</ele>
        <time>2023-12-14T07:40:33Z</time>
      </trkpt>
      <trkpt lat="48.61938" lon="1.98804">
        <ele>116</ele>
        <time>2023-12-14T07:40:34Z</time>
      </trkpt>
      <trkpt lat="48.61932" lon="1.98799">
        <ele>116</ele>
        <time>2023-12-14T07:40:35Z</time>
      </trkpt>
      <trkpt lat="48.61927" lon="1.98794">
        <ele>116.2</ele>
        <time>2023-12-14T07:40:36Z</time>
      </trkpt>
      <trkpt lat="48.61921" lon="1.9879">
        <ele>116.2</ele>
        <time>2023-12-14T07:40:37Z</time>
      </trkpt>
      <trkpt lat="48.61915" lon="1.98785">
        <ele>116.2</ele>
        <time>2023-12-14T07:40:38Z</time>
      </trkpt>
      <trkpt lat="48.6191" lon="1.9878">
        <ele>115.8</ele>
        <time>2023-12-14T07:40:39Z</time>
      </trkpt>
      <trkpt lat="48.61904" lon="1.98776">
        <ele>116.2</ele>
        <time>2023-12-14T07:40:40Z</time>
      </trkpt>
      <trkpt lat="48.61898" lon="1.98771">
        <ele>116.2</ele>
        <time>2023-12-14T07:40:41Z</time>
      </trkpt>
      <trkpt lat="48.61893" lon="1.98766">
        <ele>116.2</ele>
        <time>2023-12-14T07:40:42Z</time>
      </trkpt>
      <trkpt lat="48.61887" lon="1.98762">
        <ele>116.2</ele>
        <time>2023-12-14T07:40:43Z</time>
      </trkpt>
      <trkpt lat="48.61882" lon="1.98757">
        <ele>116</ele>
        <time>2023-12-14T07:40:44Z</time>
      </trkpt>
      <trkpt lat="48.61876" lon="1.98752">
        <ele>116</ele>
        <time>2023-12-14T07:40:45Z</time>
      </trkpt>
      <trkpt lat="48.6187" lon="1.98746">
        <ele>116</ele>
        <time>2023-12-14T07:40:46Z</time>
      </trkpt>
      <trkpt lat="48.61865" lon="1.98741">
        <ele>116</ele>
        <time>2023-12-14T07:40:47Z</time>
      </trkpt>
      <trkpt lat="48.61859" lon="1.98736">
        <ele>115.6</ele>
        <time>2023-12-14T07:40:48Z</time>
      </trkpt>
      <trkpt lat="48.61854" lon="1.9873">
        <ele>115.6</ele>
        <time>2023-12-14T07:40:49Z</time>
      </trkpt>
      <trkpt lat="48.61848" lon="1.98725">
        <ele>115.6</ele>
        <time>2023-12-14T07:40:50Z</time>
      </trkpt>
      <trkpt lat="48.61843" lon="1.98719">
        <ele>116</ele>
        <time>2023-12-14T07:40:51Z</time>
      </trkpt>
      <trkpt lat="48.61838" lon="1.98714">
        <ele>115.8</ele>
        <time>2023-12-14T07:40:52Z</time>
      </trkpt>
      <trkpt lat="48.61833" lon="1.98708">
        <ele>115.8</ele>
        <time>2023-12-14T07:40:53Z</time>
      </trkpt>
      <trkpt lat="48.61828" lon="1.98702">
        <ele>115.8</ele>
        <time>2023-12-14T07:40:54Z</time>
      </trkpt>
      <trkpt lat="48.61823" lon="1.98696">
        <ele>115.8</ele>
        <time>2023-12-14T07:40:55Z</time>
      </trkpt>
      <trkpt lat="48.61818" lon="1.98689">
        <ele>116.2</ele>
        <time>2023-12-14T07:40:56Z</time>
      </trkpt>
      <trkpt lat="48.61813" lon="1.98682">
        <ele>116.2</ele>
        <time>2023-12-14T07:40:57Z</time>
      </trkpt>
      <trkpt lat="48.61809" lon="1.98675">
        <ele>116.2</ele>
        <time>2023-12-14T07:40:58Z</time>
      </trkpt>
      <trkpt lat="48.61805" lon="1.98668">
        <ele>116</ele>
        <time>2023-12-14T07:40:59Z</time>
      </trkpt>
      <trkpt lat="48.61801" lon="1.9866">
        <ele>115.6</ele>
        <time>2023-12-14T07:41:00Z</time>
      </trkpt>
      <trkpt lat="48.61798" lon="1.98653">
        <ele>115.6</ele>
        <time>2023-12-14T07:41:01Z</time>
      </trkpt>
      <trkpt lat="48.61794" lon="1.98646">
        <ele>115.6</ele>
        <time>2023-12-14T07:41:02Z</time>
      </trkpt>
      <trkpt lat="48.61791" lon="1.98638">
        <ele>115.6</ele>
        <time>2023-12-14T07:41:03Z</time>
      </trkpt>
      <trkpt lat="48.61788" lon="1.9863">
        <ele>115.8</ele>
        <time>2023-12-14T07:41:04Z</time>
      </trkpt>
      <trkpt lat="48.61785" lon="1.98622">
        <ele>115.8</ele>
        <time>2023-12-14T07:41:05Z</time>
      </trkpt>
      <trkpt lat="48.61783" lon="1.98615">
        <ele>115.8</ele>
        <time>2023-12-14T07:41:06Z</time>
      </trkpt>
      <trkpt lat="48.6178" lon="1.98607">
        <ele>115.8</ele>
        <time>2023-12-14T07:41:07Z</time>
      </trkpt>
      <trkpt lat="48.61777" lon="1.98599">
        <ele>116.8</ele>
        <time>2023-12-14T07:41:08Z</time>
      </trkpt>
      <trkpt lat="48.61774" lon="1.98591">
        <ele>116.8</ele>
        <time>2023-12-14T07:41:09Z</time>
      </trkpt>
      <trkpt lat="48.61771" lon="1.98583">
        <ele>116.8</ele>
        <time>2023-12-14T07:41:10Z</time>
      </trkpt>
      <trkpt lat="48.61768" lon="1.98575">
        <ele>116.8</ele>
        <time>2023-12-14T07:41:11Z</time>
      </trkpt>
      <trkpt lat="48.61764" lon="1.98567">
        <ele>116.2</ele>
        <time>2023-12-14T07:41:12Z</time>
      </trkpt>
      <trkpt lat="48.61761" lon="1.9856">
        <ele>116.2</ele>
        <time>2023-12-14T07:41:13Z</time>
      </trkpt>
      <trkpt lat="48.61757" lon="1.98553">
        <ele>116.2</ele>
        <time>2023-12-14T07:41:14Z</time>
      </trkpt>
      <trkpt lat="48.61753" lon="1.98546">
        <ele>116.2</ele>
        <time>2023-12-14T07:41:15Z</time>
      </trkpt>
      <trkpt lat="48.61749" lon="1.98539">
        <ele>117</ele>
        <time>2023-12-14T07:41:16Z</time>
      </trkpt>
      <trkpt lat="48.61745" lon="1.98532">
        <ele>117</ele>
        <time>2023-12-14T07:41:17Z</time>
      </trkpt>
      <trkpt lat="48.6174" lon="1.98527">
        <ele>117</ele>
        <time>2023-12-14T07:41:18Z</time>
      </trkpt>
      <trkpt lat="48.61736" lon="1.98521">
        <ele>116.8</ele>
        <time>2023-12-14T07:41:19Z</time>
      </trkpt>
      <trkpt lat="48.61732" lon="1.98515">
        <ele>116.8</ele>
        <time>2023-12-14T07:41:20Z</time>
      </trkpt>
      <trkpt lat="48.61727" lon="1.98509">
        <ele>116.8</ele>
        <time>2023-12-14T07:41:21Z</time>
      </trkpt>
      <trkpt lat="48.61723" lon="1.98504">
        <ele>116.8</ele>
        <time>2023-12-14T07:41:22Z</time>
      </trkpt>
      <trkpt lat="48.61718" lon="1.98499">
        <ele>116.8</ele>
        <time>2023-12-14T07:41:23Z</time>
      </trkpt>
      <trkpt lat="48.61714" lon="1.98494">
        <ele>117.4</ele>
        <time>2023-12-14T07:41:24Z</time>
      </trkpt>
      <trkpt lat="48.61709" lon="1.98489">
        <ele>117.4</ele>
        <time>2023-12-14T07:41:25Z</time>
      </trkpt>
      <trkpt lat="48.61705" lon="1.98484">
        <ele>117.4</ele>
        <time>2023-12-14T07:41:26Z</time>
      </trkpt>
      <trkpt lat="48.617" lon="1.98479">
        <ele>117.4</ele>
        <time>2023-12-14T07:41:27Z</time>
      </trkpt>
      <trkpt lat="48.61696" lon="1.98474">
        <ele>118.6</ele>
        <time>2023-12-14T07:41:28Z</time>
      </trkpt>
      <trkpt lat="48.61691" lon="1.98469">
        <ele>118.6</ele>
        <time>2023-12-14T07:41:29Z</time>
      </trkpt>
      <trkpt lat="48.61686" lon="1.98464">
        <ele>118.6</ele>
        <time>2023-12-14T07:41:30Z</time>
      </trkpt>
      <trkpt lat="48.61682" lon="1.98459">
        <ele>117.6</ele>
        <time>2023-12-14T07:41:31Z</time>
      </trkpt>
      <trkpt lat="48.61677" lon="1.98454">
        <ele>117.8</ele>
        <time>2023-12-14T07:41:32Z</time>
      </trkpt>
      <trkpt lat="48.61672" lon="1.98449">
        <ele>117.8</ele>
        <time>2023-12-14T07:41:33Z</time>
      </trkpt>
      <trkpt lat="48.61668" lon="1.98443">
        <ele>117.8</ele>
        <time>2023-12-14T07:41:34Z</time>
      </trkpt>
      <trkpt lat="48.61663" lon="1.98438">
        <ele>118</ele>
        <time>2023-12-14T07:41:35Z</time>
      </trkpt>
      <trkpt lat="48.61658" lon="1.98433">
        <ele>118</ele>
        <time>2023-12-14T07:41:36Z</time>
      </trkpt>
      <trkpt lat="48.61653" lon="1.98428">
        <ele>118</ele>
        <time>2023-12-14T07:41:37Z</time>
      </trkpt>
      <trkpt lat="48.61649" lon="1.98423">
        <ele>118</ele>
        <time>2023-12-14T07:41:38Z</time>
      </trkpt>
      <trkpt lat="48.61644" lon="1.98417">
        <ele>117.6</ele>
        <time>2023-12-14T07:41:39Z</time>
      </trkpt>
      <trkpt lat="48.6164" lon="1.98411">
        <ele>117.8</ele>
        <time>2023-12-14T07:41:40Z</time>
      </trkpt>
      <trkpt lat="48.61635" lon="1.98406">
        <ele>117.8</ele>
        <time>2023-12-14T07:41:41Z</time>
      </trkpt>
      <trkpt lat="48.6163" lon="1.984">
        <ele>117.8</ele>
        <time>2023-12-14T07:41:42Z</time>
      </trkpt>
      <trkpt lat="48.61626" lon="1.98394">
        <ele>117.4</ele>
        <time>2023-12-14T07:41:43Z</time>
      </trkpt>
      <trkpt lat="48.61621" lon="1.98388">
        <ele>116.8</ele>
        <time>2023-12-14T07:41:44Z</time>
      </trkpt>
      <trkpt lat="48.61616" lon="1.98383">
        <ele>116.8</ele>
        <time>2023-12-14T07:41:45Z</time>
      </trkpt>
      <trkpt lat="48.61612" lon="1.98377">
        <ele>116.8</ele>
        <time>2023-12-14T07:41:46Z</time>
      </trkpt>
      <trkpt lat="48.61607" lon="1.98371">
        <ele>116.6</ele>
        <time>2023-12-14T07:41:47Z</time>
      </trkpt>
      <trkpt lat="48.61603" lon="1.98364">
        <ele>116.6</ele>
        <time>2023-12-14T07:41:48Z</time>
      </trkpt>
      <trkpt lat="48.61598" lon="1.98358">
        <ele>116.6</ele>
        <time>2023-12-14T07:41:49Z</time>
      </trkpt>
      <trkpt lat="48.61594" lon="1.98352">
        <ele>116.6</ele>
        <time>2023-12-14T07:41:50Z</time>
      </trkpt>
      <trkpt lat="48.6159" lon="1.98347">
        <ele>116.6</ele>
        <time>2023-12-14T07:41:51Z</time>
      </trkpt>
      <trkpt lat="48.61585" lon="1.98341">
        <ele>116.8</ele>
        <time>2023-12-14T07:41:52Z</time>
      </trkpt>
      <trkpt lat="48.61581" lon="1.98334">
        <ele>116.8</ele>
        <time>2023-12-14T07:41:53Z</time>
      </trkpt>
      <trkpt lat="48.61577" lon="1.98328">
        <ele>116.8</ele>
        <time>2023-12-14T07:41:54Z</time>
      </trkpt>
      <trkpt lat="48.61573" lon="1.98322">
        <ele>116.8</ele>
        <time>2023-12-14T07:41:55Z</time>
      </trkpt>
      <trkpt lat="48.61569" lon="1.98316">
        <ele>117</ele>
        <time>2023-12-14T07:41:56Z</time>
      </trkpt>
      <trkpt lat="48.61565" lon="1.98311">
        <ele>117</ele>
        <time>2023-12-14T07:41:57Z</time>
      </trkpt>
      <trkpt lat="48.61561" lon="1.98305">
        <ele>117</ele>
        <time>2023-12-14T07:41:58Z</time>
      </trkpt>
      <trkpt lat="48.61557" lon="1.98299">
        <ele>117.2</ele>
        <time>2023-12-14T07:41:59Z</time>
      </trkpt>
      <trkpt lat="48.61553" lon="1.98293">
        <ele>117.8</ele>
        <time>2023-12-14T07:42:00Z</time>
      </trkpt>
      <trkpt lat="48.61549" lon="1.98286">
        <ele>117.8</ele>
        <time>2023-12-14T07:42:01Z</time>
      </trkpt>
      <trkpt lat="48.61545" lon="1.9828">
        <ele>117.8</ele>
        <time>2023-12-14T07:42:02Z</time>
      </trkpt>
      <trkpt lat="48.61541" lon="1.98274">
        <ele>117.2</ele>
        <time>2023-12-14T07:42:03Z</time>
      </trkpt>
      <trkpt lat="48.61537" lon="1.98268">
        <ele>117.4</ele>
        <time>2023-12-14T07:42:04Z</time>
      </trkpt>
      <trkpt lat="48.61532" lon="1.98262">
        <ele>117.4</ele>
        <time>2023-12-14T07:42:05Z</time>
      </trkpt>
      <trkpt lat="48.61528" lon="1.98256">
        <ele>117.4</ele>
        <time>2023-12-14T07:42:06Z</time>
      </trkpt>
      <trkpt lat="48.61524" lon="1.9825">
        <ele>117.2</ele>
        <time>2023-12-14T07:42:07Z</time>
      </trkpt>
      <trkpt lat="48.6152" lon="1.98244">
        <ele>117.2</ele>
        <time>2023-12-14T07:42:08Z</time>
      </trkpt>
      <trkpt lat="48.61516" lon="1.98237">
        <ele>117.2</ele>
        <time>2023-12-14T07:42:09Z</time>
      </trkpt>
      <trkpt lat="48.61512" lon="1.98231">
        <ele>117.2</ele>
        <time>2023-12-14T07:42:10Z</time>
      </trkpt>
      <trkpt lat="48.61509" lon="1.98225">
        <ele>117.2</ele>
        <time>2023-12-14T07:42:11Z</time>
      </trkpt>
      <trkpt lat="48.61505" lon="1.98219">
        <ele>117.6</ele>
        <time>2023-12-14T07:42:12Z</time>
      </trkpt>
      <trkpt lat="48.61501" lon="1.98213">
        <ele>117.6</ele>
        <time>2023-12-14T07:42:13Z</time>
      </trkpt>
      <trkpt lat="48.61497" lon="1.98207">
        <ele>117.6</ele>
        <time>2023-12-14T07:42:14Z</time>
      </trkpt>
      <trkpt lat="48.61494" lon="1.98201">
        <ele>117.6</ele>
        <time>2023-12-14T07:42:15Z</time>
      </trkpt>
      <trkpt lat="48.6149" lon="1.98194">
        <ele>117.8</ele>
        <time>2023-12-14T07:42:16Z</time>
      </trkpt>
      <trkpt lat="48.61486" lon="1.98188">
        <ele>117.8</ele>
        <time>2023-12-14T07:42:17Z</time>
      </trkpt>
      <trkpt lat="48.61483" lon="1.98181">
        <ele>117.8</ele>
        <time>2023-12-14T07:42:18Z</time>
      </trkpt>
      <trkpt lat="48.6148" lon="1.98175">
        <ele>117.8</ele>
        <time>2023-12-14T07:42:19Z</time>
      </trkpt>
      <trkpt lat="48.61476" lon="1.98168">
        <ele>117.8</ele>
        <time>2023-12-14T07:42:20Z</time>
      </trkpt>
      <trkpt lat="48.61473" lon="1.98162">
        <ele>117.8</ele>
        <time>2023-12-14T07:42:21Z</time>
      </trkpt>
      <trkpt lat="48.61469" lon="1.98155">
        <ele>117.8</ele>
        <time>2023-12-14T07:42:22Z</time>
      </trkpt>
      <trkpt lat="48.61465" lon="1.98148">
        <ele>116.8</ele>
        <time>2023-12-14T07:42:23Z</time>
      </trkpt>
      <trkpt lat="48.61462" lon="1.98141">
        <ele>117.2</ele>
        <time>2023-12-14T07:42:24Z</time>
      </trkpt>
      <trkpt lat="48.61457" lon="1.98134">
        <ele>117.2</ele>
        <time>2023-12-14T07:42:25Z</time>
      </trkpt>
      <trkpt lat="48.61453" lon="1.98127">
        <ele>117.2</ele>
        <time>2023-12-14T07:42:26Z</time>
      </trkpt>
      <trkpt lat="48.61448" lon="1.9812">
        <ele>116.2</ele>
        <time>2023-12-14T07:42:27Z</time>
      </trkpt>
      <trkpt lat="48.61443" lon="1.98112">
        <ele>116.2</ele>
        <time>2023-12-14T07:42:28Z</time>
      </trkpt>
      <trkpt lat="48.61437" lon="1.98105">
        <ele>116.2</ele>
        <time>2023-12-14T07:42:29Z</time>
      </trkpt>
      <trkpt lat="48.61431" lon="1.98097">
        <ele>116.2</ele>
        <time>2023-12-14T07:42:30Z</time>
      </trkpt>
      <trkpt lat="48.61426" lon="1.9809">
        <ele>115.2</ele>
        <time>2023-12-14T07:42:31Z</time>
      </trkpt>
      <trkpt lat="48.6142" lon="1.98083">
        <ele>114.4</ele>
        <time>2023-12-14T07:42:32Z</time>
      </trkpt>
      <trkpt lat="48.61414" lon="1.98075">
        <ele>114.4</ele>
        <time>2023-12-14T07:42:33Z</time>
      </trkpt>
      <trkpt lat="48.61408" lon="1.98068">
        <ele>114.4</ele>
        <time>2023-12-14T07:42:34Z</time>
      </trkpt>
      <trkpt lat="48.61401" lon="1.98061">
        <ele>113.4</ele>
        <time>2023-12-14T07:42:35Z</time>
      </trkpt>
      <trkpt lat="48.61395" lon="1.98054">
        <ele>112.6</ele>
        <time>2023-12-14T07:42:36Z</time>
      </trkpt>
      <trkpt lat="48.61389" lon="1.98047">
        <ele>112.6</ele>
        <time>2023-12-14T07:42:37Z</time>
      </trkpt>
      <trkpt lat="48.61382" lon="1.9804">
        <ele>112.6</ele>
        <time>2023-12-14T07:42:38Z</time>
      </trkpt>
      <trkpt lat="48.61375" lon="1.98034">
        <ele>111.8</ele>
        <time>2023-12-14T07:42:39Z</time>
      </trkpt>
      <trkpt lat="48.61368" lon="1.98028">
        <ele>112.6</ele>
        <time>2023-12-14T07:42:40Z</time>
      </trkpt>
      <trkpt lat="48.6136" lon="1.98024">
        <ele>112.6</ele>
        <time>2023-12-14T07:42:41Z</time>
      </trkpt>
      <trkpt lat="48.61353" lon="1.98019">
        <ele>112.6</ele>
        <time>2023-12-14T07:42:42Z</time>
      </trkpt>
      <trkpt lat="48.61345" lon="1.98016">
        <ele>111.8</ele>
        <time>2023-12-14T07:42:43Z</time>
      </trkpt>
      <trkpt lat="48.61337" lon="1.98012">
        <ele>111.2</ele>
        <time>2023-12-14T07:42:44Z</time>
      </trkpt>
      <trkpt lat="48.6133" lon="1.9801">
        <ele>111.2</ele>
        <time>2023-12-14T07:42:45Z</time>
      </trkpt>
      <trkpt lat="48.61322" lon="1.98007">
        <ele>111.2</ele>
        <time>2023-12-14T07:42:46Z</time>
      </trkpt>
      <trkpt lat="48.61315" lon="1.98004">
        <ele>111.2</ele>
        <time>2023-12-14T07:42:47Z</time>
      </trkpt>
      <trkpt lat="48.61307" lon="1.98">
        <ele>111.2</ele>
        <time>2023-12-14T07:42:48Z</time>
      </trkpt>
      <trkpt lat="48.613" lon="1.97996">
        <ele>111.2</ele>
        <time>2023-12-14T07:42:49Z</time>
      </trkpt>
      <trkpt lat="48.61293" lon="1.97992">
        <ele>111.2</ele>
        <time>2023-12-14T07:42:50Z</time>
      </trkpt>
      <trkpt lat="48.61286" lon="1.97986">
        <ele>111.2</ele>
        <time>2023-12-14T07:42:51Z</time>
      </trkpt>
      <trkpt lat="48.61279" lon="1.97979">
        <ele>110.4</ele>
        <time>2023-12-14T07:42:52Z</time>
      </trkpt>
      <trkpt lat="48.61273" lon="1.97972">
        <ele>110.4</ele>
        <time>2023-12-14T07:42:53Z</time>
      </trkpt>
      <trkpt lat="48.61268" lon="1.97964">
        <ele>110.4</ele>
        <time>2023-12-14T07:42:54Z</time>
      </trkpt>
      <trkpt lat="48.61263" lon="1.97955">
        <ele>110.4</ele>
        <time>2023-12-14T07:42:55Z</time>
      </trkpt>
      <trkpt lat="48.61259" lon="1.97945">
        <ele>110</ele>
        <time>2023-12-14T07:42:56Z</time>
      </trkpt>
      <trkpt lat="48.61255" lon="1.97935">
        <ele>110</ele>
        <time>2023-12-14T07:42:57Z</time>
      </trkpt>
      <trkpt lat="48.61252" lon="1.97925">
        <ele>110</ele>
        <time>2023-12-14T07:42:58Z</time>
      </trkpt>
      <trkpt lat="48.61249" lon="1.97916">
        <ele>110</ele>
        <time>2023-12-14T07:42:59Z</time>
      </trkpt>
      <trkpt lat="48.61245" lon="1.97906">
        <ele>110.2</ele>
        <time>2023-12-14T07:43:00Z</time>
      </trkpt>
      <trkpt lat="48.61242" lon="1.97897">
        <ele>110.2</ele>
        <time>2023-12-14T07:43:01Z</time>
      </trkpt>
      <trkpt lat="48.61238" lon="1.97887">
        <ele>110.2</ele>
        <time>2023-12-14T07:43:02Z</time>
      </trkpt>
      <trkpt lat="48.61235" lon="1.97878">
        <ele>110.2</ele>
        <time>2023-12-14T07:43:03Z</time>
      </trkpt>
      <trkpt lat="48.61232" lon="1.97869">
        <ele>110.2</ele>
        <time>2023-12-14T07:43:04Z</time>
      </trkpt>
      <trkpt lat="48.61228" lon="1.9786">
        <ele>110.2</ele>
        <time>2023-12-14T07:43:05Z</time>
      </trkpt>
      <trkpt lat="48.61225" lon="1.97852">
        <ele>110.2</ele>
        <time>2023-12-14T07:43:06Z</time>
      </trkpt>
      <trkpt lat="48.61222" lon="1.97844">
        <ele>110.8</ele>
        <time>2023-12-14T07:43:07Z</time>
      </trkpt>
      <trkpt lat="48.61219" lon="1.97837">
        <ele>111.2</ele>
        <time>2023-12-14T07:43:08Z</time>
      </trkpt>
      <trkpt lat="48.61216" lon="1.97829">
        <ele>111.2</ele>
        <time>2023-12-14T07:43:09Z</time>
      </trkpt>
      <trkpt lat="48.61213" lon="1.97822">
        <ele>111.2</ele>
        <time>2023-12-14T07:43:10Z</time>
      </trkpt>
      <trkpt lat="48.61211" lon="1.97816">
        <ele>111.2</ele>
        <time>2023-12-14T07:43:11Z</time>
      </trkpt>
      <trkpt lat="48.61208" lon="1.9781">
        <ele>111.8</ele>
        <time>2023-12-14T07:43:12Z</time>
      </trkpt>
      <trkpt lat="48.61205" lon="1.97805">
        <ele>111.8</ele>
        <time>2023-12-14T07:43:13Z</time>
      </trkpt>
      <trkpt lat="48.612" lon="1.97802">
        <ele>111.8</ele>
        <time>2023-12-14T07:43:14Z</time>
      </trkpt>
      <trkpt lat="48.61196" lon="1.97802">
        <ele>111.8</ele>
        <time>2023-12-14T07:43:15Z</time>
      </trkpt>
      <trkpt lat="48.61191" lon="1.97803">
        <ele>112</ele>
        <time>2023-12-14T07:43:16Z</time>
      </trkpt>
      <trkpt lat="48.61186" lon="1.97804">
        <ele>112</ele>
        <time>2023-12-14T07:43:17Z</time>
      </trkpt>
      <trkpt lat="48.61182" lon="1.97807">
        <ele>112</ele>
        <time>2023-12-14T07:43:18Z</time>
      </trkpt>
      <trkpt lat="48.61177" lon="1.97808">
        <ele>111.4</ele>
        <time>2023-12-14T07:43:19Z</time>
      </trkpt>
      <trkpt lat="48.61171" lon="1.9781">
        <ele>111.2</ele>
        <time>2023-12-14T07:43:20Z</time>
      </trkpt>
      <trkpt lat="48.61166" lon="1.97812">
        <ele>111.2</ele>
        <time>2023-12-14T07:43:21Z</time>
      </trkpt>
      <trkpt lat="48.6116" lon="1.97814">
        <ele>111.2</ele>
        <time>2023-12-14T07:43:22Z</time>
      </trkpt>
      <trkpt lat="48.61155" lon="1.97816">
        <ele>111.2</ele>
        <time>2023-12-14T07:43:23Z</time>
      </trkpt>
      <trkpt lat="48.6115" lon="1.97818">
        <ele>111</ele>
        <time>2023-12-14T07:43:24Z</time>
      </trkpt>
      <trkpt lat="48.61144" lon="1.9782">
        <ele>111</ele>
        <time>2023-12-14T07:43:25Z</time>
      </trkpt>
      <trkpt lat="48.61139" lon="1.97823">
        <ele>111</ele>
        <time>2023-12-14T07:43:26Z</time>
      </trkpt>
      <trkpt lat="48.61133" lon="1.97824">
        <ele>111</ele>
        <time>2023-12-14T07:43:27Z</time>
      </trkpt>
      <trkpt lat="48.61128" lon="1.97826">
        <ele>111</ele>
        <time>2023-12-14T07:43:28Z</time>
      </trkpt>
      <trkpt lat="48.61122" lon="1.97828">
        <ele>111</ele>
        <time>2023-12-14T07:43:29Z</time>
      </trkpt>
      <trkpt lat="48.61117" lon="1.9783">
        <ele>111</ele>
        <time>2023-12-14T07:43:30Z</time>
      </trkpt>
      <trkpt lat="48.61112" lon="1.97832">
        <ele>111.6</ele>
        <time>2023-12-14T07:43:31Z</time>
      </trkpt>
      <trkpt lat="48.61107" lon="1.97834">
        <ele>111.6</ele>
        <time>2023-12-14T07:43:32Z</time>
      </trkpt>
      <trkpt lat="48.61101" lon="1.97836">
        <ele>111.6</ele>
        <time>2023-12-14T07:43:33Z</time>
      </trkpt>
      <trkpt lat="48.61096" lon="1.97839">
        <ele>111.6</ele>
        <time>2023-12-14T07:43:34Z</time>
      </trkpt>
      <trkpt lat="48.6109" lon="1.97841">
        <ele>111.6</ele>
        <time>2023-12-14T07:43:35Z</time>
      </trkpt>
      <trkpt lat="48.61085" lon="1.97842">
        <ele>111.8</ele>
        <time>2023-12-14T07:43:36Z</time>
      </trkpt>
      <trkpt lat="48.61079" lon="1.97844">
        <ele>111.8</ele>
        <time>2023-12-14T07:43:37Z</time>
      </trkpt>
      <trkpt lat="48.61074" lon="1.97847">
        <ele>111.8</ele>
        <time>2023-12-14T07:43:38Z</time>
      </trkpt>
      <trkpt lat="48.61068" lon="1.97849">
        <ele>111.2</ele>
        <time>2023-12-14T07:43:39Z</time>
      </trkpt>
      <trkpt lat="48.61062" lon="1.97852">
        <ele>111.8</ele>
        <time>2023-12-14T07:43:40Z</time>
      </trkpt>
      <trkpt lat="48.61057" lon="1.97854">
        <ele>111.8</ele>
        <time>2023-12-14T07:43:41Z</time>
      </trkpt>
      <trkpt lat="48.61052" lon="1.97857">
        <ele>111.8</ele>
        <time>2023-12-14T07:43:42Z</time>
      </trkpt>
      <trkpt lat="48.61047" lon="1.97859">
        <ele>112</ele>
        <time>2023-12-14T07:43:43Z</time>
      </trkpt>
      <trkpt lat="48.61042" lon="1.97862">
        <ele>112</ele>
        <time>2023-12-14T07:43:44Z</time>
      </trkpt>
      <trkpt lat="48.61036" lon="1.97865">
        <ele>112</ele>
        <time>2023-12-14T07:43:45Z</time>
      </trkpt>
      <trkpt lat="48.61031" lon="1.97869">
        <ele>112</ele>
        <time>2023-12-14T07:43:46Z</time>
      </trkpt>
      <trkpt lat="48.61026" lon="1.97873">
        <ele>112</ele>
        <time>2023-12-14T07:43:47Z</time>
      </trkpt>
      <trkpt lat="48.61021" lon="1.97877">
        <ele>112.2</ele>
        <time>2023-12-14T07:43:48Z</time>
      </trkpt>
      <trkpt lat="48.61016" lon="1.97882">
        <ele>112.2</ele>
        <time>2023-12-14T07:43:49Z</time>
      </trkpt>
      <trkpt lat="48.61012" lon="1.97887">
        <ele>112.2</ele>
        <time>2023-12-14T07:43:50Z</time>
      </trkpt>
      <trkpt lat="48.61007" lon="1.97893">
        <ele>112.2</ele>
        <time>2023-12-14T07:43:51Z</time>
      </trkpt>
      <trkpt lat="48.61003" lon="1.97898">
        <ele>112.2</ele>
        <time>2023-12-14T07:43:52Z</time>
      </trkpt>
      <trkpt lat="48.60998" lon="1.97903">
        <ele>112.2</ele>
        <time>2023-12-14T07:43:53Z</time>
      </trkpt>
      <trkpt lat="48.60994" lon="1.97909">
        <ele>112.2</ele>
        <time>2023-12-14T07:43:54Z</time>
      </trkpt>
      <trkpt lat="48.6099" lon="1.97915">
        <ele>112.8</ele>
        <time>2023-12-14T07:43:55Z</time>
      </trkpt>
      <trkpt lat="48.60986" lon="1.9792">
        <ele>112.2</ele>
        <time>2023-12-14T07:43:56Z</time>
      </trkpt>
      <trkpt lat="48.60981" lon="1.97925">
        <ele>112.2</ele>
        <time>2023-12-14T07:43:57Z</time>
      </trkpt>
      <trkpt lat="48.60977" lon="1.97931">
        <ele>112.2</ele>
        <time>2023-12-14T07:43:58Z</time>
      </trkpt>
      <trkpt lat="48.60972" lon="1.97937">
        <ele>112.4</ele>
        <time>2023-12-14T07:43:59Z</time>
      </trkpt>
      <trkpt lat="48.60968" lon="1.97943">
        <ele>112.2</ele>
        <time>2023-12-14T07:44:00Z</time>
      </trkpt>
      <trkpt lat="48.60964" lon="1.97949">
        <ele>112.2</ele>
        <time>2023-12-14T07:44:01Z</time>
      </trkpt>
      <trkpt lat="48.60959" lon="1.97955">
        <ele>112.2</ele>
        <time>2023-12-14T07:44:02Z</time>
      </trkpt>
      <trkpt lat="48.60954" lon="1.97961">
        <ele>112.2</ele>
        <time>2023-12-14T07:44:03Z</time>
      </trkpt>
      <trkpt lat="48.6095" lon="1.97967">
        <ele>112.2</ele>
        <time>2023-12-14T07:44:04Z</time>
      </trkpt>
      <trkpt lat="48.60945" lon="1.97972">
        <ele>112.2</ele>
        <time>2023-12-14T07:44:05Z</time>
      </trkpt>
      <trkpt lat="48.60941" lon="1.97977">
        <ele>112.2</ele>
        <time>2023-12-14T07:44:06Z</time>
      </trkpt>
      <trkpt lat="48.60937" lon="1.97982">
        <ele>112.2</ele>
        <time>2023-12-14T07:44:07Z</time>
      </trkpt>
      <trkpt lat="48.60933" lon="1.97986">
        <ele>111.8</ele>
        <time>2023-12-14T07:44:08Z</time>
      </trkpt>
      <trkpt lat="48.60929" lon="1.9799">
        <ele>111.8</ele>
        <time>2023-12-14T07:44:09Z</time>
      </trkpt>
      <trkpt lat="48.60925" lon="1.97994">
        <ele>111.8</ele>
        <time>2023-12-14T07:44:10Z</time>
      </trkpt>
      <trkpt lat="48.60921" lon="1.97999">
        <ele>111.8</ele>
        <time>2023-12-14T07:44:11Z</time>
      </trkpt>
      <trkpt lat="48.60917" lon="1.98003">
        <ele>112.6</ele>
        <time>2023-12-14T07:44:12Z</time>
      </trkpt>
      <trkpt lat="48.60913" lon="1.98007">
        <ele>112.6</ele>
        <time>2023-12-14T07:44:13Z</time>
      </trkpt>
      <trkpt lat="48.6091" lon="1.9801">
        <ele>112.6</ele>
        <time>2023-12-14T07:44:14Z</time>
      </trkpt>
      <trkpt lat="48.60906" lon="1.98014">
        <ele>112.6</ele>
        <time>2023-12-14T07:44:15Z</time>
      </trkpt>
      <trkpt lat="48.60902" lon="1.98016">
        <ele>112.6</ele>
        <time>2023-12-14T07:44:16Z</time>
      </trkpt>
      <trkpt lat="48.60898" lon="1.98021">
        <ele>112.6</ele>
        <time>2023-12-14T07:44:17Z</time>
      </trkpt>
      <trkpt lat="48.60895" lon="1.98024">
        <ele>112.6</ele>
        <time>2023-12-14T07:44:18Z</time>
      </trkpt>
      <trkpt lat="48.60891" lon="1.98027">
        <ele>113.4</ele>
        <time>2023-12-14T07:44:19Z</time>
      </trkpt>
      <trkpt lat="48.60888" lon="1.9803">
        <ele>113.8</ele>
        <time>2023-12-14T07:44:20Z</time>
      </trkpt>
      <trkpt lat="48.60885" lon="1.98034">
        <ele>113.8</ele>
        <time>2023-12-14T07:44:21Z</time>
      </trkpt>
      <trkpt lat="48.60881" lon="1.98039">
        <ele>113.8</ele>
        <time>2023-12-14T07:44:22Z</time>
      </trkpt>
      <trkpt lat="48.60878" lon="1.98043">
        <ele>113</ele>
        <time>2023-12-14T07:44:23Z</time>
      </trkpt>
      <trkpt lat="48.60875" lon="1.9805">
        <ele>113</ele>
        <time>2023-12-14T07:44:24Z</time>
      </trkpt>
      <trkpt lat="48.60871" lon="1.98054">
        <ele>113</ele>
        <time>2023-12-14T07:44:25Z</time>
      </trkpt>
      <trkpt lat="48.60868" lon="1.98059">
        <ele>113</ele>
        <time>2023-12-14T07:44:26Z</time>
      </trkpt>
      <trkpt lat="48.60865" lon="1.98063">
        <ele>113.8</ele>
        <time>2023-12-14T07:44:27Z</time>
      </trkpt>
      <trkpt lat="48.60863" lon="1.98066">
        <ele>113.6</ele>
        <time>2023-12-14T07:44:28Z</time>
      </trkpt>
      <trkpt lat="48.6086" lon="1.9807">
        <ele>113.6</ele>
        <time>2023-12-14T07:44:29Z</time>
      </trkpt>
      <trkpt lat="48.60856" lon="1.98075">
        <ele>113.6</ele>
        <time>2023-12-14T07:44:30Z</time>
      </trkpt>
      <trkpt lat="48.60853" lon="1.98082">
        <ele>113.6</ele>
        <time>2023-12-14T07:44:31Z</time>
      </trkpt>
      <trkpt lat="48.60849" lon="1.98089">
        <ele>113.2</ele>
        <time>2023-12-14T07:44:32Z</time>
      </trkpt>
      <trkpt lat="48.60844" lon="1.98096">
        <ele>113.2</ele>
        <time>2023-12-14T07:44:33Z</time>
      </trkpt>
      <trkpt lat="48.6084" lon="1.98103">
        <ele>113.2</ele>
        <time>2023-12-14T07:44:34Z</time>
      </trkpt>
      <trkpt lat="48.60836" lon="1.98109">
        <ele>113.8</ele>
        <time>2023-12-14T07:44:35Z</time>
      </trkpt>
      <trkpt lat="48.60833" lon="1.98115">
        <ele>114</ele>
        <time>2023-12-14T07:44:36Z</time>
      </trkpt>
      <trkpt lat="48.60829" lon="1.98122">
        <ele>114</ele>
        <time>2023-12-14T07:44:37Z</time>
      </trkpt>
      <trkpt lat="48.60825" lon="1.98128">
        <ele>114</ele>
        <time>2023-12-14T07:44:38Z</time>
      </trkpt>
      <trkpt lat="48.60821" lon="1.98135">
        <ele>114</ele>
        <time>2023-12-14T07:44:39Z</time>
      </trkpt>
      <trkpt lat="48.60817" lon="1.98142">
        <ele>114.4</ele>
        <time>2023-12-14T07:44:40Z</time>
      </trkpt>
      <trkpt lat="48.60813" lon="1.98151">
        <ele>114.4</ele>
        <time>2023-12-14T07:44:41Z</time>
      </trkpt>
      <trkpt lat="48.60808" lon="1.98157">
        <ele>114.4</ele>
        <time>2023-12-14T07:44:42Z</time>
      </trkpt>
      <trkpt lat="48.60804" lon="1.98165">
        <ele>114.4</ele>
        <time>2023-12-14T07:44:43Z</time>
      </trkpt>
      <trkpt lat="48.608" lon="1.98173">
        <ele>113.8</ele>
        <time>2023-12-14T07:44:44Z</time>
      </trkpt>
      <trkpt lat="48.60795" lon="1.98179">
        <ele>113.8</ele>
        <time>2023-12-14T07:44:45Z</time>
      </trkpt>
      <trkpt lat="48.60791" lon="1.98185">
        <ele>113.8</ele>
        <time>2023-12-14T07:44:46Z</time>
      </trkpt>
      <trkpt lat="48.60787" lon="1.98189">
        <ele>113.8</ele>
        <time>2023-12-14T07:44:47Z</time>
      </trkpt>
      <trkpt lat="48.60782" lon="1.98195">
        <ele>114</ele>
        <time>2023-12-14T07:44:48Z</time>
      </trkpt>
      <trkpt lat="48.60777" lon="1.98203">
        <ele>114</ele>
        <time>2023-12-14T07:44:49Z</time>
      </trkpt>
      <trkpt lat="48.60773" lon="1.98209">
        <ele>114</ele>
        <time>2023-12-14T07:44:50Z</time>
      </trkpt>
      <trkpt lat="48.60769" lon="1.98215">
        <ele>114.2</ele>
        <time>2023-12-14T07:44:51Z</time>
      </trkpt>
      <trkpt lat="48.60764" lon="1.9822">
        <ele>114</ele>
        <time>2023-12-14T07:44:52Z</time>
      </trkpt>
      <trkpt lat="48.6076" lon="1.98227">
        <ele>114</ele>
        <time>2023-12-14T07:44:53Z</time>
      </trkpt>
      <trkpt lat="48.60755" lon="1.98232">
        <ele>114</ele>
        <time>2023-12-14T07:44:54Z</time>
      </trkpt>
      <trkpt lat="48.60751" lon="1.98238">
        <ele>113.8</ele>
        <time>2023-12-14T07:44:55Z</time>
      </trkpt>
      <trkpt lat="48.60748" lon="1.98244">
        <ele>113.6</ele>
        <time>2023-12-14T07:44:56Z</time>
      </trkpt>
      <trkpt lat="48.60743" lon="1.98252">
        <ele>113.6</ele>
        <time>2023-12-14T07:44:57Z</time>
      </trkpt>
      <trkpt lat="48.6074" lon="1.98259">
        <ele>113.6</ele>
        <time>2023-12-14T07:44:58Z</time>
      </trkpt>
      <trkpt lat="48.60737" lon="1.98267">
        <ele>113.2</ele>
        <time>2023-12-14T07:44:59Z</time>
      </trkpt>
      <trkpt lat="48.60734" lon="1.98276">
        <ele>112.8</ele>
        <time>2023-12-14T07:45:00Z</time>
      </trkpt>
      <trkpt lat="48.60731" lon="1.98287">
        <ele>112.8</ele>
        <time>2023-12-14T07:45:01Z</time>
      </trkpt>
      <trkpt lat="48.60728" lon="1.98296">
        <ele>112.8</ele>
        <time>2023-12-14T07:45:02Z</time>
      </trkpt>
      <trkpt lat="48.60724" lon="1.98308">
        <ele>111.8</ele>
        <time>2023-12-14T07:45:03Z</time>
      </trkpt>
      <trkpt lat="48.60721" lon="1.98318">
        <ele>111</ele>
        <time>2023-12-14T07:45:04Z</time>
      </trkpt>
      <trkpt lat="48.60718" lon="1.9833">
        <ele>111</ele>
        <time>2023-12-14T07:45:05Z</time>
      </trkpt>
      <trkpt lat="48.60714" lon="1.98343">
        <ele>111</ele>
        <time>2023-12-14T07:45:06Z</time>
      </trkpt>
      <trkpt lat="48.60711" lon="1.98355">
        <ele>110.2</ele>
        <time>2023-12-14T07:45:07Z</time>
      </trkpt>
      <trkpt lat="48.60707" lon="1.98368">
        <ele>109.4</ele>
        <time>2023-12-14T07:45:08Z</time>
      </trkpt>
      <trkpt lat="48.60704" lon="1.98381">
        <ele>109.4</ele>
        <time>2023-12-14T07:45:09Z</time>
      </trkpt>
      <trkpt lat="48.60701" lon="1.98393">
        <ele>109.4</ele>
        <time>2023-12-14T07:45:10Z</time>
      </trkpt>
      <trkpt lat="48.60697" lon="1.98405">
        <ele>110</ele>
        <time>2023-12-14T07:45:11Z</time>
      </trkpt>
      <trkpt lat="48.60692" lon="1.98417">
        <ele>110.2</ele>
        <time>2023-12-14T07:45:12Z</time>
      </trkpt>
      <trkpt lat="48.60689" lon="1.98428">
        <ele>110.2</ele>
        <time>2023-12-14T07:45:13Z</time>
      </trkpt>
      <trkpt lat="48.60687" lon="1.98438">
        <ele>110.2</ele>
        <time>2023-12-14T07:45:14Z</time>
      </trkpt>
      <trkpt lat="48.60684" lon="1.98448">
        <ele>110.4</ele>
        <time>2023-12-14T07:45:15Z</time>
      </trkpt>
      <trkpt lat="48.60681" lon="1.98458">
        <ele>110.4</ele>
        <time>2023-12-14T07:45:16Z</time>
      </trkpt>
      <trkpt lat="48.60679" lon="1.98468">
        <ele>110.4</ele>
        <time>2023-12-14T07:45:17Z</time>
      </trkpt>
      <trkpt lat="48.60676" lon="1.98478">
        <ele>110.4</ele>
        <time>2023-12-14T07:45:18Z</time>
      </trkpt>
      <trkpt lat="48.60673" lon="1.98488">
        <ele>111.2</ele>
        <time>2023-12-14T07:45:19Z</time>
      </trkpt>
      <trkpt lat="48.60671" lon="1.98498">
        <ele>111</ele>
        <time>2023-12-14T07:45:20Z</time>
      </trkpt>
      <trkpt lat="48.60668" lon="1.98508">
        <ele>111</ele>
        <time>2023-12-14T07:45:21Z</time>
      </trkpt>
      <trkpt lat="48.60665" lon="1.98516">
        <ele>111</ele>
        <time>2023-12-14T07:45:22Z</time>
      </trkpt>
      <trkpt lat="48.60661" lon="1.98526">
        <ele>110.4</ele>
        <time>2023-12-14T07:45:23Z</time>
      </trkpt>
      <trkpt lat="48.60658" lon="1.98534">
        <ele>110.4</ele>
        <time>2023-12-14T07:45:24Z</time>
      </trkpt>
      <trkpt lat="48.60654" lon="1.98543">
        <ele>110.4</ele>
        <time>2023-12-14T07:45:25Z</time>
      </trkpt>
      <trkpt lat="48.6065" lon="1.98553">
        <ele>110.4</ele>
        <time>2023-12-14T07:45:26Z</time>
      </trkpt>
      <trkpt lat="48.60646" lon="1.98562">
        <ele>110</ele>
        <time>2023-12-14T07:45:27Z</time>
      </trkpt>
      <trkpt lat="48.60642" lon="1.98571">
        <ele>110</ele>
        <time>2023-12-14T07:45:28Z</time>
      </trkpt>
      <trkpt lat="48.60637" lon="1.98579">
        <ele>110</ele>
        <time>2023-12-14T07:45:29Z</time>
      </trkpt>
      <trkpt lat="48.60633" lon="1.98587">
        <ele>110</ele>
        <time>2023-12-14T07:45:30Z</time>
      </trkpt>
      <trkpt lat="48.60628" lon="1.98594">
        <ele>110</ele>
        <time>2023-12-14T07:45:31Z</time>
      </trkpt>
      <trkpt lat="48.60624" lon="1.98603">
        <ele>109.8</ele>
        <time>2023-12-14T07:45:32Z</time>
      </trkpt>
      <trkpt lat="48.60619" lon="1.98611">
        <ele>109.8</ele>
        <time>2023-12-14T07:45:33Z</time>
      </trkpt>
      <trkpt lat="48.60614" lon="1.98619">
        <ele>109.8</ele>
        <time>2023-12-14T07:45:34Z</time>
      </trkpt>
      <trkpt lat="48.60609" lon="1.98628">
        <ele>110</ele>
        <time>2023-12-14T07:45:35Z</time>
      </trkpt>
      <trkpt lat="48.60605" lon="1.98637">
        <ele>110.2</ele>
        <time>2023-12-14T07:45:36Z</time>
      </trkpt>
      <trkpt lat="48.606" lon="1.98645">
        <ele>110.2</ele>
        <time>2023-12-14T07:45:37Z</time>
      </trkpt>
      <trkpt lat="48.60595" lon="1.98654">
        <ele>110.2</ele>
        <time>2023-12-14T07:45:38Z</time>
      </trkpt>
      <trkpt lat="48.6059" lon="1.98662">
        <ele>110.2</ele>
        <time>2023-12-14T07:45:39Z</time>
      </trkpt>
      <trkpt lat="48.60586" lon="1.9867">
        <ele>109.6</ele>
        <time>2023-12-14T07:45:40Z</time>
      </trkpt>
      <trkpt lat="48.60581" lon="1.98678">
        <ele>109.6</ele>
        <time>2023-12-14T07:45:41Z</time>
      </trkpt>
      <trkpt lat="48.60577" lon="1.98687">
        <ele>109.6</ele>
        <time>2023-12-14T07:45:42Z</time>
      </trkpt>
      <trkpt lat="48.60572" lon="1.98696">
        <ele>108.8</ele>
        <time>2023-12-14T07:45:43Z</time>
      </trkpt>
      <trkpt lat="48.60567" lon="1.98704">
        <ele>109</ele>
        <time>2023-12-14T07:45:44Z</time>
      </trkpt>
      <trkpt lat="48.60562" lon="1.98713">
        <ele>109</ele>
        <time>2023-12-14T07:45:45Z</time>
      </trkpt>
      <trkpt lat="48.60557" lon="1.9872">
        <ele>109</ele>
        <time>2023-12-14T07:45:46Z</time>
      </trkpt>
      <trkpt lat="48.60552" lon="1.98729">
        <ele>109</ele>
        <time>2023-12-14T07:45:47Z</time>
      </trkpt>
      <trkpt lat="48.60548" lon="1.98737">
        <ele>109.4</ele>
        <time>2023-12-14T07:45:48Z</time>
      </trkpt>
      <trkpt lat="48.60543" lon="1.98745">
        <ele>109.4</ele>
        <time>2023-12-14T07:45:49Z</time>
      </trkpt>
      <trkpt lat="48.60538" lon="1.98753">
        <ele>109.4</ele>
        <time>2023-12-14T07:45:50Z</time>
      </trkpt>
      <trkpt lat="48.60534" lon="1.98761">
        <ele>109</ele>
        <time>2023-12-14T07:45:51Z</time>
      </trkpt>
      <trkpt lat="48.60529" lon="1.98769">
        <ele>108.4</ele>
        <time>2023-12-14T07:45:52Z</time>
      </trkpt>
      <trkpt lat="48.60525" lon="1.98777">
        <ele>108.4</ele>
        <time>2023-12-14T07:45:53Z</time>
      </trkpt>
      <trkpt lat="48.6052" lon="1.98785">
        <ele>108.4</ele>
        <time>2023-12-14T07:45:54Z</time>
      </trkpt>
      <trkpt lat="48.60515" lon="1.98792">
        <ele>108.4</ele>
        <time>2023-12-14T07:45:55Z</time>
      </trkpt>
      <trkpt lat="48.6051" lon="1.988">
        <ele>109.2</ele>
        <time>2023-12-14T07:45:56Z</time>
      </trkpt>
      <trkpt lat="48.60506" lon="1.98808">
        <ele>109.2</ele>
        <time>2023-12-14T07:45:57Z</time>
      </trkpt>
      <trkpt lat="48.60501" lon="1.98815">
        <ele>109.2</ele>
        <time>2023-12-14T07:45:58Z</time>
      </trkpt>
      <trkpt lat="48.60496" lon="1.98824">
        <ele>108.4</ele>
        <time>2023-12-14T07:45:59Z</time>
      </trkpt>
      <trkpt lat="48.60491" lon="1.98832">
        <ele>108.4</ele>
        <time>2023-12-14T07:46:00Z</time>
      </trkpt>
      <trkpt lat="48.60486" lon="1.9884">
        <ele>108.4</ele>
        <time>2023-12-14T07:46:01Z</time>
      </trkpt>
      <trkpt lat="48.60482" lon="1.98848">
        <ele>108.4</ele>
        <time>2023-12-14T07:46:02Z</time>
      </trkpt>
      <trkpt lat="48.60477" lon="1.98856">
        <ele>108.4</ele>
        <time>2023-12-14T07:46:03Z</time>
      </trkpt>
      <trkpt lat="48.60472" lon="1.98864">
        <ele>107.8</ele>
        <time>2023-12-14T07:46:04Z</time>
      </trkpt>
      <trkpt lat="48.60468" lon="1.98872">
        <ele>107.8</ele>
        <time>2023-12-14T07:46:05Z</time>
      </trkpt>
      <trkpt lat="48.60463" lon="1.98879">
        <ele>107.8</ele>
        <time>2023-12-14T07:46:06Z</time>
      </trkpt>
      <trkpt lat="48.60458" lon="1.98887">
        <ele>107.8</ele>
        <time>2023-12-14T07:46:07Z</time>
      </trkpt>
      <trkpt lat="48.60454" lon="1.98895">
        <ele>107.6</ele>
        <time>2023-12-14T07:46:08Z</time>
      </trkpt>
      <trkpt lat="48.6045" lon="1.98902">
        <ele>107.6</ele>
        <time>2023-12-14T07:46:09Z</time>
      </trkpt>
      <trkpt lat="48.60446" lon="1.98909">
        <ele>107.6</ele>
        <time>2023-12-14T07:46:10Z</time>
      </trkpt>
      <trkpt lat="48.60441" lon="1.98916">
        <ele>107.8</ele>
        <time>2023-12-14T07:46:11Z</time>
      </trkpt>
      <trkpt lat="48.60437" lon="1.98924">
        <ele>108</ele>
        <time>2023-12-14T07:46:12Z</time>
      </trkpt>
      <trkpt lat="48.60433" lon="1.98931">
        <ele>108</ele>
        <time>2023-12-14T07:46:13Z</time>
      </trkpt>
      <trkpt lat="48.60428" lon="1.98938">
        <ele>108</ele>
        <time>2023-12-14T07:46:14Z</time>
      </trkpt>
      <trkpt lat="48.60424" lon="1.98946">
        <ele>108</ele>
        <time>2023-12-14T07:46:15Z</time>
      </trkpt>
      <trkpt lat="48.6042" lon="1.98953">
        <ele>107.8</ele>
        <time>2023-12-14T07:46:16Z</time>
      </trkpt>
      <trkpt lat="48.60415" lon="1.98961">
        <ele>107.8</ele>
        <time>2023-12-14T07:46:17Z</time>
      </trkpt>
      <trkpt lat="48.60411" lon="1.9897">
        <ele>107.8</ele>
        <time>2023-12-14T07:46:18Z</time>
      </trkpt>
      <trkpt lat="48.60406" lon="1.98978">
        <ele>107.8</ele>
        <time>2023-12-14T07:46:19Z</time>
      </trkpt>
      <trkpt lat="48.60402" lon="1.98986">
        <ele>108</ele>
        <time>2023-12-14T07:46:20Z</time>
      </trkpt>
      <trkpt lat="48.60398" lon="1.98993">
        <ele>108</ele>
        <time>2023-12-14T07:46:21Z</time>
      </trkpt>
      <trkpt lat="48.60393" lon="1.99001">
        <ele>108</ele>
        <time>2023-12-14T07:46:22Z</time>
      </trkpt>
      <trkpt lat="48.60388" lon="1.9901">
        <ele>107.8</ele>
        <time>2023-12-14T07:46:23Z</time>
      </trkpt>
      <trkpt lat="48.60383" lon="1.99019">
        <ele>107.8</ele>
        <time>2023-12-14T07:46:24Z</time>
      </trkpt>
      <trkpt lat="48.60379" lon="1.99028">
        <ele>107.8</ele>
        <time>2023-12-14T07:46:25Z</time>
      </trkpt>
      <trkpt lat="48.60374" lon="1.99036">
        <ele>107.8</ele>
        <time>2023-12-14T07:46:26Z</time>
      </trkpt>
      <trkpt lat="48.6037" lon="1.99043">
        <ele>107.8</ele>
        <time>2023-12-14T07:46:27Z</time>
      </trkpt>
      <trkpt lat="48.60365" lon="1.99052">
        <ele>107.2</ele>
        <time>2023-12-14T07:46:28Z</time>
      </trkpt>
      <trkpt lat="48.6036" lon="1.99061">
        <ele>107.2</ele>
        <time>2023-12-14T07:46:29Z</time>
      </trkpt>
      <trkpt lat="48.60355" lon="1.99069">
        <ele>107.2</ele>
        <time>2023-12-14T07:46:30Z</time>
      </trkpt>
      <trkpt lat="48.6035" lon="1.99077">
        <ele>107</ele>
        <time>2023-12-14T07:46:31Z</time>
      </trkpt>
      <trkpt lat="48.60345" lon="1.99085">
        <ele>107</ele>
        <time>2023-12-14T07:46:32Z</time>
      </trkpt>
      <trkpt lat="48.6034" lon="1.99094">
        <ele>107</ele>
        <time>2023-12-14T07:46:33Z</time>
      </trkpt>
      <trkpt lat="48.60336" lon="1.99103">
        <ele>107</ele>
        <time>2023-12-14T07:46:34Z</time>
      </trkpt>
      <trkpt lat="48.60331" lon="1.99112">
        <ele>107.4</ele>
        <time>2023-12-14T07:46:35Z</time>
      </trkpt>
      <trkpt lat="48.60326" lon="1.9912">
        <ele>107.4</ele>
        <time>2023-12-14T07:46:36Z</time>
      </trkpt>
      <trkpt lat="48.60321" lon="1.99127">
        <ele>107.4</ele>
        <time>2023-12-14T07:46:37Z</time>
      </trkpt>
      <trkpt lat="48.60317" lon="1.99135">
        <ele>107.4</ele>
        <time>2023-12-14T07:46:38Z</time>
      </trkpt>
      <trkpt lat="48.60312" lon="1.99143">
        <ele>107.4</ele>
        <time>2023-12-14T07:46:39Z</time>
      </trkpt>
      <trkpt lat="48.60307" lon="1.99151">
        <ele>107</ele>
        <time>2023-12-14T07:46:40Z</time>
      </trkpt>
      <trkpt lat="48.60302" lon="1.99159">
        <ele>107</ele>
        <time>2023-12-14T07:46:41Z</time>
      </trkpt>
      <trkpt lat="48.60297" lon="1.99167">
        <ele>107</ele>
        <time>2023-12-14T07:46:42Z</time>
      </trkpt>
      <trkpt lat="48.60293" lon="1.99175">
        <ele>107</ele>
        <time>2023-12-14T07:46:43Z</time>
      </trkpt>
      <trkpt lat="48.60288" lon="1.99182">
        <ele>107.2</ele>
        <time>2023-12-14T07:46:44Z</time>
      </trkpt>
      <trkpt lat="48.60283" lon="1.99191">
        <ele>107.2</ele>
        <time>2023-12-14T07:46:45Z</time>
      </trkpt>
      <trkpt lat="48.60279" lon="1.99199">
        <ele>107.2</ele>
        <time>2023-12-14T07:46:46Z</time>
      </trkpt>
      <trkpt lat="48.60273" lon="1.99208">
        <ele>106.8</ele>
        <time>2023-12-14T07:46:47Z</time>
      </trkpt>
      <trkpt lat="48.60268" lon="1.99217">
        <ele>107</ele>
        <time>2023-12-14T07:46:48Z</time>
      </trkpt>
      <trkpt lat="48.60264" lon="1.99224">
        <ele>107</ele>
        <time>2023-12-14T07:46:49Z</time>
      </trkpt>
      <trkpt lat="48.60259" lon="1.99232">
        <ele>107</ele>
        <time>2023-12-14T07:46:50Z</time>
      </trkpt>
      <trkpt lat="48.60254" lon="1.9924">
        <ele>107.2</ele>
        <time>2023-12-14T07:46:51Z</time>
      </trkpt>
      <trkpt lat="48.60249" lon="1.99248">
        <ele>106.8</ele>
        <time>2023-12-14T07:46:52Z</time>
      </trkpt>
      <trkpt lat="48.60244" lon="1.99257">
        <ele>106.8</ele>
        <time>2023-12-14T07:46:53Z</time>
      </trkpt>
      <trkpt lat="48.6024" lon="1.99265">
        <ele>106.8</ele>
        <time>2023-12-14T07:46:54Z</time>
      </trkpt>
      <trkpt lat="48.60235" lon="1.99273">
        <ele>106.8</ele>
        <time>2023-12-14T07:46:55Z</time>
      </trkpt>
      <trkpt lat="48.6023" lon="1.9928">
        <ele>106.2</ele>
        <time>2023-12-14T07:46:56Z</time>
      </trkpt>
      <trkpt lat="48.60226" lon="1.99288">
        <ele>106.2</ele>
        <time>2023-12-14T07:46:57Z</time>
      </trkpt>
      <trkpt lat="48.60221" lon="1.99295">
        <ele>106.2</ele>
        <time>2023-12-14T07:46:58Z</time>
      </trkpt>
      <trkpt lat="48.60217" lon="1.99303">
        <ele>106.4</ele>
        <time>2023-12-14T07:46:59Z</time>
      </trkpt>
      <trkpt lat="48.60212" lon="1.99312">
        <ele>107</ele>
        <time>2023-12-14T07:47:00Z</time>
      </trkpt>
      <trkpt lat="48.60207" lon="1.99321">
        <ele>107</ele>
        <time>2023-12-14T07:47:01Z</time>
      </trkpt>
      <trkpt lat="48.60203" lon="1.99329">
        <ele>107</ele>
        <time>2023-12-14T07:47:02Z</time>
      </trkpt>
      <trkpt lat="48.60199" lon="1.99338">
        <ele>107</ele>
        <time>2023-12-14T07:47:03Z</time>
      </trkpt>
      <trkpt lat="48.60195" lon="1.99345">
        <ele>107.2</ele>
        <time>2023-12-14T07:47:04Z</time>
      </trkpt>
      <trkpt lat="48.60192" lon="1.99351">
        <ele>107.2</ele>
        <time>2023-12-14T07:47:05Z</time>
      </trkpt>
      <trkpt lat="48.60189" lon="1.99356">
        <ele>107.2</ele>
        <time>2023-12-14T07:47:06Z</time>
      </trkpt>
      <trkpt lat="48.60187" lon="1.99359">
        <ele>108</ele>
        <time>2023-12-14T07:47:07Z</time>
      </trkpt>
      <trkpt lat="48.60185" lon="1.99361">
        <ele>108.4</ele>
        <time>2023-12-14T07:47:08Z</time>
      </trkpt>
      <trkpt lat="48.60183" lon="1.99365">
        <ele>108.4</ele>
        <time>2023-12-14T07:47:09Z</time>
      </trkpt>
      <trkpt lat="48.60183" lon="1.99367">
        <ele>108.4</ele>
        <time>2023-12-14T07:47:10Z</time>
      </trkpt>
      <trkpt lat="48.60182" lon="1.99368">
        <ele>108.4</ele>
        <time>2023-12-14T07:47:11Z</time>
      </trkpt>
      <trkpt lat="48.60181" lon="1.9937">
        <ele>108.4</ele>
        <time>2023-12-14T07:47:12Z</time>
      </trkpt>
      <trkpt lat="48.6018" lon="1.99372">
        <ele>108.4</ele>
        <time>2023-12-14T07:47:13Z</time>
      </trkpt>
      <trkpt lat="48.6018" lon="1.99373">
        <ele>108.4</ele>
        <time>2023-12-14T07:47:14Z</time>
      </trkpt>
      <trkpt lat="48.60179" lon="1.99375">
        <ele>108.4</ele>
        <time>2023-12-14T07:47:15Z</time>
      </trkpt>
      <trkpt lat="48.60178" lon="1.99376">
        <ele>108.2</ele>
        <time>2023-12-14T07:47:16Z</time>
      </trkpt>
      <trkpt lat="48.60177" lon="1.99378">
        <ele>108.2</ele>
        <time>2023-12-14T07:47:17Z</time>
      </trkpt>
      <trkpt lat="48.60176" lon="1.9938">
        <ele>108.2</ele>
        <time>2023-12-14T07:47:18Z</time>
      </trkpt>
      <trkpt lat="48.60176" lon="1.99381">
        <ele>108.4</ele>
        <time>2023-12-14T07:47:19Z</time>
      </trkpt>
      <trkpt lat="48.60175" lon="1.99383">
        <ele>108.4</ele>
        <time>2023-12-14T07:47:20Z</time>
      </trkpt>
      <trkpt lat="48.60174" lon="1.99385">
        <ele>108.4</ele>
        <time>2023-12-14T07:47:21Z</time>
      </trkpt>
      <trkpt lat="48.60173" lon="1.99386">
        <ele>108.4</ele>
        <time>2023-12-14T07:47:22Z</time>
      </trkpt>
      <trkpt lat="48.60173" lon="1.99388">
        <ele>108.4</ele>
        <time>2023-12-14T07:47:23Z</time>
      </trkpt>
      <trkpt lat="48.60172" lon="1.99389">
        <ele>108.4</ele>
        <time>2023-12-14T07:47:24Z</time>
      </trkpt>
      <trkpt lat="48.60171" lon="1.99391">
        <ele>108.4</ele>
        <time>2023-12-14T07:47:25Z</time>
      </trkpt>
      <trkpt lat="48.6017" lon="1.99393">
        <ele>107.8</ele>
        <time>2023-12-14T07:47:31Z</time>
      </trkpt>
      <trkpt lat="48.6017" lon="1.99394">
        <ele>107.4</ele>
        <time>2023-12-14T07:47:32Z</time>
      </trkpt>
      <trkpt lat="48.60168" lon="1.994">
        <ele>107.4</ele>
        <time>2023-12-14T07:47:33Z</time>
      </trkpt>
      <trkpt lat="48.60166" lon="1.99406">
        <ele>107.4</ele>
        <time>2023-12-14T07:47:34Z</time>
      </trkpt>
      <trkpt lat="48.60163" lon="1.99411">
        <ele>107.4</ele>
        <time>2023-12-14T07:47:35Z</time>
      </trkpt>
      <trkpt lat="48.60159" lon="1.99417">
        <ele>106.8</ele>
        <time>2023-12-14T07:47:36Z</time>
      </trkpt>
      <trkpt lat="48.60156" lon="1.99425">
        <ele>106.8</ele>
        <time>2023-12-14T07:47:37Z</time>
      </trkpt>
      <trkpt lat="48.60151" lon="1.99432">
        <ele>106.8</ele>
        <time>2023-12-14T07:47:38Z</time>
      </trkpt>
      <trkpt lat="48.60147" lon="1.9944">
        <ele>106.8</ele>
        <time>2023-12-14T07:47:39Z</time>
      </trkpt>
      <trkpt lat="48.60144" lon="1.99447">
        <ele>106.6</ele>
        <time>2023-12-14T07:47:40Z</time>
      </trkpt>
      <trkpt lat="48.6014" lon="1.99455">
        <ele>106.6</ele>
        <time>2023-12-14T07:47:41Z</time>
      </trkpt>
      <trkpt lat="48.60136" lon="1.99463">
        <ele>106.6</ele>
        <time>2023-12-14T07:47:42Z</time>
      </trkpt>
      <trkpt lat="48.60132" lon="1.9947">
        <ele>107</ele>
        <time>2023-12-14T07:47:43Z</time>
      </trkpt>
      <trkpt lat="48.60128" lon="1.99477">
        <ele>106.6</ele>
        <time>2023-12-14T07:47:44Z</time>
      </trkpt>
      <trkpt lat="48.60124" lon="1.99485">
        <ele>106.6</ele>
        <time>2023-12-14T07:47:45Z</time>
      </trkpt>
      <trkpt lat="48.6012" lon="1.99492">
        <ele>106.6</ele>
        <time>2023-12-14T07:47:46Z</time>
      </trkpt>
      <trkpt lat="48.60116" lon="1.99499">
        <ele>107.2</ele>
        <time>2023-12-14T07:47:47Z</time>
      </trkpt>
      <trkpt lat="48.60113" lon="1.99507">
        <ele>107</ele>
        <time>2023-12-14T07:47:48Z</time>
      </trkpt>
      <trkpt lat="48.60109" lon="1.99514">
        <ele>107</ele>
        <time>2023-12-14T07:47:49Z</time>
      </trkpt>
      <trkpt lat="48.60106" lon="1.99521">
        <ele>107</ele>
        <time>2023-12-14T07:47:50Z</time>
      </trkpt>
      <trkpt lat="48.60102" lon="1.99528">
        <ele>107</ele>
        <time>2023-12-14T07:47:51Z</time>
      </trkpt>
      <trkpt lat="48.60099" lon="1.99535">
        <ele>107</ele>
        <time>2023-12-14T07:47:52Z</time>
      </trkpt>
      <trkpt lat="48.60095" lon="1.99542">
        <ele>107</ele>
        <time>2023-12-14T07:47:53Z</time>
      </trkpt>
      <trkpt lat="48.60092" lon="1.99549">
        <ele>107</ele>
        <time>2023-12-14T07:47:54Z</time>
      </trkpt>
      <trkpt lat="48.60088" lon="1.99556">
        <ele>107</ele>
        <time>2023-12-14T07:47:55Z</time>
      </trkpt>
      <trkpt lat="48.60084" lon="1.99563">
        <ele>107</ele>
        <time>2023-12-14T07:47:56Z</time>
      </trkpt>
      <trkpt lat="48.60082" lon="1.99567">
        <ele>107</ele>
        <time>2023-12-14T07:47:57Z</time>
      </trkpt>
      <trkpt lat="48.60079" lon="1.99571">
        <ele>107</ele>
        <time>2023-12-14T07:47:58Z</time>
      </trkpt>
      <trkpt lat="48.60075" lon="1.99576">
        <ele>107</ele>
        <time>2023-12-14T07:47:59Z</time>
      </trkpt>
      <trkpt lat="48.6007" lon="1.99583">
        <ele>107.6</ele>
        <time>2023-12-14T07:48:00Z</time>
      </trkpt>
      <trkpt lat="48.60066" lon="1.9959">
        <ele>107.6</ele>
        <time>2023-12-14T07:48:01Z</time>
      </trkpt>
      <trkpt lat="48.60066" lon="1.99591">
        <ele>107.6</ele>
        <time>2023-12-14T07:48:02Z</time>
      </trkpt>
      <trkpt lat="48.60063" lon="1.99597">
        <ele>107.6</ele>
        <time>2023-12-14T07:48:03Z</time>
      </trkpt>
      <trkpt lat="48.60058" lon="1.99606">
        <ele>107.6</ele>
        <time>2023-12-14T07:48:04Z</time>
      </trkpt>
      <trkpt lat="48.60055" lon="1.99614">
        <ele>107.6</ele>
        <time>2023-12-14T07:48:05Z</time>
      </trkpt>
      <trkpt lat="48.60051" lon="1.99623">
        <ele>107.6</ele>
        <time>2023-12-14T07:48:06Z</time>
      </trkpt>
      <trkpt lat="48.60047" lon="1.99632">
        <ele>107.6</ele>
        <time>2023-12-14T07:48:07Z</time>
      </trkpt>
      <trkpt lat="48.60044" lon="1.99642">
        <ele>107</ele>
        <time>2023-12-14T07:48:08Z</time>
      </trkpt>
      <trkpt lat="48.6004" lon="1.99652">
        <ele>107</ele>
        <time>2023-12-14T07:48:09Z</time>
      </trkpt>
      <trkpt lat="48.60037" lon="1.99662">
        <ele>107</ele>
        <time>2023-12-14T07:48:10Z</time>
      </trkpt>
      <trkpt lat="48.60034" lon="1.99671">
        <ele>107</ele>
        <time>2023-12-14T07:48:11Z</time>
      </trkpt>
      <trkpt lat="48.60031" lon="1.99681">
        <ele>107.4</ele>
        <time>2023-12-14T07:48:12Z</time>
      </trkpt>
      <trkpt lat="48.60029" lon="1.99691">
        <ele>107.4</ele>
        <time>2023-12-14T07:48:13Z</time>
      </trkpt>
      <trkpt lat="48.60026" lon="1.99701">
        <ele>107.4</ele>
        <time>2023-12-14T07:48:14Z</time>
      </trkpt>
      <trkpt lat="48.60024" lon="1.99711">
        <ele>107.4</ele>
        <time>2023-12-14T07:48:15Z</time>
      </trkpt>
      <trkpt lat="48.60021" lon="1.99721">
        <ele>106.8</ele>
        <time>2023-12-14T07:48:16Z</time>
      </trkpt>
      <trkpt lat="48.60018" lon="1.99731">
        <ele>106.8</ele>
        <time>2023-12-14T07:48:17Z</time>
      </trkpt>
      <trkpt lat="48.60016" lon="1.99741">
        <ele>106.8</ele>
        <time>2023-12-14T07:48:18Z</time>
      </trkpt>
      <trkpt lat="48.60013" lon="1.99751">
        <ele>107.2</ele>
        <time>2023-12-14T07:48:19Z</time>
      </trkpt>
      <trkpt lat="48.60011" lon="1.9976">
        <ele>107.4</ele>
        <time>2023-12-14T07:48:20Z</time>
      </trkpt>
      <trkpt lat="48.60008" lon="1.9977">
        <ele>107.4</ele>
        <time>2023-12-14T07:48:21Z</time>
      </trkpt>
      <trkpt lat="48.60006" lon="1.99779">
        <ele>107.4</ele>
        <time>2023-12-14T07:48:22Z</time>
      </trkpt>
      <trkpt lat="48.60003" lon="1.99789">
        <ele>107.8</ele>
        <time>2023-12-14T07:48:23Z</time>
      </trkpt>
      <trkpt lat="48.6" lon="1.99798">
        <ele>107.6</ele>
        <time>2023-12-14T07:48:24Z</time>
      </trkpt>
      <trkpt lat="48.59998" lon="1.99808">
        <ele>107.6</ele>
        <time>2023-12-14T07:48:25Z</time>
      </trkpt>
      <trkpt lat="48.59995" lon="1.99817">
        <ele>107.6</ele>
        <time>2023-12-14T07:48:26Z</time>
      </trkpt>
      <trkpt lat="48.59993" lon="1.99827">
        <ele>107.6</ele>
        <time>2023-12-14T07:48:27Z</time>
      </trkpt>
      <trkpt lat="48.5999" lon="1.99837">
        <ele>108.2</ele>
        <time>2023-12-14T07:48:28Z</time>
      </trkpt>
      <trkpt lat="48.59987" lon="1.99846">
        <ele>108.2</ele>
        <time>2023-12-14T07:48:29Z</time>
      </trkpt>
      <trkpt lat="48.59985" lon="1.99856">
        <ele>108.2</ele>
        <time>2023-12-14T07:48:30Z</time>
      </trkpt>
      <trkpt lat="48.59982" lon="1.99866">
        <ele>107.8</ele>
        <time>2023-12-14T07:48:31Z</time>
      </trkpt>
      <trkpt lat="48.59979" lon="1.99876">
        <ele>107.6</ele>
        <time>2023-12-14T07:48:32Z</time>
      </trkpt>
      <trkpt lat="48.59977" lon="1.99886">
        <ele>107.6</ele>
        <time>2023-12-14T07:48:33Z</time>
      </trkpt>
      <trkpt lat="48.59974" lon="1.99896">
        <ele>107.6</ele>
        <time>2023-12-14T07:48:34Z</time>
      </trkpt>
      <trkpt lat="48.59971" lon="1.99907">
        <ele>106.8</ele>
        <time>2023-12-14T07:48:35Z</time>
      </trkpt>
      <trkpt lat="48.59968" lon="1.99917">
        <ele>106.8</ele>
        <time>2023-12-14T07:48:36Z</time>
      </trkpt>
      <trkpt lat="48.59966" lon="1.99926">
        <ele>106.8</ele>
        <time>2023-12-14T07:48:37Z</time>
      </trkpt>
      <trkpt lat="48.59963" lon="1.99936">
        <ele>106.8</ele>
        <time>2023-12-14T07:48:38Z</time>
      </trkpt>
      <trkpt lat="48.5996" lon="1.99946">
        <ele>106.8</ele>
        <time>2023-12-14T07:48:39Z</time>
      </trkpt>
      <trkpt lat="48.59957" lon="1.99957">
        <ele>107</ele>
        <time>2023-12-14T07:48:40Z</time>
      </trkpt>
      <trkpt lat="48.59955" lon="1.99967">
        <ele>107</ele>
        <time>2023-12-14T07:48:41Z</time>
      </trkpt>
      <trkpt lat="48.59952" lon="1.99977">
        <ele>107</ele>
        <time>2023-12-14T07:48:42Z</time>
      </trkpt>
      <trkpt lat="48.5995" lon="1.99987">
        <ele>107</ele>
        <time>2023-12-14T07:48:43Z</time>
      </trkpt>
      <trkpt lat="48.59947" lon="1.99997">
        <ele>106.4</ele>
        <time>2023-12-14T07:48:44Z</time>
      </trkpt>
      <trkpt lat="48.59944" lon="2.00007">
        <ele>106.4</ele>
        <time>2023-12-14T07:48:45Z</time>
      </trkpt>
      <trkpt lat="48.59941" lon="2.00017">
        <ele>106.4</ele>
        <time>2023-12-14T07:48:46Z</time>
      </trkpt>
      <trkpt lat="48.59938" lon="2.00027">
        <ele>106.4</ele>
        <time>2023-12-14T07:48:47Z</time>
      </trkpt>
      <trkpt lat="48.59935" lon="2.00037">
        <ele>106.6</ele>
        <time>2023-12-14T07:48:48Z</time>
      </trkpt>
      <trkpt lat="48.59933" lon="2.00046">
        <ele>106.6</ele>
        <time>2023-12-14T07:48:49Z</time>
      </trkpt>
      <trkpt lat="48.5993" lon="2.00054">
        <ele>106.6</ele>
        <time>2023-12-14T07:48:50Z</time>
      </trkpt>
      <trkpt lat="48.59928" lon="2.00063">
        <ele>107</ele>
        <time>2023-12-14T07:48:51Z</time>
      </trkpt>
      <trkpt lat="48.59925" lon="2.00071">
        <ele>107.4</ele>
        <time>2023-12-14T07:48:52Z</time>
      </trkpt>
      <trkpt lat="48.59923" lon="2.00078">
        <ele>107.4</ele>
        <time>2023-12-14T07:48:53Z</time>
      </trkpt>
      <trkpt lat="48.59921" lon="2.00084">
        <ele>107.4</ele>
        <time>2023-12-14T07:48:54Z</time>
      </trkpt>
      <trkpt lat="48.5992" lon="2.00089">
        <ele>107.4</ele>
        <time>2023-12-14T07:48:55Z</time>
      </trkpt>
      <trkpt lat="48.59918" lon="2.00095">
        <ele>107.4</ele>
        <time>2023-12-14T07:48:56Z</time>
      </trkpt>
      <trkpt lat="48.59916" lon="2.001">
        <ele>107.4</ele>
        <time>2023-12-14T07:48:57Z</time>
      </trkpt>
      <trkpt lat="48.59915" lon="2.00106">
        <ele>107.4</ele>
        <time>2023-12-14T07:48:58Z</time>
      </trkpt>
      <trkpt lat="48.59913" lon="2.00111">
        <ele>107.6</ele>
        <time>2023-12-14T07:48:59Z</time>
      </trkpt>
      <trkpt lat="48.59912" lon="2.00117">
        <ele>107.8</ele>
        <time>2023-12-14T07:49:00Z</time>
      </trkpt>
      <trkpt lat="48.59912" lon="2.00123">
        <ele>107.8</ele>
        <time>2023-12-14T07:49:01Z</time>
      </trkpt>
      <trkpt lat="48.59913" lon="2.0013">
        <ele>107.8</ele>
        <time>2023-12-14T07:49:02Z</time>
      </trkpt>
      <trkpt lat="48.59915" lon="2.00137">
        <ele>107.8</ele>
        <time>2023-12-14T07:49:03Z</time>
      </trkpt>
      <trkpt lat="48.59918" lon="2.00144">
        <ele>106</ele>
        <time>2023-12-14T07:49:04Z</time>
      </trkpt>
      <trkpt lat="48.59923" lon="2.00151">
        <ele>106</ele>
        <time>2023-12-14T07:49:05Z</time>
      </trkpt>
      <trkpt lat="48.59929" lon="2.00157">
        <ele>106</ele>
        <time>2023-12-14T07:49:06Z</time>
      </trkpt>
      <trkpt lat="48.59935" lon="2.00164">
        <ele>105</ele>
        <time>2023-12-14T07:49:07Z</time>
      </trkpt>
      <trkpt lat="48.59942" lon="2.0017">
        <ele>103.8</ele>
        <time>2023-12-14T07:49:08Z</time>
      </trkpt>
      <trkpt lat="48.59949" lon="2.00176">
        <ele>103.8</ele>
        <time>2023-12-14T07:49:09Z</time>
      </trkpt>
      <trkpt lat="48.59955" lon="2.00182">
        <ele>103.8</ele>
        <time>2023-12-14T07:49:10Z</time>
      </trkpt>
      <trkpt lat="48.59962" lon="2.00189">
        <ele>102.8</ele>
        <time>2023-12-14T07:49:11Z</time>
      </trkpt>
      <trkpt lat="48.59969" lon="2.00195">
        <ele>102</ele>
        <time>2023-12-14T07:49:12Z</time>
      </trkpt>
      <trkpt lat="48.59975" lon="2.00202">
        <ele>102</ele>
        <time>2023-12-14T07:49:13Z</time>
      </trkpt>
      <trkpt lat="48.59981" lon="2.00208">
        <ele>102</ele>
        <time>2023-12-14T07:49:14Z</time>
      </trkpt>
      <trkpt lat="48.59987" lon="2.00214">
        <ele>102</ele>
        <time>2023-12-14T07:49:15Z</time>
      </trkpt>
      <trkpt lat="48.59993" lon="2.0022">
        <ele>101.8</ele>
        <time>2023-12-14T07:49:16Z</time>
      </trkpt>
      <trkpt lat="48.6" lon="2.00226">
        <ele>101.8</ele>
        <time>2023-12-14T07:49:17Z</time>
      </trkpt>
      <trkpt lat="48.60006" lon="2.00232">
        <ele>101.8</ele>
        <time>2023-12-14T07:49:18Z</time>
      </trkpt>
      <trkpt lat="48.60013" lon="2.00238">
        <ele>101.6</ele>
        <time>2023-12-14T07:49:19Z</time>
      </trkpt>
      <trkpt lat="48.60019" lon="2.00244">
        <ele>101.6</ele>
        <time>2023-12-14T07:49:20Z</time>
      </trkpt>
      <trkpt lat="48.60025" lon="2.00249">
        <ele>101.6</ele>
        <time>2023-12-14T07:49:21Z</time>
      </trkpt>
      <trkpt lat="48.60031" lon="2.00255">
        <ele>101.6</ele>
        <time>2023-12-14T07:49:22Z</time>
      </trkpt>
      <trkpt lat="48.60037" lon="2.0026">
        <ele>101.6</ele>
        <time>2023-12-14T07:49:23Z</time>
      </trkpt>
      <trkpt lat="48.60043" lon="2.00266">
        <ele>102.6</ele>
        <time>2023-12-14T07:49:24Z</time>
      </trkpt>
      <trkpt lat="48.60049" lon="2.00272">
        <ele>102.6</ele>
        <time>2023-12-14T07:49:25Z</time>
      </trkpt>
      <trkpt lat="48.60055" lon="2.00277">
        <ele>102.6</ele>
        <time>2023-12-14T07:49:26Z</time>
      </trkpt>
      <trkpt lat="48.60061" lon="2.00283">
        <ele>103.2</ele>
        <time>2023-12-14T07:49:27Z</time>
      </trkpt>
      <trkpt lat="48.60067" lon="2.00288">
        <ele>103.6</ele>
        <time>2023-12-14T07:49:28Z</time>
      </trkpt>
      <trkpt lat="48.60072" lon="2.00293">
        <ele>103.6</ele>
        <time>2023-12-14T07:49:29Z</time>
      </trkpt>
      <trkpt lat="48.60077" lon="2.00298">
        <ele>103.6</ele>
        <time>2023-12-14T07:49:30Z</time>
      </trkpt>
      <trkpt lat="48.60082" lon="2.00302">
        <ele>104.6</ele>
        <time>2023-12-14T07:49:31Z</time>
      </trkpt>
      <trkpt lat="48.60086" lon="2.00307">
        <ele>105.8</ele>
        <time>2023-12-14T07:49:32Z</time>
      </trkpt>
      <trkpt lat="48.6009" lon="2.00311">
        <ele>105.8</ele>
        <time>2023-12-14T07:49:33Z</time>
      </trkpt>
      <trkpt lat="48.60094" lon="2.00316">
        <ele>105.8</ele>
        <time>2023-12-14T07:49:34Z</time>
      </trkpt>
      <trkpt lat="48.60095" lon="2.00322">
        <ele>106.6</ele>
        <time>2023-12-14T07:49:35Z</time>
      </trkpt>
      <trkpt lat="48.60097" lon="2.00329">
        <ele>106</ele>
        <time>2023-12-14T07:49:36Z</time>
      </trkpt>
      <trkpt lat="48.60095" lon="2.00337">
        <ele>106</ele>
        <time>2023-12-14T07:49:37Z</time>
      </trkpt>
      <trkpt lat="48.60094" lon="2.00344">
        <ele>106</ele>
        <time>2023-12-14T07:49:38Z</time>
      </trkpt>
      <trkpt lat="48.60092" lon="2.00352">
        <ele>106</ele>
        <time>2023-12-14T07:49:39Z</time>
      </trkpt>
      <trkpt lat="48.6009" lon="2.00359">
        <ele>106.2</ele>
        <time>2023-12-14T07:49:40Z</time>
      </trkpt>
      <trkpt lat="48.60087" lon="2.00366">
        <ele>106.2</ele>
        <time>2023-12-14T07:49:41Z</time>
      </trkpt>
      <trkpt lat="48.60084" lon="2.00372">
        <ele>106.2</ele>
        <time>2023-12-14T07:49:42Z</time>
      </trkpt>
      <trkpt lat="48.6008" lon="2.00378">
        <ele>106.2</ele>
        <time>2023-12-14T07:49:43Z</time>
      </trkpt>
      <trkpt lat="48.60076" lon="2.00383">
        <ele>105.6</ele>
        <time>2023-12-14T07:49:44Z</time>
      </trkpt>
      <trkpt lat="48.60071" lon="2.00388">
        <ele>105.6</ele>
        <time>2023-12-14T07:49:45Z</time>
      </trkpt>
      <trkpt lat="48.60066" lon="2.00394">
        <ele>105.6</ele>
        <time>2023-12-14T07:49:46Z</time>
      </trkpt>
      <trkpt lat="48.60061" lon="2.00399">
        <ele>104.6</ele>
        <time>2023-12-14T07:49:47Z</time>
      </trkpt>
      <trkpt lat="48.60056" lon="2.00405">
        <ele>103.8</ele>
        <time>2023-12-14T07:49:48Z</time>
      </trkpt>
      <trkpt lat="48.6005" lon="2.00412">
        <ele>103.8</ele>
        <time>2023-12-14T07:49:49Z</time>
      </trkpt>
      <trkpt lat="48.60045" lon="2.00418">
        <ele>103.8</ele>
        <time>2023-12-14T07:49:50Z</time>
      </trkpt>
      <trkpt lat="48.6004" lon="2.00425">
        <ele>103.8</ele>
        <time>2023-12-14T07:49:51Z</time>
      </trkpt>
      <trkpt lat="48.60037" lon="2.00433">
        <ele>104.2</ele>
        <time>2023-12-14T07:49:52Z</time>
      </trkpt>
      <trkpt lat="48.60035" lon="2.0044">
        <ele>104.2</ele>
        <time>2023-12-14T07:49:53Z</time>
      </trkpt>
      <trkpt lat="48.60032" lon="2.00448">
        <ele>104.2</ele>
        <time>2023-12-14T07:49:54Z</time>
      </trkpt>
      <trkpt lat="48.60029" lon="2.00456">
        <ele>104.2</ele>
        <time>2023-12-14T07:49:55Z</time>
      </trkpt>
      <trkpt lat="48.60026" lon="2.00463">
        <ele>104.8</ele>
        <time>2023-12-14T07:49:56Z</time>
      </trkpt>
      <trkpt lat="48.60022" lon="2.00471">
        <ele>104.8</ele>
        <time>2023-12-14T07:49:57Z</time>
      </trkpt>
      <trkpt lat="48.60019" lon="2.00478">
        <ele>104.8</ele>
        <time>2023-12-14T07:49:58Z</time>
      </trkpt>
      <trkpt lat="48.60016" lon="2.00486">
        <ele>104.8</ele>
        <time>2023-12-14T07:49:59Z</time>
      </trkpt>
      <trkpt lat="48.60013" lon="2.00494">
        <ele>104.8</ele>
        <time>2023-12-14T07:50:00Z</time>
      </trkpt>
      <trkpt lat="48.60009" lon="2.00502">
        <ele>104.8</ele>
        <time>2023-12-14T07:50:01Z</time>
      </trkpt>
      <trkpt lat="48.60006" lon="2.00509">
        <ele>104.8</ele>
        <time>2023-12-14T07:50:02Z</time>
      </trkpt>
      <trkpt lat="48.60003" lon="2.00517">
        <ele>104.8</ele>
        <time>2023-12-14T07:50:03Z</time>
      </trkpt>
      <trkpt lat="48.6" lon="2.00524">
        <ele>104.8</ele>
        <time>2023-12-14T07:50:04Z</time>
      </trkpt>
      <trkpt lat="48.59996" lon="2.00532">
        <ele>104.8</ele>
        <time>2023-12-14T07:50:05Z</time>
      </trkpt>
      <trkpt lat="48.59993" lon="2.0054">
        <ele>104.8</ele>
        <time>2023-12-14T07:50:06Z</time>
      </trkpt>
      <trkpt lat="48.59989" lon="2.00548">
        <ele>104.8</ele>
        <time>2023-12-14T07:50:07Z</time>
      </trkpt>
      <trkpt lat="48.59986" lon="2.00555">
        <ele>104.6</ele>
        <time>2023-12-14T07:50:08Z</time>
      </trkpt>
      <trkpt lat="48.59982" lon="2.00562">
        <ele>104.6</ele>
        <time>2023-12-14T07:50:09Z</time>
      </trkpt>
      <trkpt lat="48.59978" lon="2.00569">
        <ele>104.6</ele>
        <time>2023-12-14T07:50:10Z</time>
      </trkpt>
      <trkpt lat="48.59974" lon="2.00577">
        <ele>104.6</ele>
        <time>2023-12-14T07:50:11Z</time>
      </trkpt>
      <trkpt lat="48.5997" lon="2.00585">
        <ele>104</ele>
        <time>2023-12-14T07:50:12Z</time>
      </trkpt>
      <trkpt lat="48.59966" lon="2.00592">
        <ele>104</ele>
        <time>2023-12-14T07:50:13Z</time>
      </trkpt>
      <trkpt lat="48.59962" lon="2.006">
        <ele>104</ele>
        <time>2023-12-14T07:50:14Z</time>
      </trkpt>
      <trkpt lat="48.59958" lon="2.00609">
        <ele>104</ele>
        <time>2023-12-14T07:50:15Z</time>
      </trkpt>
      <trkpt lat="48.59956" lon="2.00619">
        <ele>103.4</ele>
        <time>2023-12-14T07:50:16Z</time>
      </trkpt>
      <trkpt lat="48.59954" lon="2.00629">
        <ele>103.4</ele>
        <time>2023-12-14T07:50:17Z</time>
      </trkpt>
      <trkpt lat="48.59954" lon="2.0064">
        <ele>103.4</ele>
        <time>2023-12-14T07:50:18Z</time>
      </trkpt>
      <trkpt lat="48.59955" lon="2.00651">
        <ele>102.6</ele>
        <time>2023-12-14T07:50:19Z</time>
      </trkpt>
      <trkpt lat="48.59958" lon="2.00661">
        <ele>103.2</ele>
        <time>2023-12-14T07:50:20Z</time>
      </trkpt>
      <trkpt lat="48.59961" lon="2.0067">
        <ele>103.2</ele>
        <time>2023-12-14T07:50:21Z</time>
      </trkpt>
      <trkpt lat="48.59966" lon="2.00677">
        <ele>103.2</ele>
        <time>2023-12-14T07:50:22Z</time>
      </trkpt>
      <trkpt lat="48.5997" lon="2.00683">
        <ele>103.2</ele>
        <time>2023-12-14T07:50:23Z</time>
      </trkpt>
      <trkpt lat="48.59974" lon="2.00687">
        <ele>104.8</ele>
        <time>2023-12-14T07:50:24Z</time>
      </trkpt>
      <trkpt lat="48.59978" lon="2.00692">
        <ele>104.8</ele>
        <time>2023-12-14T07:50:25Z</time>
      </trkpt>
      <trkpt lat="48.59982" lon="2.00696">
        <ele>104.8</ele>
        <time>2023-12-14T07:50:26Z</time>
      </trkpt>
      <trkpt lat="48.59986" lon="2.00699">
        <ele>104.8</ele>
        <time>2023-12-14T07:50:27Z</time>
      </trkpt>
      <trkpt lat="48.5999" lon="2.00702">
        <ele>106.8</ele>
        <time>2023-12-14T07:50:28Z</time>
      </trkpt>
      <trkpt lat="48.59994" lon="2.00706">
        <ele>106.8</ele>
        <time>2023-12-14T07:50:29Z</time>
      </trkpt>
      <trkpt lat="48.59998" lon="2.00709">
        <ele>106.8</ele>
        <time>2023-12-14T07:50:30Z</time>
      </trkpt>
      <trkpt lat="48.60002" lon="2.00712">
        <ele>107.8</ele>
        <time>2023-12-14T07:50:31Z</time>
      </trkpt>
      <trkpt lat="48.60006" lon="2.00715">
        <ele>108.4</ele>
        <time>2023-12-14T07:50:32Z</time>
      </trkpt>
      <trkpt lat="48.6001" lon="2.00718">
        <ele>108.4</ele>
        <time>2023-12-14T07:50:33Z</time>
      </trkpt>
      <trkpt lat="48.60014" lon="2.00722">
        <ele>108.4</ele>
        <time>2023-12-14T07:50:34Z</time>
      </trkpt>
      <trkpt lat="48.60018" lon="2.00725">
        <ele>108.8</ele>
        <time>2023-12-14T07:50:35Z</time>
      </trkpt>
      <trkpt lat="48.60021" lon="2.00728">
        <ele>109</ele>
        <time>2023-12-14T07:50:36Z</time>
      </trkpt>
      <trkpt lat="48.60026" lon="2.00731">
        <ele>109</ele>
        <time>2023-12-14T07:50:37Z</time>
      </trkpt>
      <trkpt lat="48.60029" lon="2.00734">
        <ele>109</ele>
        <time>2023-12-14T07:50:38Z</time>
      </trkpt>
      <trkpt lat="48.60034" lon="2.00738">
        <ele>109.8</ele>
        <time>2023-12-14T07:50:39Z</time>
      </trkpt>
      <trkpt lat="48.60039" lon="2.00741">
        <ele>109.8</ele>
        <time>2023-12-14T07:50:40Z</time>
      </trkpt>
      <trkpt lat="48.60043" lon="2.00745">
        <ele>109.8</ele>
        <time>2023-12-14T07:50:41Z</time>
      </trkpt>
      <trkpt lat="48.60047" lon="2.00748">
        <ele>109.8</ele>
        <time>2023-12-14T07:50:42Z</time>
      </trkpt>
      <trkpt lat="48.60051" lon="2.00752">
        <ele>110.8</ele>
        <time>2023-12-14T07:50:43Z</time>
      </trkpt>
      <trkpt lat="48.60055" lon="2.00757">
        <ele>110.8</ele>
        <time>2023-12-14T07:50:44Z</time>
      </trkpt>
      <trkpt lat="48.60057" lon="2.00763">
        <ele>110.8</ele>
        <time>2023-12-14T07:50:45Z</time>
      </trkpt>
      <trkpt lat="48.60056" lon="2.0077">
        <ele>110.8</ele>
        <time>2023-12-14T07:50:46Z</time>
      </trkpt>
      <trkpt lat="48.60054" lon="2.00776">
        <ele>110.4</ele>
        <time>2023-12-14T07:50:47Z</time>
      </trkpt>
      <trkpt lat="48.60051" lon="2.0078">
        <ele>109.6</ele>
        <time>2023-12-14T07:50:48Z</time>
      </trkpt>
      <trkpt lat="48.60047" lon="2.00785">
        <ele>109.6</ele>
        <time>2023-12-14T07:50:49Z</time>
      </trkpt>
      <trkpt lat="48.60043" lon="2.00791">
        <ele>109.6</ele>
        <time>2023-12-14T07:50:50Z</time>
      </trkpt>
      <trkpt lat="48.60039" lon="2.00796">
        <ele>108.6</ele>
        <time>2023-12-14T07:50:51Z</time>
      </trkpt>
      <trkpt lat="48.60035" lon="2.00802">
        <ele>107.6</ele>
        <time>2023-12-14T07:50:52Z</time>
      </trkpt>
      <trkpt lat="48.6003" lon="2.00808">
        <ele>107.6</ele>
        <time>2023-12-14T07:50:53Z</time>
      </trkpt>
      <trkpt lat="48.60025" lon="2.00814">
        <ele>107.6</ele>
        <time>2023-12-14T07:50:54Z</time>
      </trkpt>
      <trkpt lat="48.60019" lon="2.0082">
        <ele>107.6</ele>
        <time>2023-12-14T07:50:55Z</time>
      </trkpt>
      <trkpt lat="48.60014" lon="2.00826">
        <ele>106.2</ele>
        <time>2023-12-14T07:50:56Z</time>
      </trkpt>
      <trkpt lat="48.60008" lon="2.00832">
        <ele>106.2</ele>
        <time>2023-12-14T07:50:57Z</time>
      </trkpt>
      <trkpt lat="48.60002" lon="2.00839">
        <ele>106.2</ele>
        <time>2023-12-14T07:50:58Z</time>
      </trkpt>
      <trkpt lat="48.59996" lon="2.00846">
        <ele>105.2</ele>
        <time>2023-12-14T07:50:59Z</time>
      </trkpt>
      <trkpt lat="48.5999" lon="2.00853">
        <ele>104.4</ele>
        <time>2023-12-14T07:51:00Z</time>
      </trkpt>
      <trkpt lat="48.59984" lon="2.0086">
        <ele>104.4</ele>
        <time>2023-12-14T07:51:01Z</time>
      </trkpt>
      <trkpt lat="48.59977" lon="2.00868">
        <ele>104.4</ele>
        <time>2023-12-14T07:51:02Z</time>
      </trkpt>
      <trkpt lat="48.59971" lon="2.00875">
        <ele>103.4</ele>
        <time>2023-12-14T07:51:03Z</time>
      </trkpt>
      <trkpt lat="48.59964" lon="2.00882">
        <ele>102.6</ele>
        <time>2023-12-14T07:51:04Z</time>
      </trkpt>
      <trkpt lat="48.59957" lon="2.0089">
        <ele>102.6</ele>
        <time>2023-12-14T07:51:05Z</time>
      </trkpt>
      <trkpt lat="48.5995" lon="2.00897">
        <ele>102.6</ele>
        <time>2023-12-14T07:51:06Z</time>
      </trkpt>
      <trkpt lat="48.59943" lon="2.00905">
        <ele>101.6</ele>
        <time>2023-12-14T07:51:07Z</time>
      </trkpt>
      <trkpt lat="48.59936" lon="2.00913">
        <ele>101.2</ele>
        <time>2023-12-14T07:51:08Z</time>
      </trkpt>
      <trkpt lat="48.59929" lon="2.00921">
        <ele>101.2</ele>
        <time>2023-12-14T07:51:09Z</time>
      </trkpt>
      <trkpt lat="48.59923" lon="2.00928">
        <ele>101.2</ele>
        <time>2023-12-14T07:51:10Z</time>
      </trkpt>
      <trkpt lat="48.59916" lon="2.00935">
        <ele>100.4</ele>
        <time>2023-12-14T07:51:11Z</time>
      </trkpt>
      <trkpt lat="48.59909" lon="2.00941">
        <ele>101</ele>
        <time>2023-12-14T07:51:12Z</time>
      </trkpt>
      <trkpt lat="48.59902" lon="2.00948">
        <ele>101</ele>
        <time>2023-12-14T07:51:13Z</time>
      </trkpt>
      <trkpt lat="48.59895" lon="2.00955">
        <ele>101</ele>
        <time>2023-12-14T07:51:14Z</time>
      </trkpt>
      <trkpt lat="48.59889" lon="2.00961">
        <ele>100</ele>
        <time>2023-12-14T07:51:15Z</time>
      </trkpt>
      <trkpt lat="48.59882" lon="2.00967">
        <ele>99.4</ele>
        <time>2023-12-14T07:51:16Z</time>
      </trkpt>
      <trkpt lat="48.59875" lon="2.00974">
        <ele>99.4</ele>
        <time>2023-12-14T07:51:17Z</time>
      </trkpt>
      <trkpt lat="48.59868" lon="2.0098">
        <ele>99.4</ele>
        <time>2023-12-14T07:51:18Z</time>
      </trkpt>
      <trkpt lat="48.59861" lon="2.00986">
        <ele>99.4</ele>
        <time>2023-12-14T07:51:19Z</time>
      </trkpt>
      <trkpt lat="48.59854" lon="2.00991">
        <ele>99.8</ele>
        <time>2023-12-14T07:51:20Z</time>
      </trkpt>
      <trkpt lat="48.59848" lon="2.00997">
        <ele>99.8</ele>
        <time>2023-12-14T07:51:21Z</time>
      </trkpt>
      <trkpt lat="48.59842" lon="2.01001">
        <ele>99.8</ele>
        <time>2023-12-14T07:51:22Z</time>
      </trkpt>
      <trkpt lat="48.59836" lon="2.01006">
        <ele>100</ele>
        <time>2023-12-14T07:51:23Z</time>
      </trkpt>
      <trkpt lat="48.5983" lon="2.01012">
        <ele>100.4</ele>
        <time>2023-12-14T07:51:24Z</time>
      </trkpt>
      <trkpt lat="48.59825" lon="2.01017">
        <ele>100.4</ele>
        <time>2023-12-14T07:51:25Z</time>
      </trkpt>
      <trkpt lat="48.5982" lon="2.01024">
        <ele>100.4</ele>
        <time>2023-12-14T07:51:26Z</time>
      </trkpt>
      <trkpt lat="48.59814" lon="2.01031">
        <ele>100.4</ele>
        <time>2023-12-14T07:51:27Z</time>
      </trkpt>
      <trkpt lat="48.59808" lon="2.01037">
        <ele>101.6</ele>
        <time>2023-12-14T07:51:28Z</time>
      </trkpt>
      <trkpt lat="48.59803" lon="2.01043">
        <ele>101.6</ele>
        <time>2023-12-14T07:51:29Z</time>
      </trkpt>
      <trkpt lat="48.59798" lon="2.01049">
        <ele>101.6</ele>
        <time>2023-12-14T07:51:30Z</time>
      </trkpt>
      <trkpt lat="48.59793" lon="2.01055">
        <ele>102.6</ele>
        <time>2023-12-14T07:51:31Z</time>
      </trkpt>
      <trkpt lat="48.59788" lon="2.0106">
        <ele>102.4</ele>
        <time>2023-12-14T07:51:32Z</time>
      </trkpt>
      <trkpt lat="48.59783" lon="2.01066">
        <ele>102.4</ele>
        <time>2023-12-14T07:51:33Z</time>
      </trkpt>
      <trkpt lat="48.59779" lon="2.01072">
        <ele>102.4</ele>
        <time>2023-12-14T07:51:34Z</time>
      </trkpt>
      <trkpt lat="48.59775" lon="2.01078">
        <ele>103.4</ele>
        <time>2023-12-14T07:51:35Z</time>
      </trkpt>
      <trkpt lat="48.59771" lon="2.01082">
        <ele>103.6</ele>
        <time>2023-12-14T07:51:36Z</time>
      </trkpt>
      <trkpt lat="48.59767" lon="2.01087">
        <ele>103.6</ele>
        <time>2023-12-14T07:51:37Z</time>
      </trkpt>
      <trkpt lat="48.59764" lon="2.01091">
        <ele>103.6</ele>
        <time>2023-12-14T07:51:38Z</time>
      </trkpt>
      <trkpt lat="48.5976" lon="2.01095">
        <ele>104.6</ele>
        <time>2023-12-14T07:51:39Z</time>
      </trkpt>
      <trkpt lat="48.59756" lon="2.011">
        <ele>104.8</ele>
        <time>2023-12-14T07:51:40Z</time>
      </trkpt>
      <trkpt lat="48.59753" lon="2.01104">
        <ele>104.8</ele>
        <time>2023-12-14T07:51:41Z</time>
      </trkpt>
      <trkpt lat="48.59749" lon="2.01108">
        <ele>104.8</ele>
        <time>2023-12-14T07:51:42Z</time>
      </trkpt>
      <trkpt lat="48.59746" lon="2.01111">
        <ele>105.8</ele>
        <time>2023-12-14T07:51:43Z</time>
      </trkpt>
      <trkpt lat="48.59742" lon="2.01115">
        <ele>106.4</ele>
        <time>2023-12-14T07:51:44Z</time>
      </trkpt>
      <trkpt lat="48.59738" lon="2.01117">
        <ele>106.4</ele>
        <time>2023-12-14T07:51:45Z</time>
      </trkpt>
      <trkpt lat="48.59734" lon="2.01121">
        <ele>106.4</ele>
        <time>2023-12-14T07:51:46Z</time>
      </trkpt>
      <trkpt lat="48.59731" lon="2.01126">
        <ele>106.4</ele>
        <time>2023-12-14T07:51:47Z</time>
      </trkpt>
      <trkpt lat="48.59729" lon="2.01131">
        <ele>107.2</ele>
        <time>2023-12-14T07:51:48Z</time>
      </trkpt>
      <trkpt lat="48.59725" lon="2.01134">
        <ele>107.2</ele>
        <time>2023-12-14T07:51:49Z</time>
      </trkpt>
      <trkpt lat="48.59722" lon="2.01137">
        <ele>107.2</ele>
        <time>2023-12-14T07:51:50Z</time>
      </trkpt>
      <trkpt lat="48.59719" lon="2.01142">
        <ele>107.8</ele>
        <time>2023-12-14T07:51:51Z</time>
      </trkpt>
      <trkpt lat="48.59715" lon="2.01146">
        <ele>107.8</ele>
        <time>2023-12-14T07:51:52Z</time>
      </trkpt>
      <trkpt lat="48.59711" lon="2.0115">
        <ele>107.8</ele>
        <time>2023-12-14T07:51:53Z</time>
      </trkpt>
      <trkpt lat="48.59707" lon="2.01153">
        <ele>107.8</ele>
        <time>2023-12-14T07:51:54Z</time>
      </trkpt>
      <trkpt lat="48.59703" lon="2.01157">
        <ele>107.8</ele>
        <time>2023-12-14T07:51:55Z</time>
      </trkpt>
      <trkpt lat="48.597" lon="2.01161">
        <ele>108</ele>
        <time>2023-12-14T07:51:56Z</time>
      </trkpt>
      <trkpt lat="48.59696" lon="2.01166">
        <ele>108</ele>
        <time>2023-12-14T07:51:57Z</time>
      </trkpt>
      <trkpt lat="48.59693" lon="2.0117">
        <ele>108</ele>
        <time>2023-12-14T07:51:58Z</time>
      </trkpt>
      <trkpt lat="48.59689" lon="2.01174">
        <ele>108</ele>
        <time>2023-12-14T07:51:59Z</time>
      </trkpt>
      <trkpt lat="48.59685" lon="2.01178">
        <ele>108.8</ele>
        <time>2023-12-14T07:52:00Z</time>
      </trkpt>
      <trkpt lat="48.59681" lon="2.01183">
        <ele>108.8</ele>
        <time>2023-12-14T07:52:01Z</time>
      </trkpt>
      <trkpt lat="48.59678" lon="2.01188">
        <ele>108.8</ele>
        <time>2023-12-14T07:52:02Z</time>
      </trkpt>
      <trkpt lat="48.59674" lon="2.01192">
        <ele>108.4</ele>
        <time>2023-12-14T07:52:03Z</time>
      </trkpt>
      <trkpt lat="48.5967" lon="2.01196">
        <ele>108</ele>
        <time>2023-12-14T07:52:04Z</time>
      </trkpt>
      <trkpt lat="48.59666" lon="2.012">
        <ele>108</ele>
        <time>2023-12-14T07:52:05Z</time>
      </trkpt>
      <trkpt lat="48.59662" lon="2.01205">
        <ele>108</ele>
        <time>2023-12-14T07:52:06Z</time>
      </trkpt>
      <trkpt lat="48.59659" lon="2.01209">
        <ele>109</ele>
        <time>2023-12-14T07:52:07Z</time>
      </trkpt>
      <trkpt lat="48.59655" lon="2.01214">
        <ele>109</ele>
        <time>2023-12-14T07:52:08Z</time>
      </trkpt>
      <trkpt lat="48.59651" lon="2.01218">
        <ele>109</ele>
        <time>2023-12-14T07:52:09Z</time>
      </trkpt>
      <trkpt lat="48.59646" lon="2.01223">
        <ele>109</ele>
        <time>2023-12-14T07:52:10Z</time>
      </trkpt>
      <trkpt lat="48.59642" lon="2.01227">
        <ele>109</ele>
        <time>2023-12-14T07:52:11Z</time>
      </trkpt>
      <trkpt lat="48.59638" lon="2.01232">
        <ele>108.4</ele>
        <time>2023-12-14T07:52:12Z</time>
      </trkpt>
      <trkpt lat="48.59633" lon="2.01237">
        <ele>108.4</ele>
        <time>2023-12-14T07:52:13Z</time>
      </trkpt>
      <trkpt lat="48.59627" lon="2.01243">
        <ele>108.4</ele>
        <time>2023-12-14T07:52:14Z</time>
      </trkpt>
      <trkpt lat="48.59622" lon="2.01248">
        <ele>108.4</ele>
        <time>2023-12-14T07:52:15Z</time>
      </trkpt>
      <trkpt lat="48.59616" lon="2.01253">
        <ele>108.4</ele>
        <time>2023-12-14T07:52:16Z</time>
      </trkpt>
      <trkpt lat="48.59609" lon="2.01257">
        <ele>108.4</ele>
        <time>2023-12-14T07:52:17Z</time>
      </trkpt>
      <trkpt lat="48.59603" lon="2.01262">
        <ele>108.4</ele>
        <time>2023-12-14T07:52:18Z</time>
      </trkpt>
      <trkpt lat="48.59596" lon="2.01265">
        <ele>108.4</ele>
        <time>2023-12-14T07:52:19Z</time>
      </trkpt>
      <trkpt lat="48.5959" lon="2.01267">
        <ele>108.4</ele>
        <time>2023-12-14T07:52:20Z</time>
      </trkpt>
      <trkpt lat="48.59583" lon="2.01269">
        <ele>108.4</ele>
        <time>2023-12-14T07:52:21Z</time>
      </trkpt>
      <trkpt lat="48.59577" lon="2.0127">
        <ele>108.4</ele>
        <time>2023-12-14T07:52:22Z</time>
      </trkpt>
      <trkpt lat="48.5957" lon="2.01271">
        <ele>107.6</ele>
        <time>2023-12-14T07:52:23Z</time>
      </trkpt>
      <trkpt lat="48.59563" lon="2.01271">
        <ele>107.4</ele>
        <time>2023-12-14T07:52:24Z</time>
      </trkpt>
      <trkpt lat="48.59556" lon="2.01271">
        <ele>107.4</ele>
        <time>2023-12-14T07:52:25Z</time>
      </trkpt>
      <trkpt lat="48.5955" lon="2.01272">
        <ele>107.4</ele>
        <time>2023-12-14T07:52:26Z</time>
      </trkpt>
      <trkpt lat="48.59543" lon="2.01272">
        <ele>107.4</ele>
        <time>2023-12-14T07:52:27Z</time>
      </trkpt>
      <trkpt lat="48.59536" lon="2.01272">
        <ele>107</ele>
        <time>2023-12-14T07:52:28Z</time>
      </trkpt>
      <trkpt lat="48.59529" lon="2.01272">
        <ele>107</ele>
        <time>2023-12-14T07:52:29Z</time>
      </trkpt>
      <trkpt lat="48.59521" lon="2.01273">
        <ele>107</ele>
        <time>2023-12-14T07:52:30Z</time>
      </trkpt>
      <trkpt lat="48.59514" lon="2.01273">
        <ele>106</ele>
        <time>2023-12-14T07:52:31Z</time>
      </trkpt>
      <trkpt lat="48.59507" lon="2.01273">
        <ele>105.2</ele>
        <time>2023-12-14T07:52:32Z</time>
      </trkpt>
      <trkpt lat="48.595" lon="2.01273">
        <ele>105.2</ele>
        <time>2023-12-14T07:52:33Z</time>
      </trkpt>
      <trkpt lat="48.59492" lon="2.01273">
        <ele>105.2</ele>
        <time>2023-12-14T07:52:34Z</time>
      </trkpt>
      <trkpt lat="48.59485" lon="2.01274">
        <ele>105.2</ele>
        <time>2023-12-14T07:52:35Z</time>
      </trkpt>
      <trkpt lat="48.59478" lon="2.01276">
        <ele>104.8</ele>
        <time>2023-12-14T07:52:36Z</time>
      </trkpt>
      <trkpt lat="48.59471" lon="2.01278">
        <ele>104.8</ele>
        <time>2023-12-14T07:52:37Z</time>
      </trkpt>
      <trkpt lat="48.59464" lon="2.01279">
        <ele>104.8</ele>
        <time>2023-12-14T07:52:38Z</time>
      </trkpt>
      <trkpt lat="48.59457" lon="2.01283">
        <ele>104.6</ele>
        <time>2023-12-14T07:52:39Z</time>
      </trkpt>
      <trkpt lat="48.5945" lon="2.01285">
        <ele>104.2</ele>
        <time>2023-12-14T07:52:40Z</time>
      </trkpt>
      <trkpt lat="48.59443" lon="2.01288">
        <ele>104.2</ele>
        <time>2023-12-14T07:52:41Z</time>
      </trkpt>
      <trkpt lat="48.59436" lon="2.0129">
        <ele>104.2</ele>
        <time>2023-12-14T07:52:42Z</time>
      </trkpt>
      <trkpt lat="48.59429" lon="2.01293">
        <ele>104.2</ele>
        <time>2023-12-14T07:52:43Z</time>
      </trkpt>
      <trkpt lat="48.59422" lon="2.01296">
        <ele>105.2</ele>
        <time>2023-12-14T07:52:44Z</time>
      </trkpt>
      <trkpt lat="48.59417" lon="2.01299">
        <ele>105.2</ele>
        <time>2023-12-14T07:52:45Z</time>
      </trkpt>
      <trkpt lat="48.59413" lon="2.01301">
        <ele>105.2</ele>
        <time>2023-12-14T07:52:46Z</time>
      </trkpt>
      <trkpt lat="48.59409" lon="2.01303">
        <ele>106</ele>
        <time>2023-12-14T07:52:47Z</time>
      </trkpt>
      <trkpt lat="48.59407" lon="2.01304">
        <ele>106</ele>
        <time>2023-12-14T07:52:48Z</time>
      </trkpt>
      <trkpt lat="48.59405" lon="2.01305">
        <ele>106</ele>
        <time>2023-12-14T07:52:49Z</time>
      </trkpt>
      <trkpt lat="48.59403" lon="2.01306">
        <ele>106</ele>
        <time>2023-12-14T07:52:50Z</time>
      </trkpt>
      <trkpt lat="48.59403" lon="2.01307">
        <ele>106</ele>
        <time>2023-12-14T07:52:51Z</time>
      </trkpt>
      <trkpt lat="48.59402" lon="2.01307">
        <ele>105.8</ele>
        <time>2023-12-14T07:52:52Z</time>
      </trkpt>
      <trkpt lat="48.59402" lon="2.01307">
        <ele>105.8</ele>
        <time>2023-12-14T07:52:53Z</time>
      </trkpt>
      <trkpt lat="48.59398" lon="2.01309">
        <ele>105.8</ele>
        <time>2023-12-14T07:53:03Z</time>
      </trkpt>
      <trkpt lat="48.59395" lon="2.0131">
        <ele>105.6</ele>
        <time>2023-12-14T07:53:04Z</time>
      </trkpt>
      <trkpt lat="48.59393" lon="2.01312">
        <ele>105.6</ele>
        <time>2023-12-14T07:53:05Z</time>
      </trkpt>
      <trkpt lat="48.5939" lon="2.01313">
        <ele>105.6</ele>
        <time>2023-12-14T07:53:06Z</time>
      </trkpt>
      <trkpt lat="48.59387" lon="2.01315">
        <ele>105.6</ele>
        <time>2023-12-14T07:53:07Z</time>
      </trkpt>
      <trkpt lat="48.59385" lon="2.01318">
        <ele>105.4</ele>
        <time>2023-12-14T07:53:08Z</time>
      </trkpt>
      <trkpt lat="48.59382" lon="2.0132">
        <ele>105.4</ele>
        <time>2023-12-14T07:53:09Z</time>
      </trkpt>
      <trkpt lat="48.5938" lon="2.01322">
        <ele>105.4</ele>
        <time>2023-12-14T07:53:10Z</time>
      </trkpt>
      <trkpt lat="48.59377" lon="2.01324">
        <ele>105.4</ele>
        <time>2023-12-14T07:53:11Z</time>
      </trkpt>
      <trkpt lat="48.59374" lon="2.01326">
        <ele>105.2</ele>
        <time>2023-12-14T07:53:12Z</time>
      </trkpt>
      <trkpt lat="48.59371" lon="2.01329">
        <ele>105.2</ele>
        <time>2023-12-14T07:53:13Z</time>
      </trkpt>
      <trkpt lat="48.59369" lon="2.01331">
        <ele>105.2</ele>
        <time>2023-12-14T07:53:14Z</time>
      </trkpt>
      <trkpt lat="48.59366" lon="2.01333">
        <ele>105.2</ele>
        <time>2023-12-14T07:53:15Z</time>
      </trkpt>
      <trkpt lat="48.59363" lon="2.01336">
        <ele>104.8</ele>
        <time>2023-12-14T07:53:16Z</time>
      </trkpt>
      <trkpt lat="48.59361" lon="2.01338">
        <ele>104.8</ele>
        <time>2023-12-14T07:53:17Z</time>
      </trkpt>
      <trkpt lat="48.59358" lon="2.0134">
        <ele>104.8</ele>
        <time>2023-12-14T07:53:18Z</time>
      </trkpt>
      <trkpt lat="48.59355" lon="2.01343">
        <ele>104.8</ele>
        <time>2023-12-14T07:53:19Z</time>
      </trkpt>
      <trkpt lat="48.59352" lon="2.01346">
        <ele>104.8</ele>
        <time>2023-12-14T07:53:20Z</time>
      </trkpt>
      <trkpt lat="48.59349" lon="2.01348">
        <ele>104.8</ele>
        <time>2023-12-14T07:53:21Z</time>
      </trkpt>
      <trkpt lat="48.59346" lon="2.01351">
        <ele>104.8</ele>
        <time>2023-12-14T07:53:22Z</time>
      </trkpt>
      <trkpt lat="48.59343" lon="2.01354">
        <ele>104.8</ele>
        <time>2023-12-14T07:53:23Z</time>
      </trkpt>
      <trkpt lat="48.5934" lon="2.01356">
        <ele>104.8</ele>
        <time>2023-12-14T07:53:24Z</time>
      </trkpt>
      <trkpt lat="48.59337" lon="2.01359">
        <ele>104.8</ele>
        <time>2023-12-14T07:53:25Z</time>
      </trkpt>
      <trkpt lat="48.59334" lon="2.01362">
        <ele>104.8</ele>
        <time>2023-12-14T07:53:26Z</time>
      </trkpt>
      <trkpt lat="48.59331" lon="2.01364">
        <ele>104.8</ele>
        <time>2023-12-14T07:53:27Z</time>
      </trkpt>
      <trkpt lat="48.59328" lon="2.01367">
        <ele>104.8</ele>
        <time>2023-12-14T07:53:28Z</time>
      </trkpt>
      <trkpt lat="48.59325" lon="2.0137">
        <ele>104.8</ele>
        <time>2023-12-14T07:53:29Z</time>
      </trkpt>
      <trkpt lat="48.59322" lon="2.01372">
        <ele>104.8</ele>
        <time>2023-12-14T07:53:30Z</time>
      </trkpt>
      <trkpt lat="48.59319" lon="2.01375">
        <ele>104.8</ele>
        <time>2023-12-14T07:53:31Z</time>
      </trkpt>
      <trkpt lat="48.59315" lon="2.01378">
        <ele>105</ele>
        <time>2023-12-14T07:53:32Z</time>
      </trkpt>
      <trkpt lat="48.59312" lon="2.01381">
        <ele>105</ele>
        <time>2023-12-14T07:53:33Z</time>
      </trkpt>
      <trkpt lat="48.59309" lon="2.01384">
        <ele>105</ele>
        <time>2023-12-14T07:53:34Z</time>
      </trkpt>
      <trkpt lat="48.59305" lon="2.01387">
        <ele>105</ele>
        <time>2023-12-14T07:53:35Z</time>
      </trkpt>
      <trkpt lat="48.59302" lon="2.01391">
        <ele>105</ele>
        <time>2023-12-14T07:53:36Z</time>
      </trkpt>
      <trkpt lat="48.593" lon="2.01394">
        <ele>105</ele>
        <time>2023-12-14T07:53:37Z</time>
      </trkpt>
      <trkpt lat="48.59296" lon="2.01397">
        <ele>105</ele>
        <time>2023-12-14T07:53:38Z</time>
      </trkpt>
      <trkpt lat="48.59293" lon="2.014">
        <ele>105.2</ele>
        <time>2023-12-14T07:53:39Z</time>
      </trkpt>
      <trkpt lat="48.5929" lon="2.01402">
        <ele>105.4</ele>
        <time>2023-12-14T07:53:40Z</time>
      </trkpt>
      <trkpt lat="48.59287" lon="2.01404">
        <ele>105.4</ele>
        <time>2023-12-14T07:53:41Z</time>
      </trkpt>
      <trkpt lat="48.59284" lon="2.01406">
        <ele>105.4</ele>
        <time>2023-12-14T07:53:42Z</time>
      </trkpt>
      <trkpt lat="48.59281" lon="2.01409">
        <ele>105.4</ele>
        <time>2023-12-14T07:53:43Z</time>
      </trkpt>
      <trkpt lat="48.59278" lon="2.0141">
        <ele>105</ele>
        <time>2023-12-14T07:53:44Z</time>
      </trkpt>
      <trkpt lat="48.59275" lon="2.01412">
        <ele>105</ele>
        <time>2023-12-14T07:53:45Z</time>
      </trkpt>
      <trkpt lat="48.59273" lon="2.01415">
        <ele>105</ele>
        <time>2023-12-14T07:53:46Z</time>
      </trkpt>
      <trkpt lat="48.5927" lon="2.01418">
        <ele>105.6</ele>
        <time>2023-12-14T07:53:47Z</time>
      </trkpt>
      <trkpt lat="48.59267" lon="2.01422">
        <ele>104.8</ele>
        <time>2023-12-14T07:53:48Z</time>
      </trkpt>
      <trkpt lat="48.59265" lon="2.01426">
        <ele>104.8</ele>
        <time>2023-12-14T07:53:49Z</time>
      </trkpt>
      <trkpt lat="48.59262" lon="2.01431">
        <ele>104.8</ele>
        <time>2023-12-14T07:53:50Z</time>
      </trkpt>
      <trkpt lat="48.59259" lon="2.01436">
        <ele>104.8</ele>
        <time>2023-12-14T07:53:51Z</time>
      </trkpt>
      <trkpt lat="48.59256" lon="2.01441">
        <ele>105.4</ele>
        <time>2023-12-14T07:53:52Z</time>
      </trkpt>
      <trkpt lat="48.59252" lon="2.01446">
        <ele>105.4</ele>
        <time>2023-12-14T07:53:53Z</time>
      </trkpt>
      <trkpt lat="48.59249" lon="2.0145">
        <ele>105.4</ele>
        <time>2023-12-14T07:53:54Z</time>
      </trkpt>
      <trkpt lat="48.59245" lon="2.01454">
        <ele>105</ele>
        <time>2023-12-14T07:53:55Z</time>
      </trkpt>
      <trkpt lat="48.59241" lon="2.01458">
        <ele>105.4</ele>
        <time>2023-12-14T07:53:56Z</time>
      </trkpt>
      <trkpt lat="48.59237" lon="2.01462">
        <ele>105.4</ele>
        <time>2023-12-14T07:53:57Z</time>
      </trkpt>
      <trkpt lat="48.59234" lon="2.01466">
        <ele>105.4</ele>
        <time>2023-12-14T07:53:58Z</time>
      </trkpt>
      <trkpt lat="48.5923" lon="2.0147">
        <ele>105.4</ele>
        <time>2023-12-14T07:53:59Z</time>
      </trkpt>
      <trkpt lat="48.59226" lon="2.01474">
        <ele>105.2</ele>
        <time>2023-12-14T07:54:00Z</time>
      </trkpt>
      <trkpt lat="48.59222" lon="2.01478">
        <ele>105.2</ele>
        <time>2023-12-14T07:54:01Z</time>
      </trkpt>
      <trkpt lat="48.59218" lon="2.01481">
        <ele>105.2</ele>
        <time>2023-12-14T07:54:02Z</time>
      </trkpt>
      <trkpt lat="48.59215" lon="2.01485">
        <ele>105.4</ele>
        <time>2023-12-14T07:54:03Z</time>
      </trkpt>
      <trkpt lat="48.59211" lon="2.0149">
        <ele>105.4</ele>
        <time>2023-12-14T07:54:04Z</time>
      </trkpt>
      <trkpt lat="48.59207" lon="2.01494">
        <ele>105.4</ele>
        <time>2023-12-14T07:54:05Z</time>
      </trkpt>
      <trkpt lat="48.59204" lon="2.01498">
        <ele>105.4</ele>
        <time>2023-12-14T07:54:06Z</time>
      </trkpt>
      <trkpt lat="48.592" lon="2.01502">
        <ele>105.4</ele>
        <time>2023-12-14T07:54:07Z</time>
      </trkpt>
      <trkpt lat="48.59196" lon="2.01506">
        <ele>105.4</ele>
        <time>2023-12-14T07:54:08Z</time>
      </trkpt>
      <trkpt lat="48.59193" lon="2.0151">
        <ele>105.4</ele>
        <time>2023-12-14T07:54:09Z</time>
      </trkpt>
      <trkpt lat="48.59189" lon="2.01514">
        <ele>105.4</ele>
        <time>2023-12-14T07:54:10Z</time>
      </trkpt>
      <trkpt lat="48.59186" lon="2.01517">
        <ele>105.4</ele>
        <time>2023-12-14T07:54:11Z</time>
      </trkpt>
      <trkpt lat="48.59183" lon="2.01521">
        <ele>104.8</ele>
        <time>2023-12-14T07:54:12Z</time>
      </trkpt>
      <trkpt lat="48.59179" lon="2.01524">
        <ele>104.8</ele>
        <time>2023-12-14T07:54:13Z</time>
      </trkpt>
      <trkpt lat="48.59175" lon="2.01527">
        <ele>104.8</ele>
        <time>2023-12-14T07:54:14Z</time>
      </trkpt>
      <trkpt lat="48.59171" lon="2.01531">
        <ele>104.8</ele>
        <time>2023-12-14T07:54:15Z</time>
      </trkpt>
      <trkpt lat="48.59167" lon="2.01533">
        <ele>105.4</ele>
        <time>2023-12-14T07:54:16Z</time>
      </trkpt>
      <trkpt lat="48.59163" lon="2.01536">
        <ele>105.4</ele>
        <time>2023-12-14T07:54:17Z</time>
      </trkpt>
      <trkpt lat="48.59159" lon="2.01538">
        <ele>105.4</ele>
        <time>2023-12-14T07:54:18Z</time>
      </trkpt>
      <trkpt lat="48.59155" lon="2.01541">
        <ele>105.4</ele>
        <time>2023-12-14T07:54:19Z</time>
      </trkpt>
      <trkpt lat="48.59151" lon="2.01544">
        <ele>105.6</ele>
        <time>2023-12-14T07:54:20Z</time>
      </trkpt>
      <trkpt lat="48.59147" lon="2.01546">
        <ele>105.6</ele>
        <time>2023-12-14T07:54:21Z</time>
      </trkpt>
      <trkpt lat="48.59143" lon="2.01549">
        <ele>105.6</ele>
        <time>2023-12-14T07:54:22Z</time>
      </trkpt>
      <trkpt lat="48.59138" lon="2.01552">
        <ele>105.6</ele>
        <time>2023-12-14T07:54:23Z</time>
      </trkpt>
      <trkpt lat="48.59134" lon="2.01555">
        <ele>105.8</ele>
        <time>2023-12-14T07:54:24Z</time>
      </trkpt>
      <trkpt lat="48.5913" lon="2.01557">
        <ele>105.8</ele>
        <time>2023-12-14T07:54:25Z</time>
      </trkpt>
      <trkpt lat="48.59126" lon="2.01559">
        <ele>105.8</ele>
        <time>2023-12-14T07:54:26Z</time>
      </trkpt>
      <trkpt lat="48.59121" lon="2.01562">
        <ele>105.4</ele>
        <time>2023-12-14T07:54:27Z</time>
      </trkpt>
      <trkpt lat="48.59117" lon="2.01565">
        <ele>105.6</ele>
        <time>2023-12-14T07:54:28Z</time>
      </trkpt>
      <trkpt lat="48.59112" lon="2.01567">
        <ele>105.6</ele>
        <time>2023-12-14T07:54:29Z</time>
      </trkpt>
      <trkpt lat="48.59108" lon="2.01569">
        <ele>105.6</ele>
        <time>2023-12-14T07:54:30Z</time>
      </trkpt>
      <trkpt lat="48.59104" lon="2.01571">
        <ele>105.6</ele>
        <time>2023-12-14T07:54:31Z</time>
      </trkpt>
      <trkpt lat="48.591" lon="2.01573">
        <ele>105.8</ele>
        <time>2023-12-14T07:54:32Z</time>
      </trkpt>
      <trkpt lat="48.59096" lon="2.01575">
        <ele>105.8</ele>
        <time>2023-12-14T07:54:33Z</time>
      </trkpt>
      <trkpt lat="48.59092" lon="2.01578">
        <ele>105.8</ele>
        <time>2023-12-14T07:54:34Z</time>
      </trkpt>
      <trkpt lat="48.59088" lon="2.01579">
        <ele>106.2</ele>
        <time>2023-12-14T07:54:35Z</time>
      </trkpt>
      <trkpt lat="48.59084" lon="2.0158">
        <ele>105.6</ele>
        <time>2023-12-14T07:54:36Z</time>
      </trkpt>
      <trkpt lat="48.59079" lon="2.0158">
        <ele>105.6</ele>
        <time>2023-12-14T07:54:37Z</time>
      </trkpt>
      <trkpt lat="48.59074" lon="2.0158">
        <ele>105.6</ele>
        <time>2023-12-14T07:54:38Z</time>
      </trkpt>
      <trkpt lat="48.59069" lon="2.01578">
        <ele>104.6</ele>
        <time>2023-12-14T07:54:39Z</time>
      </trkpt>
      <trkpt lat="48.59065" lon="2.01574">
        <ele>103.8</ele>
        <time>2023-12-14T07:54:40Z</time>
      </trkpt>
      <trkpt lat="48.59061" lon="2.01569">
        <ele>103.8</ele>
        <time>2023-12-14T07:54:41Z</time>
      </trkpt>
      <trkpt lat="48.59056" lon="2.01564">
        <ele>103.8</ele>
        <time>2023-12-14T07:54:42Z</time>
      </trkpt>
      <trkpt lat="48.59052" lon="2.01558">
        <ele>102.8</ele>
        <time>2023-12-14T07:54:43Z</time>
      </trkpt>
      <trkpt lat="48.59047" lon="2.01553">
        <ele>102.2</ele>
        <time>2023-12-14T07:54:44Z</time>
      </trkpt>
      <trkpt lat="48.59041" lon="2.01549">
        <ele>102.2</ele>
        <time>2023-12-14T07:54:45Z</time>
      </trkpt>
      <trkpt lat="48.59036" lon="2.01545">
        <ele>102.2</ele>
        <time>2023-12-14T07:54:46Z</time>
      </trkpt>
      <trkpt lat="48.5903" lon="2.01541">
        <ele>102.8</ele>
        <time>2023-12-14T07:54:47Z</time>
      </trkpt>
      <trkpt lat="48.59025" lon="2.01539">
        <ele>102.4</ele>
        <time>2023-12-14T07:54:48Z</time>
      </trkpt>
      <trkpt lat="48.59019" lon="2.01539">
        <ele>102.4</ele>
        <time>2023-12-14T07:54:49Z</time>
      </trkpt>
      <trkpt lat="48.59013" lon="2.0154">
        <ele>102.4</ele>
        <time>2023-12-14T07:54:50Z</time>
      </trkpt>
      <trkpt lat="48.59008" lon="2.01541">
        <ele>102.4</ele>
        <time>2023-12-14T07:54:51Z</time>
      </trkpt>
      <trkpt lat="48.59002" lon="2.01543">
        <ele>102.6</ele>
        <time>2023-12-14T07:54:52Z</time>
      </trkpt>
      <trkpt lat="48.58997" lon="2.01545">
        <ele>102.6</ele>
        <time>2023-12-14T07:54:53Z</time>
      </trkpt>
      <trkpt lat="48.58991" lon="2.01548">
        <ele>102.6</ele>
        <time>2023-12-14T07:54:54Z</time>
      </trkpt>
      <trkpt lat="48.58986" lon="2.0155">
        <ele>101.6</ele>
        <time>2023-12-14T07:54:55Z</time>
      </trkpt>
      <trkpt lat="48.5898" lon="2.01553">
        <ele>102</ele>
        <time>2023-12-14T07:54:56Z</time>
      </trkpt>
      <trkpt lat="48.58974" lon="2.01555">
        <ele>102</ele>
        <time>2023-12-14T07:54:57Z</time>
      </trkpt>
      <trkpt lat="48.58969" lon="2.01558">
        <ele>102</ele>
        <time>2023-12-14T07:54:58Z</time>
      </trkpt>
      <trkpt lat="48.58963" lon="2.01561">
        <ele>101.6</ele>
        <time>2023-12-14T07:54:59Z</time>
      </trkpt>
      <trkpt lat="48.58957" lon="2.01563">
        <ele>101.4</ele>
        <time>2023-12-14T07:55:00Z</time>
      </trkpt>
      <trkpt lat="48.58952" lon="2.01566">
        <ele>101.4</ele>
        <time>2023-12-14T07:55:01Z</time>
      </trkpt>
      <trkpt lat="48.58946" lon="2.01569">
        <ele>101.4</ele>
        <time>2023-12-14T07:55:02Z</time>
      </trkpt>
      <trkpt lat="48.5894" lon="2.01572">
        <ele>101.4</ele>
        <time>2023-12-14T07:55:03Z</time>
      </trkpt>
      <trkpt lat="48.58935" lon="2.01575">
        <ele>101.2</ele>
        <time>2023-12-14T07:55:04Z</time>
      </trkpt>
      <trkpt lat="48.58929" lon="2.01578">
        <ele>101.2</ele>
        <time>2023-12-14T07:55:05Z</time>
      </trkpt>
      <trkpt lat="48.58923" lon="2.01581">
        <ele>101.2</ele>
        <time>2023-12-14T07:55:06Z</time>
      </trkpt>
      <trkpt lat="48.58917" lon="2.01584">
        <ele>101.2</ele>
        <time>2023-12-14T07:55:07Z</time>
      </trkpt>
      <trkpt lat="48.58912" lon="2.01587">
        <ele>101</ele>
        <time>2023-12-14T07:55:08Z</time>
      </trkpt>
      <trkpt lat="48.58906" lon="2.0159">
        <ele>101</ele>
        <time>2023-12-14T07:55:09Z</time>
      </trkpt>
      <trkpt lat="48.589" lon="2.01593">
        <ele>101</ele>
        <time>2023-12-14T07:55:10Z</time>
      </trkpt>
      <trkpt lat="48.58894" lon="2.01597">
        <ele>101</ele>
        <time>2023-12-14T07:55:11Z</time>
      </trkpt>
      <trkpt lat="48.58889" lon="2.016">
        <ele>101.4</ele>
        <time>2023-12-14T07:55:12Z</time>
      </trkpt>
      <trkpt lat="48.58883" lon="2.01603">
        <ele>101.4</ele>
        <time>2023-12-14T07:55:13Z</time>
      </trkpt>
      <trkpt lat="48.58878" lon="2.01606">
        <ele>101.4</ele>
        <time>2023-12-14T07:55:14Z</time>
      </trkpt>
      <trkpt lat="48.58872" lon="2.01609">
        <ele>102.4</ele>
        <time>2023-12-14T07:55:15Z</time>
      </trkpt>
      <trkpt lat="48.58866" lon="2.01612">
        <ele>102.4</ele>
        <time>2023-12-14T07:55:16Z</time>
      </trkpt>
      <trkpt lat="48.58861" lon="2.01615">
        <ele>102.4</ele>
        <time>2023-12-14T07:55:17Z</time>
      </trkpt>
      <trkpt lat="48.58855" lon="2.01618">
        <ele>102.4</ele>
        <time>2023-12-14T07:55:18Z</time>
      </trkpt>
      <trkpt lat="48.5885" lon="2.01621">
        <ele>102.4</ele>
        <time>2023-12-14T07:55:19Z</time>
      </trkpt>
      <trkpt lat="48.58844" lon="2.01623">
        <ele>101.8</ele>
        <time>2023-12-14T07:55:20Z</time>
      </trkpt>
      <trkpt lat="48.58839" lon="2.01626">
        <ele>101.8</ele>
        <time>2023-12-14T07:55:21Z</time>
      </trkpt>
      <trkpt lat="48.58833" lon="2.01629">
        <ele>101.8</ele>
        <time>2023-12-14T07:55:22Z</time>
      </trkpt>
      <trkpt lat="48.58828" lon="2.01632">
        <ele>102</ele>
        <time>2023-12-14T07:55:23Z</time>
      </trkpt>
      <trkpt lat="48.58822" lon="2.01634">
        <ele>102</ele>
        <time>2023-12-14T07:55:24Z</time>
      </trkpt>
      <trkpt lat="48.58816" lon="2.01637">
        <ele>102</ele>
        <time>2023-12-14T07:55:25Z</time>
      </trkpt>
      <trkpt lat="48.5881" lon="2.0164">
        <ele>102</ele>
        <time>2023-12-14T07:55:26Z</time>
      </trkpt>
      <trkpt lat="48.58804" lon="2.01643">
        <ele>102</ele>
        <time>2023-12-14T07:55:27Z</time>
      </trkpt>
      <trkpt lat="48.58798" lon="2.01646">
        <ele>101</ele>
        <time>2023-12-14T07:55:28Z</time>
      </trkpt>
      <trkpt lat="48.58792" lon="2.01648">
        <ele>101</ele>
        <time>2023-12-14T07:55:29Z</time>
      </trkpt>
      <trkpt lat="48.58786" lon="2.01652">
        <ele>101</ele>
        <time>2023-12-14T07:55:30Z</time>
      </trkpt>
      <trkpt lat="48.5878" lon="2.01655">
        <ele>101</ele>
        <time>2023-12-14T07:55:31Z</time>
      </trkpt>
      <trkpt lat="48.58774" lon="2.01659">
        <ele>101</ele>
        <time>2023-12-14T07:55:32Z</time>
      </trkpt>
      <trkpt lat="48.58768" lon="2.01662">
        <ele>101</ele>
        <time>2023-12-14T07:55:33Z</time>
      </trkpt>
      <trkpt lat="48.58762" lon="2.01666">
        <ele>101</ele>
        <time>2023-12-14T07:55:34Z</time>
      </trkpt>
      <trkpt lat="48.58756" lon="2.0167">
        <ele>101</ele>
        <time>2023-12-14T07:55:35Z</time>
      </trkpt>
      <trkpt lat="48.5875" lon="2.01673">
        <ele>101</ele>
        <time>2023-12-14T07:55:36Z</time>
      </trkpt>
      <trkpt lat="48.58743" lon="2.01676">
        <ele>101</ele>
        <time>2023-12-14T07:55:37Z</time>
      </trkpt>
      <trkpt lat="48.58737" lon="2.0168">
        <ele>101</ele>
        <time>2023-12-14T07:55:38Z</time>
      </trkpt>
      <trkpt lat="48.58731" lon="2.01683">
        <ele>101</ele>
        <time>2023-12-14T07:55:39Z</time>
      </trkpt>
      <trkpt lat="48.58724" lon="2.01687">
        <ele>100.4</ele>
        <time>2023-12-14T07:55:40Z</time>
      </trkpt>
      <trkpt lat="48.58717" lon="2.0169">
        <ele>100.4</ele>
        <time>2023-12-14T07:55:41Z</time>
      </trkpt>
      <trkpt lat="48.58711" lon="2.01694">
        <ele>100.4</ele>
        <time>2023-12-14T07:55:42Z</time>
      </trkpt>
      <trkpt lat="48.58704" lon="2.01697">
        <ele>99.4</ele>
        <time>2023-12-14T07:55:43Z</time>
      </trkpt>
      <trkpt lat="48.58698" lon="2.01701">
        <ele>99.4</ele>
        <time>2023-12-14T07:55:44Z</time>
      </trkpt>
      <trkpt lat="48.58691" lon="2.01704">
        <ele>99.4</ele>
        <time>2023-12-14T07:55:45Z</time>
      </trkpt>
      <trkpt lat="48.58685" lon="2.01707">
        <ele>99.4</ele>
        <time>2023-12-14T07:55:46Z</time>
      </trkpt>
      <trkpt lat="48.58678" lon="2.0171">
        <ele>99.4</ele>
        <time>2023-12-14T07:55:47Z</time>
      </trkpt>
      <trkpt lat="48.58672" lon="2.01713">
        <ele>99</ele>
        <time>2023-12-14T07:55:48Z</time>
      </trkpt>
      <trkpt lat="48.58665" lon="2.01716">
        <ele>99</ele>
        <time>2023-12-14T07:55:49Z</time>
      </trkpt>
      <trkpt lat="48.58659" lon="2.01719">
        <ele>99</ele>
        <time>2023-12-14T07:55:50Z</time>
      </trkpt>
      <trkpt lat="48.58653" lon="2.01722">
        <ele>98.8</ele>
        <time>2023-12-14T07:55:51Z</time>
      </trkpt>
      <trkpt lat="48.58646" lon="2.01725">
        <ele>98.6</ele>
        <time>2023-12-14T07:55:52Z</time>
      </trkpt>
      <trkpt lat="48.5864" lon="2.01729">
        <ele>98.6</ele>
        <time>2023-12-14T07:55:53Z</time>
      </trkpt>
      <trkpt lat="48.58633" lon="2.01732">
        <ele>98.6</ele>
        <time>2023-12-14T07:55:54Z</time>
      </trkpt>
      <trkpt lat="48.58627" lon="2.01736">
        <ele>97.6</ele>
        <time>2023-12-14T07:55:55Z</time>
      </trkpt>
      <trkpt lat="48.58621" lon="2.0174">
        <ele>98</ele>
        <time>2023-12-14T07:55:56Z</time>
      </trkpt>
      <trkpt lat="48.58614" lon="2.01745">
        <ele>98</ele>
        <time>2023-12-14T07:55:57Z</time>
      </trkpt>
      <trkpt lat="48.58608" lon="2.0175">
        <ele>98</ele>
        <time>2023-12-14T07:55:58Z</time>
      </trkpt>
      <trkpt lat="48.58602" lon="2.01755">
        <ele>98</ele>
        <time>2023-12-14T07:55:59Z</time>
      </trkpt>
      <trkpt lat="48.58596" lon="2.0176">
        <ele>98</ele>
        <time>2023-12-14T07:56:00Z</time>
      </trkpt>
      <trkpt lat="48.5859" lon="2.01766">
        <ele>98</ele>
        <time>2023-12-14T07:56:01Z</time>
      </trkpt>
      <trkpt lat="48.58585" lon="2.01771">
        <ele>98</ele>
        <time>2023-12-14T07:56:02Z</time>
      </trkpt>
      <trkpt lat="48.58579" lon="2.01777">
        <ele>98</ele>
        <time>2023-12-14T07:56:03Z</time>
      </trkpt>
      <trkpt lat="48.58573" lon="2.01782">
        <ele>97.6</ele>
        <time>2023-12-14T07:56:04Z</time>
      </trkpt>
      <trkpt lat="48.58567" lon="2.01788">
        <ele>97.6</ele>
        <time>2023-12-14T07:56:05Z</time>
      </trkpt>
      <trkpt lat="48.58561" lon="2.01794">
        <ele>97.6</ele>
        <time>2023-12-14T07:56:06Z</time>
      </trkpt>
      <trkpt lat="48.58555" lon="2.01799">
        <ele>97.6</ele>
        <time>2023-12-14T07:56:07Z</time>
      </trkpt>
      <trkpt lat="48.58549" lon="2.01805">
        <ele>97.2</ele>
        <time>2023-12-14T07:56:08Z</time>
      </trkpt>
      <trkpt lat="48.58543" lon="2.01811">
        <ele>97.2</ele>
        <time>2023-12-14T07:56:09Z</time>
      </trkpt>
      <trkpt lat="48.58537" lon="2.01816">
        <ele>97.2</ele>
        <time>2023-12-14T07:56:10Z</time>
      </trkpt>
      <trkpt lat="48.58531" lon="2.01822">
        <ele>96.8</ele>
        <time>2023-12-14T07:56:11Z</time>
      </trkpt>
      <trkpt lat="48.58526" lon="2.01828">
        <ele>97</ele>
        <time>2023-12-14T07:56:12Z</time>
      </trkpt>
      <trkpt lat="48.5852" lon="2.01834">
        <ele>97</ele>
        <time>2023-12-14T07:56:13Z</time>
      </trkpt>
      <trkpt lat="48.58514" lon="2.01839">
        <ele>97</ele>
        <time>2023-12-14T07:56:14Z</time>
      </trkpt>
      <trkpt lat="48.58508" lon="2.01845">
        <ele>97</ele>
        <time>2023-12-14T07:56:15Z</time>
      </trkpt>
      <trkpt lat="48.58502" lon="2.01851">
        <ele>96.4</ele>
        <time>2023-12-14T07:56:16Z</time>
      </trkpt>
      <trkpt lat="48.58496" lon="2.01856">
        <ele>96.4</ele>
        <time>2023-12-14T07:56:17Z</time>
      </trkpt>
      <trkpt lat="48.5849" lon="2.01862">
        <ele>96.4</ele>
        <time>2023-12-14T07:56:18Z</time>
      </trkpt>
      <trkpt lat="48.58484" lon="2.01868">
        <ele>97</ele>
        <time>2023-12-14T07:56:19Z</time>
      </trkpt>
      <trkpt lat="48.58478" lon="2.01874">
        <ele>96.4</ele>
        <time>2023-12-14T07:56:20Z</time>
      </trkpt>
      <trkpt lat="48.58472" lon="2.0188">
        <ele>96.4</ele>
        <time>2023-12-14T07:56:21Z</time>
      </trkpt>
      <trkpt lat="48.58467" lon="2.01886">
        <ele>96.4</ele>
        <time>2023-12-14T07:56:22Z</time>
      </trkpt>
      <trkpt lat="48.58461" lon="2.01891">
        <ele>95.4</ele>
        <time>2023-12-14T07:56:23Z</time>
      </trkpt>
      <trkpt lat="48.58455" lon="2.01897">
        <ele>96.2</ele>
        <time>2023-12-14T07:56:24Z</time>
      </trkpt>
      <trkpt lat="48.58448" lon="2.01903">
        <ele>96.2</ele>
        <time>2023-12-14T07:56:25Z</time>
      </trkpt>
      <trkpt lat="48.58442" lon="2.01909">
        <ele>96.2</ele>
        <time>2023-12-14T07:56:26Z</time>
      </trkpt>
      <trkpt lat="48.58436" lon="2.01915">
        <ele>95.6</ele>
        <time>2023-12-14T07:56:27Z</time>
      </trkpt>
      <trkpt lat="48.5843" lon="2.01921">
        <ele>95.4</ele>
        <time>2023-12-14T07:56:28Z</time>
      </trkpt>
      <trkpt lat="48.58424" lon="2.01926">
        <ele>95.4</ele>
        <time>2023-12-14T07:56:29Z</time>
      </trkpt>
      <trkpt lat="48.58418" lon="2.01932">
        <ele>95.4</ele>
        <time>2023-12-14T07:56:30Z</time>
      </trkpt>
      <trkpt lat="48.58412" lon="2.01937">
        <ele>95.4</ele>
        <time>2023-12-14T07:56:31Z</time>
      </trkpt>
      <trkpt lat="48.58406" lon="2.01943">
        <ele>95.4</ele>
        <time>2023-12-14T07:56:32Z</time>
      </trkpt>
      <trkpt lat="48.584" lon="2.01947">
        <ele>95.4</ele>
        <time>2023-12-14T07:56:33Z</time>
      </trkpt>
      <trkpt lat="48.58395" lon="2.01951">
        <ele>95.4</ele>
        <time>2023-12-14T07:56:34Z</time>
      </trkpt>
      <trkpt lat="48.58391" lon="2.01955">
        <ele>95.4</ele>
        <time>2023-12-14T07:56:35Z</time>
      </trkpt>
      <trkpt lat="48.58385" lon="2.0196">
        <ele>95.2</ele>
        <time>2023-12-14T07:56:36Z</time>
      </trkpt>
      <trkpt lat="48.5838" lon="2.01963">
        <ele>95.2</ele>
        <time>2023-12-14T07:56:37Z</time>
      </trkpt>
      <trkpt lat="48.58379" lon="2.01969">
        <ele>95.2</ele>
        <time>2023-12-14T07:56:38Z</time>
      </trkpt>
      <trkpt lat="48.58372" lon="2.01973">
        <ele>95.2</ele>
        <time>2023-12-14T07:56:39Z</time>
      </trkpt>
      <trkpt lat="48.58367" lon="2.01977">
        <ele>95.2</ele>
        <time>2023-12-14T07:56:40Z</time>
      </trkpt>
      <trkpt lat="48.58362" lon="2.01982">
        <ele>95.2</ele>
        <time>2023-12-14T07:56:41Z</time>
      </trkpt>
      <trkpt lat="48.58357" lon="2.01989">
        <ele>95.2</ele>
        <time>2023-12-14T07:56:42Z</time>
      </trkpt>
      <trkpt lat="48.58353" lon="2.01993">
        <ele>95</ele>
        <time>2023-12-14T07:56:43Z</time>
      </trkpt>
      <trkpt lat="48.58347" lon="2.01999">
        <ele>94.8</ele>
        <time>2023-12-14T07:56:44Z</time>
      </trkpt>
      <trkpt lat="48.58343" lon="2.02003">
        <ele>94.8</ele>
        <time>2023-12-14T07:56:45Z</time>
      </trkpt>
      <trkpt lat="48.58339" lon="2.0201">
        <ele>94.8</ele>
        <time>2023-12-14T07:56:46Z</time>
      </trkpt>
      <trkpt lat="48.58334" lon="2.02016">
        <ele>94.4</ele>
        <time>2023-12-14T07:56:47Z</time>
      </trkpt>
      <trkpt lat="48.58329" lon="2.02022">
        <ele>94.4</ele>
        <time>2023-12-14T07:56:48Z</time>
      </trkpt>
      <trkpt lat="48.58323" lon="2.02027">
        <ele>94.4</ele>
        <time>2023-12-14T07:56:49Z</time>
      </trkpt>
      <trkpt lat="48.58318" lon="2.02033">
        <ele>94.4</ele>
        <time>2023-12-14T07:56:50Z</time>
      </trkpt>
      <trkpt lat="48.58314" lon="2.02039">
        <ele>94.4</ele>
        <time>2023-12-14T07:56:51Z</time>
      </trkpt>
      <trkpt lat="48.58309" lon="2.02046">
        <ele>94.8</ele>
        <time>2023-12-14T07:56:52Z</time>
      </trkpt>
      <trkpt lat="48.58304" lon="2.02051">
        <ele>94.8</ele>
        <time>2023-12-14T07:56:53Z</time>
      </trkpt>
      <trkpt lat="48.583" lon="2.02056">
        <ele>94.8</ele>
        <time>2023-12-14T07:56:54Z</time>
      </trkpt>
      <trkpt lat="48.58296" lon="2.02062">
        <ele>94.8</ele>
        <time>2023-12-14T07:56:55Z</time>
      </trkpt>
      <trkpt lat="48.58291" lon="2.02067">
        <ele>95</ele>
        <time>2023-12-14T07:56:56Z</time>
      </trkpt>
      <trkpt lat="48.58287" lon="2.02072">
        <ele>95</ele>
        <time>2023-12-14T07:56:57Z</time>
      </trkpt>
      <trkpt lat="48.58282" lon="2.02078">
        <ele>95</ele>
        <time>2023-12-14T07:56:58Z</time>
      </trkpt>
      <trkpt lat="48.58278" lon="2.02084">
        <ele>95</ele>
        <time>2023-12-14T07:56:59Z</time>
      </trkpt>
      <trkpt lat="48.58274" lon="2.0209">
        <ele>94.6</ele>
        <time>2023-12-14T07:57:00Z</time>
      </trkpt>
      <trkpt lat="48.58269" lon="2.02096">
        <ele>94.6</ele>
        <time>2023-12-14T07:57:01Z</time>
      </trkpt>
      <trkpt lat="48.58265" lon="2.02102">
        <ele>94.6</ele>
        <time>2023-12-14T07:57:02Z</time>
      </trkpt>
      <trkpt lat="48.5826" lon="2.02107">
        <ele>95.4</ele>
        <time>2023-12-14T07:57:03Z</time>
      </trkpt>
      <trkpt lat="48.58256" lon="2.02113">
        <ele>95.6</ele>
        <time>2023-12-14T07:57:04Z</time>
      </trkpt>
      <trkpt lat="48.58252" lon="2.02118">
        <ele>95.6</ele>
        <time>2023-12-14T07:57:05Z</time>
      </trkpt>
      <trkpt lat="48.58248" lon="2.02125">
        <ele>95.6</ele>
        <time>2023-12-14T07:57:06Z</time>
      </trkpt>
      <trkpt lat="48.58243" lon="2.02131">
        <ele>95.2</ele>
        <time>2023-12-14T07:57:07Z</time>
      </trkpt>
      <trkpt lat="48.58239" lon="2.02137">
        <ele>95.4</ele>
        <time>2023-12-14T07:57:08Z</time>
      </trkpt>
      <trkpt lat="48.58234" lon="2.02142">
        <ele>95.4</ele>
        <time>2023-12-14T07:57:09Z</time>
      </trkpt>
      <trkpt lat="48.5823" lon="2.02146">
        <ele>95.4</ele>
        <time>2023-12-14T07:57:10Z</time>
      </trkpt>
      <trkpt lat="48.58227" lon="2.0215">
        <ele>95.8</ele>
        <time>2023-12-14T07:57:11Z</time>
      </trkpt>
      <trkpt lat="48.58223" lon="2.02154">
        <ele>95.6</ele>
        <time>2023-12-14T07:57:12Z</time>
      </trkpt>
      <trkpt lat="48.58219" lon="2.02157">
        <ele>95.6</ele>
        <time>2023-12-14T07:57:13Z</time>
      </trkpt>
      <trkpt lat="48.58215" lon="2.02162">
        <ele>95.6</ele>
        <time>2023-12-14T07:57:14Z</time>
      </trkpt>
      <trkpt lat="48.58212" lon="2.02168">
        <ele>96</ele>
        <time>2023-12-14T07:57:15Z</time>
      </trkpt>
      <trkpt lat="48.58206" lon="2.02172">
        <ele>95.8</ele>
        <time>2023-12-14T07:57:16Z</time>
      </trkpt>
      <trkpt lat="48.58201" lon="2.02178">
        <ele>95.8</ele>
        <time>2023-12-14T07:57:17Z</time>
      </trkpt>
      <trkpt lat="48.58197" lon="2.02183">
        <ele>95.8</ele>
        <time>2023-12-14T07:57:18Z</time>
      </trkpt>
      <trkpt lat="48.58192" lon="2.02188">
        <ele>96</ele>
        <time>2023-12-14T07:57:19Z</time>
      </trkpt>
      <trkpt lat="48.58188" lon="2.02194">
        <ele>96</ele>
        <time>2023-12-14T07:57:20Z</time>
      </trkpt>
      <trkpt lat="48.58183" lon="2.022">
        <ele>96</ele>
        <time>2023-12-14T07:57:21Z</time>
      </trkpt>
      <trkpt lat="48.58179" lon="2.02206">
        <ele>96</ele>
        <time>2023-12-14T07:57:22Z</time>
      </trkpt>
      <trkpt lat="48.58174" lon="2.02212">
        <ele>96</ele>
        <time>2023-12-14T07:57:23Z</time>
      </trkpt>
      <trkpt lat="48.5817" lon="2.02217">
        <ele>96.4</ele>
        <time>2023-12-14T07:57:24Z</time>
      </trkpt>
      <trkpt lat="48.58165" lon="2.02222">
        <ele>96.4</ele>
        <time>2023-12-14T07:57:25Z</time>
      </trkpt>
      <trkpt lat="48.58161" lon="2.02228">
        <ele>96.4</ele>
        <time>2023-12-14T07:57:26Z</time>
      </trkpt>
      <trkpt lat="48.58157" lon="2.02233">
        <ele>96.4</ele>
        <time>2023-12-14T07:57:27Z</time>
      </trkpt>
      <trkpt lat="48.58152" lon="2.02238">
        <ele>97</ele>
        <time>2023-12-14T07:57:28Z</time>
      </trkpt>
      <trkpt lat="48.58148" lon="2.02244">
        <ele>97</ele>
        <time>2023-12-14T07:57:29Z</time>
      </trkpt>
      <trkpt lat="48.58144" lon="2.02249">
        <ele>97</ele>
        <time>2023-12-14T07:57:30Z</time>
      </trkpt>
      <trkpt lat="48.5814" lon="2.02253">
        <ele>97</ele>
        <time>2023-12-14T07:57:31Z</time>
      </trkpt>
      <trkpt lat="48.58136" lon="2.02259">
        <ele>97</ele>
        <time>2023-12-14T07:57:32Z</time>
      </trkpt>
      <trkpt lat="48.58132" lon="2.02263">
        <ele>97</ele>
        <time>2023-12-14T07:57:33Z</time>
      </trkpt>
      <trkpt lat="48.58128" lon="2.02268">
        <ele>97</ele>
        <time>2023-12-14T07:57:34Z</time>
      </trkpt>
      <trkpt lat="48.58124" lon="2.02273">
        <ele>97.4</ele>
        <time>2023-12-14T07:57:35Z</time>
      </trkpt>
      <trkpt lat="48.58119" lon="2.02277">
        <ele>97</ele>
        <time>2023-12-14T07:57:36Z</time>
      </trkpt>
      <trkpt lat="48.58115" lon="2.02283">
        <ele>97</ele>
        <time>2023-12-14T07:57:37Z</time>
      </trkpt>
      <trkpt lat="48.58111" lon="2.02288">
        <ele>97</ele>
        <time>2023-12-14T07:57:38Z</time>
      </trkpt>
      <trkpt lat="48.58107" lon="2.02293">
        <ele>97.6</ele>
        <time>2023-12-14T07:57:39Z</time>
      </trkpt>
      <trkpt lat="48.58103" lon="2.02298">
        <ele>97.2</ele>
        <time>2023-12-14T07:57:40Z</time>
      </trkpt>
      <trkpt lat="48.58099" lon="2.02304">
        <ele>97.2</ele>
        <time>2023-12-14T07:57:41Z</time>
      </trkpt>
      <trkpt lat="48.58094" lon="2.0231">
        <ele>97.2</ele>
        <time>2023-12-14T07:57:42Z</time>
      </trkpt>
      <trkpt lat="48.58089" lon="2.02316">
        <ele>97.2</ele>
        <time>2023-12-14T07:57:43Z</time>
      </trkpt>
      <trkpt lat="48.58084" lon="2.02321">
        <ele>97.6</ele>
        <time>2023-12-14T07:57:44Z</time>
      </trkpt>
      <trkpt lat="48.58079" lon="2.02327">
        <ele>97.6</ele>
        <time>2023-12-14T07:57:45Z</time>
      </trkpt>
      <trkpt lat="48.58074" lon="2.02332">
        <ele>97.6</ele>
        <time>2023-12-14T07:57:46Z</time>
      </trkpt>
      <trkpt lat="48.58069" lon="2.02337">
        <ele>97.6</ele>
        <time>2023-12-14T07:57:47Z</time>
      </trkpt>
      <trkpt lat="48.58064" lon="2.02341">
        <ele>97.6</ele>
        <time>2023-12-14T07:57:48Z</time>
      </trkpt>
      <trkpt lat="48.58058" lon="2.02346">
        <ele>97.6</ele>
        <time>2023-12-14T07:57:49Z</time>
      </trkpt>
      <trkpt lat="48.58053" lon="2.02351">
        <ele>97.6</ele>
        <time>2023-12-14T07:57:50Z</time>
      </trkpt>
      <trkpt lat="48.58048" lon="2.02355">
        <ele>97.6</ele>
        <time>2023-12-14T07:57:51Z</time>
      </trkpt>
      <trkpt lat="48.58042" lon="2.02359">
        <ele>98.2</ele>
        <time>2023-12-14T07:57:52Z</time>
      </trkpt>
      <trkpt lat="48.58037" lon="2.02363">
        <ele>98.2</ele>
        <time>2023-12-14T07:57:53Z</time>
      </trkpt>
      <trkpt lat="48.58032" lon="2.02367">
        <ele>98.2</ele>
        <time>2023-12-14T07:57:54Z</time>
      </trkpt>
      <trkpt lat="48.58027" lon="2.02371">
        <ele>98.4</ele>
        <time>2023-12-14T07:57:55Z</time>
      </trkpt>
      <trkpt lat="48.58022" lon="2.02376">
        <ele>98.6</ele>
        <time>2023-12-14T07:57:56Z</time>
      </trkpt>
      <trkpt lat="48.58018" lon="2.0238">
        <ele>98.6</ele>
        <time>2023-12-14T07:57:57Z</time>
      </trkpt>
      <trkpt lat="48.58013" lon="2.02384">
        <ele>98.6</ele>
        <time>2023-12-14T07:57:58Z</time>
      </trkpt>
      <trkpt lat="48.58009" lon="2.02387">
        <ele>99</ele>
        <time>2023-12-14T07:57:59Z</time>
      </trkpt>
      <trkpt lat="48.58005" lon="2.02391">
        <ele>99.4</ele>
        <time>2023-12-14T07:58:00Z</time>
      </trkpt>
      <trkpt lat="48.58" lon="2.02395">
        <ele>99.4</ele>
        <time>2023-12-14T07:58:01Z</time>
      </trkpt>
      <trkpt lat="48.57996" lon="2.02399">
        <ele>99.4</ele>
        <time>2023-12-14T07:58:02Z</time>
      </trkpt>
      <trkpt lat="48.57992" lon="2.02403">
        <ele>100.2</ele>
        <time>2023-12-14T07:58:03Z</time>
      </trkpt>
      <trkpt lat="48.57987" lon="2.02407">
        <ele>99.8</ele>
        <time>2023-12-14T07:58:04Z</time>
      </trkpt>
      <trkpt lat="48.57983" lon="2.0241">
        <ele>99.8</ele>
        <time>2023-12-14T07:58:05Z</time>
      </trkpt>
      <trkpt lat="48.57979" lon="2.02414">
        <ele>99.8</ele>
        <time>2023-12-14T07:58:06Z</time>
      </trkpt>
      <trkpt lat="48.57975" lon="2.02418">
        <ele>99.8</ele>
        <time>2023-12-14T07:58:07Z</time>
      </trkpt>
      <trkpt lat="48.57971" lon="2.02421">
        <ele>99.8</ele>
        <time>2023-12-14T07:58:08Z</time>
      </trkpt>
      <trkpt lat="48.57967" lon="2.02425">
        <ele>99.8</ele>
        <time>2023-12-14T07:58:09Z</time>
      </trkpt>
      <trkpt lat="48.57963" lon="2.02429">
        <ele>99.8</ele>
        <time>2023-12-14T07:58:10Z</time>
      </trkpt>
      <trkpt lat="48.57958" lon="2.02432">
        <ele>99.4</ele>
        <time>2023-12-14T07:58:11Z</time>
      </trkpt>
      <trkpt lat="48.57954" lon="2.02436">
        <ele>99.8</ele>
        <time>2023-12-14T07:58:12Z</time>
      </trkpt>
      <trkpt lat="48.5795" lon="2.0244">
        <ele>99.8</ele>
        <time>2023-12-14T07:58:13Z</time>
      </trkpt>
      <trkpt lat="48.57946" lon="2.02443">
        <ele>99.8</ele>
        <time>2023-12-14T07:58:14Z</time>
      </trkpt>
      <trkpt lat="48.57942" lon="2.02447">
        <ele>100</ele>
        <time>2023-12-14T07:58:15Z</time>
      </trkpt>
      <trkpt lat="48.57938" lon="2.02451">
        <ele>99.8</ele>
        <time>2023-12-14T07:58:16Z</time>
      </trkpt>
      <trkpt lat="48.57933" lon="2.02455">
        <ele>99.8</ele>
        <time>2023-12-14T07:58:17Z</time>
      </trkpt>
      <trkpt lat="48.57929" lon="2.02459">
        <ele>99.8</ele>
        <time>2023-12-14T07:58:18Z</time>
      </trkpt>
      <trkpt lat="48.57925" lon="2.02463">
        <ele>99.4</ele>
        <time>2023-12-14T07:58:19Z</time>
      </trkpt>
      <trkpt lat="48.57921" lon="2.02467">
        <ele>99.6</ele>
        <time>2023-12-14T07:58:20Z</time>
      </trkpt>
      <trkpt lat="48.57916" lon="2.02471">
        <ele>99.6</ele>
        <time>2023-12-14T07:58:21Z</time>
      </trkpt>
      <trkpt lat="48.57912" lon="2.02475">
        <ele>99.6</ele>
        <time>2023-12-14T07:58:22Z</time>
      </trkpt>
      <trkpt lat="48.57908" lon="2.02478">
        <ele>99.6</ele>
        <time>2023-12-14T07:58:23Z</time>
      </trkpt>
      <trkpt lat="48.57904" lon="2.02482">
        <ele>99</ele>
        <time>2023-12-14T07:58:24Z</time>
      </trkpt>
      <trkpt lat="48.57899" lon="2.02486">
        <ele>99</ele>
        <time>2023-12-14T07:58:25Z</time>
      </trkpt>
      <trkpt lat="48.57895" lon="2.0249">
        <ele>99</ele>
        <time>2023-12-14T07:58:26Z</time>
      </trkpt>
      <trkpt lat="48.57891" lon="2.02493">
        <ele>99</ele>
        <time>2023-12-14T07:58:27Z</time>
      </trkpt>
      <trkpt lat="48.57886" lon="2.02497">
        <ele>98.8</ele>
        <time>2023-12-14T07:58:28Z</time>
      </trkpt>
      <trkpt lat="48.57882" lon="2.02501">
        <ele>98.8</ele>
        <time>2023-12-14T07:58:29Z</time>
      </trkpt>
      <trkpt lat="48.57878" lon="2.02504">
        <ele>98.8</ele>
        <time>2023-12-14T07:58:30Z</time>
      </trkpt>
      <trkpt lat="48.57874" lon="2.02508">
        <ele>98.8</ele>
        <time>2023-12-14T07:58:31Z</time>
      </trkpt>
      <trkpt lat="48.5787" lon="2.02512">
        <ele>98.6</ele>
        <time>2023-12-14T07:58:32Z</time>
      </trkpt>
      <trkpt lat="48.57866" lon="2.02516">
        <ele>98.6</ele>
        <time>2023-12-14T07:58:33Z</time>
      </trkpt>
      <trkpt lat="48.57861" lon="2.0252">
        <ele>98.6</ele>
        <time>2023-12-14T07:58:34Z</time>
      </trkpt>
      <trkpt lat="48.57857" lon="2.02523">
        <ele>98</ele>
        <time>2023-12-14T07:58:35Z</time>
      </trkpt>
      <trkpt lat="48.57853" lon="2.02527">
        <ele>97.6</ele>
        <time>2023-12-14T07:58:36Z</time>
      </trkpt>
      <trkpt lat="48.57849" lon="2.02531">
        <ele>97.6</ele>
        <time>2023-12-14T07:58:37Z</time>
      </trkpt>
      <trkpt lat="48.57845" lon="2.02534">
        <ele>97.6</ele>
        <time>2023-12-14T07:58:38Z</time>
      </trkpt>
      <trkpt lat="48.57841" lon="2.02537">
        <ele>97.6</ele>
        <time>2023-12-14T07:58:39Z</time>
      </trkpt>
      <trkpt lat="48.57837" lon="2.02541">
        <ele>97.8</ele>
        <time>2023-12-14T07:58:40Z</time>
      </trkpt>
      <trkpt lat="48.57833" lon="2.02545">
        <ele>97.8</ele>
        <time>2023-12-14T07:58:41Z</time>
      </trkpt>
      <trkpt lat="48.57829" lon="2.02548">
        <ele>97.8</ele>
        <time>2023-12-14T07:58:42Z</time>
      </trkpt>
      <trkpt lat="48.57825" lon="2.02552">
        <ele>97.8</ele>
        <time>2023-12-14T07:58:43Z</time>
      </trkpt>
      <trkpt lat="48.57821" lon="2.02555">
        <ele>97.8</ele>
        <time>2023-12-14T07:58:44Z</time>
      </trkpt>
      <trkpt lat="48.57817" lon="2.02559">
        <ele>97.8</ele>
        <time>2023-12-14T07:58:45Z</time>
      </trkpt>
      <trkpt lat="48.57813" lon="2.02563">
        <ele>97.8</ele>
        <time>2023-12-14T07:58:46Z</time>
      </trkpt>
      <trkpt lat="48.57808" lon="2.02567">
        <ele>97.2</ele>
        <time>2023-12-14T07:58:47Z</time>
      </trkpt>
      <trkpt lat="48.57804" lon="2.02571">
        <ele>97</ele>
        <time>2023-12-14T07:58:48Z</time>
      </trkpt>
      <trkpt lat="48.57799" lon="2.02575">
        <ele>97</ele>
        <time>2023-12-14T07:58:49Z</time>
      </trkpt>
      <trkpt lat="48.57795" lon="2.02579">
        <ele>97</ele>
        <time>2023-12-14T07:58:50Z</time>
      </trkpt>
      <trkpt lat="48.5779" lon="2.02583">
        <ele>96.4</ele>
        <time>2023-12-14T07:58:51Z</time>
      </trkpt>
      <trkpt lat="48.57785" lon="2.02587">
        <ele>96.4</ele>
        <time>2023-12-14T07:58:52Z</time>
      </trkpt>
      <trkpt lat="48.5778" lon="2.02592">
        <ele>96.4</ele>
        <time>2023-12-14T07:58:53Z</time>
      </trkpt>
      <trkpt lat="48.57775" lon="2.02596">
        <ele>96.4</ele>
        <time>2023-12-14T07:58:54Z</time>
      </trkpt>
      <trkpt lat="48.5777" lon="2.02601">
        <ele>96.4</ele>
        <time>2023-12-14T07:58:55Z</time>
      </trkpt>
      <trkpt lat="48.57765" lon="2.02605">
        <ele>96.6</ele>
        <time>2023-12-14T07:58:56Z</time>
      </trkpt>
      <trkpt lat="48.5776" lon="2.0261">
        <ele>96.6</ele>
        <time>2023-12-14T07:58:57Z</time>
      </trkpt>
      <trkpt lat="48.57755" lon="2.02614">
        <ele>96.6</ele>
        <time>2023-12-14T07:58:58Z</time>
      </trkpt>
      <trkpt lat="48.5775" lon="2.02619">
        <ele>95.8</ele>
        <time>2023-12-14T07:58:59Z</time>
      </trkpt>
      <trkpt lat="48.57744" lon="2.02623">
        <ele>96</ele>
        <time>2023-12-14T07:59:00Z</time>
      </trkpt>
      <trkpt lat="48.57739" lon="2.02628">
        <ele>96</ele>
        <time>2023-12-14T07:59:01Z</time>
      </trkpt>
      <trkpt lat="48.57734" lon="2.02633">
        <ele>96</ele>
        <time>2023-12-14T07:59:02Z</time>
      </trkpt>
      <trkpt lat="48.57729" lon="2.02638">
        <ele>96</ele>
        <time>2023-12-14T07:59:03Z</time>
      </trkpt>
      <trkpt lat="48.57723" lon="2.02643">
        <ele>95.4</ele>
        <time>2023-12-14T07:59:04Z</time>
      </trkpt>
      <trkpt lat="48.57718" lon="2.02648">
        <ele>95.4</ele>
        <time>2023-12-14T07:59:05Z</time>
      </trkpt>
      <trkpt lat="48.57712" lon="2.02653">
        <ele>95.4</ele>
        <time>2023-12-14T07:59:06Z</time>
      </trkpt>
      <trkpt lat="48.57707" lon="2.02657">
        <ele>95.4</ele>
        <time>2023-12-14T07:59:07Z</time>
      </trkpt>
      <trkpt lat="48.57702" lon="2.02662">
        <ele>95.6</ele>
        <time>2023-12-14T07:59:08Z</time>
      </trkpt>
      <trkpt lat="48.57696" lon="2.02667">
        <ele>95.6</ele>
        <time>2023-12-14T07:59:09Z</time>
      </trkpt>
      <trkpt lat="48.57691" lon="2.02673">
        <ele>95.6</ele>
        <time>2023-12-14T07:59:10Z</time>
      </trkpt>
      <trkpt lat="48.57686" lon="2.02678">
        <ele>95</ele>
        <time>2023-12-14T07:59:11Z</time>
      </trkpt>
      <trkpt lat="48.57681" lon="2.02683">
        <ele>95.2</ele>
        <time>2023-12-14T07:59:12Z</time>
      </trkpt>
      <trkpt lat="48.57676" lon="2.02689">
        <ele>95.2</ele>
        <time>2023-12-14T07:59:13Z</time>
      </trkpt>
      <trkpt lat="48.57671" lon="2.02694">
        <ele>95.2</ele>
        <time>2023-12-14T07:59:14Z</time>
      </trkpt>
      <trkpt lat="48.57667" lon="2.027">
        <ele>95.2</ele>
        <time>2023-12-14T07:59:15Z</time>
      </trkpt>
      <trkpt lat="48.57663" lon="2.02705">
        <ele>95</ele>
        <time>2023-12-14T07:59:16Z</time>
      </trkpt>
      <trkpt lat="48.57659" lon="2.0271">
        <ele>95</ele>
        <time>2023-12-14T07:59:17Z</time>
      </trkpt>
      <trkpt lat="48.57654" lon="2.02715">
        <ele>95</ele>
        <time>2023-12-14T07:59:18Z</time>
      </trkpt>
      <trkpt lat="48.5765" lon="2.0272">
        <ele>94.8</ele>
        <time>2023-12-14T07:59:19Z</time>
      </trkpt>
      <trkpt lat="48.57646" lon="2.02726">
        <ele>95</ele>
        <time>2023-12-14T07:59:20Z</time>
      </trkpt>
      <trkpt lat="48.57642" lon="2.02731">
        <ele>95</ele>
        <time>2023-12-14T07:59:21Z</time>
      </trkpt>
      <trkpt lat="48.57638" lon="2.02735">
        <ele>95</ele>
        <time>2023-12-14T07:59:22Z</time>
      </trkpt>
      <trkpt lat="48.57634" lon="2.0274">
        <ele>94.6</ele>
        <time>2023-12-14T07:59:23Z</time>
      </trkpt>
      <trkpt lat="48.57629" lon="2.02745">
        <ele>94.2</ele>
        <time>2023-12-14T07:59:24Z</time>
      </trkpt>
      <trkpt lat="48.57625" lon="2.02749">
        <ele>94.2</ele>
        <time>2023-12-14T07:59:25Z</time>
      </trkpt>
      <trkpt lat="48.57621" lon="2.02752">
        <ele>94.2</ele>
        <time>2023-12-14T07:59:26Z</time>
      </trkpt>
      <trkpt lat="48.57616" lon="2.02757">
        <ele>94.2</ele>
        <time>2023-12-14T07:59:27Z</time>
      </trkpt>
      <trkpt lat="48.57611" lon="2.02761">
        <ele>94.4</ele>
        <time>2023-12-14T07:59:28Z</time>
      </trkpt>
      <trkpt lat="48.57606" lon="2.02765">
        <ele>94.4</ele>
        <time>2023-12-14T07:59:29Z</time>
      </trkpt>
      <trkpt lat="48.57601" lon="2.02769">
        <ele>94.4</ele>
        <time>2023-12-14T07:59:30Z</time>
      </trkpt>
      <trkpt lat="48.57596" lon="2.02771">
        <ele>94.4</ele>
        <time>2023-12-14T07:59:31Z</time>
      </trkpt>
      <trkpt lat="48.57591" lon="2.02776">
        <ele>93.8</ele>
        <time>2023-12-14T07:59:32Z</time>
      </trkpt>
      <trkpt lat="48.57586" lon="2.0278">
        <ele>93.8</ele>
        <time>2023-12-14T07:59:33Z</time>
      </trkpt>
      <trkpt lat="48.57581" lon="2.02785">
        <ele>93.8</ele>
        <time>2023-12-14T07:59:34Z</time>
      </trkpt>
      <trkpt lat="48.57576" lon="2.02789">
        <ele>93.6</ele>
        <time>2023-12-14T07:59:35Z</time>
      </trkpt>
      <trkpt lat="48.57571" lon="2.02794">
        <ele>93.4</ele>
        <time>2023-12-14T07:59:36Z</time>
      </trkpt>
      <trkpt lat="48.57566" lon="2.02798">
        <ele>93.4</ele>
        <time>2023-12-14T07:59:37Z</time>
      </trkpt>
      <trkpt lat="48.5756" lon="2.02803">
        <ele>93.4</ele>
        <time>2023-12-14T07:59:38Z</time>
      </trkpt>
      <trkpt lat="48.57555" lon="2.02807">
        <ele>93.4</ele>
        <time>2023-12-14T07:59:39Z</time>
      </trkpt>
      <trkpt lat="48.57549" lon="2.02812">
        <ele>92.2</ele>
        <time>2023-12-14T07:59:40Z</time>
      </trkpt>
      <trkpt lat="48.57544" lon="2.02817">
        <ele>92.2</ele>
        <time>2023-12-14T07:59:41Z</time>
      </trkpt>
      <trkpt lat="48.57539" lon="2.02821">
        <ele>92.2</ele>
        <time>2023-12-14T07:59:42Z</time>
      </trkpt>
      <trkpt lat="48.57534" lon="2.02825">
        <ele>92.2</ele>
        <time>2023-12-14T07:59:43Z</time>
      </trkpt>
      <trkpt lat="48.57529" lon="2.02829">
        <ele>92.4</ele>
        <time>2023-12-14T07:59:44Z</time>
      </trkpt>
      <trkpt lat="48.57524" lon="2.02834">
        <ele>92.4</ele>
        <time>2023-12-14T07:59:45Z</time>
      </trkpt>
      <trkpt lat="48.57518" lon="2.02838">
        <ele>92.4</ele>
        <time>2023-12-14T07:59:46Z</time>
      </trkpt>
      <trkpt lat="48.57513" lon="2.02843">
        <ele>92.2</ele>
        <time>2023-12-14T07:59:47Z</time>
      </trkpt>
      <trkpt lat="48.57507" lon="2.02847">
        <ele>93</ele>
        <time>2023-12-14T07:59:48Z</time>
      </trkpt>
      <trkpt lat="48.57502" lon="2.02851">
        <ele>93</ele>
        <time>2023-12-14T07:59:49Z</time>
      </trkpt>
      <trkpt lat="48.57497" lon="2.02855">
        <ele>93</ele>
        <time>2023-12-14T07:59:50Z</time>
      </trkpt>
      <trkpt lat="48.57492" lon="2.02858">
        <ele>92.2</ele>
        <time>2023-12-14T07:59:51Z</time>
      </trkpt>
      <trkpt lat="48.57488" lon="2.02861">
        <ele>92.6</ele>
        <time>2023-12-14T07:59:52Z</time>
      </trkpt>
      <trkpt lat="48.57483" lon="2.02865">
        <ele>92.6</ele>
        <time>2023-12-14T07:59:53Z</time>
      </trkpt>
      <trkpt lat="48.57479" lon="2.02868">
        <ele>92.6</ele>
        <time>2023-12-14T07:59:54Z</time>
      </trkpt>
      <trkpt lat="48.57475" lon="2.02873">
        <ele>92.6</ele>
        <time>2023-12-14T07:59:55Z</time>
      </trkpt>
      <trkpt lat="48.5747" lon="2.02877">
        <ele>92.2</ele>
        <time>2023-12-14T07:59:56Z</time>
      </trkpt>
      <trkpt lat="48.57466" lon="2.02881">
        <ele>92.2</ele>
        <time>2023-12-14T07:59:57Z</time>
      </trkpt>
      <trkpt lat="48.57461" lon="2.02886">
        <ele>92.2</ele>
        <time>2023-12-14T07:59:58Z</time>
      </trkpt>
      <trkpt lat="48.57456" lon="2.02891">
        <ele>91.2</ele>
        <time>2023-12-14T07:59:59Z</time>
      </trkpt>
      <trkpt lat="48.5745" lon="2.02896">
        <ele>90.8</ele>
        <time>2023-12-14T08:00:00Z</time>
      </trkpt>
      <trkpt lat="48.57445" lon="2.029">
        <ele>90.8</ele>
        <time>2023-12-14T08:00:01Z</time>
      </trkpt>
      <trkpt lat="48.5744" lon="2.02903">
        <ele>90.8</ele>
        <time>2023-12-14T08:00:02Z</time>
      </trkpt>
      <trkpt lat="48.57434" lon="2.02907">
        <ele>90.8</ele>
        <time>2023-12-14T08:00:03Z</time>
      </trkpt>
      <trkpt lat="48.57429" lon="2.02911">
        <ele>91.6</ele>
        <time>2023-12-14T08:00:04Z</time>
      </trkpt>
      <trkpt lat="48.57425" lon="2.02915">
        <ele>91.6</ele>
        <time>2023-12-14T08:00:05Z</time>
      </trkpt>
      <trkpt lat="48.57421" lon="2.02919">
        <ele>91.6</ele>
        <time>2023-12-14T08:00:06Z</time>
      </trkpt>
      <trkpt lat="48.57416" lon="2.02922">
        <ele>91.2</ele>
        <time>2023-12-14T08:00:07Z</time>
      </trkpt>
      <trkpt lat="48.57412" lon="2.02926">
        <ele>91.6</ele>
        <time>2023-12-14T08:00:08Z</time>
      </trkpt>
      <trkpt lat="48.57407" lon="2.02931">
        <ele>91.6</ele>
        <time>2023-12-14T08:00:09Z</time>
      </trkpt>
      <trkpt lat="48.57402" lon="2.02936">
        <ele>91.6</ele>
        <time>2023-12-14T08:00:10Z</time>
      </trkpt>
      <trkpt lat="48.57398" lon="2.0294">
        <ele>91.2</ele>
        <time>2023-12-14T08:00:11Z</time>
      </trkpt>
      <trkpt lat="48.57394" lon="2.02945">
        <ele>92</ele>
        <time>2023-12-14T08:00:12Z</time>
      </trkpt>
      <trkpt lat="48.5739" lon="2.02951">
        <ele>92</ele>
        <time>2023-12-14T08:00:13Z</time>
      </trkpt>
      <trkpt lat="48.57386" lon="2.02956">
        <ele>92</ele>
        <time>2023-12-14T08:00:14Z</time>
      </trkpt>
      <trkpt lat="48.57382" lon="2.02962">
        <ele>92</ele>
        <time>2023-12-14T08:00:15Z</time>
      </trkpt>
      <trkpt lat="48.57378" lon="2.02968">
        <ele>92</ele>
        <time>2023-12-14T08:00:16Z</time>
      </trkpt>
      <trkpt lat="48.57375" lon="2.02973">
        <ele>92</ele>
        <time>2023-12-14T08:00:17Z</time>
      </trkpt>
      <trkpt lat="48.57371" lon="2.02979">
        <ele>92</ele>
        <time>2023-12-14T08:00:18Z</time>
      </trkpt>
      <trkpt lat="48.57367" lon="2.02985">
        <ele>92</ele>
        <time>2023-12-14T08:00:19Z</time>
      </trkpt>
      <trkpt lat="48.57364" lon="2.02991">
        <ele>92</ele>
        <time>2023-12-14T08:00:20Z</time>
      </trkpt>
      <trkpt lat="48.5736" lon="2.02998">
        <ele>92</ele>
        <time>2023-12-14T08:00:21Z</time>
      </trkpt>
      <trkpt lat="48.57357" lon="2.03004">
        <ele>92</ele>
        <time>2023-12-14T08:00:22Z</time>
      </trkpt>
      <trkpt lat="48.57354" lon="2.0301">
        <ele>93</ele>
        <time>2023-12-14T08:00:23Z</time>
      </trkpt>
      <trkpt lat="48.57351" lon="2.03015">
        <ele>92.4</ele>
        <time>2023-12-14T08:00:24Z</time>
      </trkpt>
      <trkpt lat="48.57348" lon="2.03021">
        <ele>92.4</ele>
        <time>2023-12-14T08:00:25Z</time>
      </trkpt>
      <trkpt lat="48.57345" lon="2.03027">
        <ele>92.4</ele>
        <time>2023-12-14T08:00:26Z</time>
      </trkpt>
      <trkpt lat="48.57343" lon="2.03033">
        <ele>92.6</ele>
        <time>2023-12-14T08:00:27Z</time>
      </trkpt>
      <trkpt lat="48.5734" lon="2.03038">
        <ele>93.6</ele>
        <time>2023-12-14T08:00:28Z</time>
      </trkpt>
      <trkpt lat="48.57337" lon="2.03043">
        <ele>93.6</ele>
        <time>2023-12-14T08:00:29Z</time>
      </trkpt>
      <trkpt lat="48.57334" lon="2.03049">
        <ele>93.6</ele>
        <time>2023-12-14T08:00:30Z</time>
      </trkpt>
      <trkpt lat="48.57332" lon="2.03053">
        <ele>94</ele>
        <time>2023-12-14T08:00:31Z</time>
      </trkpt>
      <trkpt lat="48.57328" lon="2.03058">
        <ele>94.2</ele>
        <time>2023-12-14T08:00:32Z</time>
      </trkpt>
      <trkpt lat="48.57325" lon="2.03064">
        <ele>94.2</ele>
        <time>2023-12-14T08:00:33Z</time>
      </trkpt>
      <trkpt lat="48.57322" lon="2.03069">
        <ele>94.2</ele>
        <time>2023-12-14T08:00:34Z</time>
      </trkpt>
      <trkpt lat="48.57319" lon="2.03073">
        <ele>94.2</ele>
        <time>2023-12-14T08:00:35Z</time>
      </trkpt>
      <trkpt lat="48.57316" lon="2.03078">
        <ele>94.6</ele>
        <time>2023-12-14T08:00:36Z</time>
      </trkpt>
      <trkpt lat="48.57313" lon="2.03083">
        <ele>94.6</ele>
        <time>2023-12-14T08:00:37Z</time>
      </trkpt>
      <trkpt lat="48.5731" lon="2.03089">
        <ele>94.6</ele>
        <time>2023-12-14T08:00:38Z</time>
      </trkpt>
      <trkpt lat="48.57307" lon="2.03094">
        <ele>94.6</ele>
        <time>2023-12-14T08:00:39Z</time>
      </trkpt>
      <trkpt lat="48.57305" lon="2.03099">
        <ele>95.4</ele>
        <time>2023-12-14T08:00:40Z</time>
      </trkpt>
      <trkpt lat="48.57302" lon="2.03105">
        <ele>95.4</ele>
        <time>2023-12-14T08:00:41Z</time>
      </trkpt>
      <trkpt lat="48.57299" lon="2.0311">
        <ele>95.4</ele>
        <time>2023-12-14T08:00:42Z</time>
      </trkpt>
      <trkpt lat="48.57296" lon="2.03115">
        <ele>96.2</ele>
        <time>2023-12-14T08:00:43Z</time>
      </trkpt>
      <trkpt lat="48.57294" lon="2.0312">
        <ele>96.2</ele>
        <time>2023-12-14T08:00:44Z</time>
      </trkpt>
      <trkpt lat="48.57291" lon="2.03126">
        <ele>96.2</ele>
        <time>2023-12-14T08:00:45Z</time>
      </trkpt>
      <trkpt lat="48.57288" lon="2.03131">
        <ele>96.2</ele>
        <time>2023-12-14T08:00:46Z</time>
      </trkpt>
      <trkpt lat="48.57285" lon="2.03135">
        <ele>96.2</ele>
        <time>2023-12-14T08:00:47Z</time>
      </trkpt>
      <trkpt lat="48.57283" lon="2.0314">
        <ele>97</ele>
        <time>2023-12-14T08:00:48Z</time>
      </trkpt>
      <trkpt lat="48.5728" lon="2.03144">
        <ele>97</ele>
        <time>2023-12-14T08:00:49Z</time>
      </trkpt>
      <trkpt lat="48.57277" lon="2.03149">
        <ele>97</ele>
        <time>2023-12-14T08:00:50Z</time>
      </trkpt>
      <trkpt lat="48.57274" lon="2.03153">
        <ele>97</ele>
        <time>2023-12-14T08:00:51Z</time>
      </trkpt>
      <trkpt lat="48.57271" lon="2.03157">
        <ele>97.2</ele>
        <time>2023-12-14T08:00:52Z</time>
      </trkpt>
      <trkpt lat="48.57268" lon="2.03161">
        <ele>97.2</ele>
        <time>2023-12-14T08:00:53Z</time>
      </trkpt>
      <trkpt lat="48.57265" lon="2.03165">
        <ele>97.2</ele>
        <time>2023-12-14T08:00:54Z</time>
      </trkpt>
      <trkpt lat="48.57261" lon="2.0317">
        <ele>97.2</ele>
        <time>2023-12-14T08:00:55Z</time>
      </trkpt>
      <trkpt lat="48.57258" lon="2.03175">
        <ele>97</ele>
        <time>2023-12-14T08:00:56Z</time>
      </trkpt>
      <trkpt lat="48.57255" lon="2.03179">
        <ele>97</ele>
        <time>2023-12-14T08:00:57Z</time>
      </trkpt>
      <trkpt lat="48.57251" lon="2.03184">
        <ele>97</ele>
        <time>2023-12-14T08:00:58Z</time>
      </trkpt>
      <trkpt lat="48.57248" lon="2.03188">
        <ele>97.4</ele>
        <time>2023-12-14T08:00:59Z</time>
      </trkpt>
      <trkpt lat="48.57244" lon="2.03192">
        <ele>97.2</ele>
        <time>2023-12-14T08:01:00Z</time>
      </trkpt>
      <trkpt lat="48.5724" lon="2.03196">
        <ele>97.2</ele>
        <time>2023-12-14T08:01:01Z</time>
      </trkpt>
      <trkpt lat="48.57236" lon="2.032">
        <ele>97.2</ele>
        <time>2023-12-14T08:01:02Z</time>
      </trkpt>
      <trkpt lat="48.57232" lon="2.03203">
        <ele>97.2</ele>
        <time>2023-12-14T08:01:03Z</time>
      </trkpt>
      <trkpt lat="48.57229" lon="2.03208">
        <ele>97</ele>
        <time>2023-12-14T08:01:04Z</time>
      </trkpt>
      <trkpt lat="48.57224" lon="2.03212">
        <ele>97</ele>
        <time>2023-12-14T08:01:05Z</time>
      </trkpt>
      <trkpt lat="48.5722" lon="2.03215">
        <ele>97</ele>
        <time>2023-12-14T08:01:06Z</time>
      </trkpt>
      <trkpt lat="48.57216" lon="2.03219">
        <ele>97</ele>
        <time>2023-12-14T08:01:07Z</time>
      </trkpt>
      <trkpt lat="48.57211" lon="2.03222">
        <ele>96.6</ele>
        <time>2023-12-14T08:01:08Z</time>
      </trkpt>
      <trkpt lat="48.57207" lon="2.03225">
        <ele>96.6</ele>
        <time>2023-12-14T08:01:09Z</time>
      </trkpt>
      <trkpt lat="48.57203" lon="2.03229">
        <ele>96.6</ele>
        <time>2023-12-14T08:01:10Z</time>
      </trkpt>
      <trkpt lat="48.57198" lon="2.03233">
        <ele>96.8</ele>
        <time>2023-12-14T08:01:11Z</time>
      </trkpt>
      <trkpt lat="48.57194" lon="2.03237">
        <ele>96.8</ele>
        <time>2023-12-14T08:01:12Z</time>
      </trkpt>
      <trkpt lat="48.5719" lon="2.03241">
        <ele>96.8</ele>
        <time>2023-12-14T08:01:13Z</time>
      </trkpt>
      <trkpt lat="48.57186" lon="2.03245">
        <ele>96.8</ele>
        <time>2023-12-14T08:01:14Z</time>
      </trkpt>
      <trkpt lat="48.57182" lon="2.03249">
        <ele>96.8</ele>
        <time>2023-12-14T08:01:15Z</time>
      </trkpt>
      <trkpt lat="48.57178" lon="2.03254">
        <ele>97.4</ele>
        <time>2023-12-14T08:01:16Z</time>
      </trkpt>
      <trkpt lat="48.57174" lon="2.03258">
        <ele>97.4</ele>
        <time>2023-12-14T08:01:17Z</time>
      </trkpt>
      <trkpt lat="48.5717" lon="2.03262">
        <ele>97.4</ele>
        <time>2023-12-14T08:01:18Z</time>
      </trkpt>
      <trkpt lat="48.57165" lon="2.03265">
        <ele>97.6</ele>
        <time>2023-12-14T08:01:19Z</time>
      </trkpt>
      <trkpt lat="48.57161" lon="2.03269">
        <ele>98</ele>
        <time>2023-12-14T08:01:20Z</time>
      </trkpt>
      <trkpt lat="48.57156" lon="2.03272">
        <ele>98</ele>
        <time>2023-12-14T08:01:21Z</time>
      </trkpt>
      <trkpt lat="48.57152" lon="2.03276">
        <ele>98</ele>
        <time>2023-12-14T08:01:22Z</time>
      </trkpt>
      <trkpt lat="48.57148" lon="2.0328">
        <ele>97.6</ele>
        <time>2023-12-14T08:01:23Z</time>
      </trkpt>
      <trkpt lat="48.57143" lon="2.03284">
        <ele>97.8</ele>
        <time>2023-12-14T08:01:24Z</time>
      </trkpt>
      <trkpt lat="48.57139" lon="2.03288">
        <ele>97.8</ele>
        <time>2023-12-14T08:01:25Z</time>
      </trkpt>
      <trkpt lat="48.57135" lon="2.03293">
        <ele>97.8</ele>
        <time>2023-12-14T08:01:26Z</time>
      </trkpt>
      <trkpt lat="48.57132" lon="2.03297">
        <ele>98</ele>
        <time>2023-12-14T08:01:27Z</time>
      </trkpt>
      <trkpt lat="48.57128" lon="2.03301">
        <ele>98.2</ele>
        <time>2023-12-14T08:01:28Z</time>
      </trkpt>
      <trkpt lat="48.57123" lon="2.03305">
        <ele>98.2</ele>
        <time>2023-12-14T08:01:29Z</time>
      </trkpt>
      <trkpt lat="48.57119" lon="2.03309">
        <ele>98.2</ele>
        <time>2023-12-14T08:01:30Z</time>
      </trkpt>
      <trkpt lat="48.57114" lon="2.03313">
        <ele>97.8</ele>
        <time>2023-12-14T08:01:31Z</time>
      </trkpt>
      <trkpt lat="48.57109" lon="2.03317">
        <ele>97.6</ele>
        <time>2023-12-14T08:01:32Z</time>
      </trkpt>
      <trkpt lat="48.57105" lon="2.03321">
        <ele>97.6</ele>
        <time>2023-12-14T08:01:33Z</time>
      </trkpt>
      <trkpt lat="48.57101" lon="2.03326">
        <ele>97.6</ele>
        <time>2023-12-14T08:01:34Z</time>
      </trkpt>
      <trkpt lat="48.57096" lon="2.0333">
        <ele>97.6</ele>
        <time>2023-12-14T08:01:35Z</time>
      </trkpt>
      <trkpt lat="48.57091" lon="2.03334">
        <ele>96.8</ele>
        <time>2023-12-14T08:01:36Z</time>
      </trkpt>
      <trkpt lat="48.57087" lon="2.03337">
        <ele>96.8</ele>
        <time>2023-12-14T08:01:37Z</time>
      </trkpt>
      <trkpt lat="48.57082" lon="2.03341">
        <ele>96.8</ele>
        <time>2023-12-14T08:01:38Z</time>
      </trkpt>
      <trkpt lat="48.57078" lon="2.03344">
        <ele>96.8</ele>
        <time>2023-12-14T08:01:39Z</time>
      </trkpt>
      <trkpt lat="48.57074" lon="2.03347">
        <ele>96.6</ele>
        <time>2023-12-14T08:01:40Z</time>
      </trkpt>
      <trkpt lat="48.5707" lon="2.0335">
        <ele>96.6</ele>
        <time>2023-12-14T08:01:41Z</time>
      </trkpt>
      <trkpt lat="48.57065" lon="2.03354">
        <ele>96.6</ele>
        <time>2023-12-14T08:01:42Z</time>
      </trkpt>
      <trkpt lat="48.57061" lon="2.03356">
        <ele>95.6</ele>
        <time>2023-12-14T08:01:43Z</time>
      </trkpt>
      <trkpt lat="48.57056" lon="2.03359">
        <ele>94.8</ele>
        <time>2023-12-14T08:01:44Z</time>
      </trkpt>
      <trkpt lat="48.57051" lon="2.03362">
        <ele>94.8</ele>
        <time>2023-12-14T08:01:45Z</time>
      </trkpt>
      <trkpt lat="48.57045" lon="2.03366">
        <ele>94.8</ele>
        <time>2023-12-14T08:01:46Z</time>
      </trkpt>
      <trkpt lat="48.5704" lon="2.0337">
        <ele>95.8</ele>
        <time>2023-12-14T08:01:47Z</time>
      </trkpt>
      <trkpt lat="48.57035" lon="2.03373">
        <ele>96</ele>
        <time>2023-12-14T08:01:48Z</time>
      </trkpt>
      <trkpt lat="48.5703" lon="2.03377">
        <ele>96</ele>
        <time>2023-12-14T08:01:49Z</time>
      </trkpt>
      <trkpt lat="48.57025" lon="2.03379">
        <ele>96</ele>
        <time>2023-12-14T08:01:50Z</time>
      </trkpt>
      <trkpt lat="48.57021" lon="2.03381">
        <ele>95.6</ele>
        <time>2023-12-14T08:01:51Z</time>
      </trkpt>
      <trkpt lat="48.57016" lon="2.03384">
        <ele>95.2</ele>
        <time>2023-12-14T08:01:52Z</time>
      </trkpt>
      <trkpt lat="48.57012" lon="2.03385">
        <ele>95.2</ele>
        <time>2023-12-14T08:01:53Z</time>
      </trkpt>
      <trkpt lat="48.57007" lon="2.03386">
        <ele>95.2</ele>
        <time>2023-12-14T08:01:54Z</time>
      </trkpt>
      <trkpt lat="48.57002" lon="2.03387">
        <ele>95.2</ele>
        <time>2023-12-14T08:01:55Z</time>
      </trkpt>
      <trkpt lat="48.56997" lon="2.03388">
        <ele>94.8</ele>
        <time>2023-12-14T08:01:56Z</time>
      </trkpt>
      <trkpt lat="48.56992" lon="2.03392">
        <ele>94.8</ele>
        <time>2023-12-14T08:01:57Z</time>
      </trkpt>
      <trkpt lat="48.56988" lon="2.03397">
        <ele>94.8</ele>
        <time>2023-12-14T08:01:58Z</time>
      </trkpt>
      <trkpt lat="48.56984" lon="2.03401">
        <ele>93.8</ele>
        <time>2023-12-14T08:01:59Z</time>
      </trkpt>
      <trkpt lat="48.56979" lon="2.03406">
        <ele>93.6</ele>
        <time>2023-12-14T08:02:00Z</time>
      </trkpt>
      <trkpt lat="48.56973" lon="2.03409">
        <ele>93.6</ele>
        <time>2023-12-14T08:02:01Z</time>
      </trkpt>
      <trkpt lat="48.56968" lon="2.03413">
        <ele>93.6</ele>
        <time>2023-12-14T08:02:02Z</time>
      </trkpt>
      <trkpt lat="48.56963" lon="2.03416">
        <ele>92.6</ele>
        <time>2023-12-14T08:02:03Z</time>
      </trkpt>
      <trkpt lat="48.56958" lon="2.0342">
        <ele>92.2</ele>
        <time>2023-12-14T08:02:04Z</time>
      </trkpt>
      <trkpt lat="48.56954" lon="2.03422">
        <ele>92.2</ele>
        <time>2023-12-14T08:02:05Z</time>
      </trkpt>
      <trkpt lat="48.56948" lon="2.03426">
        <ele>92.2</ele>
        <time>2023-12-14T08:02:06Z</time>
      </trkpt>
      <trkpt lat="48.56943" lon="2.03428">
        <ele>92.2</ele>
        <time>2023-12-14T08:02:07Z</time>
      </trkpt>
      <trkpt lat="48.56938" lon="2.0343">
        <ele>92.2</ele>
        <time>2023-12-14T08:02:08Z</time>
      </trkpt>
      <trkpt lat="48.56933" lon="2.03431">
        <ele>92.2</ele>
        <time>2023-12-14T08:02:09Z</time>
      </trkpt>
      <trkpt lat="48.56928" lon="2.03433">
        <ele>92.2</ele>
        <time>2023-12-14T08:02:10Z</time>
      </trkpt>
      <trkpt lat="48.56924" lon="2.03434">
        <ele>92.2</ele>
        <time>2023-12-14T08:02:11Z</time>
      </trkpt>
      <trkpt lat="48.56919" lon="2.03437">
        <ele>90.8</ele>
        <time>2023-12-14T08:02:12Z</time>
      </trkpt>
      <trkpt lat="48.56915" lon="2.0344">
        <ele>90.8</ele>
        <time>2023-12-14T08:02:13Z</time>
      </trkpt>
      <trkpt lat="48.56911" lon="2.03447">
        <ele>90.8</ele>
        <time>2023-12-14T08:02:14Z</time>
      </trkpt>
      <trkpt lat="48.56908" lon="2.03454">
        <ele>91.2</ele>
        <time>2023-12-14T08:02:15Z</time>
      </trkpt>
      <trkpt lat="48.56905" lon="2.03462">
        <ele>91.8</ele>
        <time>2023-12-14T08:02:16Z</time>
      </trkpt>
      <trkpt lat="48.56903" lon="2.0347">
        <ele>91.8</ele>
        <time>2023-12-14T08:02:17Z</time>
      </trkpt>
      <trkpt lat="48.56901" lon="2.03477">
        <ele>91.8</ele>
        <time>2023-12-14T08:02:18Z</time>
      </trkpt>
      <trkpt lat="48.56899" lon="2.03484">
        <ele>91.8</ele>
        <time>2023-12-14T08:02:19Z</time>
      </trkpt>
      <trkpt lat="48.56897" lon="2.03491">
        <ele>91.2</ele>
        <time>2023-12-14T08:02:20Z</time>
      </trkpt>
      <trkpt lat="48.56894" lon="2.03497">
        <ele>91.2</ele>
        <time>2023-12-14T08:02:21Z</time>
      </trkpt>
      <trkpt lat="48.56891" lon="2.03503">
        <ele>91.2</ele>
        <time>2023-12-14T08:02:22Z</time>
      </trkpt>
      <trkpt lat="48.56888" lon="2.03509">
        <ele>91.2</ele>
        <time>2023-12-14T08:02:23Z</time>
      </trkpt>
      <trkpt lat="48.56885" lon="2.03514">
        <ele>91.2</ele>
        <time>2023-12-14T08:02:24Z</time>
      </trkpt>
      <trkpt lat="48.56882" lon="2.03518">
        <ele>91.2</ele>
        <time>2023-12-14T08:02:25Z</time>
      </trkpt>
      <trkpt lat="48.56879" lon="2.03523">
        <ele>91.2</ele>
        <time>2023-12-14T08:02:26Z</time>
      </trkpt>
      <trkpt lat="48.56875" lon="2.03528">
        <ele>91.2</ele>
        <time>2023-12-14T08:02:27Z</time>
      </trkpt>
      <trkpt lat="48.56871" lon="2.03534">
        <ele>89.2</ele>
        <time>2023-12-14T08:02:28Z</time>
      </trkpt>
      <trkpt lat="48.56867" lon="2.0354">
        <ele>89.2</ele>
        <time>2023-12-14T08:02:29Z</time>
      </trkpt>
      <trkpt lat="48.56863" lon="2.03546">
        <ele>89.2</ele>
        <time>2023-12-14T08:02:30Z</time>
      </trkpt>
      <trkpt lat="48.56858" lon="2.03551">
        <ele>89.2</ele>
        <time>2023-12-14T08:02:31Z</time>
      </trkpt>
      <trkpt lat="48.56853" lon="2.03557">
        <ele>89.8</ele>
        <time>2023-12-14T08:02:32Z</time>
      </trkpt>
      <trkpt lat="48.56848" lon="2.03563">
        <ele>89.8</ele>
        <time>2023-12-14T08:02:33Z</time>
      </trkpt>
      <trkpt lat="48.56843" lon="2.03568">
        <ele>89.8</ele>
        <time>2023-12-14T08:02:34Z</time>
      </trkpt>
      <trkpt lat="48.56838" lon="2.03573">
        <ele>88.8</ele>
        <time>2023-12-14T08:02:35Z</time>
      </trkpt>
      <trkpt lat="48.56833" lon="2.03579">
        <ele>88</ele>
        <time>2023-12-14T08:02:36Z</time>
      </trkpt>
      <trkpt lat="48.56827" lon="2.03585">
        <ele>88</ele>
        <time>2023-12-14T08:02:37Z</time>
      </trkpt>
      <trkpt lat="48.56823" lon="2.03592">
        <ele>88</ele>
        <time>2023-12-14T08:02:38Z</time>
      </trkpt>
      <trkpt lat="48.56818" lon="2.03598">
        <ele>87.2</ele>
        <time>2023-12-14T08:02:39Z</time>
      </trkpt>
      <trkpt lat="48.56813" lon="2.03605">
        <ele>87</ele>
        <time>2023-12-14T08:02:40Z</time>
      </trkpt>
      <trkpt lat="48.56809" lon="2.03611">
        <ele>87</ele>
        <time>2023-12-14T08:02:41Z</time>
      </trkpt>
      <trkpt lat="48.56807" lon="2.03618">
        <ele>87</ele>
        <time>2023-12-14T08:02:42Z</time>
      </trkpt>
      <trkpt lat="48.56803" lon="2.03625">
        <ele>88</ele>
        <time>2023-12-14T08:02:43Z</time>
      </trkpt>
      <trkpt lat="48.568" lon="2.03631">
        <ele>88.2</ele>
        <time>2023-12-14T08:02:44Z</time>
      </trkpt>
      <trkpt lat="48.56797" lon="2.03638">
        <ele>88.2</ele>
        <time>2023-12-14T08:02:45Z</time>
      </trkpt>
      <trkpt lat="48.56794" lon="2.03644">
        <ele>88.2</ele>
        <time>2023-12-14T08:02:46Z</time>
      </trkpt>
      <trkpt lat="48.56791" lon="2.03651">
        <ele>88.2</ele>
        <time>2023-12-14T08:02:47Z</time>
      </trkpt>
      <trkpt lat="48.56788" lon="2.03659">
        <ele>87.6</ele>
        <time>2023-12-14T08:02:48Z</time>
      </trkpt>
      <trkpt lat="48.56785" lon="2.03665">
        <ele>87.6</ele>
        <time>2023-12-14T08:02:49Z</time>
      </trkpt>
      <trkpt lat="48.56783" lon="2.03673">
        <ele>87.6</ele>
        <time>2023-12-14T08:02:50Z</time>
      </trkpt>
      <trkpt lat="48.5678" lon="2.0368">
        <ele>87.6</ele>
        <time>2023-12-14T08:02:51Z</time>
      </trkpt>
      <trkpt lat="48.56776" lon="2.03688">
        <ele>87.2</ele>
        <time>2023-12-14T08:02:52Z</time>
      </trkpt>
      <trkpt lat="48.56774" lon="2.03694">
        <ele>87.2</ele>
        <time>2023-12-14T08:02:53Z</time>
      </trkpt>
      <trkpt lat="48.56771" lon="2.03702">
        <ele>87.2</ele>
        <time>2023-12-14T08:02:54Z</time>
      </trkpt>
      <trkpt lat="48.56768" lon="2.03707">
        <ele>87.4</ele>
        <time>2023-12-14T08:02:55Z</time>
      </trkpt>
      <trkpt lat="48.56767" lon="2.03713">
        <ele>87.6</ele>
        <time>2023-12-14T08:02:56Z</time>
      </trkpt>
      <trkpt lat="48.56766" lon="2.0372">
        <ele>87.6</ele>
        <time>2023-12-14T08:02:57Z</time>
      </trkpt>
      <trkpt lat="48.56766" lon="2.03727">
        <ele>87.6</ele>
        <time>2023-12-14T08:02:58Z</time>
      </trkpt>
      <trkpt lat="48.56766" lon="2.03736">
        <ele>87.6</ele>
        <time>2023-12-14T08:02:59Z</time>
      </trkpt>
      <trkpt lat="48.56766" lon="2.03744">
        <ele>87.4</ele>
        <time>2023-12-14T08:03:00Z</time>
      </trkpt>
      <trkpt lat="48.56767" lon="2.03754">
        <ele>87.4</ele>
        <time>2023-12-14T08:03:01Z</time>
      </trkpt>
      <trkpt lat="48.56769" lon="2.03763">
        <ele>87.4</ele>
        <time>2023-12-14T08:03:02Z</time>
      </trkpt>
      <trkpt lat="48.56771" lon="2.03772">
        <ele>87.2</ele>
        <time>2023-12-14T08:03:03Z</time>
      </trkpt>
      <trkpt lat="48.56773" lon="2.0378">
        <ele>87.4</ele>
        <time>2023-12-14T08:03:04Z</time>
      </trkpt>
      <trkpt lat="48.56776" lon="2.03789">
        <ele>87.4</ele>
        <time>2023-12-14T08:03:05Z</time>
      </trkpt>
      <trkpt lat="48.56778" lon="2.03798">
        <ele>87.4</ele>
        <time>2023-12-14T08:03:06Z</time>
      </trkpt>
      <trkpt lat="48.5678" lon="2.03807">
        <ele>88.2</ele>
        <time>2023-12-14T08:03:07Z</time>
      </trkpt>
      <trkpt lat="48.56782" lon="2.03816">
        <ele>87.2</ele>
        <time>2023-12-14T08:03:08Z</time>
      </trkpt>
      <trkpt lat="48.56784" lon="2.03825">
        <ele>87.2</ele>
        <time>2023-12-14T08:03:09Z</time>
      </trkpt>
      <trkpt lat="48.56787" lon="2.03834">
        <ele>87.2</ele>
        <time>2023-12-14T08:03:10Z</time>
      </trkpt>
      <trkpt lat="48.56789" lon="2.03844">
        <ele>87.2</ele>
        <time>2023-12-14T08:03:11Z</time>
      </trkpt>
      <trkpt lat="48.56792" lon="2.03853">
        <ele>87</ele>
        <time>2023-12-14T08:03:12Z</time>
      </trkpt>
      <trkpt lat="48.56795" lon="2.03862">
        <ele>87</ele>
        <time>2023-12-14T08:03:13Z</time>
      </trkpt>
      <trkpt lat="48.56797" lon="2.03872">
        <ele>87</ele>
        <time>2023-12-14T08:03:14Z</time>
      </trkpt>
      <trkpt lat="48.56798" lon="2.03882">
        <ele>86.8</ele>
        <time>2023-12-14T08:03:15Z</time>
      </trkpt>
      <trkpt lat="48.568" lon="2.03893">
        <ele>87.2</ele>
        <time>2023-12-14T08:03:16Z</time>
      </trkpt>
      <trkpt lat="48.56801" lon="2.03902">
        <ele>87.2</ele>
        <time>2023-12-14T08:03:17Z</time>
      </trkpt>
      <trkpt lat="48.56802" lon="2.03911">
        <ele>87.2</ele>
        <time>2023-12-14T08:03:18Z</time>
      </trkpt>
      <trkpt lat="48.56802" lon="2.0392">
        <ele>86.6</ele>
        <time>2023-12-14T08:03:19Z</time>
      </trkpt>
      <trkpt lat="48.56802" lon="2.03929">
        <ele>86.6</ele>
        <time>2023-12-14T08:03:20Z</time>
      </trkpt>
      <trkpt lat="48.56801" lon="2.03939">
        <ele>86.6</ele>
        <time>2023-12-14T08:03:21Z</time>
      </trkpt>
      <trkpt lat="48.56801" lon="2.03949">
        <ele>86.6</ele>
        <time>2023-12-14T08:03:22Z</time>
      </trkpt>
      <trkpt lat="48.568" lon="2.03958">
        <ele>86.4</ele>
        <time>2023-12-14T08:03:23Z</time>
      </trkpt>
      <trkpt lat="48.56798" lon="2.03967">
        <ele>86.4</ele>
        <time>2023-12-14T08:03:24Z</time>
      </trkpt>
      <trkpt lat="48.56798" lon="2.03975">
        <ele>86.4</ele>
        <time>2023-12-14T08:03:25Z</time>
      </trkpt>
      <trkpt lat="48.56797" lon="2.03985">
        <ele>86.4</ele>
        <time>2023-12-14T08:03:26Z</time>
      </trkpt>
      <trkpt lat="48.56796" lon="2.03994">
        <ele>86.4</ele>
        <time>2023-12-14T08:03:27Z</time>
      </trkpt>
      <trkpt lat="48.56796" lon="2.04003">
        <ele>86.4</ele>
        <time>2023-12-14T08:03:28Z</time>
      </trkpt>
      <trkpt lat="48.56795" lon="2.04012">
        <ele>86.4</ele>
        <time>2023-12-14T08:03:29Z</time>
      </trkpt>
      <trkpt lat="48.56795" lon="2.04022">
        <ele>86.4</ele>
        <time>2023-12-14T08:03:30Z</time>
      </trkpt>
      <trkpt lat="48.56794" lon="2.04032">
        <ele>86.4</ele>
        <time>2023-12-14T08:03:31Z</time>
      </trkpt>
      <trkpt lat="48.56794" lon="2.04041">
        <ele>86.4</ele>
        <time>2023-12-14T08:03:32Z</time>
      </trkpt>
      <trkpt lat="48.56794" lon="2.04051">
        <ele>86.4</ele>
        <time>2023-12-14T08:03:33Z</time>
      </trkpt>
      <trkpt lat="48.56794" lon="2.0406">
        <ele>86.4</ele>
        <time>2023-12-14T08:03:34Z</time>
      </trkpt>
      <trkpt lat="48.56794" lon="2.0407">
        <ele>86</ele>
        <time>2023-12-14T08:03:35Z</time>
      </trkpt>
      <trkpt lat="48.56794" lon="2.04079">
        <ele>86</ele>
        <time>2023-12-14T08:03:36Z</time>
      </trkpt>
      <trkpt lat="48.56795" lon="2.04088">
        <ele>86</ele>
        <time>2023-12-14T08:03:37Z</time>
      </trkpt>
      <trkpt lat="48.56795" lon="2.04097">
        <ele>86</ele>
        <time>2023-12-14T08:03:38Z</time>
      </trkpt>
      <trkpt lat="48.56795" lon="2.04107">
        <ele>86.6</ele>
        <time>2023-12-14T08:03:39Z</time>
      </trkpt>
      <trkpt lat="48.56795" lon="2.04116">
        <ele>85.8</ele>
        <time>2023-12-14T08:03:40Z</time>
      </trkpt>
      <trkpt lat="48.56795" lon="2.04126">
        <ele>85.8</ele>
        <time>2023-12-14T08:03:41Z</time>
      </trkpt>
      <trkpt lat="48.56795" lon="2.04135">
        <ele>85.8</ele>
        <time>2023-12-14T08:03:42Z</time>
      </trkpt>
      <trkpt lat="48.56795" lon="2.04145">
        <ele>86.2</ele>
        <time>2023-12-14T08:03:43Z</time>
      </trkpt>
      <trkpt lat="48.56795" lon="2.04154">
        <ele>86</ele>
        <time>2023-12-14T08:03:44Z</time>
      </trkpt>
      <trkpt lat="48.56795" lon="2.04163">
        <ele>86</ele>
        <time>2023-12-14T08:03:45Z</time>
      </trkpt>
      <trkpt lat="48.56795" lon="2.04172">
        <ele>86</ele>
        <time>2023-12-14T08:03:46Z</time>
      </trkpt>
      <trkpt lat="48.56795" lon="2.04181">
        <ele>86.4</ele>
        <time>2023-12-14T08:03:47Z</time>
      </trkpt>
      <trkpt lat="48.56796" lon="2.04189">
        <ele>87</ele>
        <time>2023-12-14T08:03:48Z</time>
      </trkpt>
      <trkpt lat="48.56795" lon="2.04198">
        <ele>87</ele>
        <time>2023-12-14T08:03:49Z</time>
      </trkpt>
      <trkpt lat="48.56795" lon="2.04206">
        <ele>87</ele>
        <time>2023-12-14T08:03:50Z</time>
      </trkpt>
      <trkpt lat="48.56795" lon="2.04214">
        <ele>87</ele>
        <time>2023-12-14T08:03:51Z</time>
      </trkpt>
      <trkpt lat="48.56795" lon="2.04222">
        <ele>87.6</ele>
        <time>2023-12-14T08:03:52Z</time>
      </trkpt>
      <trkpt lat="48.56796" lon="2.0423">
        <ele>87.6</ele>
        <time>2023-12-14T08:03:53Z</time>
      </trkpt>
      <trkpt lat="48.56798" lon="2.04237">
        <ele>87.6</ele>
        <time>2023-12-14T08:03:54Z</time>
      </trkpt>
      <trkpt lat="48.56798" lon="2.04244">
        <ele>87.8</ele>
        <time>2023-12-14T08:03:55Z</time>
      </trkpt>
      <trkpt lat="48.56799" lon="2.04251">
        <ele>87.8</ele>
        <time>2023-12-14T08:03:56Z</time>
      </trkpt>
      <trkpt lat="48.568" lon="2.04258">
        <ele>87.8</ele>
        <time>2023-12-14T08:03:57Z</time>
      </trkpt>
      <trkpt lat="48.56801" lon="2.04265">
        <ele>87.8</ele>
        <time>2023-12-14T08:03:58Z</time>
      </trkpt>
      <trkpt lat="48.56801" lon="2.04272">
        <ele>87.8</ele>
        <time>2023-12-14T08:03:59Z</time>
      </trkpt>
      <trkpt lat="48.56802" lon="2.04279">
        <ele>87.8</ele>
        <time>2023-12-14T08:04:00Z</time>
      </trkpt>
      <trkpt lat="48.56802" lon="2.04286">
        <ele>87.8</ele>
        <time>2023-12-14T08:04:01Z</time>
      </trkpt>
      <trkpt lat="48.56803" lon="2.04293">
        <ele>87.8</ele>
        <time>2023-12-14T08:04:02Z</time>
      </trkpt>
      <trkpt lat="48.56804" lon="2.043">
        <ele>88.2</ele>
        <time>2023-12-14T08:04:03Z</time>
      </trkpt>
      <trkpt lat="48.56804" lon="2.04308">
        <ele>88.2</ele>
        <time>2023-12-14T08:04:04Z</time>
      </trkpt>
      <trkpt lat="48.56804" lon="2.04315">
        <ele>88.2</ele>
        <time>2023-12-14T08:04:05Z</time>
      </trkpt>
      <trkpt lat="48.56804" lon="2.04323">
        <ele>88.2</ele>
        <time>2023-12-14T08:04:06Z</time>
      </trkpt>
      <trkpt lat="48.56803" lon="2.0433">
        <ele>87.8</ele>
        <time>2023-12-14T08:04:07Z</time>
      </trkpt>
      <trkpt lat="48.56802" lon="2.04338">
        <ele>87.8</ele>
        <time>2023-12-14T08:04:08Z</time>
      </trkpt>
      <trkpt lat="48.56801" lon="2.04345">
        <ele>87.8</ele>
        <time>2023-12-14T08:04:09Z</time>
      </trkpt>
      <trkpt lat="48.568" lon="2.04353">
        <ele>87.8</ele>
        <time>2023-12-14T08:04:10Z</time>
      </trkpt>
      <trkpt lat="48.56798" lon="2.0436">
        <ele>87.8</ele>
        <time>2023-12-14T08:04:11Z</time>
      </trkpt>
      <trkpt lat="48.56797" lon="2.04367">
        <ele>87.8</ele>
        <time>2023-12-14T08:04:12Z</time>
      </trkpt>
      <trkpt lat="48.56795" lon="2.04375">
        <ele>87.8</ele>
        <time>2023-12-14T08:04:13Z</time>
      </trkpt>
      <trkpt lat="48.56793" lon="2.04383">
        <ele>87.8</ele>
        <time>2023-12-14T08:04:14Z</time>
      </trkpt>
      <trkpt lat="48.56791" lon="2.04391">
        <ele>87.8</ele>
        <time>2023-12-14T08:04:15Z</time>
      </trkpt>
      <trkpt lat="48.56789" lon="2.04399">
        <ele>87.4</ele>
        <time>2023-12-14T08:04:16Z</time>
      </trkpt>
      <trkpt lat="48.56787" lon="2.04406">
        <ele>87.4</ele>
        <time>2023-12-14T08:04:17Z</time>
      </trkpt>
      <trkpt lat="48.56784" lon="2.04414">
        <ele>87.4</ele>
        <time>2023-12-14T08:04:18Z</time>
      </trkpt>
      <trkpt lat="48.56782" lon="2.04422">
        <ele>87.4</ele>
        <time>2023-12-14T08:04:19Z</time>
      </trkpt>
      <trkpt lat="48.5678" lon="2.0443">
        <ele>86.6</ele>
        <time>2023-12-14T08:04:20Z</time>
      </trkpt>
      <trkpt lat="48.56778" lon="2.04438">
        <ele>86.6</ele>
        <time>2023-12-14T08:04:21Z</time>
      </trkpt>
      <trkpt lat="48.56776" lon="2.04446">
        <ele>86.6</ele>
        <time>2023-12-14T08:04:22Z</time>
      </trkpt>
      <trkpt lat="48.56774" lon="2.04453">
        <ele>87.2</ele>
        <time>2023-12-14T08:04:23Z</time>
      </trkpt>
      <trkpt lat="48.56771" lon="2.04461">
        <ele>87.6</ele>
        <time>2023-12-14T08:04:24Z</time>
      </trkpt>
      <trkpt lat="48.56769" lon="2.04469">
        <ele>87.6</ele>
        <time>2023-12-14T08:04:25Z</time>
      </trkpt>
      <trkpt lat="48.56767" lon="2.04477">
        <ele>87.6</ele>
        <time>2023-12-14T08:04:26Z</time>
      </trkpt>
      <trkpt lat="48.56765" lon="2.04485">
        <ele>87.6</ele>
        <time>2023-12-14T08:04:27Z</time>
      </trkpt>
      <trkpt lat="48.56763" lon="2.04493">
        <ele>87.2</ele>
        <time>2023-12-14T08:04:28Z</time>
      </trkpt>
      <trkpt lat="48.5676" lon="2.045">
        <ele>87.2</ele>
        <time>2023-12-14T08:04:29Z</time>
      </trkpt>
      <trkpt lat="48.56758" lon="2.04508">
        <ele>87.2</ele>
        <time>2023-12-14T08:04:30Z</time>
      </trkpt>
      <trkpt lat="48.56756" lon="2.04516">
        <ele>87.2</ele>
        <time>2023-12-14T08:04:31Z</time>
      </trkpt>
      <trkpt lat="48.56754" lon="2.04523">
        <ele>87.4</ele>
        <time>2023-12-14T08:04:32Z</time>
      </trkpt>
      <trkpt lat="48.56751" lon="2.04531">
        <ele>87.4</ele>
        <time>2023-12-14T08:04:33Z</time>
      </trkpt>
      <trkpt lat="48.56749" lon="2.04538">
        <ele>87.4</ele>
        <time>2023-12-14T08:04:34Z</time>
      </trkpt>
      <trkpt lat="48.56747" lon="2.04545">
        <ele>87.8</ele>
        <time>2023-12-14T08:04:35Z</time>
      </trkpt>
      <trkpt lat="48.56745" lon="2.04553">
        <ele>87.8</ele>
        <time>2023-12-14T08:04:36Z</time>
      </trkpt>
      <trkpt lat="48.56743" lon="2.0456">
        <ele>87.8</ele>
        <time>2023-12-14T08:04:37Z</time>
      </trkpt>
      <trkpt lat="48.56741" lon="2.04567">
        <ele>87.8</ele>
        <time>2023-12-14T08:04:38Z</time>
      </trkpt>
      <trkpt lat="48.56739" lon="2.04574">
        <ele>87.8</ele>
        <time>2023-12-14T08:04:39Z</time>
      </trkpt>
      <trkpt lat="48.56737" lon="2.04581">
        <ele>87.2</ele>
        <time>2023-12-14T08:04:40Z</time>
      </trkpt>
      <trkpt lat="48.56735" lon="2.04589">
        <ele>87.2</ele>
        <time>2023-12-14T08:04:41Z</time>
      </trkpt>
      <trkpt lat="48.56733" lon="2.04597">
        <ele>87.2</ele>
        <time>2023-12-14T08:04:42Z</time>
      </trkpt>
      <trkpt lat="48.56732" lon="2.04605">
        <ele>87.2</ele>
        <time>2023-12-14T08:04:43Z</time>
      </trkpt>
      <trkpt lat="48.56731" lon="2.04614">
        <ele>87.2</ele>
        <time>2023-12-14T08:04:44Z</time>
      </trkpt>
      <trkpt lat="48.56731" lon="2.04622">
        <ele>87.2</ele>
        <time>2023-12-14T08:04:45Z</time>
      </trkpt>
      <trkpt lat="48.56731" lon="2.04631">
        <ele>87.2</ele>
        <time>2023-12-14T08:04:46Z</time>
      </trkpt>
      <trkpt lat="48.5673" lon="2.04638">
        <ele>87.2</ele>
        <time>2023-12-14T08:04:47Z</time>
      </trkpt>
      <trkpt lat="48.5673" lon="2.04646">
        <ele>88</ele>
        <time>2023-12-14T08:04:48Z</time>
      </trkpt>
      <trkpt lat="48.56729" lon="2.04654">
        <ele>88</ele>
        <time>2023-12-14T08:04:49Z</time>
      </trkpt>
      <trkpt lat="48.56729" lon="2.04662">
        <ele>88</ele>
        <time>2023-12-14T08:04:50Z</time>
      </trkpt>
      <trkpt lat="48.56729" lon="2.0467">
        <ele>88</ele>
        <time>2023-12-14T08:04:51Z</time>
      </trkpt>
      <trkpt lat="48.56729" lon="2.04678">
        <ele>87.8</ele>
        <time>2023-12-14T08:04:52Z</time>
      </trkpt>
      <trkpt lat="48.56729" lon="2.04686">
        <ele>87.8</ele>
        <time>2023-12-14T08:04:53Z</time>
      </trkpt>
      <trkpt lat="48.56728" lon="2.04694">
        <ele>87.8</ele>
        <time>2023-12-14T08:04:54Z</time>
      </trkpt>
      <trkpt lat="48.56727" lon="2.04701">
        <ele>87.8</ele>
        <time>2023-12-14T08:04:55Z</time>
      </trkpt>
      <trkpt lat="48.56726" lon="2.04709">
        <ele>88</ele>
        <time>2023-12-14T08:04:56Z</time>
      </trkpt>
      <trkpt lat="48.56725" lon="2.04716">
        <ele>88</ele>
        <time>2023-12-14T08:04:57Z</time>
      </trkpt>
      <trkpt lat="48.56723" lon="2.04724">
        <ele>88</ele>
        <time>2023-12-14T08:04:58Z</time>
      </trkpt>
      <trkpt lat="48.56722" lon="2.04731">
        <ele>88</ele>
        <time>2023-12-14T08:04:59Z</time>
      </trkpt>
      <trkpt lat="48.5672" lon="2.04739">
        <ele>87</ele>
        <time>2023-12-14T08:05:00Z</time>
      </trkpt>
      <trkpt lat="48.56718" lon="2.04746">
        <ele>87</ele>
        <time>2023-12-14T08:05:01Z</time>
      </trkpt>
      <trkpt lat="48.56716" lon="2.04754">
        <ele>87</ele>
        <time>2023-12-14T08:05:02Z</time>
      </trkpt>
      <trkpt lat="48.56714" lon="2.04762">
        <ele>87.2</ele>
        <time>2023-12-14T08:05:03Z</time>
      </trkpt>
      <trkpt lat="48.56713" lon="2.0477">
        <ele>86.8</ele>
        <time>2023-12-14T08:05:04Z</time>
      </trkpt>
      <trkpt lat="48.56711" lon="2.04778">
        <ele>86.8</ele>
        <time>2023-12-14T08:05:05Z</time>
      </trkpt>
      <trkpt lat="48.5671" lon="2.04786">
        <ele>86.8</ele>
        <time>2023-12-14T08:05:06Z</time>
      </trkpt>
      <trkpt lat="48.56708" lon="2.04794">
        <ele>87.8</ele>
        <time>2023-12-14T08:05:07Z</time>
      </trkpt>
      <trkpt lat="48.56706" lon="2.04801">
        <ele>88</ele>
        <time>2023-12-14T08:05:08Z</time>
      </trkpt>
      <trkpt lat="48.56705" lon="2.04808">
        <ele>88</ele>
        <time>2023-12-14T08:05:09Z</time>
      </trkpt>
      <trkpt lat="48.56704" lon="2.04815">
        <ele>88</ele>
        <time>2023-12-14T08:05:10Z</time>
      </trkpt>
      <trkpt lat="48.56702" lon="2.04822">
        <ele>87</ele>
        <time>2023-12-14T08:05:11Z</time>
      </trkpt>
      <trkpt lat="48.56701" lon="2.0483">
        <ele>85.4</ele>
        <time>2023-12-14T08:05:12Z</time>
      </trkpt>
      <trkpt lat="48.56699" lon="2.04838">
        <ele>85.4</ele>
        <time>2023-12-14T08:05:13Z</time>
      </trkpt>
      <trkpt lat="48.56697" lon="2.04847">
        <ele>85.4</ele>
        <time>2023-12-14T08:05:14Z</time>
      </trkpt>
      <trkpt lat="48.56695" lon="2.04854">
        <ele>85.6</ele>
        <time>2023-12-14T08:05:15Z</time>
      </trkpt>
      <trkpt lat="48.56692" lon="2.04862">
        <ele>84.8</ele>
        <time>2023-12-14T08:05:16Z</time>
      </trkpt>
      <trkpt lat="48.56687" lon="2.04867">
        <ele>84.8</ele>
        <time>2023-12-14T08:05:17Z</time>
      </trkpt>
      <trkpt lat="48.56682" lon="2.0487">
        <ele>84.8</ele>
        <time>2023-12-14T08:05:18Z</time>
      </trkpt>
      <trkpt lat="48.56676" lon="2.04872">
        <ele>84.8</ele>
        <time>2023-12-14T08:05:19Z</time>
      </trkpt>
      <trkpt lat="48.56671" lon="2.04873">
        <ele>84.8</ele>
        <time>2023-12-14T08:05:20Z</time>
      </trkpt>
      <trkpt lat="48.56665" lon="2.04873">
        <ele>84.8</ele>
        <time>2023-12-14T08:05:21Z</time>
      </trkpt>
      <trkpt lat="48.5666" lon="2.04874">
        <ele>84.8</ele>
        <time>2023-12-14T08:05:22Z</time>
      </trkpt>
      <trkpt lat="48.56654" lon="2.04874">
        <ele>85.6</ele>
        <time>2023-12-14T08:05:23Z</time>
      </trkpt>
      <trkpt lat="48.56649" lon="2.04874">
        <ele>85.2</ele>
        <time>2023-12-14T08:05:24Z</time>
      </trkpt>
      <trkpt lat="48.56643" lon="2.04875">
        <ele>85.2</ele>
        <time>2023-12-14T08:05:25Z</time>
      </trkpt>
      <trkpt lat="48.56637" lon="2.04874">
        <ele>85.2</ele>
        <time>2023-12-14T08:05:26Z</time>
      </trkpt>
      <trkpt lat="48.5663" lon="2.04874">
        <ele>85.2</ele>
        <time>2023-12-14T08:05:27Z</time>
      </trkpt>
      <trkpt lat="48.56624" lon="2.04874">
        <ele>84.8</ele>
        <time>2023-12-14T08:05:28Z</time>
      </trkpt>
      <trkpt lat="48.56618" lon="2.04874">
        <ele>84.8</ele>
        <time>2023-12-14T08:05:29Z</time>
      </trkpt>
      <trkpt lat="48.56612" lon="2.04874">
        <ele>84.8</ele>
        <time>2023-12-14T08:05:30Z</time>
      </trkpt>
      <trkpt lat="48.56606" lon="2.04874">
        <ele>84.8</ele>
        <time>2023-12-14T08:05:31Z</time>
      </trkpt>
      <trkpt lat="48.566" lon="2.04874">
        <ele>85.2</ele>
        <time>2023-12-14T08:05:32Z</time>
      </trkpt>
      <trkpt lat="48.56595" lon="2.04873">
        <ele>85.2</ele>
        <time>2023-12-14T08:05:33Z</time>
      </trkpt>
      <trkpt lat="48.56589" lon="2.04872">
        <ele>85.2</ele>
        <time>2023-12-14T08:05:34Z</time>
      </trkpt>
      <trkpt lat="48.56584" lon="2.04871">
        <ele>85.2</ele>
        <time>2023-12-14T08:05:35Z</time>
      </trkpt>
      <trkpt lat="48.56578" lon="2.04869">
        <ele>85.4</ele>
        <time>2023-12-14T08:05:36Z</time>
      </trkpt>
      <trkpt lat="48.56573" lon="2.04868">
        <ele>85.4</ele>
        <time>2023-12-14T08:05:37Z</time>
      </trkpt>
      <trkpt lat="48.56567" lon="2.04867">
        <ele>85.4</ele>
        <time>2023-12-14T08:05:38Z</time>
      </trkpt>
      <trkpt lat="48.56562" lon="2.04865">
        <ele>85.2</ele>
        <time>2023-12-14T08:05:39Z</time>
      </trkpt>
      <trkpt lat="48.56556" lon="2.04864">
        <ele>85.4</ele>
        <time>2023-12-14T08:05:40Z</time>
      </trkpt>
      <trkpt lat="48.56551" lon="2.04863">
        <ele>85.4</ele>
        <time>2023-12-14T08:05:41Z</time>
      </trkpt>
      <trkpt lat="48.56546" lon="2.04863">
        <ele>85.4</ele>
        <time>2023-12-14T08:05:42Z</time>
      </trkpt>
      <trkpt lat="48.5654" lon="2.04864">
        <ele>85</ele>
        <time>2023-12-14T08:05:43Z</time>
      </trkpt>
      <trkpt lat="48.56535" lon="2.04864">
        <ele>85</ele>
        <time>2023-12-14T08:05:44Z</time>
      </trkpt>
      <trkpt lat="48.56528" lon="2.04865">
        <ele>85</ele>
        <time>2023-12-14T08:05:45Z</time>
      </trkpt>
      <trkpt lat="48.56522" lon="2.04866">
        <ele>85</ele>
        <time>2023-12-14T08:05:46Z</time>
      </trkpt>
      <trkpt lat="48.56516" lon="2.04866">
        <ele>85</ele>
        <time>2023-12-14T08:05:47Z</time>
      </trkpt>
      <trkpt lat="48.5651" lon="2.04867">
        <ele>85.2</ele>
        <time>2023-12-14T08:05:48Z</time>
      </trkpt>
      <trkpt lat="48.56505" lon="2.04868">
        <ele>85.2</ele>
        <time>2023-12-14T08:05:49Z</time>
      </trkpt>
      <trkpt lat="48.56499" lon="2.04869">
        <ele>85.2</ele>
        <time>2023-12-14T08:05:50Z</time>
      </trkpt>
      <trkpt lat="48.56494" lon="2.04871">
        <ele>85.2</ele>
        <time>2023-12-14T08:05:51Z</time>
      </trkpt>
      <trkpt lat="48.56489" lon="2.04874">
        <ele>85.2</ele>
        <time>2023-12-14T08:05:52Z</time>
      </trkpt>
      <trkpt lat="48.56484" lon="2.04876">
        <ele>85.2</ele>
        <time>2023-12-14T08:05:53Z</time>
      </trkpt>
      <trkpt lat="48.56479" lon="2.04879">
        <ele>85.2</ele>
        <time>2023-12-14T08:05:54Z</time>
      </trkpt>
      <trkpt lat="48.56475" lon="2.04882">
        <ele>86</ele>
        <time>2023-12-14T08:05:55Z</time>
      </trkpt>
      <trkpt lat="48.5647" lon="2.04885">
        <ele>86.8</ele>
        <time>2023-12-14T08:05:56Z</time>
      </trkpt>
      <trkpt lat="48.56466" lon="2.04889">
        <ele>86.8</ele>
        <time>2023-12-14T08:05:57Z</time>
      </trkpt>
      <trkpt lat="48.56462" lon="2.04892">
        <ele>86.8</ele>
        <time>2023-12-14T08:05:58Z</time>
      </trkpt>
      <trkpt lat="48.56458" lon="2.04895">
        <ele>86.8</ele>
        <time>2023-12-14T08:05:59Z</time>
      </trkpt>
      <trkpt lat="48.56455" lon="2.04898">
        <ele>86.6</ele>
        <time>2023-12-14T08:06:00Z</time>
      </trkpt>
      <trkpt lat="48.56451" lon="2.04901">
        <ele>86.6</ele>
        <time>2023-12-14T08:06:01Z</time>
      </trkpt>
      <trkpt lat="48.56448" lon="2.04904">
        <ele>86.6</ele>
        <time>2023-12-14T08:06:02Z</time>
      </trkpt>
      <trkpt lat="48.56445" lon="2.04907">
        <ele>87.2</ele>
        <time>2023-12-14T08:06:03Z</time>
      </trkpt>
      <trkpt lat="48.56442" lon="2.0491">
        <ele>87.6</ele>
        <time>2023-12-14T08:06:04Z</time>
      </trkpt>
      <trkpt lat="48.56439" lon="2.04912">
        <ele>87.6</ele>
        <time>2023-12-14T08:06:05Z</time>
      </trkpt>
      <trkpt lat="48.56436" lon="2.04915">
        <ele>87.6</ele>
        <time>2023-12-14T08:06:06Z</time>
      </trkpt>
      <trkpt lat="48.56433" lon="2.04918">
        <ele>88.4</ele>
        <time>2023-12-14T08:06:07Z</time>
      </trkpt>
      <trkpt lat="48.5643" lon="2.04921">
        <ele>88.6</ele>
        <time>2023-12-14T08:06:08Z</time>
      </trkpt>
      <trkpt lat="48.56428" lon="2.04923">
        <ele>88.6</ele>
        <time>2023-12-14T08:06:09Z</time>
      </trkpt>
      <trkpt lat="48.56425" lon="2.04925">
        <ele>88.6</ele>
        <time>2023-12-14T08:06:10Z</time>
      </trkpt>
      <trkpt lat="48.56422" lon="2.04928">
        <ele>88.6</ele>
        <time>2023-12-14T08:06:11Z</time>
      </trkpt>
      <trkpt lat="48.56419" lon="2.04929">
        <ele>90</ele>
        <time>2023-12-14T08:06:12Z</time>
      </trkpt>
      <trkpt lat="48.56417" lon="2.04931">
        <ele>90</ele>
        <time>2023-12-14T08:06:13Z</time>
      </trkpt>
      <trkpt lat="48.56415" lon="2.04932">
        <ele>90</ele>
        <time>2023-12-14T08:06:14Z</time>
      </trkpt>
      <trkpt lat="48.56412" lon="2.04934">
        <ele>90</ele>
        <time>2023-12-14T08:06:15Z</time>
      </trkpt>
      <trkpt lat="48.56409" lon="2.04935">
        <ele>91</ele>
        <time>2023-12-14T08:06:16Z</time>
      </trkpt>
      <trkpt lat="48.56406" lon="2.04937">
        <ele>91</ele>
        <time>2023-12-14T08:06:17Z</time>
      </trkpt>
      <trkpt lat="48.56403" lon="2.04938">
        <ele>91</ele>
        <time>2023-12-14T08:06:18Z</time>
      </trkpt>
      <trkpt lat="48.564" lon="2.04939">
        <ele>91.6</ele>
        <time>2023-12-14T08:06:19Z</time>
      </trkpt>
      <trkpt lat="48.56398" lon="2.0494">
        <ele>91.6</ele>
        <time>2023-12-14T08:06:20Z</time>
      </trkpt>
      <trkpt lat="48.56395" lon="2.04942">
        <ele>91.6</ele>
        <time>2023-12-14T08:06:21Z</time>
      </trkpt>
      <trkpt lat="48.56392" lon="2.04943">
        <ele>91.6</ele>
        <time>2023-12-14T08:06:22Z</time>
      </trkpt>
      <trkpt lat="48.5639" lon="2.04944">
        <ele>92.6</ele>
        <time>2023-12-14T08:06:23Z</time>
      </trkpt>
      <trkpt lat="48.56387" lon="2.04944">
        <ele>92.6</ele>
        <time>2023-12-14T08:06:24Z</time>
      </trkpt>
      <trkpt lat="48.56384" lon="2.04945">
        <ele>92.6</ele>
        <time>2023-12-14T08:06:25Z</time>
      </trkpt>
      <trkpt lat="48.56382" lon="2.04945">
        <ele>92.6</ele>
        <time>2023-12-14T08:06:26Z</time>
      </trkpt>
      <trkpt lat="48.56379" lon="2.04946">
        <ele>93.4</ele>
        <time>2023-12-14T08:06:27Z</time>
      </trkpt>
      <trkpt lat="48.56376" lon="2.04946">
        <ele>93.8</ele>
        <time>2023-12-14T08:06:28Z</time>
      </trkpt>
      <trkpt lat="48.56373" lon="2.04946">
        <ele>93.8</ele>
        <time>2023-12-14T08:06:29Z</time>
      </trkpt>
      <trkpt lat="48.56371" lon="2.04946">
        <ele>93.8</ele>
        <time>2023-12-14T08:06:30Z</time>
      </trkpt>
      <trkpt lat="48.56369" lon="2.04946">
        <ele>94.2</ele>
        <time>2023-12-14T08:06:31Z</time>
      </trkpt>
      <trkpt lat="48.56366" lon="2.04945">
        <ele>94.4</ele>
        <time>2023-12-14T08:06:32Z</time>
      </trkpt>
      <trkpt lat="48.56364" lon="2.04945">
        <ele>94.4</ele>
        <time>2023-12-14T08:06:33Z</time>
      </trkpt>
      <trkpt lat="48.56361" lon="2.04945">
        <ele>94.4</ele>
        <time>2023-12-14T08:06:34Z</time>
      </trkpt>
      <trkpt lat="48.56359" lon="2.04944">
        <ele>94.2</ele>
        <time>2023-12-14T08:06:35Z</time>
      </trkpt>
      <trkpt lat="48.56356" lon="2.04944">
        <ele>94.2</ele>
        <time>2023-12-14T08:06:36Z</time>
      </trkpt>
      <trkpt lat="48.56353" lon="2.04943">
        <ele>94.2</ele>
        <time>2023-12-14T08:06:37Z</time>
      </trkpt>
      <trkpt lat="48.5635" lon="2.04943">
        <ele>94.2</ele>
        <time>2023-12-14T08:06:38Z</time>
      </trkpt>
      <trkpt lat="48.56347" lon="2.04943">
        <ele>94.8</ele>
        <time>2023-12-14T08:06:39Z</time>
      </trkpt>
      <trkpt lat="48.56345" lon="2.04942">
        <ele>94.6</ele>
        <time>2023-12-14T08:06:40Z</time>
      </trkpt>
      <trkpt lat="48.56342" lon="2.04942">
        <ele>94.6</ele>
        <time>2023-12-14T08:06:41Z</time>
      </trkpt>
      <trkpt lat="48.56339" lon="2.04941">
        <ele>94.6</ele>
        <time>2023-12-14T08:06:42Z</time>
      </trkpt>
      <trkpt lat="48.56337" lon="2.04941">
        <ele>95.6</ele>
        <time>2023-12-14T08:06:43Z</time>
      </trkpt>
      <trkpt lat="48.56334" lon="2.04941">
        <ele>95.8</ele>
        <time>2023-12-14T08:06:44Z</time>
      </trkpt>
      <trkpt lat="48.56331" lon="2.04941">
        <ele>95.8</ele>
        <time>2023-12-14T08:06:45Z</time>
      </trkpt>
      <trkpt lat="48.56329" lon="2.04941">
        <ele>95.8</ele>
        <time>2023-12-14T08:06:46Z</time>
      </trkpt>
      <trkpt lat="48.56326" lon="2.0494">
        <ele>96.8</ele>
        <time>2023-12-14T08:06:47Z</time>
      </trkpt>
      <trkpt lat="48.56324" lon="2.0494">
        <ele>97.6</ele>
        <time>2023-12-14T08:06:48Z</time>
      </trkpt>
      <trkpt lat="48.56321" lon="2.0494">
        <ele>97.6</ele>
        <time>2023-12-14T08:06:49Z</time>
      </trkpt>
      <trkpt lat="48.56319" lon="2.04939">
        <ele>97.6</ele>
        <time>2023-12-14T08:06:50Z</time>
      </trkpt>
      <trkpt lat="48.56317" lon="2.04938">
        <ele>98</ele>
        <time>2023-12-14T08:06:51Z</time>
      </trkpt>
      <trkpt lat="48.56314" lon="2.04938">
        <ele>98</ele>
        <time>2023-12-14T08:06:52Z</time>
      </trkpt>
      <trkpt lat="48.56312" lon="2.04938">
        <ele>98</ele>
        <time>2023-12-14T08:06:53Z</time>
      </trkpt>
      <trkpt lat="48.56309" lon="2.04937">
        <ele>98</ele>
        <time>2023-12-14T08:06:54Z</time>
      </trkpt>
      <trkpt lat="48.56307" lon="2.04937">
        <ele>98</ele>
        <time>2023-12-14T08:06:55Z</time>
      </trkpt>
      <trkpt lat="48.56304" lon="2.04937">
        <ele>98.6</ele>
        <time>2023-12-14T08:06:56Z</time>
      </trkpt>
      <trkpt lat="48.56302" lon="2.04936">
        <ele>98.6</ele>
        <time>2023-12-14T08:06:57Z</time>
      </trkpt>
      <trkpt lat="48.56299" lon="2.04936">
        <ele>98.6</ele>
        <time>2023-12-14T08:06:58Z</time>
      </trkpt>
      <trkpt lat="48.56297" lon="2.04936">
        <ele>99.6</ele>
        <time>2023-12-14T08:06:59Z</time>
      </trkpt>
      <trkpt lat="48.56294" lon="2.04935">
        <ele>99.6</ele>
        <time>2023-12-14T08:07:00Z</time>
      </trkpt>
      <trkpt lat="48.56292" lon="2.04935">
        <ele>99.6</ele>
        <time>2023-12-14T08:07:01Z</time>
      </trkpt>
      <trkpt lat="48.56289" lon="2.04935">
        <ele>99.6</ele>
        <time>2023-12-14T08:07:02Z</time>
      </trkpt>
      <trkpt lat="48.56287" lon="2.04935">
        <ele>100.4</ele>
        <time>2023-12-14T08:07:03Z</time>
      </trkpt>
      <trkpt lat="48.56284" lon="2.04934">
        <ele>100.4</ele>
        <time>2023-12-14T08:07:04Z</time>
      </trkpt>
      <trkpt lat="48.56282" lon="2.04935">
        <ele>100.4</ele>
        <time>2023-12-14T08:07:05Z</time>
      </trkpt>
      <trkpt lat="48.56279" lon="2.04935">
        <ele>100.4</ele>
        <time>2023-12-14T08:07:06Z</time>
      </trkpt>
      <trkpt lat="48.56277" lon="2.04935">
        <ele>101</ele>
        <time>2023-12-14T08:07:07Z</time>
      </trkpt>
      <trkpt lat="48.56275" lon="2.04935">
        <ele>101.4</ele>
        <time>2023-12-14T08:07:08Z</time>
      </trkpt>
      <trkpt lat="48.56272" lon="2.04936">
        <ele>101.4</ele>
        <time>2023-12-14T08:07:09Z</time>
      </trkpt>
      <trkpt lat="48.5627" lon="2.04937">
        <ele>101.4</ele>
        <time>2023-12-14T08:07:10Z</time>
      </trkpt>
      <trkpt lat="48.56267" lon="2.04938">
        <ele>101.6</ele>
        <time>2023-12-14T08:07:11Z</time>
      </trkpt>
      <trkpt lat="48.56265" lon="2.04939">
        <ele>102.4</ele>
        <time>2023-12-14T08:07:12Z</time>
      </trkpt>
      <trkpt lat="48.56263" lon="2.0494">
        <ele>102.4</ele>
        <time>2023-12-14T08:07:13Z</time>
      </trkpt>
      <trkpt lat="48.56261" lon="2.04941">
        <ele>102.4</ele>
        <time>2023-12-14T08:07:14Z</time>
      </trkpt>
      <trkpt lat="48.56259" lon="2.04942">
        <ele>103</ele>
        <time>2023-12-14T08:07:15Z</time>
      </trkpt>
      <trkpt lat="48.56256" lon="2.04943">
        <ele>103.2</ele>
        <time>2023-12-14T08:07:16Z</time>
      </trkpt>
      <trkpt lat="48.56254" lon="2.04945">
        <ele>103.2</ele>
        <time>2023-12-14T08:07:17Z</time>
      </trkpt>
      <trkpt lat="48.56252" lon="2.04946">
        <ele>103.2</ele>
        <time>2023-12-14T08:07:18Z</time>
      </trkpt>
      <trkpt lat="48.56249" lon="2.04947">
        <ele>103.8</ele>
        <time>2023-12-14T08:07:19Z</time>
      </trkpt>
      <trkpt lat="48.56247" lon="2.04948">
        <ele>103.8</ele>
        <time>2023-12-14T08:07:20Z</time>
      </trkpt>
      <trkpt lat="48.56245" lon="2.04949">
        <ele>103.8</ele>
        <time>2023-12-14T08:07:21Z</time>
      </trkpt>
      <trkpt lat="48.56242" lon="2.0495">
        <ele>103.8</ele>
        <time>2023-12-14T08:07:22Z</time>
      </trkpt>
      <trkpt lat="48.5624" lon="2.0495">
        <ele>104.4</ele>
        <time>2023-12-14T08:07:23Z</time>
      </trkpt>
      <trkpt lat="48.56237" lon="2.04951">
        <ele>104.4</ele>
        <time>2023-12-14T08:07:24Z</time>
      </trkpt>
      <trkpt lat="48.56235" lon="2.04952">
        <ele>104.4</ele>
        <time>2023-12-14T08:07:25Z</time>
      </trkpt>
      <trkpt lat="48.56233" lon="2.04952">
        <ele>104.4</ele>
        <time>2023-12-14T08:07:26Z</time>
      </trkpt>
      <trkpt lat="48.5623" lon="2.04953">
        <ele>105.2</ele>
        <time>2023-12-14T08:07:27Z</time>
      </trkpt>
      <trkpt lat="48.56228" lon="2.04953">
        <ele>105.4</ele>
        <time>2023-12-14T08:07:28Z</time>
      </trkpt>
      <trkpt lat="48.56225" lon="2.04953">
        <ele>105.4</ele>
        <time>2023-12-14T08:07:29Z</time>
      </trkpt>
      <trkpt lat="48.56223" lon="2.04953">
        <ele>105.4</ele>
        <time>2023-12-14T08:07:30Z</time>
      </trkpt>
      <trkpt lat="48.5622" lon="2.04952">
        <ele>105.4</ele>
        <time>2023-12-14T08:07:31Z</time>
      </trkpt>
      <trkpt lat="48.56218" lon="2.04952">
        <ele>105.8</ele>
        <time>2023-12-14T08:07:32Z</time>
      </trkpt>
      <trkpt lat="48.56216" lon="2.04951">
        <ele>105.8</ele>
        <time>2023-12-14T08:07:33Z</time>
      </trkpt>
      <trkpt lat="48.56214" lon="2.0495">
        <ele>105.8</ele>
        <time>2023-12-14T08:07:34Z</time>
      </trkpt>
      <trkpt lat="48.56212" lon="2.04949">
        <ele>106.6</ele>
        <time>2023-12-14T08:07:35Z</time>
      </trkpt>
      <trkpt lat="48.5621" lon="2.04948">
        <ele>106.4</ele>
        <time>2023-12-14T08:07:36Z</time>
      </trkpt>
      <trkpt lat="48.56208" lon="2.04948">
        <ele>106.4</ele>
        <time>2023-12-14T08:07:37Z</time>
      </trkpt>
      <trkpt lat="48.56206" lon="2.04948">
        <ele>106.4</ele>
        <time>2023-12-14T08:07:38Z</time>
      </trkpt>
      <trkpt lat="48.56204" lon="2.04948">
        <ele>107.4</ele>
        <time>2023-12-14T08:07:39Z</time>
      </trkpt>
      <trkpt lat="48.56201" lon="2.04947">
        <ele>107.4</ele>
        <time>2023-12-14T08:07:40Z</time>
      </trkpt>
      <trkpt lat="48.56199" lon="2.04947">
        <ele>107.4</ele>
        <time>2023-12-14T08:07:41Z</time>
      </trkpt>
      <trkpt lat="48.56196" lon="2.04946">
        <ele>107.4</ele>
        <time>2023-12-14T08:07:42Z</time>
      </trkpt>
      <trkpt lat="48.56194" lon="2.04946">
        <ele>108.2</ele>
        <time>2023-12-14T08:07:43Z</time>
      </trkpt>
      <trkpt lat="48.56191" lon="2.04946">
        <ele>108.4</ele>
        <time>2023-12-14T08:07:44Z</time>
      </trkpt>
      <trkpt lat="48.56189" lon="2.04945">
        <ele>108.4</ele>
        <time>2023-12-14T08:07:45Z</time>
      </trkpt>
      <trkpt lat="48.56186" lon="2.04944">
        <ele>108.4</ele>
        <time>2023-12-14T08:07:46Z</time>
      </trkpt>
      <trkpt lat="48.56184" lon="2.04944">
        <ele>108.4</ele>
        <time>2023-12-14T08:07:47Z</time>
      </trkpt>
      <trkpt lat="48.56181" lon="2.04943">
        <ele>109.2</ele>
        <time>2023-12-14T08:07:48Z</time>
      </trkpt>
      <trkpt lat="48.56179" lon="2.04942">
        <ele>109.2</ele>
        <time>2023-12-14T08:07:49Z</time>
      </trkpt>
      <trkpt lat="48.56177" lon="2.04941">
        <ele>109.2</ele>
        <time>2023-12-14T08:07:50Z</time>
      </trkpt>
      <trkpt lat="48.56174" lon="2.04939">
        <ele>109.2</ele>
        <time>2023-12-14T08:07:51Z</time>
      </trkpt>
      <trkpt lat="48.56172" lon="2.04938">
        <ele>110.2</ele>
        <time>2023-12-14T08:07:52Z</time>
      </trkpt>
      <trkpt lat="48.56169" lon="2.04937">
        <ele>110.2</ele>
        <time>2023-12-14T08:07:53Z</time>
      </trkpt>
      <trkpt lat="48.56167" lon="2.04936">
        <ele>110.2</ele>
        <time>2023-12-14T08:07:54Z</time>
      </trkpt>
      <trkpt lat="48.56164" lon="2.04936">
        <ele>110.4</ele>
        <time>2023-12-14T08:07:55Z</time>
      </trkpt>
      <trkpt lat="48.56162" lon="2.04935">
        <ele>110.8</ele>
        <time>2023-12-14T08:07:56Z</time>
      </trkpt>
      <trkpt lat="48.5616" lon="2.04934">
        <ele>110.8</ele>
        <time>2023-12-14T08:07:57Z</time>
      </trkpt>
      <trkpt lat="48.56158" lon="2.04932">
        <ele>110.8</ele>
        <time>2023-12-14T08:07:58Z</time>
      </trkpt>
      <trkpt lat="48.56155" lon="2.04931">
        <ele>110.8</ele>
        <time>2023-12-14T08:07:59Z</time>
      </trkpt>
      <trkpt lat="48.56153" lon="2.04929">
        <ele>111.6</ele>
        <time>2023-12-14T08:08:00Z</time>
      </trkpt>
      <trkpt lat="48.56151" lon="2.04928">
        <ele>111.6</ele>
        <time>2023-12-14T08:08:01Z</time>
      </trkpt>
      <trkpt lat="48.56149" lon="2.04926">
        <ele>111.6</ele>
        <time>2023-12-14T08:08:02Z</time>
      </trkpt>
      <trkpt lat="48.56147" lon="2.04924">
        <ele>112.2</ele>
        <time>2023-12-14T08:08:03Z</time>
      </trkpt>
      <trkpt lat="48.56145" lon="2.04922">
        <ele>112.4</ele>
        <time>2023-12-14T08:08:04Z</time>
      </trkpt>
      <trkpt lat="48.56143" lon="2.04921">
        <ele>112.4</ele>
        <time>2023-12-14T08:08:05Z</time>
      </trkpt>
      <trkpt lat="48.56141" lon="2.04919">
        <ele>112.4</ele>
        <time>2023-12-14T08:08:06Z</time>
      </trkpt>
      <trkpt lat="48.56139" lon="2.04918">
        <ele>113.2</ele>
        <time>2023-12-14T08:08:07Z</time>
      </trkpt>
      <trkpt lat="48.56137" lon="2.04915">
        <ele>113.2</ele>
        <time>2023-12-14T08:08:08Z</time>
      </trkpt>
      <trkpt lat="48.56135" lon="2.04913">
        <ele>113.2</ele>
        <time>2023-12-14T08:08:09Z</time>
      </trkpt>
      <trkpt lat="48.56133" lon="2.04911">
        <ele>113.2</ele>
        <time>2023-12-14T08:08:10Z</time>
      </trkpt>
      <trkpt lat="48.56131" lon="2.0491">
        <ele>114</ele>
        <time>2023-12-14T08:08:11Z</time>
      </trkpt>
      <trkpt lat="48.56129" lon="2.04908">
        <ele>114</ele>
        <time>2023-12-14T08:08:12Z</time>
      </trkpt>
      <trkpt lat="48.56126" lon="2.04907">
        <ele>114</ele>
        <time>2023-12-14T08:08:13Z</time>
      </trkpt>
      <trkpt lat="48.56124" lon="2.04905">
        <ele>114</ele>
        <time>2023-12-14T08:08:14Z</time>
      </trkpt>
      <trkpt lat="48.56122" lon="2.04903">
        <ele>114</ele>
        <time>2023-12-14T08:08:15Z</time>
      </trkpt>
      <trkpt lat="48.56119" lon="2.04902">
        <ele>114.8</ele>
        <time>2023-12-14T08:08:16Z</time>
      </trkpt>
      <trkpt lat="48.56116" lon="2.049">
        <ele>114.8</ele>
        <time>2023-12-14T08:08:17Z</time>
      </trkpt>
      <trkpt lat="48.56114" lon="2.04899">
        <ele>114.8</ele>
        <time>2023-12-14T08:08:18Z</time>
      </trkpt>
      <trkpt lat="48.56111" lon="2.04898">
        <ele>114.8</ele>
        <time>2023-12-14T08:08:19Z</time>
      </trkpt>
      <trkpt lat="48.56108" lon="2.04896">
        <ele>115.2</ele>
        <time>2023-12-14T08:08:20Z</time>
      </trkpt>
      <trkpt lat="48.56105" lon="2.04895">
        <ele>115.2</ele>
        <time>2023-12-14T08:08:21Z</time>
      </trkpt>
      <trkpt lat="48.56102" lon="2.04895">
        <ele>115.2</ele>
        <time>2023-12-14T08:08:22Z</time>
      </trkpt>
      <trkpt lat="48.561" lon="2.04894">
        <ele>115.2</ele>
        <time>2023-12-14T08:08:23Z</time>
      </trkpt>
      <trkpt lat="48.56097" lon="2.04894">
        <ele>116</ele>
        <time>2023-12-14T08:08:24Z</time>
      </trkpt>
      <trkpt lat="48.56095" lon="2.04894">
        <ele>116</ele>
        <time>2023-12-14T08:08:25Z</time>
      </trkpt>
      <trkpt lat="48.56092" lon="2.04894">
        <ele>116</ele>
        <time>2023-12-14T08:08:26Z</time>
      </trkpt>
      <trkpt lat="48.5609" lon="2.04894">
        <ele>116</ele>
        <time>2023-12-14T08:08:27Z</time>
      </trkpt>
      <trkpt lat="48.56087" lon="2.04893">
        <ele>116.4</ele>
        <time>2023-12-14T08:08:28Z</time>
      </trkpt>
      <trkpt lat="48.56085" lon="2.04893">
        <ele>116.4</ele>
        <time>2023-12-14T08:08:29Z</time>
      </trkpt>
      <trkpt lat="48.56082" lon="2.04892">
        <ele>116.4</ele>
        <time>2023-12-14T08:08:30Z</time>
      </trkpt>
      <trkpt lat="48.56079" lon="2.04892">
        <ele>117.2</ele>
        <time>2023-12-14T08:08:31Z</time>
      </trkpt>
      <trkpt lat="48.56077" lon="2.04892">
        <ele>117.2</ele>
        <time>2023-12-14T08:08:32Z</time>
      </trkpt>
      <trkpt lat="48.56074" lon="2.04892">
        <ele>117.2</ele>
        <time>2023-12-14T08:08:33Z</time>
      </trkpt>
      <trkpt lat="48.56071" lon="2.04893">
        <ele>117.2</ele>
        <time>2023-12-14T08:08:34Z</time>
      </trkpt>
      <trkpt lat="48.56068" lon="2.04894">
        <ele>117.2</ele>
        <time>2023-12-14T08:08:35Z</time>
      </trkpt>
      <trkpt lat="48.56065" lon="2.04895">
        <ele>117.8</ele>
        <time>2023-12-14T08:08:36Z</time>
      </trkpt>
      <trkpt lat="48.56062" lon="2.04896">
        <ele>117.8</ele>
        <time>2023-12-14T08:08:37Z</time>
      </trkpt>
      <trkpt lat="48.56059" lon="2.04897">
        <ele>117.8</ele>
        <time>2023-12-14T08:08:38Z</time>
      </trkpt>
      <trkpt lat="48.56056" lon="2.04898">
        <ele>118.2</ele>
        <time>2023-12-14T08:08:39Z</time>
      </trkpt>
      <trkpt lat="48.56053" lon="2.04899">
        <ele>118.4</ele>
        <time>2023-12-14T08:08:40Z</time>
      </trkpt>
      <trkpt lat="48.56051" lon="2.04901">
        <ele>118.4</ele>
        <time>2023-12-14T08:08:41Z</time>
      </trkpt>
      <trkpt lat="48.56048" lon="2.04903">
        <ele>118.4</ele>
        <time>2023-12-14T08:08:42Z</time>
      </trkpt>
      <trkpt lat="48.56045" lon="2.04905">
        <ele>118.8</ele>
        <time>2023-12-14T08:08:43Z</time>
      </trkpt>
      <trkpt lat="48.56043" lon="2.04907">
        <ele>119</ele>
        <time>2023-12-14T08:08:44Z</time>
      </trkpt>
      <trkpt lat="48.5604" lon="2.04909">
        <ele>119</ele>
        <time>2023-12-14T08:08:45Z</time>
      </trkpt>
      <trkpt lat="48.56037" lon="2.04911">
        <ele>119</ele>
        <time>2023-12-14T08:08:46Z</time>
      </trkpt>
      <trkpt lat="48.56034" lon="2.04913">
        <ele>119</ele>
        <time>2023-12-14T08:08:47Z</time>
      </trkpt>
      <trkpt lat="48.56031" lon="2.04916">
        <ele>119.8</ele>
        <time>2023-12-14T08:08:48Z</time>
      </trkpt>
      <trkpt lat="48.56028" lon="2.04918">
        <ele>119.8</ele>
        <time>2023-12-14T08:08:49Z</time>
      </trkpt>
      <trkpt lat="48.56026" lon="2.04921">
        <ele>119.8</ele>
        <time>2023-12-14T08:08:50Z</time>
      </trkpt>
      <trkpt lat="48.56023" lon="2.04923">
        <ele>119.8</ele>
        <time>2023-12-14T08:08:51Z</time>
      </trkpt>
      <trkpt lat="48.5602" lon="2.04926">
        <ele>120</ele>
        <time>2023-12-14T08:08:52Z</time>
      </trkpt>
      <trkpt lat="48.56017" lon="2.04929">
        <ele>120</ele>
        <time>2023-12-14T08:08:53Z</time>
      </trkpt>
      <trkpt lat="48.56015" lon="2.04931">
        <ele>120</ele>
        <time>2023-12-14T08:08:54Z</time>
      </trkpt>
      <trkpt lat="48.56012" lon="2.04934">
        <ele>120.6</ele>
        <time>2023-12-14T08:08:55Z</time>
      </trkpt>
      <trkpt lat="48.56009" lon="2.04936">
        <ele>120.6</ele>
        <time>2023-12-14T08:08:56Z</time>
      </trkpt>
      <trkpt lat="48.56007" lon="2.04939">
        <ele>120.6</ele>
        <time>2023-12-14T08:08:57Z</time>
      </trkpt>
      <trkpt lat="48.56004" lon="2.04941">
        <ele>120.6</ele>
        <time>2023-12-14T08:08:58Z</time>
      </trkpt>
      <trkpt lat="48.56001" lon="2.04943">
        <ele>121.2</ele>
        <time>2023-12-14T08:08:59Z</time>
      </trkpt>
      <trkpt lat="48.55999" lon="2.04946">
        <ele>121.4</ele>
        <time>2023-12-14T08:09:00Z</time>
      </trkpt>
      <trkpt lat="48.55996" lon="2.04949">
        <ele>121.4</ele>
        <time>2023-12-14T08:09:01Z</time>
      </trkpt>
      <trkpt lat="48.55994" lon="2.04951">
        <ele>121.4</ele>
        <time>2023-12-14T08:09:02Z</time>
      </trkpt>
      <trkpt lat="48.55992" lon="2.04954">
        <ele>121.4</ele>
        <time>2023-12-14T08:09:03Z</time>
      </trkpt>
      <trkpt lat="48.55989" lon="2.04957">
        <ele>122.2</ele>
        <time>2023-12-14T08:09:04Z</time>
      </trkpt>
      <trkpt lat="48.55988" lon="2.0496">
        <ele>122.2</ele>
        <time>2023-12-14T08:09:05Z</time>
      </trkpt>
      <trkpt lat="48.55986" lon="2.04963">
        <ele>122.2</ele>
        <time>2023-12-14T08:09:06Z</time>
      </trkpt>
      <trkpt lat="48.55985" lon="2.04965">
        <ele>122.2</ele>
        <time>2023-12-14T08:09:07Z</time>
      </trkpt>
      <trkpt lat="48.55983" lon="2.04969">
        <ele>122.2</ele>
        <time>2023-12-14T08:09:08Z</time>
      </trkpt>
      <trkpt lat="48.55981" lon="2.04972">
        <ele>122.2</ele>
        <time>2023-12-14T08:09:09Z</time>
      </trkpt>
      <trkpt lat="48.5598" lon="2.04976">
        <ele>122.2</ele>
        <time>2023-12-14T08:09:10Z</time>
      </trkpt>
      <trkpt lat="48.55978" lon="2.04979">
        <ele>123</ele>
        <time>2023-12-14T08:09:11Z</time>
      </trkpt>
      <trkpt lat="48.55977" lon="2.04982">
        <ele>123.4</ele>
        <time>2023-12-14T08:09:12Z</time>
      </trkpt>
      <trkpt lat="48.55976" lon="2.04986">
        <ele>123.4</ele>
        <time>2023-12-14T08:09:13Z</time>
      </trkpt>
      <trkpt lat="48.55975" lon="2.04989">
        <ele>123.4</ele>
        <time>2023-12-14T08:09:14Z</time>
      </trkpt>
      <trkpt lat="48.55974" lon="2.04993">
        <ele>123.6</ele>
        <time>2023-12-14T08:09:15Z</time>
      </trkpt>
      <trkpt lat="48.55973" lon="2.04996">
        <ele>124.2</ele>
        <time>2023-12-14T08:09:16Z</time>
      </trkpt>
      <trkpt lat="48.55972" lon="2.05">
        <ele>124.2</ele>
        <time>2023-12-14T08:09:17Z</time>
      </trkpt>
      <trkpt lat="48.55971" lon="2.05004">
        <ele>124.2</ele>
        <time>2023-12-14T08:09:18Z</time>
      </trkpt>
      <trkpt lat="48.5597" lon="2.05007">
        <ele>124.4</ele>
        <time>2023-12-14T08:09:19Z</time>
      </trkpt>
      <trkpt lat="48.55969" lon="2.05012">
        <ele>124.4</ele>
        <time>2023-12-14T08:09:20Z</time>
      </trkpt>
      <trkpt lat="48.55968" lon="2.05016">
        <ele>124.4</ele>
        <time>2023-12-14T08:09:21Z</time>
      </trkpt>
      <trkpt lat="48.55967" lon="2.0502">
        <ele>124.4</ele>
        <time>2023-12-14T08:09:22Z</time>
      </trkpt>
      <trkpt lat="48.55965" lon="2.05024">
        <ele>124.4</ele>
        <time>2023-12-14T08:09:23Z</time>
      </trkpt>
      <trkpt lat="48.55965" lon="2.05028">
        <ele>124.6</ele>
        <time>2023-12-14T08:09:24Z</time>
      </trkpt>
      <trkpt lat="48.55963" lon="2.05032">
        <ele>124.6</ele>
        <time>2023-12-14T08:09:25Z</time>
      </trkpt>
      <trkpt lat="48.55963" lon="2.05035">
        <ele>124.6</ele>
        <time>2023-12-14T08:09:26Z</time>
      </trkpt>
      <trkpt lat="48.55962" lon="2.05039">
        <ele>125.2</ele>
        <time>2023-12-14T08:09:27Z</time>
      </trkpt>
      <trkpt lat="48.5596" lon="2.05043">
        <ele>125.8</ele>
        <time>2023-12-14T08:09:28Z</time>
      </trkpt>
      <trkpt lat="48.55959" lon="2.05047">
        <ele>125.8</ele>
        <time>2023-12-14T08:09:29Z</time>
      </trkpt>
      <trkpt lat="48.55958" lon="2.05051">
        <ele>125.8</ele>
        <time>2023-12-14T08:09:30Z</time>
      </trkpt>
      <trkpt lat="48.55957" lon="2.05056">
        <ele>125.8</ele>
        <time>2023-12-14T08:09:31Z</time>
      </trkpt>
      <trkpt lat="48.55956" lon="2.0506">
        <ele>126</ele>
        <time>2023-12-14T08:09:32Z</time>
      </trkpt>
      <trkpt lat="48.55955" lon="2.05064">
        <ele>126</ele>
        <time>2023-12-14T08:09:33Z</time>
      </trkpt>
      <trkpt lat="48.55954" lon="2.05069">
        <ele>126</ele>
        <time>2023-12-14T08:09:34Z</time>
      </trkpt>
      <trkpt lat="48.55953" lon="2.05073">
        <ele>126.2</ele>
        <time>2023-12-14T08:09:35Z</time>
      </trkpt>
      <trkpt lat="48.55952" lon="2.05077">
        <ele>126.2</ele>
        <time>2023-12-14T08:09:36Z</time>
      </trkpt>
      <trkpt lat="48.55951" lon="2.05082">
        <ele>126.2</ele>
        <time>2023-12-14T08:09:37Z</time>
      </trkpt>
      <trkpt lat="48.55949" lon="2.05086">
        <ele>126.2</ele>
        <time>2023-12-14T08:09:38Z</time>
      </trkpt>
      <trkpt lat="48.55948" lon="2.0509">
        <ele>126.6</ele>
        <time>2023-12-14T08:09:39Z</time>
      </trkpt>
      <trkpt lat="48.55946" lon="2.05093">
        <ele>126.8</ele>
        <time>2023-12-14T08:09:40Z</time>
      </trkpt>
      <trkpt lat="48.55945" lon="2.05097">
        <ele>126.8</ele>
        <time>2023-12-14T08:09:41Z</time>
      </trkpt>
      <trkpt lat="48.55943" lon="2.05101">
        <ele>126.8</ele>
        <time>2023-12-14T08:09:42Z</time>
      </trkpt>
      <trkpt lat="48.55941" lon="2.05105">
        <ele>127.4</ele>
        <time>2023-12-14T08:09:43Z</time>
      </trkpt>
      <trkpt lat="48.55939" lon="2.0511">
        <ele>127.4</ele>
        <time>2023-12-14T08:09:44Z</time>
      </trkpt>
      <trkpt lat="48.55936" lon="2.05114">
        <ele>127.4</ele>
        <time>2023-12-14T08:09:45Z</time>
      </trkpt>
      <trkpt lat="48.55933" lon="2.05117">
        <ele>127.4</ele>
        <time>2023-12-14T08:09:46Z</time>
      </trkpt>
      <trkpt lat="48.5593" lon="2.05121">
        <ele>127.4</ele>
        <time>2023-12-14T08:09:47Z</time>
      </trkpt>
      <trkpt lat="48.55927" lon="2.05125">
        <ele>128.2</ele>
        <time>2023-12-14T08:09:48Z</time>
      </trkpt>
      <trkpt lat="48.55924" lon="2.0513">
        <ele>128.2</ele>
        <time>2023-12-14T08:09:49Z</time>
      </trkpt>
      <trkpt lat="48.5592" lon="2.05133">
        <ele>128.2</ele>
        <time>2023-12-14T08:09:50Z</time>
      </trkpt>
      <trkpt lat="48.55917" lon="2.05137">
        <ele>128.2</ele>
        <time>2023-12-14T08:09:51Z</time>
      </trkpt>
      <trkpt lat="48.55913" lon="2.05139">
        <ele>128.4</ele>
        <time>2023-12-14T08:09:52Z</time>
      </trkpt>
      <trkpt lat="48.5591" lon="2.05141">
        <ele>128.4</ele>
        <time>2023-12-14T08:09:53Z</time>
      </trkpt>
      <trkpt lat="48.55906" lon="2.05142">
        <ele>128.4</ele>
        <time>2023-12-14T08:09:54Z</time>
      </trkpt>
      <trkpt lat="48.55903" lon="2.05142">
        <ele>129</ele>
        <time>2023-12-14T08:09:55Z</time>
      </trkpt>
      <trkpt lat="48.55899" lon="2.05143">
        <ele>129.4</ele>
        <time>2023-12-14T08:09:56Z</time>
      </trkpt>
      <trkpt lat="48.55896" lon="2.05143">
        <ele>129.4</ele>
        <time>2023-12-14T08:09:57Z</time>
      </trkpt>
      <trkpt lat="48.55892" lon="2.05144">
        <ele>129.4</ele>
        <time>2023-12-14T08:09:58Z</time>
      </trkpt>
      <trkpt lat="48.55888" lon="2.05144">
        <ele>129.8</ele>
        <time>2023-12-14T08:09:59Z</time>
      </trkpt>
      <trkpt lat="48.55885" lon="2.05144">
        <ele>130.2</ele>
        <time>2023-12-14T08:10:00Z</time>
      </trkpt>
      <trkpt lat="48.55882" lon="2.05144">
        <ele>130.2</ele>
        <time>2023-12-14T08:10:01Z</time>
      </trkpt>
      <trkpt lat="48.55878" lon="2.05144">
        <ele>130.2</ele>
        <time>2023-12-14T08:10:02Z</time>
      </trkpt>
      <trkpt lat="48.55875" lon="2.05144">
        <ele>130.2</ele>
        <time>2023-12-14T08:10:03Z</time>
      </trkpt>
      <trkpt lat="48.55871" lon="2.05144">
        <ele>130.4</ele>
        <time>2023-12-14T08:10:04Z</time>
      </trkpt>
      <trkpt lat="48.55868" lon="2.05144">
        <ele>130.4</ele>
        <time>2023-12-14T08:10:05Z</time>
      </trkpt>
      <trkpt lat="48.55864" lon="2.05144">
        <ele>130.4</ele>
        <time>2023-12-14T08:10:06Z</time>
      </trkpt>
      <trkpt lat="48.55861" lon="2.05143">
        <ele>130.4</ele>
        <time>2023-12-14T08:10:07Z</time>
      </trkpt>
      <trkpt lat="48.55857" lon="2.05143">
        <ele>130.8</ele>
        <time>2023-12-14T08:10:08Z</time>
      </trkpt>
      <trkpt lat="48.55854" lon="2.05142">
        <ele>130.8</ele>
        <time>2023-12-14T08:10:09Z</time>
      </trkpt>
      <trkpt lat="48.55851" lon="2.05142">
        <ele>130.8</ele>
        <time>2023-12-14T08:10:10Z</time>
      </trkpt>
      <trkpt lat="48.55847" lon="2.05141">
        <ele>130.8</ele>
        <time>2023-12-14T08:10:11Z</time>
      </trkpt>
      <trkpt lat="48.55844" lon="2.05141">
        <ele>131.6</ele>
        <time>2023-12-14T08:10:12Z</time>
      </trkpt>
      <trkpt lat="48.5584" lon="2.05141">
        <ele>131.6</ele>
        <time>2023-12-14T08:10:13Z</time>
      </trkpt>
      <trkpt lat="48.55837" lon="2.0514">
        <ele>131.6</ele>
        <time>2023-12-14T08:10:14Z</time>
      </trkpt>
      <trkpt lat="48.55833" lon="2.0514">
        <ele>131.6</ele>
        <time>2023-12-14T08:10:15Z</time>
      </trkpt>
      <trkpt lat="48.5583" lon="2.05139">
        <ele>132</ele>
        <time>2023-12-14T08:10:16Z</time>
      </trkpt>
      <trkpt lat="48.55827" lon="2.05139">
        <ele>132</ele>
        <time>2023-12-14T08:10:17Z</time>
      </trkpt>
      <trkpt lat="48.55824" lon="2.05138">
        <ele>132</ele>
        <time>2023-12-14T08:10:18Z</time>
      </trkpt>
      <trkpt lat="48.5582" lon="2.05138">
        <ele>132.2</ele>
        <time>2023-12-14T08:10:19Z</time>
      </trkpt>
      <trkpt lat="48.55817" lon="2.05138">
        <ele>132.2</ele>
        <time>2023-12-14T08:10:20Z</time>
      </trkpt>
      <trkpt lat="48.55814" lon="2.05137">
        <ele>132.2</ele>
        <time>2023-12-14T08:10:21Z</time>
      </trkpt>
      <trkpt lat="48.55811" lon="2.05137">
        <ele>132.2</ele>
        <time>2023-12-14T08:10:22Z</time>
      </trkpt>
      <trkpt lat="48.55808" lon="2.05137">
        <ele>133.2</ele>
        <time>2023-12-14T08:10:23Z</time>
      </trkpt>
      <trkpt lat="48.55805" lon="2.05136">
        <ele>133.4</ele>
        <time>2023-12-14T08:10:24Z</time>
      </trkpt>
      <trkpt lat="48.55802" lon="2.05136">
        <ele>133.4</ele>
        <time>2023-12-14T08:10:25Z</time>
      </trkpt>
      <trkpt lat="48.55798" lon="2.05135">
        <ele>133.4</ele>
        <time>2023-12-14T08:10:26Z</time>
      </trkpt>
      <trkpt lat="48.55795" lon="2.05135">
        <ele>133.4</ele>
        <time>2023-12-14T08:10:27Z</time>
      </trkpt>
      <trkpt lat="48.55792" lon="2.05134">
        <ele>133.6</ele>
        <time>2023-12-14T08:10:28Z</time>
      </trkpt>
      <trkpt lat="48.55789" lon="2.05134">
        <ele>133.6</ele>
        <time>2023-12-14T08:10:29Z</time>
      </trkpt>
      <trkpt lat="48.55785" lon="2.05133">
        <ele>133.6</ele>
        <time>2023-12-14T08:10:30Z</time>
      </trkpt>
      <trkpt lat="48.55782" lon="2.05133">
        <ele>134.2</ele>
        <time>2023-12-14T08:10:31Z</time>
      </trkpt>
      <trkpt lat="48.55779" lon="2.05132">
        <ele>134.2</ele>
        <time>2023-12-14T08:10:32Z</time>
      </trkpt>
      <trkpt lat="48.55776" lon="2.05131">
        <ele>134.2</ele>
        <time>2023-12-14T08:10:33Z</time>
      </trkpt>
      <trkpt lat="48.55772" lon="2.05131">
        <ele>134.2</ele>
        <time>2023-12-14T08:10:34Z</time>
      </trkpt>
      <trkpt lat="48.5577" lon="2.0513">
        <ele>134.8</ele>
        <time>2023-12-14T08:10:35Z</time>
      </trkpt>
      <trkpt lat="48.55766" lon="2.05129">
        <ele>135</ele>
        <time>2023-12-14T08:10:36Z</time>
      </trkpt>
      <trkpt lat="48.55764" lon="2.05128">
        <ele>135</ele>
        <time>2023-12-14T08:10:37Z</time>
      </trkpt>
      <trkpt lat="48.55761" lon="2.05127">
        <ele>135</ele>
        <time>2023-12-14T08:10:38Z</time>
      </trkpt>
      <trkpt lat="48.55758" lon="2.05126">
        <ele>135</ele>
        <time>2023-12-14T08:10:39Z</time>
      </trkpt>
      <trkpt lat="48.55755" lon="2.05125">
        <ele>135.8</ele>
        <time>2023-12-14T08:10:40Z</time>
      </trkpt>
      <trkpt lat="48.55752" lon="2.05124">
        <ele>135.8</ele>
        <time>2023-12-14T08:10:41Z</time>
      </trkpt>
      <trkpt lat="48.55749" lon="2.05124">
        <ele>135.8</ele>
        <time>2023-12-14T08:10:42Z</time>
      </trkpt>
      <trkpt lat="48.55746" lon="2.05124">
        <ele>135.8</ele>
        <time>2023-12-14T08:10:43Z</time>
      </trkpt>
      <trkpt lat="48.55743" lon="2.05123">
        <ele>136.2</ele>
        <time>2023-12-14T08:10:44Z</time>
      </trkpt>
      <trkpt lat="48.5574" lon="2.05123">
        <ele>136.2</ele>
        <time>2023-12-14T08:10:45Z</time>
      </trkpt>
      <trkpt lat="48.55737" lon="2.05122">
        <ele>136.2</ele>
        <time>2023-12-14T08:10:46Z</time>
      </trkpt>
      <trkpt lat="48.55733" lon="2.05122">
        <ele>136.2</ele>
        <time>2023-12-14T08:10:47Z</time>
      </trkpt>
      <trkpt lat="48.5573" lon="2.05122">
        <ele>137.2</ele>
        <time>2023-12-14T08:10:48Z</time>
      </trkpt>
      <trkpt lat="48.55726" lon="2.05122">
        <ele>137.2</ele>
        <time>2023-12-14T08:10:49Z</time>
      </trkpt>
      <trkpt lat="48.55723" lon="2.05121">
        <ele>137.2</ele>
        <time>2023-12-14T08:10:50Z</time>
      </trkpt>
      <trkpt lat="48.5572" lon="2.05121">
        <ele>137.2</ele>
        <time>2023-12-14T08:10:51Z</time>
      </trkpt>
      <trkpt lat="48.55716" lon="2.05121">
        <ele>137.6</ele>
        <time>2023-12-14T08:10:52Z</time>
      </trkpt>
      <trkpt lat="48.55713" lon="2.0512">
        <ele>137.6</ele>
        <time>2023-12-14T08:10:53Z</time>
      </trkpt>
      <trkpt lat="48.5571" lon="2.0512">
        <ele>137.6</ele>
        <time>2023-12-14T08:10:54Z</time>
      </trkpt>
      <trkpt lat="48.55707" lon="2.05119">
        <ele>137.6</ele>
        <time>2023-12-14T08:10:55Z</time>
      </trkpt>
      <trkpt lat="48.55704" lon="2.05119">
        <ele>138.4</ele>
        <time>2023-12-14T08:10:56Z</time>
      </trkpt>
      <trkpt lat="48.55701" lon="2.05118">
        <ele>138.4</ele>
        <time>2023-12-14T08:10:57Z</time>
      </trkpt>
      <trkpt lat="48.55698" lon="2.05118">
        <ele>138.4</ele>
        <time>2023-12-14T08:10:58Z</time>
      </trkpt>
      <trkpt lat="48.55694" lon="2.05118">
        <ele>138.4</ele>
        <time>2023-12-14T08:10:59Z</time>
      </trkpt>
      <trkpt lat="48.55691" lon="2.05118">
        <ele>139.2</ele>
        <time>2023-12-14T08:11:00Z</time>
      </trkpt>
      <trkpt lat="48.55688" lon="2.05118">
        <ele>139.2</ele>
        <time>2023-12-14T08:11:01Z</time>
      </trkpt>
      <trkpt lat="48.55685" lon="2.05117">
        <ele>139.2</ele>
        <time>2023-12-14T08:11:02Z</time>
      </trkpt>
      <trkpt lat="48.55681" lon="2.05117">
        <ele>139.2</ele>
        <time>2023-12-14T08:11:03Z</time>
      </trkpt>
      <trkpt lat="48.55678" lon="2.05117">
        <ele>139.6</ele>
        <time>2023-12-14T08:11:04Z</time>
      </trkpt>
      <trkpt lat="48.55674" lon="2.05117">
        <ele>139.6</ele>
        <time>2023-12-14T08:11:05Z</time>
      </trkpt>
      <trkpt lat="48.55671" lon="2.05116">
        <ele>139.6</ele>
        <time>2023-12-14T08:11:06Z</time>
      </trkpt>
      <trkpt lat="48.55667" lon="2.05116">
        <ele>140.2</ele>
        <time>2023-12-14T08:11:07Z</time>
      </trkpt>
      <trkpt lat="48.55664" lon="2.05115">
        <ele>140.4</ele>
        <time>2023-12-14T08:11:08Z</time>
      </trkpt>
      <trkpt lat="48.55661" lon="2.05116">
        <ele>140.4</ele>
        <time>2023-12-14T08:11:09Z</time>
      </trkpt>
      <trkpt lat="48.55657" lon="2.05115">
        <ele>140.4</ele>
        <time>2023-12-14T08:11:10Z</time>
      </trkpt>
      <trkpt lat="48.55654" lon="2.05115">
        <ele>141.2</ele>
        <time>2023-12-14T08:11:11Z</time>
      </trkpt>
      <trkpt lat="48.55651" lon="2.05115">
        <ele>141.2</ele>
        <time>2023-12-14T08:11:12Z</time>
      </trkpt>
      <trkpt lat="48.55648" lon="2.05114">
        <ele>141.2</ele>
        <time>2023-12-14T08:11:13Z</time>
      </trkpt>
      <trkpt lat="48.55645" lon="2.05114">
        <ele>141.2</ele>
        <time>2023-12-14T08:11:14Z</time>
      </trkpt>
      <trkpt lat="48.55642" lon="2.05115">
        <ele>142</ele>
        <time>2023-12-14T08:11:15Z</time>
      </trkpt>
      <trkpt lat="48.55639" lon="2.05115">
        <ele>142</ele>
        <time>2023-12-14T08:11:16Z</time>
      </trkpt>
      <trkpt lat="48.55636" lon="2.05115">
        <ele>142</ele>
        <time>2023-12-14T08:11:17Z</time>
      </trkpt>
      <trkpt lat="48.55633" lon="2.05115">
        <ele>142</ele>
        <time>2023-12-14T08:11:18Z</time>
      </trkpt>
      <trkpt lat="48.5563" lon="2.05116">
        <ele>143</ele>
        <time>2023-12-14T08:11:19Z</time>
      </trkpt>
      <trkpt lat="48.55627" lon="2.05117">
        <ele>143.2</ele>
        <time>2023-12-14T08:11:20Z</time>
      </trkpt>
      <trkpt lat="48.55625" lon="2.05118">
        <ele>143.2</ele>
        <time>2023-12-14T08:11:21Z</time>
      </trkpt>
      <trkpt lat="48.55623" lon="2.05119">
        <ele>143.2</ele>
        <time>2023-12-14T08:11:22Z</time>
      </trkpt>
      <trkpt lat="48.55621" lon="2.05121">
        <ele>143.2</ele>
        <time>2023-12-14T08:11:23Z</time>
      </trkpt>
      <trkpt lat="48.55618" lon="2.05122">
        <ele>144</ele>
        <time>2023-12-14T08:11:24Z</time>
      </trkpt>
      <trkpt lat="48.55616" lon="2.05123">
        <ele>144</ele>
        <time>2023-12-14T08:11:25Z</time>
      </trkpt>
      <trkpt lat="48.55614" lon="2.05125">
        <ele>144</ele>
        <time>2023-12-14T08:11:26Z</time>
      </trkpt>
      <trkpt lat="48.55612" lon="2.05126">
        <ele>144</ele>
        <time>2023-12-14T08:11:27Z</time>
      </trkpt>
      <trkpt lat="48.5561" lon="2.05128">
        <ele>145</ele>
        <time>2023-12-14T08:11:28Z</time>
      </trkpt>
      <trkpt lat="48.55608" lon="2.05129">
        <ele>145</ele>
        <time>2023-12-14T08:11:29Z</time>
      </trkpt>
      <trkpt lat="48.55606" lon="2.05129">
        <ele>145</ele>
        <time>2023-12-14T08:11:30Z</time>
      </trkpt>
      <trkpt lat="48.55603" lon="2.05132">
        <ele>145</ele>
        <time>2023-12-14T08:11:31Z</time>
      </trkpt>
      <trkpt lat="48.55602" lon="2.05133">
        <ele>145.6</ele>
        <time>2023-12-14T08:11:32Z</time>
      </trkpt>
      <trkpt lat="48.556" lon="2.05134">
        <ele>145.6</ele>
        <time>2023-12-14T08:11:33Z</time>
      </trkpt>
      <trkpt lat="48.55598" lon="2.05135">
        <ele>145.6</ele>
        <time>2023-12-14T08:11:34Z</time>
      </trkpt>
      <trkpt lat="48.55597" lon="2.05136">
        <ele>146</ele>
        <time>2023-12-14T08:11:35Z</time>
      </trkpt>
      <trkpt lat="48.55595" lon="2.05137">
        <ele>146.2</ele>
        <time>2023-12-14T08:11:36Z</time>
      </trkpt>
      <trkpt lat="48.55593" lon="2.05139">
        <ele>146.2</ele>
        <time>2023-12-14T08:11:37Z</time>
      </trkpt>
      <trkpt lat="48.55591" lon="2.05139">
        <ele>146.2</ele>
        <time>2023-12-14T08:11:38Z</time>
      </trkpt>
      <trkpt lat="48.55589" lon="2.05141">
        <ele>147</ele>
        <time>2023-12-14T08:11:39Z</time>
      </trkpt>
      <trkpt lat="48.55586" lon="2.05143">
        <ele>147</ele>
        <time>2023-12-14T08:11:40Z</time>
      </trkpt>
      <trkpt lat="48.55584" lon="2.05145">
        <ele>147</ele>
        <time>2023-12-14T08:11:41Z</time>
      </trkpt>
      <trkpt lat="48.55581" lon="2.05145">
        <ele>147</ele>
        <time>2023-12-14T08:11:42Z</time>
      </trkpt>
      <trkpt lat="48.55578" lon="2.05147">
        <ele>147</ele>
        <time>2023-12-14T08:11:43Z</time>
      </trkpt>
      <trkpt lat="48.55575" lon="2.05149">
        <ele>148</ele>
        <time>2023-12-14T08:11:44Z</time>
      </trkpt>
      <trkpt lat="48.55573" lon="2.05149">
        <ele>148</ele>
        <time>2023-12-14T08:11:45Z</time>
      </trkpt>
      <trkpt lat="48.5557" lon="2.05152">
        <ele>148</ele>
        <time>2023-12-14T08:11:46Z</time>
      </trkpt>
      <trkpt lat="48.55567" lon="2.05153">
        <ele>148</ele>
        <time>2023-12-14T08:11:47Z</time>
      </trkpt>
      <trkpt lat="48.55564" lon="2.05155">
        <ele>148.6</ele>
        <time>2023-12-14T08:11:48Z</time>
      </trkpt>
      <trkpt lat="48.55562" lon="2.05157">
        <ele>148.6</ele>
        <time>2023-12-14T08:11:49Z</time>
      </trkpt>
      <trkpt lat="48.55559" lon="2.05159">
        <ele>148.6</ele>
        <time>2023-12-14T08:11:50Z</time>
      </trkpt>
      <trkpt lat="48.55557" lon="2.05163">
        <ele>149.2</ele>
        <time>2023-12-14T08:11:51Z</time>
      </trkpt>
      <trkpt lat="48.55554" lon="2.05166">
        <ele>149.2</ele>
        <time>2023-12-14T08:11:52Z</time>
      </trkpt>
      <trkpt lat="48.55551" lon="2.05169">
        <ele>149.2</ele>
        <time>2023-12-14T08:11:53Z</time>
      </trkpt>
      <trkpt lat="48.5555" lon="2.05171">
        <ele>149.2</ele>
        <time>2023-12-14T08:11:54Z</time>
      </trkpt>
      <trkpt lat="48.55547" lon="2.05173">
        <ele>149.6</ele>
        <time>2023-12-14T08:11:55Z</time>
      </trkpt>
      <trkpt lat="48.55546" lon="2.05176">
        <ele>150</ele>
        <time>2023-12-14T08:11:56Z</time>
      </trkpt>
      <trkpt lat="48.55544" lon="2.05178">
        <ele>150</ele>
        <time>2023-12-14T08:11:57Z</time>
      </trkpt>
      <trkpt lat="48.55542" lon="2.05183">
        <ele>150</ele>
        <time>2023-12-14T08:11:58Z</time>
      </trkpt>
      <trkpt lat="48.5554" lon="2.05187">
        <ele>150</ele>
        <time>2023-12-14T08:11:59Z</time>
      </trkpt>
      <trkpt lat="48.55537" lon="2.0519">
        <ele>151</ele>
        <time>2023-12-14T08:12:00Z</time>
      </trkpt>
      <trkpt lat="48.55535" lon="2.05193">
        <ele>151</ele>
        <time>2023-12-14T08:12:01Z</time>
      </trkpt>
      <trkpt lat="48.55533" lon="2.05196">
        <ele>151</ele>
        <time>2023-12-14T08:12:02Z</time>
      </trkpt>
      <trkpt lat="48.55532" lon="2.05199">
        <ele>151.6</ele>
        <time>2023-12-14T08:12:03Z</time>
      </trkpt>
      <trkpt lat="48.5553" lon="2.05201">
        <ele>151.8</ele>
        <time>2023-12-14T08:12:04Z</time>
      </trkpt>
      <trkpt lat="48.55529" lon="2.05205">
        <ele>151.8</ele>
        <time>2023-12-14T08:12:05Z</time>
      </trkpt>
      <trkpt lat="48.55527" lon="2.05208">
        <ele>151.8</ele>
        <time>2023-12-14T08:12:06Z</time>
      </trkpt>
      <trkpt lat="48.55526" lon="2.05212">
        <ele>152.4</ele>
        <time>2023-12-14T08:12:07Z</time>
      </trkpt>
      <trkpt lat="48.55523" lon="2.05215">
        <ele>152.4</ele>
        <time>2023-12-14T08:12:08Z</time>
      </trkpt>
      <trkpt lat="48.55522" lon="2.05219">
        <ele>152.4</ele>
        <time>2023-12-14T08:12:09Z</time>
      </trkpt>
      <trkpt lat="48.5552" lon="2.05222">
        <ele>152.4</ele>
        <time>2023-12-14T08:12:10Z</time>
      </trkpt>
      <trkpt lat="48.55518" lon="2.05225">
        <ele>152.8</ele>
        <time>2023-12-14T08:12:11Z</time>
      </trkpt>
      <trkpt lat="48.55516" lon="2.05228">
        <ele>153.2</ele>
        <time>2023-12-14T08:12:12Z</time>
      </trkpt>
      <trkpt lat="48.55514" lon="2.05231">
        <ele>153.2</ele>
        <time>2023-12-14T08:12:13Z</time>
      </trkpt>
      <trkpt lat="48.55513" lon="2.05233">
        <ele>153.2</ele>
        <time>2023-12-14T08:12:14Z</time>
      </trkpt>
      <trkpt lat="48.55511" lon="2.05236">
        <ele>153.2</ele>
        <time>2023-12-14T08:12:15Z</time>
      </trkpt>
      <trkpt lat="48.5551" lon="2.05239">
        <ele>153.8</ele>
        <time>2023-12-14T08:12:16Z</time>
      </trkpt>
      <trkpt lat="48.55508" lon="2.05243">
        <ele>153.8</ele>
        <time>2023-12-14T08:12:17Z</time>
      </trkpt>
      <trkpt lat="48.55506" lon="2.05247">
        <ele>153.8</ele>
        <time>2023-12-14T08:12:18Z</time>
      </trkpt>
      <trkpt lat="48.55505" lon="2.0525">
        <ele>154.2</ele>
        <time>2023-12-14T08:12:19Z</time>
      </trkpt>
      <trkpt lat="48.55504" lon="2.05255">
        <ele>154.8</ele>
        <time>2023-12-14T08:12:20Z</time>
      </trkpt>
      <trkpt lat="48.55502" lon="2.05258">
        <ele>154.8</ele>
        <time>2023-12-14T08:12:21Z</time>
      </trkpt>
      <trkpt lat="48.55501" lon="2.05262">
        <ele>154.8</ele>
        <time>2023-12-14T08:12:22Z</time>
      </trkpt>
      <trkpt lat="48.55499" lon="2.05266">
        <ele>154.8</ele>
        <time>2023-12-14T08:12:23Z</time>
      </trkpt>
      <trkpt lat="48.55498" lon="2.0527">
        <ele>155.2</ele>
        <time>2023-12-14T08:12:24Z</time>
      </trkpt>
      <trkpt lat="48.55496" lon="2.05276">
        <ele>155.2</ele>
        <time>2023-12-14T08:12:25Z</time>
      </trkpt>
      <trkpt lat="48.55494" lon="2.05281">
        <ele>155.2</ele>
        <time>2023-12-14T08:12:26Z</time>
      </trkpt>
      <trkpt lat="48.55493" lon="2.05285">
        <ele>155.2</ele>
        <time>2023-12-14T08:12:27Z</time>
      </trkpt>
      <trkpt lat="48.55491" lon="2.05289">
        <ele>156.2</ele>
        <time>2023-12-14T08:12:28Z</time>
      </trkpt>
      <trkpt lat="48.55489" lon="2.05294">
        <ele>156.2</ele>
        <time>2023-12-14T08:12:29Z</time>
      </trkpt>
      <trkpt lat="48.55489" lon="2.05298">
        <ele>156.2</ele>
        <time>2023-12-14T08:12:30Z</time>
      </trkpt>
      <trkpt lat="48.55487" lon="2.05303">
        <ele>156.2</ele>
        <time>2023-12-14T08:12:31Z</time>
      </trkpt>
      <trkpt lat="48.55486" lon="2.05306">
        <ele>156.8</ele>
        <time>2023-12-14T08:12:32Z</time>
      </trkpt>
      <trkpt lat="48.55484" lon="2.0531">
        <ele>156.8</ele>
        <time>2023-12-14T08:12:33Z</time>
      </trkpt>
      <trkpt lat="48.55483" lon="2.05314">
        <ele>156.8</ele>
        <time>2023-12-14T08:12:34Z</time>
      </trkpt>
      <trkpt lat="48.55482" lon="2.05319">
        <ele>157.2</ele>
        <time>2023-12-14T08:12:35Z</time>
      </trkpt>
      <trkpt lat="48.55482" lon="2.05322">
        <ele>157.6</ele>
        <time>2023-12-14T08:12:36Z</time>
      </trkpt>
      <trkpt lat="48.55481" lon="2.05327">
        <ele>157.6</ele>
        <time>2023-12-14T08:12:37Z</time>
      </trkpt>
      <trkpt lat="48.55479" lon="2.05332">
        <ele>157.6</ele>
        <time>2023-12-14T08:12:38Z</time>
      </trkpt>
      <trkpt lat="48.55478" lon="2.05336">
        <ele>158</ele>
        <time>2023-12-14T08:12:39Z</time>
      </trkpt>
      <trkpt lat="48.55476" lon="2.05342">
        <ele>158</ele>
        <time>2023-12-14T08:12:40Z</time>
      </trkpt>
      <trkpt lat="48.55475" lon="2.05346">
        <ele>158</ele>
        <time>2023-12-14T08:12:41Z</time>
      </trkpt>
      <trkpt lat="48.55473" lon="2.05351">
        <ele>158</ele>
        <time>2023-12-14T08:12:42Z</time>
      </trkpt>
      <trkpt lat="48.55472" lon="2.05356">
        <ele>158.8</ele>
        <time>2023-12-14T08:12:43Z</time>
      </trkpt>
      <trkpt lat="48.5547" lon="2.05361">
        <ele>159.2</ele>
        <time>2023-12-14T08:12:44Z</time>
      </trkpt>
      <trkpt lat="48.55468" lon="2.05367">
        <ele>159.2</ele>
        <time>2023-12-14T08:12:45Z</time>
      </trkpt>
      <trkpt lat="48.55466" lon="2.05372">
        <ele>159.2</ele>
        <time>2023-12-14T08:12:46Z</time>
      </trkpt>
      <trkpt lat="48.55464" lon="2.05378">
        <ele>159.2</ele>
        <time>2023-12-14T08:12:47Z</time>
      </trkpt>
      <trkpt lat="48.55462" lon="2.05383">
        <ele>159.6</ele>
        <time>2023-12-14T08:12:48Z</time>
      </trkpt>
      <trkpt lat="48.55459" lon="2.05388">
        <ele>159.6</ele>
        <time>2023-12-14T08:12:49Z</time>
      </trkpt>
      <trkpt lat="48.55457" lon="2.05393">
        <ele>159.6</ele>
        <time>2023-12-14T08:12:50Z</time>
      </trkpt>
      <trkpt lat="48.55454" lon="2.05398">
        <ele>160.6</ele>
        <time>2023-12-14T08:12:51Z</time>
      </trkpt>
      <trkpt lat="48.55451" lon="2.05403">
        <ele>160.6</ele>
        <time>2023-12-14T08:12:52Z</time>
      </trkpt>
      <trkpt lat="48.55449" lon="2.05407">
        <ele>160.6</ele>
        <time>2023-12-14T08:12:53Z</time>
      </trkpt>
      <trkpt lat="48.55446" lon="2.0541">
        <ele>160.6</ele>
        <time>2023-12-14T08:12:54Z</time>
      </trkpt>
      <trkpt lat="48.55443" lon="2.05414">
        <ele>160.6</ele>
        <time>2023-12-14T08:12:55Z</time>
      </trkpt>
      <trkpt lat="48.5544" lon="2.05418">
        <ele>161.2</ele>
        <time>2023-12-14T08:12:56Z</time>
      </trkpt>
      <trkpt lat="48.55436" lon="2.05421">
        <ele>161.2</ele>
        <time>2023-12-14T08:12:57Z</time>
      </trkpt>
      <trkpt lat="48.55433" lon="2.05423">
        <ele>161.2</ele>
        <time>2023-12-14T08:12:58Z</time>
      </trkpt>
      <trkpt lat="48.5543" lon="2.05426">
        <ele>161.6</ele>
        <time>2023-12-14T08:12:59Z</time>
      </trkpt>
      <trkpt lat="48.55426" lon="2.05428">
        <ele>162</ele>
        <time>2023-12-14T08:13:00Z</time>
      </trkpt>
      <trkpt lat="48.55423" lon="2.0543">
        <ele>162</ele>
        <time>2023-12-14T08:13:01Z</time>
      </trkpt>
      <trkpt lat="48.5542" lon="2.05431">
        <ele>162</ele>
        <time>2023-12-14T08:13:02Z</time>
      </trkpt>
      <trkpt lat="48.55416" lon="2.05433">
        <ele>162</ele>
        <time>2023-12-14T08:13:03Z</time>
      </trkpt>
      <trkpt lat="48.55413" lon="2.05434">
        <ele>162.6</ele>
        <time>2023-12-14T08:13:04Z</time>
      </trkpt>
      <trkpt lat="48.55409" lon="2.05434">
        <ele>162.6</ele>
        <time>2023-12-14T08:13:05Z</time>
      </trkpt>
      <trkpt lat="48.55406" lon="2.05434">
        <ele>162.6</ele>
        <time>2023-12-14T08:13:06Z</time>
      </trkpt>
      <trkpt lat="48.55403" lon="2.05434">
        <ele>162.6</ele>
        <time>2023-12-14T08:13:07Z</time>
      </trkpt>
      <trkpt lat="48.554" lon="2.05433">
        <ele>163.4</ele>
        <time>2023-12-14T08:13:08Z</time>
      </trkpt>
      <trkpt lat="48.55396" lon="2.05433">
        <ele>163.4</ele>
        <time>2023-12-14T08:13:09Z</time>
      </trkpt>
      <trkpt lat="48.55393" lon="2.05432">
        <ele>163.4</ele>
        <time>2023-12-14T08:13:10Z</time>
      </trkpt>
      <trkpt lat="48.5539" lon="2.0543">
        <ele>163.6</ele>
        <time>2023-12-14T08:13:11Z</time>
      </trkpt>
      <trkpt lat="48.55387" lon="2.05429">
        <ele>164</ele>
        <time>2023-12-14T08:13:12Z</time>
      </trkpt>
      <trkpt lat="48.55384" lon="2.05427">
        <ele>164</ele>
        <time>2023-12-14T08:13:13Z</time>
      </trkpt>
      <trkpt lat="48.55381" lon="2.05425">
        <ele>164</ele>
        <time>2023-12-14T08:13:14Z</time>
      </trkpt>
      <trkpt lat="48.55378" lon="2.05423">
        <ele>164</ele>
        <time>2023-12-14T08:13:15Z</time>
      </trkpt>
      <trkpt lat="48.55375" lon="2.05421">
        <ele>165</ele>
        <time>2023-12-14T08:13:16Z</time>
      </trkpt>
      <trkpt lat="48.55372" lon="2.05419">
        <ele>165</ele>
        <time>2023-12-14T08:13:17Z</time>
      </trkpt>
      <trkpt lat="48.5537" lon="2.05416">
        <ele>165</ele>
        <time>2023-12-14T08:13:18Z</time>
      </trkpt>
      <trkpt lat="48.55367" lon="2.05413">
        <ele>165</ele>
        <time>2023-12-14T08:13:19Z</time>
      </trkpt>
      <trkpt lat="48.55364" lon="2.05411">
        <ele>165.4</ele>
        <time>2023-12-14T08:13:20Z</time>
      </trkpt>
      <trkpt lat="48.5536" lon="2.05408">
        <ele>165.4</ele>
        <time>2023-12-14T08:13:21Z</time>
      </trkpt>
      <trkpt lat="48.55357" lon="2.05406">
        <ele>165.4</ele>
        <time>2023-12-14T08:13:22Z</time>
      </trkpt>
      <trkpt lat="48.55354" lon="2.05403">
        <ele>165.4</ele>
        <time>2023-12-14T08:13:23Z</time>
      </trkpt>
      <trkpt lat="48.55351" lon="2.054">
        <ele>165.8</ele>
        <time>2023-12-14T08:13:24Z</time>
      </trkpt>
      <trkpt lat="48.55348" lon="2.05397">
        <ele>165.8</ele>
        <time>2023-12-14T08:13:25Z</time>
      </trkpt>
      <trkpt lat="48.55345" lon="2.05395">
        <ele>165.8</ele>
        <time>2023-12-14T08:13:26Z</time>
      </trkpt>
      <trkpt lat="48.55342" lon="2.05392">
        <ele>165.8</ele>
        <time>2023-12-14T08:13:27Z</time>
      </trkpt>
      <trkpt lat="48.55339" lon="2.0539">
        <ele>165.6</ele>
        <time>2023-12-14T08:13:28Z</time>
      </trkpt>
      <trkpt lat="48.55336" lon="2.05387">
        <ele>165.6</ele>
        <time>2023-12-14T08:13:29Z</time>
      </trkpt>
      <trkpt lat="48.55333" lon="2.05384">
        <ele>165.6</ele>
        <time>2023-12-14T08:13:30Z</time>
      </trkpt>
      <trkpt lat="48.5533" lon="2.05382">
        <ele>166</ele>
        <time>2023-12-14T08:13:31Z</time>
      </trkpt>
      <trkpt lat="48.55327" lon="2.05379">
        <ele>167</ele>
        <time>2023-12-14T08:13:32Z</time>
      </trkpt>
      <trkpt lat="48.55324" lon="2.05377">
        <ele>167</ele>
        <time>2023-12-14T08:13:33Z</time>
      </trkpt>
      <trkpt lat="48.55321" lon="2.05374">
        <ele>167</ele>
        <time>2023-12-14T08:13:34Z</time>
      </trkpt>
      <trkpt lat="48.55318" lon="2.05371">
        <ele>167</ele>
        <time>2023-12-14T08:13:35Z</time>
      </trkpt>
      <trkpt lat="48.55315" lon="2.05369">
        <ele>167.2</ele>
        <time>2023-12-14T08:13:36Z</time>
      </trkpt>
      <trkpt lat="48.55311" lon="2.05367">
        <ele>167.2</ele>
        <time>2023-12-14T08:13:37Z</time>
      </trkpt>
      <trkpt lat="48.55308" lon="2.05365">
        <ele>167.2</ele>
        <time>2023-12-14T08:13:38Z</time>
      </trkpt>
      <trkpt lat="48.55304" lon="2.05362">
        <ele>167.2</ele>
        <time>2023-12-14T08:13:39Z</time>
      </trkpt>
      <trkpt lat="48.55301" lon="2.05359">
        <ele>168.2</ele>
        <time>2023-12-14T08:13:40Z</time>
      </trkpt>
      <trkpt lat="48.55298" lon="2.05356">
        <ele>168.2</ele>
        <time>2023-12-14T08:13:41Z</time>
      </trkpt>
      <trkpt lat="48.55294" lon="2.05354">
        <ele>168.2</ele>
        <time>2023-12-14T08:13:42Z</time>
      </trkpt>
      <trkpt lat="48.55291" lon="2.05351">
        <ele>168.2</ele>
        <time>2023-12-14T08:13:43Z</time>
      </trkpt>
      <trkpt lat="48.55288" lon="2.05347">
        <ele>168.4</ele>
        <time>2023-12-14T08:13:44Z</time>
      </trkpt>
      <trkpt lat="48.55285" lon="2.05344">
        <ele>168.4</ele>
        <time>2023-12-14T08:13:45Z</time>
      </trkpt>
      <trkpt lat="48.55281" lon="2.05341">
        <ele>168.4</ele>
        <time>2023-12-14T08:13:46Z</time>
      </trkpt>
      <trkpt lat="48.55278" lon="2.05338">
        <ele>168.4</ele>
        <time>2023-12-14T08:13:47Z</time>
      </trkpt>
      <trkpt lat="48.55275" lon="2.05335">
        <ele>168.6</ele>
        <time>2023-12-14T08:13:48Z</time>
      </trkpt>
      <trkpt lat="48.55271" lon="2.05332">
        <ele>168.6</ele>
        <time>2023-12-14T08:13:49Z</time>
      </trkpt>
      <trkpt lat="48.55268" lon="2.05329">
        <ele>168.6</ele>
        <time>2023-12-14T08:13:50Z</time>
      </trkpt>
      <trkpt lat="48.55265" lon="2.05326">
        <ele>168.8</ele>
        <time>2023-12-14T08:13:51Z</time>
      </trkpt>
      <trkpt lat="48.55261" lon="2.05323">
        <ele>168.6</ele>
        <time>2023-12-14T08:13:52Z</time>
      </trkpt>
      <trkpt lat="48.55258" lon="2.05319">
        <ele>168.6</ele>
        <time>2023-12-14T08:13:53Z</time>
      </trkpt>
      <trkpt lat="48.55254" lon="2.05316">
        <ele>168.6</ele>
        <time>2023-12-14T08:13:54Z</time>
      </trkpt>
      <trkpt lat="48.55251" lon="2.05313">
        <ele>168.6</ele>
        <time>2023-12-14T08:13:55Z</time>
      </trkpt>
      <trkpt lat="48.55247" lon="2.05309">
        <ele>169.2</ele>
        <time>2023-12-14T08:13:56Z</time>
      </trkpt>
      <trkpt lat="48.55244" lon="2.05306">
        <ele>169.2</ele>
        <time>2023-12-14T08:13:57Z</time>
      </trkpt>
      <trkpt lat="48.5524" lon="2.05302">
        <ele>169.2</ele>
        <time>2023-12-14T08:13:58Z</time>
      </trkpt>
      <trkpt lat="48.55236" lon="2.05299">
        <ele>169.2</ele>
        <time>2023-12-14T08:13:59Z</time>
      </trkpt>
      <trkpt lat="48.55233" lon="2.05296">
        <ele>169.6</ele>
        <time>2023-12-14T08:14:00Z</time>
      </trkpt>
      <trkpt lat="48.55229" lon="2.05292">
        <ele>169.6</ele>
        <time>2023-12-14T08:14:01Z</time>
      </trkpt>
      <trkpt lat="48.55226" lon="2.05289">
        <ele>169.6</ele>
        <time>2023-12-14T08:14:02Z</time>
      </trkpt>
      <trkpt lat="48.55222" lon="2.05285">
        <ele>169.6</ele>
        <time>2023-12-14T08:14:03Z</time>
      </trkpt>
      <trkpt lat="48.55219" lon="2.05282">
        <ele>169.8</ele>
        <time>2023-12-14T08:14:04Z</time>
      </trkpt>
      <trkpt lat="48.55215" lon="2.05278">
        <ele>169.8</ele>
        <time>2023-12-14T08:14:05Z</time>
      </trkpt>
      <trkpt lat="48.55212" lon="2.05275">
        <ele>169.8</ele>
        <time>2023-12-14T08:14:06Z</time>
      </trkpt>
      <trkpt lat="48.55208" lon="2.05271">
        <ele>169.8</ele>
        <time>2023-12-14T08:14:07Z</time>
      </trkpt>
      <trkpt lat="48.55204" lon="2.05268">
        <ele>169.8</ele>
        <time>2023-12-14T08:14:08Z</time>
      </trkpt>
      <trkpt lat="48.55201" lon="2.05264">
        <ele>169.8</ele>
        <time>2023-12-14T08:14:09Z</time>
      </trkpt>
      <trkpt lat="48.55197" lon="2.05261">
        <ele>169.8</ele>
        <time>2023-12-14T08:14:10Z</time>
      </trkpt>
      <trkpt lat="48.55193" lon="2.05257">
        <ele>170.2</ele>
        <time>2023-12-14T08:14:11Z</time>
      </trkpt>
      <trkpt lat="48.5519" lon="2.05253">
        <ele>170.2</ele>
        <time>2023-12-14T08:14:12Z</time>
      </trkpt>
      <trkpt lat="48.55186" lon="2.0525">
        <ele>170.2</ele>
        <time>2023-12-14T08:14:13Z</time>
      </trkpt>
      <trkpt lat="48.55182" lon="2.05246">
        <ele>170.2</ele>
        <time>2023-12-14T08:14:14Z</time>
      </trkpt>
      <trkpt lat="48.55178" lon="2.05243">
        <ele>170.8</ele>
        <time>2023-12-14T08:14:15Z</time>
      </trkpt>
      <trkpt lat="48.55174" lon="2.05239">
        <ele>171</ele>
        <time>2023-12-14T08:14:16Z</time>
      </trkpt>
      <trkpt lat="48.55171" lon="2.05235">
        <ele>171</ele>
        <time>2023-12-14T08:14:17Z</time>
      </trkpt>
      <trkpt lat="48.55167" lon="2.05231">
        <ele>171</ele>
        <time>2023-12-14T08:14:18Z</time>
      </trkpt>
      <trkpt lat="48.55163" lon="2.05227">
        <ele>171</ele>
        <time>2023-12-14T08:14:19Z</time>
      </trkpt>
      <trkpt lat="48.55159" lon="2.05224">
        <ele>170.8</ele>
        <time>2023-12-14T08:14:20Z</time>
      </trkpt>
      <trkpt lat="48.55154" lon="2.0522">
        <ele>170.8</ele>
        <time>2023-12-14T08:14:21Z</time>
      </trkpt>
      <trkpt lat="48.5515" lon="2.05216">
        <ele>170.8</ele>
        <time>2023-12-14T08:14:22Z</time>
      </trkpt>
      <trkpt lat="48.55146" lon="2.05212">
        <ele>170.6</ele>
        <time>2023-12-14T08:14:23Z</time>
      </trkpt>
      <trkpt lat="48.55142" lon="2.05208">
        <ele>170.4</ele>
        <time>2023-12-14T08:14:24Z</time>
      </trkpt>
      <trkpt lat="48.55138" lon="2.05204">
        <ele>170.4</ele>
        <time>2023-12-14T08:14:25Z</time>
      </trkpt>
      <trkpt lat="48.55133" lon="2.052">
        <ele>170.4</ele>
        <time>2023-12-14T08:14:26Z</time>
      </trkpt>
      <trkpt lat="48.55129" lon="2.05196">
        <ele>170.4</ele>
        <time>2023-12-14T08:14:27Z</time>
      </trkpt>
      <trkpt lat="48.55124" lon="2.05192">
        <ele>170.4</ele>
        <time>2023-12-14T08:14:28Z</time>
      </trkpt>
      <trkpt lat="48.5512" lon="2.05187">
        <ele>170.4</ele>
        <time>2023-12-14T08:14:29Z</time>
      </trkpt>
      <trkpt lat="48.55115" lon="2.05183">
        <ele>170.4</ele>
        <time>2023-12-14T08:14:30Z</time>
      </trkpt>
      <trkpt lat="48.5511" lon="2.05179">
        <ele>170.4</ele>
        <time>2023-12-14T08:14:31Z</time>
      </trkpt>
      <trkpt lat="48.55106" lon="2.05175">
        <ele>169.4</ele>
        <time>2023-12-14T08:14:32Z</time>
      </trkpt>
      <trkpt lat="48.55101" lon="2.05172">
        <ele>169.4</ele>
        <time>2023-12-14T08:14:33Z</time>
      </trkpt>
      <trkpt lat="48.55096" lon="2.05168">
        <ele>169.4</ele>
        <time>2023-12-14T08:14:34Z</time>
      </trkpt>
      <trkpt lat="48.55091" lon="2.05165">
        <ele>169.4</ele>
        <time>2023-12-14T08:14:35Z</time>
      </trkpt>
      <trkpt lat="48.55086" lon="2.05162">
        <ele>169.6</ele>
        <time>2023-12-14T08:14:36Z</time>
      </trkpt>
      <trkpt lat="48.55081" lon="2.05159">
        <ele>169.6</ele>
        <time>2023-12-14T08:14:37Z</time>
      </trkpt>
      <trkpt lat="48.55076" lon="2.05156">
        <ele>169.6</ele>
        <time>2023-12-14T08:14:38Z</time>
      </trkpt>
      <trkpt lat="48.5507" lon="2.05154">
        <ele>169.4</ele>
        <time>2023-12-14T08:14:39Z</time>
      </trkpt>
      <trkpt lat="48.55065" lon="2.05152">
        <ele>169.4</ele>
        <time>2023-12-14T08:14:40Z</time>
      </trkpt>
      <trkpt lat="48.5506" lon="2.0515">
        <ele>169.4</ele>
        <time>2023-12-14T08:14:41Z</time>
      </trkpt>
      <trkpt lat="48.55054" lon="2.05148">
        <ele>169.4</ele>
        <time>2023-12-14T08:14:42Z</time>
      </trkpt>
      <trkpt lat="48.55049" lon="2.05146">
        <ele>169.4</ele>
        <time>2023-12-14T08:14:43Z</time>
      </trkpt>
      <trkpt lat="48.55043" lon="2.05145">
        <ele>169.2</ele>
        <time>2023-12-14T08:14:44Z</time>
      </trkpt>
      <trkpt lat="48.55038" lon="2.05144">
        <ele>169.2</ele>
        <time>2023-12-14T08:14:45Z</time>
      </trkpt>
      <trkpt lat="48.55032" lon="2.05143">
        <ele>169.2</ele>
        <time>2023-12-14T08:14:46Z</time>
      </trkpt>
      <trkpt lat="48.55026" lon="2.05141">
        <ele>169.2</ele>
        <time>2023-12-14T08:14:47Z</time>
      </trkpt>
      <trkpt lat="48.5502" lon="2.0514">
        <ele>169.4</ele>
        <time>2023-12-14T08:14:48Z</time>
      </trkpt>
      <trkpt lat="48.55014" lon="2.0514">
        <ele>169.4</ele>
        <time>2023-12-14T08:14:49Z</time>
      </trkpt>
      <trkpt lat="48.55008" lon="2.05139">
        <ele>169.4</ele>
        <time>2023-12-14T08:14:50Z</time>
      </trkpt>
      <trkpt lat="48.55002" lon="2.05138">
        <ele>169.4</ele>
        <time>2023-12-14T08:14:51Z</time>
      </trkpt>
      <trkpt lat="48.54996" lon="2.05138">
        <ele>169.8</ele>
        <time>2023-12-14T08:14:52Z</time>
      </trkpt>
      <trkpt lat="48.5499" lon="2.05137">
        <ele>169.8</ele>
        <time>2023-12-14T08:14:53Z</time>
      </trkpt>
      <trkpt lat="48.54984" lon="2.05137">
        <ele>169.8</ele>
        <time>2023-12-14T08:14:54Z</time>
      </trkpt>
      <trkpt lat="48.54978" lon="2.05138">
        <ele>168.8</ele>
        <time>2023-12-14T08:14:55Z</time>
      </trkpt>
      <trkpt lat="48.54971" lon="2.05138">
        <ele>168.6</ele>
        <time>2023-12-14T08:14:56Z</time>
      </trkpt>
      <trkpt lat="48.54965" lon="2.05139">
        <ele>168.6</ele>
        <time>2023-12-14T08:14:57Z</time>
      </trkpt>
      <trkpt lat="48.54959" lon="2.05139">
        <ele>168.6</ele>
        <time>2023-12-14T08:14:58Z</time>
      </trkpt>
      <trkpt lat="48.54952" lon="2.0514">
        <ele>168.6</ele>
        <time>2023-12-14T08:14:59Z</time>
      </trkpt>
      <trkpt lat="48.54946" lon="2.05141">
        <ele>168.4</ele>
        <time>2023-12-14T08:15:00Z</time>
      </trkpt>
      <trkpt lat="48.54939" lon="2.05142">
        <ele>168.4</ele>
        <time>2023-12-14T08:15:01Z</time>
      </trkpt>
      <trkpt lat="48.54932" lon="2.05143">
        <ele>168.4</ele>
        <time>2023-12-14T08:15:02Z</time>
      </trkpt>
      <trkpt lat="48.54926" lon="2.05143">
        <ele>168.6</ele>
        <time>2023-12-14T08:15:03Z</time>
      </trkpt>
      <trkpt lat="48.54919" lon="2.05144">
        <ele>168</ele>
        <time>2023-12-14T08:15:04Z</time>
      </trkpt>
      <trkpt lat="48.54913" lon="2.05145">
        <ele>168</ele>
        <time>2023-12-14T08:15:05Z</time>
      </trkpt>
      <trkpt lat="48.54907" lon="2.05146">
        <ele>168</ele>
        <time>2023-12-14T08:15:06Z</time>
      </trkpt>
      <trkpt lat="48.549" lon="2.05147">
        <ele>168</ele>
        <time>2023-12-14T08:15:07Z</time>
      </trkpt>
      <trkpt lat="48.54894" lon="2.05148">
        <ele>167.4</ele>
        <time>2023-12-14T08:15:08Z</time>
      </trkpt>
      <trkpt lat="48.54887" lon="2.05149">
        <ele>167.4</ele>
        <time>2023-12-14T08:15:09Z</time>
      </trkpt>
      <trkpt lat="48.54881" lon="2.0515">
        <ele>167.4</ele>
        <time>2023-12-14T08:15:10Z</time>
      </trkpt>
      <trkpt lat="48.54874" lon="2.05151">
        <ele>167.8</ele>
        <time>2023-12-14T08:15:11Z</time>
      </trkpt>
      <trkpt lat="48.54868" lon="2.05151">
        <ele>168</ele>
        <time>2023-12-14T08:15:12Z</time>
      </trkpt>
      <trkpt lat="48.54861" lon="2.05152">
        <ele>168</ele>
        <time>2023-12-14T08:15:13Z</time>
      </trkpt>
      <trkpt lat="48.54854" lon="2.05153">
        <ele>168</ele>
        <time>2023-12-14T08:15:14Z</time>
      </trkpt>
      <trkpt lat="48.54848" lon="2.05154">
        <ele>167.2</ele>
        <time>2023-12-14T08:15:15Z</time>
      </trkpt>
      <trkpt lat="48.54841" lon="2.05155">
        <ele>167</ele>
        <time>2023-12-14T08:15:16Z</time>
      </trkpt>
      <trkpt lat="48.54835" lon="2.05156">
        <ele>167</ele>
        <time>2023-12-14T08:15:17Z</time>
      </trkpt>
      <trkpt lat="48.54828" lon="2.05157">
        <ele>167</ele>
        <time>2023-12-14T08:15:18Z</time>
      </trkpt>
      <trkpt lat="48.54821" lon="2.05158">
        <ele>167</ele>
        <time>2023-12-14T08:15:19Z</time>
      </trkpt>
      <trkpt lat="48.54815" lon="2.05159">
        <ele>167.4</ele>
        <time>2023-12-14T08:15:20Z</time>
      </trkpt>
      <trkpt lat="48.54808" lon="2.0516">
        <ele>167.4</ele>
        <time>2023-12-14T08:15:21Z</time>
      </trkpt>
      <trkpt lat="48.54801" lon="2.0516">
        <ele>167.4</ele>
        <time>2023-12-14T08:15:22Z</time>
      </trkpt>
      <trkpt lat="48.54795" lon="2.05161">
        <ele>167.4</ele>
        <time>2023-12-14T08:15:23Z</time>
      </trkpt>
      <trkpt lat="48.54788" lon="2.05162">
        <ele>167.2</ele>
        <time>2023-12-14T08:15:24Z</time>
      </trkpt>
      <trkpt lat="48.54781" lon="2.05162">
        <ele>167.2</ele>
        <time>2023-12-14T08:15:25Z</time>
      </trkpt>
      <trkpt lat="48.54774" lon="2.05163">
        <ele>167.2</ele>
        <time>2023-12-14T08:15:26Z</time>
      </trkpt>
      <trkpt lat="48.54767" lon="2.05164">
        <ele>167.2</ele>
        <time>2023-12-14T08:15:27Z</time>
      </trkpt>
      <trkpt lat="48.54761" lon="2.05165">
        <ele>166.8</ele>
        <time>2023-12-14T08:15:28Z</time>
      </trkpt>
      <trkpt lat="48.54754" lon="2.05165">
        <ele>166.8</ele>
        <time>2023-12-14T08:15:29Z</time>
      </trkpt>
      <trkpt lat="48.54747" lon="2.05165">
        <ele>166.8</ele>
        <time>2023-12-14T08:15:30Z</time>
      </trkpt>
      <trkpt lat="48.5474" lon="2.05165">
        <ele>166.8</ele>
        <time>2023-12-14T08:15:31Z</time>
      </trkpt>
      <trkpt lat="48.54733" lon="2.05165">
        <ele>166.4</ele>
        <time>2023-12-14T08:15:32Z</time>
      </trkpt>
      <trkpt lat="48.54725" lon="2.05164">
        <ele>166.4</ele>
        <time>2023-12-14T08:15:33Z</time>
      </trkpt>
      <trkpt lat="48.54718" lon="2.05163">
        <ele>166.4</ele>
        <time>2023-12-14T08:15:34Z</time>
      </trkpt>
      <trkpt lat="48.54712" lon="2.05161">
        <ele>166.4</ele>
        <time>2023-12-14T08:15:35Z</time>
      </trkpt>
      <trkpt lat="48.54705" lon="2.05159">
        <ele>166.4</ele>
        <time>2023-12-14T08:15:36Z</time>
      </trkpt>
      <trkpt lat="48.54698" lon="2.05157">
        <ele>166.4</ele>
        <time>2023-12-14T08:15:37Z</time>
      </trkpt>
      <trkpt lat="48.54691" lon="2.05154">
        <ele>166.4</ele>
        <time>2023-12-14T08:15:38Z</time>
      </trkpt>
      <trkpt lat="48.54684" lon="2.05152">
        <ele>166.4</ele>
        <time>2023-12-14T08:15:39Z</time>
      </trkpt>
      <trkpt lat="48.54678" lon="2.05149">
        <ele>165.8</ele>
        <time>2023-12-14T08:15:40Z</time>
      </trkpt>
      <trkpt lat="48.54671" lon="2.05147">
        <ele>165.8</ele>
        <time>2023-12-14T08:15:41Z</time>
      </trkpt>
      <trkpt lat="48.54664" lon="2.05144">
        <ele>165.8</ele>
        <time>2023-12-14T08:15:42Z</time>
      </trkpt>
      <trkpt lat="48.54657" lon="2.05141">
        <ele>166</ele>
        <time>2023-12-14T08:15:43Z</time>
      </trkpt>
      <trkpt lat="48.54651" lon="2.05138">
        <ele>166</ele>
        <time>2023-12-14T08:15:44Z</time>
      </trkpt>
      <trkpt lat="48.54644" lon="2.05135">
        <ele>166</ele>
        <time>2023-12-14T08:15:45Z</time>
      </trkpt>
      <trkpt lat="48.54637" lon="2.05132">
        <ele>166</ele>
        <time>2023-12-14T08:15:46Z</time>
      </trkpt>
      <trkpt lat="48.54631" lon="2.0513">
        <ele>166</ele>
        <time>2023-12-14T08:15:47Z</time>
      </trkpt>
      <trkpt lat="48.54624" lon="2.05127">
        <ele>165.6</ele>
        <time>2023-12-14T08:15:48Z</time>
      </trkpt>
      <trkpt lat="48.54618" lon="2.05124">
        <ele>165.6</ele>
        <time>2023-12-14T08:15:49Z</time>
      </trkpt>
      <trkpt lat="48.54611" lon="2.05121">
        <ele>165.6</ele>
        <time>2023-12-14T08:15:50Z</time>
      </trkpt>
      <trkpt lat="48.54604" lon="2.05118">
        <ele>165.6</ele>
        <time>2023-12-14T08:15:51Z</time>
      </trkpt>
      <trkpt lat="48.54598" lon="2.05116">
        <ele>165</ele>
        <time>2023-12-14T08:15:52Z</time>
      </trkpt>
      <trkpt lat="48.54591" lon="2.05113">
        <ele>165</ele>
        <time>2023-12-14T08:15:53Z</time>
      </trkpt>
      <trkpt lat="48.54584" lon="2.0511">
        <ele>165</ele>
        <time>2023-12-14T08:15:54Z</time>
      </trkpt>
      <trkpt lat="48.54577" lon="2.05108">
        <ele>165</ele>
        <time>2023-12-14T08:15:55Z</time>
      </trkpt>
      <trkpt lat="48.5457" lon="2.05106">
        <ele>165.4</ele>
        <time>2023-12-14T08:15:56Z</time>
      </trkpt>
      <trkpt lat="48.54563" lon="2.05103">
        <ele>165.4</ele>
        <time>2023-12-14T08:15:57Z</time>
      </trkpt>
      <trkpt lat="48.54556" lon="2.05101">
        <ele>165.4</ele>
        <time>2023-12-14T08:15:58Z</time>
      </trkpt>
      <trkpt lat="48.54548" lon="2.05099">
        <ele>165.4</ele>
        <time>2023-12-14T08:15:59Z</time>
      </trkpt>
      <trkpt lat="48.54541" lon="2.05097">
        <ele>165.8</ele>
        <time>2023-12-14T08:16:00Z</time>
      </trkpt>
      <trkpt lat="48.54534" lon="2.05096">
        <ele>165.8</ele>
        <time>2023-12-14T08:16:01Z</time>
      </trkpt>
      <trkpt lat="48.54527" lon="2.05094">
        <ele>165.8</ele>
        <time>2023-12-14T08:16:02Z</time>
      </trkpt>
      <trkpt lat="48.5452" lon="2.05092">
        <ele>165.8</ele>
        <time>2023-12-14T08:16:03Z</time>
      </trkpt>
      <trkpt lat="48.54513" lon="2.0509">
        <ele>166</ele>
        <time>2023-12-14T08:16:04Z</time>
      </trkpt>
      <trkpt lat="48.54506" lon="2.05089">
        <ele>166</ele>
        <time>2023-12-14T08:16:05Z</time>
      </trkpt>
      <trkpt lat="48.54499" lon="2.05087">
        <ele>166</ele>
        <time>2023-12-14T08:16:06Z</time>
      </trkpt>
      <trkpt lat="48.54492" lon="2.05086">
        <ele>166</ele>
        <time>2023-12-14T08:16:07Z</time>
      </trkpt>
      <trkpt lat="48.54485" lon="2.05084">
        <ele>166.2</ele>
        <time>2023-12-14T08:16:08Z</time>
      </trkpt>
      <trkpt lat="48.54478" lon="2.05082">
        <ele>166.2</ele>
        <time>2023-12-14T08:16:09Z</time>
      </trkpt>
      <trkpt lat="48.54472" lon="2.05081">
        <ele>166.2</ele>
        <time>2023-12-14T08:16:10Z</time>
      </trkpt>
      <trkpt lat="48.54465" lon="2.05079">
        <ele>166.2</ele>
        <time>2023-12-14T08:16:11Z</time>
      </trkpt>
      <trkpt lat="48.54458" lon="2.05077">
        <ele>166.4</ele>
        <time>2023-12-14T08:16:12Z</time>
      </trkpt>
      <trkpt lat="48.54451" lon="2.05075">
        <ele>166.4</ele>
        <time>2023-12-14T08:16:13Z</time>
      </trkpt>
      <trkpt lat="48.54444" lon="2.05073">
        <ele>166.4</ele>
        <time>2023-12-14T08:16:14Z</time>
      </trkpt>
      <trkpt lat="48.54437" lon="2.05071">
        <ele>166.4</ele>
        <time>2023-12-14T08:16:15Z</time>
      </trkpt>
      <trkpt lat="48.5443" lon="2.0507">
        <ele>166.2</ele>
        <time>2023-12-14T08:16:16Z</time>
      </trkpt>
      <trkpt lat="48.54423" lon="2.05068">
        <ele>166.2</ele>
        <time>2023-12-14T08:16:17Z</time>
      </trkpt>
      <trkpt lat="48.54417" lon="2.05066">
        <ele>166.2</ele>
        <time>2023-12-14T08:16:18Z</time>
      </trkpt>
      <trkpt lat="48.5441" lon="2.05064">
        <ele>165.8</ele>
        <time>2023-12-14T08:16:19Z</time>
      </trkpt>
      <trkpt lat="48.54403" lon="2.05062">
        <ele>165.8</ele>
        <time>2023-12-14T08:16:20Z</time>
      </trkpt>
      <trkpt lat="48.54397" lon="2.05061">
        <ele>165.8</ele>
        <time>2023-12-14T08:16:21Z</time>
      </trkpt>
      <trkpt lat="48.5439" lon="2.05059">
        <ele>165.8</ele>
        <time>2023-12-14T08:16:22Z</time>
      </trkpt>
      <trkpt lat="48.54384" lon="2.05057">
        <ele>166.4</ele>
        <time>2023-12-14T08:16:23Z</time>
      </trkpt>
      <trkpt lat="48.54378" lon="2.05055">
        <ele>165.6</ele>
        <time>2023-12-14T08:16:24Z</time>
      </trkpt>
      <trkpt lat="48.54371" lon="2.05054">
        <ele>165.6</ele>
        <time>2023-12-14T08:16:25Z</time>
      </trkpt>
      <trkpt lat="48.54365" lon="2.05053">
        <ele>165.6</ele>
        <time>2023-12-14T08:16:26Z</time>
      </trkpt>
      <trkpt lat="48.54359" lon="2.05052">
        <ele>166</ele>
        <time>2023-12-14T08:16:27Z</time>
      </trkpt>
      <trkpt lat="48.54352" lon="2.0505">
        <ele>165.8</ele>
        <time>2023-12-14T08:16:28Z</time>
      </trkpt>
      <trkpt lat="48.54346" lon="2.0505">
        <ele>165.8</ele>
        <time>2023-12-14T08:16:29Z</time>
      </trkpt>
      <trkpt lat="48.5434" lon="2.05049">
        <ele>165.8</ele>
        <time>2023-12-14T08:16:30Z</time>
      </trkpt>
      <trkpt lat="48.54334" lon="2.05048">
        <ele>166.8</ele>
        <time>2023-12-14T08:16:31Z</time>
      </trkpt>
      <trkpt lat="48.54327" lon="2.05048">
        <ele>166.8</ele>
        <time>2023-12-14T08:16:32Z</time>
      </trkpt>
      <trkpt lat="48.54321" lon="2.05047">
        <ele>166.8</ele>
        <time>2023-12-14T08:16:33Z</time>
      </trkpt>
      <trkpt lat="48.54314" lon="2.05047">
        <ele>166.8</ele>
        <time>2023-12-14T08:16:34Z</time>
      </trkpt>
      <trkpt lat="48.54308" lon="2.05047">
        <ele>166.8</ele>
        <time>2023-12-14T08:16:35Z</time>
      </trkpt>
      <trkpt lat="48.54302" lon="2.05047">
        <ele>166</ele>
        <time>2023-12-14T08:16:36Z</time>
      </trkpt>
      <trkpt lat="48.54296" lon="2.05047">
        <ele>166</ele>
        <time>2023-12-14T08:16:37Z</time>
      </trkpt>
      <trkpt lat="48.5429" lon="2.05047">
        <ele>166</ele>
        <time>2023-12-14T08:16:38Z</time>
      </trkpt>
      <trkpt lat="48.54284" lon="2.05047">
        <ele>167</ele>
        <time>2023-12-14T08:16:39Z</time>
      </trkpt>
      <trkpt lat="48.54279" lon="2.05047">
        <ele>167.6</ele>
        <time>2023-12-14T08:16:40Z</time>
      </trkpt>
      <trkpt lat="48.54273" lon="2.05047">
        <ele>167.6</ele>
        <time>2023-12-14T08:16:41Z</time>
      </trkpt>
      <trkpt lat="48.54268" lon="2.05046">
        <ele>167.6</ele>
        <time>2023-12-14T08:16:42Z</time>
      </trkpt>
      <trkpt lat="48.54262" lon="2.05046">
        <ele>167.6</ele>
        <time>2023-12-14T08:16:43Z</time>
      </trkpt>
      <trkpt lat="48.54257" lon="2.05046">
        <ele>168</ele>
        <time>2023-12-14T08:16:44Z</time>
      </trkpt>
      <trkpt lat="48.54252" lon="2.05046">
        <ele>168</ele>
        <time>2023-12-14T08:16:45Z</time>
      </trkpt>
      <trkpt lat="48.54246" lon="2.05045">
        <ele>168</ele>
        <time>2023-12-14T08:16:46Z</time>
      </trkpt>
      <trkpt lat="48.54241" lon="2.05045">
        <ele>167.8</ele>
        <time>2023-12-14T08:16:47Z</time>
      </trkpt>
      <trkpt lat="48.54236" lon="2.05045">
        <ele>168.2</ele>
        <time>2023-12-14T08:16:48Z</time>
      </trkpt>
      <trkpt lat="48.5423" lon="2.05044">
        <ele>168.2</ele>
        <time>2023-12-14T08:16:49Z</time>
      </trkpt>
      <trkpt lat="48.54225" lon="2.05043">
        <ele>168.2</ele>
        <time>2023-12-14T08:16:50Z</time>
      </trkpt>
      <trkpt lat="48.5422" lon="2.05043">
        <ele>168.2</ele>
        <time>2023-12-14T08:16:51Z</time>
      </trkpt>
      <trkpt lat="48.54215" lon="2.05042">
        <ele>168.6</ele>
        <time>2023-12-14T08:16:52Z</time>
      </trkpt>
      <trkpt lat="48.5421" lon="2.05041">
        <ele>168.6</ele>
        <time>2023-12-14T08:16:53Z</time>
      </trkpt>
      <trkpt lat="48.54205" lon="2.0504">
        <ele>168.6</ele>
        <time>2023-12-14T08:16:54Z</time>
      </trkpt>
      <trkpt lat="48.542" lon="2.05039">
        <ele>168.6</ele>
        <time>2023-12-14T08:16:55Z</time>
      </trkpt>
      <trkpt lat="48.54196" lon="2.05039">
        <ele>169.4</ele>
        <time>2023-12-14T08:16:56Z</time>
      </trkpt>
      <trkpt lat="48.54191" lon="2.05037">
        <ele>169.4</ele>
        <time>2023-12-14T08:16:57Z</time>
      </trkpt>
      <trkpt lat="48.54186" lon="2.05036">
        <ele>169.4</ele>
        <time>2023-12-14T08:16:58Z</time>
      </trkpt>
      <trkpt lat="48.54181" lon="2.05036">
        <ele>168.6</ele>
        <time>2023-12-14T08:16:59Z</time>
      </trkpt>
      <trkpt lat="48.54176" lon="2.05035">
        <ele>169</ele>
        <time>2023-12-14T08:17:00Z</time>
      </trkpt>
      <trkpt lat="48.54172" lon="2.05034">
        <ele>169</ele>
        <time>2023-12-14T08:17:01Z</time>
      </trkpt>
      <trkpt lat="48.54167" lon="2.05034">
        <ele>169</ele>
        <time>2023-12-14T08:17:02Z</time>
      </trkpt>
      <trkpt lat="48.54162" lon="2.05033">
        <ele>169</ele>
        <time>2023-12-14T08:17:03Z</time>
      </trkpt>
      <trkpt lat="48.54157" lon="2.05032">
        <ele>169.2</ele>
        <time>2023-12-14T08:17:04Z</time>
      </trkpt>
      <trkpt lat="48.54152" lon="2.05031">
        <ele>169.2</ele>
        <time>2023-12-14T08:17:05Z</time>
      </trkpt>
      <trkpt lat="48.54147" lon="2.0503">
        <ele>169.2</ele>
        <time>2023-12-14T08:17:06Z</time>
      </trkpt>
      <trkpt lat="48.54141" lon="2.0503">
        <ele>169.2</ele>
        <time>2023-12-14T08:17:07Z</time>
      </trkpt>
      <trkpt lat="48.54136" lon="2.05029">
        <ele>169</ele>
        <time>2023-12-14T08:17:08Z</time>
      </trkpt>
      <trkpt lat="48.54131" lon="2.05028">
        <ele>169</ele>
        <time>2023-12-14T08:17:09Z</time>
      </trkpt>
      <trkpt lat="48.54125" lon="2.05027">
        <ele>169</ele>
        <time>2023-12-14T08:17:10Z</time>
      </trkpt>
      <trkpt lat="48.5412" lon="2.05026">
        <ele>168.2</ele>
        <time>2023-12-14T08:17:11Z</time>
      </trkpt>
      <trkpt lat="48.54115" lon="2.05026">
        <ele>168.6</ele>
        <time>2023-12-14T08:17:12Z</time>
      </trkpt>
      <trkpt lat="48.54109" lon="2.05026">
        <ele>168.6</ele>
        <time>2023-12-14T08:17:13Z</time>
      </trkpt>
      <trkpt lat="48.54103" lon="2.05026">
        <ele>168.6</ele>
        <time>2023-12-14T08:17:14Z</time>
      </trkpt>
      <trkpt lat="48.54097" lon="2.05025">
        <ele>167.6</ele>
        <time>2023-12-14T08:17:15Z</time>
      </trkpt>
      <trkpt lat="48.5409" lon="2.05024">
        <ele>167.4</ele>
        <time>2023-12-14T08:17:16Z</time>
      </trkpt>
      <trkpt lat="48.54084" lon="2.05023">
        <ele>167.4</ele>
        <time>2023-12-14T08:17:17Z</time>
      </trkpt>
      <trkpt lat="48.54078" lon="2.05021">
        <ele>167.4</ele>
        <time>2023-12-14T08:17:18Z</time>
      </trkpt>
      <trkpt lat="48.54071" lon="2.0502">
        <ele>167.4</ele>
        <time>2023-12-14T08:17:19Z</time>
      </trkpt>
      <trkpt lat="48.54064" lon="2.05019">
        <ele>166.6</ele>
        <time>2023-12-14T08:17:20Z</time>
      </trkpt>
      <trkpt lat="48.54058" lon="2.05018">
        <ele>166.6</ele>
        <time>2023-12-14T08:17:21Z</time>
      </trkpt>
      <trkpt lat="48.54051" lon="2.05016">
        <ele>166.6</ele>
        <time>2023-12-14T08:17:22Z</time>
      </trkpt>
      <trkpt lat="48.54044" lon="2.05015">
        <ele>166.6</ele>
        <time>2023-12-14T08:17:23Z</time>
      </trkpt>
      <trkpt lat="48.54037" lon="2.05014">
        <ele>165.8</ele>
        <time>2023-12-14T08:17:24Z</time>
      </trkpt>
      <trkpt lat="48.5403" lon="2.05012">
        <ele>165.8</ele>
        <time>2023-12-14T08:17:25Z</time>
      </trkpt>
      <trkpt lat="48.54024" lon="2.05011">
        <ele>165.8</ele>
        <time>2023-12-14T08:17:26Z</time>
      </trkpt>
      <trkpt lat="48.54017" lon="2.05009">
        <ele>165.4</ele>
        <time>2023-12-14T08:17:27Z</time>
      </trkpt>
      <trkpt lat="48.5401" lon="2.05008">
        <ele>165.4</ele>
        <time>2023-12-14T08:17:28Z</time>
      </trkpt>
      <trkpt lat="48.54003" lon="2.05007">
        <ele>165.4</ele>
        <time>2023-12-14T08:17:29Z</time>
      </trkpt>
      <trkpt lat="48.53997" lon="2.05006">
        <ele>165.4</ele>
        <time>2023-12-14T08:17:30Z</time>
      </trkpt>
      <trkpt lat="48.53991" lon="2.05004">
        <ele>165.4</ele>
        <time>2023-12-14T08:17:31Z</time>
      </trkpt>
      <trkpt lat="48.53985" lon="2.05002">
        <ele>165.4</ele>
        <time>2023-12-14T08:17:32Z</time>
      </trkpt>
      <trkpt lat="48.53978" lon="2.05001">
        <ele>165.4</ele>
        <time>2023-12-14T08:17:33Z</time>
      </trkpt>
      <trkpt lat="48.53971" lon="2.05001">
        <ele>165.4</ele>
        <time>2023-12-14T08:17:34Z</time>
      </trkpt>
      <trkpt lat="48.53964" lon="2.05001">
        <ele>165</ele>
        <time>2023-12-14T08:17:35Z</time>
      </trkpt>
      <trkpt lat="48.53957" lon="2.05002">
        <ele>165</ele>
        <time>2023-12-14T08:17:36Z</time>
      </trkpt>
      <trkpt lat="48.5395" lon="2.05004">
        <ele>165</ele>
        <time>2023-12-14T08:17:37Z</time>
      </trkpt>
      <trkpt lat="48.53944" lon="2.05007">
        <ele>165</ele>
        <time>2023-12-14T08:17:38Z</time>
      </trkpt>
      <trkpt lat="48.53937" lon="2.05012">
        <ele>165</ele>
        <time>2023-12-14T08:17:39Z</time>
      </trkpt>
      <trkpt lat="48.53932" lon="2.05018">
        <ele>164.8</ele>
        <time>2023-12-14T08:17:40Z</time>
      </trkpt>
      <trkpt lat="48.53928" lon="2.05026">
        <ele>164.8</ele>
        <time>2023-12-14T08:17:41Z</time>
      </trkpt>
      <trkpt lat="48.53924" lon="2.05034">
        <ele>164.8</ele>
        <time>2023-12-14T08:17:42Z</time>
      </trkpt>
      <trkpt lat="48.53921" lon="2.05042">
        <ele>164.8</ele>
        <time>2023-12-14T08:17:43Z</time>
      </trkpt>
      <trkpt lat="48.53918" lon="2.05051">
        <ele>164.4</ele>
        <time>2023-12-14T08:17:44Z</time>
      </trkpt>
      <trkpt lat="48.53915" lon="2.0506">
        <ele>164.4</ele>
        <time>2023-12-14T08:17:45Z</time>
      </trkpt>
      <trkpt lat="48.53912" lon="2.05068">
        <ele>164.4</ele>
        <time>2023-12-14T08:17:46Z</time>
      </trkpt>
      <trkpt lat="48.53909" lon="2.05077">
        <ele>164.4</ele>
        <time>2023-12-14T08:17:47Z</time>
      </trkpt>
      <trkpt lat="48.53907" lon="2.05086">
        <ele>163.6</ele>
        <time>2023-12-14T08:17:48Z</time>
      </trkpt>
      <trkpt lat="48.53904" lon="2.05094">
        <ele>163.6</ele>
        <time>2023-12-14T08:17:49Z</time>
      </trkpt>
      <trkpt lat="48.53902" lon="2.05103">
        <ele>163.6</ele>
        <time>2023-12-14T08:17:50Z</time>
      </trkpt>
      <trkpt lat="48.53898" lon="2.0511">
        <ele>164.6</ele>
        <time>2023-12-14T08:17:51Z</time>
      </trkpt>
      <trkpt lat="48.53893" lon="2.05116">
        <ele>164.4</ele>
        <time>2023-12-14T08:17:52Z</time>
      </trkpt>
      <trkpt lat="48.53887" lon="2.05118">
        <ele>164.4</ele>
        <time>2023-12-14T08:17:53Z</time>
      </trkpt>
      <trkpt lat="48.53881" lon="2.05119">
        <ele>164.4</ele>
        <time>2023-12-14T08:17:54Z</time>
      </trkpt>
      <trkpt lat="48.53875" lon="2.05116">
        <ele>163.4</ele>
        <time>2023-12-14T08:17:55Z</time>
      </trkpt>
      <trkpt lat="48.53869" lon="2.05111">
        <ele>162.8</ele>
        <time>2023-12-14T08:17:56Z</time>
      </trkpt>
      <trkpt lat="48.53864" lon="2.05106">
        <ele>162.8</ele>
        <time>2023-12-14T08:17:57Z</time>
      </trkpt>
      <trkpt lat="48.53858" lon="2.05101">
        <ele>162.8</ele>
        <time>2023-12-14T08:17:58Z</time>
      </trkpt>
      <trkpt lat="48.53853" lon="2.05097">
        <ele>162</ele>
        <time>2023-12-14T08:17:59Z</time>
      </trkpt>
      <trkpt lat="48.53847" lon="2.05092">
        <ele>161.2</ele>
        <time>2023-12-14T08:18:00Z</time>
      </trkpt>
      <trkpt lat="48.53841" lon="2.05087">
        <ele>161.2</ele>
        <time>2023-12-14T08:18:01Z</time>
      </trkpt>
      <trkpt lat="48.53835" lon="2.05081">
        <ele>161.2</ele>
        <time>2023-12-14T08:18:02Z</time>
      </trkpt>
      <trkpt lat="48.53829" lon="2.05076">
        <ele>160.2</ele>
        <time>2023-12-14T08:18:03Z</time>
      </trkpt>
      <trkpt lat="48.53823" lon="2.0507">
        <ele>159.4</ele>
        <time>2023-12-14T08:18:04Z</time>
      </trkpt>
      <trkpt lat="48.53817" lon="2.05065">
        <ele>159.4</ele>
        <time>2023-12-14T08:18:05Z</time>
      </trkpt>
      <trkpt lat="48.53811" lon="2.05058">
        <ele>159.4</ele>
        <time>2023-12-14T08:18:06Z</time>
      </trkpt>
      <trkpt lat="48.53804" lon="2.05052">
        <ele>158.4</ele>
        <time>2023-12-14T08:18:07Z</time>
      </trkpt>
      <trkpt lat="48.53798" lon="2.05045">
        <ele>156.6</ele>
        <time>2023-12-14T08:18:08Z</time>
      </trkpt>
      <trkpt lat="48.53791" lon="2.05037">
        <ele>156.6</ele>
        <time>2023-12-14T08:18:09Z</time>
      </trkpt>
      <trkpt lat="48.53784" lon="2.0503">
        <ele>156.6</ele>
        <time>2023-12-14T08:18:10Z</time>
      </trkpt>
      <trkpt lat="48.53777" lon="2.05024">
        <ele>156.6</ele>
        <time>2023-12-14T08:18:11Z</time>
      </trkpt>
      <trkpt lat="48.53769" lon="2.05017">
        <ele>152.8</ele>
        <time>2023-12-14T08:18:12Z</time>
      </trkpt>
      <trkpt lat="48.5376" lon="2.05013">
        <ele>152.8</ele>
        <time>2023-12-14T08:18:13Z</time>
      </trkpt>
      <trkpt lat="48.5375" lon="2.0501">
        <ele>152.8</ele>
        <time>2023-12-14T08:18:14Z</time>
      </trkpt>
      <trkpt lat="48.5374" lon="2.0501">
        <ele>151.8</ele>
        <time>2023-12-14T08:18:15Z</time>
      </trkpt>
      <trkpt lat="48.5373" lon="2.0501">
        <ele>150.6</ele>
        <time>2023-12-14T08:18:16Z</time>
      </trkpt>
      <trkpt lat="48.53721" lon="2.05011">
        <ele>150.6</ele>
        <time>2023-12-14T08:18:17Z</time>
      </trkpt>
      <trkpt lat="48.53711" lon="2.05012">
        <ele>150.6</ele>
        <time>2023-12-14T08:18:18Z</time>
      </trkpt>
      <trkpt lat="48.53701" lon="2.05012">
        <ele>151</ele>
        <time>2023-12-14T08:18:19Z</time>
      </trkpt>
      <trkpt lat="48.53692" lon="2.05013">
        <ele>151</ele>
        <time>2023-12-14T08:18:20Z</time>
      </trkpt>
      <trkpt lat="48.53683" lon="2.05014">
        <ele>151</ele>
        <time>2023-12-14T08:18:21Z</time>
      </trkpt>
      <trkpt lat="48.53674" lon="2.05013">
        <ele>151</ele>
        <time>2023-12-14T08:18:22Z</time>
      </trkpt>
      <trkpt lat="48.53666" lon="2.05013">
        <ele>152</ele>
        <time>2023-12-14T08:18:23Z</time>
      </trkpt>
      <trkpt lat="48.53658" lon="2.05011">
        <ele>152</ele>
        <time>2023-12-14T08:18:24Z</time>
      </trkpt>
      <trkpt lat="48.53651" lon="2.05009">
        <ele>152</ele>
        <time>2023-12-14T08:18:25Z</time>
      </trkpt>
      <trkpt lat="48.53644" lon="2.05006">
        <ele>152</ele>
        <time>2023-12-14T08:18:26Z</time>
      </trkpt>
      <trkpt lat="48.53638" lon="2.05003">
        <ele>153</ele>
        <time>2023-12-14T08:18:27Z</time>
      </trkpt>
      <trkpt lat="48.53633" lon="2.04999">
        <ele>155.6</ele>
        <time>2023-12-14T08:18:28Z</time>
      </trkpt>
      <trkpt lat="48.53628" lon="2.04997">
        <ele>155.6</ele>
        <time>2023-12-14T08:18:29Z</time>
      </trkpt>
      <trkpt lat="48.53624" lon="2.04995">
        <ele>155.6</ele>
        <time>2023-12-14T08:18:30Z</time>
      </trkpt>
      <trkpt lat="48.53621" lon="2.04993">
        <ele>156.6</ele>
        <time>2023-12-14T08:18:31Z</time>
      </trkpt>
      <trkpt lat="48.53618" lon="2.04992">
        <ele>156.2</ele>
        <time>2023-12-14T08:18:32Z</time>
      </trkpt>
      <trkpt lat="48.53616" lon="2.04991">
        <ele>156.2</ele>
        <time>2023-12-14T08:18:33Z</time>
      </trkpt>
      <trkpt lat="48.53614" lon="2.0499">
        <ele>156.2</ele>
        <time>2023-12-14T08:18:34Z</time>
      </trkpt>
      <trkpt lat="48.53611" lon="2.04989">
        <ele>156.2</ele>
        <time>2023-12-14T08:18:35Z</time>
      </trkpt>
      <trkpt lat="48.53608" lon="2.04991">
        <ele>155.8</ele>
        <time>2023-12-14T08:18:36Z</time>
      </trkpt>
      <trkpt lat="48.53606" lon="2.04992">
        <ele>155.8</ele>
        <time>2023-12-14T08:18:37Z</time>
      </trkpt>
      <trkpt lat="48.53603" lon="2.04995">
        <ele>155.8</ele>
        <time>2023-12-14T08:18:38Z</time>
      </trkpt>
      <trkpt lat="48.536" lon="2.04998">
        <ele>155.8</ele>
        <time>2023-12-14T08:18:39Z</time>
      </trkpt>
      <trkpt lat="48.53597" lon="2.05001">
        <ele>155</ele>
        <time>2023-12-14T08:18:40Z</time>
      </trkpt>
      <trkpt lat="48.53593" lon="2.05004">
        <ele>155</ele>
        <time>2023-12-14T08:18:41Z</time>
      </trkpt>
      <trkpt lat="48.53589" lon="2.05008">
        <ele>155</ele>
        <time>2023-12-14T08:18:42Z</time>
      </trkpt>
      <trkpt lat="48.53585" lon="2.05012">
        <ele>154.2</ele>
        <time>2023-12-14T08:18:43Z</time>
      </trkpt>
      <trkpt lat="48.53581" lon="2.05017">
        <ele>154.4</ele>
        <time>2023-12-14T08:18:44Z</time>
      </trkpt>
      <trkpt lat="48.53577" lon="2.05022">
        <ele>154.4</ele>
        <time>2023-12-14T08:18:45Z</time>
      </trkpt>
      <trkpt lat="48.53573" lon="2.05026">
        <ele>154.4</ele>
        <time>2023-12-14T08:18:46Z</time>
      </trkpt>
      <trkpt lat="48.53568" lon="2.05031">
        <ele>153.4</ele>
        <time>2023-12-14T08:18:47Z</time>
      </trkpt>
      <trkpt lat="48.53564" lon="2.05037">
        <ele>152</ele>
        <time>2023-12-14T08:18:48Z</time>
      </trkpt>
      <trkpt lat="48.53559" lon="2.05042">
        <ele>152</ele>
        <time>2023-12-14T08:18:49Z</time>
      </trkpt>
      <trkpt lat="48.53555" lon="2.05047">
        <ele>152</ele>
        <time>2023-12-14T08:18:50Z</time>
      </trkpt>
      <trkpt lat="48.53551" lon="2.05052">
        <ele>152</ele>
        <time>2023-12-14T08:18:51Z</time>
      </trkpt>
      <trkpt lat="48.53547" lon="2.05058">
        <ele>150.2</ele>
        <time>2023-12-14T08:18:52Z</time>
      </trkpt>
      <trkpt lat="48.53543" lon="2.05063">
        <ele>150.2</ele>
        <time>2023-12-14T08:18:53Z</time>
      </trkpt>
      <trkpt lat="48.53538" lon="2.05069">
        <ele>150.2</ele>
        <time>2023-12-14T08:18:54Z</time>
      </trkpt>
      <trkpt lat="48.53534" lon="2.05075">
        <ele>149.6</ele>
        <time>2023-12-14T08:18:55Z</time>
      </trkpt>
      <trkpt lat="48.5353" lon="2.05081">
        <ele>149.4</ele>
        <time>2023-12-14T08:18:56Z</time>
      </trkpt>
      <trkpt lat="48.53527" lon="2.05088">
        <ele>149.4</ele>
        <time>2023-12-14T08:18:57Z</time>
      </trkpt>
      <trkpt lat="48.53523" lon="2.05095">
        <ele>149.4</ele>
        <time>2023-12-14T08:18:58Z</time>
      </trkpt>
      <trkpt lat="48.5352" lon="2.05102">
        <ele>148.4</ele>
        <time>2023-12-14T08:18:59Z</time>
      </trkpt>
      <trkpt lat="48.53517" lon="2.05109">
        <ele>147.6</ele>
        <time>2023-12-14T08:19:00Z</time>
      </trkpt>
      <trkpt lat="48.53515" lon="2.05117">
        <ele>147.6</ele>
        <time>2023-12-14T08:19:01Z</time>
      </trkpt>
      <trkpt lat="48.53514" lon="2.05125">
        <ele>147.6</ele>
        <time>2023-12-14T08:19:02Z</time>
      </trkpt>
      <trkpt lat="48.53513" lon="2.05133">
        <ele>146.8</ele>
        <time>2023-12-14T08:19:03Z</time>
      </trkpt>
      <trkpt lat="48.53513" lon="2.05141">
        <ele>146.8</ele>
        <time>2023-12-14T08:19:04Z</time>
      </trkpt>
      <trkpt lat="48.53514" lon="2.05149">
        <ele>146.8</ele>
        <time>2023-12-14T08:19:05Z</time>
      </trkpt>
      <trkpt lat="48.53515" lon="2.05158">
        <ele>146.8</ele>
        <time>2023-12-14T08:19:06Z</time>
      </trkpt>
      <trkpt lat="48.53518" lon="2.05166">
        <ele>146.8</ele>
        <time>2023-12-14T08:19:07Z</time>
      </trkpt>
      <trkpt lat="48.5352" lon="2.05174">
        <ele>145.8</ele>
        <time>2023-12-14T08:19:08Z</time>
      </trkpt>
      <trkpt lat="48.53522" lon="2.05182">
        <ele>145.8</ele>
        <time>2023-12-14T08:19:09Z</time>
      </trkpt>
      <trkpt lat="48.53525" lon="2.0519">
        <ele>145.8</ele>
        <time>2023-12-14T08:19:10Z</time>
      </trkpt>
      <trkpt lat="48.53527" lon="2.05198">
        <ele>144.8</ele>
        <time>2023-12-14T08:19:11Z</time>
      </trkpt>
      <trkpt lat="48.5353" lon="2.05207">
        <ele>143.6</ele>
        <time>2023-12-14T08:19:12Z</time>
      </trkpt>
      <trkpt lat="48.53532" lon="2.05216">
        <ele>143.6</ele>
        <time>2023-12-14T08:19:13Z</time>
      </trkpt>
      <trkpt lat="48.53535" lon="2.05225">
        <ele>143.6</ele>
        <time>2023-12-14T08:19:14Z</time>
      </trkpt>
      <trkpt lat="48.53538" lon="2.05234">
        <ele>142.6</ele>
        <time>2023-12-14T08:19:15Z</time>
      </trkpt>
      <trkpt lat="48.53539" lon="2.05244">
        <ele>142.6</ele>
        <time>2023-12-14T08:19:16Z</time>
      </trkpt>
      <trkpt lat="48.53539" lon="2.05253">
        <ele>142.6</ele>
        <time>2023-12-14T08:19:17Z</time>
      </trkpt>
      <trkpt lat="48.5354" lon="2.05263">
        <ele>142.6</ele>
        <time>2023-12-14T08:19:18Z</time>
      </trkpt>
      <trkpt lat="48.53539" lon="2.05273">
        <ele>142.6</ele>
        <time>2023-12-14T08:19:19Z</time>
      </trkpt>
      <trkpt lat="48.53537" lon="2.05281">
        <ele>142.2</ele>
        <time>2023-12-14T08:19:20Z</time>
      </trkpt>
      <trkpt lat="48.53534" lon="2.05288">
        <ele>142.2</ele>
        <time>2023-12-14T08:19:21Z</time>
      </trkpt>
      <trkpt lat="48.5353" lon="2.05293">
        <ele>142.2</ele>
        <time>2023-12-14T08:19:22Z</time>
      </trkpt>
      <trkpt lat="48.53526" lon="2.05297">
        <ele>141.2</ele>
        <time>2023-12-14T08:19:23Z</time>
      </trkpt>
      <trkpt lat="48.53521" lon="2.05301">
        <ele>141.2</ele>
        <time>2023-12-14T08:19:24Z</time>
      </trkpt>
      <trkpt lat="48.53517" lon="2.05303">
        <ele>141.2</ele>
        <time>2023-12-14T08:19:25Z</time>
      </trkpt>
      <trkpt lat="48.53512" lon="2.05304">
        <ele>141.2</ele>
        <time>2023-12-14T08:19:26Z</time>
      </trkpt>
      <trkpt lat="48.53507" lon="2.05305">
        <ele>140.2</ele>
        <time>2023-12-14T08:19:27Z</time>
      </trkpt>
      <trkpt lat="48.53502" lon="2.05304">
        <ele>138.8</ele>
        <time>2023-12-14T08:19:28Z</time>
      </trkpt>
      <trkpt lat="48.53497" lon="2.05301">
        <ele>138.8</ele>
        <time>2023-12-14T08:19:29Z</time>
      </trkpt>
      <trkpt lat="48.53492" lon="2.05297">
        <ele>138.8</ele>
        <time>2023-12-14T08:19:30Z</time>
      </trkpt>
      <trkpt lat="48.53487" lon="2.05291">
        <ele>137.8</ele>
        <time>2023-12-14T08:19:31Z</time>
      </trkpt>
      <trkpt lat="48.53483" lon="2.05285">
        <ele>137.2</ele>
        <time>2023-12-14T08:19:32Z</time>
      </trkpt>
      <trkpt lat="48.53478" lon="2.05278">
        <ele>137.2</ele>
        <time>2023-12-14T08:19:33Z</time>
      </trkpt>
      <trkpt lat="48.53474" lon="2.05271">
        <ele>137.2</ele>
        <time>2023-12-14T08:19:34Z</time>
      </trkpt>
      <trkpt lat="48.5347" lon="2.05263">
        <ele>136.2</ele>
        <time>2023-12-14T08:19:35Z</time>
      </trkpt>
      <trkpt lat="48.53466" lon="2.05254">
        <ele>134.8</ele>
        <time>2023-12-14T08:19:36Z</time>
      </trkpt>
      <trkpt lat="48.53462" lon="2.05245">
        <ele>134.8</ele>
        <time>2023-12-14T08:19:37Z</time>
      </trkpt>
      <trkpt lat="48.53458" lon="2.05236">
        <ele>134.8</ele>
        <time>2023-12-14T08:19:38Z</time>
      </trkpt>
      <trkpt lat="48.53454" lon="2.05227">
        <ele>134</ele>
        <time>2023-12-14T08:19:39Z</time>
      </trkpt>
      <trkpt lat="48.5345" lon="2.05218">
        <ele>132.6</ele>
        <time>2023-12-14T08:19:40Z</time>
      </trkpt>
      <trkpt lat="48.53446" lon="2.05209">
        <ele>132.6</ele>
        <time>2023-12-14T08:19:41Z</time>
      </trkpt>
      <trkpt lat="48.53443" lon="2.05199">
        <ele>132.6</ele>
        <time>2023-12-14T08:19:42Z</time>
      </trkpt>
      <trkpt lat="48.53439" lon="2.0519">
        <ele>131.6</ele>
        <time>2023-12-14T08:19:43Z</time>
      </trkpt>
      <trkpt lat="48.53436" lon="2.0518">
        <ele>131.2</ele>
        <time>2023-12-14T08:19:44Z</time>
      </trkpt>
      <trkpt lat="48.53433" lon="2.0517">
        <ele>131.2</ele>
        <time>2023-12-14T08:19:45Z</time>
      </trkpt>
      <trkpt lat="48.53431" lon="2.05159">
        <ele>131.2</ele>
        <time>2023-12-14T08:19:46Z</time>
      </trkpt>
      <trkpt lat="48.53429" lon="2.05148">
        <ele>131.2</ele>
        <time>2023-12-14T08:19:47Z</time>
      </trkpt>
      <trkpt lat="48.53428" lon="2.05137">
        <ele>129.4</ele>
        <time>2023-12-14T08:19:48Z</time>
      </trkpt>
      <trkpt lat="48.53427" lon="2.05126">
        <ele>129.4</ele>
        <time>2023-12-14T08:19:49Z</time>
      </trkpt>
      <trkpt lat="48.53426" lon="2.05115">
        <ele>129.4</ele>
        <time>2023-12-14T08:19:50Z</time>
      </trkpt>
      <trkpt lat="48.53425" lon="2.05104">
        <ele>128.4</ele>
        <time>2023-12-14T08:19:51Z</time>
      </trkpt>
      <trkpt lat="48.53425" lon="2.05093">
        <ele>127.2</ele>
        <time>2023-12-14T08:19:52Z</time>
      </trkpt>
      <trkpt lat="48.53425" lon="2.05081">
        <ele>127.2</ele>
        <time>2023-12-14T08:19:53Z</time>
      </trkpt>
      <trkpt lat="48.53424" lon="2.0507">
        <ele>127.2</ele>
        <time>2023-12-14T08:19:54Z</time>
      </trkpt>
      <trkpt lat="48.53424" lon="2.0506">
        <ele>127.2</ele>
        <time>2023-12-14T08:19:55Z</time>
      </trkpt>
      <trkpt lat="48.53424" lon="2.05049">
        <ele>126.2</ele>
        <time>2023-12-14T08:19:56Z</time>
      </trkpt>
      <trkpt lat="48.53424" lon="2.05039">
        <ele>126.2</ele>
        <time>2023-12-14T08:19:57Z</time>
      </trkpt>
      <trkpt lat="48.53423" lon="2.05028">
        <ele>126.2</ele>
        <time>2023-12-14T08:19:58Z</time>
      </trkpt>
      <trkpt lat="48.53423" lon="2.05018">
        <ele>125.2</ele>
        <time>2023-12-14T08:19:59Z</time>
      </trkpt>
      <trkpt lat="48.53422" lon="2.05007">
        <ele>123.2</ele>
        <time>2023-12-14T08:20:00Z</time>
      </trkpt>
      <trkpt lat="48.53422" lon="2.04996">
        <ele>123.2</ele>
        <time>2023-12-14T08:20:01Z</time>
      </trkpt>
      <trkpt lat="48.53421" lon="2.04985">
        <ele>123.2</ele>
        <time>2023-12-14T08:20:02Z</time>
      </trkpt>
      <trkpt lat="48.53419" lon="2.04974">
        <ele>123.2</ele>
        <time>2023-12-14T08:20:03Z</time>
      </trkpt>
      <trkpt lat="48.53417" lon="2.04962">
        <ele>120.8</ele>
        <time>2023-12-14T08:20:04Z</time>
      </trkpt>
      <trkpt lat="48.53415" lon="2.04951">
        <ele>120.8</ele>
        <time>2023-12-14T08:20:05Z</time>
      </trkpt>
      <trkpt lat="48.53412" lon="2.04941">
        <ele>120.8</ele>
        <time>2023-12-14T08:20:06Z</time>
      </trkpt>
      <trkpt lat="48.53407" lon="2.04931">
        <ele>120.4</ele>
        <time>2023-12-14T08:20:07Z</time>
      </trkpt>
      <trkpt lat="48.53403" lon="2.04921">
        <ele>119.8</ele>
        <time>2023-12-14T08:20:08Z</time>
      </trkpt>
      <trkpt lat="48.53398" lon="2.04912">
        <ele>119.8</ele>
        <time>2023-12-14T08:20:09Z</time>
      </trkpt>
      <trkpt lat="48.53392" lon="2.04903">
        <ele>119.8</ele>
        <time>2023-12-14T08:20:10Z</time>
      </trkpt>
      <trkpt lat="48.53387" lon="2.04894">
        <ele>118.8</ele>
        <time>2023-12-14T08:20:11Z</time>
      </trkpt>
      <trkpt lat="48.53381" lon="2.04886">
        <ele>117.4</ele>
        <time>2023-12-14T08:20:12Z</time>
      </trkpt>
      <trkpt lat="48.53375" lon="2.04878">
        <ele>117.4</ele>
        <time>2023-12-14T08:20:13Z</time>
      </trkpt>
      <trkpt lat="48.53369" lon="2.04871">
        <ele>117.4</ele>
        <time>2023-12-14T08:20:14Z</time>
      </trkpt>
      <trkpt lat="48.53363" lon="2.04863">
        <ele>116.4</ele>
        <time>2023-12-14T08:20:15Z</time>
      </trkpt>
      <trkpt lat="48.53357" lon="2.04856">
        <ele>115</ele>
        <time>2023-12-14T08:20:16Z</time>
      </trkpt>
      <trkpt lat="48.53351" lon="2.04849">
        <ele>115</ele>
        <time>2023-12-14T08:20:17Z</time>
      </trkpt>
      <trkpt lat="48.53345" lon="2.04842">
        <ele>115</ele>
        <time>2023-12-14T08:20:18Z</time>
      </trkpt>
      <trkpt lat="48.5334" lon="2.04835">
        <ele>115</ele>
        <time>2023-12-14T08:20:19Z</time>
      </trkpt>
      <trkpt lat="48.53334" lon="2.04828">
        <ele>113.2</ele>
        <time>2023-12-14T08:20:20Z</time>
      </trkpt>
      <trkpt lat="48.53329" lon="2.04821">
        <ele>113.2</ele>
        <time>2023-12-14T08:20:21Z</time>
      </trkpt>
      <trkpt lat="48.53323" lon="2.04813">
        <ele>113.2</ele>
        <time>2023-12-14T08:20:22Z</time>
      </trkpt>
      <trkpt lat="48.53318" lon="2.04806">
        <ele>112.2</ele>
        <time>2023-12-14T08:20:23Z</time>
      </trkpt>
      <trkpt lat="48.53312" lon="2.04799">
        <ele>111.6</ele>
        <time>2023-12-14T08:20:24Z</time>
      </trkpt>
      <trkpt lat="48.53307" lon="2.04792">
        <ele>111.6</ele>
        <time>2023-12-14T08:20:25Z</time>
      </trkpt>
      <trkpt lat="48.53302" lon="2.04785">
        <ele>111.6</ele>
        <time>2023-12-14T08:20:26Z</time>
      </trkpt>
      <trkpt lat="48.53297" lon="2.04777">
        <ele>110.6</ele>
        <time>2023-12-14T08:20:27Z</time>
      </trkpt>
      <trkpt lat="48.53292" lon="2.04768">
        <ele>109.4</ele>
        <time>2023-12-14T08:20:28Z</time>
      </trkpt>
      <trkpt lat="48.53288" lon="2.04759">
        <ele>109.4</ele>
        <time>2023-12-14T08:20:29Z</time>
      </trkpt>
      <trkpt lat="48.53284" lon="2.04749">
        <ele>109.4</ele>
        <time>2023-12-14T08:20:30Z</time>
      </trkpt>
      <trkpt lat="48.53281" lon="2.04739">
        <ele>108.4</ele>
        <time>2023-12-14T08:20:31Z</time>
      </trkpt>
      <trkpt lat="48.53279" lon="2.04728">
        <ele>107.8</ele>
        <time>2023-12-14T08:20:32Z</time>
      </trkpt>
      <trkpt lat="48.53277" lon="2.04717">
        <ele>107.8</ele>
        <time>2023-12-14T08:20:33Z</time>
      </trkpt>
      <trkpt lat="48.53275" lon="2.04706">
        <ele>107.8</ele>
        <time>2023-12-14T08:20:34Z</time>
      </trkpt>
      <trkpt lat="48.53274" lon="2.04695">
        <ele>107.8</ele>
        <time>2023-12-14T08:20:35Z</time>
      </trkpt>
      <trkpt lat="48.53273" lon="2.04684">
        <ele>106.6</ele>
        <time>2023-12-14T08:20:36Z</time>
      </trkpt>
      <trkpt lat="48.53272" lon="2.04672">
        <ele>106.6</ele>
        <time>2023-12-14T08:20:37Z</time>
      </trkpt>
      <trkpt lat="48.53271" lon="2.04661">
        <ele>106.6</ele>
        <time>2023-12-14T08:20:38Z</time>
      </trkpt>
      <trkpt lat="48.5327" lon="2.0465">
        <ele>105.6</ele>
        <time>2023-12-14T08:20:39Z</time>
      </trkpt>
      <trkpt lat="48.53269" lon="2.0464">
        <ele>104.8</ele>
        <time>2023-12-14T08:20:40Z</time>
      </trkpt>
      <trkpt lat="48.53269" lon="2.04631">
        <ele>104.8</ele>
        <time>2023-12-14T08:20:41Z</time>
      </trkpt>
      <trkpt lat="48.53268" lon="2.04621">
        <ele>104.8</ele>
        <time>2023-12-14T08:20:42Z</time>
      </trkpt>
      <trkpt lat="48.53269" lon="2.04611">
        <ele>104.8</ele>
        <time>2023-12-14T08:20:43Z</time>
      </trkpt>
      <trkpt lat="48.53269" lon="2.04602">
        <ele>104.2</ele>
        <time>2023-12-14T08:20:44Z</time>
      </trkpt>
      <trkpt lat="48.53269" lon="2.04592">
        <ele>104.2</ele>
        <time>2023-12-14T08:20:45Z</time>
      </trkpt>
      <trkpt lat="48.53268" lon="2.04583">
        <ele>104.2</ele>
        <time>2023-12-14T08:20:46Z</time>
      </trkpt>
      <trkpt lat="48.53267" lon="2.04575">
        <ele>103.6</ele>
        <time>2023-12-14T08:20:47Z</time>
      </trkpt>
      <trkpt lat="48.53265" lon="2.04568">
        <ele>103.4</ele>
        <time>2023-12-14T08:20:48Z</time>
      </trkpt>
      <trkpt lat="48.53262" lon="2.04564">
        <ele>103.4</ele>
        <time>2023-12-14T08:20:49Z</time>
      </trkpt>
      <trkpt lat="48.53258" lon="2.04561">
        <ele>103.4</ele>
        <time>2023-12-14T08:20:50Z</time>
      </trkpt>
      <trkpt lat="48.53255" lon="2.0456">
        <ele>103.8</ele>
        <time>2023-12-14T08:20:51Z</time>
      </trkpt>
      <trkpt lat="48.53252" lon="2.04561">
        <ele>102.8</ele>
        <time>2023-12-14T08:20:52Z</time>
      </trkpt>
      <trkpt lat="48.53247" lon="2.04562">
        <ele>102.8</ele>
        <time>2023-12-14T08:20:53Z</time>
      </trkpt>
      <trkpt lat="48.53242" lon="2.04563">
        <ele>102.8</ele>
        <time>2023-12-14T08:20:54Z</time>
      </trkpt>
      <trkpt lat="48.53237" lon="2.04564">
        <ele>102.8</ele>
        <time>2023-12-14T08:20:55Z</time>
      </trkpt>
      <trkpt lat="48.53231" lon="2.04564">
        <ele>101.4</ele>
        <time>2023-12-14T08:20:56Z</time>
      </trkpt>
      <trkpt lat="48.53225" lon="2.04565">
        <ele>101.4</ele>
        <time>2023-12-14T08:20:57Z</time>
      </trkpt>
      <trkpt lat="48.5322" lon="2.04566">
        <ele>101.4</ele>
        <time>2023-12-14T08:20:58Z</time>
      </trkpt>
      <trkpt lat="48.53214" lon="2.04567">
        <ele>100.4</ele>
        <time>2023-12-14T08:20:59Z</time>
      </trkpt>
      <trkpt lat="48.53208" lon="2.04568">
        <ele>99.2</ele>
        <time>2023-12-14T08:21:00Z</time>
      </trkpt>
      <trkpt lat="48.53203" lon="2.04569">
        <ele>99.2</ele>
        <time>2023-12-14T08:21:01Z</time>
      </trkpt>
      <trkpt lat="48.53198" lon="2.04572">
        <ele>99.2</ele>
        <time>2023-12-14T08:21:02Z</time>
      </trkpt>
      <trkpt lat="48.53193" lon="2.04575">
        <ele>99.2</ele>
        <time>2023-12-14T08:21:03Z</time>
      </trkpt>
      <trkpt lat="48.53188" lon="2.04578">
        <ele>98.6</ele>
        <time>2023-12-14T08:21:04Z</time>
      </trkpt>
      <trkpt lat="48.53183" lon="2.04581">
        <ele>98.6</ele>
        <time>2023-12-14T08:21:05Z</time>
      </trkpt>
      <trkpt lat="48.53177" lon="2.04584">
        <ele>98.6</ele>
        <time>2023-12-14T08:21:06Z</time>
      </trkpt>
      <trkpt lat="48.53173" lon="2.04588">
        <ele>98.6</ele>
        <time>2023-12-14T08:21:07Z</time>
      </trkpt>
      <trkpt lat="48.53168" lon="2.04591">
        <ele>98.6</ele>
        <time>2023-12-14T08:21:08Z</time>
      </trkpt>
      <trkpt lat="48.53163" lon="2.04593">
        <ele>98.6</ele>
        <time>2023-12-14T08:21:09Z</time>
      </trkpt>
      <trkpt lat="48.53158" lon="2.04594">
        <ele>98.6</ele>
        <time>2023-12-14T08:21:10Z</time>
      </trkpt>
      <trkpt lat="48.53153" lon="2.04596">
        <ele>97.6</ele>
        <time>2023-12-14T08:21:11Z</time>
      </trkpt>
      <trkpt lat="48.53148" lon="2.04597">
        <ele>97.6</ele>
        <time>2023-12-14T08:21:12Z</time>
      </trkpt>
      <trkpt lat="48.53144" lon="2.04598">
        <ele>97.6</ele>
        <time>2023-12-14T08:21:13Z</time>
      </trkpt>
      <trkpt lat="48.53139" lon="2.04599">
        <ele>97.6</ele>
        <time>2023-12-14T08:21:14Z</time>
      </trkpt>
      <trkpt lat="48.53135" lon="2.04599">
        <ele>97.8</ele>
        <time>2023-12-14T08:21:15Z</time>
      </trkpt>
      <trkpt lat="48.53131" lon="2.04599">
        <ele>98.4</ele>
        <time>2023-12-14T08:21:16Z</time>
      </trkpt>
      <trkpt lat="48.53127" lon="2.04598">
        <ele>98.4</ele>
        <time>2023-12-14T08:21:17Z</time>
      </trkpt>
      <trkpt lat="48.53122" lon="2.04598">
        <ele>98.4</ele>
        <time>2023-12-14T08:21:18Z</time>
      </trkpt>
      <trkpt lat="48.53117" lon="2.04598">
        <ele>97.6</ele>
        <time>2023-12-14T08:21:19Z</time>
      </trkpt>
      <trkpt lat="48.53112" lon="2.04598">
        <ele>97.6</ele>
        <time>2023-12-14T08:21:20Z</time>
      </trkpt>
      <trkpt lat="48.53107" lon="2.04598">
        <ele>97.6</ele>
        <time>2023-12-14T08:21:21Z</time>
      </trkpt>
      <trkpt lat="48.53101" lon="2.04598">
        <ele>97.6</ele>
        <time>2023-12-14T08:21:22Z</time>
      </trkpt>
      <trkpt lat="48.53096" lon="2.04597">
        <ele>96.6</ele>
        <time>2023-12-14T08:21:23Z</time>
      </trkpt>
      <trkpt lat="48.5309" lon="2.04596">
        <ele>95.6</ele>
        <time>2023-12-14T08:21:24Z</time>
      </trkpt>
      <trkpt lat="48.53085" lon="2.04595">
        <ele>95.6</ele>
        <time>2023-12-14T08:21:25Z</time>
      </trkpt>
      <trkpt lat="48.53079" lon="2.04594">
        <ele>95.6</ele>
        <time>2023-12-14T08:21:26Z</time>
      </trkpt>
      <trkpt lat="48.53073" lon="2.04593">
        <ele>95.4</ele>
        <time>2023-12-14T08:21:27Z</time>
      </trkpt>
      <trkpt lat="48.53067" lon="2.04593">
        <ele>94.6</ele>
        <time>2023-12-14T08:21:28Z</time>
      </trkpt>
      <trkpt lat="48.53061" lon="2.04593">
        <ele>94.6</ele>
        <time>2023-12-14T08:21:29Z</time>
      </trkpt>
      <trkpt lat="48.53055" lon="2.04594">
        <ele>94.6</ele>
        <time>2023-12-14T08:21:30Z</time>
      </trkpt>
      <trkpt lat="48.5305" lon="2.04595">
        <ele>95.6</ele>
        <time>2023-12-14T08:21:31Z</time>
      </trkpt>
      <trkpt lat="48.53045" lon="2.04597">
        <ele>95</ele>
        <time>2023-12-14T08:21:32Z</time>
      </trkpt>
      <trkpt lat="48.53039" lon="2.04599">
        <ele>95</ele>
        <time>2023-12-14T08:21:33Z</time>
      </trkpt>
      <trkpt lat="48.53033" lon="2.04602">
        <ele>95</ele>
        <time>2023-12-14T08:21:34Z</time>
      </trkpt>
      <trkpt lat="48.53028" lon="2.04605">
        <ele>95</ele>
        <time>2023-12-14T08:21:35Z</time>
      </trkpt>
      <trkpt lat="48.53022" lon="2.04608">
        <ele>95.6</ele>
        <time>2023-12-14T08:21:36Z</time>
      </trkpt>
      <trkpt lat="48.53017" lon="2.0461">
        <ele>95.6</ele>
        <time>2023-12-14T08:21:37Z</time>
      </trkpt>
      <trkpt lat="48.53012" lon="2.04613">
        <ele>95.6</ele>
        <time>2023-12-14T08:21:38Z</time>
      </trkpt>
      <trkpt lat="48.53007" lon="2.04615">
        <ele>96.4</ele>
        <time>2023-12-14T08:21:39Z</time>
      </trkpt>
      <trkpt lat="48.53002" lon="2.04617">
        <ele>96.6</ele>
        <time>2023-12-14T08:21:40Z</time>
      </trkpt>
      <trkpt lat="48.52997" lon="2.04619">
        <ele>96.6</ele>
        <time>2023-12-14T08:21:41Z</time>
      </trkpt>
      <trkpt lat="48.52993" lon="2.04621">
        <ele>96.6</ele>
        <time>2023-12-14T08:21:42Z</time>
      </trkpt>
      <trkpt lat="48.52989" lon="2.04622">
        <ele>97</ele>
        <time>2023-12-14T08:21:43Z</time>
      </trkpt>
      <trkpt lat="48.52985" lon="2.04623">
        <ele>97</ele>
        <time>2023-12-14T08:21:44Z</time>
      </trkpt>
      <trkpt lat="48.52981" lon="2.04625">
        <ele>97</ele>
        <time>2023-12-14T08:21:45Z</time>
      </trkpt>
      <trkpt lat="48.52977" lon="2.04625">
        <ele>97</ele>
        <time>2023-12-14T08:21:46Z</time>
      </trkpt>
      <trkpt lat="48.52973" lon="2.04627">
        <ele>97.4</ele>
        <time>2023-12-14T08:21:47Z</time>
      </trkpt>
      <trkpt lat="48.52969" lon="2.04628">
        <ele>98</ele>
        <time>2023-12-14T08:21:48Z</time>
      </trkpt>
      <trkpt lat="48.52966" lon="2.0463">
        <ele>98</ele>
        <time>2023-12-14T08:21:49Z</time>
      </trkpt>
      <trkpt lat="48.52962" lon="2.04631">
        <ele>98</ele>
        <time>2023-12-14T08:21:50Z</time>
      </trkpt>
      <trkpt lat="48.52959" lon="2.04633">
        <ele>98</ele>
        <time>2023-12-14T08:21:51Z</time>
      </trkpt>
      <trkpt lat="48.52956" lon="2.04635">
        <ele>99.4</ele>
        <time>2023-12-14T08:21:52Z</time>
      </trkpt>
      <trkpt lat="48.52953" lon="2.04636">
        <ele>99.4</ele>
        <time>2023-12-14T08:21:53Z</time>
      </trkpt>
      <trkpt lat="48.5295" lon="2.04637">
        <ele>99.4</ele>
        <time>2023-12-14T08:21:54Z</time>
      </trkpt>
      <trkpt lat="48.52948" lon="2.04638">
        <ele>99.4</ele>
        <time>2023-12-14T08:21:55Z</time>
      </trkpt>
      <trkpt lat="48.52946" lon="2.0464">
        <ele>99.8</ele>
        <time>2023-12-14T08:21:56Z</time>
      </trkpt>
      <trkpt lat="48.52947" lon="2.04641">
        <ele>99.8</ele>
        <time>2023-12-14T08:21:57Z</time>
      </trkpt>
      <trkpt lat="48.52947" lon="2.04643">
        <ele>99.8</ele>
        <time>2023-12-14T08:21:58Z</time>
      </trkpt>
      <trkpt lat="48.52949" lon="2.04643">
        <ele>99.8</ele>
        <time>2023-12-14T08:21:59Z</time>
      </trkpt>
      <trkpt lat="48.52951" lon="2.04642">
        <ele>99.4</ele>
        <time>2023-12-14T08:22:00Z</time>
      </trkpt>
      <trkpt lat="48.52953" lon="2.04642">
        <ele>99.4</ele>
        <time>2023-12-14T08:22:01Z</time>
      </trkpt>
      <trkpt lat="48.52956" lon="2.0464">
        <ele>99.4</ele>
        <time>2023-12-14T08:22:02Z</time>
      </trkpt>
      <trkpt lat="48.52959" lon="2.0464">
        <ele>98.8</ele>
        <time>2023-12-14T08:22:03Z</time>
      </trkpt>
      <trkpt lat="48.52963" lon="2.04641">
        <ele>97.8</ele>
        <time>2023-12-14T08:22:04Z</time>
      </trkpt>
      <trkpt lat="48.52966" lon="2.04646">
        <ele>97.8</ele>
        <time>2023-12-14T08:22:05Z</time>
      </trkpt>
      <trkpt lat="48.52968" lon="2.04653">
        <ele>97.8</ele>
        <time>2023-12-14T08:22:06Z</time>
      </trkpt>
      <trkpt lat="48.52969" lon="2.0466">
        <ele>96.8</ele>
        <time>2023-12-14T08:22:07Z</time>
      </trkpt>
      <trkpt lat="48.5297" lon="2.04668">
        <ele>96.6</ele>
        <time>2023-12-14T08:22:08Z</time>
      </trkpt>
      <trkpt lat="48.52971" lon="2.04675">
        <ele>96.6</ele>
        <time>2023-12-14T08:22:09Z</time>
      </trkpt>
      <trkpt lat="48.52971" lon="2.04683">
        <ele>96.6</ele>
        <time>2023-12-14T08:22:10Z</time>
      </trkpt>
      <trkpt lat="48.52972" lon="2.04691">
        <ele>96.6</ele>
        <time>2023-12-14T08:22:11Z</time>
      </trkpt>
      <trkpt lat="48.52973" lon="2.04698">
        <ele>96.6</ele>
        <time>2023-12-14T08:22:12Z</time>
      </trkpt>
      <trkpt lat="48.52974" lon="2.04706">
        <ele>96.6</ele>
        <time>2023-12-14T08:22:13Z</time>
      </trkpt>
      <trkpt lat="48.52974" lon="2.04713">
        <ele>96.6</ele>
        <time>2023-12-14T08:22:14Z</time>
      </trkpt>
      <trkpt lat="48.52975" lon="2.04721">
        <ele>96.6</ele>
        <time>2023-12-14T08:22:15Z</time>
      </trkpt>
      <trkpt lat="48.52975" lon="2.04729">
        <ele>96.8</ele>
        <time>2023-12-14T08:22:16Z</time>
      </trkpt>
      <trkpt lat="48.52975" lon="2.04737">
        <ele>96.8</ele>
        <time>2023-12-14T08:22:17Z</time>
      </trkpt>
      <trkpt lat="48.52975" lon="2.04745">
        <ele>96.8</ele>
        <time>2023-12-14T08:22:18Z</time>
      </trkpt>
      <trkpt lat="48.52975" lon="2.04753">
        <ele>96.6</ele>
        <time>2023-12-14T08:22:19Z</time>
      </trkpt>
      <trkpt lat="48.52974" lon="2.0476">
        <ele>96.6</ele>
        <time>2023-12-14T08:22:20Z</time>
      </trkpt>
      <trkpt lat="48.52974" lon="2.04768">
        <ele>96.6</ele>
        <time>2023-12-14T08:22:21Z</time>
      </trkpt>
      <trkpt lat="48.52973" lon="2.04776">
        <ele>96.6</ele>
        <time>2023-12-14T08:22:22Z</time>
      </trkpt>
      <trkpt lat="48.52973" lon="2.04784">
        <ele>96.6</ele>
        <time>2023-12-14T08:22:23Z</time>
      </trkpt>
      <trkpt lat="48.52972" lon="2.04793">
        <ele>96</ele>
        <time>2023-12-14T08:22:24Z</time>
      </trkpt>
      <trkpt lat="48.52971" lon="2.04801">
        <ele>96</ele>
        <time>2023-12-14T08:22:25Z</time>
      </trkpt>
      <trkpt lat="48.52971" lon="2.04809">
        <ele>96</ele>
        <time>2023-12-14T08:22:26Z</time>
      </trkpt>
      <trkpt lat="48.5297" lon="2.04817">
        <ele>96.2</ele>
        <time>2023-12-14T08:22:27Z</time>
      </trkpt>
      <trkpt lat="48.52969" lon="2.04826">
        <ele>96.2</ele>
        <time>2023-12-14T08:22:28Z</time>
      </trkpt>
      <trkpt lat="48.52969" lon="2.04834">
        <ele>96.2</ele>
        <time>2023-12-14T08:22:29Z</time>
      </trkpt>
      <trkpt lat="48.52968" lon="2.04842">
        <ele>96.2</ele>
        <time>2023-12-14T08:22:30Z</time>
      </trkpt>
      <trkpt lat="48.52968" lon="2.04851">
        <ele>96</ele>
        <time>2023-12-14T08:22:31Z</time>
      </trkpt>
      <trkpt lat="48.52967" lon="2.04859">
        <ele>96</ele>
        <time>2023-12-14T08:22:32Z</time>
      </trkpt>
      <trkpt lat="48.52967" lon="2.04867">
        <ele>96</ele>
        <time>2023-12-14T08:22:33Z</time>
      </trkpt>
      <trkpt lat="48.52967" lon="2.04875">
        <ele>96</ele>
        <time>2023-12-14T08:22:34Z</time>
      </trkpt>
      <trkpt lat="48.52966" lon="2.04883">
        <ele>96.6</ele>
        <time>2023-12-14T08:22:35Z</time>
      </trkpt>
      <trkpt lat="48.52966" lon="2.04892">
        <ele>96.6</ele>
        <time>2023-12-14T08:22:36Z</time>
      </trkpt>
      <trkpt lat="48.52966" lon="2.049">
        <ele>96.6</ele>
        <time>2023-12-14T08:22:37Z</time>
      </trkpt>
      <trkpt lat="48.52966" lon="2.04907">
        <ele>96.6</ele>
        <time>2023-12-14T08:22:38Z</time>
      </trkpt>
      <trkpt lat="48.52965" lon="2.04915">
        <ele>96.6</ele>
        <time>2023-12-14T08:22:39Z</time>
      </trkpt>
      <trkpt lat="48.52965" lon="2.04923">
        <ele>96</ele>
        <time>2023-12-14T08:22:40Z</time>
      </trkpt>
      <trkpt lat="48.52964" lon="2.04931">
        <ele>96</ele>
        <time>2023-12-14T08:22:41Z</time>
      </trkpt>
      <trkpt lat="48.52964" lon="2.04939">
        <ele>96</ele>
        <time>2023-12-14T08:22:42Z</time>
      </trkpt>
      <trkpt lat="48.52964" lon="2.04947">
        <ele>96</ele>
        <time>2023-12-14T08:22:43Z</time>
      </trkpt>
      <trkpt lat="48.52963" lon="2.04956">
        <ele>96.6</ele>
        <time>2023-12-14T08:22:44Z</time>
      </trkpt>
      <trkpt lat="48.52962" lon="2.04964">
        <ele>96.6</ele>
        <time>2023-12-14T08:22:45Z</time>
      </trkpt>
      <trkpt lat="48.52962" lon="2.04972">
        <ele>96.6</ele>
        <time>2023-12-14T08:22:46Z</time>
      </trkpt>
      <trkpt lat="48.52961" lon="2.0498">
        <ele>96.6</ele>
        <time>2023-12-14T08:22:47Z</time>
      </trkpt>
      <trkpt lat="48.5296" lon="2.04989">
        <ele>95.8</ele>
        <time>2023-12-14T08:22:48Z</time>
      </trkpt>
      <trkpt lat="48.52959" lon="2.04997">
        <ele>95.8</ele>
        <time>2023-12-14T08:22:49Z</time>
      </trkpt>
      <trkpt lat="48.52958" lon="2.05005">
        <ele>95.8</ele>
        <time>2023-12-14T08:22:50Z</time>
      </trkpt>
      <trkpt lat="48.52958" lon="2.05013">
        <ele>96.2</ele>
        <time>2023-12-14T08:22:51Z</time>
      </trkpt>
      <trkpt lat="48.52957" lon="2.05022">
        <ele>96.2</ele>
        <time>2023-12-14T08:22:52Z</time>
      </trkpt>
      <trkpt lat="48.52956" lon="2.0503">
        <ele>96.2</ele>
        <time>2023-12-14T08:22:53Z</time>
      </trkpt>
      <trkpt lat="48.52956" lon="2.05038">
        <ele>96.2</ele>
        <time>2023-12-14T08:22:54Z</time>
      </trkpt>
      <trkpt lat="48.52955" lon="2.05046">
        <ele>95.8</ele>
        <time>2023-12-14T08:22:55Z</time>
      </trkpt>
      <trkpt lat="48.52955" lon="2.05055">
        <ele>96</ele>
        <time>2023-12-14T08:22:56Z</time>
      </trkpt>
      <trkpt lat="48.52955" lon="2.05063">
        <ele>96</ele>
        <time>2023-12-14T08:22:57Z</time>
      </trkpt>
      <trkpt lat="48.52955" lon="2.05071">
        <ele>96</ele>
        <time>2023-12-14T08:22:58Z</time>
      </trkpt>
      <trkpt lat="48.52955" lon="2.05079">
        <ele>96</ele>
        <time>2023-12-14T08:22:59Z</time>
      </trkpt>
      <trkpt lat="48.52955" lon="2.05088">
        <ele>96.2</ele>
        <time>2023-12-14T08:23:00Z</time>
      </trkpt>
      <trkpt lat="48.52955" lon="2.05096">
        <ele>96.2</ele>
        <time>2023-12-14T08:23:01Z</time>
      </trkpt>
      <trkpt lat="48.52956" lon="2.05104">
        <ele>96.2</ele>
        <time>2023-12-14T08:23:02Z</time>
      </trkpt>
      <trkpt lat="48.52956" lon="2.05112">
        <ele>96.2</ele>
        <time>2023-12-14T08:23:03Z</time>
      </trkpt>
      <trkpt lat="48.52957" lon="2.0512">
        <ele>96.6</ele>
        <time>2023-12-14T08:23:04Z</time>
      </trkpt>
      <trkpt lat="48.52958" lon="2.05128">
        <ele>96.6</ele>
        <time>2023-12-14T08:23:05Z</time>
      </trkpt>
      <trkpt lat="48.52959" lon="2.05136">
        <ele>96.6</ele>
        <time>2023-12-14T08:23:06Z</time>
      </trkpt>
      <trkpt lat="48.52961" lon="2.05143">
        <ele>96.6</ele>
        <time>2023-12-14T08:23:07Z</time>
      </trkpt>
      <trkpt lat="48.52962" lon="2.05151">
        <ele>95.8</ele>
        <time>2023-12-14T08:23:08Z</time>
      </trkpt>
      <trkpt lat="48.52963" lon="2.05158">
        <ele>95.8</ele>
        <time>2023-12-14T08:23:09Z</time>
      </trkpt>
      <trkpt lat="48.52965" lon="2.05166">
        <ele>95.8</ele>
        <time>2023-12-14T08:23:10Z</time>
      </trkpt>
      <trkpt lat="48.52966" lon="2.05173">
        <ele>96.8</ele>
        <time>2023-12-14T08:23:11Z</time>
      </trkpt>
      <trkpt lat="48.52967" lon="2.0518">
        <ele>96.6</ele>
        <time>2023-12-14T08:23:12Z</time>
      </trkpt>
      <trkpt lat="48.52968" lon="2.05188">
        <ele>96.6</ele>
        <time>2023-12-14T08:23:13Z</time>
      </trkpt>
      <trkpt lat="48.52969" lon="2.05195">
        <ele>96.6</ele>
        <time>2023-12-14T08:23:14Z</time>
      </trkpt>
      <trkpt lat="48.5297" lon="2.05203">
        <ele>95.6</ele>
        <time>2023-12-14T08:23:15Z</time>
      </trkpt>
      <trkpt lat="48.52971" lon="2.0521">
        <ele>95.6</ele>
        <time>2023-12-14T08:23:16Z</time>
      </trkpt>
      <trkpt lat="48.52972" lon="2.05218">
        <ele>95.6</ele>
        <time>2023-12-14T08:23:17Z</time>
      </trkpt>
      <trkpt lat="48.52973" lon="2.05225">
        <ele>95.6</ele>
        <time>2023-12-14T08:23:18Z</time>
      </trkpt>
      <trkpt lat="48.52974" lon="2.05232">
        <ele>96</ele>
        <time>2023-12-14T08:23:19Z</time>
      </trkpt>
      <trkpt lat="48.52974" lon="2.05239">
        <ele>95.8</ele>
        <time>2023-12-14T08:23:20Z</time>
      </trkpt>
      <trkpt lat="48.52975" lon="2.05247">
        <ele>95.8</ele>
        <time>2023-12-14T08:23:21Z</time>
      </trkpt>
      <trkpt lat="48.52976" lon="2.05254">
        <ele>95.8</ele>
        <time>2023-12-14T08:23:22Z</time>
      </trkpt>
      <trkpt lat="48.52977" lon="2.05262">
        <ele>94.8</ele>
        <time>2023-12-14T08:23:23Z</time>
      </trkpt>
      <trkpt lat="48.52978" lon="2.0527">
        <ele>94.6</ele>
        <time>2023-12-14T08:23:24Z</time>
      </trkpt>
      <trkpt lat="48.52979" lon="2.05277">
        <ele>94.6</ele>
        <time>2023-12-14T08:23:25Z</time>
      </trkpt>
      <trkpt lat="48.52981" lon="2.05285">
        <ele>94.6</ele>
        <time>2023-12-14T08:23:26Z</time>
      </trkpt>
      <trkpt lat="48.52982" lon="2.05293">
        <ele>94.6</ele>
        <time>2023-12-14T08:23:27Z</time>
      </trkpt>
      <trkpt lat="48.52983" lon="2.05301">
        <ele>94.2</ele>
        <time>2023-12-14T08:23:28Z</time>
      </trkpt>
      <trkpt lat="48.52984" lon="2.05309">
        <ele>94.2</ele>
        <time>2023-12-14T08:23:29Z</time>
      </trkpt>
      <trkpt lat="48.52985" lon="2.05316">
        <ele>94.2</ele>
        <time>2023-12-14T08:23:30Z</time>
      </trkpt>
      <trkpt lat="48.52985" lon="2.05324">
        <ele>95</ele>
        <time>2023-12-14T08:23:31Z</time>
      </trkpt>
      <trkpt lat="48.52986" lon="2.0533">
        <ele>95.2</ele>
        <time>2023-12-14T08:23:32Z</time>
      </trkpt>
      <trkpt lat="48.52987" lon="2.05337">
        <ele>95.2</ele>
        <time>2023-12-14T08:23:33Z</time>
      </trkpt>
      <trkpt lat="48.52987" lon="2.05344">
        <ele>95.2</ele>
        <time>2023-12-14T08:23:34Z</time>
      </trkpt>
      <trkpt lat="48.52988" lon="2.05351">
        <ele>95.2</ele>
        <time>2023-12-14T08:23:35Z</time>
      </trkpt>
      <trkpt lat="48.52988" lon="2.05358">
        <ele>95</ele>
        <time>2023-12-14T08:23:36Z</time>
      </trkpt>
      <trkpt lat="48.52989" lon="2.05364">
        <ele>95</ele>
        <time>2023-12-14T08:23:37Z</time>
      </trkpt>
      <trkpt lat="48.52989" lon="2.05371">
        <ele>95</ele>
        <time>2023-12-14T08:23:38Z</time>
      </trkpt>
      <trkpt lat="48.52989" lon="2.05378">
        <ele>96</ele>
        <time>2023-12-14T08:23:39Z</time>
      </trkpt>
      <trkpt lat="48.5299" lon="2.05384">
        <ele>95.2</ele>
        <time>2023-12-14T08:23:40Z</time>
      </trkpt>
      <trkpt lat="48.52991" lon="2.0539">
        <ele>95.2</ele>
        <time>2023-12-14T08:23:41Z</time>
      </trkpt>
      <trkpt lat="48.52991" lon="2.05396">
        <ele>95.2</ele>
        <time>2023-12-14T08:23:42Z</time>
      </trkpt>
      <trkpt lat="48.52992" lon="2.05401">
        <ele>95.2</ele>
        <time>2023-12-14T08:23:43Z</time>
      </trkpt>
      <trkpt lat="48.52993" lon="2.05407">
        <ele>95.6</ele>
        <time>2023-12-14T08:23:44Z</time>
      </trkpt>
      <trkpt lat="48.52993" lon="2.05414">
        <ele>95.6</ele>
        <time>2023-12-14T08:23:45Z</time>
      </trkpt>
      <trkpt lat="48.52994" lon="2.0542">
        <ele>95.6</ele>
        <time>2023-12-14T08:23:46Z</time>
      </trkpt>
      <trkpt lat="48.52994" lon="2.05426">
        <ele>95.6</ele>
        <time>2023-12-14T08:23:47Z</time>
      </trkpt>
      <trkpt lat="48.52995" lon="2.05432">
        <ele>96</ele>
        <time>2023-12-14T08:23:48Z</time>
      </trkpt>
      <trkpt lat="48.52996" lon="2.05437">
        <ele>96</ele>
        <time>2023-12-14T08:23:49Z</time>
      </trkpt>
      <trkpt lat="48.52996" lon="2.05443">
        <ele>96</ele>
        <time>2023-12-14T08:23:50Z</time>
      </trkpt>
      <trkpt lat="48.52997" lon="2.05448">
        <ele>96.4</ele>
        <time>2023-12-14T08:23:51Z</time>
      </trkpt>
      <trkpt lat="48.52998" lon="2.05454">
        <ele>96.4</ele>
        <time>2023-12-14T08:23:52Z</time>
      </trkpt>
      <trkpt lat="48.52999" lon="2.05459">
        <ele>96.4</ele>
        <time>2023-12-14T08:23:53Z</time>
      </trkpt>
      <trkpt lat="48.53" lon="2.05465">
        <ele>96.4</ele>
        <time>2023-12-14T08:23:54Z</time>
      </trkpt>
      <trkpt lat="48.53001" lon="2.05471">
        <ele>96.4</ele>
        <time>2023-12-14T08:23:55Z</time>
      </trkpt>
      <trkpt lat="48.53002" lon="2.05477">
        <ele>96.6</ele>
        <time>2023-12-14T08:23:56Z</time>
      </trkpt>
      <trkpt lat="48.53003" lon="2.05482">
        <ele>96.6</ele>
        <time>2023-12-14T08:23:57Z</time>
      </trkpt>
      <trkpt lat="48.53003" lon="2.05488">
        <ele>96.6</ele>
        <time>2023-12-14T08:23:58Z</time>
      </trkpt>
      <trkpt lat="48.53004" lon="2.05494">
        <ele>96.6</ele>
        <time>2023-12-14T08:23:59Z</time>
      </trkpt>
      <trkpt lat="48.53005" lon="2.055">
        <ele>96.6</ele>
        <time>2023-12-14T08:24:00Z</time>
      </trkpt>
      <trkpt lat="48.53005" lon="2.05506">
        <ele>96.6</ele>
        <time>2023-12-14T08:24:01Z</time>
      </trkpt>
      <trkpt lat="48.53005" lon="2.05512">
        <ele>96.6</ele>
        <time>2023-12-14T08:24:02Z</time>
      </trkpt>
      <trkpt lat="48.53005" lon="2.05518">
        <ele>97</ele>
        <time>2023-12-14T08:24:03Z</time>
      </trkpt>
      <trkpt lat="48.53005" lon="2.05523">
        <ele>97</ele>
        <time>2023-12-14T08:24:04Z</time>
      </trkpt>
      <trkpt lat="48.53006" lon="2.05529">
        <ele>97</ele>
        <time>2023-12-14T08:24:05Z</time>
      </trkpt>
      <trkpt lat="48.53006" lon="2.05536">
        <ele>97</ele>
        <time>2023-12-14T08:24:06Z</time>
      </trkpt>
      <trkpt lat="48.53007" lon="2.05542">
        <ele>97</ele>
        <time>2023-12-14T08:24:07Z</time>
      </trkpt>
      <trkpt lat="48.53007" lon="2.05548">
        <ele>97.6</ele>
        <time>2023-12-14T08:24:08Z</time>
      </trkpt>
      <trkpt lat="48.53008" lon="2.05555">
        <ele>97.6</ele>
        <time>2023-12-14T08:24:09Z</time>
      </trkpt>
      <trkpt lat="48.53008" lon="2.05562">
        <ele>97.6</ele>
        <time>2023-12-14T08:24:10Z</time>
      </trkpt>
      <trkpt lat="48.53009" lon="2.0557">
        <ele>97.6</ele>
        <time>2023-12-14T08:24:11Z</time>
      </trkpt>
      <trkpt lat="48.53009" lon="2.05577">
        <ele>97</ele>
        <time>2023-12-14T08:24:12Z</time>
      </trkpt>
      <trkpt lat="48.5301" lon="2.05584">
        <ele>97</ele>
        <time>2023-12-14T08:24:13Z</time>
      </trkpt>
      <trkpt lat="48.5301" lon="2.05592">
        <ele>97</ele>
        <time>2023-12-14T08:24:14Z</time>
      </trkpt>
      <trkpt lat="48.53011" lon="2.05599">
        <ele>97.4</ele>
        <time>2023-12-14T08:24:15Z</time>
      </trkpt>
      <trkpt lat="48.53011" lon="2.05607">
        <ele>97.4</ele>
        <time>2023-12-14T08:24:16Z</time>
      </trkpt>
      <trkpt lat="48.5301" lon="2.05614">
        <ele>97.4</ele>
        <time>2023-12-14T08:24:17Z</time>
      </trkpt>
      <trkpt lat="48.53011" lon="2.05621">
        <ele>97.4</ele>
        <time>2023-12-14T08:24:18Z</time>
      </trkpt>
      <trkpt lat="48.53011" lon="2.05629">
        <ele>97.4</ele>
        <time>2023-12-14T08:24:19Z</time>
      </trkpt>
      <trkpt lat="48.53012" lon="2.05636">
        <ele>97.8</ele>
        <time>2023-12-14T08:24:20Z</time>
      </trkpt>
      <trkpt lat="48.53012" lon="2.05644">
        <ele>97.8</ele>
        <time>2023-12-14T08:24:21Z</time>
      </trkpt>
      <trkpt lat="48.53012" lon="2.0565">
        <ele>97.8</ele>
        <time>2023-12-14T08:24:22Z</time>
      </trkpt>
      <trkpt lat="48.53012" lon="2.05657">
        <ele>98.4</ele>
        <time>2023-12-14T08:24:23Z</time>
      </trkpt>
      <trkpt lat="48.53013" lon="2.05664">
        <ele>98.4</ele>
        <time>2023-12-14T08:24:24Z</time>
      </trkpt>
      <trkpt lat="48.53013" lon="2.0567">
        <ele>98.4</ele>
        <time>2023-12-14T08:24:25Z</time>
      </trkpt>
      <trkpt lat="48.53014" lon="2.05676">
        <ele>98.4</ele>
        <time>2023-12-14T08:24:26Z</time>
      </trkpt>
      <trkpt lat="48.53015" lon="2.05684">
        <ele>97.8</ele>
        <time>2023-12-14T08:24:27Z</time>
      </trkpt>
      <trkpt lat="48.53016" lon="2.0569">
        <ele>98</ele>
        <time>2023-12-14T08:24:28Z</time>
      </trkpt>
      <trkpt lat="48.53016" lon="2.05697">
        <ele>98</ele>
        <time>2023-12-14T08:24:29Z</time>
      </trkpt>
      <trkpt lat="48.53017" lon="2.05704">
        <ele>98</ele>
        <time>2023-12-14T08:24:30Z</time>
      </trkpt>
      <trkpt lat="48.53017" lon="2.05711">
        <ele>98</ele>
        <time>2023-12-14T08:24:31Z</time>
      </trkpt>
      <trkpt lat="48.53017" lon="2.05718">
        <ele>98.4</ele>
        <time>2023-12-14T08:24:32Z</time>
      </trkpt>
      <trkpt lat="48.53018" lon="2.05724">
        <ele>98.4</ele>
        <time>2023-12-14T08:24:33Z</time>
      </trkpt>
      <trkpt lat="48.53018" lon="2.05731">
        <ele>98.4</ele>
        <time>2023-12-14T08:24:34Z</time>
      </trkpt>
      <trkpt lat="48.5302" lon="2.05737">
        <ele>98.4</ele>
        <time>2023-12-14T08:24:35Z</time>
      </trkpt>
      <trkpt lat="48.53021" lon="2.05744">
        <ele>98</ele>
        <time>2023-12-14T08:24:36Z</time>
      </trkpt>
      <trkpt lat="48.53022" lon="2.05751">
        <ele>98</ele>
        <time>2023-12-14T08:24:37Z</time>
      </trkpt>
      <trkpt lat="48.53023" lon="2.0576">
        <ele>98</ele>
        <time>2023-12-14T08:24:38Z</time>
      </trkpt>
      <trkpt lat="48.53023" lon="2.05769">
        <ele>98</ele>
        <time>2023-12-14T08:24:39Z</time>
      </trkpt>
      <trkpt lat="48.53024" lon="2.05777">
        <ele>98.8</ele>
        <time>2023-12-14T08:24:40Z</time>
      </trkpt>
      <trkpt lat="48.53024" lon="2.05784">
        <ele>98.8</ele>
        <time>2023-12-14T08:24:41Z</time>
      </trkpt>
      <trkpt lat="48.53024" lon="2.05791">
        <ele>98.8</ele>
        <time>2023-12-14T08:24:42Z</time>
      </trkpt>
      <trkpt lat="48.53024" lon="2.05797">
        <ele>98.8</ele>
        <time>2023-12-14T08:24:43Z</time>
      </trkpt>
      <trkpt lat="48.53024" lon="2.05804">
        <ele>99</ele>
        <time>2023-12-14T08:24:44Z</time>
      </trkpt>
      <trkpt lat="48.53022" lon="2.0581">
        <ele>99</ele>
        <time>2023-12-14T08:24:45Z</time>
      </trkpt>
      <trkpt lat="48.53021" lon="2.05817">
        <ele>99</ele>
        <time>2023-12-14T08:24:46Z</time>
      </trkpt>
      <trkpt lat="48.5302" lon="2.05823">
        <ele>99.4</ele>
        <time>2023-12-14T08:24:47Z</time>
      </trkpt>
      <trkpt lat="48.53019" lon="2.05829">
        <ele>100</ele>
        <time>2023-12-14T08:24:48Z</time>
      </trkpt>
      <trkpt lat="48.53018" lon="2.05834">
        <ele>100</ele>
        <time>2023-12-14T08:24:49Z</time>
      </trkpt>
      <trkpt lat="48.53017" lon="2.05839">
        <ele>100</ele>
        <time>2023-12-14T08:24:50Z</time>
      </trkpt>
      <trkpt lat="48.53016" lon="2.05844">
        <ele>99.6</ele>
        <time>2023-12-14T08:24:51Z</time>
      </trkpt>
      <trkpt lat="48.53014" lon="2.0585">
        <ele>99.4</ele>
        <time>2023-12-14T08:24:52Z</time>
      </trkpt>
      <trkpt lat="48.53012" lon="2.05855">
        <ele>99.4</ele>
        <time>2023-12-14T08:24:53Z</time>
      </trkpt>
      <trkpt lat="48.53009" lon="2.05861">
        <ele>99.4</ele>
        <time>2023-12-14T08:24:54Z</time>
      </trkpt>
      <trkpt lat="48.53007" lon="2.05866">
        <ele>100</ele>
        <time>2023-12-14T08:24:55Z</time>
      </trkpt>
      <trkpt lat="48.53005" lon="2.05869">
        <ele>100.2</ele>
        <time>2023-12-14T08:24:56Z</time>
      </trkpt>
      <trkpt lat="48.53003" lon="2.05874">
        <ele>100.2</ele>
        <time>2023-12-14T08:24:57Z</time>
      </trkpt>
      <trkpt lat="48.53001" lon="2.05879">
        <ele>100.2</ele>
        <time>2023-12-14T08:24:58Z</time>
      </trkpt>
      <trkpt lat="48.52999" lon="2.05884">
        <ele>100.4</ele>
        <time>2023-12-14T08:24:59Z</time>
      </trkpt>
      <trkpt lat="48.52996" lon="2.05889">
        <ele>100.8</ele>
        <time>2023-12-14T08:25:00Z</time>
      </trkpt>
      <trkpt lat="48.52994" lon="2.05892">
        <ele>100.8</ele>
        <time>2023-12-14T08:25:01Z</time>
      </trkpt>
      <trkpt lat="48.52992" lon="2.05896">
        <ele>100.8</ele>
        <time>2023-12-14T08:25:02Z</time>
      </trkpt>
      <trkpt lat="48.5299" lon="2.05901">
        <ele>101.4</ele>
        <time>2023-12-14T08:25:03Z</time>
      </trkpt>
      <trkpt lat="48.52988" lon="2.05904">
        <ele>101.4</ele>
        <time>2023-12-14T08:25:04Z</time>
      </trkpt>
      <trkpt lat="48.52985" lon="2.05908">
        <ele>101.4</ele>
        <time>2023-12-14T08:25:05Z</time>
      </trkpt>
      <trkpt lat="48.52983" lon="2.05911">
        <ele>101.4</ele>
        <time>2023-12-14T08:25:06Z</time>
      </trkpt>
      <trkpt lat="48.52982" lon="2.05917">
        <ele>102</ele>
        <time>2023-12-14T08:25:07Z</time>
      </trkpt>
      <trkpt lat="48.52981" lon="2.05921">
        <ele>102.2</ele>
        <time>2023-12-14T08:25:08Z</time>
      </trkpt>
      <trkpt lat="48.5298" lon="2.05927">
        <ele>102.2</ele>
        <time>2023-12-14T08:25:09Z</time>
      </trkpt>
      <trkpt lat="48.52978" lon="2.05932">
        <ele>102.2</ele>
        <time>2023-12-14T08:25:10Z</time>
      </trkpt>
      <trkpt lat="48.52976" lon="2.05935">
        <ele>103</ele>
        <time>2023-12-14T08:25:11Z</time>
      </trkpt>
      <trkpt lat="48.52975" lon="2.05937">
        <ele>102.6</ele>
        <time>2023-12-14T08:25:12Z</time>
      </trkpt>
      <trkpt lat="48.52973" lon="2.05942">
        <ele>102.6</ele>
        <time>2023-12-14T08:25:13Z</time>
      </trkpt>
      <trkpt lat="48.52971" lon="2.05946">
        <ele>102.6</ele>
        <time>2023-12-14T08:25:14Z</time>
      </trkpt>
      <trkpt lat="48.5297" lon="2.05951">
        <ele>103.6</ele>
        <time>2023-12-14T08:25:15Z</time>
      </trkpt>
      <trkpt lat="48.52968" lon="2.05955">
        <ele>103.8</ele>
        <time>2023-12-14T08:25:16Z</time>
      </trkpt>
      <trkpt lat="48.52968" lon="2.05958">
        <ele>103.8</ele>
        <time>2023-12-14T08:25:17Z</time>
      </trkpt>
      <trkpt lat="48.52968" lon="2.05964">
        <ele>103.8</ele>
        <time>2023-12-14T08:25:18Z</time>
      </trkpt>
      <trkpt lat="48.52967" lon="2.05969">
        <ele>103.8</ele>
        <time>2023-12-14T08:25:19Z</time>
      </trkpt>
      <trkpt lat="48.52966" lon="2.05974">
        <ele>104.4</ele>
        <time>2023-12-14T08:25:20Z</time>
      </trkpt>
      <trkpt lat="48.52965" lon="2.05978">
        <ele>104.4</ele>
        <time>2023-12-14T08:25:21Z</time>
      </trkpt>
      <trkpt lat="48.52964" lon="2.05981">
        <ele>104.4</ele>
        <time>2023-12-14T08:25:22Z</time>
      </trkpt>
      <trkpt lat="48.52963" lon="2.05985">
        <ele>104.8</ele>
        <time>2023-12-14T08:25:23Z</time>
      </trkpt>
      <trkpt lat="48.52963" lon="2.05991">
        <ele>105.4</ele>
        <time>2023-12-14T08:25:24Z</time>
      </trkpt>
      <trkpt lat="48.52962" lon="2.05995">
        <ele>105.4</ele>
        <time>2023-12-14T08:25:25Z</time>
      </trkpt>
      <trkpt lat="48.52962" lon="2.06">
        <ele>105.4</ele>
        <time>2023-12-14T08:25:26Z</time>
      </trkpt>
      <trkpt lat="48.52961" lon="2.06004">
        <ele>105.4</ele>
        <time>2023-12-14T08:25:27Z</time>
      </trkpt>
      <trkpt lat="48.52961" lon="2.0601">
        <ele>105.8</ele>
        <time>2023-12-14T08:25:28Z</time>
      </trkpt>
      <trkpt lat="48.5296" lon="2.06017">
        <ele>105.8</ele>
        <time>2023-12-14T08:25:29Z</time>
      </trkpt>
      <trkpt lat="48.5296" lon="2.06021">
        <ele>105.8</ele>
        <time>2023-12-14T08:25:30Z</time>
      </trkpt>
      <trkpt lat="48.5296" lon="2.06026">
        <ele>106.4</ele>
        <time>2023-12-14T08:25:31Z</time>
      </trkpt>
      <trkpt lat="48.52959" lon="2.06031">
        <ele>106.4</ele>
        <time>2023-12-14T08:25:32Z</time>
      </trkpt>
      <trkpt lat="48.52959" lon="2.06037">
        <ele>106.4</ele>
        <time>2023-12-14T08:25:33Z</time>
      </trkpt>
      <trkpt lat="48.52959" lon="2.06042">
        <ele>106.4</ele>
        <time>2023-12-14T08:25:34Z</time>
      </trkpt>
      <trkpt lat="48.52959" lon="2.06047">
        <ele>107</ele>
        <time>2023-12-14T08:25:35Z</time>
      </trkpt>
      <trkpt lat="48.52958" lon="2.06052">
        <ele>107.2</ele>
        <time>2023-12-14T08:25:36Z</time>
      </trkpt>
      <trkpt lat="48.52958" lon="2.06057">
        <ele>107.2</ele>
        <time>2023-12-14T08:25:37Z</time>
      </trkpt>
      <trkpt lat="48.52958" lon="2.06062">
        <ele>107.2</ele>
        <time>2023-12-14T08:25:38Z</time>
      </trkpt>
      <trkpt lat="48.52958" lon="2.06068">
        <ele>107.6</ele>
        <time>2023-12-14T08:25:39Z</time>
      </trkpt>
      <trkpt lat="48.52958" lon="2.06073">
        <ele>108</ele>
        <time>2023-12-14T08:25:40Z</time>
      </trkpt>
      <trkpt lat="48.52958" lon="2.06078">
        <ele>108</ele>
        <time>2023-12-14T08:25:41Z</time>
      </trkpt>
      <trkpt lat="48.52958" lon="2.06083">
        <ele>108</ele>
        <time>2023-12-14T08:25:42Z</time>
      </trkpt>
      <trkpt lat="48.52956" lon="2.06088">
        <ele>108</ele>
        <time>2023-12-14T08:25:43Z</time>
      </trkpt>
      <trkpt lat="48.52956" lon="2.06093">
        <ele>108.6</ele>
        <time>2023-12-14T08:25:44Z</time>
      </trkpt>
      <trkpt lat="48.52955" lon="2.06097">
        <ele>108.6</ele>
        <time>2023-12-14T08:25:45Z</time>
      </trkpt>
      <trkpt lat="48.52954" lon="2.06101">
        <ele>108.6</ele>
        <time>2023-12-14T08:25:46Z</time>
      </trkpt>
      <trkpt lat="48.52953" lon="2.06105">
        <ele>109.6</ele>
        <time>2023-12-14T08:25:47Z</time>
      </trkpt>
      <trkpt lat="48.52953" lon="2.0611">
        <ele>109.8</ele>
        <time>2023-12-14T08:25:48Z</time>
      </trkpt>
      <trkpt lat="48.52952" lon="2.06115">
        <ele>109.8</ele>
        <time>2023-12-14T08:25:49Z</time>
      </trkpt>
      <trkpt lat="48.52951" lon="2.06119">
        <ele>109.8</ele>
        <time>2023-12-14T08:25:50Z</time>
      </trkpt>
      <trkpt lat="48.52949" lon="2.06123">
        <ele>110.2</ele>
        <time>2023-12-14T08:25:51Z</time>
      </trkpt>
      <trkpt lat="48.52947" lon="2.06128">
        <ele>110.8</ele>
        <time>2023-12-14T08:25:52Z</time>
      </trkpt>
      <trkpt lat="48.52946" lon="2.0613">
        <ele>110.8</ele>
        <time>2023-12-14T08:25:53Z</time>
      </trkpt>
      <trkpt lat="48.52943" lon="2.06134">
        <ele>110.8</ele>
        <time>2023-12-14T08:25:54Z</time>
      </trkpt>
      <trkpt lat="48.52941" lon="2.06137">
        <ele>111.6</ele>
        <time>2023-12-14T08:25:55Z</time>
      </trkpt>
      <trkpt lat="48.52939" lon="2.0614">
        <ele>111.8</ele>
        <time>2023-12-14T08:25:56Z</time>
      </trkpt>
      <trkpt lat="48.52937" lon="2.06144">
        <ele>111.8</ele>
        <time>2023-12-14T08:25:57Z</time>
      </trkpt>
      <trkpt lat="48.52934" lon="2.06146">
        <ele>111.8</ele>
        <time>2023-12-14T08:25:58Z</time>
      </trkpt>
      <trkpt lat="48.52932" lon="2.06149">
        <ele>111.8</ele>
        <time>2023-12-14T08:25:59Z</time>
      </trkpt>
      <trkpt lat="48.52929" lon="2.06152">
        <ele>112.2</ele>
        <time>2023-12-14T08:26:00Z</time>
      </trkpt>
      <trkpt lat="48.52927" lon="2.06154">
        <ele>112.2</ele>
        <time>2023-12-14T08:26:01Z</time>
      </trkpt>
      <trkpt lat="48.52924" lon="2.06155">
        <ele>112.2</ele>
        <time>2023-12-14T08:26:02Z</time>
      </trkpt>
      <trkpt lat="48.52922" lon="2.06155">
        <ele>113</ele>
        <time>2023-12-14T08:26:03Z</time>
      </trkpt>
      <trkpt lat="48.52919" lon="2.06157">
        <ele>113</ele>
        <time>2023-12-14T08:26:04Z</time>
      </trkpt>
      <trkpt lat="48.52916" lon="2.06158">
        <ele>113</ele>
        <time>2023-12-14T08:26:05Z</time>
      </trkpt>
      <trkpt lat="48.52914" lon="2.06158">
        <ele>113</ele>
        <time>2023-12-14T08:26:06Z</time>
      </trkpt>
      <trkpt lat="48.52911" lon="2.06159">
        <ele>113</ele>
        <time>2023-12-14T08:26:07Z</time>
      </trkpt>
      <trkpt lat="48.52908" lon="2.06158">
        <ele>113.4</ele>
        <time>2023-12-14T08:26:08Z</time>
      </trkpt>
      <trkpt lat="48.52906" lon="2.06159">
        <ele>113.4</ele>
        <time>2023-12-14T08:26:09Z</time>
      </trkpt>
      <trkpt lat="48.52903" lon="2.06158">
        <ele>113.4</ele>
        <time>2023-12-14T08:26:10Z</time>
      </trkpt>
      <trkpt lat="48.529" lon="2.06158">
        <ele>113.4</ele>
        <time>2023-12-14T08:26:11Z</time>
      </trkpt>
      <trkpt lat="48.52899" lon="2.06159">
        <ele>114.2</ele>
        <time>2023-12-14T08:26:12Z</time>
      </trkpt>
      <trkpt lat="48.52896" lon="2.06159">
        <ele>114.2</ele>
        <time>2023-12-14T08:26:13Z</time>
      </trkpt>
      <trkpt lat="48.52893" lon="2.06159">
        <ele>114.2</ele>
        <time>2023-12-14T08:26:14Z</time>
      </trkpt>
      <trkpt lat="48.52891" lon="2.06159">
        <ele>114.8</ele>
        <time>2023-12-14T08:26:15Z</time>
      </trkpt>
      <trkpt lat="48.52888" lon="2.06159">
        <ele>114.8</ele>
        <time>2023-12-14T08:26:16Z</time>
      </trkpt>
      <trkpt lat="48.52885" lon="2.06158">
        <ele>114.8</ele>
        <time>2023-12-14T08:26:17Z</time>
      </trkpt>
      <trkpt lat="48.52883" lon="2.06158">
        <ele>114.8</ele>
        <time>2023-12-14T08:26:18Z</time>
      </trkpt>
      <trkpt lat="48.5288" lon="2.06158">
        <ele>115.2</ele>
        <time>2023-12-14T08:26:19Z</time>
      </trkpt>
      <trkpt lat="48.52877" lon="2.06158">
        <ele>115.6</ele>
        <time>2023-12-14T08:26:20Z</time>
      </trkpt>
      <trkpt lat="48.52874" lon="2.06158">
        <ele>115.6</ele>
        <time>2023-12-14T08:26:21Z</time>
      </trkpt>
      <trkpt lat="48.52871" lon="2.06157">
        <ele>115.6</ele>
        <time>2023-12-14T08:26:22Z</time>
      </trkpt>
      <trkpt lat="48.52868" lon="2.06157">
        <ele>116.2</ele>
        <time>2023-12-14T08:26:23Z</time>
      </trkpt>
      <trkpt lat="48.52865" lon="2.06156">
        <ele>116.8</ele>
        <time>2023-12-14T08:26:24Z</time>
      </trkpt>
      <trkpt lat="48.52863" lon="2.06155">
        <ele>116.8</ele>
        <time>2023-12-14T08:26:25Z</time>
      </trkpt>
      <trkpt lat="48.52862" lon="2.06155">
        <ele>116.8</ele>
        <time>2023-12-14T08:26:26Z</time>
      </trkpt>
      <trkpt lat="48.5286" lon="2.06154">
        <ele>116.8</ele>
        <time>2023-12-14T08:26:27Z</time>
      </trkpt>
      <trkpt lat="48.52858" lon="2.06153">
        <ele>117.6</ele>
        <time>2023-12-14T08:26:28Z</time>
      </trkpt>
      <trkpt lat="48.52856" lon="2.06153">
        <ele>117.6</ele>
        <time>2023-12-14T08:26:29Z</time>
      </trkpt>
      <trkpt lat="48.52853" lon="2.06152">
        <ele>117.6</ele>
        <time>2023-12-14T08:26:30Z</time>
      </trkpt>
      <trkpt lat="48.52851" lon="2.06152">
        <ele>117.6</ele>
        <time>2023-12-14T08:26:31Z</time>
      </trkpt>
      <trkpt lat="48.52849" lon="2.06151">
        <ele>118.2</ele>
        <time>2023-12-14T08:26:32Z</time>
      </trkpt>
      <trkpt lat="48.52846" lon="2.0615">
        <ele>118.2</ele>
        <time>2023-12-14T08:26:33Z</time>
      </trkpt>
      <trkpt lat="48.52843" lon="2.0615">
        <ele>118.2</ele>
        <time>2023-12-14T08:26:34Z</time>
      </trkpt>
      <trkpt lat="48.52841" lon="2.06149">
        <ele>119</ele>
        <time>2023-12-14T08:26:35Z</time>
      </trkpt>
      <trkpt lat="48.52838" lon="2.06149">
        <ele>119.2</ele>
        <time>2023-12-14T08:26:36Z</time>
      </trkpt>
      <trkpt lat="48.52834" lon="2.06149">
        <ele>119.2</ele>
        <time>2023-12-14T08:26:37Z</time>
      </trkpt>
      <trkpt lat="48.52831" lon="2.06149">
        <ele>119.2</ele>
        <time>2023-12-14T08:26:38Z</time>
      </trkpt>
      <trkpt lat="48.52828" lon="2.06149">
        <ele>120.2</ele>
        <time>2023-12-14T08:26:39Z</time>
      </trkpt>
      <trkpt lat="48.52825" lon="2.06148">
        <ele>120.2</ele>
        <time>2023-12-14T08:26:40Z</time>
      </trkpt>
      <trkpt lat="48.52822" lon="2.06149">
        <ele>120.2</ele>
        <time>2023-12-14T08:26:41Z</time>
      </trkpt>
      <trkpt lat="48.52819" lon="2.06149">
        <ele>120.2</ele>
        <time>2023-12-14T08:26:42Z</time>
      </trkpt>
      <trkpt lat="48.52816" lon="2.06151">
        <ele>120.8</ele>
        <time>2023-12-14T08:26:43Z</time>
      </trkpt>
      <trkpt lat="48.52813" lon="2.06152">
        <ele>121.2</ele>
        <time>2023-12-14T08:26:44Z</time>
      </trkpt>
      <trkpt lat="48.52811" lon="2.06153">
        <ele>121.2</ele>
        <time>2023-12-14T08:26:45Z</time>
      </trkpt>
      <trkpt lat="48.52809" lon="2.06154">
        <ele>121.2</ele>
        <time>2023-12-14T08:26:46Z</time>
      </trkpt>
      <trkpt lat="48.52806" lon="2.06155">
        <ele>121.6</ele>
        <time>2023-12-14T08:26:47Z</time>
      </trkpt>
      <trkpt lat="48.52803" lon="2.06156">
        <ele>122</ele>
        <time>2023-12-14T08:26:48Z</time>
      </trkpt>
      <trkpt lat="48.528" lon="2.06157">
        <ele>122</ele>
        <time>2023-12-14T08:26:49Z</time>
      </trkpt>
      <trkpt lat="48.52797" lon="2.06158">
        <ele>122</ele>
        <time>2023-12-14T08:26:50Z</time>
      </trkpt>
      <trkpt lat="48.52795" lon="2.06159">
        <ele>122</ele>
        <time>2023-12-14T08:26:51Z</time>
      </trkpt>
      <trkpt lat="48.52793" lon="2.06159">
        <ele>123</ele>
        <time>2023-12-14T08:26:52Z</time>
      </trkpt>
      <trkpt lat="48.5279" lon="2.0616">
        <ele>123</ele>
        <time>2023-12-14T08:26:53Z</time>
      </trkpt>
      <trkpt lat="48.52787" lon="2.06161">
        <ele>123</ele>
        <time>2023-12-14T08:26:54Z</time>
      </trkpt>
      <trkpt lat="48.52784" lon="2.06162">
        <ele>123</ele>
        <time>2023-12-14T08:26:55Z</time>
      </trkpt>
      <trkpt lat="48.52781" lon="2.06163">
        <ele>123.4</ele>
        <time>2023-12-14T08:26:56Z</time>
      </trkpt>
      <trkpt lat="48.52779" lon="2.06164">
        <ele>123.4</ele>
        <time>2023-12-14T08:26:57Z</time>
      </trkpt>
      <trkpt lat="48.52777" lon="2.06166">
        <ele>123.4</ele>
        <time>2023-12-14T08:26:58Z</time>
      </trkpt>
      <trkpt lat="48.52774" lon="2.06167">
        <ele>124</ele>
        <time>2023-12-14T08:26:59Z</time>
      </trkpt>
      <trkpt lat="48.52771" lon="2.06167">
        <ele>124.4</ele>
        <time>2023-12-14T08:27:00Z</time>
      </trkpt>
      <trkpt lat="48.52769" lon="2.06168">
        <ele>124.4</ele>
        <time>2023-12-14T08:27:01Z</time>
      </trkpt>
      <trkpt lat="48.52766" lon="2.06169">
        <ele>124.4</ele>
        <time>2023-12-14T08:27:02Z</time>
      </trkpt>
      <trkpt lat="48.52763" lon="2.06171">
        <ele>124.4</ele>
        <time>2023-12-14T08:27:03Z</time>
      </trkpt>
      <trkpt lat="48.5276" lon="2.06171">
        <ele>125.2</ele>
        <time>2023-12-14T08:27:04Z</time>
      </trkpt>
      <trkpt lat="48.52758" lon="2.06172">
        <ele>125.2</ele>
        <time>2023-12-14T08:27:05Z</time>
      </trkpt>
      <trkpt lat="48.52755" lon="2.06173">
        <ele>125.2</ele>
        <time>2023-12-14T08:27:06Z</time>
      </trkpt>
      <trkpt lat="48.52752" lon="2.06174">
        <ele>125.2</ele>
        <time>2023-12-14T08:27:07Z</time>
      </trkpt>
      <trkpt lat="48.5275" lon="2.06175">
        <ele>126</ele>
        <time>2023-12-14T08:27:08Z</time>
      </trkpt>
      <trkpt lat="48.52747" lon="2.06176">
        <ele>126</ele>
        <time>2023-12-14T08:27:09Z</time>
      </trkpt>
      <trkpt lat="48.52745" lon="2.06177">
        <ele>126</ele>
        <time>2023-12-14T08:27:10Z</time>
      </trkpt>
      <trkpt lat="48.52742" lon="2.06178">
        <ele>126.8</ele>
        <time>2023-12-14T08:27:11Z</time>
      </trkpt>
      <trkpt lat="48.52739" lon="2.0618">
        <ele>126.8</ele>
        <time>2023-12-14T08:27:12Z</time>
      </trkpt>
      <trkpt lat="48.52737" lon="2.0618">
        <ele>126.8</ele>
        <time>2023-12-14T08:27:13Z</time>
      </trkpt>
      <trkpt lat="48.52734" lon="2.06181">
        <ele>126.8</ele>
        <time>2023-12-14T08:27:14Z</time>
      </trkpt>
      <trkpt lat="48.52732" lon="2.06182">
        <ele>127.6</ele>
        <time>2023-12-14T08:27:15Z</time>
      </trkpt>
      <trkpt lat="48.5273" lon="2.06182">
        <ele>127.6</ele>
        <time>2023-12-14T08:27:16Z</time>
      </trkpt>
      <trkpt lat="48.52728" lon="2.06183">
        <ele>127.6</ele>
        <time>2023-12-14T08:27:17Z</time>
      </trkpt>
      <trkpt lat="48.52725" lon="2.06183">
        <ele>127.6</ele>
        <time>2023-12-14T08:27:18Z</time>
      </trkpt>
      <trkpt lat="48.52723" lon="2.06184">
        <ele>127.6</ele>
        <time>2023-12-14T08:27:19Z</time>
      </trkpt>
      <trkpt lat="48.52721" lon="2.06185">
        <ele>128.4</ele>
        <time>2023-12-14T08:27:20Z</time>
      </trkpt>
      <trkpt lat="48.52719" lon="2.06186">
        <ele>128.4</ele>
        <time>2023-12-14T08:27:21Z</time>
      </trkpt>
      <trkpt lat="48.52717" lon="2.06187">
        <ele>128.4</ele>
        <time>2023-12-14T08:27:22Z</time>
      </trkpt>
      <trkpt lat="48.52715" lon="2.06188">
        <ele>128.4</ele>
        <time>2023-12-14T08:27:23Z</time>
      </trkpt>
      <trkpt lat="48.52713" lon="2.0619">
        <ele>128.6</ele>
        <time>2023-12-14T08:27:24Z</time>
      </trkpt>
      <trkpt lat="48.52711" lon="2.06191">
        <ele>128.6</ele>
        <time>2023-12-14T08:27:25Z</time>
      </trkpt>
      <trkpt lat="48.52709" lon="2.06192">
        <ele>128.6</ele>
        <time>2023-12-14T08:27:26Z</time>
      </trkpt>
      <trkpt lat="48.52706" lon="2.06193">
        <ele>129.4</ele>
        <time>2023-12-14T08:27:27Z</time>
      </trkpt>
      <trkpt lat="48.52704" lon="2.06195">
        <ele>129.8</ele>
        <time>2023-12-14T08:27:28Z</time>
      </trkpt>
      <trkpt lat="48.52703" lon="2.06196">
        <ele>129.8</ele>
        <time>2023-12-14T08:27:29Z</time>
      </trkpt>
      <trkpt lat="48.527" lon="2.06198">
        <ele>129.8</ele>
        <time>2023-12-14T08:27:30Z</time>
      </trkpt>
      <trkpt lat="48.52698" lon="2.062">
        <ele>130.6</ele>
        <time>2023-12-14T08:27:31Z</time>
      </trkpt>
      <trkpt lat="48.52696" lon="2.06201">
        <ele>130.6</ele>
        <time>2023-12-14T08:27:32Z</time>
      </trkpt>
      <trkpt lat="48.52693" lon="2.06203">
        <ele>130.6</ele>
        <time>2023-12-14T08:27:33Z</time>
      </trkpt>
      <trkpt lat="48.52691" lon="2.06204">
        <ele>130.6</ele>
        <time>2023-12-14T08:27:34Z</time>
      </trkpt>
      <trkpt lat="48.52688" lon="2.06206">
        <ele>130.6</ele>
        <time>2023-12-14T08:27:35Z</time>
      </trkpt>
      <trkpt lat="48.52686" lon="2.06208">
        <ele>131.4</ele>
        <time>2023-12-14T08:27:36Z</time>
      </trkpt>
      <trkpt lat="48.52683" lon="2.0621">
        <ele>131.4</ele>
        <time>2023-12-14T08:27:37Z</time>
      </trkpt>
      <trkpt lat="48.52681" lon="2.06211">
        <ele>131.4</ele>
        <time>2023-12-14T08:27:38Z</time>
      </trkpt>
      <trkpt lat="48.52678" lon="2.06213">
        <ele>131.4</ele>
        <time>2023-12-14T08:27:39Z</time>
      </trkpt>
      <trkpt lat="48.52676" lon="2.06215">
        <ele>132</ele>
        <time>2023-12-14T08:27:40Z</time>
      </trkpt>
      <trkpt lat="48.52673" lon="2.06216">
        <ele>132</ele>
        <time>2023-12-14T08:27:41Z</time>
      </trkpt>
      <trkpt lat="48.52671" lon="2.06219">
        <ele>132</ele>
        <time>2023-12-14T08:27:42Z</time>
      </trkpt>
      <trkpt lat="48.52668" lon="2.0622">
        <ele>132.4</ele>
        <time>2023-12-14T08:27:43Z</time>
      </trkpt>
      <trkpt lat="48.52665" lon="2.06222">
        <ele>133</ele>
        <time>2023-12-14T08:27:44Z</time>
      </trkpt>
      <trkpt lat="48.52663" lon="2.06223">
        <ele>133</ele>
        <time>2023-12-14T08:27:45Z</time>
      </trkpt>
      <trkpt lat="48.52661" lon="2.06224">
        <ele>133</ele>
        <time>2023-12-14T08:27:46Z</time>
      </trkpt>
      <trkpt lat="48.52659" lon="2.06225">
        <ele>133.6</ele>
        <time>2023-12-14T08:27:47Z</time>
      </trkpt>
      <trkpt lat="48.52657" lon="2.06226">
        <ele>133.6</ele>
        <time>2023-12-14T08:27:48Z</time>
      </trkpt>
      <trkpt lat="48.52655" lon="2.06227">
        <ele>133.6</ele>
        <time>2023-12-14T08:27:49Z</time>
      </trkpt>
      <trkpt lat="48.52652" lon="2.06229">
        <ele>133.6</ele>
        <time>2023-12-14T08:27:50Z</time>
      </trkpt>
      <trkpt lat="48.5265" lon="2.06231">
        <ele>134.4</ele>
        <time>2023-12-14T08:27:51Z</time>
      </trkpt>
      <trkpt lat="48.52648" lon="2.06233">
        <ele>134.4</ele>
        <time>2023-12-14T08:27:52Z</time>
      </trkpt>
      <trkpt lat="48.52646" lon="2.06234">
        <ele>134.4</ele>
        <time>2023-12-14T08:27:53Z</time>
      </trkpt>
      <trkpt lat="48.52643" lon="2.06235">
        <ele>134.4</ele>
        <time>2023-12-14T08:27:54Z</time>
      </trkpt>
      <trkpt lat="48.52641" lon="2.06236">
        <ele>135.4</ele>
        <time>2023-12-14T08:27:55Z</time>
      </trkpt>
      <trkpt lat="48.52638" lon="2.06235">
        <ele>135.8</ele>
        <time>2023-12-14T08:27:56Z</time>
      </trkpt>
      <trkpt lat="48.52636" lon="2.06237">
        <ele>135.8</ele>
        <time>2023-12-14T08:27:57Z</time>
      </trkpt>
      <trkpt lat="48.52634" lon="2.06239">
        <ele>135.8</ele>
        <time>2023-12-14T08:27:58Z</time>
      </trkpt>
      <trkpt lat="48.52633" lon="2.06241">
        <ele>135.8</ele>
        <time>2023-12-14T08:27:59Z</time>
      </trkpt>
      <trkpt lat="48.52631" lon="2.06243">
        <ele>136.2</ele>
        <time>2023-12-14T08:28:00Z</time>
      </trkpt>
      <trkpt lat="48.52629" lon="2.06246">
        <ele>136.2</ele>
        <time>2023-12-14T08:28:01Z</time>
      </trkpt>
      <trkpt lat="48.52627" lon="2.06248">
        <ele>136.2</ele>
        <time>2023-12-14T08:28:02Z</time>
      </trkpt>
      <trkpt lat="48.52625" lon="2.06251">
        <ele>136.2</ele>
        <time>2023-12-14T08:28:03Z</time>
      </trkpt>
      <trkpt lat="48.52624" lon="2.06254">
        <ele>137</ele>
        <time>2023-12-14T08:28:04Z</time>
      </trkpt>
      <trkpt lat="48.52622" lon="2.06256">
        <ele>137</ele>
        <time>2023-12-14T08:28:05Z</time>
      </trkpt>
      <trkpt lat="48.52621" lon="2.06259">
        <ele>137</ele>
        <time>2023-12-14T08:28:06Z</time>
      </trkpt>
      <trkpt lat="48.52619" lon="2.06263">
        <ele>137.8</ele>
        <time>2023-12-14T08:28:07Z</time>
      </trkpt>
      <trkpt lat="48.52618" lon="2.06266">
        <ele>138</ele>
        <time>2023-12-14T08:28:08Z</time>
      </trkpt>
      <trkpt lat="48.52617" lon="2.06269">
        <ele>138</ele>
        <time>2023-12-14T08:28:09Z</time>
      </trkpt>
      <trkpt lat="48.52616" lon="2.06274">
        <ele>138</ele>
        <time>2023-12-14T08:28:10Z</time>
      </trkpt>
      <trkpt lat="48.52616" lon="2.06277">
        <ele>138</ele>
        <time>2023-12-14T08:28:11Z</time>
      </trkpt>
      <trkpt lat="48.52615" lon="2.06281">
        <ele>138.8</ele>
        <time>2023-12-14T08:28:12Z</time>
      </trkpt>
      <trkpt lat="48.52615" lon="2.06285">
        <ele>138.8</ele>
        <time>2023-12-14T08:28:13Z</time>
      </trkpt>
      <trkpt lat="48.52614" lon="2.0629">
        <ele>138.8</ele>
        <time>2023-12-14T08:28:14Z</time>
      </trkpt>
      <trkpt lat="48.52615" lon="2.06294">
        <ele>139.2</ele>
        <time>2023-12-14T08:28:15Z</time>
      </trkpt>
      <trkpt lat="48.52616" lon="2.06298">
        <ele>139.6</ele>
        <time>2023-12-14T08:28:16Z</time>
      </trkpt>
      <trkpt lat="48.52616" lon="2.06303">
        <ele>139.6</ele>
        <time>2023-12-14T08:28:17Z</time>
      </trkpt>
      <trkpt lat="48.52617" lon="2.06307">
        <ele>139.6</ele>
        <time>2023-12-14T08:28:18Z</time>
      </trkpt>
      <trkpt lat="48.52617" lon="2.06311">
        <ele>140.4</ele>
        <time>2023-12-14T08:28:19Z</time>
      </trkpt>
      <trkpt lat="48.52617" lon="2.06315">
        <ele>140.6</ele>
        <time>2023-12-14T08:28:20Z</time>
      </trkpt>
      <trkpt lat="48.52617" lon="2.0632">
        <ele>140.6</ele>
        <time>2023-12-14T08:28:21Z</time>
      </trkpt>
      <trkpt lat="48.52618" lon="2.06324">
        <ele>140.6</ele>
        <time>2023-12-14T08:28:22Z</time>
      </trkpt>
      <trkpt lat="48.52619" lon="2.06327">
        <ele>140.6</ele>
        <time>2023-12-14T08:28:23Z</time>
      </trkpt>
      <trkpt lat="48.5262" lon="2.06331">
        <ele>141.6</ele>
        <time>2023-12-14T08:28:24Z</time>
      </trkpt>
      <trkpt lat="48.52621" lon="2.06334">
        <ele>141.6</ele>
        <time>2023-12-14T08:28:25Z</time>
      </trkpt>
      <trkpt lat="48.52623" lon="2.06337">
        <ele>141.6</ele>
        <time>2023-12-14T08:28:26Z</time>
      </trkpt>
      <trkpt lat="48.52624" lon="2.0634">
        <ele>142.2</ele>
        <time>2023-12-14T08:28:27Z</time>
      </trkpt>
      <trkpt lat="48.52626" lon="2.06344">
        <ele>142.4</ele>
        <time>2023-12-14T08:28:28Z</time>
      </trkpt>
      <trkpt lat="48.52626" lon="2.06347">
        <ele>142.4</ele>
        <time>2023-12-14T08:28:29Z</time>
      </trkpt>
      <trkpt lat="48.52628" lon="2.0635">
        <ele>142.4</ele>
        <time>2023-12-14T08:28:30Z</time>
      </trkpt>
      <trkpt lat="48.52629" lon="2.06353">
        <ele>142.4</ele>
        <time>2023-12-14T08:28:31Z</time>
      </trkpt>
      <trkpt lat="48.52631" lon="2.06356">
        <ele>143.2</ele>
        <time>2023-12-14T08:28:32Z</time>
      </trkpt>
      <trkpt lat="48.52633" lon="2.06359">
        <ele>143.2</ele>
        <time>2023-12-14T08:28:33Z</time>
      </trkpt>
      <trkpt lat="48.52635" lon="2.06361">
        <ele>143.2</ele>
        <time>2023-12-14T08:28:34Z</time>
      </trkpt>
      <trkpt lat="48.52636" lon="2.06363">
        <ele>143.6</ele>
        <time>2023-12-14T08:28:35Z</time>
      </trkpt>
      <trkpt lat="48.52638" lon="2.06366">
        <ele>144.2</ele>
        <time>2023-12-14T08:28:36Z</time>
      </trkpt>
      <trkpt lat="48.52641" lon="2.06368">
        <ele>144.2</ele>
        <time>2023-12-14T08:28:37Z</time>
      </trkpt>
      <trkpt lat="48.52643" lon="2.06371">
        <ele>144.2</ele>
        <time>2023-12-14T08:28:38Z</time>
      </trkpt>
      <trkpt lat="48.52645" lon="2.06373">
        <ele>144.2</ele>
        <time>2023-12-14T08:28:39Z</time>
      </trkpt>
      <trkpt lat="48.52647" lon="2.06375">
        <ele>144.6</ele>
        <time>2023-12-14T08:28:40Z</time>
      </trkpt>
      <trkpt lat="48.5265" lon="2.06377">
        <ele>144.6</ele>
        <time>2023-12-14T08:28:41Z</time>
      </trkpt>
      <trkpt lat="48.52652" lon="2.06379">
        <ele>144.6</ele>
        <time>2023-12-14T08:28:42Z</time>
      </trkpt>
      <trkpt lat="48.52655" lon="2.0638">
        <ele>144.6</ele>
        <time>2023-12-14T08:28:43Z</time>
      </trkpt>
      <trkpt lat="48.52658" lon="2.06382">
        <ele>145</ele>
        <time>2023-12-14T08:28:44Z</time>
      </trkpt>
      <trkpt lat="48.52661" lon="2.06383">
        <ele>145</ele>
        <time>2023-12-14T08:28:45Z</time>
      </trkpt>
      <trkpt lat="48.52663" lon="2.06384">
        <ele>145</ele>
        <time>2023-12-14T08:28:46Z</time>
      </trkpt>
      <trkpt lat="48.52666" lon="2.06385">
        <ele>145.8</ele>
        <time>2023-12-14T08:28:47Z</time>
      </trkpt>
      <trkpt lat="48.52669" lon="2.06386">
        <ele>146</ele>
        <time>2023-12-14T08:28:48Z</time>
      </trkpt>
      <trkpt lat="48.52671" lon="2.06387">
        <ele>146</ele>
        <time>2023-12-14T08:28:49Z</time>
      </trkpt>
      <trkpt lat="48.52674" lon="2.06388">
        <ele>146</ele>
        <time>2023-12-14T08:28:50Z</time>
      </trkpt>
      <trkpt lat="48.52677" lon="2.06389">
        <ele>146</ele>
        <time>2023-12-14T08:28:51Z</time>
      </trkpt>
      <trkpt lat="48.52679" lon="2.0639">
        <ele>147</ele>
        <time>2023-12-14T08:28:52Z</time>
      </trkpt>
      <trkpt lat="48.52682" lon="2.06392">
        <ele>147</ele>
        <time>2023-12-14T08:28:53Z</time>
      </trkpt>
      <trkpt lat="48.52684" lon="2.06394">
        <ele>147</ele>
        <time>2023-12-14T08:28:54Z</time>
      </trkpt>
      <trkpt lat="48.52687" lon="2.06396">
        <ele>148</ele>
        <time>2023-12-14T08:28:55Z</time>
      </trkpt>
      <trkpt lat="48.52689" lon="2.06399">
        <ele>148</ele>
        <time>2023-12-14T08:28:56Z</time>
      </trkpt>
      <trkpt lat="48.52691" lon="2.06401">
        <ele>148</ele>
        <time>2023-12-14T08:28:57Z</time>
      </trkpt>
      <trkpt lat="48.52692" lon="2.06405">
        <ele>148</ele>
        <time>2023-12-14T08:28:58Z</time>
      </trkpt>
      <trkpt lat="48.52693" lon="2.06408">
        <ele>148.6</ele>
        <time>2023-12-14T08:28:59Z</time>
      </trkpt>
      <trkpt lat="48.52694" lon="2.06412">
        <ele>149.2</ele>
        <time>2023-12-14T08:29:00Z</time>
      </trkpt>
      <trkpt lat="48.52695" lon="2.06416">
        <ele>149.2</ele>
        <time>2023-12-14T08:29:01Z</time>
      </trkpt>
      <trkpt lat="48.52695" lon="2.0642">
        <ele>149.2</ele>
        <time>2023-12-14T08:29:02Z</time>
      </trkpt>
      <trkpt lat="48.52696" lon="2.06424">
        <ele>149.8</ele>
        <time>2023-12-14T08:29:03Z</time>
      </trkpt>
      <trkpt lat="48.52696" lon="2.06429">
        <ele>150.2</ele>
        <time>2023-12-14T08:29:04Z</time>
      </trkpt>
      <trkpt lat="48.52696" lon="2.06433">
        <ele>150.2</ele>
        <time>2023-12-14T08:29:05Z</time>
      </trkpt>
      <trkpt lat="48.52696" lon="2.06437">
        <ele>150.2</ele>
        <time>2023-12-14T08:29:06Z</time>
      </trkpt>
      <trkpt lat="48.52696" lon="2.06441">
        <ele>151</ele>
        <time>2023-12-14T08:29:07Z</time>
      </trkpt>
      <trkpt lat="48.52696" lon="2.06446">
        <ele>151.2</ele>
        <time>2023-12-14T08:29:08Z</time>
      </trkpt>
      <trkpt lat="48.52696" lon="2.0645">
        <ele>151.2</ele>
        <time>2023-12-14T08:29:09Z</time>
      </trkpt>
      <trkpt lat="48.52696" lon="2.06454">
        <ele>151.2</ele>
        <time>2023-12-14T08:29:10Z</time>
      </trkpt>
      <trkpt lat="48.52696" lon="2.06458">
        <ele>151.8</ele>
        <time>2023-12-14T08:29:11Z</time>
      </trkpt>
      <trkpt lat="48.52696" lon="2.06462">
        <ele>152.2</ele>
        <time>2023-12-14T08:29:12Z</time>
      </trkpt>
      <trkpt lat="48.52696" lon="2.06466">
        <ele>152.2</ele>
        <time>2023-12-14T08:29:13Z</time>
      </trkpt>
      <trkpt lat="48.52697" lon="2.0647">
        <ele>152.2</ele>
        <time>2023-12-14T08:29:14Z</time>
      </trkpt>
      <trkpt lat="48.52697" lon="2.06474">
        <ele>152.2</ele>
        <time>2023-12-14T08:29:15Z</time>
      </trkpt>
      <trkpt lat="48.52697" lon="2.06478">
        <ele>153.2</ele>
        <time>2023-12-14T08:29:16Z</time>
      </trkpt>
      <trkpt lat="48.52697" lon="2.06482">
        <ele>153.2</ele>
        <time>2023-12-14T08:29:17Z</time>
      </trkpt>
      <trkpt lat="48.52697" lon="2.06486">
        <ele>153.2</ele>
        <time>2023-12-14T08:29:18Z</time>
      </trkpt>
      <trkpt lat="48.52697" lon="2.06491">
        <ele>154.2</ele>
        <time>2023-12-14T08:29:19Z</time>
      </trkpt>
      <trkpt lat="48.52697" lon="2.06495">
        <ele>154.2</ele>
        <time>2023-12-14T08:29:20Z</time>
      </trkpt>
      <trkpt lat="48.52696" lon="2.06499">
        <ele>154.2</ele>
        <time>2023-12-14T08:29:21Z</time>
      </trkpt>
      <trkpt lat="48.52696" lon="2.06503">
        <ele>154.2</ele>
        <time>2023-12-14T08:29:22Z</time>
      </trkpt>
      <trkpt lat="48.52696" lon="2.06507">
        <ele>154.4</ele>
        <time>2023-12-14T08:29:23Z</time>
      </trkpt>
      <trkpt lat="48.52696" lon="2.06512">
        <ele>154.8</ele>
        <time>2023-12-14T08:29:24Z</time>
      </trkpt>
      <trkpt lat="48.52696" lon="2.06517">
        <ele>154.8</ele>
        <time>2023-12-14T08:29:25Z</time>
      </trkpt>
      <trkpt lat="48.52695" lon="2.06521">
        <ele>154.8</ele>
        <time>2023-12-14T08:29:26Z</time>
      </trkpt>
      <trkpt lat="48.52695" lon="2.06525">
        <ele>154.8</ele>
        <time>2023-12-14T08:29:27Z</time>
      </trkpt>
      <trkpt lat="48.52695" lon="2.06529">
        <ele>155.2</ele>
        <time>2023-12-14T08:29:28Z</time>
      </trkpt>
      <trkpt lat="48.52695" lon="2.06534">
        <ele>155.2</ele>
        <time>2023-12-14T08:29:29Z</time>
      </trkpt>
      <trkpt lat="48.52694" lon="2.06539">
        <ele>155.2</ele>
        <time>2023-12-14T08:29:30Z</time>
      </trkpt>
      <trkpt lat="48.52694" lon="2.06543">
        <ele>155.2</ele>
        <time>2023-12-14T08:29:31Z</time>
      </trkpt>
      <trkpt lat="48.52694" lon="2.06548">
        <ele>155.8</ele>
        <time>2023-12-14T08:29:32Z</time>
      </trkpt>
      <trkpt lat="48.52694" lon="2.06553">
        <ele>155.8</ele>
        <time>2023-12-14T08:29:33Z</time>
      </trkpt>
      <trkpt lat="48.52694" lon="2.06558">
        <ele>155.8</ele>
        <time>2023-12-14T08:29:34Z</time>
      </trkpt>
      <trkpt lat="48.52694" lon="2.06563">
        <ele>155.8</ele>
        <time>2023-12-14T08:29:35Z</time>
      </trkpt>
      <trkpt lat="48.52695" lon="2.06568">
        <ele>156</ele>
        <time>2023-12-14T08:29:36Z</time>
      </trkpt>
      <trkpt lat="48.52696" lon="2.06573">
        <ele>156</ele>
        <time>2023-12-14T08:29:37Z</time>
      </trkpt>
      <trkpt lat="48.52697" lon="2.06577">
        <ele>156</ele>
        <time>2023-12-14T08:29:38Z</time>
      </trkpt>
      <trkpt lat="48.52698" lon="2.06582">
        <ele>156</ele>
        <time>2023-12-14T08:29:39Z</time>
      </trkpt>
      <trkpt lat="48.52699" lon="2.06587">
        <ele>155.8</ele>
        <time>2023-12-14T08:29:40Z</time>
      </trkpt>
      <trkpt lat="48.527" lon="2.06591">
        <ele>155.8</ele>
        <time>2023-12-14T08:29:41Z</time>
      </trkpt>
      <trkpt lat="48.52701" lon="2.06596">
        <ele>155.8</ele>
        <time>2023-12-14T08:29:42Z</time>
      </trkpt>
      <trkpt lat="48.52703" lon="2.06601">
        <ele>155.8</ele>
        <time>2023-12-14T08:29:43Z</time>
      </trkpt>
      <trkpt lat="48.52705" lon="2.06606">
        <ele>156.4</ele>
        <time>2023-12-14T08:29:44Z</time>
      </trkpt>
      <trkpt lat="48.52706" lon="2.0661">
        <ele>156.4</ele>
        <time>2023-12-14T08:29:45Z</time>
      </trkpt>
      <trkpt lat="48.52707" lon="2.06615">
        <ele>156.4</ele>
        <time>2023-12-14T08:29:46Z</time>
      </trkpt>
      <trkpt lat="48.52709" lon="2.0662">
        <ele>156</ele>
        <time>2023-12-14T08:29:47Z</time>
      </trkpt>
      <trkpt lat="48.5271" lon="2.06625">
        <ele>156.2</ele>
        <time>2023-12-14T08:29:48Z</time>
      </trkpt>
      <trkpt lat="48.52711" lon="2.06631">
        <ele>156.2</ele>
        <time>2023-12-14T08:29:49Z</time>
      </trkpt>
      <trkpt lat="48.52711" lon="2.06636">
        <ele>156.2</ele>
        <time>2023-12-14T08:29:50Z</time>
      </trkpt>
      <trkpt lat="48.5271" lon="2.06641">
        <ele>156.2</ele>
        <time>2023-12-14T08:29:51Z</time>
      </trkpt>
      <trkpt lat="48.52709" lon="2.06646">
        <ele>156.2</ele>
        <time>2023-12-14T08:29:52Z</time>
      </trkpt>
      <trkpt lat="48.52708" lon="2.06651">
        <ele>156.2</ele>
        <time>2023-12-14T08:29:53Z</time>
      </trkpt>
      <trkpt lat="48.52707" lon="2.06656">
        <ele>156.2</ele>
        <time>2023-12-14T08:29:54Z</time>
      </trkpt>
      <trkpt lat="48.52705" lon="2.0666">
        <ele>156.8</ele>
        <time>2023-12-14T08:29:55Z</time>
      </trkpt>
      <trkpt lat="48.52704" lon="2.06664">
        <ele>157</ele>
        <time>2023-12-14T08:29:56Z</time>
      </trkpt>
      <trkpt lat="48.52703" lon="2.06669">
        <ele>157</ele>
        <time>2023-12-14T08:29:57Z</time>
      </trkpt>
      <trkpt lat="48.52701" lon="2.06674">
        <ele>157</ele>
        <time>2023-12-14T08:29:58Z</time>
      </trkpt>
      <trkpt lat="48.52699" lon="2.06678">
        <ele>157</ele>
        <time>2023-12-14T08:29:59Z</time>
      </trkpt>
      <trkpt lat="48.52697" lon="2.06683">
        <ele>156.6</ele>
        <time>2023-12-14T08:30:00Z</time>
      </trkpt>
      <trkpt lat="48.52695" lon="2.06687">
        <ele>156.6</ele>
        <time>2023-12-14T08:30:01Z</time>
      </trkpt>
      <trkpt lat="48.52693" lon="2.06692">
        <ele>156.6</ele>
        <time>2023-12-14T08:30:02Z</time>
      </trkpt>
      <trkpt lat="48.52691" lon="2.06696">
        <ele>157.6</ele>
        <time>2023-12-14T08:30:03Z</time>
      </trkpt>
      <trkpt lat="48.52688" lon="2.06701">
        <ele>157.6</ele>
        <time>2023-12-14T08:30:04Z</time>
      </trkpt>
      <trkpt lat="48.52685" lon="2.06704">
        <ele>157.6</ele>
        <time>2023-12-14T08:30:05Z</time>
      </trkpt>
      <trkpt lat="48.52682" lon="2.06708">
        <ele>157.6</ele>
        <time>2023-12-14T08:30:06Z</time>
      </trkpt>
      <trkpt lat="48.52679" lon="2.06711">
        <ele>157.6</ele>
        <time>2023-12-14T08:30:07Z</time>
      </trkpt>
      <trkpt lat="48.52676" lon="2.06715">
        <ele>157.6</ele>
        <time>2023-12-14T08:30:08Z</time>
      </trkpt>
      <trkpt lat="48.52672" lon="2.06719">
        <ele>157.6</ele>
        <time>2023-12-14T08:30:09Z</time>
      </trkpt>
      <trkpt lat="48.52669" lon="2.06722">
        <ele>157.6</ele>
        <time>2023-12-14T08:30:10Z</time>
      </trkpt>
      <trkpt lat="48.52665" lon="2.06726">
        <ele>157.6</ele>
        <time>2023-12-14T08:30:11Z</time>
      </trkpt>
      <trkpt lat="48.52662" lon="2.06729">
        <ele>157.8</ele>
        <time>2023-12-14T08:30:12Z</time>
      </trkpt>
      <trkpt lat="48.52658" lon="2.06732">
        <ele>157.8</ele>
        <time>2023-12-14T08:30:13Z</time>
      </trkpt>
      <trkpt lat="48.52654" lon="2.06735">
        <ele>157.8</ele>
        <time>2023-12-14T08:30:14Z</time>
      </trkpt>
      <trkpt lat="48.5265" lon="2.06738">
        <ele>157.8</ele>
        <time>2023-12-14T08:30:15Z</time>
      </trkpt>
      <trkpt lat="48.52647" lon="2.06741">
        <ele>157</ele>
        <time>2023-12-14T08:30:16Z</time>
      </trkpt>
      <trkpt lat="48.52643" lon="2.06744">
        <ele>157</ele>
        <time>2023-12-14T08:30:17Z</time>
      </trkpt>
      <trkpt lat="48.52639" lon="2.06746">
        <ele>157</ele>
        <time>2023-12-14T08:30:18Z</time>
      </trkpt>
      <trkpt lat="48.52635" lon="2.06749">
        <ele>157.8</ele>
        <time>2023-12-14T08:30:19Z</time>
      </trkpt>
      <trkpt lat="48.5263" lon="2.06751">
        <ele>157.6</ele>
        <time>2023-12-14T08:30:20Z</time>
      </trkpt>
      <trkpt lat="48.52626" lon="2.06752">
        <ele>157.6</ele>
        <time>2023-12-14T08:30:21Z</time>
      </trkpt>
      <trkpt lat="48.52622" lon="2.06754">
        <ele>157.6</ele>
        <time>2023-12-14T08:30:22Z</time>
      </trkpt>
      <trkpt lat="48.52618" lon="2.06755">
        <ele>157.6</ele>
        <time>2023-12-14T08:30:23Z</time>
      </trkpt>
      <trkpt lat="48.52613" lon="2.06755">
        <ele>157.6</ele>
        <time>2023-12-14T08:30:24Z</time>
      </trkpt>
      <trkpt lat="48.52609" lon="2.06755">
        <ele>157.6</ele>
        <time>2023-12-14T08:30:25Z</time>
      </trkpt>
      <trkpt lat="48.52605" lon="2.06754">
        <ele>157.6</ele>
        <time>2023-12-14T08:30:26Z</time>
      </trkpt>
      <trkpt lat="48.526" lon="2.06753">
        <ele>157.8</ele>
        <time>2023-12-14T08:30:27Z</time>
      </trkpt>
      <trkpt lat="48.52596" lon="2.06752">
        <ele>157.2</ele>
        <time>2023-12-14T08:30:28Z</time>
      </trkpt>
      <trkpt lat="48.52591" lon="2.0675">
        <ele>157.2</ele>
        <time>2023-12-14T08:30:29Z</time>
      </trkpt>
      <trkpt lat="48.52587" lon="2.06749">
        <ele>157.2</ele>
        <time>2023-12-14T08:30:30Z</time>
      </trkpt>
      <trkpt lat="48.52582" lon="2.06747">
        <ele>157.2</ele>
        <time>2023-12-14T08:30:31Z</time>
      </trkpt>
      <trkpt lat="48.52578" lon="2.06746">
        <ele>157.4</ele>
        <time>2023-12-14T08:30:32Z</time>
      </trkpt>
      <trkpt lat="48.52573" lon="2.06744">
        <ele>157.4</ele>
        <time>2023-12-14T08:30:33Z</time>
      </trkpt>
      <trkpt lat="48.52569" lon="2.06742">
        <ele>157.4</ele>
        <time>2023-12-14T08:30:34Z</time>
      </trkpt>
      <trkpt lat="48.52565" lon="2.06739">
        <ele>157.4</ele>
        <time>2023-12-14T08:30:35Z</time>
      </trkpt>
      <trkpt lat="48.5256" lon="2.06737">
        <ele>158.2</ele>
        <time>2023-12-14T08:30:36Z</time>
      </trkpt>
      <trkpt lat="48.52556" lon="2.06734">
        <ele>158.2</ele>
        <time>2023-12-14T08:30:37Z</time>
      </trkpt>
      <trkpt lat="48.52552" lon="2.06731">
        <ele>158.2</ele>
        <time>2023-12-14T08:30:38Z</time>
      </trkpt>
      <trkpt lat="48.52548" lon="2.06729">
        <ele>158.2</ele>
        <time>2023-12-14T08:30:39Z</time>
      </trkpt>
      <trkpt lat="48.52544" lon="2.06726">
        <ele>157.8</ele>
        <time>2023-12-14T08:30:40Z</time>
      </trkpt>
      <trkpt lat="48.5254" lon="2.06723">
        <ele>157.8</ele>
        <time>2023-12-14T08:30:41Z</time>
      </trkpt>
      <trkpt lat="48.52536" lon="2.0672">
        <ele>157.8</ele>
        <time>2023-12-14T08:30:42Z</time>
      </trkpt>
      <trkpt lat="48.52531" lon="2.06717">
        <ele>158.2</ele>
        <time>2023-12-14T08:30:43Z</time>
      </trkpt>
      <trkpt lat="48.52527" lon="2.06714">
        <ele>158.2</ele>
        <time>2023-12-14T08:30:44Z</time>
      </trkpt>
      <trkpt lat="48.52523" lon="2.06711">
        <ele>158.2</ele>
        <time>2023-12-14T08:30:45Z</time>
      </trkpt>
      <trkpt lat="48.52519" lon="2.06708">
        <ele>158.2</ele>
        <time>2023-12-14T08:30:46Z</time>
      </trkpt>
      <trkpt lat="48.52515" lon="2.06705">
        <ele>159</ele>
        <time>2023-12-14T08:30:47Z</time>
      </trkpt>
      <trkpt lat="48.52511" lon="2.06702">
        <ele>159</ele>
        <time>2023-12-14T08:30:48Z</time>
      </trkpt>
      <trkpt lat="48.52507" lon="2.06699">
        <ele>159</ele>
        <time>2023-12-14T08:30:49Z</time>
      </trkpt>
      <trkpt lat="48.52502" lon="2.06695">
        <ele>159</ele>
        <time>2023-12-14T08:30:50Z</time>
      </trkpt>
      <trkpt lat="48.52498" lon="2.06691">
        <ele>158.8</ele>
        <time>2023-12-14T08:30:51Z</time>
      </trkpt>
      <trkpt lat="48.52494" lon="2.06688">
        <ele>158.8</ele>
        <time>2023-12-14T08:30:52Z</time>
      </trkpt>
      <trkpt lat="48.5249" lon="2.06684">
        <ele>158.8</ele>
        <time>2023-12-14T08:30:53Z</time>
      </trkpt>
      <trkpt lat="48.52487" lon="2.0668">
        <ele>158.8</ele>
        <time>2023-12-14T08:30:54Z</time>
      </trkpt>
      <trkpt lat="48.52483" lon="2.06676">
        <ele>159.4</ele>
        <time>2023-12-14T08:30:55Z</time>
      </trkpt>
      <trkpt lat="48.52478" lon="2.06672">
        <ele>159</ele>
        <time>2023-12-14T08:30:56Z</time>
      </trkpt>
      <trkpt lat="48.52474" lon="2.06667">
        <ele>159</ele>
        <time>2023-12-14T08:30:57Z</time>
      </trkpt>
      <trkpt lat="48.5247" lon="2.06663">
        <ele>159</ele>
        <time>2023-12-14T08:30:58Z</time>
      </trkpt>
      <trkpt lat="48.52466" lon="2.06659">
        <ele>159.6</ele>
        <time>2023-12-14T08:30:59Z</time>
      </trkpt>
      <trkpt lat="48.52462" lon="2.06655">
        <ele>159.4</ele>
        <time>2023-12-14T08:31:00Z</time>
      </trkpt>
      <trkpt lat="48.52459" lon="2.0665">
        <ele>159.4</ele>
        <time>2023-12-14T08:31:01Z</time>
      </trkpt>
      <trkpt lat="48.52455" lon="2.06646">
        <ele>159.4</ele>
        <time>2023-12-14T08:31:02Z</time>
      </trkpt>
      <trkpt lat="48.52451" lon="2.06641">
        <ele>159.4</ele>
        <time>2023-12-14T08:31:03Z</time>
      </trkpt>
      <trkpt lat="48.52447" lon="2.06636">
        <ele>158.8</ele>
        <time>2023-12-14T08:31:04Z</time>
      </trkpt>
      <trkpt lat="48.52443" lon="2.06631">
        <ele>158.8</ele>
        <time>2023-12-14T08:31:05Z</time>
      </trkpt>
      <trkpt lat="48.5244" lon="2.06627">
        <ele>158.8</ele>
        <time>2023-12-14T08:31:06Z</time>
      </trkpt>
      <trkpt lat="48.52436" lon="2.06622">
        <ele>159.8</ele>
        <time>2023-12-14T08:31:07Z</time>
      </trkpt>
      <trkpt lat="48.52432" lon="2.06617">
        <ele>160.4</ele>
        <time>2023-12-14T08:31:08Z</time>
      </trkpt>
      <trkpt lat="48.52429" lon="2.06612">
        <ele>160.4</ele>
        <time>2023-12-14T08:31:09Z</time>
      </trkpt>
      <trkpt lat="48.52425" lon="2.06606">
        <ele>160.4</ele>
        <time>2023-12-14T08:31:10Z</time>
      </trkpt>
      <trkpt lat="48.52422" lon="2.06601">
        <ele>159.4</ele>
        <time>2023-12-14T08:31:11Z</time>
      </trkpt>
      <trkpt lat="48.52419" lon="2.06596">
        <ele>159.4</ele>
        <time>2023-12-14T08:31:12Z</time>
      </trkpt>
      <trkpt lat="48.52416" lon="2.0659">
        <ele>159.4</ele>
        <time>2023-12-14T08:31:13Z</time>
      </trkpt>
      <trkpt lat="48.52412" lon="2.06585">
        <ele>159.4</ele>
        <time>2023-12-14T08:31:14Z</time>
      </trkpt>
      <trkpt lat="48.52409" lon="2.06579">
        <ele>159.4</ele>
        <time>2023-12-14T08:31:15Z</time>
      </trkpt>
      <trkpt lat="48.52406" lon="2.06574">
        <ele>159.8</ele>
        <time>2023-12-14T08:31:16Z</time>
      </trkpt>
      <trkpt lat="48.52402" lon="2.06568">
        <ele>159.8</ele>
        <time>2023-12-14T08:31:17Z</time>
      </trkpt>
      <trkpt lat="48.52399" lon="2.06562">
        <ele>159.8</ele>
        <time>2023-12-14T08:31:18Z</time>
      </trkpt>
      <trkpt lat="48.52396" lon="2.06557">
        <ele>159.6</ele>
        <time>2023-12-14T08:31:19Z</time>
      </trkpt>
      <trkpt lat="48.52393" lon="2.06551">
        <ele>160</ele>
        <time>2023-12-14T08:31:20Z</time>
      </trkpt>
      <trkpt lat="48.5239" lon="2.06545">
        <ele>160</ele>
        <time>2023-12-14T08:31:21Z</time>
      </trkpt>
      <trkpt lat="48.52386" lon="2.0654">
        <ele>160</ele>
        <time>2023-12-14T08:31:22Z</time>
      </trkpt>
      <trkpt lat="48.52383" lon="2.06534">
        <ele>160</ele>
        <time>2023-12-14T08:31:23Z</time>
      </trkpt>
      <trkpt lat="48.5238" lon="2.06529">
        <ele>159.2</ele>
        <time>2023-12-14T08:31:24Z</time>
      </trkpt>
      <trkpt lat="48.52376" lon="2.06523">
        <ele>159.2</ele>
        <time>2023-12-14T08:31:25Z</time>
      </trkpt>
      <trkpt lat="48.52373" lon="2.06518">
        <ele>159.2</ele>
        <time>2023-12-14T08:31:26Z</time>
      </trkpt>
      <trkpt lat="48.5237" lon="2.06512">
        <ele>159.8</ele>
        <time>2023-12-14T08:31:27Z</time>
      </trkpt>
      <trkpt lat="48.52366" lon="2.06506">
        <ele>159.6</ele>
        <time>2023-12-14T08:31:28Z</time>
      </trkpt>
      <trkpt lat="48.52363" lon="2.06501">
        <ele>159.6</ele>
        <time>2023-12-14T08:31:29Z</time>
      </trkpt>
      <trkpt lat="48.5236" lon="2.06496">
        <ele>159.6</ele>
        <time>2023-12-14T08:31:30Z</time>
      </trkpt>
      <trkpt lat="48.52356" lon="2.0649">
        <ele>159.8</ele>
        <time>2023-12-14T08:31:31Z</time>
      </trkpt>
      <trkpt lat="48.52352" lon="2.06485">
        <ele>160</ele>
        <time>2023-12-14T08:31:32Z</time>
      </trkpt>
      <trkpt lat="48.52349" lon="2.06479">
        <ele>160</ele>
        <time>2023-12-14T08:31:33Z</time>
      </trkpt>
      <trkpt lat="48.52345" lon="2.06474">
        <ele>160</ele>
        <time>2023-12-14T08:31:34Z</time>
      </trkpt>
      <trkpt lat="48.52342" lon="2.06469">
        <ele>160</ele>
        <time>2023-12-14T08:31:35Z</time>
      </trkpt>
      <trkpt lat="48.52338" lon="2.06463">
        <ele>159.8</ele>
        <time>2023-12-14T08:31:36Z</time>
      </trkpt>
      <trkpt lat="48.52334" lon="2.06458">
        <ele>159.8</ele>
        <time>2023-12-14T08:31:37Z</time>
      </trkpt>
      <trkpt lat="48.52331" lon="2.06453">
        <ele>159.8</ele>
        <time>2023-12-14T08:31:38Z</time>
      </trkpt>
      <trkpt lat="48.52327" lon="2.06448">
        <ele>160.4</ele>
        <time>2023-12-14T08:31:39Z</time>
      </trkpt>
      <trkpt lat="48.52323" lon="2.06443">
        <ele>160.2</ele>
        <time>2023-12-14T08:31:40Z</time>
      </trkpt>
      <trkpt lat="48.52319" lon="2.06438">
        <ele>160.2</ele>
        <time>2023-12-14T08:31:41Z</time>
      </trkpt>
      <trkpt lat="48.52315" lon="2.06434">
        <ele>160.2</ele>
        <time>2023-12-14T08:31:42Z</time>
      </trkpt>
      <trkpt lat="48.52311" lon="2.06429">
        <ele>160.8</ele>
        <time>2023-12-14T08:31:43Z</time>
      </trkpt>
      <trkpt lat="48.52307" lon="2.06425">
        <ele>161.4</ele>
        <time>2023-12-14T08:31:44Z</time>
      </trkpt>
      <trkpt lat="48.52303" lon="2.0642">
        <ele>161.4</ele>
        <time>2023-12-14T08:31:45Z</time>
      </trkpt>
      <trkpt lat="48.52299" lon="2.06416">
        <ele>161.4</ele>
        <time>2023-12-14T08:31:46Z</time>
      </trkpt>
      <trkpt lat="48.52295" lon="2.06412">
        <ele>161.4</ele>
        <time>2023-12-14T08:31:47Z</time>
      </trkpt>
      <trkpt lat="48.52291" lon="2.06408">
        <ele>161.4</ele>
        <time>2023-12-14T08:31:48Z</time>
      </trkpt>
      <trkpt lat="48.52287" lon="2.06403">
        <ele>161.4</ele>
        <time>2023-12-14T08:31:49Z</time>
      </trkpt>
      <trkpt lat="48.52283" lon="2.06399">
        <ele>161.4</ele>
        <time>2023-12-14T08:31:50Z</time>
      </trkpt>
      <trkpt lat="48.52279" lon="2.06395">
        <ele>161.4</ele>
        <time>2023-12-14T08:31:51Z</time>
      </trkpt>
      <trkpt lat="48.52275" lon="2.0639">
        <ele>161.4</ele>
        <time>2023-12-14T08:31:52Z</time>
      </trkpt>
      <trkpt lat="48.5227" lon="2.06386">
        <ele>161.4</ele>
        <time>2023-12-14T08:31:53Z</time>
      </trkpt>
      <trkpt lat="48.52266" lon="2.06382">
        <ele>161.4</ele>
        <time>2023-12-14T08:31:54Z</time>
      </trkpt>
      <trkpt lat="48.52262" lon="2.06377">
        <ele>161.4</ele>
        <time>2023-12-14T08:31:55Z</time>
      </trkpt>
      <trkpt lat="48.52258" lon="2.06373">
        <ele>161.4</ele>
        <time>2023-12-14T08:31:56Z</time>
      </trkpt>
      <trkpt lat="48.52254" lon="2.06369">
        <ele>161.4</ele>
        <time>2023-12-14T08:31:57Z</time>
      </trkpt>
      <trkpt lat="48.5225" lon="2.06364">
        <ele>161.4</ele>
        <time>2023-12-14T08:31:58Z</time>
      </trkpt>
      <trkpt lat="48.52246" lon="2.0636">
        <ele>161.4</ele>
        <time>2023-12-14T08:31:59Z</time>
      </trkpt>
      <trkpt lat="48.52242" lon="2.06355">
        <ele>160.8</ele>
        <time>2023-12-14T08:32:00Z</time>
      </trkpt>
      <trkpt lat="48.52237" lon="2.06351">
        <ele>160.8</ele>
        <time>2023-12-14T08:32:01Z</time>
      </trkpt>
      <trkpt lat="48.52233" lon="2.06347">
        <ele>160.8</ele>
        <time>2023-12-14T08:32:02Z</time>
      </trkpt>
      <trkpt lat="48.52229" lon="2.06342">
        <ele>161.6</ele>
        <time>2023-12-14T08:32:03Z</time>
      </trkpt>
      <trkpt lat="48.52225" lon="2.06338">
        <ele>161.4</ele>
        <time>2023-12-14T08:32:04Z</time>
      </trkpt>
      <trkpt lat="48.52221" lon="2.06333">
        <ele>161.4</ele>
        <time>2023-12-14T08:32:05Z</time>
      </trkpt>
      <trkpt lat="48.52217" lon="2.06329">
        <ele>161.4</ele>
        <time>2023-12-14T08:32:06Z</time>
      </trkpt>
      <trkpt lat="48.52213" lon="2.06324">
        <ele>162</ele>
        <time>2023-12-14T08:32:07Z</time>
      </trkpt>
      <trkpt lat="48.52209" lon="2.0632">
        <ele>161.8</ele>
        <time>2023-12-14T08:32:08Z</time>
      </trkpt>
      <trkpt lat="48.52205" lon="2.06315">
        <ele>161.8</ele>
        <time>2023-12-14T08:32:09Z</time>
      </trkpt>
      <trkpt lat="48.52201" lon="2.06311">
        <ele>161.8</ele>
        <time>2023-12-14T08:32:10Z</time>
      </trkpt>
      <trkpt lat="48.52197" lon="2.06307">
        <ele>161.8</ele>
        <time>2023-12-14T08:32:11Z</time>
      </trkpt>
      <trkpt lat="48.52193" lon="2.06302">
        <ele>162</ele>
        <time>2023-12-14T08:32:12Z</time>
      </trkpt>
      <trkpt lat="48.52189" lon="2.06297">
        <ele>162</ele>
        <time>2023-12-14T08:32:13Z</time>
      </trkpt>
      <trkpt lat="48.52185" lon="2.06292">
        <ele>162</ele>
        <time>2023-12-14T08:32:14Z</time>
      </trkpt>
      <trkpt lat="48.52181" lon="2.06288">
        <ele>161.8</ele>
        <time>2023-12-14T08:32:15Z</time>
      </trkpt>
      <trkpt lat="48.52177" lon="2.06283">
        <ele>162.4</ele>
        <time>2023-12-14T08:32:16Z</time>
      </trkpt>
      <trkpt lat="48.52173" lon="2.06278">
        <ele>162.4</ele>
        <time>2023-12-14T08:32:17Z</time>
      </trkpt>
      <trkpt lat="48.52169" lon="2.06273">
        <ele>162.4</ele>
        <time>2023-12-14T08:32:18Z</time>
      </trkpt>
      <trkpt lat="48.52165" lon="2.06269">
        <ele>162.4</ele>
        <time>2023-12-14T08:32:19Z</time>
      </trkpt>
      <trkpt lat="48.52161" lon="2.06264">
        <ele>162.4</ele>
        <time>2023-12-14T08:32:20Z</time>
      </trkpt>
      <trkpt lat="48.52156" lon="2.06259">
        <ele>162.4</ele>
        <time>2023-12-14T08:32:21Z</time>
      </trkpt>
      <trkpt lat="48.52152" lon="2.06255">
        <ele>162.4</ele>
        <time>2023-12-14T08:32:22Z</time>
      </trkpt>
      <trkpt lat="48.52148" lon="2.0625">
        <ele>161.8</ele>
        <time>2023-12-14T08:32:23Z</time>
      </trkpt>
      <trkpt lat="48.52144" lon="2.06245">
        <ele>162.4</ele>
        <time>2023-12-14T08:32:24Z</time>
      </trkpt>
      <trkpt lat="48.5214" lon="2.0624">
        <ele>162.4</ele>
        <time>2023-12-14T08:32:25Z</time>
      </trkpt>
      <trkpt lat="48.52136" lon="2.06235">
        <ele>162.4</ele>
        <time>2023-12-14T08:32:26Z</time>
      </trkpt>
      <trkpt lat="48.52132" lon="2.0623">
        <ele>162.4</ele>
        <time>2023-12-14T08:32:27Z</time>
      </trkpt>
      <trkpt lat="48.52127" lon="2.06225">
        <ele>162.6</ele>
        <time>2023-12-14T08:32:28Z</time>
      </trkpt>
      <trkpt lat="48.52123" lon="2.06221">
        <ele>162.6</ele>
        <time>2023-12-14T08:32:29Z</time>
      </trkpt>
      <trkpt lat="48.52119" lon="2.06216">
        <ele>162.6</ele>
        <time>2023-12-14T08:32:30Z</time>
      </trkpt>
      <trkpt lat="48.52114" lon="2.06212">
        <ele>163.2</ele>
        <time>2023-12-14T08:32:31Z</time>
      </trkpt>
      <trkpt lat="48.5211" lon="2.06208">
        <ele>162.6</ele>
        <time>2023-12-14T08:32:32Z</time>
      </trkpt>
      <trkpt lat="48.52105" lon="2.06204">
        <ele>162.6</ele>
        <time>2023-12-14T08:32:33Z</time>
      </trkpt>
      <trkpt lat="48.521" lon="2.06199">
        <ele>162.6</ele>
        <time>2023-12-14T08:32:34Z</time>
      </trkpt>
      <trkpt lat="48.52095" lon="2.06195">
        <ele>163.4</ele>
        <time>2023-12-14T08:32:35Z</time>
      </trkpt>
      <trkpt lat="48.5209" lon="2.06192">
        <ele>162.8</ele>
        <time>2023-12-14T08:32:36Z</time>
      </trkpt>
      <trkpt lat="48.52085" lon="2.06188">
        <ele>162.8</ele>
        <time>2023-12-14T08:32:37Z</time>
      </trkpt>
      <trkpt lat="48.52081" lon="2.06185">
        <ele>162.8</ele>
        <time>2023-12-14T08:32:38Z</time>
      </trkpt>
      <trkpt lat="48.52076" lon="2.06182">
        <ele>162.8</ele>
        <time>2023-12-14T08:32:39Z</time>
      </trkpt>
      <trkpt lat="48.52071" lon="2.06179">
        <ele>162.8</ele>
        <time>2023-12-14T08:32:40Z</time>
      </trkpt>
      <trkpt lat="48.52066" lon="2.06176">
        <ele>162.8</ele>
        <time>2023-12-14T08:32:41Z</time>
      </trkpt>
      <trkpt lat="48.52062" lon="2.06173">
        <ele>162.8</ele>
        <time>2023-12-14T08:32:42Z</time>
      </trkpt>
      <trkpt lat="48.52057" lon="2.0617">
        <ele>162</ele>
        <time>2023-12-14T08:32:43Z</time>
      </trkpt>
      <trkpt lat="48.52052" lon="2.06167">
        <ele>162.4</ele>
        <time>2023-12-14T08:32:44Z</time>
      </trkpt>
      <trkpt lat="48.52046" lon="2.06165">
        <ele>162.4</ele>
        <time>2023-12-14T08:32:45Z</time>
      </trkpt>
      <trkpt lat="48.52041" lon="2.06162">
        <ele>162.4</ele>
        <time>2023-12-14T08:32:46Z</time>
      </trkpt>
      <trkpt lat="48.52035" lon="2.06159">
        <ele>161.8</ele>
        <time>2023-12-14T08:32:47Z</time>
      </trkpt>
      <trkpt lat="48.5203" lon="2.06156">
        <ele>162.2</ele>
        <time>2023-12-14T08:32:48Z</time>
      </trkpt>
      <trkpt lat="48.52024" lon="2.06154">
        <ele>162.2</ele>
        <time>2023-12-14T08:32:49Z</time>
      </trkpt>
      <trkpt lat="48.52018" lon="2.06152">
        <ele>162.2</ele>
        <time>2023-12-14T08:32:50Z</time>
      </trkpt>
      <trkpt lat="48.52012" lon="2.06149">
        <ele>162.2</ele>
        <time>2023-12-14T08:32:51Z</time>
      </trkpt>
      <trkpt lat="48.52006" lon="2.06146">
        <ele>161.8</ele>
        <time>2023-12-14T08:32:52Z</time>
      </trkpt>
      <trkpt lat="48.52" lon="2.06144">
        <ele>161.8</ele>
        <time>2023-12-14T08:32:53Z</time>
      </trkpt>
      <trkpt lat="48.51994" lon="2.06141">
        <ele>161.8</ele>
        <time>2023-12-14T08:32:54Z</time>
      </trkpt>
      <trkpt lat="48.51989" lon="2.06138">
        <ele>161.6</ele>
        <time>2023-12-14T08:32:55Z</time>
      </trkpt>
      <trkpt lat="48.51983" lon="2.06135">
        <ele>161.4</ele>
        <time>2023-12-14T08:32:56Z</time>
      </trkpt>
      <trkpt lat="48.51977" lon="2.06133">
        <ele>161.4</ele>
        <time>2023-12-14T08:32:57Z</time>
      </trkpt>
      <trkpt lat="48.5197" lon="2.0613">
        <ele>161.4</ele>
        <time>2023-12-14T08:32:58Z</time>
      </trkpt>
      <trkpt lat="48.51964" lon="2.06128">
        <ele>161.2</ele>
        <time>2023-12-14T08:32:59Z</time>
      </trkpt>
      <trkpt lat="48.51958" lon="2.06125">
        <ele>160.8</ele>
        <time>2023-12-14T08:33:00Z</time>
      </trkpt>
      <trkpt lat="48.51952" lon="2.06122">
        <ele>160.8</ele>
        <time>2023-12-14T08:33:01Z</time>
      </trkpt>
      <trkpt lat="48.51946" lon="2.0612">
        <ele>160.8</ele>
        <time>2023-12-14T08:33:02Z</time>
      </trkpt>
      <trkpt lat="48.5194" lon="2.06117">
        <ele>160.8</ele>
        <time>2023-12-14T08:33:03Z</time>
      </trkpt>
      <trkpt lat="48.51933" lon="2.06114">
        <ele>161.2</ele>
        <time>2023-12-14T08:33:04Z</time>
      </trkpt>
      <trkpt lat="48.51927" lon="2.06111">
        <ele>161.2</ele>
        <time>2023-12-14T08:33:05Z</time>
      </trkpt>
      <trkpt lat="48.51921" lon="2.06109">
        <ele>161.2</ele>
        <time>2023-12-14T08:33:06Z</time>
      </trkpt>
      <trkpt lat="48.51915" lon="2.06106">
        <ele>160.8</ele>
        <time>2023-12-14T08:33:07Z</time>
      </trkpt>
      <trkpt lat="48.51908" lon="2.06103">
        <ele>160.2</ele>
        <time>2023-12-14T08:33:08Z</time>
      </trkpt>
      <trkpt lat="48.51902" lon="2.06101">
        <ele>160.2</ele>
        <time>2023-12-14T08:33:09Z</time>
      </trkpt>
      <trkpt lat="48.51896" lon="2.06098">
        <ele>160.2</ele>
        <time>2023-12-14T08:33:10Z</time>
      </trkpt>
      <trkpt lat="48.5189" lon="2.06095">
        <ele>160.2</ele>
        <time>2023-12-14T08:33:11Z</time>
      </trkpt>
      <trkpt lat="48.51884" lon="2.06092">
        <ele>160.2</ele>
        <time>2023-12-14T08:33:12Z</time>
      </trkpt>
      <trkpt lat="48.51877" lon="2.06089">
        <ele>160</ele>
        <time>2023-12-14T08:33:13Z</time>
      </trkpt>
      <trkpt lat="48.51871" lon="2.06086">
        <ele>160</ele>
        <time>2023-12-14T08:33:14Z</time>
      </trkpt>
      <trkpt lat="48.51865" lon="2.06084">
        <ele>159.8</ele>
        <time>2023-12-14T08:33:15Z</time>
      </trkpt>
      <trkpt lat="48.51859" lon="2.06081">
        <ele>160.4</ele>
        <time>2023-12-14T08:33:16Z</time>
      </trkpt>
      <trkpt lat="48.51852" lon="2.06078">
        <ele>160.4</ele>
        <time>2023-12-14T08:33:17Z</time>
      </trkpt>
      <trkpt lat="48.51846" lon="2.06075">
        <ele>160.4</ele>
        <time>2023-12-14T08:33:18Z</time>
      </trkpt>
      <trkpt lat="48.5184" lon="2.06073">
        <ele>160.4</ele>
        <time>2023-12-14T08:33:19Z</time>
      </trkpt>
      <trkpt lat="48.51833" lon="2.0607">
        <ele>160.2</ele>
        <time>2023-12-14T08:33:20Z</time>
      </trkpt>
      <trkpt lat="48.51827" lon="2.06068">
        <ele>160.2</ele>
        <time>2023-12-14T08:33:21Z</time>
      </trkpt>
      <trkpt lat="48.51821" lon="2.06065">
        <ele>160.2</ele>
        <time>2023-12-14T08:33:22Z</time>
      </trkpt>
      <trkpt lat="48.51815" lon="2.06062">
        <ele>160.2</ele>
        <time>2023-12-14T08:33:23Z</time>
      </trkpt>
      <trkpt lat="48.51808" lon="2.06059">
        <ele>160</ele>
        <time>2023-12-14T08:33:24Z</time>
      </trkpt>
      <trkpt lat="48.51802" lon="2.06056">
        <ele>160</ele>
        <time>2023-12-14T08:33:25Z</time>
      </trkpt>
      <trkpt lat="48.51796" lon="2.06054">
        <ele>160</ele>
        <time>2023-12-14T08:33:26Z</time>
      </trkpt>
      <trkpt lat="48.5179" lon="2.06051">
        <ele>159.6</ele>
        <time>2023-12-14T08:33:27Z</time>
      </trkpt>
      <trkpt lat="48.51784" lon="2.06048">
        <ele>159.2</ele>
        <time>2023-12-14T08:33:28Z</time>
      </trkpt>
      <trkpt lat="48.51778" lon="2.06045">
        <ele>159.2</ele>
        <time>2023-12-14T08:33:29Z</time>
      </trkpt>
      <trkpt lat="48.51772" lon="2.06043">
        <ele>159.2</ele>
        <time>2023-12-14T08:33:30Z</time>
      </trkpt>
      <trkpt lat="48.51766" lon="2.0604">
        <ele>159.2</ele>
        <time>2023-12-14T08:33:31Z</time>
      </trkpt>
      <trkpt lat="48.51761" lon="2.06037">
        <ele>158.8</ele>
        <time>2023-12-14T08:33:32Z</time>
      </trkpt>
      <trkpt lat="48.51755" lon="2.06035">
        <ele>158.8</ele>
        <time>2023-12-14T08:33:33Z</time>
      </trkpt>
      <trkpt lat="48.5175" lon="2.06032">
        <ele>158.8</ele>
        <time>2023-12-14T08:33:34Z</time>
      </trkpt>
      <trkpt lat="48.51744" lon="2.0603">
        <ele>158.8</ele>
        <time>2023-12-14T08:33:35Z</time>
      </trkpt>
      <trkpt lat="48.51739" lon="2.06028">
        <ele>159.4</ele>
        <time>2023-12-14T08:33:36Z</time>
      </trkpt>
      <trkpt lat="48.51734" lon="2.06026">
        <ele>159.4</ele>
        <time>2023-12-14T08:33:37Z</time>
      </trkpt>
      <trkpt lat="48.51729" lon="2.06024">
        <ele>159.4</ele>
        <time>2023-12-14T08:33:38Z</time>
      </trkpt>
      <trkpt lat="48.51724" lon="2.06021">
        <ele>159.4</ele>
        <time>2023-12-14T08:33:39Z</time>
      </trkpt>
      <trkpt lat="48.5172" lon="2.06018">
        <ele>159.2</ele>
        <time>2023-12-14T08:33:40Z</time>
      </trkpt>
      <trkpt lat="48.51716" lon="2.06013">
        <ele>159.2</ele>
        <time>2023-12-14T08:33:41Z</time>
      </trkpt>
      <trkpt lat="48.51713" lon="2.06007">
        <ele>159.2</ele>
        <time>2023-12-14T08:33:42Z</time>
      </trkpt>
      <trkpt lat="48.5171" lon="2.06001">
        <ele>158.8</ele>
        <time>2023-12-14T08:33:43Z</time>
      </trkpt>
      <trkpt lat="48.51708" lon="2.05995">
        <ele>158.8</ele>
        <time>2023-12-14T08:33:44Z</time>
      </trkpt>
      <trkpt lat="48.51705" lon="2.05988">
        <ele>158.8</ele>
        <time>2023-12-14T08:33:45Z</time>
      </trkpt>
      <trkpt lat="48.51702" lon="2.05982">
        <ele>158.8</ele>
        <time>2023-12-14T08:33:46Z</time>
      </trkpt>
      <trkpt lat="48.51699" lon="2.05976">
        <ele>158.8</ele>
        <time>2023-12-14T08:33:47Z</time>
      </trkpt>
      <trkpt lat="48.51696" lon="2.0597">
        <ele>158.8</ele>
        <time>2023-12-14T08:33:48Z</time>
      </trkpt>
      <trkpt lat="48.51694" lon="2.05964">
        <ele>158.8</ele>
        <time>2023-12-14T08:33:49Z</time>
      </trkpt>
      <trkpt lat="48.5169" lon="2.05958">
        <ele>158.8</ele>
        <time>2023-12-14T08:33:50Z</time>
      </trkpt>
      <trkpt lat="48.51688" lon="2.05952">
        <ele>159.2</ele>
        <time>2023-12-14T08:33:51Z</time>
      </trkpt>
      <trkpt lat="48.51685" lon="2.05945">
        <ele>159.2</ele>
        <time>2023-12-14T08:33:52Z</time>
      </trkpt>
      <trkpt lat="48.51682" lon="2.05939">
        <ele>159.2</ele>
        <time>2023-12-14T08:33:53Z</time>
      </trkpt>
      <trkpt lat="48.51679" lon="2.05933">
        <ele>159.2</ele>
        <time>2023-12-14T08:33:54Z</time>
      </trkpt>
      <trkpt lat="48.51676" lon="2.05927">
        <ele>159.2</ele>
        <time>2023-12-14T08:33:55Z</time>
      </trkpt>
      <trkpt lat="48.51673" lon="2.05921">
        <ele>159.8</ele>
        <time>2023-12-14T08:33:56Z</time>
      </trkpt>
      <trkpt lat="48.5167" lon="2.05915">
        <ele>159.8</ele>
        <time>2023-12-14T08:33:57Z</time>
      </trkpt>
      <trkpt lat="48.51667" lon="2.05908">
        <ele>159.8</ele>
        <time>2023-12-14T08:33:58Z</time>
      </trkpt>
      <trkpt lat="48.51663" lon="2.05902">
        <ele>159.8</ele>
        <time>2023-12-14T08:33:59Z</time>
      </trkpt>
      <trkpt lat="48.5166" lon="2.05895">
        <ele>159.8</ele>
        <time>2023-12-14T08:34:00Z</time>
      </trkpt>
      <trkpt lat="48.51657" lon="2.05889">
        <ele>159.8</ele>
        <time>2023-12-14T08:34:01Z</time>
      </trkpt>
      <trkpt lat="48.51654" lon="2.05882">
        <ele>159.8</ele>
        <time>2023-12-14T08:34:02Z</time>
      </trkpt>
      <trkpt lat="48.51651" lon="2.05876">
        <ele>159.8</ele>
        <time>2023-12-14T08:34:03Z</time>
      </trkpt>
      <trkpt lat="48.51648" lon="2.05869">
        <ele>159.4</ele>
        <time>2023-12-14T08:34:04Z</time>
      </trkpt>
      <trkpt lat="48.51645" lon="2.05863">
        <ele>159.4</ele>
        <time>2023-12-14T08:34:05Z</time>
      </trkpt>
      <trkpt lat="48.51642" lon="2.05856">
        <ele>159.4</ele>
        <time>2023-12-14T08:34:06Z</time>
      </trkpt>
      <trkpt lat="48.51639" lon="2.05849">
        <ele>159.6</ele>
        <time>2023-12-14T08:34:07Z</time>
      </trkpt>
      <trkpt lat="48.51635" lon="2.05842">
        <ele>159.8</ele>
        <time>2023-12-14T08:34:08Z</time>
      </trkpt>
      <trkpt lat="48.51632" lon="2.05836">
        <ele>159.8</ele>
        <time>2023-12-14T08:34:09Z</time>
      </trkpt>
      <trkpt lat="48.51629" lon="2.05829">
        <ele>159.8</ele>
        <time>2023-12-14T08:34:10Z</time>
      </trkpt>
      <trkpt lat="48.51626" lon="2.05822">
        <ele>159.8</ele>
        <time>2023-12-14T08:34:11Z</time>
      </trkpt>
      <trkpt lat="48.51623" lon="2.05816">
        <ele>159.8</ele>
        <time>2023-12-14T08:34:12Z</time>
      </trkpt>
      <trkpt lat="48.5162" lon="2.05809">
        <ele>159.8</ele>
        <time>2023-12-14T08:34:13Z</time>
      </trkpt>
      <trkpt lat="48.51617" lon="2.05802">
        <ele>159.8</ele>
        <time>2023-12-14T08:34:14Z</time>
      </trkpt>
      <trkpt lat="48.51614" lon="2.05795">
        <ele>159.8</ele>
        <time>2023-12-14T08:34:15Z</time>
      </trkpt>
      <trkpt lat="48.51611" lon="2.05788">
        <ele>159.6</ele>
        <time>2023-12-14T08:34:16Z</time>
      </trkpt>
      <trkpt lat="48.51609" lon="2.05781">
        <ele>159.6</ele>
        <time>2023-12-14T08:34:17Z</time>
      </trkpt>
      <trkpt lat="48.51607" lon="2.05774">
        <ele>159.6</ele>
        <time>2023-12-14T08:34:18Z</time>
      </trkpt>
      <trkpt lat="48.51606" lon="2.05767">
        <ele>159.6</ele>
        <time>2023-12-14T08:34:19Z</time>
      </trkpt>
      <trkpt lat="48.51605" lon="2.05759">
        <ele>160.2</ele>
        <time>2023-12-14T08:34:20Z</time>
      </trkpt>
      <trkpt lat="48.51604" lon="2.05752">
        <ele>160.2</ele>
        <time>2023-12-14T08:34:21Z</time>
      </trkpt>
      <trkpt lat="48.51604" lon="2.05745">
        <ele>160.2</ele>
        <time>2023-12-14T08:34:22Z</time>
      </trkpt>
      <trkpt lat="48.51604" lon="2.05739">
        <ele>160.2</ele>
        <time>2023-12-14T08:34:23Z</time>
      </trkpt>
      <trkpt lat="48.51605" lon="2.05733">
        <ele>161</ele>
        <time>2023-12-14T08:34:24Z</time>
      </trkpt>
      <trkpt lat="48.51606" lon="2.05728">
        <ele>161</ele>
        <time>2023-12-14T08:34:25Z</time>
      </trkpt>
      <trkpt lat="48.51605" lon="2.05724">
        <ele>161</ele>
        <time>2023-12-14T08:34:26Z</time>
      </trkpt>
      <trkpt lat="48.51603" lon="2.0572">
        <ele>161.4</ele>
        <time>2023-12-14T08:34:27Z</time>
      </trkpt>
      <trkpt lat="48.516" lon="2.05718">
        <ele>161.6</ele>
        <time>2023-12-14T08:34:28Z</time>
      </trkpt>
      <trkpt lat="48.51596" lon="2.05719">
        <ele>161.6</ele>
        <time>2023-12-14T08:34:29Z</time>
      </trkpt>
      <trkpt lat="48.51592" lon="2.05719">
        <ele>161.6</ele>
        <time>2023-12-14T08:34:30Z</time>
      </trkpt>
      <trkpt lat="48.51587" lon="2.0572">
        <ele>161.4</ele>
        <time>2023-12-14T08:34:31Z</time>
      </trkpt>
      <trkpt lat="48.51583" lon="2.05721">
        <ele>160.6</ele>
        <time>2023-12-14T08:34:32Z</time>
      </trkpt>
      <trkpt lat="48.51578" lon="2.05722">
        <ele>160.6</ele>
        <time>2023-12-14T08:34:33Z</time>
      </trkpt>
      <trkpt lat="48.51573" lon="2.05723">
        <ele>160.6</ele>
        <time>2023-12-14T08:34:34Z</time>
      </trkpt>
      <trkpt lat="48.51568" lon="2.05724">
        <ele>160.6</ele>
        <time>2023-12-14T08:34:35Z</time>
      </trkpt>
      <trkpt lat="48.51563" lon="2.05725">
        <ele>160.6</ele>
        <time>2023-12-14T08:34:36Z</time>
      </trkpt>
      <trkpt lat="48.51557" lon="2.05725">
        <ele>160.6</ele>
        <time>2023-12-14T08:34:37Z</time>
      </trkpt>
      <trkpt lat="48.51551" lon="2.05726">
        <ele>160.6</ele>
        <time>2023-12-14T08:34:38Z</time>
      </trkpt>
      <trkpt lat="48.51546" lon="2.05726">
        <ele>160.6</ele>
        <time>2023-12-14T08:34:39Z</time>
      </trkpt>
      <trkpt lat="48.5154" lon="2.05727">
        <ele>160.4</ele>
        <time>2023-12-14T08:34:40Z</time>
      </trkpt>
      <trkpt lat="48.51534" lon="2.05728">
        <ele>160.4</ele>
        <time>2023-12-14T08:34:41Z</time>
      </trkpt>
      <trkpt lat="48.51528" lon="2.05729">
        <ele>160.4</ele>
        <time>2023-12-14T08:34:42Z</time>
      </trkpt>
      <trkpt lat="48.51522" lon="2.05729">
        <ele>160.4</ele>
        <time>2023-12-14T08:34:43Z</time>
      </trkpt>
      <trkpt lat="48.51515" lon="2.0573">
        <ele>159.4</ele>
        <time>2023-12-14T08:34:44Z</time>
      </trkpt>
      <trkpt lat="48.51509" lon="2.0573">
        <ele>159.4</ele>
        <time>2023-12-14T08:34:45Z</time>
      </trkpt>
      <trkpt lat="48.51503" lon="2.05731">
        <ele>159.4</ele>
        <time>2023-12-14T08:34:46Z</time>
      </trkpt>
      <trkpt lat="48.51496" lon="2.05732">
        <ele>159.4</ele>
        <time>2023-12-14T08:34:47Z</time>
      </trkpt>
      <trkpt lat="48.5149" lon="2.05733">
        <ele>159.6</ele>
        <time>2023-12-14T08:34:48Z</time>
      </trkpt>
      <trkpt lat="48.51483" lon="2.05734">
        <ele>159.6</ele>
        <time>2023-12-14T08:34:49Z</time>
      </trkpt>
      <trkpt lat="48.51477" lon="2.05734">
        <ele>159.6</ele>
        <time>2023-12-14T08:34:50Z</time>
      </trkpt>
      <trkpt lat="48.5147" lon="2.05735">
        <ele>159.4</ele>
        <time>2023-12-14T08:34:51Z</time>
      </trkpt>
      <trkpt lat="48.51463" lon="2.05736">
        <ele>159.8</ele>
        <time>2023-12-14T08:34:52Z</time>
      </trkpt>
      <trkpt lat="48.51456" lon="2.05736">
        <ele>159.8</ele>
        <time>2023-12-14T08:34:53Z</time>
      </trkpt>
      <trkpt lat="48.5145" lon="2.05737">
        <ele>159.8</ele>
        <time>2023-12-14T08:34:54Z</time>
      </trkpt>
      <trkpt lat="48.51443" lon="2.05738">
        <ele>159.8</ele>
        <time>2023-12-14T08:34:55Z</time>
      </trkpt>
      <trkpt lat="48.51436" lon="2.05738">
        <ele>159.6</ele>
        <time>2023-12-14T08:34:56Z</time>
      </trkpt>
      <trkpt lat="48.51429" lon="2.05739">
        <ele>159.6</ele>
        <time>2023-12-14T08:34:57Z</time>
      </trkpt>
      <trkpt lat="48.51422" lon="2.0574">
        <ele>159.6</ele>
        <time>2023-12-14T08:34:58Z</time>
      </trkpt>
      <trkpt lat="48.51415" lon="2.05741">
        <ele>158.6</ele>
        <time>2023-12-14T08:34:59Z</time>
      </trkpt>
      <trkpt lat="48.51408" lon="2.05742">
        <ele>158.6</ele>
        <time>2023-12-14T08:35:00Z</time>
      </trkpt>
      <trkpt lat="48.51401" lon="2.05743">
        <ele>158.6</ele>
        <time>2023-12-14T08:35:01Z</time>
      </trkpt>
      <trkpt lat="48.51394" lon="2.05743">
        <ele>158.6</ele>
        <time>2023-12-14T08:35:02Z</time>
      </trkpt>
      <trkpt lat="48.51387" lon="2.05744">
        <ele>158.6</ele>
        <time>2023-12-14T08:35:03Z</time>
      </trkpt>
      <trkpt lat="48.51379" lon="2.05745">
        <ele>158.8</ele>
        <time>2023-12-14T08:35:04Z</time>
      </trkpt>
      <trkpt lat="48.51372" lon="2.05746">
        <ele>158.8</ele>
        <time>2023-12-14T08:35:05Z</time>
      </trkpt>
      <trkpt lat="48.51365" lon="2.05747">
        <ele>158.8</ele>
        <time>2023-12-14T08:35:06Z</time>
      </trkpt>
      <trkpt lat="48.51358" lon="2.05747">
        <ele>158.2</ele>
        <time>2023-12-14T08:35:07Z</time>
      </trkpt>
      <trkpt lat="48.51351" lon="2.05748">
        <ele>158</ele>
        <time>2023-12-14T08:35:08Z</time>
      </trkpt>
      <trkpt lat="48.51343" lon="2.05749">
        <ele>158</ele>
        <time>2023-12-14T08:35:09Z</time>
      </trkpt>
      <trkpt lat="48.51336" lon="2.0575">
        <ele>158</ele>
        <time>2023-12-14T08:35:10Z</time>
      </trkpt>
      <trkpt lat="48.51329" lon="2.05751">
        <ele>158.8</ele>
        <time>2023-12-14T08:35:11Z</time>
      </trkpt>
      <trkpt lat="48.51322" lon="2.05751">
        <ele>158.2</ele>
        <time>2023-12-14T08:35:12Z</time>
      </trkpt>
      <trkpt lat="48.51314" lon="2.05752">
        <ele>158.2</ele>
        <time>2023-12-14T08:35:13Z</time>
      </trkpt>
      <trkpt lat="48.51307" lon="2.05753">
        <ele>158.2</ele>
        <time>2023-12-14T08:35:14Z</time>
      </trkpt>
      <trkpt lat="48.513" lon="2.05754">
        <ele>158.2</ele>
        <time>2023-12-14T08:35:15Z</time>
      </trkpt>
      <trkpt lat="48.51292" lon="2.05755">
        <ele>158</ele>
        <time>2023-12-14T08:35:16Z</time>
      </trkpt>
      <trkpt lat="48.51285" lon="2.05755">
        <ele>158</ele>
        <time>2023-12-14T08:35:17Z</time>
      </trkpt>
      <trkpt lat="48.51278" lon="2.05756">
        <ele>158</ele>
        <time>2023-12-14T08:35:18Z</time>
      </trkpt>
      <trkpt lat="48.5127" lon="2.05756">
        <ele>158</ele>
        <time>2023-12-14T08:35:19Z</time>
      </trkpt>
      <trkpt lat="48.51263" lon="2.05757">
        <ele>157.8</ele>
        <time>2023-12-14T08:35:20Z</time>
      </trkpt>
      <trkpt lat="48.51256" lon="2.05757">
        <ele>157.8</ele>
        <time>2023-12-14T08:35:21Z</time>
      </trkpt>
      <trkpt lat="48.51248" lon="2.05758">
        <ele>157.8</ele>
        <time>2023-12-14T08:35:22Z</time>
      </trkpt>
      <trkpt lat="48.51241" lon="2.05758">
        <ele>158</ele>
        <time>2023-12-14T08:35:23Z</time>
      </trkpt>
      <trkpt lat="48.51234" lon="2.05758">
        <ele>158.8</ele>
        <time>2023-12-14T08:35:24Z</time>
      </trkpt>
      <trkpt lat="48.51227" lon="2.05759">
        <ele>158.8</ele>
        <time>2023-12-14T08:35:25Z</time>
      </trkpt>
      <trkpt lat="48.5122" lon="2.05759">
        <ele>158.8</ele>
        <time>2023-12-14T08:35:26Z</time>
      </trkpt>
      <trkpt lat="48.51212" lon="2.05759">
        <ele>158.8</ele>
        <time>2023-12-14T08:35:27Z</time>
      </trkpt>
      <trkpt lat="48.51205" lon="2.05759">
        <ele>159</ele>
        <time>2023-12-14T08:35:28Z</time>
      </trkpt>
      <trkpt lat="48.51198" lon="2.0576">
        <ele>159</ele>
        <time>2023-12-14T08:35:29Z</time>
      </trkpt>
      <trkpt lat="48.51191" lon="2.0576">
        <ele>159</ele>
        <time>2023-12-14T08:35:30Z</time>
      </trkpt>
      <trkpt lat="48.51184" lon="2.0576">
        <ele>158.8</ele>
        <time>2023-12-14T08:35:31Z</time>
      </trkpt>
      <trkpt lat="48.51176" lon="2.05761">
        <ele>158.2</ele>
        <time>2023-12-14T08:35:32Z</time>
      </trkpt>
      <trkpt lat="48.51169" lon="2.05761">
        <ele>158.2</ele>
        <time>2023-12-14T08:35:33Z</time>
      </trkpt>
      <trkpt lat="48.51162" lon="2.05762">
        <ele>158.2</ele>
        <time>2023-12-14T08:35:34Z</time>
      </trkpt>
      <trkpt lat="48.51155" lon="2.05762">
        <ele>158.4</ele>
        <time>2023-12-14T08:35:35Z</time>
      </trkpt>
      <trkpt lat="48.51148" lon="2.05762">
        <ele>158.8</ele>
        <time>2023-12-14T08:35:36Z</time>
      </trkpt>
      <trkpt lat="48.51141" lon="2.05763">
        <ele>158.8</ele>
        <time>2023-12-14T08:35:37Z</time>
      </trkpt>
      <trkpt lat="48.51134" lon="2.05764">
        <ele>158.8</ele>
        <time>2023-12-14T08:35:38Z</time>
      </trkpt>
      <trkpt lat="48.51127" lon="2.05764">
        <ele>158.4</ele>
        <time>2023-12-14T08:35:39Z</time>
      </trkpt>
      <trkpt lat="48.5112" lon="2.05765">
        <ele>158.2</ele>
        <time>2023-12-14T08:35:40Z</time>
      </trkpt>
      <trkpt lat="48.51113" lon="2.05765">
        <ele>158.2</ele>
        <time>2023-12-14T08:35:41Z</time>
      </trkpt>
      <trkpt lat="48.51106" lon="2.05766">
        <ele>158.2</ele>
        <time>2023-12-14T08:35:42Z</time>
      </trkpt>
      <trkpt lat="48.51099" lon="2.05766">
        <ele>158.8</ele>
        <time>2023-12-14T08:35:43Z</time>
      </trkpt>
      <trkpt lat="48.51092" lon="2.05766">
        <ele>158.8</ele>
        <time>2023-12-14T08:35:44Z</time>
      </trkpt>
      <trkpt lat="48.51086" lon="2.05766">
        <ele>158.8</ele>
        <time>2023-12-14T08:35:45Z</time>
      </trkpt>
      <trkpt lat="48.51079" lon="2.05767">
        <ele>158.8</ele>
        <time>2023-12-14T08:35:46Z</time>
      </trkpt>
      <trkpt lat="48.51072" lon="2.05767">
        <ele>158.8</ele>
        <time>2023-12-14T08:35:47Z</time>
      </trkpt>
      <trkpt lat="48.51065" lon="2.05768">
        <ele>158.4</ele>
        <time>2023-12-14T08:35:48Z</time>
      </trkpt>
      <trkpt lat="48.51058" lon="2.05768">
        <ele>158.4</ele>
        <time>2023-12-14T08:35:49Z</time>
      </trkpt>
      <trkpt lat="48.51052" lon="2.05768">
        <ele>158.4</ele>
        <time>2023-12-14T08:35:50Z</time>
      </trkpt>
      <trkpt lat="48.51045" lon="2.05769">
        <ele>159.2</ele>
        <time>2023-12-14T08:35:51Z</time>
      </trkpt>
      <trkpt lat="48.51039" lon="2.05769">
        <ele>159.6</ele>
        <time>2023-12-14T08:35:52Z</time>
      </trkpt>
      <trkpt lat="48.51032" lon="2.0577">
        <ele>159.6</ele>
        <time>2023-12-14T08:35:53Z</time>
      </trkpt>
      <trkpt lat="48.51026" lon="2.0577">
        <ele>159.6</ele>
        <time>2023-12-14T08:35:54Z</time>
      </trkpt>
      <trkpt lat="48.51019" lon="2.0577">
        <ele>159.4</ele>
        <time>2023-12-14T08:35:55Z</time>
      </trkpt>
      <trkpt lat="48.51013" lon="2.0577">
        <ele>160</ele>
        <time>2023-12-14T08:35:56Z</time>
      </trkpt>
      <trkpt lat="48.51007" lon="2.05771">
        <ele>160</ele>
        <time>2023-12-14T08:35:57Z</time>
      </trkpt>
      <trkpt lat="48.51" lon="2.05771">
        <ele>160</ele>
        <time>2023-12-14T08:35:58Z</time>
      </trkpt>
      <trkpt lat="48.50994" lon="2.05771">
        <ele>160</ele>
        <time>2023-12-14T08:35:59Z</time>
      </trkpt>
      <trkpt lat="48.50988" lon="2.05771">
        <ele>160.2</ele>
        <time>2023-12-14T08:36:00Z</time>
      </trkpt>
      <trkpt lat="48.50982" lon="2.05772">
        <ele>160.2</ele>
        <time>2023-12-14T08:36:01Z</time>
      </trkpt>
      <trkpt lat="48.50976" lon="2.05772">
        <ele>160.2</ele>
        <time>2023-12-14T08:36:02Z</time>
      </trkpt>
      <trkpt lat="48.50969" lon="2.05772">
        <ele>160.6</ele>
        <time>2023-12-14T08:36:03Z</time>
      </trkpt>
      <trkpt lat="48.50963" lon="2.05773">
        <ele>160.4</ele>
        <time>2023-12-14T08:36:04Z</time>
      </trkpt>
      <trkpt lat="48.50957" lon="2.05773">
        <ele>160.4</ele>
        <time>2023-12-14T08:36:05Z</time>
      </trkpt>
      <trkpt lat="48.5095" lon="2.05774">
        <ele>160.4</ele>
        <time>2023-12-14T08:36:06Z</time>
      </trkpt>
      <trkpt lat="48.50944" lon="2.05774">
        <ele>161.4</ele>
        <time>2023-12-14T08:36:07Z</time>
      </trkpt>
      <trkpt lat="48.50938" lon="2.05775">
        <ele>161.2</ele>
        <time>2023-12-14T08:36:08Z</time>
      </trkpt>
      <trkpt lat="48.50932" lon="2.05777">
        <ele>161.2</ele>
        <time>2023-12-14T08:36:09Z</time>
      </trkpt>
      <trkpt lat="48.50925" lon="2.05779">
        <ele>161.2</ele>
        <time>2023-12-14T08:36:10Z</time>
      </trkpt>
      <trkpt lat="48.50919" lon="2.05781">
        <ele>161.2</ele>
        <time>2023-12-14T08:36:11Z</time>
      </trkpt>
      <trkpt lat="48.50913" lon="2.05783">
        <ele>160.8</ele>
        <time>2023-12-14T08:36:12Z</time>
      </trkpt>
      <trkpt lat="48.50906" lon="2.05786">
        <ele>160.8</ele>
        <time>2023-12-14T08:36:13Z</time>
      </trkpt>
      <trkpt lat="48.509" lon="2.05789">
        <ele>160.8</ele>
        <time>2023-12-14T08:36:14Z</time>
      </trkpt>
      <trkpt lat="48.50894" lon="2.05793">
        <ele>160.8</ele>
        <time>2023-12-14T08:36:15Z</time>
      </trkpt>
      <trkpt lat="48.50887" lon="2.05796">
        <ele>161.4</ele>
        <time>2023-12-14T08:36:16Z</time>
      </trkpt>
      <trkpt lat="48.50881" lon="2.058">
        <ele>161.4</ele>
        <time>2023-12-14T08:36:17Z</time>
      </trkpt>
      <trkpt lat="48.50875" lon="2.05803">
        <ele>161.4</ele>
        <time>2023-12-14T08:36:18Z</time>
      </trkpt>
      <trkpt lat="48.50868" lon="2.05807">
        <ele>160.4</ele>
        <time>2023-12-14T08:36:19Z</time>
      </trkpt>
      <trkpt lat="48.50861" lon="2.0581">
        <ele>160</ele>
        <time>2023-12-14T08:36:20Z</time>
      </trkpt>
      <trkpt lat="48.50854" lon="2.05814">
        <ele>160</ele>
        <time>2023-12-14T08:36:21Z</time>
      </trkpt>
      <trkpt lat="48.50847" lon="2.05817">
        <ele>160</ele>
        <time>2023-12-14T08:36:22Z</time>
      </trkpt>
      <trkpt lat="48.5084" lon="2.05819">
        <ele>160</ele>
        <time>2023-12-14T08:36:23Z</time>
      </trkpt>
      <trkpt lat="48.50833" lon="2.05821">
        <ele>159.8</ele>
        <time>2023-12-14T08:36:24Z</time>
      </trkpt>
      <trkpt lat="48.50826" lon="2.05822">
        <ele>159.8</ele>
        <time>2023-12-14T08:36:25Z</time>
      </trkpt>
      <trkpt lat="48.50818" lon="2.05823">
        <ele>159.8</ele>
        <time>2023-12-14T08:36:26Z</time>
      </trkpt>
      <trkpt lat="48.50811" lon="2.05824">
        <ele>159.2</ele>
        <time>2023-12-14T08:36:27Z</time>
      </trkpt>
      <trkpt lat="48.50803" lon="2.05824">
        <ele>158.4</ele>
        <time>2023-12-14T08:36:28Z</time>
      </trkpt>
      <trkpt lat="48.50796" lon="2.05825">
        <ele>158.4</ele>
        <time>2023-12-14T08:36:29Z</time>
      </trkpt>
      <trkpt lat="48.50788" lon="2.05824">
        <ele>158.4</ele>
        <time>2023-12-14T08:36:30Z</time>
      </trkpt>
      <trkpt lat="48.5078" lon="2.05824">
        <ele>158.4</ele>
        <time>2023-12-14T08:36:31Z</time>
      </trkpt>
      <trkpt lat="48.50772" lon="2.05823">
        <ele>157.6</ele>
        <time>2023-12-14T08:36:32Z</time>
      </trkpt>
      <trkpt lat="48.50765" lon="2.05822">
        <ele>157.6</ele>
        <time>2023-12-14T08:36:33Z</time>
      </trkpt>
      <trkpt lat="48.50757" lon="2.0582">
        <ele>157.6</ele>
        <time>2023-12-14T08:36:34Z</time>
      </trkpt>
      <trkpt lat="48.50749" lon="2.05819">
        <ele>157</ele>
        <time>2023-12-14T08:36:35Z</time>
      </trkpt>
      <trkpt lat="48.50741" lon="2.05817">
        <ele>157.6</ele>
        <time>2023-12-14T08:36:36Z</time>
      </trkpt>
      <trkpt lat="48.50733" lon="2.05815">
        <ele>157.6</ele>
        <time>2023-12-14T08:36:37Z</time>
      </trkpt>
      <trkpt lat="48.50725" lon="2.05814">
        <ele>157.6</ele>
        <time>2023-12-14T08:36:38Z</time>
      </trkpt>
      <trkpt lat="48.50718" lon="2.05811">
        <ele>156.8</ele>
        <time>2023-12-14T08:36:39Z</time>
      </trkpt>
      <trkpt lat="48.5071" lon="2.05809">
        <ele>156.8</ele>
        <time>2023-12-14T08:36:40Z</time>
      </trkpt>
      <trkpt lat="48.50702" lon="2.05808">
        <ele>156.8</ele>
        <time>2023-12-14T08:36:41Z</time>
      </trkpt>
      <trkpt lat="48.50694" lon="2.05806">
        <ele>156.8</ele>
        <time>2023-12-14T08:36:42Z</time>
      </trkpt>
      <trkpt lat="48.50686" lon="2.05804">
        <ele>156.8</ele>
        <time>2023-12-14T08:36:43Z</time>
      </trkpt>
      <trkpt lat="48.50678" lon="2.05802">
        <ele>156.6</ele>
        <time>2023-12-14T08:36:44Z</time>
      </trkpt>
      <trkpt lat="48.50671" lon="2.05801">
        <ele>156.6</ele>
        <time>2023-12-14T08:36:45Z</time>
      </trkpt>
      <trkpt lat="48.50663" lon="2.05799">
        <ele>156.6</ele>
        <time>2023-12-14T08:36:46Z</time>
      </trkpt>
      <trkpt lat="48.50655" lon="2.05797">
        <ele>156.6</ele>
        <time>2023-12-14T08:36:47Z</time>
      </trkpt>
      <trkpt lat="48.50648" lon="2.05796">
        <ele>155.8</ele>
        <time>2023-12-14T08:36:48Z</time>
      </trkpt>
      <trkpt lat="48.5064" lon="2.05794">
        <ele>155.8</ele>
        <time>2023-12-14T08:36:49Z</time>
      </trkpt>
      <trkpt lat="48.50633" lon="2.05793">
        <ele>155.8</ele>
        <time>2023-12-14T08:36:50Z</time>
      </trkpt>
      <trkpt lat="48.50626" lon="2.05791">
        <ele>155.8</ele>
        <time>2023-12-14T08:36:51Z</time>
      </trkpt>
      <trkpt lat="48.50618" lon="2.05789">
        <ele>155.4</ele>
        <time>2023-12-14T08:36:52Z</time>
      </trkpt>
      <trkpt lat="48.50611" lon="2.05787">
        <ele>155.4</ele>
        <time>2023-12-14T08:36:53Z</time>
      </trkpt>
      <trkpt lat="48.50604" lon="2.05786">
        <ele>155.4</ele>
        <time>2023-12-14T08:36:54Z</time>
      </trkpt>
      <trkpt lat="48.50598" lon="2.05784">
        <ele>155.4</ele>
        <time>2023-12-14T08:36:55Z</time>
      </trkpt>
      <trkpt lat="48.50591" lon="2.05782">
        <ele>155.2</ele>
        <time>2023-12-14T08:36:56Z</time>
      </trkpt>
      <trkpt lat="48.50584" lon="2.05781">
        <ele>155.2</ele>
        <time>2023-12-14T08:36:57Z</time>
      </trkpt>
      <trkpt lat="48.50577" lon="2.05779">
        <ele>155.2</ele>
        <time>2023-12-14T08:36:58Z</time>
      </trkpt>
      <trkpt lat="48.50571" lon="2.05777">
        <ele>155.2</ele>
        <time>2023-12-14T08:36:59Z</time>
      </trkpt>
      <trkpt lat="48.50564" lon="2.05776">
        <ele>155.6</ele>
        <time>2023-12-14T08:37:00Z</time>
      </trkpt>
      <trkpt lat="48.50557" lon="2.05775">
        <ele>155.6</ele>
        <time>2023-12-14T08:37:01Z</time>
      </trkpt>
      <trkpt lat="48.50551" lon="2.05773">
        <ele>155.6</ele>
        <time>2023-12-14T08:37:02Z</time>
      </trkpt>
      <trkpt lat="48.50544" lon="2.05772">
        <ele>154.6</ele>
        <time>2023-12-14T08:37:03Z</time>
      </trkpt>
      <trkpt lat="48.50536" lon="2.0577">
        <ele>153.8</ele>
        <time>2023-12-14T08:37:04Z</time>
      </trkpt>
      <trkpt lat="48.50529" lon="2.05768">
        <ele>153.8</ele>
        <time>2023-12-14T08:37:05Z</time>
      </trkpt>
      <trkpt lat="48.50522" lon="2.05766">
        <ele>153.8</ele>
        <time>2023-12-14T08:37:06Z</time>
      </trkpt>
      <trkpt lat="48.50514" lon="2.05765">
        <ele>152.8</ele>
        <time>2023-12-14T08:37:07Z</time>
      </trkpt>
      <trkpt lat="48.50506" lon="2.05763">
        <ele>152.2</ele>
        <time>2023-12-14T08:37:08Z</time>
      </trkpt>
      <trkpt lat="48.50499" lon="2.05762">
        <ele>152.2</ele>
        <time>2023-12-14T08:37:09Z</time>
      </trkpt>
      <trkpt lat="48.5049" lon="2.0576">
        <ele>152.2</ele>
        <time>2023-12-14T08:37:10Z</time>
      </trkpt>
      <trkpt lat="48.50482" lon="2.0576">
        <ele>151.8</ele>
        <time>2023-12-14T08:37:11Z</time>
      </trkpt>
      <trkpt lat="48.50474" lon="2.0576">
        <ele>150.6</ele>
        <time>2023-12-14T08:37:12Z</time>
      </trkpt>
      <trkpt lat="48.50465" lon="2.0576">
        <ele>150.6</ele>
        <time>2023-12-14T08:37:13Z</time>
      </trkpt>
      <trkpt lat="48.50456" lon="2.05762">
        <ele>150.6</ele>
        <time>2023-12-14T08:37:14Z</time>
      </trkpt>
      <trkpt lat="48.50446" lon="2.05763">
        <ele>149.6</ele>
        <time>2023-12-14T08:37:15Z</time>
      </trkpt>
      <trkpt lat="48.50437" lon="2.05766">
        <ele>147.2</ele>
        <time>2023-12-14T08:37:16Z</time>
      </trkpt>
      <trkpt lat="48.50428" lon="2.0577">
        <ele>147.2</ele>
        <time>2023-12-14T08:37:17Z</time>
      </trkpt>
      <trkpt lat="48.50418" lon="2.05775">
        <ele>147.2</ele>
        <time>2023-12-14T08:37:18Z</time>
      </trkpt>
      <trkpt lat="48.50409" lon="2.05781">
        <ele>146.2</ele>
        <time>2023-12-14T08:37:19Z</time>
      </trkpt>
      <trkpt lat="48.50399" lon="2.05787">
        <ele>144.2</ele>
        <time>2023-12-14T08:37:20Z</time>
      </trkpt>
      <trkpt lat="48.5039" lon="2.05793">
        <ele>144.2</ele>
        <time>2023-12-14T08:37:21Z</time>
      </trkpt>
      <trkpt lat="48.5038" lon="2.058">
        <ele>144.2</ele>
        <time>2023-12-14T08:37:22Z</time>
      </trkpt>
      <trkpt lat="48.5037" lon="2.05807">
        <ele>143.2</ele>
        <time>2023-12-14T08:37:23Z</time>
      </trkpt>
      <trkpt lat="48.5036" lon="2.05813">
        <ele>140.8</ele>
        <time>2023-12-14T08:37:24Z</time>
      </trkpt>
      <trkpt lat="48.5035" lon="2.0582">
        <ele>140.8</ele>
        <time>2023-12-14T08:37:25Z</time>
      </trkpt>
      <trkpt lat="48.5034" lon="2.05827">
        <ele>140.8</ele>
        <time>2023-12-14T08:37:26Z</time>
      </trkpt>
      <trkpt lat="48.50332" lon="2.05833">
        <ele>140.8</ele>
        <time>2023-12-14T08:37:27Z</time>
      </trkpt>
      <trkpt lat="48.50324" lon="2.05839">
        <ele>140.2</ele>
        <time>2023-12-14T08:37:28Z</time>
      </trkpt>
      <trkpt lat="48.50315" lon="2.05845">
        <ele>140.2</ele>
        <time>2023-12-14T08:37:29Z</time>
      </trkpt>
      <trkpt lat="48.50307" lon="2.05851">
        <ele>140.2</ele>
        <time>2023-12-14T08:37:30Z</time>
      </trkpt>
      <trkpt lat="48.50299" lon="2.05856">
        <ele>139.2</ele>
        <time>2023-12-14T08:37:31Z</time>
      </trkpt>
      <trkpt lat="48.50291" lon="2.05862">
        <ele>138.6</ele>
        <time>2023-12-14T08:37:32Z</time>
      </trkpt>
      <trkpt lat="48.50283" lon="2.05868">
        <ele>138.6</ele>
        <time>2023-12-14T08:37:33Z</time>
      </trkpt>
      <trkpt lat="48.50275" lon="2.05873">
        <ele>138.6</ele>
        <time>2023-12-14T08:37:34Z</time>
      </trkpt>
      <trkpt lat="48.50268" lon="2.05878">
        <ele>137.6</ele>
        <time>2023-12-14T08:37:35Z</time>
      </trkpt>
      <trkpt lat="48.50261" lon="2.05882">
        <ele>136.8</ele>
        <time>2023-12-14T08:37:36Z</time>
      </trkpt>
      <trkpt lat="48.50254" lon="2.05887">
        <ele>136.8</ele>
        <time>2023-12-14T08:37:37Z</time>
      </trkpt>
      <trkpt lat="48.50247" lon="2.0589">
        <ele>136.8</ele>
        <time>2023-12-14T08:37:38Z</time>
      </trkpt>
      <trkpt lat="48.5024" lon="2.05894">
        <ele>135.8</ele>
        <time>2023-12-14T08:37:39Z</time>
      </trkpt>
      <trkpt lat="48.50233" lon="2.05898">
        <ele>134.2</ele>
        <time>2023-12-14T08:37:40Z</time>
      </trkpt>
      <trkpt lat="48.50226" lon="2.05903">
        <ele>134.2</ele>
        <time>2023-12-14T08:37:41Z</time>
      </trkpt>
      <trkpt lat="48.50219" lon="2.05908">
        <ele>134.2</ele>
        <time>2023-12-14T08:37:42Z</time>
      </trkpt>
      <trkpt lat="48.50212" lon="2.05914">
        <ele>134.2</ele>
        <time>2023-12-14T08:37:43Z</time>
      </trkpt>
      <trkpt lat="48.50205" lon="2.05921">
        <ele>131</ele>
        <time>2023-12-14T08:37:44Z</time>
      </trkpt>
      <trkpt lat="48.50198" lon="2.0593">
        <ele>131</ele>
        <time>2023-12-14T08:37:45Z</time>
      </trkpt>
      <trkpt lat="48.50191" lon="2.05939">
        <ele>131</ele>
        <time>2023-12-14T08:37:46Z</time>
      </trkpt>
      <trkpt lat="48.50185" lon="2.05949">
        <ele>130.6</ele>
        <time>2023-12-14T08:37:47Z</time>
      </trkpt>
      <trkpt lat="48.50179" lon="2.0596">
        <ele>131</ele>
        <time>2023-12-14T08:37:48Z</time>
      </trkpt>
      <trkpt lat="48.50173" lon="2.05972">
        <ele>131</ele>
        <time>2023-12-14T08:37:49Z</time>
      </trkpt>
      <trkpt lat="48.50168" lon="2.05984">
        <ele>131</ele>
        <time>2023-12-14T08:37:50Z</time>
      </trkpt>
      <trkpt lat="48.50164" lon="2.05997">
        <ele>130</ele>
        <time>2023-12-14T08:37:51Z</time>
      </trkpt>
      <trkpt lat="48.5016" lon="2.06011">
        <ele>127.8</ele>
        <time>2023-12-14T08:37:52Z</time>
      </trkpt>
      <trkpt lat="48.50156" lon="2.06025">
        <ele>127.8</ele>
        <time>2023-12-14T08:37:53Z</time>
      </trkpt>
      <trkpt lat="48.50152" lon="2.06039">
        <ele>127.8</ele>
        <time>2023-12-14T08:37:54Z</time>
      </trkpt>
      <trkpt lat="48.50149" lon="2.06054">
        <ele>126.8</ele>
        <time>2023-12-14T08:37:55Z</time>
      </trkpt>
      <trkpt lat="48.50145" lon="2.06068">
        <ele>124.6</ele>
        <time>2023-12-14T08:37:56Z</time>
      </trkpt>
      <trkpt lat="48.50142" lon="2.06083">
        <ele>124.6</ele>
        <time>2023-12-14T08:37:57Z</time>
      </trkpt>
      <trkpt lat="48.50138" lon="2.06098">
        <ele>124.6</ele>
        <time>2023-12-14T08:37:58Z</time>
      </trkpt>
      <trkpt lat="48.50135" lon="2.06113">
        <ele>123.6</ele>
        <time>2023-12-14T08:37:59Z</time>
      </trkpt>
      <trkpt lat="48.50132" lon="2.06128">
        <ele>122</ele>
        <time>2023-12-14T08:38:00Z</time>
      </trkpt>
      <trkpt lat="48.50129" lon="2.06143">
        <ele>122</ele>
        <time>2023-12-14T08:38:01Z</time>
      </trkpt>
      <trkpt lat="48.50126" lon="2.06157">
        <ele>122</ele>
        <time>2023-12-14T08:38:02Z</time>
      </trkpt>
      <trkpt lat="48.50123" lon="2.06171">
        <ele>122.8</ele>
        <time>2023-12-14T08:38:03Z</time>
      </trkpt>
      <trkpt lat="48.5012" lon="2.06185">
        <ele>123.2</ele>
        <time>2023-12-14T08:38:04Z</time>
      </trkpt>
      <trkpt lat="48.50117" lon="2.06198">
        <ele>123.2</ele>
        <time>2023-12-14T08:38:05Z</time>
      </trkpt>
      <trkpt lat="48.50114" lon="2.06211">
        <ele>123.2</ele>
        <time>2023-12-14T08:38:06Z</time>
      </trkpt>
      <trkpt lat="48.50112" lon="2.06222">
        <ele>124.2</ele>
        <time>2023-12-14T08:38:07Z</time>
      </trkpt>
      <trkpt lat="48.5011" lon="2.06233">
        <ele>126</ele>
        <time>2023-12-14T08:38:08Z</time>
      </trkpt>
      <trkpt lat="48.50108" lon="2.06241">
        <ele>126</ele>
        <time>2023-12-14T08:38:09Z</time>
      </trkpt>
      <trkpt lat="48.50107" lon="2.06249">
        <ele>126</ele>
        <time>2023-12-14T08:38:10Z</time>
      </trkpt>
      <trkpt lat="48.50106" lon="2.06256">
        <ele>127</ele>
        <time>2023-12-14T08:38:11Z</time>
      </trkpt>
      <trkpt lat="48.50104" lon="2.06262">
        <ele>129.2</ele>
        <time>2023-12-14T08:38:12Z</time>
      </trkpt>
      <trkpt lat="48.50103" lon="2.06266">
        <ele>129.2</ele>
        <time>2023-12-14T08:38:13Z</time>
      </trkpt>
      <trkpt lat="48.50102" lon="2.06272">
        <ele>129.2</ele>
        <time>2023-12-14T08:38:14Z</time>
      </trkpt>
      <trkpt lat="48.501" lon="2.06277">
        <ele>130.2</ele>
        <time>2023-12-14T08:38:15Z</time>
      </trkpt>
      <trkpt lat="48.501" lon="2.06282">
        <ele>130.6</ele>
        <time>2023-12-14T08:38:16Z</time>
      </trkpt>
      <trkpt lat="48.50099" lon="2.06286">
        <ele>130.6</ele>
        <time>2023-12-14T08:38:17Z</time>
      </trkpt>
      <trkpt lat="48.50098" lon="2.0629">
        <ele>130.6</ele>
        <time>2023-12-14T08:38:18Z</time>
      </trkpt>
      <trkpt lat="48.50097" lon="2.06294">
        <ele>131.6</ele>
        <time>2023-12-14T08:38:19Z</time>
      </trkpt>
      <trkpt lat="48.50096" lon="2.06298">
        <ele>131.8</ele>
        <time>2023-12-14T08:38:20Z</time>
      </trkpt>
      <trkpt lat="48.50095" lon="2.06303">
        <ele>131.8</ele>
        <time>2023-12-14T08:38:21Z</time>
      </trkpt>
      <trkpt lat="48.50094" lon="2.06307">
        <ele>131.8</ele>
        <time>2023-12-14T08:38:22Z</time>
      </trkpt>
      <trkpt lat="48.50093" lon="2.06312">
        <ele>132.6</ele>
        <time>2023-12-14T08:38:23Z</time>
      </trkpt>
      <trkpt lat="48.50092" lon="2.06316">
        <ele>132.8</ele>
        <time>2023-12-14T08:38:24Z</time>
      </trkpt>
      <trkpt lat="48.50091" lon="2.0632">
        <ele>132.8</ele>
        <time>2023-12-14T08:38:25Z</time>
      </trkpt>
      <trkpt lat="48.5009" lon="2.06325">
        <ele>132.8</ele>
        <time>2023-12-14T08:38:26Z</time>
      </trkpt>
      <trkpt lat="48.50088" lon="2.06329">
        <ele>133.6</ele>
        <time>2023-12-14T08:38:27Z</time>
      </trkpt>
      <trkpt lat="48.50087" lon="2.06334">
        <ele>133.6</ele>
        <time>2023-12-14T08:38:28Z</time>
      </trkpt>
      <trkpt lat="48.50086" lon="2.06338">
        <ele>133.6</ele>
        <time>2023-12-14T08:38:29Z</time>
      </trkpt>
      <trkpt lat="48.50086" lon="2.06342">
        <ele>133.6</ele>
        <time>2023-12-14T08:38:30Z</time>
      </trkpt>
      <trkpt lat="48.50085" lon="2.06347">
        <ele>134.6</ele>
        <time>2023-12-14T08:38:31Z</time>
      </trkpt>
      <trkpt lat="48.50084" lon="2.06353">
        <ele>134.6</ele>
        <time>2023-12-14T08:38:32Z</time>
      </trkpt>
      <trkpt lat="48.50083" lon="2.06357">
        <ele>134.6</ele>
        <time>2023-12-14T08:38:33Z</time>
      </trkpt>
      <trkpt lat="48.50083" lon="2.06363">
        <ele>134.6</ele>
        <time>2023-12-14T08:38:34Z</time>
      </trkpt>
      <trkpt lat="48.50082" lon="2.06367">
        <ele>135</ele>
        <time>2023-12-14T08:38:35Z</time>
      </trkpt>
      <trkpt lat="48.50081" lon="2.06372">
        <ele>135.4</ele>
        <time>2023-12-14T08:38:36Z</time>
      </trkpt>
      <trkpt lat="48.5008" lon="2.06376">
        <ele>135.4</ele>
        <time>2023-12-14T08:38:37Z</time>
      </trkpt>
      <trkpt lat="48.50078" lon="2.06381">
        <ele>135.4</ele>
        <time>2023-12-14T08:38:38Z</time>
      </trkpt>
      <trkpt lat="48.50077" lon="2.06385">
        <ele>135.4</ele>
        <time>2023-12-14T08:38:39Z</time>
      </trkpt>
      <trkpt lat="48.50077" lon="2.06389">
        <ele>136.6</ele>
        <time>2023-12-14T08:38:40Z</time>
      </trkpt>
      <trkpt lat="48.50076" lon="2.06392">
        <ele>136.6</ele>
        <time>2023-12-14T08:38:41Z</time>
      </trkpt>
      <trkpt lat="48.50075" lon="2.06395">
        <ele>136.6</ele>
        <time>2023-12-14T08:38:42Z</time>
      </trkpt>
      <trkpt lat="48.50074" lon="2.06399">
        <ele>136.6</ele>
        <time>2023-12-14T08:38:43Z</time>
      </trkpt>
      <trkpt lat="48.50072" lon="2.06401">
        <ele>137.2</ele>
        <time>2023-12-14T08:38:44Z</time>
      </trkpt>
      <trkpt lat="48.50072" lon="2.06404">
        <ele>137.2</ele>
        <time>2023-12-14T08:38:45Z</time>
      </trkpt>
      <trkpt lat="48.5007" lon="2.06407">
        <ele>137.2</ele>
        <time>2023-12-14T08:38:46Z</time>
      </trkpt>
      <trkpt lat="48.50068" lon="2.0641">
        <ele>137.2</ele>
        <time>2023-12-14T08:38:47Z</time>
      </trkpt>
      <trkpt lat="48.50067" lon="2.06414">
        <ele>138.4</ele>
        <time>2023-12-14T08:38:48Z</time>
      </trkpt>
      <trkpt lat="48.50064" lon="2.06417">
        <ele>138.4</ele>
        <time>2023-12-14T08:38:49Z</time>
      </trkpt>
      <trkpt lat="48.50062" lon="2.0642">
        <ele>138.4</ele>
        <time>2023-12-14T08:38:50Z</time>
      </trkpt>
      <trkpt lat="48.5006" lon="2.06423">
        <ele>139.2</ele>
        <time>2023-12-14T08:38:51Z</time>
      </trkpt>
      <trkpt lat="48.50058" lon="2.06426">
        <ele>139.2</ele>
        <time>2023-12-14T08:38:52Z</time>
      </trkpt>
      <trkpt lat="48.50055" lon="2.06428">
        <ele>139.2</ele>
        <time>2023-12-14T08:38:53Z</time>
      </trkpt>
      <trkpt lat="48.50052" lon="2.06431">
        <ele>139.2</ele>
        <time>2023-12-14T08:38:54Z</time>
      </trkpt>
      <trkpt lat="48.5005" lon="2.06434">
        <ele>139.2</ele>
        <time>2023-12-14T08:38:55Z</time>
      </trkpt>
      <trkpt lat="48.50046" lon="2.06436">
        <ele>139.2</ele>
        <time>2023-12-14T08:38:56Z</time>
      </trkpt>
      <trkpt lat="48.50043" lon="2.06437">
        <ele>139.2</ele>
        <time>2023-12-14T08:38:57Z</time>
      </trkpt>
      <trkpt lat="48.5004" lon="2.06438">
        <ele>139.2</ele>
        <time>2023-12-14T08:38:58Z</time>
      </trkpt>
      <trkpt lat="48.50036" lon="2.06438">
        <ele>139.6</ele>
        <time>2023-12-14T08:38:59Z</time>
      </trkpt>
      <trkpt lat="48.50033" lon="2.06438">
        <ele>140.2</ele>
        <time>2023-12-14T08:39:00Z</time>
      </trkpt>
      <trkpt lat="48.5003" lon="2.06437">
        <ele>140.2</ele>
        <time>2023-12-14T08:39:01Z</time>
      </trkpt>
      <trkpt lat="48.50027" lon="2.06436">
        <ele>140.2</ele>
        <time>2023-12-14T08:39:02Z</time>
      </trkpt>
      <trkpt lat="48.50024" lon="2.06435">
        <ele>140.2</ele>
        <time>2023-12-14T08:39:03Z</time>
      </trkpt>
      <trkpt lat="48.50021" lon="2.06435">
        <ele>140.6</ele>
        <time>2023-12-14T08:39:04Z</time>
      </trkpt>
      <trkpt lat="48.50019" lon="2.06433">
        <ele>140.6</ele>
        <time>2023-12-14T08:39:05Z</time>
      </trkpt>
      <trkpt lat="48.50016" lon="2.06432">
        <ele>140.6</ele>
        <time>2023-12-14T08:39:06Z</time>
      </trkpt>
      <trkpt lat="48.50014" lon="2.06429">
        <ele>140.6</ele>
        <time>2023-12-14T08:39:07Z</time>
      </trkpt>
      <trkpt lat="48.50011" lon="2.06428">
        <ele>141.2</ele>
        <time>2023-12-14T08:39:08Z</time>
      </trkpt>
      <trkpt lat="48.50007" lon="2.06427">
        <ele>141.2</ele>
        <time>2023-12-14T08:39:09Z</time>
      </trkpt>
      <trkpt lat="48.50005" lon="2.06425">
        <ele>141.2</ele>
        <time>2023-12-14T08:39:10Z</time>
      </trkpt>
      <trkpt lat="48.50002" lon="2.06423">
        <ele>142</ele>
        <time>2023-12-14T08:39:11Z</time>
      </trkpt>
      <trkpt lat="48.49999" lon="2.0642">
        <ele>142.2</ele>
        <time>2023-12-14T08:39:12Z</time>
      </trkpt>
      <trkpt lat="48.49997" lon="2.06417">
        <ele>142.2</ele>
        <time>2023-12-14T08:39:13Z</time>
      </trkpt>
      <trkpt lat="48.49994" lon="2.06415">
        <ele>142.2</ele>
        <time>2023-12-14T08:39:14Z</time>
      </trkpt>
      <trkpt lat="48.49992" lon="2.06412">
        <ele>142.8</ele>
        <time>2023-12-14T08:39:15Z</time>
      </trkpt>
      <trkpt lat="48.4999" lon="2.0641">
        <ele>143.4</ele>
        <time>2023-12-14T08:39:16Z</time>
      </trkpt>
      <trkpt lat="48.49987" lon="2.06407">
        <ele>143.4</ele>
        <time>2023-12-14T08:39:17Z</time>
      </trkpt>
      <trkpt lat="48.49985" lon="2.06404">
        <ele>143.4</ele>
        <time>2023-12-14T08:39:18Z</time>
      </trkpt>
      <trkpt lat="48.49982" lon="2.06401">
        <ele>143.4</ele>
        <time>2023-12-14T08:39:19Z</time>
      </trkpt>
      <trkpt lat="48.4998" lon="2.06399">
        <ele>144.2</ele>
        <time>2023-12-14T08:39:20Z</time>
      </trkpt>
      <trkpt lat="48.49978" lon="2.06396">
        <ele>144.2</ele>
        <time>2023-12-14T08:39:21Z</time>
      </trkpt>
      <trkpt lat="48.49976" lon="2.06393">
        <ele>144.2</ele>
        <time>2023-12-14T08:39:22Z</time>
      </trkpt>
      <trkpt lat="48.49973" lon="2.06389">
        <ele>145</ele>
        <time>2023-12-14T08:39:23Z</time>
      </trkpt>
      <trkpt lat="48.49971" lon="2.06387">
        <ele>145</ele>
        <time>2023-12-14T08:39:24Z</time>
      </trkpt>
      <trkpt lat="48.49969" lon="2.06384">
        <ele>145</ele>
        <time>2023-12-14T08:39:25Z</time>
      </trkpt>
      <trkpt lat="48.49966" lon="2.06381">
        <ele>145</ele>
        <time>2023-12-14T08:39:26Z</time>
      </trkpt>
      <trkpt lat="48.49964" lon="2.06378">
        <ele>145.6</ele>
        <time>2023-12-14T08:39:27Z</time>
      </trkpt>
      <trkpt lat="48.49962" lon="2.06374">
        <ele>146</ele>
        <time>2023-12-14T08:39:28Z</time>
      </trkpt>
      <trkpt lat="48.4996" lon="2.06371">
        <ele>146</ele>
        <time>2023-12-14T08:39:29Z</time>
      </trkpt>
      <trkpt lat="48.49958" lon="2.06368">
        <ele>146</ele>
        <time>2023-12-14T08:39:30Z</time>
      </trkpt>
      <trkpt lat="48.49956" lon="2.06364">
        <ele>146</ele>
        <time>2023-12-14T08:39:31Z</time>
      </trkpt>
      <trkpt lat="48.49954" lon="2.06361">
        <ele>146.2</ele>
        <time>2023-12-14T08:39:32Z</time>
      </trkpt>
      <trkpt lat="48.49952" lon="2.06358">
        <ele>146.2</ele>
        <time>2023-12-14T08:39:33Z</time>
      </trkpt>
      <trkpt lat="48.4995" lon="2.06355">
        <ele>146.2</ele>
        <time>2023-12-14T08:39:34Z</time>
      </trkpt>
      <trkpt lat="48.49949" lon="2.06353">
        <ele>146.6</ele>
        <time>2023-12-14T08:39:35Z</time>
      </trkpt>
      <trkpt lat="48.49947" lon="2.06351">
        <ele>147.4</ele>
        <time>2023-12-14T08:39:36Z</time>
      </trkpt>
      <trkpt lat="48.49945" lon="2.06348">
        <ele>147.4</ele>
        <time>2023-12-14T08:39:37Z</time>
      </trkpt>
      <trkpt lat="48.49943" lon="2.06345">
        <ele>147.4</ele>
        <time>2023-12-14T08:39:38Z</time>
      </trkpt>
      <trkpt lat="48.49941" lon="2.06342">
        <ele>148</ele>
        <time>2023-12-14T08:39:39Z</time>
      </trkpt>
      <trkpt lat="48.49939" lon="2.06339">
        <ele>148.2</ele>
        <time>2023-12-14T08:39:40Z</time>
      </trkpt>
      <trkpt lat="48.49937" lon="2.06336">
        <ele>148.2</ele>
        <time>2023-12-14T08:39:41Z</time>
      </trkpt>
      <trkpt lat="48.49935" lon="2.06333">
        <ele>148.2</ele>
        <time>2023-12-14T08:39:42Z</time>
      </trkpt>
      <trkpt lat="48.49932" lon="2.06331">
        <ele>148.8</ele>
        <time>2023-12-14T08:39:43Z</time>
      </trkpt>
      <trkpt lat="48.4993" lon="2.06328">
        <ele>149</ele>
        <time>2023-12-14T08:39:44Z</time>
      </trkpt>
      <trkpt lat="48.49927" lon="2.06325">
        <ele>149</ele>
        <time>2023-12-14T08:39:45Z</time>
      </trkpt>
      <trkpt lat="48.49924" lon="2.06322">
        <ele>149</ele>
        <time>2023-12-14T08:39:46Z</time>
      </trkpt>
      <trkpt lat="48.49922" lon="2.0632">
        <ele>149.6</ele>
        <time>2023-12-14T08:39:47Z</time>
      </trkpt>
      <trkpt lat="48.4992" lon="2.06318">
        <ele>150.2</ele>
        <time>2023-12-14T08:39:48Z</time>
      </trkpt>
      <trkpt lat="48.49918" lon="2.06315">
        <ele>150.2</ele>
        <time>2023-12-14T08:39:49Z</time>
      </trkpt>
      <trkpt lat="48.49915" lon="2.06312">
        <ele>150.2</ele>
        <time>2023-12-14T08:39:50Z</time>
      </trkpt>
      <trkpt lat="48.49913" lon="2.0631">
        <ele>150.2</ele>
        <time>2023-12-14T08:39:51Z</time>
      </trkpt>
      <trkpt lat="48.4991" lon="2.06307">
        <ele>151</ele>
        <time>2023-12-14T08:39:52Z</time>
      </trkpt>
      <trkpt lat="48.49908" lon="2.06305">
        <ele>151</ele>
        <time>2023-12-14T08:39:53Z</time>
      </trkpt>
      <trkpt lat="48.49905" lon="2.06302">
        <ele>151</ele>
        <time>2023-12-14T08:39:54Z</time>
      </trkpt>
      <trkpt lat="48.49903" lon="2.063">
        <ele>151.4</ele>
        <time>2023-12-14T08:39:55Z</time>
      </trkpt>
      <trkpt lat="48.499" lon="2.06297">
        <ele>151.8</ele>
        <time>2023-12-14T08:39:56Z</time>
      </trkpt>
      <trkpt lat="48.49897" lon="2.06294">
        <ele>151.8</ele>
        <time>2023-12-14T08:39:57Z</time>
      </trkpt>
      <trkpt lat="48.49894" lon="2.06292">
        <ele>151.8</ele>
        <time>2023-12-14T08:39:58Z</time>
      </trkpt>
      <trkpt lat="48.49891" lon="2.0629">
        <ele>152.4</ele>
        <time>2023-12-14T08:39:59Z</time>
      </trkpt>
      <trkpt lat="48.49887" lon="2.06287">
        <ele>152.8</ele>
        <time>2023-12-14T08:40:00Z</time>
      </trkpt>
      <trkpt lat="48.49884" lon="2.06284">
        <ele>152.8</ele>
        <time>2023-12-14T08:40:01Z</time>
      </trkpt>
      <trkpt lat="48.49881" lon="2.06282">
        <ele>152.8</ele>
        <time>2023-12-14T08:40:02Z</time>
      </trkpt>
      <trkpt lat="48.49878" lon="2.0628">
        <ele>153.2</ele>
        <time>2023-12-14T08:40:03Z</time>
      </trkpt>
      <trkpt lat="48.49875" lon="2.06278">
        <ele>153.2</ele>
        <time>2023-12-14T08:40:04Z</time>
      </trkpt>
      <trkpt lat="48.49872" lon="2.06275">
        <ele>153.2</ele>
        <time>2023-12-14T08:40:05Z</time>
      </trkpt>
      <trkpt lat="48.49869" lon="2.06273">
        <ele>153.2</ele>
        <time>2023-12-14T08:40:06Z</time>
      </trkpt>
      <trkpt lat="48.49866" lon="2.06271">
        <ele>153.2</ele>
        <time>2023-12-14T08:40:07Z</time>
      </trkpt>
      <trkpt lat="48.49862" lon="2.06268">
        <ele>153.4</ele>
        <time>2023-12-14T08:40:08Z</time>
      </trkpt>
      <trkpt lat="48.49859" lon="2.06266">
        <ele>153.4</ele>
        <time>2023-12-14T08:40:09Z</time>
      </trkpt>
      <trkpt lat="48.49856" lon="2.06264">
        <ele>153.4</ele>
        <time>2023-12-14T08:40:10Z</time>
      </trkpt>
      <trkpt lat="48.49852" lon="2.06263">
        <ele>154</ele>
        <time>2023-12-14T08:40:11Z</time>
      </trkpt>
      <trkpt lat="48.49849" lon="2.06261">
        <ele>154</ele>
        <time>2023-12-14T08:40:12Z</time>
      </trkpt>
      <trkpt lat="48.49845" lon="2.06259">
        <ele>154</ele>
        <time>2023-12-14T08:40:13Z</time>
      </trkpt>
      <trkpt lat="48.49841" lon="2.06257">
        <ele>154</ele>
        <time>2023-12-14T08:40:14Z</time>
      </trkpt>
      <trkpt lat="48.49837" lon="2.06255">
        <ele>154</ele>
        <time>2023-12-14T08:40:15Z</time>
      </trkpt>
      <trkpt lat="48.49834" lon="2.06253">
        <ele>154.2</ele>
        <time>2023-12-14T08:40:16Z</time>
      </trkpt>
      <trkpt lat="48.4983" lon="2.06251">
        <ele>154.2</ele>
        <time>2023-12-14T08:40:17Z</time>
      </trkpt>
      <trkpt lat="48.49827" lon="2.06249">
        <ele>154.2</ele>
        <time>2023-12-14T08:40:18Z</time>
      </trkpt>
      <trkpt lat="48.49823" lon="2.06246">
        <ele>154.2</ele>
        <time>2023-12-14T08:40:19Z</time>
      </trkpt>
      <trkpt lat="48.4982" lon="2.06244">
        <ele>155</ele>
        <time>2023-12-14T08:40:20Z</time>
      </trkpt>
      <trkpt lat="48.49817" lon="2.06241">
        <ele>155</ele>
        <time>2023-12-14T08:40:21Z</time>
      </trkpt>
      <trkpt lat="48.49813" lon="2.06238">
        <ele>155</ele>
        <time>2023-12-14T08:40:22Z</time>
      </trkpt>
      <trkpt lat="48.4981" lon="2.06235">
        <ele>155</ele>
        <time>2023-12-14T08:40:23Z</time>
      </trkpt>
      <trkpt lat="48.49806" lon="2.06232">
        <ele>154.2</ele>
        <time>2023-12-14T08:40:24Z</time>
      </trkpt>
      <trkpt lat="48.49803" lon="2.06229">
        <ele>154.2</ele>
        <time>2023-12-14T08:40:25Z</time>
      </trkpt>
      <trkpt lat="48.49799" lon="2.06226">
        <ele>154.2</ele>
        <time>2023-12-14T08:40:26Z</time>
      </trkpt>
      <trkpt lat="48.49796" lon="2.06222">
        <ele>154.4</ele>
        <time>2023-12-14T08:40:27Z</time>
      </trkpt>
      <trkpt lat="48.49793" lon="2.06218">
        <ele>154.8</ele>
        <time>2023-12-14T08:40:28Z</time>
      </trkpt>
      <trkpt lat="48.49789" lon="2.06213">
        <ele>154.8</ele>
        <time>2023-12-14T08:40:29Z</time>
      </trkpt>
      <trkpt lat="48.49786" lon="2.06209">
        <ele>154.8</ele>
        <time>2023-12-14T08:40:30Z</time>
      </trkpt>
      <trkpt lat="48.49783" lon="2.06204">
        <ele>154.8</ele>
        <time>2023-12-14T08:40:31Z</time>
      </trkpt>
      <trkpt lat="48.4978" lon="2.06199">
        <ele>153.6</ele>
        <time>2023-12-14T08:40:32Z</time>
      </trkpt>
      <trkpt lat="48.49777" lon="2.06194">
        <ele>153.6</ele>
        <time>2023-12-14T08:40:33Z</time>
      </trkpt>
      <trkpt lat="48.49773" lon="2.06189">
        <ele>153.6</ele>
        <time>2023-12-14T08:40:34Z</time>
      </trkpt>
      <trkpt lat="48.4977" lon="2.06184">
        <ele>153.6</ele>
        <time>2023-12-14T08:40:35Z</time>
      </trkpt>
      <trkpt lat="48.49767" lon="2.06179">
        <ele>153.2</ele>
        <time>2023-12-14T08:40:36Z</time>
      </trkpt>
      <trkpt lat="48.49763" lon="2.06174">
        <ele>153.2</ele>
        <time>2023-12-14T08:40:37Z</time>
      </trkpt>
      <trkpt lat="48.4976" lon="2.06169">
        <ele>153.2</ele>
        <time>2023-12-14T08:40:38Z</time>
      </trkpt>
      <trkpt lat="48.49756" lon="2.06164">
        <ele>154.2</ele>
        <time>2023-12-14T08:40:39Z</time>
      </trkpt>
      <trkpt lat="48.49753" lon="2.0616">
        <ele>154.4</ele>
        <time>2023-12-14T08:40:40Z</time>
      </trkpt>
      <trkpt lat="48.49749" lon="2.06155">
        <ele>154.4</ele>
        <time>2023-12-14T08:40:41Z</time>
      </trkpt>
      <trkpt lat="48.49745" lon="2.06149">
        <ele>154.4</ele>
        <time>2023-12-14T08:40:42Z</time>
      </trkpt>
      <trkpt lat="48.49742" lon="2.06144">
        <ele>153.8</ele>
        <time>2023-12-14T08:40:43Z</time>
      </trkpt>
      <trkpt lat="48.49738" lon="2.06139">
        <ele>153.8</ele>
        <time>2023-12-14T08:40:44Z</time>
      </trkpt>
      <trkpt lat="48.49734" lon="2.06134">
        <ele>153.8</ele>
        <time>2023-12-14T08:40:45Z</time>
      </trkpt>
      <trkpt lat="48.49731" lon="2.06129">
        <ele>153.8</ele>
        <time>2023-12-14T08:40:46Z</time>
      </trkpt>
      <trkpt lat="48.49728" lon="2.06124">
        <ele>153.8</ele>
        <time>2023-12-14T08:40:47Z</time>
      </trkpt>
      <trkpt lat="48.49724" lon="2.06118">
        <ele>153.4</ele>
        <time>2023-12-14T08:40:48Z</time>
      </trkpt>
      <trkpt lat="48.4972" lon="2.06113">
        <ele>153.4</ele>
        <time>2023-12-14T08:40:49Z</time>
      </trkpt>
      <trkpt lat="48.49717" lon="2.06108">
        <ele>153.4</ele>
        <time>2023-12-14T08:40:50Z</time>
      </trkpt>
      <trkpt lat="48.49713" lon="2.06103">
        <ele>153.4</ele>
        <time>2023-12-14T08:40:51Z</time>
      </trkpt>
      <trkpt lat="48.49709" lon="2.06097">
        <ele>152.8</ele>
        <time>2023-12-14T08:40:52Z</time>
      </trkpt>
      <trkpt lat="48.49705" lon="2.06092">
        <ele>152.8</ele>
        <time>2023-12-14T08:40:53Z</time>
      </trkpt>
      <trkpt lat="48.49701" lon="2.06086">
        <ele>152.8</ele>
        <time>2023-12-14T08:40:54Z</time>
      </trkpt>
      <trkpt lat="48.49697" lon="2.06081">
        <ele>152.8</ele>
        <time>2023-12-14T08:40:55Z</time>
      </trkpt>
      <trkpt lat="48.49693" lon="2.06075">
        <ele>152.8</ele>
        <time>2023-12-14T08:40:56Z</time>
      </trkpt>
      <trkpt lat="48.49688" lon="2.0607">
        <ele>152.8</ele>
        <time>2023-12-14T08:40:57Z</time>
      </trkpt>
      <trkpt lat="48.49684" lon="2.06064">
        <ele>152.8</ele>
        <time>2023-12-14T08:40:58Z</time>
      </trkpt>
      <trkpt lat="48.4968" lon="2.06059">
        <ele>153.2</ele>
        <time>2023-12-14T08:40:59Z</time>
      </trkpt>
      <trkpt lat="48.49675" lon="2.06053">
        <ele>152.2</ele>
        <time>2023-12-14T08:41:00Z</time>
      </trkpt>
      <trkpt lat="48.49671" lon="2.06048">
        <ele>152.2</ele>
        <time>2023-12-14T08:41:01Z</time>
      </trkpt>
      <trkpt lat="48.49666" lon="2.06043">
        <ele>152.2</ele>
        <time>2023-12-14T08:41:02Z</time>
      </trkpt>
      <trkpt lat="48.49661" lon="2.06037">
        <ele>151.2</ele>
        <time>2023-12-14T08:41:03Z</time>
      </trkpt>
      <trkpt lat="48.49656" lon="2.06032">
        <ele>150.4</ele>
        <time>2023-12-14T08:41:04Z</time>
      </trkpt>
      <trkpt lat="48.4965" lon="2.06027">
        <ele>150.4</ele>
        <time>2023-12-14T08:41:05Z</time>
      </trkpt>
      <trkpt lat="48.49644" lon="2.06022">
        <ele>150.4</ele>
        <time>2023-12-14T08:41:06Z</time>
      </trkpt>
      <trkpt lat="48.49638" lon="2.06017">
        <ele>150.4</ele>
        <time>2023-12-14T08:41:07Z</time>
      </trkpt>
      <trkpt lat="48.49632" lon="2.06012">
        <ele>149.8</ele>
        <time>2023-12-14T08:41:08Z</time>
      </trkpt>
      <trkpt lat="48.49626" lon="2.06008">
        <ele>149.8</ele>
        <time>2023-12-14T08:41:09Z</time>
      </trkpt>
      <trkpt lat="48.49619" lon="2.06003">
        <ele>149.8</ele>
        <time>2023-12-14T08:41:10Z</time>
      </trkpt>
      <trkpt lat="48.49613" lon="2.05998">
        <ele>148.8</ele>
        <time>2023-12-14T08:41:11Z</time>
      </trkpt>
      <trkpt lat="48.49606" lon="2.05994">
        <ele>148.6</ele>
        <time>2023-12-14T08:41:12Z</time>
      </trkpt>
      <trkpt lat="48.49599" lon="2.05989">
        <ele>148.6</ele>
        <time>2023-12-14T08:41:13Z</time>
      </trkpt>
      <trkpt lat="48.49592" lon="2.05985">
        <ele>148.6</ele>
        <time>2023-12-14T08:41:14Z</time>
      </trkpt>
      <trkpt lat="48.49585" lon="2.0598">
        <ele>148.6</ele>
        <time>2023-12-14T08:41:15Z</time>
      </trkpt>
      <trkpt lat="48.49579" lon="2.05976">
        <ele>148.4</ele>
        <time>2023-12-14T08:41:16Z</time>
      </trkpt>
      <trkpt lat="48.49572" lon="2.05972">
        <ele>148.4</ele>
        <time>2023-12-14T08:41:17Z</time>
      </trkpt>
      <trkpt lat="48.49566" lon="2.05968">
        <ele>148.4</ele>
        <time>2023-12-14T08:41:18Z</time>
      </trkpt>
      <trkpt lat="48.49559" lon="2.05964">
        <ele>149.2</ele>
        <time>2023-12-14T08:41:19Z</time>
      </trkpt>
      <trkpt lat="48.49553" lon="2.05961">
        <ele>150.6</ele>
        <time>2023-12-14T08:41:20Z</time>
      </trkpt>
      <trkpt lat="48.49547" lon="2.05957">
        <ele>150.6</ele>
        <time>2023-12-14T08:41:21Z</time>
      </trkpt>
      <trkpt lat="48.49541" lon="2.05954">
        <ele>150.6</ele>
        <time>2023-12-14T08:41:22Z</time>
      </trkpt>
      <trkpt lat="48.49536" lon="2.05951">
        <ele>150.6</ele>
        <time>2023-12-14T08:41:23Z</time>
      </trkpt>
      <trkpt lat="48.4953" lon="2.05948">
        <ele>151.6</ele>
        <time>2023-12-14T08:41:24Z</time>
      </trkpt>
      <trkpt lat="48.49524" lon="2.05944">
        <ele>151.6</ele>
        <time>2023-12-14T08:41:25Z</time>
      </trkpt>
      <trkpt lat="48.49519" lon="2.05941">
        <ele>151.6</ele>
        <time>2023-12-14T08:41:26Z</time>
      </trkpt>
      <trkpt lat="48.49513" lon="2.05936">
        <ele>152.2</ele>
        <time>2023-12-14T08:41:27Z</time>
      </trkpt>
      <trkpt lat="48.49508" lon="2.05933">
        <ele>152</ele>
        <time>2023-12-14T08:41:28Z</time>
      </trkpt>
      <trkpt lat="48.49504" lon="2.05928">
        <ele>152</ele>
        <time>2023-12-14T08:41:29Z</time>
      </trkpt>
      <trkpt lat="48.495" lon="2.05923">
        <ele>152</ele>
        <time>2023-12-14T08:41:30Z</time>
      </trkpt>
      <trkpt lat="48.49496" lon="2.05918">
        <ele>152</ele>
        <time>2023-12-14T08:41:31Z</time>
      </trkpt>
      <trkpt lat="48.49492" lon="2.05914">
        <ele>152.2</ele>
        <time>2023-12-14T08:41:32Z</time>
      </trkpt>
      <trkpt lat="48.49488" lon="2.05909">
        <ele>152.2</ele>
        <time>2023-12-14T08:41:33Z</time>
      </trkpt>
      <trkpt lat="48.49485" lon="2.05905">
        <ele>152.2</ele>
        <time>2023-12-14T08:41:34Z</time>
      </trkpt>
      <trkpt lat="48.49481" lon="2.05899">
        <ele>152.2</ele>
        <time>2023-12-14T08:41:35Z</time>
      </trkpt>
      <trkpt lat="48.49478" lon="2.05894">
        <ele>153.2</ele>
        <time>2023-12-14T08:41:36Z</time>
      </trkpt>
      <trkpt lat="48.49475" lon="2.0589">
        <ele>153.2</ele>
        <time>2023-12-14T08:41:37Z</time>
      </trkpt>
      <trkpt lat="48.49473" lon="2.05886">
        <ele>153.2</ele>
        <time>2023-12-14T08:41:38Z</time>
      </trkpt>
      <trkpt lat="48.4947" lon="2.05882">
        <ele>153.2</ele>
        <time>2023-12-14T08:41:39Z</time>
      </trkpt>
      <trkpt lat="48.49468" lon="2.05878">
        <ele>153.8</ele>
        <time>2023-12-14T08:41:40Z</time>
      </trkpt>
      <trkpt lat="48.49465" lon="2.05874">
        <ele>153.8</ele>
        <time>2023-12-14T08:41:41Z</time>
      </trkpt>
      <trkpt lat="48.49463" lon="2.05869">
        <ele>153.8</ele>
        <time>2023-12-14T08:41:42Z</time>
      </trkpt>
      <trkpt lat="48.49461" lon="2.05865">
        <ele>153.8</ele>
        <time>2023-12-14T08:41:43Z</time>
      </trkpt>
      <trkpt lat="48.49458" lon="2.05861">
        <ele>153.8</ele>
        <time>2023-12-14T08:41:44Z</time>
      </trkpt>
      <trkpt lat="48.49456" lon="2.05857">
        <ele>153.8</ele>
        <time>2023-12-14T08:41:45Z</time>
      </trkpt>
      <trkpt lat="48.49454" lon="2.05852">
        <ele>153.8</ele>
        <time>2023-12-14T08:41:46Z</time>
      </trkpt>
      <trkpt lat="48.49451" lon="2.05848">
        <ele>153.8</ele>
        <time>2023-12-14T08:41:47Z</time>
      </trkpt>
      <trkpt lat="48.49449" lon="2.05844">
        <ele>154.2</ele>
        <time>2023-12-14T08:41:48Z</time>
      </trkpt>
      <trkpt lat="48.49446" lon="2.05839">
        <ele>154.2</ele>
        <time>2023-12-14T08:41:49Z</time>
      </trkpt>
      <trkpt lat="48.49443" lon="2.05835">
        <ele>154.2</ele>
        <time>2023-12-14T08:41:50Z</time>
      </trkpt>
      <trkpt lat="48.49441" lon="2.0583">
        <ele>154</ele>
        <time>2023-12-14T08:41:51Z</time>
      </trkpt>
      <trkpt lat="48.49438" lon="2.05825">
        <ele>154.2</ele>
        <time>2023-12-14T08:41:52Z</time>
      </trkpt>
      <trkpt lat="48.49435" lon="2.0582">
        <ele>154.2</ele>
        <time>2023-12-14T08:41:53Z</time>
      </trkpt>
      <trkpt lat="48.49433" lon="2.05815">
        <ele>154.2</ele>
        <time>2023-12-14T08:41:54Z</time>
      </trkpt>
      <trkpt lat="48.4943" lon="2.0581">
        <ele>154</ele>
        <time>2023-12-14T08:41:55Z</time>
      </trkpt>
      <trkpt lat="48.49427" lon="2.05804">
        <ele>153.8</ele>
        <time>2023-12-14T08:41:56Z</time>
      </trkpt>
      <trkpt lat="48.49424" lon="2.05798">
        <ele>153.8</ele>
        <time>2023-12-14T08:41:57Z</time>
      </trkpt>
      <trkpt lat="48.4942" lon="2.05793">
        <ele>153.8</ele>
        <time>2023-12-14T08:41:58Z</time>
      </trkpt>
      <trkpt lat="48.49417" lon="2.05787">
        <ele>153.8</ele>
        <time>2023-12-14T08:41:59Z</time>
      </trkpt>
      <trkpt lat="48.49414" lon="2.05781">
        <ele>154</ele>
        <time>2023-12-14T08:42:00Z</time>
      </trkpt>
      <trkpt lat="48.49411" lon="2.05775">
        <ele>154</ele>
        <time>2023-12-14T08:42:01Z</time>
      </trkpt>
      <trkpt lat="48.49407" lon="2.05769">
        <ele>154</ele>
        <time>2023-12-14T08:42:02Z</time>
      </trkpt>
      <trkpt lat="48.49404" lon="2.05763">
        <ele>154</ele>
        <time>2023-12-14T08:42:03Z</time>
      </trkpt>
      <trkpt lat="48.494" lon="2.05758">
        <ele>153.8</ele>
        <time>2023-12-14T08:42:04Z</time>
      </trkpt>
      <trkpt lat="48.49397" lon="2.05752">
        <ele>153.8</ele>
        <time>2023-12-14T08:42:05Z</time>
      </trkpt>
      <trkpt lat="48.49394" lon="2.05746">
        <ele>153.8</ele>
        <time>2023-12-14T08:42:06Z</time>
      </trkpt>
      <trkpt lat="48.4939" lon="2.0574">
        <ele>153.8</ele>
        <time>2023-12-14T08:42:07Z</time>
      </trkpt>
      <trkpt lat="48.49387" lon="2.05734">
        <ele>153.2</ele>
        <time>2023-12-14T08:42:08Z</time>
      </trkpt>
      <trkpt lat="48.49383" lon="2.05728">
        <ele>153.2</ele>
        <time>2023-12-14T08:42:09Z</time>
      </trkpt>
      <trkpt lat="48.4938" lon="2.05722">
        <ele>153.2</ele>
        <time>2023-12-14T08:42:10Z</time>
      </trkpt>
      <trkpt lat="48.49376" lon="2.05716">
        <ele>153.2</ele>
        <time>2023-12-14T08:42:11Z</time>
      </trkpt>
      <trkpt lat="48.49373" lon="2.0571">
        <ele>153.8</ele>
        <time>2023-12-14T08:42:12Z</time>
      </trkpt>
      <trkpt lat="48.49369" lon="2.05705">
        <ele>153.8</ele>
        <time>2023-12-14T08:42:13Z</time>
      </trkpt>
      <trkpt lat="48.49366" lon="2.05699">
        <ele>153.8</ele>
        <time>2023-12-14T08:42:14Z</time>
      </trkpt>
      <trkpt lat="48.49362" lon="2.05693">
        <ele>153.6</ele>
        <time>2023-12-14T08:42:15Z</time>
      </trkpt>
      <trkpt lat="48.49359" lon="2.05688">
        <ele>154.2</ele>
        <time>2023-12-14T08:42:16Z</time>
      </trkpt>
      <trkpt lat="48.49355" lon="2.05682">
        <ele>154.2</ele>
        <time>2023-12-14T08:42:17Z</time>
      </trkpt>
      <trkpt lat="48.49351" lon="2.05676">
        <ele>154.2</ele>
        <time>2023-12-14T08:42:18Z</time>
      </trkpt>
      <trkpt lat="48.49348" lon="2.05671">
        <ele>153.2</ele>
        <time>2023-12-14T08:42:19Z</time>
      </trkpt>
      <trkpt lat="48.49344" lon="2.05665">
        <ele>153.4</ele>
        <time>2023-12-14T08:42:20Z</time>
      </trkpt>
      <trkpt lat="48.49341" lon="2.05659">
        <ele>153.4</ele>
        <time>2023-12-14T08:42:21Z</time>
      </trkpt>
      <trkpt lat="48.49337" lon="2.05653">
        <ele>153.4</ele>
        <time>2023-12-14T08:42:22Z</time>
      </trkpt>
      <trkpt lat="48.49334" lon="2.05648">
        <ele>153.4</ele>
        <time>2023-12-14T08:42:23Z</time>
      </trkpt>
      <trkpt lat="48.4933" lon="2.05642">
        <ele>153.8</ele>
        <time>2023-12-14T08:42:24Z</time>
      </trkpt>
      <trkpt lat="48.49327" lon="2.05636">
        <ele>153.8</ele>
        <time>2023-12-14T08:42:25Z</time>
      </trkpt>
      <trkpt lat="48.49324" lon="2.05629">
        <ele>153.8</ele>
        <time>2023-12-14T08:42:26Z</time>
      </trkpt>
      <trkpt lat="48.49322" lon="2.05623">
        <ele>153.8</ele>
        <time>2023-12-14T08:42:27Z</time>
      </trkpt>
      <trkpt lat="48.4932" lon="2.05616">
        <ele>153.8</ele>
        <time>2023-12-14T08:42:28Z</time>
      </trkpt>
      <trkpt lat="48.49319" lon="2.05608">
        <ele>153.8</ele>
        <time>2023-12-14T08:42:29Z</time>
      </trkpt>
      <trkpt lat="48.49318" lon="2.056">
        <ele>153.8</ele>
        <time>2023-12-14T08:42:30Z</time>
      </trkpt>
      <trkpt lat="48.49318" lon="2.05592">
        <ele>153.8</ele>
        <time>2023-12-14T08:42:31Z</time>
      </trkpt>
      <trkpt lat="48.49319" lon="2.05584">
        <ele>153.6</ele>
        <time>2023-12-14T08:42:32Z</time>
      </trkpt>
      <trkpt lat="48.4932" lon="2.05576">
        <ele>153.6</ele>
        <time>2023-12-14T08:42:33Z</time>
      </trkpt>
      <trkpt lat="48.49322" lon="2.05569">
        <ele>153.6</ele>
        <time>2023-12-14T08:42:34Z</time>
      </trkpt>
      <trkpt lat="48.49324" lon="2.05562">
        <ele>153.6</ele>
        <time>2023-12-14T08:42:35Z</time>
      </trkpt>
      <trkpt lat="48.49326" lon="2.05556">
        <ele>154</ele>
        <time>2023-12-14T08:42:36Z</time>
      </trkpt>
      <trkpt lat="48.49328" lon="2.0555">
        <ele>154</ele>
        <time>2023-12-14T08:42:37Z</time>
      </trkpt>
      <trkpt lat="48.4933" lon="2.05543">
        <ele>154</ele>
        <time>2023-12-14T08:42:38Z</time>
      </trkpt>
      <trkpt lat="48.49332" lon="2.05537">
        <ele>154.2</ele>
        <time>2023-12-14T08:42:39Z</time>
      </trkpt>
      <trkpt lat="48.49334" lon="2.0553">
        <ele>154.8</ele>
        <time>2023-12-14T08:42:40Z</time>
      </trkpt>
      <trkpt lat="48.49336" lon="2.05524">
        <ele>154.8</ele>
        <time>2023-12-14T08:42:41Z</time>
      </trkpt>
      <trkpt lat="48.49338" lon="2.05517">
        <ele>154.8</ele>
        <time>2023-12-14T08:42:42Z</time>
      </trkpt>
      <trkpt lat="48.49339" lon="2.05511">
        <ele>155.2</ele>
        <time>2023-12-14T08:42:43Z</time>
      </trkpt>
      <trkpt lat="48.49342" lon="2.05504">
        <ele>155.2</ele>
        <time>2023-12-14T08:42:44Z</time>
      </trkpt>
      <trkpt lat="48.49344" lon="2.05498">
        <ele>155.2</ele>
        <time>2023-12-14T08:42:45Z</time>
      </trkpt>
      <trkpt lat="48.49346" lon="2.05491">
        <ele>155.2</ele>
        <time>2023-12-14T08:42:46Z</time>
      </trkpt>
      <trkpt lat="48.49347" lon="2.05484">
        <ele>155.2</ele>
        <time>2023-12-14T08:42:47Z</time>
      </trkpt>
      <trkpt lat="48.49349" lon="2.05477">
        <ele>155.2</ele>
        <time>2023-12-14T08:42:48Z</time>
      </trkpt>
      <trkpt lat="48.49352" lon="2.0547">
        <ele>155.2</ele>
        <time>2023-12-14T08:42:49Z</time>
      </trkpt>
      <trkpt lat="48.49354" lon="2.05464">
        <ele>155.2</ele>
        <time>2023-12-14T08:42:50Z</time>
      </trkpt>
      <trkpt lat="48.49356" lon="2.05457">
        <ele>155.2</ele>
        <time>2023-12-14T08:42:51Z</time>
      </trkpt>
      <trkpt lat="48.49358" lon="2.05451">
        <ele>155.6</ele>
        <time>2023-12-14T08:42:52Z</time>
      </trkpt>
      <trkpt lat="48.4936" lon="2.05444">
        <ele>155.6</ele>
        <time>2023-12-14T08:42:53Z</time>
      </trkpt>
      <trkpt lat="48.49362" lon="2.05437">
        <ele>155.6</ele>
        <time>2023-12-14T08:42:54Z</time>
      </trkpt>
      <trkpt lat="48.49364" lon="2.0543">
        <ele>156.2</ele>
        <time>2023-12-14T08:42:55Z</time>
      </trkpt>
      <trkpt lat="48.49366" lon="2.05423">
        <ele>156.2</ele>
        <time>2023-12-14T08:42:56Z</time>
      </trkpt>
      <trkpt lat="48.49367" lon="2.05417">
        <ele>156.2</ele>
        <time>2023-12-14T08:42:57Z</time>
      </trkpt>
      <trkpt lat="48.49369" lon="2.0541">
        <ele>156.2</ele>
        <time>2023-12-14T08:42:58Z</time>
      </trkpt>
      <trkpt lat="48.49371" lon="2.05404">
        <ele>156.8</ele>
        <time>2023-12-14T08:42:59Z</time>
      </trkpt>
      <trkpt lat="48.49373" lon="2.05397">
        <ele>156.2</ele>
        <time>2023-12-14T08:43:00Z</time>
      </trkpt>
      <trkpt lat="48.49375" lon="2.0539">
        <ele>156.2</ele>
        <time>2023-12-14T08:43:01Z</time>
      </trkpt>
      <trkpt lat="48.49376" lon="2.05383">
        <ele>156.2</ele>
        <time>2023-12-14T08:43:02Z</time>
      </trkpt>
      <trkpt lat="48.49378" lon="2.05376">
        <ele>157</ele>
        <time>2023-12-14T08:43:03Z</time>
      </trkpt>
      <trkpt lat="48.4938" lon="2.0537">
        <ele>156.2</ele>
        <time>2023-12-14T08:43:04Z</time>
      </trkpt>
      <trkpt lat="48.49382" lon="2.05363">
        <ele>156.2</ele>
        <time>2023-12-14T08:43:05Z</time>
      </trkpt>
      <trkpt lat="48.49384" lon="2.05356">
        <ele>156.2</ele>
        <time>2023-12-14T08:43:06Z</time>
      </trkpt>
      <trkpt lat="48.49385" lon="2.05349">
        <ele>156.4</ele>
        <time>2023-12-14T08:43:07Z</time>
      </trkpt>
      <trkpt lat="48.49387" lon="2.05342">
        <ele>156.2</ele>
        <time>2023-12-14T08:43:08Z</time>
      </trkpt>
      <trkpt lat="48.49389" lon="2.05335">
        <ele>156.2</ele>
        <time>2023-12-14T08:43:09Z</time>
      </trkpt>
      <trkpt lat="48.49391" lon="2.05328">
        <ele>156.2</ele>
        <time>2023-12-14T08:43:10Z</time>
      </trkpt>
      <trkpt lat="48.49392" lon="2.05322">
        <ele>156.2</ele>
        <time>2023-12-14T08:43:11Z</time>
      </trkpt>
      <trkpt lat="48.49394" lon="2.05315">
        <ele>156.8</ele>
        <time>2023-12-14T08:43:12Z</time>
      </trkpt>
      <trkpt lat="48.49396" lon="2.05308">
        <ele>156.8</ele>
        <time>2023-12-14T08:43:13Z</time>
      </trkpt>
      <trkpt lat="48.49398" lon="2.05301">
        <ele>156.8</ele>
        <time>2023-12-14T08:43:14Z</time>
      </trkpt>
      <trkpt lat="48.494" lon="2.05294">
        <ele>156.2</ele>
        <time>2023-12-14T08:43:15Z</time>
      </trkpt>
      <trkpt lat="48.49401" lon="2.05287">
        <ele>156.6</ele>
        <time>2023-12-14T08:43:16Z</time>
      </trkpt>
      <trkpt lat="48.49403" lon="2.05281">
        <ele>156.6</ele>
        <time>2023-12-14T08:43:17Z</time>
      </trkpt>
      <trkpt lat="48.49405" lon="2.05274">
        <ele>156.6</ele>
        <time>2023-12-14T08:43:18Z</time>
      </trkpt>
      <trkpt lat="48.49407" lon="2.05267">
        <ele>157.6</ele>
        <time>2023-12-14T08:43:19Z</time>
      </trkpt>
      <trkpt lat="48.49408" lon="2.0526">
        <ele>157.6</ele>
        <time>2023-12-14T08:43:20Z</time>
      </trkpt>
      <trkpt lat="48.4941" lon="2.05253">
        <ele>157.6</ele>
        <time>2023-12-14T08:43:21Z</time>
      </trkpt>
      <trkpt lat="48.49412" lon="2.05247">
        <ele>157.6</ele>
        <time>2023-12-14T08:43:22Z</time>
      </trkpt>
      <trkpt lat="48.49413" lon="2.0524">
        <ele>157.2</ele>
        <time>2023-12-14T08:43:23Z</time>
      </trkpt>
      <trkpt lat="48.49415" lon="2.05233">
        <ele>157.2</ele>
        <time>2023-12-14T08:43:24Z</time>
      </trkpt>
      <trkpt lat="48.49417" lon="2.05226">
        <ele>157.2</ele>
        <time>2023-12-14T08:43:25Z</time>
      </trkpt>
      <trkpt lat="48.49419" lon="2.05219">
        <ele>157.2</ele>
        <time>2023-12-14T08:43:26Z</time>
      </trkpt>
      <trkpt lat="48.49421" lon="2.05212">
        <ele>157.2</ele>
        <time>2023-12-14T08:43:27Z</time>
      </trkpt>
      <trkpt lat="48.49422" lon="2.05206">
        <ele>157.4</ele>
        <time>2023-12-14T08:43:28Z</time>
      </trkpt>
      <trkpt lat="48.49424" lon="2.05199">
        <ele>157.4</ele>
        <time>2023-12-14T08:43:29Z</time>
      </trkpt>
      <trkpt lat="48.49426" lon="2.05192">
        <ele>157.4</ele>
        <time>2023-12-14T08:43:30Z</time>
      </trkpt>
      <trkpt lat="48.49428" lon="2.05185">
        <ele>157.4</ele>
        <time>2023-12-14T08:43:31Z</time>
      </trkpt>
      <trkpt lat="48.4943" lon="2.05179">
        <ele>156.8</ele>
        <time>2023-12-14T08:43:32Z</time>
      </trkpt>
      <trkpt lat="48.49432" lon="2.05172">
        <ele>156.8</ele>
        <time>2023-12-14T08:43:33Z</time>
      </trkpt>
      <trkpt lat="48.49434" lon="2.05165">
        <ele>156.8</ele>
        <time>2023-12-14T08:43:34Z</time>
      </trkpt>
      <trkpt lat="48.49436" lon="2.05158">
        <ele>156.8</ele>
        <time>2023-12-14T08:43:35Z</time>
      </trkpt>
      <trkpt lat="48.49438" lon="2.05151">
        <ele>156</ele>
        <time>2023-12-14T08:43:36Z</time>
      </trkpt>
      <trkpt lat="48.4944" lon="2.05145">
        <ele>156</ele>
        <time>2023-12-14T08:43:37Z</time>
      </trkpt>
      <trkpt lat="48.49443" lon="2.05138">
        <ele>156</ele>
        <time>2023-12-14T08:43:38Z</time>
      </trkpt>
      <trkpt lat="48.49445" lon="2.05132">
        <ele>156.8</ele>
        <time>2023-12-14T08:43:39Z</time>
      </trkpt>
      <trkpt lat="48.49447" lon="2.05125">
        <ele>157</ele>
        <time>2023-12-14T08:43:40Z</time>
      </trkpt>
      <trkpt lat="48.4945" lon="2.05119">
        <ele>157</ele>
        <time>2023-12-14T08:43:41Z</time>
      </trkpt>
      <trkpt lat="48.49452" lon="2.05112">
        <ele>157</ele>
        <time>2023-12-14T08:43:42Z</time>
      </trkpt>
      <trkpt lat="48.49454" lon="2.05105">
        <ele>157</ele>
        <time>2023-12-14T08:43:43Z</time>
      </trkpt>
      <trkpt lat="48.49457" lon="2.05099">
        <ele>157.2</ele>
        <time>2023-12-14T08:43:44Z</time>
      </trkpt>
      <trkpt lat="48.49459" lon="2.05092">
        <ele>157.2</ele>
        <time>2023-12-14T08:43:45Z</time>
      </trkpt>
      <trkpt lat="48.49462" lon="2.05085">
        <ele>157.2</ele>
        <time>2023-12-14T08:43:46Z</time>
      </trkpt>
      <trkpt lat="48.49465" lon="2.05079">
        <ele>156.8</ele>
        <time>2023-12-14T08:43:47Z</time>
      </trkpt>
      <trkpt lat="48.49467" lon="2.05072">
        <ele>155.6</ele>
        <time>2023-12-14T08:43:48Z</time>
      </trkpt>
      <trkpt lat="48.4947" lon="2.05065">
        <ele>155.6</ele>
        <time>2023-12-14T08:43:49Z</time>
      </trkpt>
      <trkpt lat="48.49472" lon="2.05058">
        <ele>155.6</ele>
        <time>2023-12-14T08:43:50Z</time>
      </trkpt>
      <trkpt lat="48.49475" lon="2.05052">
        <ele>156.6</ele>
        <time>2023-12-14T08:43:51Z</time>
      </trkpt>
      <trkpt lat="48.49477" lon="2.05045">
        <ele>156.8</ele>
        <time>2023-12-14T08:43:52Z</time>
      </trkpt>
      <trkpt lat="48.4948" lon="2.05039">
        <ele>156.8</ele>
        <time>2023-12-14T08:43:53Z</time>
      </trkpt>
      <trkpt lat="48.49483" lon="2.05032">
        <ele>156.8</ele>
        <time>2023-12-14T08:43:54Z</time>
      </trkpt>
      <trkpt lat="48.49486" lon="2.05025">
        <ele>156.8</ele>
        <time>2023-12-14T08:43:55Z</time>
      </trkpt>
      <trkpt lat="48.49488" lon="2.05019">
        <ele>156.4</ele>
        <time>2023-12-14T08:43:56Z</time>
      </trkpt>
      <trkpt lat="48.49491" lon="2.05012">
        <ele>156.4</ele>
        <time>2023-12-14T08:43:57Z</time>
      </trkpt>
      <trkpt lat="48.49494" lon="2.05005">
        <ele>156.4</ele>
        <time>2023-12-14T08:43:58Z</time>
      </trkpt>
      <trkpt lat="48.49496" lon="2.04999">
        <ele>156.4</ele>
        <time>2023-12-14T08:43:59Z</time>
      </trkpt>
      <trkpt lat="48.49499" lon="2.04992">
        <ele>155.6</ele>
        <time>2023-12-14T08:44:00Z</time>
      </trkpt>
      <trkpt lat="48.49502" lon="2.04985">
        <ele>155.6</ele>
        <time>2023-12-14T08:44:01Z</time>
      </trkpt>
      <trkpt lat="48.49505" lon="2.04979">
        <ele>155.6</ele>
        <time>2023-12-14T08:44:02Z</time>
      </trkpt>
      <trkpt lat="48.49508" lon="2.04972">
        <ele>156.2</ele>
        <time>2023-12-14T08:44:03Z</time>
      </trkpt>
      <trkpt lat="48.4951" lon="2.04965">
        <ele>155.6</ele>
        <time>2023-12-14T08:44:04Z</time>
      </trkpt>
      <trkpt lat="48.49513" lon="2.04958">
        <ele>155.6</ele>
        <time>2023-12-14T08:44:05Z</time>
      </trkpt>
      <trkpt lat="48.49516" lon="2.04951">
        <ele>155.6</ele>
        <time>2023-12-14T08:44:06Z</time>
      </trkpt>
      <trkpt lat="48.49519" lon="2.04944">
        <ele>155.6</ele>
        <time>2023-12-14T08:44:07Z</time>
      </trkpt>
      <trkpt lat="48.49522" lon="2.04937">
        <ele>155.8</ele>
        <time>2023-12-14T08:44:08Z</time>
      </trkpt>
      <trkpt lat="48.49525" lon="2.0493">
        <ele>155.8</ele>
        <time>2023-12-14T08:44:09Z</time>
      </trkpt>
      <trkpt lat="48.49528" lon="2.04923">
        <ele>155.8</ele>
        <time>2023-12-14T08:44:10Z</time>
      </trkpt>
      <trkpt lat="48.4953" lon="2.04916">
        <ele>155.8</ele>
        <time>2023-12-14T08:44:11Z</time>
      </trkpt>
      <trkpt lat="48.49533" lon="2.04909">
        <ele>155.2</ele>
        <time>2023-12-14T08:44:12Z</time>
      </trkpt>
      <trkpt lat="48.49536" lon="2.04901">
        <ele>155.2</ele>
        <time>2023-12-14T08:44:13Z</time>
      </trkpt>
      <trkpt lat="48.49539" lon="2.04894">
        <ele>155.2</ele>
        <time>2023-12-14T08:44:14Z</time>
      </trkpt>
      <trkpt lat="48.49542" lon="2.04887">
        <ele>155.2</ele>
        <time>2023-12-14T08:44:15Z</time>
      </trkpt>
      <trkpt lat="48.49545" lon="2.04879">
        <ele>154</ele>
        <time>2023-12-14T08:44:16Z</time>
      </trkpt>
      <trkpt lat="48.49549" lon="2.04872">
        <ele>154</ele>
        <time>2023-12-14T08:44:17Z</time>
      </trkpt>
      <trkpt lat="48.49552" lon="2.04864">
        <ele>154</ele>
        <time>2023-12-14T08:44:18Z</time>
      </trkpt>
      <trkpt lat="48.49555" lon="2.04857">
        <ele>154</ele>
        <time>2023-12-14T08:44:19Z</time>
      </trkpt>
      <trkpt lat="48.49558" lon="2.0485">
        <ele>153.8</ele>
        <time>2023-12-14T08:44:20Z</time>
      </trkpt>
      <trkpt lat="48.49562" lon="2.04842">
        <ele>153.8</ele>
        <time>2023-12-14T08:44:21Z</time>
      </trkpt>
      <trkpt lat="48.49565" lon="2.04835">
        <ele>153.8</ele>
        <time>2023-12-14T08:44:22Z</time>
      </trkpt>
      <trkpt lat="48.49568" lon="2.04828">
        <ele>153.8</ele>
        <time>2023-12-14T08:44:23Z</time>
      </trkpt>
      <trkpt lat="48.49572" lon="2.0482">
        <ele>153.4</ele>
        <time>2023-12-14T08:44:24Z</time>
      </trkpt>
      <trkpt lat="48.49575" lon="2.04812">
        <ele>153.4</ele>
        <time>2023-12-14T08:44:25Z</time>
      </trkpt>
      <trkpt lat="48.49578" lon="2.04804">
        <ele>153.4</ele>
        <time>2023-12-14T08:44:26Z</time>
      </trkpt>
      <trkpt lat="48.49582" lon="2.04797">
        <ele>153.4</ele>
        <time>2023-12-14T08:44:27Z</time>
      </trkpt>
      <trkpt lat="48.49585" lon="2.04789">
        <ele>152.2</ele>
        <time>2023-12-14T08:44:28Z</time>
      </trkpt>
      <trkpt lat="48.49588" lon="2.04781">
        <ele>152.2</ele>
        <time>2023-12-14T08:44:29Z</time>
      </trkpt>
      <trkpt lat="48.49592" lon="2.04773">
        <ele>152.2</ele>
        <time>2023-12-14T08:44:30Z</time>
      </trkpt>
      <trkpt lat="48.49595" lon="2.04765">
        <ele>152.2</ele>
        <time>2023-12-14T08:44:31Z</time>
      </trkpt>
      <trkpt lat="48.49598" lon="2.04757">
        <ele>151.8</ele>
        <time>2023-12-14T08:44:32Z</time>
      </trkpt>
      <trkpt lat="48.49601" lon="2.04748">
        <ele>151.8</ele>
        <time>2023-12-14T08:44:33Z</time>
      </trkpt>
      <trkpt lat="48.49605" lon="2.04739">
        <ele>151.8</ele>
        <time>2023-12-14T08:44:34Z</time>
      </trkpt>
      <trkpt lat="48.49608" lon="2.04729">
        <ele>150.8</ele>
        <time>2023-12-14T08:44:35Z</time>
      </trkpt>
      <trkpt lat="48.49611" lon="2.0472">
        <ele>150.2</ele>
        <time>2023-12-14T08:44:36Z</time>
      </trkpt>
      <trkpt lat="48.49614" lon="2.0471">
        <ele>150.2</ele>
        <time>2023-12-14T08:44:37Z</time>
      </trkpt>
      <trkpt lat="48.49616" lon="2.047">
        <ele>150.2</ele>
        <time>2023-12-14T08:44:38Z</time>
      </trkpt>
      <trkpt lat="48.49619" lon="2.0469">
        <ele>149.6</ele>
        <time>2023-12-14T08:44:39Z</time>
      </trkpt>
      <trkpt lat="48.49621" lon="2.0468">
        <ele>149.2</ele>
        <time>2023-12-14T08:44:40Z</time>
      </trkpt>
      <trkpt lat="48.49623" lon="2.0467">
        <ele>149.2</ele>
        <time>2023-12-14T08:44:41Z</time>
      </trkpt>
      <trkpt lat="48.49625" lon="2.0466">
        <ele>149.2</ele>
        <time>2023-12-14T08:44:42Z</time>
      </trkpt>
      <trkpt lat="48.49626" lon="2.0465">
        <ele>149.2</ele>
        <time>2023-12-14T08:44:43Z</time>
      </trkpt>
      <trkpt lat="48.49628" lon="2.04641">
        <ele>149</ele>
        <time>2023-12-14T08:44:44Z</time>
      </trkpt>
      <trkpt lat="48.4963" lon="2.04632">
        <ele>149</ele>
        <time>2023-12-14T08:44:45Z</time>
      </trkpt>
      <trkpt lat="48.49632" lon="2.04623">
        <ele>149</ele>
        <time>2023-12-14T08:44:46Z</time>
      </trkpt>
      <trkpt lat="48.49634" lon="2.04614">
        <ele>149.2</ele>
        <time>2023-12-14T08:44:47Z</time>
      </trkpt>
      <trkpt lat="48.49636" lon="2.04606">
        <ele>149.4</ele>
        <time>2023-12-14T08:44:48Z</time>
      </trkpt>
      <trkpt lat="48.49639" lon="2.04597">
        <ele>149.4</ele>
        <time>2023-12-14T08:44:49Z</time>
      </trkpt>
      <trkpt lat="48.49641" lon="2.04588">
        <ele>149.4</ele>
        <time>2023-12-14T08:44:50Z</time>
      </trkpt>
      <trkpt lat="48.49644" lon="2.0458">
        <ele>149.4</ele>
        <time>2023-12-14T08:44:51Z</time>
      </trkpt>
      <trkpt lat="48.49646" lon="2.04572">
        <ele>149.2</ele>
        <time>2023-12-14T08:44:52Z</time>
      </trkpt>
      <trkpt lat="48.49649" lon="2.04564">
        <ele>149.2</ele>
        <time>2023-12-14T08:44:53Z</time>
      </trkpt>
      <trkpt lat="48.49651" lon="2.04556">
        <ele>149.2</ele>
        <time>2023-12-14T08:44:54Z</time>
      </trkpt>
      <trkpt lat="48.49654" lon="2.04548">
        <ele>149.6</ele>
        <time>2023-12-14T08:44:55Z</time>
      </trkpt>
      <trkpt lat="48.49656" lon="2.0454">
        <ele>149.8</ele>
        <time>2023-12-14T08:44:56Z</time>
      </trkpt>
      <trkpt lat="48.49659" lon="2.04532">
        <ele>149.8</ele>
        <time>2023-12-14T08:44:57Z</time>
      </trkpt>
      <trkpt lat="48.49661" lon="2.04524">
        <ele>149.8</ele>
        <time>2023-12-14T08:44:58Z</time>
      </trkpt>
      <trkpt lat="48.49664" lon="2.04517">
        <ele>150.2</ele>
        <time>2023-12-14T08:44:59Z</time>
      </trkpt>
      <trkpt lat="48.49667" lon="2.0451">
        <ele>150.6</ele>
        <time>2023-12-14T08:45:00Z</time>
      </trkpt>
      <trkpt lat="48.49669" lon="2.04503">
        <ele>150.6</ele>
        <time>2023-12-14T08:45:01Z</time>
      </trkpt>
      <trkpt lat="48.49672" lon="2.04497">
        <ele>150.6</ele>
        <time>2023-12-14T08:45:02Z</time>
      </trkpt>
      <trkpt lat="48.49675" lon="2.04491">
        <ele>151.6</ele>
        <time>2023-12-14T08:45:03Z</time>
      </trkpt>
      <trkpt lat="48.49677" lon="2.04486">
        <ele>152.6</ele>
        <time>2023-12-14T08:45:04Z</time>
      </trkpt>
      <trkpt lat="48.49679" lon="2.0448">
        <ele>152.6</ele>
        <time>2023-12-14T08:45:05Z</time>
      </trkpt>
      <trkpt lat="48.49681" lon="2.04475">
        <ele>152.6</ele>
        <time>2023-12-14T08:45:06Z</time>
      </trkpt>
      <trkpt lat="48.49684" lon="2.04471">
        <ele>153</ele>
        <time>2023-12-14T08:45:07Z</time>
      </trkpt>
      <trkpt lat="48.49686" lon="2.04465">
        <ele>153.2</ele>
        <time>2023-12-14T08:45:08Z</time>
      </trkpt>
      <trkpt lat="48.49689" lon="2.0446">
        <ele>153.2</ele>
        <time>2023-12-14T08:45:09Z</time>
      </trkpt>
      <trkpt lat="48.49691" lon="2.04455">
        <ele>153.2</ele>
        <time>2023-12-14T08:45:10Z</time>
      </trkpt>
      <trkpt lat="48.49694" lon="2.0445">
        <ele>153.2</ele>
        <time>2023-12-14T08:45:11Z</time>
      </trkpt>
      <trkpt lat="48.49697" lon="2.04445">
        <ele>154.2</ele>
        <time>2023-12-14T08:45:12Z</time>
      </trkpt>
      <trkpt lat="48.49699" lon="2.04441">
        <ele>154.2</ele>
        <time>2023-12-14T08:45:13Z</time>
      </trkpt>
      <trkpt lat="48.49702" lon="2.04436">
        <ele>154.2</ele>
        <time>2023-12-14T08:45:14Z</time>
      </trkpt>
      <trkpt lat="48.49704" lon="2.04431">
        <ele>153.4</ele>
        <time>2023-12-14T08:45:15Z</time>
      </trkpt>
      <trkpt lat="48.49706" lon="2.04426">
        <ele>153.8</ele>
        <time>2023-12-14T08:45:16Z</time>
      </trkpt>
      <trkpt lat="48.49709" lon="2.04421">
        <ele>153.8</ele>
        <time>2023-12-14T08:45:17Z</time>
      </trkpt>
      <trkpt lat="48.49712" lon="2.04417">
        <ele>153.8</ele>
        <time>2023-12-14T08:45:18Z</time>
      </trkpt>
      <trkpt lat="48.49715" lon="2.04412">
        <ele>153.8</ele>
        <time>2023-12-14T08:45:19Z</time>
      </trkpt>
      <trkpt lat="48.49717" lon="2.04407">
        <ele>153.8</ele>
        <time>2023-12-14T08:45:20Z</time>
      </trkpt>
      <trkpt lat="48.4972" lon="2.04402">
        <ele>153.8</ele>
        <time>2023-12-14T08:45:21Z</time>
      </trkpt>
      <trkpt lat="48.49722" lon="2.04397">
        <ele>153.8</ele>
        <time>2023-12-14T08:45:22Z</time>
      </trkpt>
      <trkpt lat="48.49725" lon="2.04392">
        <ele>153.8</ele>
        <time>2023-12-14T08:45:23Z</time>
      </trkpt>
      <trkpt lat="48.49727" lon="2.04387">
        <ele>154.2</ele>
        <time>2023-12-14T08:45:24Z</time>
      </trkpt>
      <trkpt lat="48.49729" lon="2.04381">
        <ele>154.2</ele>
        <time>2023-12-14T08:45:25Z</time>
      </trkpt>
      <trkpt lat="48.49732" lon="2.04376">
        <ele>154.2</ele>
        <time>2023-12-14T08:45:26Z</time>
      </trkpt>
      <trkpt lat="48.49734" lon="2.04371">
        <ele>154.4</ele>
        <time>2023-12-14T08:45:27Z</time>
      </trkpt>
      <trkpt lat="48.49736" lon="2.04365">
        <ele>154.6</ele>
        <time>2023-12-14T08:45:28Z</time>
      </trkpt>
      <trkpt lat="48.49739" lon="2.0436">
        <ele>154.6</ele>
        <time>2023-12-14T08:45:29Z</time>
      </trkpt>
      <trkpt lat="48.49741" lon="2.04355">
        <ele>154.6</ele>
        <time>2023-12-14T08:45:30Z</time>
      </trkpt>
      <trkpt lat="48.49743" lon="2.04349">
        <ele>155.2</ele>
        <time>2023-12-14T08:45:31Z</time>
      </trkpt>
      <trkpt lat="48.49745" lon="2.04344">
        <ele>154.8</ele>
        <time>2023-12-14T08:45:32Z</time>
      </trkpt>
      <trkpt lat="48.49747" lon="2.04338">
        <ele>154.8</ele>
        <time>2023-12-14T08:45:33Z</time>
      </trkpt>
      <trkpt lat="48.49749" lon="2.04332">
        <ele>154.8</ele>
        <time>2023-12-14T08:45:34Z</time>
      </trkpt>
      <trkpt lat="48.49752" lon="2.04327">
        <ele>154</ele>
        <time>2023-12-14T08:45:35Z</time>
      </trkpt>
      <trkpt lat="48.49754" lon="2.04321">
        <ele>154.2</ele>
        <time>2023-12-14T08:45:36Z</time>
      </trkpt>
      <trkpt lat="48.49756" lon="2.04316">
        <ele>154.2</ele>
        <time>2023-12-14T08:45:37Z</time>
      </trkpt>
      <trkpt lat="48.49758" lon="2.0431">
        <ele>154.2</ele>
        <time>2023-12-14T08:45:38Z</time>
      </trkpt>
      <trkpt lat="48.4976" lon="2.04305">
        <ele>155.2</ele>
        <time>2023-12-14T08:45:39Z</time>
      </trkpt>
      <trkpt lat="48.49762" lon="2.04299">
        <ele>154.8</ele>
        <time>2023-12-14T08:45:40Z</time>
      </trkpt>
      <trkpt lat="48.49764" lon="2.04294">
        <ele>154.8</ele>
        <time>2023-12-14T08:45:41Z</time>
      </trkpt>
      <trkpt lat="48.49766" lon="2.04288">
        <ele>154.8</ele>
        <time>2023-12-14T08:45:42Z</time>
      </trkpt>
      <trkpt lat="48.49769" lon="2.04282">
        <ele>154.8</ele>
        <time>2023-12-14T08:45:43Z</time>
      </trkpt>
      <trkpt lat="48.49771" lon="2.04276">
        <ele>155.2</ele>
        <time>2023-12-14T08:45:44Z</time>
      </trkpt>
      <trkpt lat="48.49773" lon="2.04271">
        <ele>155.2</ele>
        <time>2023-12-14T08:45:45Z</time>
      </trkpt>
      <trkpt lat="48.49775" lon="2.04265">
        <ele>155.2</ele>
        <time>2023-12-14T08:45:46Z</time>
      </trkpt>
      <trkpt lat="48.49777" lon="2.04259">
        <ele>155.2</ele>
        <time>2023-12-14T08:45:47Z</time>
      </trkpt>
      <trkpt lat="48.4978" lon="2.04253">
        <ele>155.2</ele>
        <time>2023-12-14T08:45:48Z</time>
      </trkpt>
      <trkpt lat="48.49782" lon="2.04248">
        <ele>155.2</ele>
        <time>2023-12-14T08:45:49Z</time>
      </trkpt>
      <trkpt lat="48.49784" lon="2.04242">
        <ele>155.2</ele>
        <time>2023-12-14T08:45:50Z</time>
      </trkpt>
      <trkpt lat="48.49786" lon="2.04236">
        <ele>155</ele>
        <time>2023-12-14T08:45:51Z</time>
      </trkpt>
      <trkpt lat="48.49789" lon="2.0423">
        <ele>154.8</ele>
        <time>2023-12-14T08:45:52Z</time>
      </trkpt>
      <trkpt lat="48.49791" lon="2.04224">
        <ele>154.8</ele>
        <time>2023-12-14T08:45:53Z</time>
      </trkpt>
      <trkpt lat="48.49793" lon="2.04218">
        <ele>154.8</ele>
        <time>2023-12-14T08:45:54Z</time>
      </trkpt>
      <trkpt lat="48.49796" lon="2.04212">
        <ele>154</ele>
        <time>2023-12-14T08:45:55Z</time>
      </trkpt>
      <trkpt lat="48.49798" lon="2.04207">
        <ele>153.8</ele>
        <time>2023-12-14T08:45:56Z</time>
      </trkpt>
      <trkpt lat="48.49801" lon="2.04201">
        <ele>153.8</ele>
        <time>2023-12-14T08:45:57Z</time>
      </trkpt>
      <trkpt lat="48.49803" lon="2.04195">
        <ele>153.8</ele>
        <time>2023-12-14T08:45:58Z</time>
      </trkpt>
      <trkpt lat="48.49806" lon="2.04189">
        <ele>154.4</ele>
        <time>2023-12-14T08:45:59Z</time>
      </trkpt>
      <trkpt lat="48.49808" lon="2.04183">
        <ele>154</ele>
        <time>2023-12-14T08:46:00Z</time>
      </trkpt>
      <trkpt lat="48.4981" lon="2.04177">
        <ele>154</ele>
        <time>2023-12-14T08:46:01Z</time>
      </trkpt>
      <trkpt lat="48.49813" lon="2.04172">
        <ele>154</ele>
        <time>2023-12-14T08:46:02Z</time>
      </trkpt>
      <trkpt lat="48.49815" lon="2.04166">
        <ele>154.4</ele>
        <time>2023-12-14T08:46:03Z</time>
      </trkpt>
      <trkpt lat="48.49817" lon="2.0416">
        <ele>154.4</ele>
        <time>2023-12-14T08:46:04Z</time>
      </trkpt>
      <trkpt lat="48.4982" lon="2.04154">
        <ele>154.4</ele>
        <time>2023-12-14T08:46:05Z</time>
      </trkpt>
      <trkpt lat="48.49822" lon="2.04148">
        <ele>154.4</ele>
        <time>2023-12-14T08:46:06Z</time>
      </trkpt>
      <trkpt lat="48.49825" lon="2.04142">
        <ele>154.6</ele>
        <time>2023-12-14T08:46:07Z</time>
      </trkpt>
      <trkpt lat="48.49828" lon="2.04137">
        <ele>154.6</ele>
        <time>2023-12-14T08:46:08Z</time>
      </trkpt>
      <trkpt lat="48.4983" lon="2.04131">
        <ele>154.6</ele>
        <time>2023-12-14T08:46:09Z</time>
      </trkpt>
      <trkpt lat="48.49833" lon="2.04125">
        <ele>154.6</ele>
        <time>2023-12-14T08:46:10Z</time>
      </trkpt>
      <trkpt lat="48.49836" lon="2.04119">
        <ele>155.2</ele>
        <time>2023-12-14T08:46:11Z</time>
      </trkpt>
      <trkpt lat="48.49838" lon="2.04113">
        <ele>154.6</ele>
        <time>2023-12-14T08:46:12Z</time>
      </trkpt>
      <trkpt lat="48.49841" lon="2.04108">
        <ele>154.6</ele>
        <time>2023-12-14T08:46:13Z</time>
      </trkpt>
      <trkpt lat="48.49844" lon="2.04102">
        <ele>154.6</ele>
        <time>2023-12-14T08:46:14Z</time>
      </trkpt>
      <trkpt lat="48.49847" lon="2.04096">
        <ele>155.2</ele>
        <time>2023-12-14T08:46:15Z</time>
      </trkpt>
      <trkpt lat="48.49849" lon="2.0409">
        <ele>155.2</ele>
        <time>2023-12-14T08:46:16Z</time>
      </trkpt>
      <trkpt lat="48.49852" lon="2.04085">
        <ele>155.2</ele>
        <time>2023-12-14T08:46:17Z</time>
      </trkpt>
      <trkpt lat="48.49855" lon="2.04079">
        <ele>155.2</ele>
        <time>2023-12-14T08:46:18Z</time>
      </trkpt>
      <trkpt lat="48.49858" lon="2.04073">
        <ele>155.4</ele>
        <time>2023-12-14T08:46:19Z</time>
      </trkpt>
      <trkpt lat="48.49861" lon="2.04067">
        <ele>155.6</ele>
        <time>2023-12-14T08:46:20Z</time>
      </trkpt>
      <trkpt lat="48.49864" lon="2.04061">
        <ele>155.6</ele>
        <time>2023-12-14T08:46:21Z</time>
      </trkpt>
      <trkpt lat="48.49867" lon="2.04055">
        <ele>155.6</ele>
        <time>2023-12-14T08:46:22Z</time>
      </trkpt>
      <trkpt lat="48.4987" lon="2.04049">
        <ele>155.6</ele>
        <time>2023-12-14T08:46:23Z</time>
      </trkpt>
      <trkpt lat="48.49873" lon="2.04043">
        <ele>155.2</ele>
        <time>2023-12-14T08:46:24Z</time>
      </trkpt>
      <trkpt lat="48.49876" lon="2.04037">
        <ele>155.2</ele>
        <time>2023-12-14T08:46:25Z</time>
      </trkpt>
      <trkpt lat="48.49879" lon="2.04032">
        <ele>155.2</ele>
        <time>2023-12-14T08:46:26Z</time>
      </trkpt>
      <trkpt lat="48.49881" lon="2.04026">
        <ele>154.4</ele>
        <time>2023-12-14T08:46:27Z</time>
      </trkpt>
      <trkpt lat="48.49884" lon="2.0402">
        <ele>154.8</ele>
        <time>2023-12-14T08:46:28Z</time>
      </trkpt>
      <trkpt lat="48.49887" lon="2.04014">
        <ele>154.8</ele>
        <time>2023-12-14T08:46:29Z</time>
      </trkpt>
      <trkpt lat="48.4989" lon="2.04008">
        <ele>154.8</ele>
        <time>2023-12-14T08:46:30Z</time>
      </trkpt>
      <trkpt lat="48.49893" lon="2.04003">
        <ele>154.8</ele>
        <time>2023-12-14T08:46:31Z</time>
      </trkpt>
      <trkpt lat="48.49896" lon="2.03997">
        <ele>155.2</ele>
        <time>2023-12-14T08:46:32Z</time>
      </trkpt>
      <trkpt lat="48.49899" lon="2.03991">
        <ele>155.2</ele>
        <time>2023-12-14T08:46:33Z</time>
      </trkpt>
      <trkpt lat="48.49902" lon="2.03986">
        <ele>155.2</ele>
        <time>2023-12-14T08:46:34Z</time>
      </trkpt>
      <trkpt lat="48.49904" lon="2.0398">
        <ele>155.2</ele>
        <time>2023-12-14T08:46:35Z</time>
      </trkpt>
      <trkpt lat="48.49907" lon="2.03974">
        <ele>155.4</ele>
        <time>2023-12-14T08:46:36Z</time>
      </trkpt>
      <trkpt lat="48.4991" lon="2.03968">
        <ele>155.4</ele>
        <time>2023-12-14T08:46:37Z</time>
      </trkpt>
      <trkpt lat="48.49913" lon="2.03963">
        <ele>155.4</ele>
        <time>2023-12-14T08:46:38Z</time>
      </trkpt>
      <trkpt lat="48.49916" lon="2.03957">
        <ele>155</ele>
        <time>2023-12-14T08:46:39Z</time>
      </trkpt>
      <trkpt lat="48.49918" lon="2.03951">
        <ele>155.8</ele>
        <time>2023-12-14T08:46:40Z</time>
      </trkpt>
      <trkpt lat="48.49921" lon="2.03945">
        <ele>155.8</ele>
        <time>2023-12-14T08:46:41Z</time>
      </trkpt>
      <trkpt lat="48.49924" lon="2.0394">
        <ele>155.8</ele>
        <time>2023-12-14T08:46:42Z</time>
      </trkpt>
      <trkpt lat="48.49927" lon="2.03934">
        <ele>155.6</ele>
        <time>2023-12-14T08:46:43Z</time>
      </trkpt>
      <trkpt lat="48.4993" lon="2.03929">
        <ele>155.8</ele>
        <time>2023-12-14T08:46:44Z</time>
      </trkpt>
      <trkpt lat="48.49932" lon="2.03923">
        <ele>155.8</ele>
        <time>2023-12-14T08:46:45Z</time>
      </trkpt>
      <trkpt lat="48.49935" lon="2.03918">
        <ele>155.8</ele>
        <time>2023-12-14T08:46:46Z</time>
      </trkpt>
      <trkpt lat="48.49938" lon="2.03912">
        <ele>156.4</ele>
        <time>2023-12-14T08:46:47Z</time>
      </trkpt>
      <trkpt lat="48.49941" lon="2.03906">
        <ele>156.2</ele>
        <time>2023-12-14T08:46:48Z</time>
      </trkpt>
      <trkpt lat="48.49943" lon="2.03901">
        <ele>156.2</ele>
        <time>2023-12-14T08:46:49Z</time>
      </trkpt>
      <trkpt lat="48.49946" lon="2.03895">
        <ele>156.2</ele>
        <time>2023-12-14T08:46:50Z</time>
      </trkpt>
      <trkpt lat="48.49949" lon="2.03889">
        <ele>156.2</ele>
        <time>2023-12-14T08:46:51Z</time>
      </trkpt>
      <trkpt lat="48.49952" lon="2.03883">
        <ele>156</ele>
        <time>2023-12-14T08:46:52Z</time>
      </trkpt>
      <trkpt lat="48.49954" lon="2.03878">
        <ele>156</ele>
        <time>2023-12-14T08:46:53Z</time>
      </trkpt>
      <trkpt lat="48.49957" lon="2.03872">
        <ele>156</ele>
        <time>2023-12-14T08:46:54Z</time>
      </trkpt>
      <trkpt lat="48.4996" lon="2.03866">
        <ele>156</ele>
        <time>2023-12-14T08:46:55Z</time>
      </trkpt>
      <trkpt lat="48.49962" lon="2.0386">
        <ele>156.6</ele>
        <time>2023-12-14T08:46:56Z</time>
      </trkpt>
      <trkpt lat="48.49965" lon="2.03855">
        <ele>156.6</ele>
        <time>2023-12-14T08:46:57Z</time>
      </trkpt>
      <trkpt lat="48.49968" lon="2.03849">
        <ele>156.6</ele>
        <time>2023-12-14T08:46:58Z</time>
      </trkpt>
      <trkpt lat="48.49971" lon="2.03844">
        <ele>156.6</ele>
        <time>2023-12-14T08:46:59Z</time>
      </trkpt>
      <trkpt lat="48.49973" lon="2.03838">
        <ele>156.4</ele>
        <time>2023-12-14T08:47:00Z</time>
      </trkpt>
      <trkpt lat="48.49976" lon="2.03832">
        <ele>156.4</ele>
        <time>2023-12-14T08:47:01Z</time>
      </trkpt>
      <trkpt lat="48.49978" lon="2.03827">
        <ele>156.4</ele>
        <time>2023-12-14T08:47:02Z</time>
      </trkpt>
      <trkpt lat="48.49981" lon="2.03821">
        <ele>157</ele>
        <time>2023-12-14T08:47:03Z</time>
      </trkpt>
      <trkpt lat="48.49984" lon="2.03816">
        <ele>156.4</ele>
        <time>2023-12-14T08:47:04Z</time>
      </trkpt>
      <trkpt lat="48.49986" lon="2.0381">
        <ele>156.4</ele>
        <time>2023-12-14T08:47:05Z</time>
      </trkpt>
      <trkpt lat="48.49989" lon="2.03805">
        <ele>156.4</ele>
        <time>2023-12-14T08:47:06Z</time>
      </trkpt>
      <trkpt lat="48.49991" lon="2.03799">
        <ele>157.2</ele>
        <time>2023-12-14T08:47:07Z</time>
      </trkpt>
      <trkpt lat="48.49994" lon="2.03793">
        <ele>156.6</ele>
        <time>2023-12-14T08:47:08Z</time>
      </trkpt>
      <trkpt lat="48.49997" lon="2.03787">
        <ele>156.6</ele>
        <time>2023-12-14T08:47:09Z</time>
      </trkpt>
      <trkpt lat="48.49999" lon="2.03782">
        <ele>156.6</ele>
        <time>2023-12-14T08:47:10Z</time>
      </trkpt>
      <trkpt lat="48.50002" lon="2.03776">
        <ele>156.6</ele>
        <time>2023-12-14T08:47:11Z</time>
      </trkpt>
      <trkpt lat="48.50004" lon="2.0377">
        <ele>156.8</ele>
        <time>2023-12-14T08:47:12Z</time>
      </trkpt>
      <trkpt lat="48.50007" lon="2.03765">
        <ele>156.8</ele>
        <time>2023-12-14T08:47:13Z</time>
      </trkpt>
      <trkpt lat="48.50009" lon="2.03759">
        <ele>156.8</ele>
        <time>2023-12-14T08:47:14Z</time>
      </trkpt>
      <trkpt lat="48.50011" lon="2.03753">
        <ele>157.8</ele>
        <time>2023-12-14T08:47:15Z</time>
      </trkpt>
      <trkpt lat="48.50013" lon="2.03747">
        <ele>158.8</ele>
        <time>2023-12-14T08:47:16Z</time>
      </trkpt>
      <trkpt lat="48.50015" lon="2.03741">
        <ele>158.8</ele>
        <time>2023-12-14T08:47:17Z</time>
      </trkpt>
      <trkpt lat="48.50017" lon="2.03735">
        <ele>158.8</ele>
        <time>2023-12-14T08:47:18Z</time>
      </trkpt>
      <trkpt lat="48.5002" lon="2.03728">
        <ele>158.8</ele>
        <time>2023-12-14T08:47:19Z</time>
      </trkpt>
      <trkpt lat="48.50022" lon="2.03722">
        <ele>157.8</ele>
        <time>2023-12-14T08:47:20Z</time>
      </trkpt>
      <trkpt lat="48.50024" lon="2.03716">
        <ele>157.8</ele>
        <time>2023-12-14T08:47:21Z</time>
      </trkpt>
      <trkpt lat="48.50026" lon="2.0371">
        <ele>157.8</ele>
        <time>2023-12-14T08:47:22Z</time>
      </trkpt>
      <trkpt lat="48.50028" lon="2.03703">
        <ele>158.8</ele>
        <time>2023-12-14T08:47:23Z</time>
      </trkpt>
      <trkpt lat="48.5003" lon="2.03697">
        <ele>160.2</ele>
        <time>2023-12-14T08:47:24Z</time>
      </trkpt>
      <trkpt lat="48.50032" lon="2.03691">
        <ele>160.2</ele>
        <time>2023-12-14T08:47:25Z</time>
      </trkpt>
      <trkpt lat="48.50034" lon="2.03684">
        <ele>160.2</ele>
        <time>2023-12-14T08:47:26Z</time>
      </trkpt>
      <trkpt lat="48.50035" lon="2.03678">
        <ele>159.2</ele>
        <time>2023-12-14T08:47:27Z</time>
      </trkpt>
      <trkpt lat="48.50037" lon="2.03671">
        <ele>158.8</ele>
        <time>2023-12-14T08:47:28Z</time>
      </trkpt>
      <trkpt lat="48.50039" lon="2.03665">
        <ele>158.8</ele>
        <time>2023-12-14T08:47:29Z</time>
      </trkpt>
      <trkpt lat="48.50041" lon="2.03659">
        <ele>158.8</ele>
        <time>2023-12-14T08:47:30Z</time>
      </trkpt>
      <trkpt lat="48.50042" lon="2.03652">
        <ele>159.8</ele>
        <time>2023-12-14T08:47:31Z</time>
      </trkpt>
      <trkpt lat="48.50044" lon="2.03646">
        <ele>159.2</ele>
        <time>2023-12-14T08:47:32Z</time>
      </trkpt>
      <trkpt lat="48.50046" lon="2.03639">
        <ele>159.2</ele>
        <time>2023-12-14T08:47:33Z</time>
      </trkpt>
      <trkpt lat="48.50047" lon="2.03633">
        <ele>159.2</ele>
        <time>2023-12-14T08:47:34Z</time>
      </trkpt>
      <trkpt lat="48.50049" lon="2.03626">
        <ele>159.2</ele>
        <time>2023-12-14T08:47:35Z</time>
      </trkpt>
      <trkpt lat="48.50051" lon="2.03619">
        <ele>159.6</ele>
        <time>2023-12-14T08:47:36Z</time>
      </trkpt>
      <trkpt lat="48.50052" lon="2.03612">
        <ele>159.6</ele>
        <time>2023-12-14T08:47:37Z</time>
      </trkpt>
      <trkpt lat="48.50054" lon="2.03606">
        <ele>159.6</ele>
        <time>2023-12-14T08:47:38Z</time>
      </trkpt>
      <trkpt lat="48.50055" lon="2.03599">
        <ele>160</ele>
        <time>2023-12-14T08:47:39Z</time>
      </trkpt>
      <trkpt lat="48.50057" lon="2.03592">
        <ele>159.8</ele>
        <time>2023-12-14T08:47:40Z</time>
      </trkpt>
      <trkpt lat="48.50058" lon="2.03585">
        <ele>159.8</ele>
        <time>2023-12-14T08:47:41Z</time>
      </trkpt>
      <trkpt lat="48.50059" lon="2.03578">
        <ele>159.8</ele>
        <time>2023-12-14T08:47:42Z</time>
      </trkpt>
      <trkpt lat="48.50061" lon="2.03572">
        <ele>160.6</ele>
        <time>2023-12-14T08:47:43Z</time>
      </trkpt>
      <trkpt lat="48.50062" lon="2.03565">
        <ele>160.4</ele>
        <time>2023-12-14T08:47:44Z</time>
      </trkpt>
      <trkpt lat="48.50063" lon="2.03558">
        <ele>160.4</ele>
        <time>2023-12-14T08:47:45Z</time>
      </trkpt>
      <trkpt lat="48.50064" lon="2.0355">
        <ele>160.4</ele>
        <time>2023-12-14T08:47:46Z</time>
      </trkpt>
      <trkpt lat="48.50065" lon="2.03543">
        <ele>160.2</ele>
        <time>2023-12-14T08:47:47Z</time>
      </trkpt>
      <trkpt lat="48.50066" lon="2.03536">
        <ele>160.2</ele>
        <time>2023-12-14T08:47:48Z</time>
      </trkpt>
      <trkpt lat="48.50067" lon="2.03529">
        <ele>160.2</ele>
        <time>2023-12-14T08:47:49Z</time>
      </trkpt>
      <trkpt lat="48.50068" lon="2.03522">
        <ele>160.2</ele>
        <time>2023-12-14T08:47:50Z</time>
      </trkpt>
      <trkpt lat="48.50069" lon="2.03515">
        <ele>160.2</ele>
        <time>2023-12-14T08:47:51Z</time>
      </trkpt>
      <trkpt lat="48.5007" lon="2.03508">
        <ele>160</ele>
        <time>2023-12-14T08:47:52Z</time>
      </trkpt>
      <trkpt lat="48.50071" lon="2.035">
        <ele>160</ele>
        <time>2023-12-14T08:47:53Z</time>
      </trkpt>
      <trkpt lat="48.50072" lon="2.03493">
        <ele>160</ele>
        <time>2023-12-14T08:47:54Z</time>
      </trkpt>
      <trkpt lat="48.50073" lon="2.03486">
        <ele>160.4</ele>
        <time>2023-12-14T08:47:55Z</time>
      </trkpt>
      <trkpt lat="48.50074" lon="2.03478">
        <ele>160.8</ele>
        <time>2023-12-14T08:47:56Z</time>
      </trkpt>
      <trkpt lat="48.50075" lon="2.03471">
        <ele>160.8</ele>
        <time>2023-12-14T08:47:57Z</time>
      </trkpt>
      <trkpt lat="48.50076" lon="2.03463">
        <ele>160.8</ele>
        <time>2023-12-14T08:47:58Z</time>
      </trkpt>
      <trkpt lat="48.50076" lon="2.03456">
        <ele>160.2</ele>
        <time>2023-12-14T08:47:59Z</time>
      </trkpt>
      <trkpt lat="48.50077" lon="2.03448">
        <ele>160.2</ele>
        <time>2023-12-14T08:48:00Z</time>
      </trkpt>
      <trkpt lat="48.50078" lon="2.03441">
        <ele>160.2</ele>
        <time>2023-12-14T08:48:01Z</time>
      </trkpt>
      <trkpt lat="48.50079" lon="2.03434">
        <ele>160.2</ele>
        <time>2023-12-14T08:48:02Z</time>
      </trkpt>
      <trkpt lat="48.5008" lon="2.03426">
        <ele>160.8</ele>
        <time>2023-12-14T08:48:03Z</time>
      </trkpt>
      <trkpt lat="48.50081" lon="2.03419">
        <ele>160.4</ele>
        <time>2023-12-14T08:48:04Z</time>
      </trkpt>
      <trkpt lat="48.50082" lon="2.03411">
        <ele>160.4</ele>
        <time>2023-12-14T08:48:05Z</time>
      </trkpt>
      <trkpt lat="48.50083" lon="2.03404">
        <ele>160.4</ele>
        <time>2023-12-14T08:48:06Z</time>
      </trkpt>
      <trkpt lat="48.50084" lon="2.03397">
        <ele>160.4</ele>
        <time>2023-12-14T08:48:07Z</time>
      </trkpt>
      <trkpt lat="48.50085" lon="2.03389">
        <ele>160.4</ele>
        <time>2023-12-14T08:48:08Z</time>
      </trkpt>
      <trkpt lat="48.50086" lon="2.03382">
        <ele>160.4</ele>
        <time>2023-12-14T08:48:09Z</time>
      </trkpt>
      <trkpt lat="48.50087" lon="2.03375">
        <ele>160.4</ele>
        <time>2023-12-14T08:48:10Z</time>
      </trkpt>
      <trkpt lat="48.50088" lon="2.03368">
        <ele>159.6</ele>
        <time>2023-12-14T08:48:11Z</time>
      </trkpt>
      <trkpt lat="48.50089" lon="2.03361">
        <ele>160</ele>
        <time>2023-12-14T08:48:12Z</time>
      </trkpt>
      <trkpt lat="48.50091" lon="2.03354">
        <ele>160</ele>
        <time>2023-12-14T08:48:13Z</time>
      </trkpt>
      <trkpt lat="48.50093" lon="2.03347">
        <ele>160</ele>
        <time>2023-12-14T08:48:14Z</time>
      </trkpt>
      <trkpt lat="48.50094" lon="2.03341">
        <ele>161</ele>
        <time>2023-12-14T08:48:15Z</time>
      </trkpt>
      <trkpt lat="48.50096" lon="2.03334">
        <ele>161</ele>
        <time>2023-12-14T08:48:16Z</time>
      </trkpt>
      <trkpt lat="48.50098" lon="2.03328">
        <ele>161</ele>
        <time>2023-12-14T08:48:17Z</time>
      </trkpt>
      <trkpt lat="48.501" lon="2.03321">
        <ele>161</ele>
        <time>2023-12-14T08:48:18Z</time>
      </trkpt>
      <trkpt lat="48.50102" lon="2.03315">
        <ele>161</ele>
        <time>2023-12-14T08:48:19Z</time>
      </trkpt>
      <trkpt lat="48.50104" lon="2.03308">
        <ele>160.6</ele>
        <time>2023-12-14T08:48:20Z</time>
      </trkpt>
      <trkpt lat="48.50106" lon="2.03302">
        <ele>160.6</ele>
        <time>2023-12-14T08:48:21Z</time>
      </trkpt>
      <trkpt lat="48.50109" lon="2.03296">
        <ele>160.6</ele>
        <time>2023-12-14T08:48:22Z</time>
      </trkpt>
      <trkpt lat="48.50111" lon="2.0329">
        <ele>160.8</ele>
        <time>2023-12-14T08:48:23Z</time>
      </trkpt>
      <trkpt lat="48.50113" lon="2.03284">
        <ele>161.2</ele>
        <time>2023-12-14T08:48:24Z</time>
      </trkpt>
      <trkpt lat="48.50115" lon="2.03279">
        <ele>161.2</ele>
        <time>2023-12-14T08:48:25Z</time>
      </trkpt>
      <trkpt lat="48.50117" lon="2.03273">
        <ele>161.2</ele>
        <time>2023-12-14T08:48:26Z</time>
      </trkpt>
      <trkpt lat="48.5012" lon="2.03267">
        <ele>161.2</ele>
        <time>2023-12-14T08:48:27Z</time>
      </trkpt>
      <trkpt lat="48.50121" lon="2.03261">
        <ele>159.6</ele>
        <time>2023-12-14T08:48:28Z</time>
      </trkpt>
      <trkpt lat="48.50123" lon="2.03255">
        <ele>159.6</ele>
        <time>2023-12-14T08:48:29Z</time>
      </trkpt>
      <trkpt lat="48.50125" lon="2.0325">
        <ele>159.6</ele>
        <time>2023-12-14T08:48:30Z</time>
      </trkpt>
      <trkpt lat="48.50128" lon="2.03244">
        <ele>159.6</ele>
        <time>2023-12-14T08:48:31Z</time>
      </trkpt>
      <trkpt lat="48.50129" lon="2.03237">
        <ele>160.8</ele>
        <time>2023-12-14T08:48:32Z</time>
      </trkpt>
      <trkpt lat="48.50131" lon="2.03231">
        <ele>160.8</ele>
        <time>2023-12-14T08:48:33Z</time>
      </trkpt>
      <trkpt lat="48.50132" lon="2.03225">
        <ele>160.8</ele>
        <time>2023-12-14T08:48:34Z</time>
      </trkpt>
      <trkpt lat="48.50134" lon="2.03218">
        <ele>160.8</ele>
        <time>2023-12-14T08:48:35Z</time>
      </trkpt>
      <trkpt lat="48.50136" lon="2.03211">
        <ele>160.4</ele>
        <time>2023-12-14T08:48:36Z</time>
      </trkpt>
      <trkpt lat="48.50137" lon="2.03205">
        <ele>160.4</ele>
        <time>2023-12-14T08:48:37Z</time>
      </trkpt>
      <trkpt lat="48.50138" lon="2.03198">
        <ele>160.4</ele>
        <time>2023-12-14T08:48:38Z</time>
      </trkpt>
      <trkpt lat="48.50139" lon="2.03192">
        <ele>161.4</ele>
        <time>2023-12-14T08:48:39Z</time>
      </trkpt>
      <trkpt lat="48.50141" lon="2.03185">
        <ele>161.4</ele>
        <time>2023-12-14T08:48:40Z</time>
      </trkpt>
      <trkpt lat="48.50141" lon="2.03179">
        <ele>161.4</ele>
        <time>2023-12-14T08:48:41Z</time>
      </trkpt>
      <trkpt lat="48.50142" lon="2.03173">
        <ele>161.4</ele>
        <time>2023-12-14T08:48:42Z</time>
      </trkpt>
      <trkpt lat="48.50143" lon="2.03168">
        <ele>161.4</ele>
        <time>2023-12-14T08:48:43Z</time>
      </trkpt>
      <trkpt lat="48.50143" lon="2.03162">
        <ele>161.8</ele>
        <time>2023-12-14T08:48:44Z</time>
      </trkpt>
      <trkpt lat="48.50143" lon="2.03158">
        <ele>161.8</ele>
        <time>2023-12-14T08:48:45Z</time>
      </trkpt>
      <trkpt lat="48.50143" lon="2.03153">
        <ele>161.8</ele>
        <time>2023-12-14T08:48:46Z</time>
      </trkpt>
      <trkpt lat="48.50144" lon="2.03149">
        <ele>162.8</ele>
        <time>2023-12-14T08:48:47Z</time>
      </trkpt>
      <trkpt lat="48.50144" lon="2.03146">
        <ele>163.4</ele>
        <time>2023-12-14T08:48:48Z</time>
      </trkpt>
      <trkpt lat="48.50145" lon="2.03142">
        <ele>163.4</ele>
        <time>2023-12-14T08:48:49Z</time>
      </trkpt>
      <trkpt lat="48.50145" lon="2.0314">
        <ele>163.4</ele>
        <time>2023-12-14T08:48:50Z</time>
      </trkpt>
      <trkpt lat="48.50145" lon="2.03138">
        <ele>163.4</ele>
        <time>2023-12-14T08:48:51Z</time>
      </trkpt>
      <trkpt lat="48.50146" lon="2.03137">
        <ele>164.6</ele>
        <time>2023-12-14T08:48:52Z</time>
      </trkpt>
      <trkpt lat="48.50146" lon="2.03135">
        <ele>164.6</ele>
        <time>2023-12-14T08:48:53Z</time>
      </trkpt>
      <trkpt lat="48.50147" lon="2.03133">
        <ele>164.6</ele>
        <time>2023-12-14T08:48:54Z</time>
      </trkpt>
      <trkpt lat="48.50147" lon="2.03132">
        <ele>162.8</ele>
        <time>2023-12-14T08:49:10Z</time>
      </trkpt>
      <trkpt lat="48.50147" lon="2.0313">
        <ele>162.8</ele>
        <time>2023-12-14T08:49:11Z</time>
      </trkpt>
      <trkpt lat="48.5015" lon="2.03125">
        <ele>161.6</ele>
        <time>2023-12-14T08:49:12Z</time>
      </trkpt>
      <trkpt lat="48.50152" lon="2.0312">
        <ele>161.6</ele>
        <time>2023-12-14T08:49:13Z</time>
      </trkpt>
      <trkpt lat="48.50154" lon="2.03114">
        <ele>161.6</ele>
        <time>2023-12-14T08:49:14Z</time>
      </trkpt>
      <trkpt lat="48.50157" lon="2.03108">
        <ele>160.6</ele>
        <time>2023-12-14T08:49:15Z</time>
      </trkpt>
      <trkpt lat="48.50159" lon="2.03102">
        <ele>160.6</ele>
        <time>2023-12-14T08:49:16Z</time>
      </trkpt>
      <trkpt lat="48.50162" lon="2.03096">
        <ele>160.6</ele>
        <time>2023-12-14T08:49:17Z</time>
      </trkpt>
      <trkpt lat="48.50164" lon="2.0309">
        <ele>160.6</ele>
        <time>2023-12-14T08:49:18Z</time>
      </trkpt>
      <trkpt lat="48.50167" lon="2.03084">
        <ele>159.6</ele>
        <time>2023-12-14T08:49:19Z</time>
      </trkpt>
      <trkpt lat="48.50169" lon="2.03078">
        <ele>160.4</ele>
        <time>2023-12-14T08:49:20Z</time>
      </trkpt>
      <trkpt lat="48.50172" lon="2.03071">
        <ele>160.4</ele>
        <time>2023-12-14T08:49:21Z</time>
      </trkpt>
      <trkpt lat="48.50175" lon="2.03065">
        <ele>160.4</ele>
        <time>2023-12-14T08:49:22Z</time>
      </trkpt>
      <trkpt lat="48.50177" lon="2.03058">
        <ele>160</ele>
        <time>2023-12-14T08:49:23Z</time>
      </trkpt>
      <trkpt lat="48.5018" lon="2.03052">
        <ele>159.6</ele>
        <time>2023-12-14T08:49:24Z</time>
      </trkpt>
      <trkpt lat="48.50182" lon="2.03045">
        <ele>159.6</ele>
        <time>2023-12-14T08:49:25Z</time>
      </trkpt>
      <trkpt lat="48.50185" lon="2.03038">
        <ele>159.6</ele>
        <time>2023-12-14T08:49:26Z</time>
      </trkpt>
      <trkpt lat="48.50188" lon="2.03032">
        <ele>159.6</ele>
        <time>2023-12-14T08:49:27Z</time>
      </trkpt>
      <trkpt lat="48.5019" lon="2.03025">
        <ele>158.8</ele>
        <time>2023-12-14T08:49:28Z</time>
      </trkpt>
      <trkpt lat="48.50193" lon="2.03018">
        <ele>158.8</ele>
        <time>2023-12-14T08:49:29Z</time>
      </trkpt>
      <trkpt lat="48.50196" lon="2.03011">
        <ele>158.8</ele>
        <time>2023-12-14T08:49:30Z</time>
      </trkpt>
      <trkpt lat="48.50199" lon="2.03003">
        <ele>158.8</ele>
        <time>2023-12-14T08:49:31Z</time>
      </trkpt>
      <trkpt lat="48.50202" lon="2.02996">
        <ele>157.8</ele>
        <time>2023-12-14T08:49:32Z</time>
      </trkpt>
      <trkpt lat="48.50206" lon="2.02988">
        <ele>157.8</ele>
        <time>2023-12-14T08:49:33Z</time>
      </trkpt>
      <trkpt lat="48.50208" lon="2.02981">
        <ele>157.8</ele>
        <time>2023-12-14T08:49:34Z</time>
      </trkpt>
      <trkpt lat="48.50211" lon="2.02973">
        <ele>156.8</ele>
        <time>2023-12-14T08:49:35Z</time>
      </trkpt>
      <trkpt lat="48.50214" lon="2.02966">
        <ele>156</ele>
        <time>2023-12-14T08:49:36Z</time>
      </trkpt>
      <trkpt lat="48.50217" lon="2.02958">
        <ele>156</ele>
        <time>2023-12-14T08:49:37Z</time>
      </trkpt>
      <trkpt lat="48.5022" lon="2.02951">
        <ele>156</ele>
        <time>2023-12-14T08:49:38Z</time>
      </trkpt>
      <trkpt lat="48.50223" lon="2.02943">
        <ele>155.6</ele>
        <time>2023-12-14T08:49:39Z</time>
      </trkpt>
      <trkpt lat="48.50226" lon="2.02936">
        <ele>155.6</ele>
        <time>2023-12-14T08:49:40Z</time>
      </trkpt>
      <trkpt lat="48.50229" lon="2.02928">
        <ele>155.6</ele>
        <time>2023-12-14T08:49:41Z</time>
      </trkpt>
      <trkpt lat="48.50232" lon="2.02921">
        <ele>155.6</ele>
        <time>2023-12-14T08:49:42Z</time>
      </trkpt>
      <trkpt lat="48.50235" lon="2.02913">
        <ele>155.8</ele>
        <time>2023-12-14T08:49:43Z</time>
      </trkpt>
      <trkpt lat="48.50238" lon="2.02905">
        <ele>156.4</ele>
        <time>2023-12-14T08:49:44Z</time>
      </trkpt>
      <trkpt lat="48.50241" lon="2.02897">
        <ele>156.4</ele>
        <time>2023-12-14T08:49:45Z</time>
      </trkpt>
      <trkpt lat="48.50245" lon="2.02889">
        <ele>156.4</ele>
        <time>2023-12-14T08:49:46Z</time>
      </trkpt>
      <trkpt lat="48.50248" lon="2.02881">
        <ele>155.4</ele>
        <time>2023-12-14T08:49:47Z</time>
      </trkpt>
      <trkpt lat="48.50251" lon="2.02872">
        <ele>152.8</ele>
        <time>2023-12-14T08:49:48Z</time>
      </trkpt>
      <trkpt lat="48.50254" lon="2.02864">
        <ele>152.8</ele>
        <time>2023-12-14T08:49:49Z</time>
      </trkpt>
      <trkpt lat="48.50258" lon="2.02856">
        <ele>152.8</ele>
        <time>2023-12-14T08:49:50Z</time>
      </trkpt>
      <trkpt lat="48.50261" lon="2.02847">
        <ele>153.4</ele>
        <time>2023-12-14T08:49:51Z</time>
      </trkpt>
      <trkpt lat="48.50265" lon="2.02839">
        <ele>153.8</ele>
        <time>2023-12-14T08:49:52Z</time>
      </trkpt>
      <trkpt lat="48.50268" lon="2.0283">
        <ele>153.8</ele>
        <time>2023-12-14T08:49:53Z</time>
      </trkpt>
      <trkpt lat="48.50272" lon="2.02822">
        <ele>153.8</ele>
        <time>2023-12-14T08:49:54Z</time>
      </trkpt>
      <trkpt lat="48.50275" lon="2.02813">
        <ele>152.8</ele>
        <time>2023-12-14T08:49:55Z</time>
      </trkpt>
      <trkpt lat="48.50279" lon="2.02805">
        <ele>152.8</ele>
        <time>2023-12-14T08:49:56Z</time>
      </trkpt>
      <trkpt lat="48.50282" lon="2.02796">
        <ele>152.8</ele>
        <time>2023-12-14T08:49:57Z</time>
      </trkpt>
      <trkpt lat="48.50285" lon="2.02788">
        <ele>152.8</ele>
        <time>2023-12-14T08:49:58Z</time>
      </trkpt>
      <trkpt lat="48.50289" lon="2.02779">
        <ele>152.8</ele>
        <time>2023-12-14T08:49:59Z</time>
      </trkpt>
      <trkpt lat="48.50292" lon="2.0277">
        <ele>152.2</ele>
        <time>2023-12-14T08:50:00Z</time>
      </trkpt>
      <trkpt lat="48.50295" lon="2.02762">
        <ele>152.2</ele>
        <time>2023-12-14T08:50:01Z</time>
      </trkpt>
      <trkpt lat="48.50299" lon="2.02753">
        <ele>152.2</ele>
        <time>2023-12-14T08:50:02Z</time>
      </trkpt>
      <trkpt lat="48.50302" lon="2.02745">
        <ele>152.2</ele>
        <time>2023-12-14T08:50:03Z</time>
      </trkpt>
      <trkpt lat="48.50305" lon="2.02737">
        <ele>152.2</ele>
        <time>2023-12-14T08:50:04Z</time>
      </trkpt>
      <trkpt lat="48.50309" lon="2.02729">
        <ele>152.2</ele>
        <time>2023-12-14T08:50:05Z</time>
      </trkpt>
      <trkpt lat="48.50312" lon="2.02721">
        <ele>152.2</ele>
        <time>2023-12-14T08:50:06Z</time>
      </trkpt>
      <trkpt lat="48.50315" lon="2.02713">
        <ele>153.2</ele>
        <time>2023-12-14T08:50:07Z</time>
      </trkpt>
      <trkpt lat="48.50318" lon="2.02706">
        <ele>153.6</ele>
        <time>2023-12-14T08:50:08Z</time>
      </trkpt>
      <trkpt lat="48.50321" lon="2.02698">
        <ele>153.6</ele>
        <time>2023-12-14T08:50:09Z</time>
      </trkpt>
      <trkpt lat="48.50323" lon="2.02691">
        <ele>153.6</ele>
        <time>2023-12-14T08:50:10Z</time>
      </trkpt>
      <trkpt lat="48.50326" lon="2.02684">
        <ele>154.6</ele>
        <time>2023-12-14T08:50:11Z</time>
      </trkpt>
      <trkpt lat="48.50329" lon="2.02678">
        <ele>155.6</ele>
        <time>2023-12-14T08:50:12Z</time>
      </trkpt>
      <trkpt lat="48.50332" lon="2.02671">
        <ele>155.6</ele>
        <time>2023-12-14T08:50:13Z</time>
      </trkpt>
      <trkpt lat="48.50334" lon="2.02665">
        <ele>155.6</ele>
        <time>2023-12-14T08:50:14Z</time>
      </trkpt>
      <trkpt lat="48.50337" lon="2.02658">
        <ele>155.6</ele>
        <time>2023-12-14T08:50:15Z</time>
      </trkpt>
      <trkpt lat="48.50339" lon="2.02652">
        <ele>155.4</ele>
        <time>2023-12-14T08:50:16Z</time>
      </trkpt>
      <trkpt lat="48.50342" lon="2.02646">
        <ele>155.4</ele>
        <time>2023-12-14T08:50:17Z</time>
      </trkpt>
      <trkpt lat="48.50344" lon="2.0264">
        <ele>155.4</ele>
        <time>2023-12-14T08:50:18Z</time>
      </trkpt>
      <trkpt lat="48.50347" lon="2.02633">
        <ele>155.8</ele>
        <time>2023-12-14T08:50:19Z</time>
      </trkpt>
      <trkpt lat="48.50349" lon="2.02627">
        <ele>155.8</ele>
        <time>2023-12-14T08:50:20Z</time>
      </trkpt>
      <trkpt lat="48.50352" lon="2.02621">
        <ele>155.8</ele>
        <time>2023-12-14T08:50:21Z</time>
      </trkpt>
      <trkpt lat="48.50355" lon="2.02615">
        <ele>155.8</ele>
        <time>2023-12-14T08:50:22Z</time>
      </trkpt>
      <trkpt lat="48.50357" lon="2.0261">
        <ele>156</ele>
        <time>2023-12-14T08:50:23Z</time>
      </trkpt>
      <trkpt lat="48.5036" lon="2.02604">
        <ele>156.4</ele>
        <time>2023-12-14T08:50:24Z</time>
      </trkpt>
      <trkpt lat="48.50363" lon="2.02598">
        <ele>156.4</ele>
        <time>2023-12-14T08:50:25Z</time>
      </trkpt>
      <trkpt lat="48.50367" lon="2.02593">
        <ele>156.4</ele>
        <time>2023-12-14T08:50:26Z</time>
      </trkpt>
      <trkpt lat="48.5037" lon="2.02588">
        <ele>156</ele>
        <time>2023-12-14T08:50:27Z</time>
      </trkpt>
      <trkpt lat="48.50374" lon="2.02583">
        <ele>156</ele>
        <time>2023-12-14T08:50:28Z</time>
      </trkpt>
      <trkpt lat="48.50377" lon="2.02579">
        <ele>156</ele>
        <time>2023-12-14T08:50:29Z</time>
      </trkpt>
      <trkpt lat="48.50381" lon="2.02574">
        <ele>156</ele>
        <time>2023-12-14T08:50:30Z</time>
      </trkpt>
      <trkpt lat="48.50385" lon="2.0257">
        <ele>156.8</ele>
        <time>2023-12-14T08:50:31Z</time>
      </trkpt>
      <trkpt lat="48.50389" lon="2.02566">
        <ele>156.6</ele>
        <time>2023-12-14T08:50:32Z</time>
      </trkpt>
      <trkpt lat="48.50393" lon="2.02562">
        <ele>156.6</ele>
        <time>2023-12-14T08:50:33Z</time>
      </trkpt>
      <trkpt lat="48.50396" lon="2.02557">
        <ele>156.6</ele>
        <time>2023-12-14T08:50:34Z</time>
      </trkpt>
      <trkpt lat="48.50399" lon="2.02553">
        <ele>156.6</ele>
        <time>2023-12-14T08:50:35Z</time>
      </trkpt>
      <trkpt lat="48.50403" lon="2.02548">
        <ele>156.8</ele>
        <time>2023-12-14T08:50:36Z</time>
      </trkpt>
      <trkpt lat="48.50407" lon="2.02545">
        <ele>156.8</ele>
        <time>2023-12-14T08:50:37Z</time>
      </trkpt>
      <trkpt lat="48.50412" lon="2.02541">
        <ele>156.8</ele>
        <time>2023-12-14T08:50:38Z</time>
      </trkpt>
      <trkpt lat="48.50416" lon="2.02538">
        <ele>156.8</ele>
        <time>2023-12-14T08:50:39Z</time>
      </trkpt>
      <trkpt lat="48.5042" lon="2.02534">
        <ele>157</ele>
        <time>2023-12-14T08:50:40Z</time>
      </trkpt>
      <trkpt lat="48.50424" lon="2.0253">
        <ele>157</ele>
        <time>2023-12-14T08:50:41Z</time>
      </trkpt>
      <trkpt lat="48.50428" lon="2.02525">
        <ele>157</ele>
        <time>2023-12-14T08:50:42Z</time>
      </trkpt>
      <trkpt lat="48.50429" lon="2.02518">
        <ele>157</ele>
        <time>2023-12-14T08:50:43Z</time>
      </trkpt>
      <trkpt lat="48.5043" lon="2.02511">
        <ele>157.8</ele>
        <time>2023-12-14T08:50:44Z</time>
      </trkpt>
      <trkpt lat="48.50428" lon="2.02505">
        <ele>157.8</ele>
        <time>2023-12-14T08:50:45Z</time>
      </trkpt>
      <trkpt lat="48.50426" lon="2.02499">
        <ele>157.8</ele>
        <time>2023-12-14T08:50:46Z</time>
      </trkpt>
      <trkpt lat="48.50423" lon="2.02493">
        <ele>157</ele>
        <time>2023-12-14T08:50:47Z</time>
      </trkpt>
      <trkpt lat="48.5042" lon="2.02487">
        <ele>157.8</ele>
        <time>2023-12-14T08:50:48Z</time>
      </trkpt>
      <trkpt lat="48.50418" lon="2.02481">
        <ele>157.8</ele>
        <time>2023-12-14T08:50:49Z</time>
      </trkpt>
      <trkpt lat="48.50415" lon="2.02475">
        <ele>157.8</ele>
        <time>2023-12-14T08:50:50Z</time>
      </trkpt>
      <trkpt lat="48.50412" lon="2.02469">
        <ele>157.8</ele>
        <time>2023-12-14T08:50:51Z</time>
      </trkpt>
      <trkpt lat="48.50409" lon="2.02463">
        <ele>157.4</ele>
        <time>2023-12-14T08:50:52Z</time>
      </trkpt>
      <trkpt lat="48.50406" lon="2.02457">
        <ele>157.4</ele>
        <time>2023-12-14T08:50:53Z</time>
      </trkpt>
      <trkpt lat="48.50404" lon="2.0245">
        <ele>157.4</ele>
        <time>2023-12-14T08:50:54Z</time>
      </trkpt>
      <trkpt lat="48.50401" lon="2.02445">
        <ele>158</ele>
        <time>2023-12-14T08:50:55Z</time>
      </trkpt>
      <trkpt lat="48.50398" lon="2.02439">
        <ele>158.4</ele>
        <time>2023-12-14T08:50:56Z</time>
      </trkpt>
      <trkpt lat="48.50395" lon="2.02433">
        <ele>158.4</ele>
        <time>2023-12-14T08:50:57Z</time>
      </trkpt>
      <trkpt lat="48.50392" lon="2.02427">
        <ele>158.4</ele>
        <time>2023-12-14T08:50:58Z</time>
      </trkpt>
      <trkpt lat="48.5039" lon="2.02421">
        <ele>159.4</ele>
        <time>2023-12-14T08:50:59Z</time>
      </trkpt>
      <trkpt lat="48.50387" lon="2.02415">
        <ele>159.6</ele>
        <time>2023-12-14T08:51:00Z</time>
      </trkpt>
      <trkpt lat="48.50384" lon="2.02409">
        <ele>159.6</ele>
        <time>2023-12-14T08:51:01Z</time>
      </trkpt>
      <trkpt lat="48.50381" lon="2.02403">
        <ele>159.6</ele>
        <time>2023-12-14T08:51:02Z</time>
      </trkpt>
      <trkpt lat="48.50378" lon="2.02397">
        <ele>159.6</ele>
        <time>2023-12-14T08:51:03Z</time>
      </trkpt>
      <trkpt lat="48.50375" lon="2.02391">
        <ele>159.8</ele>
        <time>2023-12-14T08:51:04Z</time>
      </trkpt>
      <trkpt lat="48.50372" lon="2.02385">
        <ele>159.8</ele>
        <time>2023-12-14T08:51:05Z</time>
      </trkpt>
      <trkpt lat="48.50369" lon="2.02379">
        <ele>159.8</ele>
        <time>2023-12-14T08:51:06Z</time>
      </trkpt>
      <trkpt lat="48.50366" lon="2.02373">
        <ele>159.8</ele>
        <time>2023-12-14T08:51:07Z</time>
      </trkpt>
      <trkpt lat="48.50364" lon="2.02367">
        <ele>159.6</ele>
        <time>2023-12-14T08:51:08Z</time>
      </trkpt>
      <trkpt lat="48.50361" lon="2.02361">
        <ele>159.6</ele>
        <time>2023-12-14T08:51:09Z</time>
      </trkpt>
      <trkpt lat="48.50358" lon="2.02355">
        <ele>159.6</ele>
        <time>2023-12-14T08:51:10Z</time>
      </trkpt>
      <trkpt lat="48.50355" lon="2.02349">
        <ele>159.6</ele>
        <time>2023-12-14T08:51:11Z</time>
      </trkpt>
      <trkpt lat="48.50352" lon="2.02343">
        <ele>160</ele>
        <time>2023-12-14T08:51:12Z</time>
      </trkpt>
      <trkpt lat="48.50349" lon="2.02337">
        <ele>160</ele>
        <time>2023-12-14T08:51:13Z</time>
      </trkpt>
      <trkpt lat="48.50345" lon="2.02331">
        <ele>160</ele>
        <time>2023-12-14T08:51:14Z</time>
      </trkpt>
      <trkpt lat="48.50342" lon="2.02325">
        <ele>159.8</ele>
        <time>2023-12-14T08:51:15Z</time>
      </trkpt>
      <trkpt lat="48.50338" lon="2.0232">
        <ele>160</ele>
        <time>2023-12-14T08:51:16Z</time>
      </trkpt>
      <trkpt lat="48.50333" lon="2.02316">
        <ele>160</ele>
        <time>2023-12-14T08:51:17Z</time>
      </trkpt>
      <trkpt lat="48.50329" lon="2.02313">
        <ele>160</ele>
        <time>2023-12-14T08:51:18Z</time>
      </trkpt>
      <trkpt lat="48.50324" lon="2.0231">
        <ele>160.8</ele>
        <time>2023-12-14T08:51:19Z</time>
      </trkpt>
      <trkpt lat="48.50319" lon="2.02308">
        <ele>160.8</ele>
        <time>2023-12-14T08:51:20Z</time>
      </trkpt>
      <trkpt lat="48.50314" lon="2.02306">
        <ele>160.8</ele>
        <time>2023-12-14T08:51:21Z</time>
      </trkpt>
      <trkpt lat="48.50309" lon="2.02305">
        <ele>160.8</ele>
        <time>2023-12-14T08:51:22Z</time>
      </trkpt>
      <trkpt lat="48.50303" lon="2.02303">
        <ele>160.2</ele>
        <time>2023-12-14T08:51:23Z</time>
      </trkpt>
      <trkpt lat="48.50298" lon="2.02302">
        <ele>160.4</ele>
        <time>2023-12-14T08:51:24Z</time>
      </trkpt>
      <trkpt lat="48.50293" lon="2.02301">
        <ele>160.4</ele>
        <time>2023-12-14T08:51:25Z</time>
      </trkpt>
      <trkpt lat="48.50288" lon="2.02299">
        <ele>160.4</ele>
        <time>2023-12-14T08:51:26Z</time>
      </trkpt>
      <trkpt lat="48.50283" lon="2.02297">
        <ele>160.2</ele>
        <time>2023-12-14T08:51:27Z</time>
      </trkpt>
      <trkpt lat="48.50278" lon="2.02294">
        <ele>160</ele>
        <time>2023-12-14T08:51:28Z</time>
      </trkpt>
      <trkpt lat="48.50273" lon="2.02292">
        <ele>160</ele>
        <time>2023-12-14T08:51:29Z</time>
      </trkpt>
      <trkpt lat="48.50268" lon="2.02289">
        <ele>160</ele>
        <time>2023-12-14T08:51:30Z</time>
      </trkpt>
      <trkpt lat="48.50264" lon="2.02285">
        <ele>160</ele>
        <time>2023-12-14T08:51:31Z</time>
      </trkpt>
      <trkpt lat="48.5026" lon="2.0228">
        <ele>160.4</ele>
        <time>2023-12-14T08:51:32Z</time>
      </trkpt>
      <trkpt lat="48.50257" lon="2.02274">
        <ele>160.4</ele>
        <time>2023-12-14T08:51:33Z</time>
      </trkpt>
      <trkpt lat="48.50254" lon="2.02268">
        <ele>160.4</ele>
        <time>2023-12-14T08:51:34Z</time>
      </trkpt>
      <trkpt lat="48.5025" lon="2.02262">
        <ele>160.4</ele>
        <time>2023-12-14T08:51:35Z</time>
      </trkpt>
      <trkpt lat="48.50247" lon="2.02256">
        <ele>158.8</ele>
        <time>2023-12-14T08:51:36Z</time>
      </trkpt>
      <trkpt lat="48.50244" lon="2.0225">
        <ele>158.8</ele>
        <time>2023-12-14T08:51:37Z</time>
      </trkpt>
      <trkpt lat="48.50241" lon="2.02244">
        <ele>158.8</ele>
        <time>2023-12-14T08:51:38Z</time>
      </trkpt>
      <trkpt lat="48.50239" lon="2.02238">
        <ele>159.6</ele>
        <time>2023-12-14T08:51:39Z</time>
      </trkpt>
      <trkpt lat="48.50237" lon="2.02232">
        <ele>159.6</ele>
        <time>2023-12-14T08:51:40Z</time>
      </trkpt>
      <trkpt lat="48.50234" lon="2.02227">
        <ele>159.6</ele>
        <time>2023-12-14T08:51:41Z</time>
      </trkpt>
      <trkpt lat="48.50231" lon="2.02222">
        <ele>159.6</ele>
        <time>2023-12-14T08:51:42Z</time>
      </trkpt>
      <trkpt lat="48.50228" lon="2.02218">
        <ele>160.4</ele>
        <time>2023-12-14T08:51:43Z</time>
      </trkpt>
      <trkpt lat="48.50225" lon="2.02213">
        <ele>160.4</ele>
        <time>2023-12-14T08:51:44Z</time>
      </trkpt>
      <trkpt lat="48.50222" lon="2.02209">
        <ele>160.4</ele>
        <time>2023-12-14T08:51:45Z</time>
      </trkpt>
      <trkpt lat="48.50219" lon="2.02204">
        <ele>160.4</ele>
        <time>2023-12-14T08:51:46Z</time>
      </trkpt>
      <trkpt lat="48.50216" lon="2.02199">
        <ele>160.4</ele>
        <time>2023-12-14T08:51:47Z</time>
      </trkpt>
      <trkpt lat="48.50214" lon="2.02193">
        <ele>160.6</ele>
        <time>2023-12-14T08:51:48Z</time>
      </trkpt>
      <trkpt lat="48.50212" lon="2.02189">
        <ele>160.6</ele>
        <time>2023-12-14T08:51:49Z</time>
      </trkpt>
      <trkpt lat="48.50209" lon="2.02184">
        <ele>160.6</ele>
        <time>2023-12-14T08:51:50Z</time>
      </trkpt>
      <trkpt lat="48.50207" lon="2.02179">
        <ele>160.6</ele>
        <time>2023-12-14T08:51:51Z</time>
      </trkpt>
      <trkpt lat="48.50204" lon="2.02174">
        <ele>160.4</ele>
        <time>2023-12-14T08:51:52Z</time>
      </trkpt>
      <trkpt lat="48.50201" lon="2.02169">
        <ele>160.4</ele>
        <time>2023-12-14T08:51:53Z</time>
      </trkpt>
      <trkpt lat="48.50198" lon="2.02164">
        <ele>160.4</ele>
        <time>2023-12-14T08:51:54Z</time>
      </trkpt>
      <trkpt lat="48.50195" lon="2.0216">
        <ele>160.4</ele>
        <time>2023-12-14T08:51:55Z</time>
      </trkpt>
      <trkpt lat="48.50191" lon="2.02155">
        <ele>160.4</ele>
        <time>2023-12-14T08:51:56Z</time>
      </trkpt>
      <trkpt lat="48.50188" lon="2.02149">
        <ele>160.4</ele>
        <time>2023-12-14T08:51:57Z</time>
      </trkpt>
      <trkpt lat="48.50184" lon="2.02145">
        <ele>160.4</ele>
        <time>2023-12-14T08:51:58Z</time>
      </trkpt>
      <trkpt lat="48.5018" lon="2.0214">
        <ele>160.4</ele>
        <time>2023-12-14T08:51:59Z</time>
      </trkpt>
      <trkpt lat="48.50176" lon="2.02136">
        <ele>160.4</ele>
        <time>2023-12-14T08:52:00Z</time>
      </trkpt>
      <trkpt lat="48.50172" lon="2.02132">
        <ele>160.4</ele>
        <time>2023-12-14T08:52:01Z</time>
      </trkpt>
      <trkpt lat="48.50168" lon="2.02127">
        <ele>160.4</ele>
        <time>2023-12-14T08:52:02Z</time>
      </trkpt>
      <trkpt lat="48.50163" lon="2.02123">
        <ele>160.4</ele>
        <time>2023-12-14T08:52:03Z</time>
      </trkpt>
      <trkpt lat="48.50159" lon="2.02119">
        <ele>160.4</ele>
        <time>2023-12-14T08:52:04Z</time>
      </trkpt>
      <trkpt lat="48.50155" lon="2.02115">
        <ele>160.4</ele>
        <time>2023-12-14T08:52:05Z</time>
      </trkpt>
      <trkpt lat="48.50151" lon="2.02111">
        <ele>160.4</ele>
        <time>2023-12-14T08:52:06Z</time>
      </trkpt>
      <trkpt lat="48.50147" lon="2.02106">
        <ele>160.8</ele>
        <time>2023-12-14T08:52:07Z</time>
      </trkpt>
      <trkpt lat="48.50143" lon="2.02101">
        <ele>160.8</ele>
        <time>2023-12-14T08:52:08Z</time>
      </trkpt>
      <trkpt lat="48.50139" lon="2.02095">
        <ele>160.8</ele>
        <time>2023-12-14T08:52:09Z</time>
      </trkpt>
      <trkpt lat="48.50136" lon="2.0209">
        <ele>160.8</ele>
        <time>2023-12-14T08:52:10Z</time>
      </trkpt>
      <trkpt lat="48.50132" lon="2.02084">
        <ele>160.8</ele>
        <time>2023-12-14T08:52:11Z</time>
      </trkpt>
      <trkpt lat="48.50129" lon="2.02079">
        <ele>160.8</ele>
        <time>2023-12-14T08:52:12Z</time>
      </trkpt>
      <trkpt lat="48.50126" lon="2.02074">
        <ele>160.8</ele>
        <time>2023-12-14T08:52:13Z</time>
      </trkpt>
      <trkpt lat="48.50123" lon="2.02068">
        <ele>160.8</ele>
        <time>2023-12-14T08:52:14Z</time>
      </trkpt>
      <trkpt lat="48.5012" lon="2.02063">
        <ele>160.8</ele>
        <time>2023-12-14T08:52:15Z</time>
      </trkpt>
      <trkpt lat="48.50116" lon="2.02057">
        <ele>160.8</ele>
        <time>2023-12-14T08:52:16Z</time>
      </trkpt>
      <trkpt lat="48.50113" lon="2.02051">
        <ele>160.8</ele>
        <time>2023-12-14T08:52:17Z</time>
      </trkpt>
      <trkpt lat="48.5011" lon="2.02045">
        <ele>160.8</ele>
        <time>2023-12-14T08:52:18Z</time>
      </trkpt>
      <trkpt lat="48.50106" lon="2.02039">
        <ele>160.8</ele>
        <time>2023-12-14T08:52:19Z</time>
      </trkpt>
      <trkpt lat="48.50103" lon="2.02033">
        <ele>160.4</ele>
        <time>2023-12-14T08:52:20Z</time>
      </trkpt>
      <trkpt lat="48.501" lon="2.02027">
        <ele>160.4</ele>
        <time>2023-12-14T08:52:21Z</time>
      </trkpt>
      <trkpt lat="48.50097" lon="2.02021">
        <ele>160.4</ele>
        <time>2023-12-14T08:52:22Z</time>
      </trkpt>
      <trkpt lat="48.50094" lon="2.02015">
        <ele>160.8</ele>
        <time>2023-12-14T08:52:23Z</time>
      </trkpt>
      <trkpt lat="48.5009" lon="2.02009">
        <ele>161.2</ele>
        <time>2023-12-14T08:52:24Z</time>
      </trkpt>
      <trkpt lat="48.50087" lon="2.02002">
        <ele>161.2</ele>
        <time>2023-12-14T08:52:25Z</time>
      </trkpt>
      <trkpt lat="48.50084" lon="2.01996">
        <ele>161.2</ele>
        <time>2023-12-14T08:52:26Z</time>
      </trkpt>
      <trkpt lat="48.5008" lon="2.01989">
        <ele>160.2</ele>
        <time>2023-12-14T08:52:27Z</time>
      </trkpt>
      <trkpt lat="48.50077" lon="2.01983">
        <ele>160.8</ele>
        <time>2023-12-14T08:52:28Z</time>
      </trkpt>
      <trkpt lat="48.50073" lon="2.01976">
        <ele>160.8</ele>
        <time>2023-12-14T08:52:29Z</time>
      </trkpt>
      <trkpt lat="48.50069" lon="2.0197">
        <ele>160.8</ele>
        <time>2023-12-14T08:52:30Z</time>
      </trkpt>
      <trkpt lat="48.50065" lon="2.01964">
        <ele>160</ele>
        <time>2023-12-14T08:52:31Z</time>
      </trkpt>
      <trkpt lat="48.50061" lon="2.01958">
        <ele>160.2</ele>
        <time>2023-12-14T08:52:32Z</time>
      </trkpt>
      <trkpt lat="48.50056" lon="2.01952">
        <ele>160.2</ele>
        <time>2023-12-14T08:52:33Z</time>
      </trkpt>
      <trkpt lat="48.50052" lon="2.01946">
        <ele>160.2</ele>
        <time>2023-12-14T08:52:34Z</time>
      </trkpt>
      <trkpt lat="48.50047" lon="2.01941">
        <ele>160.2</ele>
        <time>2023-12-14T08:52:35Z</time>
      </trkpt>
      <trkpt lat="48.50041" lon="2.01937">
        <ele>160.4</ele>
        <time>2023-12-14T08:52:36Z</time>
      </trkpt>
      <trkpt lat="48.50036" lon="2.01932">
        <ele>160.4</ele>
        <time>2023-12-14T08:52:37Z</time>
      </trkpt>
      <trkpt lat="48.50031" lon="2.01927">
        <ele>160.4</ele>
        <time>2023-12-14T08:52:38Z</time>
      </trkpt>
      <trkpt lat="48.50025" lon="2.01922">
        <ele>159.6</ele>
        <time>2023-12-14T08:52:39Z</time>
      </trkpt>
      <trkpt lat="48.5002" lon="2.01917">
        <ele>159.2</ele>
        <time>2023-12-14T08:52:40Z</time>
      </trkpt>
      <trkpt lat="48.50014" lon="2.01913">
        <ele>159.2</ele>
        <time>2023-12-14T08:52:41Z</time>
      </trkpt>
      <trkpt lat="48.50009" lon="2.01908">
        <ele>159.2</ele>
        <time>2023-12-14T08:52:42Z</time>
      </trkpt>
      <trkpt lat="48.50003" lon="2.01903">
        <ele>159.2</ele>
        <time>2023-12-14T08:52:43Z</time>
      </trkpt>
      <trkpt lat="48.49998" lon="2.01898">
        <ele>159.4</ele>
        <time>2023-12-14T08:52:44Z</time>
      </trkpt>
      <trkpt lat="48.49993" lon="2.01894">
        <ele>159.4</ele>
        <time>2023-12-14T08:52:45Z</time>
      </trkpt>
      <trkpt lat="48.49987" lon="2.01889">
        <ele>159.4</ele>
        <time>2023-12-14T08:52:46Z</time>
      </trkpt>
      <trkpt lat="48.49982" lon="2.01885">
        <ele>159.4</ele>
        <time>2023-12-14T08:52:47Z</time>
      </trkpt>
      <trkpt lat="48.49977" lon="2.0188">
        <ele>159.8</ele>
        <time>2023-12-14T08:52:48Z</time>
      </trkpt>
      <trkpt lat="48.49971" lon="2.01876">
        <ele>159.8</ele>
        <time>2023-12-14T08:52:49Z</time>
      </trkpt>
      <trkpt lat="48.49966" lon="2.01871">
        <ele>159.8</ele>
        <time>2023-12-14T08:52:50Z</time>
      </trkpt>
      <trkpt lat="48.49961" lon="2.01867">
        <ele>159.8</ele>
        <time>2023-12-14T08:52:51Z</time>
      </trkpt>
      <trkpt lat="48.49955" lon="2.01862">
        <ele>159.4</ele>
        <time>2023-12-14T08:52:52Z</time>
      </trkpt>
      <trkpt lat="48.4995" lon="2.01857">
        <ele>159.4</ele>
        <time>2023-12-14T08:52:53Z</time>
      </trkpt>
      <trkpt lat="48.49944" lon="2.01852">
        <ele>159.4</ele>
        <time>2023-12-14T08:52:54Z</time>
      </trkpt>
      <trkpt lat="48.49938" lon="2.01848">
        <ele>158.8</ele>
        <time>2023-12-14T08:52:55Z</time>
      </trkpt>
      <trkpt lat="48.49933" lon="2.01843">
        <ele>159.8</ele>
        <time>2023-12-14T08:52:56Z</time>
      </trkpt>
      <trkpt lat="48.49927" lon="2.01839">
        <ele>159.8</ele>
        <time>2023-12-14T08:52:57Z</time>
      </trkpt>
      <trkpt lat="48.49921" lon="2.01836">
        <ele>159.8</ele>
        <time>2023-12-14T08:52:58Z</time>
      </trkpt>
      <trkpt lat="48.49915" lon="2.01833">
        <ele>158.8</ele>
        <time>2023-12-14T08:52:59Z</time>
      </trkpt>
      <trkpt lat="48.49909" lon="2.0183">
        <ele>159.2</ele>
        <time>2023-12-14T08:53:00Z</time>
      </trkpt>
      <trkpt lat="48.49903" lon="2.01826">
        <ele>159.2</ele>
        <time>2023-12-14T08:53:01Z</time>
      </trkpt>
      <trkpt lat="48.49897" lon="2.01824">
        <ele>159.2</ele>
        <time>2023-12-14T08:53:02Z</time>
      </trkpt>
      <trkpt lat="48.49891" lon="2.01821">
        <ele>159.2</ele>
        <time>2023-12-14T08:53:03Z</time>
      </trkpt>
      <trkpt lat="48.49885" lon="2.01819">
        <ele>160</ele>
        <time>2023-12-14T08:53:04Z</time>
      </trkpt>
      <trkpt lat="48.49879" lon="2.01816">
        <ele>160</ele>
        <time>2023-12-14T08:53:05Z</time>
      </trkpt>
      <trkpt lat="48.49874" lon="2.01814">
        <ele>160</ele>
        <time>2023-12-14T08:53:06Z</time>
      </trkpt>
      <trkpt lat="48.49868" lon="2.01812">
        <ele>160</ele>
        <time>2023-12-14T08:53:07Z</time>
      </trkpt>
      <trkpt lat="48.49863" lon="2.0181">
        <ele>159.6</ele>
        <time>2023-12-14T08:53:08Z</time>
      </trkpt>
      <trkpt lat="48.49857" lon="2.01807">
        <ele>159.6</ele>
        <time>2023-12-14T08:53:09Z</time>
      </trkpt>
      <trkpt lat="48.49852" lon="2.01805">
        <ele>159.6</ele>
        <time>2023-12-14T08:53:10Z</time>
      </trkpt>
      <trkpt lat="48.49846" lon="2.01803">
        <ele>159.6</ele>
        <time>2023-12-14T08:53:11Z</time>
      </trkpt>
      <trkpt lat="48.49841" lon="2.018">
        <ele>160.2</ele>
        <time>2023-12-14T08:53:12Z</time>
      </trkpt>
      <trkpt lat="48.49835" lon="2.01797">
        <ele>160.2</ele>
        <time>2023-12-14T08:53:13Z</time>
      </trkpt>
      <trkpt lat="48.4983" lon="2.01794">
        <ele>160.2</ele>
        <time>2023-12-14T08:53:14Z</time>
      </trkpt>
      <trkpt lat="48.49824" lon="2.0179">
        <ele>159.4</ele>
        <time>2023-12-14T08:53:15Z</time>
      </trkpt>
      <trkpt lat="48.49819" lon="2.01786">
        <ele>159.6</ele>
        <time>2023-12-14T08:53:16Z</time>
      </trkpt>
      <trkpt lat="48.49814" lon="2.01782">
        <ele>159.6</ele>
        <time>2023-12-14T08:53:17Z</time>
      </trkpt>
      <trkpt lat="48.49808" lon="2.0178">
        <ele>159.6</ele>
        <time>2023-12-14T08:53:18Z</time>
      </trkpt>
      <trkpt lat="48.49803" lon="2.01778">
        <ele>159.6</ele>
        <time>2023-12-14T08:53:19Z</time>
      </trkpt>
      <trkpt lat="48.49797" lon="2.01777">
        <ele>159.6</ele>
        <time>2023-12-14T08:53:20Z</time>
      </trkpt>
      <trkpt lat="48.49791" lon="2.01774">
        <ele>159.6</ele>
        <time>2023-12-14T08:53:21Z</time>
      </trkpt>
      <trkpt lat="48.49785" lon="2.01772">
        <ele>159.6</ele>
        <time>2023-12-14T08:53:22Z</time>
      </trkpt>
      <trkpt lat="48.49779" lon="2.01769">
        <ele>159.6</ele>
        <time>2023-12-14T08:53:23Z</time>
      </trkpt>
      <trkpt lat="48.49774" lon="2.01767">
        <ele>160</ele>
        <time>2023-12-14T08:53:24Z</time>
      </trkpt>
      <trkpt lat="48.49768" lon="2.01764">
        <ele>160</ele>
        <time>2023-12-14T08:53:25Z</time>
      </trkpt>
      <trkpt lat="48.49762" lon="2.01761">
        <ele>160</ele>
        <time>2023-12-14T08:53:26Z</time>
      </trkpt>
      <trkpt lat="48.49756" lon="2.01758">
        <ele>159.2</ele>
        <time>2023-12-14T08:53:27Z</time>
      </trkpt>
      <trkpt lat="48.4975" lon="2.01755">
        <ele>159.6</ele>
        <time>2023-12-14T08:53:28Z</time>
      </trkpt>
      <trkpt lat="48.49744" lon="2.01752">
        <ele>159.6</ele>
        <time>2023-12-14T08:53:29Z</time>
      </trkpt>
      <trkpt lat="48.49738" lon="2.01749">
        <ele>159.6</ele>
        <time>2023-12-14T08:53:30Z</time>
      </trkpt>
      <trkpt lat="48.49732" lon="2.01746">
        <ele>159.6</ele>
        <time>2023-12-14T08:53:31Z</time>
      </trkpt>
      <trkpt lat="48.49726" lon="2.01743">
        <ele>159.4</ele>
        <time>2023-12-14T08:53:32Z</time>
      </trkpt>
      <trkpt lat="48.4972" lon="2.0174">
        <ele>159.4</ele>
        <time>2023-12-14T08:53:33Z</time>
      </trkpt>
      <trkpt lat="48.49714" lon="2.01737">
        <ele>159.4</ele>
        <time>2023-12-14T08:53:34Z</time>
      </trkpt>
      <trkpt lat="48.49708" lon="2.01735">
        <ele>159.6</ele>
        <time>2023-12-14T08:53:35Z</time>
      </trkpt>
      <trkpt lat="48.49701" lon="2.01732">
        <ele>159.8</ele>
        <time>2023-12-14T08:53:36Z</time>
      </trkpt>
      <trkpt lat="48.49695" lon="2.01729">
        <ele>159.8</ele>
        <time>2023-12-14T08:53:37Z</time>
      </trkpt>
      <trkpt lat="48.49689" lon="2.01727">
        <ele>159.8</ele>
        <time>2023-12-14T08:53:38Z</time>
      </trkpt>
      <trkpt lat="48.49683" lon="2.01724">
        <ele>159.8</ele>
        <time>2023-12-14T08:53:39Z</time>
      </trkpt>
      <trkpt lat="48.49676" lon="2.01722">
        <ele>160</ele>
        <time>2023-12-14T08:53:40Z</time>
      </trkpt>
      <trkpt lat="48.4967" lon="2.01719">
        <ele>160</ele>
        <time>2023-12-14T08:53:41Z</time>
      </trkpt>
      <trkpt lat="48.49664" lon="2.01716">
        <ele>160</ele>
        <time>2023-12-14T08:53:42Z</time>
      </trkpt>
      <trkpt lat="48.49658" lon="2.01713">
        <ele>160</ele>
        <time>2023-12-14T08:53:43Z</time>
      </trkpt>
      <trkpt lat="48.49651" lon="2.0171">
        <ele>158.8</ele>
        <time>2023-12-14T08:53:44Z</time>
      </trkpt>
      <trkpt lat="48.49645" lon="2.01706">
        <ele>158.8</ele>
        <time>2023-12-14T08:53:45Z</time>
      </trkpt>
      <trkpt lat="48.49639" lon="2.01702">
        <ele>158.8</ele>
        <time>2023-12-14T08:53:46Z</time>
      </trkpt>
      <trkpt lat="48.49633" lon="2.01697">
        <ele>158.8</ele>
        <time>2023-12-14T08:53:47Z</time>
      </trkpt>
      <trkpt lat="48.49628" lon="2.01692">
        <ele>158.2</ele>
        <time>2023-12-14T08:53:48Z</time>
      </trkpt>
      <trkpt lat="48.49622" lon="2.01686">
        <ele>158.2</ele>
        <time>2023-12-14T08:53:49Z</time>
      </trkpt>
      <trkpt lat="48.49617" lon="2.01681">
        <ele>158.2</ele>
        <time>2023-12-14T08:53:50Z</time>
      </trkpt>
      <trkpt lat="48.49612" lon="2.01675">
        <ele>158</ele>
        <time>2023-12-14T08:53:51Z</time>
      </trkpt>
      <trkpt lat="48.49606" lon="2.01669">
        <ele>158.2</ele>
        <time>2023-12-14T08:53:52Z</time>
      </trkpt>
      <trkpt lat="48.49601" lon="2.01663">
        <ele>158.2</ele>
        <time>2023-12-14T08:53:53Z</time>
      </trkpt>
      <trkpt lat="48.49595" lon="2.01656">
        <ele>158.2</ele>
        <time>2023-12-14T08:53:54Z</time>
      </trkpt>
      <trkpt lat="48.4959" lon="2.01651">
        <ele>158.2</ele>
        <time>2023-12-14T08:53:55Z</time>
      </trkpt>
      <trkpt lat="48.49584" lon="2.01645">
        <ele>158.2</ele>
        <time>2023-12-14T08:53:56Z</time>
      </trkpt>
      <trkpt lat="48.49578" lon="2.01639">
        <ele>158.2</ele>
        <time>2023-12-14T08:53:57Z</time>
      </trkpt>
      <trkpt lat="48.49573" lon="2.01634">
        <ele>158.2</ele>
        <time>2023-12-14T08:53:58Z</time>
      </trkpt>
      <trkpt lat="48.49567" lon="2.01628">
        <ele>157.8</ele>
        <time>2023-12-14T08:53:59Z</time>
      </trkpt>
      <trkpt lat="48.49561" lon="2.01623">
        <ele>157.2</ele>
        <time>2023-12-14T08:54:00Z</time>
      </trkpt>
      <trkpt lat="48.49555" lon="2.01617">
        <ele>157.2</ele>
        <time>2023-12-14T08:54:01Z</time>
      </trkpt>
      <trkpt lat="48.49549" lon="2.01612">
        <ele>157.2</ele>
        <time>2023-12-14T08:54:02Z</time>
      </trkpt>
      <trkpt lat="48.49544" lon="2.01606">
        <ele>157.2</ele>
        <time>2023-12-14T08:54:03Z</time>
      </trkpt>
      <trkpt lat="48.49538" lon="2.01601">
        <ele>158.4</ele>
        <time>2023-12-14T08:54:04Z</time>
      </trkpt>
      <trkpt lat="48.49532" lon="2.01595">
        <ele>158.4</ele>
        <time>2023-12-14T08:54:05Z</time>
      </trkpt>
      <trkpt lat="48.49527" lon="2.0159">
        <ele>158.4</ele>
        <time>2023-12-14T08:54:06Z</time>
      </trkpt>
      <trkpt lat="48.49521" lon="2.01584">
        <ele>158.4</ele>
        <time>2023-12-14T08:54:07Z</time>
      </trkpt>
      <trkpt lat="48.49516" lon="2.01578">
        <ele>158.6</ele>
        <time>2023-12-14T08:54:08Z</time>
      </trkpt>
      <trkpt lat="48.4951" lon="2.01572">
        <ele>158.6</ele>
        <time>2023-12-14T08:54:09Z</time>
      </trkpt>
      <trkpt lat="48.49504" lon="2.01567">
        <ele>158.6</ele>
        <time>2023-12-14T08:54:10Z</time>
      </trkpt>
      <trkpt lat="48.49499" lon="2.01561">
        <ele>158</ele>
        <time>2023-12-14T08:54:11Z</time>
      </trkpt>
      <trkpt lat="48.49494" lon="2.01555">
        <ele>158.4</ele>
        <time>2023-12-14T08:54:12Z</time>
      </trkpt>
      <trkpt lat="48.49489" lon="2.01548">
        <ele>158.4</ele>
        <time>2023-12-14T08:54:13Z</time>
      </trkpt>
      <trkpt lat="48.49484" lon="2.01542">
        <ele>158.4</ele>
        <time>2023-12-14T08:54:14Z</time>
      </trkpt>
      <trkpt lat="48.49479" lon="2.01535">
        <ele>158.4</ele>
        <time>2023-12-14T08:54:15Z</time>
      </trkpt>
      <trkpt lat="48.49474" lon="2.01528">
        <ele>159</ele>
        <time>2023-12-14T08:54:16Z</time>
      </trkpt>
      <trkpt lat="48.49469" lon="2.01521">
        <ele>159</ele>
        <time>2023-12-14T08:54:17Z</time>
      </trkpt>
      <trkpt lat="48.49464" lon="2.01514">
        <ele>159</ele>
        <time>2023-12-14T08:54:18Z</time>
      </trkpt>
      <trkpt lat="48.4946" lon="2.01507">
        <ele>158.2</ele>
        <time>2023-12-14T08:54:19Z</time>
      </trkpt>
      <trkpt lat="48.49455" lon="2.015">
        <ele>158.8</ele>
        <time>2023-12-14T08:54:20Z</time>
      </trkpt>
      <trkpt lat="48.49451" lon="2.01493">
        <ele>158.8</ele>
        <time>2023-12-14T08:54:21Z</time>
      </trkpt>
      <trkpt lat="48.49446" lon="2.01486">
        <ele>158.8</ele>
        <time>2023-12-14T08:54:22Z</time>
      </trkpt>
      <trkpt lat="48.49442" lon="2.01479">
        <ele>158.8</ele>
        <time>2023-12-14T08:54:23Z</time>
      </trkpt>
      <trkpt lat="48.49437" lon="2.01471">
        <ele>159</ele>
        <time>2023-12-14T08:54:24Z</time>
      </trkpt>
      <trkpt lat="48.49433" lon="2.01464">
        <ele>159</ele>
        <time>2023-12-14T08:54:25Z</time>
      </trkpt>
      <trkpt lat="48.49428" lon="2.01457">
        <ele>159</ele>
        <time>2023-12-14T08:54:26Z</time>
      </trkpt>
      <trkpt lat="48.49424" lon="2.01449">
        <ele>159</ele>
        <time>2023-12-14T08:54:27Z</time>
      </trkpt>
      <trkpt lat="48.4942" lon="2.01442">
        <ele>158.8</ele>
        <time>2023-12-14T08:54:28Z</time>
      </trkpt>
      <trkpt lat="48.49416" lon="2.01435">
        <ele>158.8</ele>
        <time>2023-12-14T08:54:29Z</time>
      </trkpt>
      <trkpt lat="48.49411" lon="2.01428">
        <ele>158.8</ele>
        <time>2023-12-14T08:54:30Z</time>
      </trkpt>
      <trkpt lat="48.49407" lon="2.01421">
        <ele>159.6</ele>
        <time>2023-12-14T08:54:31Z</time>
      </trkpt>
      <trkpt lat="48.49403" lon="2.01415">
        <ele>159.4</ele>
        <time>2023-12-14T08:54:32Z</time>
      </trkpt>
      <trkpt lat="48.49399" lon="2.01408">
        <ele>159.4</ele>
        <time>2023-12-14T08:54:33Z</time>
      </trkpt>
      <trkpt lat="48.49394" lon="2.01401">
        <ele>159.4</ele>
        <time>2023-12-14T08:54:34Z</time>
      </trkpt>
      <trkpt lat="48.4939" lon="2.01394">
        <ele>160</ele>
        <time>2023-12-14T08:54:35Z</time>
      </trkpt>
      <trkpt lat="48.49386" lon="2.01387">
        <ele>159.8</ele>
        <time>2023-12-14T08:54:36Z</time>
      </trkpt>
      <trkpt lat="48.49381" lon="2.01381">
        <ele>159.8</ele>
        <time>2023-12-14T08:54:37Z</time>
      </trkpt>
      <trkpt lat="48.49377" lon="2.01375">
        <ele>159.8</ele>
        <time>2023-12-14T08:54:38Z</time>
      </trkpt>
      <trkpt lat="48.49372" lon="2.01368">
        <ele>159.8</ele>
        <time>2023-12-14T08:54:39Z</time>
      </trkpt>
      <trkpt lat="48.49367" lon="2.01362">
        <ele>159.8</ele>
        <time>2023-12-14T08:54:40Z</time>
      </trkpt>
      <trkpt lat="48.49362" lon="2.01356">
        <ele>159.8</ele>
        <time>2023-12-14T08:54:41Z</time>
      </trkpt>
      <trkpt lat="48.49357" lon="2.0135">
        <ele>159.8</ele>
        <time>2023-12-14T08:54:42Z</time>
      </trkpt>
      <trkpt lat="48.49352" lon="2.01345">
        <ele>159.8</ele>
        <time>2023-12-14T08:54:43Z</time>
      </trkpt>
      <trkpt lat="48.49347" lon="2.01339">
        <ele>160</ele>
        <time>2023-12-14T08:54:44Z</time>
      </trkpt>
      <trkpt lat="48.49342" lon="2.01334">
        <ele>160</ele>
        <time>2023-12-14T08:54:45Z</time>
      </trkpt>
      <trkpt lat="48.49337" lon="2.01329">
        <ele>160</ele>
        <time>2023-12-14T08:54:46Z</time>
      </trkpt>
      <trkpt lat="48.49331" lon="2.01324">
        <ele>160.4</ele>
        <time>2023-12-14T08:54:47Z</time>
      </trkpt>
      <trkpt lat="48.49326" lon="2.0132">
        <ele>160</ele>
        <time>2023-12-14T08:54:48Z</time>
      </trkpt>
      <trkpt lat="48.4932" lon="2.01315">
        <ele>160</ele>
        <time>2023-12-14T08:54:49Z</time>
      </trkpt>
      <trkpt lat="48.49315" lon="2.01311">
        <ele>160</ele>
        <time>2023-12-14T08:54:50Z</time>
      </trkpt>
      <trkpt lat="48.49309" lon="2.01306">
        <ele>160.4</ele>
        <time>2023-12-14T08:54:51Z</time>
      </trkpt>
      <trkpt lat="48.49304" lon="2.01302">
        <ele>159</ele>
        <time>2023-12-14T08:54:52Z</time>
      </trkpt>
      <trkpt lat="48.49298" lon="2.01298">
        <ele>159</ele>
        <time>2023-12-14T08:54:53Z</time>
      </trkpt>
      <trkpt lat="48.49292" lon="2.01294">
        <ele>159</ele>
        <time>2023-12-14T08:54:54Z</time>
      </trkpt>
      <trkpt lat="48.49287" lon="2.0129">
        <ele>160</ele>
        <time>2023-12-14T08:54:55Z</time>
      </trkpt>
      <trkpt lat="48.49281" lon="2.01286">
        <ele>160.6</ele>
        <time>2023-12-14T08:54:56Z</time>
      </trkpt>
      <trkpt lat="48.49276" lon="2.01282">
        <ele>160.6</ele>
        <time>2023-12-14T08:54:57Z</time>
      </trkpt>
      <trkpt lat="48.4927" lon="2.01279">
        <ele>160.6</ele>
        <time>2023-12-14T08:54:58Z</time>
      </trkpt>
      <trkpt lat="48.49265" lon="2.01275">
        <ele>160.6</ele>
        <time>2023-12-14T08:54:59Z</time>
      </trkpt>
      <trkpt lat="48.49259" lon="2.01271">
        <ele>160.8</ele>
        <time>2023-12-14T08:55:00Z</time>
      </trkpt>
      <trkpt lat="48.49254" lon="2.01267">
        <ele>160.8</ele>
        <time>2023-12-14T08:55:01Z</time>
      </trkpt>
      <trkpt lat="48.49248" lon="2.01263">
        <ele>160.8</ele>
        <time>2023-12-14T08:55:02Z</time>
      </trkpt>
      <trkpt lat="48.49243" lon="2.01259">
        <ele>160.8</ele>
        <time>2023-12-14T08:55:03Z</time>
      </trkpt>
      <trkpt lat="48.49237" lon="2.01255">
        <ele>160.8</ele>
        <time>2023-12-14T08:55:04Z</time>
      </trkpt>
      <trkpt lat="48.49232" lon="2.01251">
        <ele>160.8</ele>
        <time>2023-12-14T08:55:05Z</time>
      </trkpt>
      <trkpt lat="48.49226" lon="2.01247">
        <ele>160.8</ele>
        <time>2023-12-14T08:55:06Z</time>
      </trkpt>
      <trkpt lat="48.49221" lon="2.01243">
        <ele>160.8</ele>
        <time>2023-12-14T08:55:07Z</time>
      </trkpt>
      <trkpt lat="48.49215" lon="2.01239">
        <ele>161.4</ele>
        <time>2023-12-14T08:55:08Z</time>
      </trkpt>
      <trkpt lat="48.4921" lon="2.01235">
        <ele>161.4</ele>
        <time>2023-12-14T08:55:09Z</time>
      </trkpt>
      <trkpt lat="48.49204" lon="2.01231">
        <ele>161.4</ele>
        <time>2023-12-14T08:55:10Z</time>
      </trkpt>
      <trkpt lat="48.49199" lon="2.01228">
        <ele>161.4</ele>
        <time>2023-12-14T08:55:11Z</time>
      </trkpt>
      <trkpt lat="48.49193" lon="2.01224">
        <ele>161.4</ele>
        <time>2023-12-14T08:55:12Z</time>
      </trkpt>
      <trkpt lat="48.49188" lon="2.0122">
        <ele>161.4</ele>
        <time>2023-12-14T08:55:13Z</time>
      </trkpt>
      <trkpt lat="48.49182" lon="2.01216">
        <ele>161.4</ele>
        <time>2023-12-14T08:55:14Z</time>
      </trkpt>
      <trkpt lat="48.49177" lon="2.01213">
        <ele>161.2</ele>
        <time>2023-12-14T08:55:15Z</time>
      </trkpt>
      <trkpt lat="48.49171" lon="2.01209">
        <ele>161.2</ele>
        <time>2023-12-14T08:55:16Z</time>
      </trkpt>
      <trkpt lat="48.49166" lon="2.01206">
        <ele>161.2</ele>
        <time>2023-12-14T08:55:17Z</time>
      </trkpt>
      <trkpt lat="48.4916" lon="2.01203">
        <ele>161.2</ele>
        <time>2023-12-14T08:55:18Z</time>
      </trkpt>
      <trkpt lat="48.49154" lon="2.01199">
        <ele>161.8</ele>
        <time>2023-12-14T08:55:19Z</time>
      </trkpt>
      <trkpt lat="48.49149" lon="2.01196">
        <ele>161.4</ele>
        <time>2023-12-14T08:55:20Z</time>
      </trkpt>
      <trkpt lat="48.49143" lon="2.01193">
        <ele>161.4</ele>
        <time>2023-12-14T08:55:21Z</time>
      </trkpt>
      <trkpt lat="48.49137" lon="2.0119">
        <ele>161.4</ele>
        <time>2023-12-14T08:55:22Z</time>
      </trkpt>
      <trkpt lat="48.49131" lon="2.01187">
        <ele>162</ele>
        <time>2023-12-14T08:55:23Z</time>
      </trkpt>
      <trkpt lat="48.49126" lon="2.01184">
        <ele>162.4</ele>
        <time>2023-12-14T08:55:24Z</time>
      </trkpt>
      <trkpt lat="48.4912" lon="2.01182">
        <ele>162.4</ele>
        <time>2023-12-14T08:55:25Z</time>
      </trkpt>
      <trkpt lat="48.49114" lon="2.01179">
        <ele>162.4</ele>
        <time>2023-12-14T08:55:26Z</time>
      </trkpt>
      <trkpt lat="48.49108" lon="2.01176">
        <ele>162.2</ele>
        <time>2023-12-14T08:55:27Z</time>
      </trkpt>
      <trkpt lat="48.49102" lon="2.01173">
        <ele>162.4</ele>
        <time>2023-12-14T08:55:28Z</time>
      </trkpt>
      <trkpt lat="48.49096" lon="2.0117">
        <ele>162.4</ele>
        <time>2023-12-14T08:55:29Z</time>
      </trkpt>
      <trkpt lat="48.49091" lon="2.01167">
        <ele>162.4</ele>
        <time>2023-12-14T08:55:30Z</time>
      </trkpt>
      <trkpt lat="48.49085" lon="2.01164">
        <ele>161.4</ele>
        <time>2023-12-14T08:55:31Z</time>
      </trkpt>
      <trkpt lat="48.49079" lon="2.01161">
        <ele>161.8</ele>
        <time>2023-12-14T08:55:32Z</time>
      </trkpt>
      <trkpt lat="48.49073" lon="2.01158">
        <ele>161.8</ele>
        <time>2023-12-14T08:55:33Z</time>
      </trkpt>
      <trkpt lat="48.49067" lon="2.01155">
        <ele>161.8</ele>
        <time>2023-12-14T08:55:34Z</time>
      </trkpt>
      <trkpt lat="48.49062" lon="2.01151">
        <ele>161.8</ele>
        <time>2023-12-14T08:55:35Z</time>
      </trkpt>
      <trkpt lat="48.49056" lon="2.01147">
        <ele>162.2</ele>
        <time>2023-12-14T08:55:36Z</time>
      </trkpt>
      <trkpt lat="48.4905" lon="2.01143">
        <ele>162.2</ele>
        <time>2023-12-14T08:55:37Z</time>
      </trkpt>
      <trkpt lat="48.49045" lon="2.01139">
        <ele>162.2</ele>
        <time>2023-12-14T08:55:38Z</time>
      </trkpt>
      <trkpt lat="48.4904" lon="2.01134">
        <ele>161.8</ele>
        <time>2023-12-14T08:55:39Z</time>
      </trkpt>
      <trkpt lat="48.49034" lon="2.0113">
        <ele>161.8</ele>
        <time>2023-12-14T08:55:40Z</time>
      </trkpt>
      <trkpt lat="48.49028" lon="2.01125">
        <ele>161.8</ele>
        <time>2023-12-14T08:55:41Z</time>
      </trkpt>
      <trkpt lat="48.49023" lon="2.0112">
        <ele>161.8</ele>
        <time>2023-12-14T08:55:42Z</time>
      </trkpt>
      <trkpt lat="48.49018" lon="2.01115">
        <ele>161.8</ele>
        <time>2023-12-14T08:55:43Z</time>
      </trkpt>
      <trkpt lat="48.49012" lon="2.01111">
        <ele>161.6</ele>
        <time>2023-12-14T08:55:44Z</time>
      </trkpt>
      <trkpt lat="48.49007" lon="2.01105">
        <ele>161.6</ele>
        <time>2023-12-14T08:55:45Z</time>
      </trkpt>
      <trkpt lat="48.49001" lon="2.011">
        <ele>161.6</ele>
        <time>2023-12-14T08:55:46Z</time>
      </trkpt>
      <trkpt lat="48.48996" lon="2.01095">
        <ele>161.6</ele>
        <time>2023-12-14T08:55:47Z</time>
      </trkpt>
      <trkpt lat="48.4899" lon="2.0109">
        <ele>161.4</ele>
        <time>2023-12-14T08:55:48Z</time>
      </trkpt>
      <trkpt lat="48.48985" lon="2.01085">
        <ele>161.4</ele>
        <time>2023-12-14T08:55:49Z</time>
      </trkpt>
      <trkpt lat="48.48979" lon="2.0108">
        <ele>161.4</ele>
        <time>2023-12-14T08:55:50Z</time>
      </trkpt>
      <trkpt lat="48.48974" lon="2.01075">
        <ele>161.4</ele>
        <time>2023-12-14T08:55:51Z</time>
      </trkpt>
      <trkpt lat="48.48968" lon="2.0107">
        <ele>161.6</ele>
        <time>2023-12-14T08:55:52Z</time>
      </trkpt>
      <trkpt lat="48.48963" lon="2.01064">
        <ele>161.6</ele>
        <time>2023-12-14T08:55:53Z</time>
      </trkpt>
      <trkpt lat="48.48957" lon="2.01059">
        <ele>161.6</ele>
        <time>2023-12-14T08:55:54Z</time>
      </trkpt>
      <trkpt lat="48.48952" lon="2.01054">
        <ele>161.6</ele>
        <time>2023-12-14T08:55:55Z</time>
      </trkpt>
      <trkpt lat="48.48947" lon="2.01048">
        <ele>161.4</ele>
        <time>2023-12-14T08:55:56Z</time>
      </trkpt>
      <trkpt lat="48.48941" lon="2.01043">
        <ele>161.4</ele>
        <time>2023-12-14T08:55:57Z</time>
      </trkpt>
      <trkpt lat="48.48936" lon="2.01037">
        <ele>161.4</ele>
        <time>2023-12-14T08:55:58Z</time>
      </trkpt>
      <trkpt lat="48.4893" lon="2.01032">
        <ele>161.4</ele>
        <time>2023-12-14T08:55:59Z</time>
      </trkpt>
      <trkpt lat="48.48925" lon="2.01026">
        <ele>161.4</ele>
        <time>2023-12-14T08:56:00Z</time>
      </trkpt>
      <trkpt lat="48.4892" lon="2.0102">
        <ele>161.4</ele>
        <time>2023-12-14T08:56:01Z</time>
      </trkpt>
      <trkpt lat="48.48914" lon="2.01014">
        <ele>161.4</ele>
        <time>2023-12-14T08:56:02Z</time>
      </trkpt>
      <trkpt lat="48.48909" lon="2.01008">
        <ele>161.2</ele>
        <time>2023-12-14T08:56:03Z</time>
      </trkpt>
      <trkpt lat="48.48903" lon="2.01003">
        <ele>160.8</ele>
        <time>2023-12-14T08:56:04Z</time>
      </trkpt>
      <trkpt lat="48.48898" lon="2.00997">
        <ele>160.8</ele>
        <time>2023-12-14T08:56:05Z</time>
      </trkpt>
      <trkpt lat="48.48892" lon="2.00992">
        <ele>160.8</ele>
        <time>2023-12-14T08:56:06Z</time>
      </trkpt>
      <trkpt lat="48.48886" lon="2.00987">
        <ele>161</ele>
        <time>2023-12-14T08:56:07Z</time>
      </trkpt>
      <trkpt lat="48.4888" lon="2.00983">
        <ele>161.8</ele>
        <time>2023-12-14T08:56:08Z</time>
      </trkpt>
      <trkpt lat="48.48875" lon="2.00978">
        <ele>161.8</ele>
        <time>2023-12-14T08:56:09Z</time>
      </trkpt>
      <trkpt lat="48.48869" lon="2.00974">
        <ele>161.8</ele>
        <time>2023-12-14T08:56:10Z</time>
      </trkpt>
      <trkpt lat="48.48862" lon="2.0097">
        <ele>161.4</ele>
        <time>2023-12-14T08:56:11Z</time>
      </trkpt>
      <trkpt lat="48.48856" lon="2.00965">
        <ele>160.8</ele>
        <time>2023-12-14T08:56:12Z</time>
      </trkpt>
      <trkpt lat="48.4885" lon="2.00961">
        <ele>160.8</ele>
        <time>2023-12-14T08:56:13Z</time>
      </trkpt>
      <trkpt lat="48.48844" lon="2.00956">
        <ele>160.8</ele>
        <time>2023-12-14T08:56:14Z</time>
      </trkpt>
      <trkpt lat="48.48838" lon="2.00952">
        <ele>160.8</ele>
        <time>2023-12-14T08:56:15Z</time>
      </trkpt>
      <trkpt lat="48.48832" lon="2.00947">
        <ele>160.8</ele>
        <time>2023-12-14T08:56:16Z</time>
      </trkpt>
      <trkpt lat="48.48826" lon="2.00942">
        <ele>160.8</ele>
        <time>2023-12-14T08:56:17Z</time>
      </trkpt>
      <trkpt lat="48.48821" lon="2.00937">
        <ele>160.8</ele>
        <time>2023-12-14T08:56:18Z</time>
      </trkpt>
      <trkpt lat="48.48815" lon="2.00932">
        <ele>161</ele>
        <time>2023-12-14T08:56:19Z</time>
      </trkpt>
      <trkpt lat="48.48809" lon="2.00927">
        <ele>160.6</ele>
        <time>2023-12-14T08:56:20Z</time>
      </trkpt>
      <trkpt lat="48.48803" lon="2.00922">
        <ele>160.6</ele>
        <time>2023-12-14T08:56:21Z</time>
      </trkpt>
      <trkpt lat="48.48797" lon="2.00916">
        <ele>160.6</ele>
        <time>2023-12-14T08:56:22Z</time>
      </trkpt>
      <trkpt lat="48.48792" lon="2.00911">
        <ele>160.4</ele>
        <time>2023-12-14T08:56:23Z</time>
      </trkpt>
      <trkpt lat="48.48786" lon="2.00905">
        <ele>160.2</ele>
        <time>2023-12-14T08:56:24Z</time>
      </trkpt>
      <trkpt lat="48.48781" lon="2.00899">
        <ele>160.2</ele>
        <time>2023-12-14T08:56:25Z</time>
      </trkpt>
      <trkpt lat="48.48775" lon="2.00893">
        <ele>160.2</ele>
        <time>2023-12-14T08:56:26Z</time>
      </trkpt>
      <trkpt lat="48.4877" lon="2.00888">
        <ele>160.8</ele>
        <time>2023-12-14T08:56:27Z</time>
      </trkpt>
      <trkpt lat="48.48764" lon="2.00882">
        <ele>160.4</ele>
        <time>2023-12-14T08:56:28Z</time>
      </trkpt>
      <trkpt lat="48.48758" lon="2.00876">
        <ele>160.4</ele>
        <time>2023-12-14T08:56:29Z</time>
      </trkpt>
      <trkpt lat="48.48753" lon="2.00871">
        <ele>160.4</ele>
        <time>2023-12-14T08:56:30Z</time>
      </trkpt>
      <trkpt lat="48.48747" lon="2.00865">
        <ele>160.4</ele>
        <time>2023-12-14T08:56:31Z</time>
      </trkpt>
      <trkpt lat="48.48742" lon="2.00859">
        <ele>161.2</ele>
        <time>2023-12-14T08:56:32Z</time>
      </trkpt>
      <trkpt lat="48.48736" lon="2.00854">
        <ele>161.2</ele>
        <time>2023-12-14T08:56:33Z</time>
      </trkpt>
      <trkpt lat="48.48731" lon="2.00848">
        <ele>161.2</ele>
        <time>2023-12-14T08:56:34Z</time>
      </trkpt>
      <trkpt lat="48.48725" lon="2.00842">
        <ele>160.8</ele>
        <time>2023-12-14T08:56:35Z</time>
      </trkpt>
      <trkpt lat="48.4872" lon="2.00837">
        <ele>161.4</ele>
        <time>2023-12-14T08:56:36Z</time>
      </trkpt>
      <trkpt lat="48.48715" lon="2.00831">
        <ele>161.4</ele>
        <time>2023-12-14T08:56:37Z</time>
      </trkpt>
      <trkpt lat="48.48709" lon="2.00825">
        <ele>161.4</ele>
        <time>2023-12-14T08:56:38Z</time>
      </trkpt>
      <trkpt lat="48.48704" lon="2.00819">
        <ele>161.2</ele>
        <time>2023-12-14T08:56:39Z</time>
      </trkpt>
      <trkpt lat="48.48699" lon="2.00813">
        <ele>162</ele>
        <time>2023-12-14T08:56:40Z</time>
      </trkpt>
      <trkpt lat="48.48693" lon="2.00807">
        <ele>162</ele>
        <time>2023-12-14T08:56:41Z</time>
      </trkpt>
      <trkpt lat="48.48688" lon="2.00802">
        <ele>162</ele>
        <time>2023-12-14T08:56:42Z</time>
      </trkpt>
      <trkpt lat="48.48683" lon="2.00796">
        <ele>161.4</ele>
        <time>2023-12-14T08:56:43Z</time>
      </trkpt>
      <trkpt lat="48.48677" lon="2.0079">
        <ele>161.4</ele>
        <time>2023-12-14T08:56:44Z</time>
      </trkpt>
      <trkpt lat="48.48672" lon="2.00784">
        <ele>161.4</ele>
        <time>2023-12-14T08:56:45Z</time>
      </trkpt>
      <trkpt lat="48.48666" lon="2.00778">
        <ele>161.4</ele>
        <time>2023-12-14T08:56:46Z</time>
      </trkpt>
      <trkpt lat="48.48661" lon="2.00773">
        <ele>161.4</ele>
        <time>2023-12-14T08:56:47Z</time>
      </trkpt>
      <trkpt lat="48.48655" lon="2.00767">
        <ele>160.6</ele>
        <time>2023-12-14T08:56:48Z</time>
      </trkpt>
      <trkpt lat="48.4865" lon="2.00761">
        <ele>160.6</ele>
        <time>2023-12-14T08:56:49Z</time>
      </trkpt>
      <trkpt lat="48.48645" lon="2.00755">
        <ele>160.6</ele>
        <time>2023-12-14T08:56:50Z</time>
      </trkpt>
      <trkpt lat="48.48639" lon="2.00749">
        <ele>161.2</ele>
        <time>2023-12-14T08:56:51Z</time>
      </trkpt>
      <trkpt lat="48.48634" lon="2.00743">
        <ele>161.2</ele>
        <time>2023-12-14T08:56:52Z</time>
      </trkpt>
      <trkpt lat="48.48628" lon="2.00737">
        <ele>161.2</ele>
        <time>2023-12-14T08:56:53Z</time>
      </trkpt>
      <trkpt lat="48.48623" lon="2.00731">
        <ele>161.2</ele>
        <time>2023-12-14T08:56:54Z</time>
      </trkpt>
      <trkpt lat="48.48617" lon="2.00725">
        <ele>161.2</ele>
        <time>2023-12-14T08:56:55Z</time>
      </trkpt>
      <trkpt lat="48.48612" lon="2.00719">
        <ele>161</ele>
        <time>2023-12-14T08:56:56Z</time>
      </trkpt>
      <trkpt lat="48.48606" lon="2.00713">
        <ele>161</ele>
        <time>2023-12-14T08:56:57Z</time>
      </trkpt>
      <trkpt lat="48.48601" lon="2.00708">
        <ele>161</ele>
        <time>2023-12-14T08:56:58Z</time>
      </trkpt>
      <trkpt lat="48.48595" lon="2.00702">
        <ele>160.4</ele>
        <time>2023-12-14T08:56:59Z</time>
      </trkpt>
      <trkpt lat="48.4859" lon="2.00697">
        <ele>160.2</ele>
        <time>2023-12-14T08:57:00Z</time>
      </trkpt>
      <trkpt lat="48.48585" lon="2.00691">
        <ele>160.2</ele>
        <time>2023-12-14T08:57:01Z</time>
      </trkpt>
      <trkpt lat="48.48579" lon="2.00686">
        <ele>160.2</ele>
        <time>2023-12-14T08:57:02Z</time>
      </trkpt>
      <trkpt lat="48.48574" lon="2.00681">
        <ele>161.2</ele>
        <time>2023-12-14T08:57:03Z</time>
      </trkpt>
      <trkpt lat="48.48568" lon="2.00676">
        <ele>161</ele>
        <time>2023-12-14T08:57:04Z</time>
      </trkpt>
      <trkpt lat="48.48562" lon="2.00672">
        <ele>161</ele>
        <time>2023-12-14T08:57:05Z</time>
      </trkpt>
      <trkpt lat="48.48556" lon="2.00667">
        <ele>161</ele>
        <time>2023-12-14T08:57:06Z</time>
      </trkpt>
      <trkpt lat="48.48551" lon="2.00663">
        <ele>160.4</ele>
        <time>2023-12-14T08:57:07Z</time>
      </trkpt>
      <trkpt lat="48.48545" lon="2.00658">
        <ele>160.4</ele>
        <time>2023-12-14T08:57:08Z</time>
      </trkpt>
      <trkpt lat="48.48539" lon="2.00655">
        <ele>160.4</ele>
        <time>2023-12-14T08:57:09Z</time>
      </trkpt>
      <trkpt lat="48.48533" lon="2.00651">
        <ele>160.4</ele>
        <time>2023-12-14T08:57:10Z</time>
      </trkpt>
      <trkpt lat="48.48527" lon="2.00647">
        <ele>160.4</ele>
        <time>2023-12-14T08:57:11Z</time>
      </trkpt>
      <trkpt lat="48.4852" lon="2.00644">
        <ele>160.6</ele>
        <time>2023-12-14T08:57:12Z</time>
      </trkpt>
      <trkpt lat="48.48514" lon="2.00641">
        <ele>160.6</ele>
        <time>2023-12-14T08:57:13Z</time>
      </trkpt>
      <trkpt lat="48.48508" lon="2.00638">
        <ele>160.6</ele>
        <time>2023-12-14T08:57:14Z</time>
      </trkpt>
      <trkpt lat="48.48501" lon="2.00635">
        <ele>160.6</ele>
        <time>2023-12-14T08:57:15Z</time>
      </trkpt>
      <trkpt lat="48.48495" lon="2.00632">
        <ele>160.4</ele>
        <time>2023-12-14T08:57:16Z</time>
      </trkpt>
      <trkpt lat="48.48488" lon="2.00629">
        <ele>160.4</ele>
        <time>2023-12-14T08:57:17Z</time>
      </trkpt>
      <trkpt lat="48.48482" lon="2.00626">
        <ele>160.4</ele>
        <time>2023-12-14T08:57:18Z</time>
      </trkpt>
      <trkpt lat="48.48476" lon="2.00624">
        <ele>160.4</ele>
        <time>2023-12-14T08:57:19Z</time>
      </trkpt>
      <trkpt lat="48.48469" lon="2.00621">
        <ele>160.4</ele>
        <time>2023-12-14T08:57:20Z</time>
      </trkpt>
      <trkpt lat="48.48463" lon="2.00618">
        <ele>160.4</ele>
        <time>2023-12-14T08:57:21Z</time>
      </trkpt>
      <trkpt lat="48.48456" lon="2.00615">
        <ele>160.4</ele>
        <time>2023-12-14T08:57:22Z</time>
      </trkpt>
      <trkpt lat="48.4845" lon="2.00613">
        <ele>159.6</ele>
        <time>2023-12-14T08:57:23Z</time>
      </trkpt>
      <trkpt lat="48.48443" lon="2.0061">
        <ele>159.8</ele>
        <time>2023-12-14T08:57:24Z</time>
      </trkpt>
      <trkpt lat="48.48436" lon="2.00607">
        <ele>159.8</ele>
        <time>2023-12-14T08:57:25Z</time>
      </trkpt>
      <trkpt lat="48.4843" lon="2.00604">
        <ele>159.8</ele>
        <time>2023-12-14T08:57:26Z</time>
      </trkpt>
      <trkpt lat="48.48423" lon="2.00601">
        <ele>159.4</ele>
        <time>2023-12-14T08:57:27Z</time>
      </trkpt>
      <trkpt lat="48.48417" lon="2.00598">
        <ele>158.8</ele>
        <time>2023-12-14T08:57:28Z</time>
      </trkpt>
      <trkpt lat="48.4841" lon="2.00596">
        <ele>158.8</ele>
        <time>2023-12-14T08:57:29Z</time>
      </trkpt>
      <trkpt lat="48.48403" lon="2.00594">
        <ele>158.8</ele>
        <time>2023-12-14T08:57:30Z</time>
      </trkpt>
      <trkpt lat="48.48397" lon="2.00592">
        <ele>158.8</ele>
        <time>2023-12-14T08:57:31Z</time>
      </trkpt>
      <trkpt lat="48.4839" lon="2.0059">
        <ele>159.6</ele>
        <time>2023-12-14T08:57:32Z</time>
      </trkpt>
      <trkpt lat="48.48383" lon="2.00588">
        <ele>159.6</ele>
        <time>2023-12-14T08:57:33Z</time>
      </trkpt>
      <trkpt lat="48.48376" lon="2.00587">
        <ele>159.6</ele>
        <time>2023-12-14T08:57:34Z</time>
      </trkpt>
      <trkpt lat="48.48369" lon="2.00585">
        <ele>158.6</ele>
        <time>2023-12-14T08:57:35Z</time>
      </trkpt>
      <trkpt lat="48.48362" lon="2.00584">
        <ele>158.8</ele>
        <time>2023-12-14T08:57:36Z</time>
      </trkpt>
      <trkpt lat="48.48355" lon="2.00583">
        <ele>158.8</ele>
        <time>2023-12-14T08:57:37Z</time>
      </trkpt>
      <trkpt lat="48.48348" lon="2.00581">
        <ele>158.8</ele>
        <time>2023-12-14T08:57:38Z</time>
      </trkpt>
      <trkpt lat="48.48341" lon="2.0058">
        <ele>158.4</ele>
        <time>2023-12-14T08:57:39Z</time>
      </trkpt>
      <trkpt lat="48.48334" lon="2.00579">
        <ele>159</ele>
        <time>2023-12-14T08:57:40Z</time>
      </trkpt>
      <trkpt lat="48.48327" lon="2.00578">
        <ele>159</ele>
        <time>2023-12-14T08:57:41Z</time>
      </trkpt>
      <trkpt lat="48.4832" lon="2.00577">
        <ele>159</ele>
        <time>2023-12-14T08:57:42Z</time>
      </trkpt>
      <trkpt lat="48.48313" lon="2.00576">
        <ele>158.2</ele>
        <time>2023-12-14T08:57:43Z</time>
      </trkpt>
      <trkpt lat="48.48307" lon="2.00574">
        <ele>157.8</ele>
        <time>2023-12-14T08:57:44Z</time>
      </trkpt>
      <trkpt lat="48.483" lon="2.00573">
        <ele>157.8</ele>
        <time>2023-12-14T08:57:45Z</time>
      </trkpt>
      <trkpt lat="48.48293" lon="2.00572">
        <ele>157.8</ele>
        <time>2023-12-14T08:57:46Z</time>
      </trkpt>
      <trkpt lat="48.48286" lon="2.0057">
        <ele>157.8</ele>
        <time>2023-12-14T08:57:47Z</time>
      </trkpt>
      <trkpt lat="48.4828" lon="2.00569">
        <ele>157.4</ele>
        <time>2023-12-14T08:57:48Z</time>
      </trkpt>
      <trkpt lat="48.48273" lon="2.00568">
        <ele>157.4</ele>
        <time>2023-12-14T08:57:49Z</time>
      </trkpt>
      <trkpt lat="48.48266" lon="2.00567">
        <ele>157.4</ele>
        <time>2023-12-14T08:57:50Z</time>
      </trkpt>
      <trkpt lat="48.48259" lon="2.00565">
        <ele>156.4</ele>
        <time>2023-12-14T08:57:51Z</time>
      </trkpt>
      <trkpt lat="48.48251" lon="2.00564">
        <ele>156.2</ele>
        <time>2023-12-14T08:57:52Z</time>
      </trkpt>
      <trkpt lat="48.48244" lon="2.00563">
        <ele>156.2</ele>
        <time>2023-12-14T08:57:53Z</time>
      </trkpt>
      <trkpt lat="48.48237" lon="2.00562">
        <ele>156.2</ele>
        <time>2023-12-14T08:57:54Z</time>
      </trkpt>
      <trkpt lat="48.4823" lon="2.00562">
        <ele>155.6</ele>
        <time>2023-12-14T08:57:55Z</time>
      </trkpt>
      <trkpt lat="48.48223" lon="2.00561">
        <ele>155.4</ele>
        <time>2023-12-14T08:57:56Z</time>
      </trkpt>
      <trkpt lat="48.48215" lon="2.00561">
        <ele>155.4</ele>
        <time>2023-12-14T08:57:57Z</time>
      </trkpt>
      <trkpt lat="48.48208" lon="2.00561">
        <ele>155.4</ele>
        <time>2023-12-14T08:57:58Z</time>
      </trkpt>
      <trkpt lat="48.482" lon="2.0056">
        <ele>155.2</ele>
        <time>2023-12-14T08:57:59Z</time>
      </trkpt>
      <trkpt lat="48.48193" lon="2.0056">
        <ele>155.6</ele>
        <time>2023-12-14T08:58:00Z</time>
      </trkpt>
      <trkpt lat="48.48185" lon="2.00561">
        <ele>155.6</ele>
        <time>2023-12-14T08:58:01Z</time>
      </trkpt>
      <trkpt lat="48.48177" lon="2.00561">
        <ele>155.6</ele>
        <time>2023-12-14T08:58:02Z</time>
      </trkpt>
      <trkpt lat="48.48169" lon="2.00562">
        <ele>155.2</ele>
        <time>2023-12-14T08:58:03Z</time>
      </trkpt>
      <trkpt lat="48.48161" lon="2.00562">
        <ele>154.2</ele>
        <time>2023-12-14T08:58:04Z</time>
      </trkpt>
      <trkpt lat="48.48154" lon="2.00564">
        <ele>154.2</ele>
        <time>2023-12-14T08:58:05Z</time>
      </trkpt>
      <trkpt lat="48.48146" lon="2.00564">
        <ele>154.2</ele>
        <time>2023-12-14T08:58:06Z</time>
      </trkpt>
      <trkpt lat="48.48138" lon="2.00565">
        <ele>154.2</ele>
        <time>2023-12-14T08:58:07Z</time>
      </trkpt>
      <trkpt lat="48.4813" lon="2.00564">
        <ele>153.6</ele>
        <time>2023-12-14T08:58:08Z</time>
      </trkpt>
      <trkpt lat="48.48122" lon="2.00563">
        <ele>153.6</ele>
        <time>2023-12-14T08:58:09Z</time>
      </trkpt>
      <trkpt lat="48.48114" lon="2.0056">
        <ele>153.6</ele>
        <time>2023-12-14T08:58:10Z</time>
      </trkpt>
      <trkpt lat="48.48106" lon="2.00557">
        <ele>152.8</ele>
        <time>2023-12-14T08:58:11Z</time>
      </trkpt>
      <trkpt lat="48.48099" lon="2.00552">
        <ele>152.8</ele>
        <time>2023-12-14T08:58:12Z</time>
      </trkpt>
      <trkpt lat="48.48092" lon="2.00546">
        <ele>152.8</ele>
        <time>2023-12-14T08:58:13Z</time>
      </trkpt>
      <trkpt lat="48.48086" lon="2.0054">
        <ele>152.8</ele>
        <time>2023-12-14T08:58:14Z</time>
      </trkpt>
      <trkpt lat="48.48079" lon="2.00533">
        <ele>152.8</ele>
        <time>2023-12-14T08:58:15Z</time>
      </trkpt>
      <trkpt lat="48.48073" lon="2.00525">
        <ele>151.6</ele>
        <time>2023-12-14T08:58:16Z</time>
      </trkpt>
      <trkpt lat="48.48066" lon="2.00518">
        <ele>151.6</ele>
        <time>2023-12-14T08:58:17Z</time>
      </trkpt>
      <trkpt lat="48.4806" lon="2.00511">
        <ele>151.6</ele>
        <time>2023-12-14T08:58:18Z</time>
      </trkpt>
      <trkpt lat="48.48053" lon="2.00503">
        <ele>150.6</ele>
        <time>2023-12-14T08:58:19Z</time>
      </trkpt>
      <trkpt lat="48.48046" lon="2.00496">
        <ele>150.4</ele>
        <time>2023-12-14T08:58:20Z</time>
      </trkpt>
      <trkpt lat="48.4804" lon="2.00488">
        <ele>150.4</ele>
        <time>2023-12-14T08:58:21Z</time>
      </trkpt>
      <trkpt lat="48.48033" lon="2.00481">
        <ele>150.4</ele>
        <time>2023-12-14T08:58:22Z</time>
      </trkpt>
      <trkpt lat="48.48026" lon="2.00474">
        <ele>150.4</ele>
        <time>2023-12-14T08:58:23Z</time>
      </trkpt>
      <trkpt lat="48.4802" lon="2.00466">
        <ele>150.6</ele>
        <time>2023-12-14T08:58:24Z</time>
      </trkpt>
      <trkpt lat="48.48014" lon="2.00459">
        <ele>150.6</ele>
        <time>2023-12-14T08:58:25Z</time>
      </trkpt>
      <trkpt lat="48.48007" lon="2.00452">
        <ele>150.6</ele>
        <time>2023-12-14T08:58:26Z</time>
      </trkpt>
      <trkpt lat="48.48001" lon="2.00445">
        <ele>150.2</ele>
        <time>2023-12-14T08:58:27Z</time>
      </trkpt>
      <trkpt lat="48.47994" lon="2.00438">
        <ele>150.2</ele>
        <time>2023-12-14T08:58:28Z</time>
      </trkpt>
      <trkpt lat="48.47988" lon="2.00431">
        <ele>150.2</ele>
        <time>2023-12-14T08:58:29Z</time>
      </trkpt>
      <trkpt lat="48.47982" lon="2.00424">
        <ele>150.2</ele>
        <time>2023-12-14T08:58:30Z</time>
      </trkpt>
      <trkpt lat="48.47976" lon="2.00417">
        <ele>149.2</ele>
        <time>2023-12-14T08:58:31Z</time>
      </trkpt>
      <trkpt lat="48.4797" lon="2.0041">
        <ele>149</ele>
        <time>2023-12-14T08:58:32Z</time>
      </trkpt>
      <trkpt lat="48.47964" lon="2.00403">
        <ele>149</ele>
        <time>2023-12-14T08:58:33Z</time>
      </trkpt>
      <trkpt lat="48.47958" lon="2.00397">
        <ele>149</ele>
        <time>2023-12-14T08:58:34Z</time>
      </trkpt>
      <trkpt lat="48.47952" lon="2.0039">
        <ele>149.8</ele>
        <time>2023-12-14T08:58:35Z</time>
      </trkpt>
      <trkpt lat="48.47947" lon="2.00384">
        <ele>150.4</ele>
        <time>2023-12-14T08:58:36Z</time>
      </trkpt>
      <trkpt lat="48.47941" lon="2.00378">
        <ele>150.4</ele>
        <time>2023-12-14T08:58:37Z</time>
      </trkpt>
      <trkpt lat="48.47935" lon="2.00372">
        <ele>150.4</ele>
        <time>2023-12-14T08:58:38Z</time>
      </trkpt>
      <trkpt lat="48.4793" lon="2.00365">
        <ele>150.2</ele>
        <time>2023-12-14T08:58:39Z</time>
      </trkpt>
      <trkpt lat="48.47925" lon="2.00359">
        <ele>150.2</ele>
        <time>2023-12-14T08:58:40Z</time>
      </trkpt>
      <trkpt lat="48.47919" lon="2.00353">
        <ele>150.2</ele>
        <time>2023-12-14T08:58:41Z</time>
      </trkpt>
      <trkpt lat="48.47914" lon="2.00347">
        <ele>150.2</ele>
        <time>2023-12-14T08:58:42Z</time>
      </trkpt>
      <trkpt lat="48.47908" lon="2.00341">
        <ele>150.4</ele>
        <time>2023-12-14T08:58:43Z</time>
      </trkpt>
      <trkpt lat="48.47903" lon="2.00335">
        <ele>151</ele>
        <time>2023-12-14T08:58:44Z</time>
      </trkpt>
      <trkpt lat="48.47898" lon="2.0033">
        <ele>151</ele>
        <time>2023-12-14T08:58:45Z</time>
      </trkpt>
      <trkpt lat="48.47892" lon="2.00324">
        <ele>151</ele>
        <time>2023-12-14T08:58:46Z</time>
      </trkpt>
      <trkpt lat="48.47887" lon="2.00318">
        <ele>151.6</ele>
        <time>2023-12-14T08:58:47Z</time>
      </trkpt>
      <trkpt lat="48.47882" lon="2.00311">
        <ele>150.6</ele>
        <time>2023-12-14T08:58:48Z</time>
      </trkpt>
      <trkpt lat="48.47876" lon="2.00305">
        <ele>150.6</ele>
        <time>2023-12-14T08:58:49Z</time>
      </trkpt>
      <trkpt lat="48.4787" lon="2.00299">
        <ele>150.6</ele>
        <time>2023-12-14T08:58:50Z</time>
      </trkpt>
      <trkpt lat="48.47864" lon="2.00292">
        <ele>150.6</ele>
        <time>2023-12-14T08:58:51Z</time>
      </trkpt>
      <trkpt lat="48.47859" lon="2.00286">
        <ele>150</ele>
        <time>2023-12-14T08:58:52Z</time>
      </trkpt>
      <trkpt lat="48.47853" lon="2.00279">
        <ele>150</ele>
        <time>2023-12-14T08:58:53Z</time>
      </trkpt>
      <trkpt lat="48.47847" lon="2.00272">
        <ele>150</ele>
        <time>2023-12-14T08:58:54Z</time>
      </trkpt>
      <trkpt lat="48.47841" lon="2.00265">
        <ele>150</ele>
        <time>2023-12-14T08:58:55Z</time>
      </trkpt>
      <trkpt lat="48.47835" lon="2.00259">
        <ele>150.2</ele>
        <time>2023-12-14T08:58:56Z</time>
      </trkpt>
      <trkpt lat="48.47829" lon="2.00252">
        <ele>150.2</ele>
        <time>2023-12-14T08:58:57Z</time>
      </trkpt>
      <trkpt lat="48.47824" lon="2.00245">
        <ele>150.2</ele>
        <time>2023-12-14T08:58:58Z</time>
      </trkpt>
      <trkpt lat="48.47819" lon="2.00239">
        <ele>149.2</ele>
        <time>2023-12-14T08:58:59Z</time>
      </trkpt>
      <trkpt lat="48.47814" lon="2.00233">
        <ele>149.8</ele>
        <time>2023-12-14T08:59:00Z</time>
      </trkpt>
      <trkpt lat="48.47809" lon="2.00227">
        <ele>149.8</ele>
        <time>2023-12-14T08:59:01Z</time>
      </trkpt>
      <trkpt lat="48.47803" lon="2.0022">
        <ele>149.8</ele>
        <time>2023-12-14T08:59:02Z</time>
      </trkpt>
      <trkpt lat="48.47798" lon="2.00214">
        <ele>149</ele>
        <time>2023-12-14T08:59:03Z</time>
      </trkpt>
      <trkpt lat="48.47793" lon="2.00208">
        <ele>149.2</ele>
        <time>2023-12-14T08:59:04Z</time>
      </trkpt>
      <trkpt lat="48.47788" lon="2.00202">
        <ele>149.2</ele>
        <time>2023-12-14T08:59:05Z</time>
      </trkpt>
      <trkpt lat="48.47783" lon="2.00196">
        <ele>149.2</ele>
        <time>2023-12-14T08:59:06Z</time>
      </trkpt>
      <trkpt lat="48.47779" lon="2.00189">
        <ele>148.2</ele>
        <time>2023-12-14T08:59:07Z</time>
      </trkpt>
      <trkpt lat="48.47773" lon="2.00182">
        <ele>147.4</ele>
        <time>2023-12-14T08:59:08Z</time>
      </trkpt>
      <trkpt lat="48.47768" lon="2.00176">
        <ele>147.4</ele>
        <time>2023-12-14T08:59:09Z</time>
      </trkpt>
      <trkpt lat="48.47763" lon="2.00169">
        <ele>147.4</ele>
        <time>2023-12-14T08:59:10Z</time>
      </trkpt>
      <trkpt lat="48.47758" lon="2.00163">
        <ele>147.4</ele>
        <time>2023-12-14T08:59:11Z</time>
      </trkpt>
      <trkpt lat="48.47752" lon="2.00156">
        <ele>147</ele>
        <time>2023-12-14T08:59:12Z</time>
      </trkpt>
      <trkpt lat="48.47746" lon="2.0015">
        <ele>147</ele>
        <time>2023-12-14T08:59:13Z</time>
      </trkpt>
      <trkpt lat="48.47742" lon="2.00142">
        <ele>147</ele>
        <time>2023-12-14T08:59:14Z</time>
      </trkpt>
      <trkpt lat="48.47737" lon="2.00136">
        <ele>147</ele>
        <time>2023-12-14T08:59:15Z</time>
      </trkpt>
      <trkpt lat="48.47732" lon="2.00129">
        <ele>146.2</ele>
        <time>2023-12-14T08:59:16Z</time>
      </trkpt>
      <trkpt lat="48.47726" lon="2.00122">
        <ele>146.2</ele>
        <time>2023-12-14T08:59:17Z</time>
      </trkpt>
      <trkpt lat="48.47721" lon="2.00115">
        <ele>146.2</ele>
        <time>2023-12-14T08:59:18Z</time>
      </trkpt>
      <trkpt lat="48.47715" lon="2.00109">
        <ele>145.2</ele>
        <time>2023-12-14T08:59:19Z</time>
      </trkpt>
      <trkpt lat="48.47709" lon="2.00102">
        <ele>144</ele>
        <time>2023-12-14T08:59:20Z</time>
      </trkpt>
      <trkpt lat="48.47703" lon="2.00095">
        <ele>144</ele>
        <time>2023-12-14T08:59:21Z</time>
      </trkpt>
      <trkpt lat="48.47697" lon="2.00088">
        <ele>144</ele>
        <time>2023-12-14T08:59:22Z</time>
      </trkpt>
      <trkpt lat="48.4769" lon="2.0008">
        <ele>143</ele>
        <time>2023-12-14T08:59:23Z</time>
      </trkpt>
      <trkpt lat="48.47683" lon="2.00073">
        <ele>140.8</ele>
        <time>2023-12-14T08:59:24Z</time>
      </trkpt>
      <trkpt lat="48.47676" lon="2.00065">
        <ele>140.8</ele>
        <time>2023-12-14T08:59:25Z</time>
      </trkpt>
      <trkpt lat="48.47669" lon="2.00056">
        <ele>140.8</ele>
        <time>2023-12-14T08:59:26Z</time>
      </trkpt>
      <trkpt lat="48.47662" lon="2.00048">
        <ele>139.8</ele>
        <time>2023-12-14T08:59:27Z</time>
      </trkpt>
      <trkpt lat="48.47655" lon="2.00039">
        <ele>136.4</ele>
        <time>2023-12-14T08:59:28Z</time>
      </trkpt>
      <trkpt lat="48.47647" lon="2.0003">
        <ele>136.4</ele>
        <time>2023-12-14T08:59:29Z</time>
      </trkpt>
      <trkpt lat="48.47639" lon="2.00021">
        <ele>136.4</ele>
        <time>2023-12-14T08:59:30Z</time>
      </trkpt>
      <trkpt lat="48.47632" lon="2.00012">
        <ele>135.4</ele>
        <time>2023-12-14T08:59:31Z</time>
      </trkpt>
      <trkpt lat="48.47623" lon="2.00003">
        <ele>133.2</ele>
        <time>2023-12-14T08:59:32Z</time>
      </trkpt>
      <trkpt lat="48.47615" lon="1.99995">
        <ele>133.2</ele>
        <time>2023-12-14T08:59:33Z</time>
      </trkpt>
      <trkpt lat="48.47607" lon="1.99987">
        <ele>133.2</ele>
        <time>2023-12-14T08:59:34Z</time>
      </trkpt>
      <trkpt lat="48.47598" lon="1.99979">
        <ele>132.2</ele>
        <time>2023-12-14T08:59:35Z</time>
      </trkpt>
      <trkpt lat="48.47589" lon="1.99973">
        <ele>130.8</ele>
        <time>2023-12-14T08:59:36Z</time>
      </trkpt>
      <trkpt lat="48.47579" lon="1.99966">
        <ele>130.8</ele>
        <time>2023-12-14T08:59:37Z</time>
      </trkpt>
      <trkpt lat="48.47569" lon="1.99961">
        <ele>130.8</ele>
        <time>2023-12-14T08:59:38Z</time>
      </trkpt>
      <trkpt lat="48.47559" lon="1.99956">
        <ele>130.8</ele>
        <time>2023-12-14T08:59:39Z</time>
      </trkpt>
      <trkpt lat="48.4755" lon="1.9995">
        <ele>131.6</ele>
        <time>2023-12-14T08:59:40Z</time>
      </trkpt>
      <trkpt lat="48.47541" lon="1.99946">
        <ele>131.6</ele>
        <time>2023-12-14T08:59:41Z</time>
      </trkpt>
      <trkpt lat="48.47533" lon="1.9994">
        <ele>131.6</ele>
        <time>2023-12-14T08:59:42Z</time>
      </trkpt>
      <trkpt lat="48.47525" lon="1.99935">
        <ele>131.6</ele>
        <time>2023-12-14T08:59:43Z</time>
      </trkpt>
      <trkpt lat="48.47517" lon="1.9993">
        <ele>132.2</ele>
        <time>2023-12-14T08:59:44Z</time>
      </trkpt>
      <trkpt lat="48.4751" lon="1.99925">
        <ele>132.2</ele>
        <time>2023-12-14T08:59:45Z</time>
      </trkpt>
      <trkpt lat="48.47503" lon="1.9992">
        <ele>132.2</ele>
        <time>2023-12-14T08:59:46Z</time>
      </trkpt>
      <trkpt lat="48.47496" lon="1.99915">
        <ele>132.2</ele>
        <time>2023-12-14T08:59:47Z</time>
      </trkpt>
      <trkpt lat="48.47489" lon="1.99911">
        <ele>132.8</ele>
        <time>2023-12-14T08:59:48Z</time>
      </trkpt>
      <trkpt lat="48.47483" lon="1.99907">
        <ele>132.8</ele>
        <time>2023-12-14T08:59:49Z</time>
      </trkpt>
      <trkpt lat="48.47477" lon="1.99903">
        <ele>132.8</ele>
        <time>2023-12-14T08:59:50Z</time>
      </trkpt>
      <trkpt lat="48.4747" lon="1.99899">
        <ele>132.8</ele>
        <time>2023-12-14T08:59:51Z</time>
      </trkpt>
      <trkpt lat="48.47464" lon="1.99895">
        <ele>133</ele>
        <time>2023-12-14T08:59:52Z</time>
      </trkpt>
      <trkpt lat="48.47458" lon="1.99892">
        <ele>133</ele>
        <time>2023-12-14T08:59:53Z</time>
      </trkpt>
      <trkpt lat="48.47453" lon="1.99889">
        <ele>133</ele>
        <time>2023-12-14T08:59:54Z</time>
      </trkpt>
      <trkpt lat="48.47447" lon="1.99887">
        <ele>133.6</ele>
        <time>2023-12-14T08:59:55Z</time>
      </trkpt>
      <trkpt lat="48.47441" lon="1.99885">
        <ele>134.2</ele>
        <time>2023-12-14T08:59:56Z</time>
      </trkpt>
      <trkpt lat="48.47436" lon="1.99883">
        <ele>134.2</ele>
        <time>2023-12-14T08:59:57Z</time>
      </trkpt>
      <trkpt lat="48.4743" lon="1.99881">
        <ele>134.2</ele>
        <time>2023-12-14T08:59:58Z</time>
      </trkpt>
      <trkpt lat="48.47425" lon="1.99879">
        <ele>134.6</ele>
        <time>2023-12-14T08:59:59Z</time>
      </trkpt>
      <trkpt lat="48.47419" lon="1.99878">
        <ele>134.6</ele>
        <time>2023-12-14T09:00:00Z</time>
      </trkpt>
      <trkpt lat="48.47414" lon="1.99877">
        <ele>134.6</ele>
        <time>2023-12-14T09:00:01Z</time>
      </trkpt>
      <trkpt lat="48.47408" lon="1.99875">
        <ele>134.6</ele>
        <time>2023-12-14T09:00:02Z</time>
      </trkpt>
      <trkpt lat="48.47403" lon="1.99874">
        <ele>135</ele>
        <time>2023-12-14T09:00:03Z</time>
      </trkpt>
      <trkpt lat="48.47397" lon="1.99872">
        <ele>134.8</ele>
        <time>2023-12-14T09:00:04Z</time>
      </trkpt>
      <trkpt lat="48.47392" lon="1.99871">
        <ele>134.8</ele>
        <time>2023-12-14T09:00:05Z</time>
      </trkpt>
      <trkpt lat="48.47387" lon="1.99869">
        <ele>134.8</ele>
        <time>2023-12-14T09:00:06Z</time>
      </trkpt>
      <trkpt lat="48.47381" lon="1.99868">
        <ele>134.8</ele>
        <time>2023-12-14T09:00:07Z</time>
      </trkpt>
      <trkpt lat="48.47376" lon="1.99867">
        <ele>135.4</ele>
        <time>2023-12-14T09:00:08Z</time>
      </trkpt>
      <trkpt lat="48.47371" lon="1.99865">
        <ele>135.4</ele>
        <time>2023-12-14T09:00:09Z</time>
      </trkpt>
      <trkpt lat="48.47366" lon="1.99864">
        <ele>135.4</ele>
        <time>2023-12-14T09:00:10Z</time>
      </trkpt>
      <trkpt lat="48.47361" lon="1.99864">
        <ele>135.4</ele>
        <time>2023-12-14T09:00:11Z</time>
      </trkpt>
      <trkpt lat="48.47356" lon="1.99863">
        <ele>135.8</ele>
        <time>2023-12-14T09:00:12Z</time>
      </trkpt>
      <trkpt lat="48.47351" lon="1.99863">
        <ele>135.8</ele>
        <time>2023-12-14T09:00:13Z</time>
      </trkpt>
      <trkpt lat="48.47346" lon="1.99863">
        <ele>135.8</ele>
        <time>2023-12-14T09:00:14Z</time>
      </trkpt>
      <trkpt lat="48.47342" lon="1.99863">
        <ele>136.4</ele>
        <time>2023-12-14T09:00:15Z</time>
      </trkpt>
      <trkpt lat="48.47338" lon="1.99864">
        <ele>136.6</ele>
        <time>2023-12-14T09:00:16Z</time>
      </trkpt>
      <trkpt lat="48.47334" lon="1.99866">
        <ele>136.6</ele>
        <time>2023-12-14T09:00:17Z</time>
      </trkpt>
      <trkpt lat="48.4733" lon="1.99869">
        <ele>136.6</ele>
        <time>2023-12-14T09:00:18Z</time>
      </trkpt>
      <trkpt lat="48.47327" lon="1.99872">
        <ele>137.6</ele>
        <time>2023-12-14T09:00:19Z</time>
      </trkpt>
      <trkpt lat="48.47324" lon="1.99875">
        <ele>137.4</ele>
        <time>2023-12-14T09:00:20Z</time>
      </trkpt>
      <trkpt lat="48.47322" lon="1.99879">
        <ele>137.4</ele>
        <time>2023-12-14T09:00:21Z</time>
      </trkpt>
      <trkpt lat="48.47319" lon="1.99884">
        <ele>137.4</ele>
        <time>2023-12-14T09:00:22Z</time>
      </trkpt>
      <trkpt lat="48.47317" lon="1.99889">
        <ele>138.4</ele>
        <time>2023-12-14T09:00:23Z</time>
      </trkpt>
      <trkpt lat="48.47316" lon="1.99894">
        <ele>138.4</ele>
        <time>2023-12-14T09:00:24Z</time>
      </trkpt>
      <trkpt lat="48.47314" lon="1.99899">
        <ele>138.4</ele>
        <time>2023-12-14T09:00:25Z</time>
      </trkpt>
      <trkpt lat="48.47313" lon="1.99905">
        <ele>138.4</ele>
        <time>2023-12-14T09:00:26Z</time>
      </trkpt>
      <trkpt lat="48.47311" lon="1.9991">
        <ele>139</ele>
        <time>2023-12-14T09:00:27Z</time>
      </trkpt>
      <trkpt lat="48.4731" lon="1.99916">
        <ele>138.6</ele>
        <time>2023-12-14T09:00:28Z</time>
      </trkpt>
      <trkpt lat="48.47309" lon="1.99921">
        <ele>138.6</ele>
        <time>2023-12-14T09:00:29Z</time>
      </trkpt>
      <trkpt lat="48.47308" lon="1.99926">
        <ele>138.6</ele>
        <time>2023-12-14T09:00:30Z</time>
      </trkpt>
      <trkpt lat="48.47306" lon="1.99932">
        <ele>139.2</ele>
        <time>2023-12-14T09:00:31Z</time>
      </trkpt>
      <trkpt lat="48.47305" lon="1.99938">
        <ele>139.4</ele>
        <time>2023-12-14T09:00:32Z</time>
      </trkpt>
      <trkpt lat="48.47304" lon="1.99943">
        <ele>139.4</ele>
        <time>2023-12-14T09:00:33Z</time>
      </trkpt>
      <trkpt lat="48.47303" lon="1.99949">
        <ele>139.4</ele>
        <time>2023-12-14T09:00:34Z</time>
      </trkpt>
      <trkpt lat="48.47302" lon="1.99954">
        <ele>140.2</ele>
        <time>2023-12-14T09:00:35Z</time>
      </trkpt>
      <trkpt lat="48.47301" lon="1.99959">
        <ele>140</ele>
        <time>2023-12-14T09:00:36Z</time>
      </trkpt>
      <trkpt lat="48.473" lon="1.99964">
        <ele>140</ele>
        <time>2023-12-14T09:00:37Z</time>
      </trkpt>
      <trkpt lat="48.47298" lon="1.9997">
        <ele>140</ele>
        <time>2023-12-14T09:00:38Z</time>
      </trkpt>
      <trkpt lat="48.47297" lon="1.99975">
        <ele>140.4</ele>
        <time>2023-12-14T09:00:39Z</time>
      </trkpt>
      <trkpt lat="48.47296" lon="1.9998">
        <ele>141</ele>
        <time>2023-12-14T09:00:40Z</time>
      </trkpt>
      <trkpt lat="48.47295" lon="1.99985">
        <ele>141</ele>
        <time>2023-12-14T09:00:41Z</time>
      </trkpt>
      <trkpt lat="48.47294" lon="1.9999">
        <ele>141</ele>
        <time>2023-12-14T09:00:42Z</time>
      </trkpt>
      <trkpt lat="48.47293" lon="1.99995">
        <ele>141</ele>
        <time>2023-12-14T09:00:43Z</time>
      </trkpt>
      <trkpt lat="48.47292" lon="2">
        <ele>141.2</ele>
        <time>2023-12-14T09:00:44Z</time>
      </trkpt>
      <trkpt lat="48.4729" lon="2.00006">
        <ele>141.2</ele>
        <time>2023-12-14T09:00:45Z</time>
      </trkpt>
      <trkpt lat="48.47289" lon="2.00011">
        <ele>141.2</ele>
        <time>2023-12-14T09:00:46Z</time>
      </trkpt>
      <trkpt lat="48.47288" lon="2.00016">
        <ele>142.2</ele>
        <time>2023-12-14T09:00:47Z</time>
      </trkpt>
      <trkpt lat="48.47287" lon="2.00022">
        <ele>142.2</ele>
        <time>2023-12-14T09:00:48Z</time>
      </trkpt>
      <trkpt lat="48.47286" lon="2.00027">
        <ele>142.2</ele>
        <time>2023-12-14T09:00:49Z</time>
      </trkpt>
      <trkpt lat="48.47285" lon="2.00032">
        <ele>142.2</ele>
        <time>2023-12-14T09:00:50Z</time>
      </trkpt>
      <trkpt lat="48.47283" lon="2.00037">
        <ele>142.8</ele>
        <time>2023-12-14T09:00:51Z</time>
      </trkpt>
      <trkpt lat="48.47282" lon="2.00043">
        <ele>142.4</ele>
        <time>2023-12-14T09:00:52Z</time>
      </trkpt>
      <trkpt lat="48.47281" lon="2.00048">
        <ele>142.4</ele>
        <time>2023-12-14T09:00:53Z</time>
      </trkpt>
      <trkpt lat="48.47279" lon="2.00053">
        <ele>142.4</ele>
        <time>2023-12-14T09:00:54Z</time>
      </trkpt>
      <trkpt lat="48.47278" lon="2.00058">
        <ele>143.2</ele>
        <time>2023-12-14T09:00:55Z</time>
      </trkpt>
      <trkpt lat="48.47277" lon="2.00064">
        <ele>143.2</ele>
        <time>2023-12-14T09:00:56Z</time>
      </trkpt>
      <trkpt lat="48.47275" lon="2.00069">
        <ele>143.2</ele>
        <time>2023-12-14T09:00:57Z</time>
      </trkpt>
      <trkpt lat="48.47273" lon="2.00073">
        <ele>143.2</ele>
        <time>2023-12-14T09:00:58Z</time>
      </trkpt>
      <trkpt lat="48.4727" lon="2.00078">
        <ele>143.2</ele>
        <time>2023-12-14T09:00:59Z</time>
      </trkpt>
      <trkpt lat="48.47267" lon="2.00081">
        <ele>143.8</ele>
        <time>2023-12-14T09:01:00Z</time>
      </trkpt>
      <trkpt lat="48.47264" lon="2.00084">
        <ele>143.8</ele>
        <time>2023-12-14T09:01:01Z</time>
      </trkpt>
      <trkpt lat="48.4726" lon="2.00085">
        <ele>143.8</ele>
        <time>2023-12-14T09:01:02Z</time>
      </trkpt>
      <trkpt lat="48.47256" lon="2.00086">
        <ele>143.8</ele>
        <time>2023-12-14T09:01:03Z</time>
      </trkpt>
      <trkpt lat="48.47252" lon="2.00087">
        <ele>144.6</ele>
        <time>2023-12-14T09:01:04Z</time>
      </trkpt>
      <trkpt lat="48.47248" lon="2.00087">
        <ele>144.6</ele>
        <time>2023-12-14T09:01:05Z</time>
      </trkpt>
      <trkpt lat="48.47245" lon="2.00087">
        <ele>144.6</ele>
        <time>2023-12-14T09:01:06Z</time>
      </trkpt>
      <trkpt lat="48.47241" lon="2.00087">
        <ele>144.6</ele>
        <time>2023-12-14T09:01:07Z</time>
      </trkpt>
      <trkpt lat="48.47238" lon="2.00087">
        <ele>145.2</ele>
        <time>2023-12-14T09:01:08Z</time>
      </trkpt>
      <trkpt lat="48.47234" lon="2.00087">
        <ele>145.2</ele>
        <time>2023-12-14T09:01:09Z</time>
      </trkpt>
      <trkpt lat="48.47231" lon="2.00086">
        <ele>145.2</ele>
        <time>2023-12-14T09:01:10Z</time>
      </trkpt>
      <trkpt lat="48.47227" lon="2.00087">
        <ele>145.2</ele>
        <time>2023-12-14T09:01:11Z</time>
      </trkpt>
      <trkpt lat="48.47223" lon="2.00087">
        <ele>145.6</ele>
        <time>2023-12-14T09:01:12Z</time>
      </trkpt>
      <trkpt lat="48.47219" lon="2.00087">
        <ele>145.6</ele>
        <time>2023-12-14T09:01:13Z</time>
      </trkpt>
      <trkpt lat="48.47216" lon="2.00087">
        <ele>145.6</ele>
        <time>2023-12-14T09:01:14Z</time>
      </trkpt>
      <trkpt lat="48.47212" lon="2.00087">
        <ele>146.6</ele>
        <time>2023-12-14T09:01:15Z</time>
      </trkpt>
      <trkpt lat="48.47208" lon="2.00087">
        <ele>146.8</ele>
        <time>2023-12-14T09:01:16Z</time>
      </trkpt>
      <trkpt lat="48.47204" lon="2.00087">
        <ele>146.8</ele>
        <time>2023-12-14T09:01:17Z</time>
      </trkpt>
      <trkpt lat="48.472" lon="2.00085">
        <ele>146.8</ele>
        <time>2023-12-14T09:01:18Z</time>
      </trkpt>
      <trkpt lat="48.47197" lon="2.00082">
        <ele>146.6</ele>
        <time>2023-12-14T09:01:19Z</time>
      </trkpt>
      <trkpt lat="48.47195" lon="2.00078">
        <ele>146.2</ele>
        <time>2023-12-14T09:01:20Z</time>
      </trkpt>
      <trkpt lat="48.47193" lon="2.00074">
        <ele>146.2</ele>
        <time>2023-12-14T09:01:21Z</time>
      </trkpt>
      <trkpt lat="48.47192" lon="2.00069">
        <ele>146.2</ele>
        <time>2023-12-14T09:01:22Z</time>
      </trkpt>
      <trkpt lat="48.47191" lon="2.00064">
        <ele>146.2</ele>
        <time>2023-12-14T09:01:23Z</time>
      </trkpt>
      <trkpt lat="48.4719" lon="2.00059">
        <ele>146.6</ele>
        <time>2023-12-14T09:01:24Z</time>
      </trkpt>
      <trkpt lat="48.4719" lon="2.00054">
        <ele>146.6</ele>
        <time>2023-12-14T09:01:25Z</time>
      </trkpt>
      <trkpt lat="48.4719" lon="2.00049">
        <ele>146.6</ele>
        <time>2023-12-14T09:01:26Z</time>
      </trkpt>
      <trkpt lat="48.4719" lon="2.00044">
        <ele>146.6</ele>
        <time>2023-12-14T09:01:27Z</time>
      </trkpt>
      <trkpt lat="48.4719" lon="2.00039">
        <ele>146.6</ele>
        <time>2023-12-14T09:01:28Z</time>
      </trkpt>
      <trkpt lat="48.4719" lon="2.00034">
        <ele>146.6</ele>
        <time>2023-12-14T09:01:29Z</time>
      </trkpt>
      <trkpt lat="48.47189" lon="2.00029">
        <ele>146.6</ele>
        <time>2023-12-14T09:01:30Z</time>
      </trkpt>
      <trkpt lat="48.47188" lon="2.00023">
        <ele>147.2</ele>
        <time>2023-12-14T09:01:31Z</time>
      </trkpt>
      <trkpt lat="48.47187" lon="2.00018">
        <ele>147.4</ele>
        <time>2023-12-14T09:01:32Z</time>
      </trkpt>
      <trkpt lat="48.47186" lon="2.00012">
        <ele>147.4</ele>
        <time>2023-12-14T09:01:33Z</time>
      </trkpt>
      <trkpt lat="48.47185" lon="2.00006">
        <ele>147.4</ele>
        <time>2023-12-14T09:01:34Z</time>
      </trkpt>
      <trkpt lat="48.47183" lon="2.00001">
        <ele>147.4</ele>
        <time>2023-12-14T09:01:35Z</time>
      </trkpt>
      <trkpt lat="48.47181" lon="1.99995">
        <ele>147.8</ele>
        <time>2023-12-14T09:01:36Z</time>
      </trkpt>
      <trkpt lat="48.47179" lon="1.9999">
        <ele>147.8</ele>
        <time>2023-12-14T09:01:37Z</time>
      </trkpt>
      <trkpt lat="48.47178" lon="1.99985">
        <ele>147.8</ele>
        <time>2023-12-14T09:01:38Z</time>
      </trkpt>
      <trkpt lat="48.47176" lon="1.99979">
        <ele>147.8</ele>
        <time>2023-12-14T09:01:39Z</time>
      </trkpt>
      <trkpt lat="48.47173" lon="1.99975">
        <ele>148</ele>
        <time>2023-12-14T09:01:40Z</time>
      </trkpt>
      <trkpt lat="48.47171" lon="1.9997">
        <ele>148</ele>
        <time>2023-12-14T09:01:41Z</time>
      </trkpt>
      <trkpt lat="48.47169" lon="1.99964">
        <ele>148</ele>
        <time>2023-12-14T09:01:42Z</time>
      </trkpt>
      <trkpt lat="48.47167" lon="1.99959">
        <ele>149</ele>
        <time>2023-12-14T09:01:43Z</time>
      </trkpt>
      <trkpt lat="48.47165" lon="1.99954">
        <ele>149.2</ele>
        <time>2023-12-14T09:01:44Z</time>
      </trkpt>
      <trkpt lat="48.47163" lon="1.99949">
        <ele>149.2</ele>
        <time>2023-12-14T09:01:45Z</time>
      </trkpt>
      <trkpt lat="48.4716" lon="1.99945">
        <ele>149.2</ele>
        <time>2023-12-14T09:01:46Z</time>
      </trkpt>
      <trkpt lat="48.47157" lon="1.99944">
        <ele>149.2</ele>
        <time>2023-12-14T09:01:47Z</time>
      </trkpt>
      <trkpt lat="48.47153" lon="1.99946">
        <ele>149.2</ele>
        <time>2023-12-14T09:01:48Z</time>
      </trkpt>
      <trkpt lat="48.47149" lon="1.99949">
        <ele>149.2</ele>
        <time>2023-12-14T09:01:49Z</time>
      </trkpt>
      <trkpt lat="48.47146" lon="1.99954">
        <ele>149.2</ele>
        <time>2023-12-14T09:01:50Z</time>
      </trkpt>
      <trkpt lat="48.47143" lon="1.99959">
        <ele>148.4</ele>
        <time>2023-12-14T09:01:51Z</time>
      </trkpt>
      <trkpt lat="48.47141" lon="1.99965">
        <ele>148.6</ele>
        <time>2023-12-14T09:01:52Z</time>
      </trkpt>
      <trkpt lat="48.47138" lon="1.9997">
        <ele>148.6</ele>
        <time>2023-12-14T09:01:53Z</time>
      </trkpt>
      <trkpt lat="48.47135" lon="1.99976">
        <ele>148.6</ele>
        <time>2023-12-14T09:01:54Z</time>
      </trkpt>
      <trkpt lat="48.47132" lon="1.99981">
        <ele>148.4</ele>
        <time>2023-12-14T09:01:55Z</time>
      </trkpt>
      <trkpt lat="48.47129" lon="1.99987">
        <ele>148.4</ele>
        <time>2023-12-14T09:01:56Z</time>
      </trkpt>
      <trkpt lat="48.47126" lon="1.99994">
        <ele>148.4</ele>
        <time>2023-12-14T09:01:57Z</time>
      </trkpt>
      <trkpt lat="48.47123" lon="2">
        <ele>148.4</ele>
        <time>2023-12-14T09:01:58Z</time>
      </trkpt>
      <trkpt lat="48.4712" lon="2.00006">
        <ele>148.4</ele>
        <time>2023-12-14T09:01:59Z</time>
      </trkpt>
      <trkpt lat="48.47118" lon="2.00012">
        <ele>148</ele>
        <time>2023-12-14T09:02:00Z</time>
      </trkpt>
      <trkpt lat="48.47115" lon="2.00019">
        <ele>148</ele>
        <time>2023-12-14T09:02:01Z</time>
      </trkpt>
      <trkpt lat="48.47111" lon="2.00025">
        <ele>148</ele>
        <time>2023-12-14T09:02:02Z</time>
      </trkpt>
      <trkpt lat="48.47108" lon="2.00032">
        <ele>148.6</ele>
        <time>2023-12-14T09:02:03Z</time>
      </trkpt>
      <trkpt lat="48.47105" lon="2.00038">
        <ele>148.8</ele>
        <time>2023-12-14T09:02:04Z</time>
      </trkpt>
      <trkpt lat="48.47101" lon="2.00045">
        <ele>148.8</ele>
        <time>2023-12-14T09:02:05Z</time>
      </trkpt>
      <trkpt lat="48.47098" lon="2.00052">
        <ele>148.8</ele>
        <time>2023-12-14T09:02:06Z</time>
      </trkpt>
      <trkpt lat="48.47094" lon="2.00058">
        <ele>148.2</ele>
        <time>2023-12-14T09:02:07Z</time>
      </trkpt>
      <trkpt lat="48.47091" lon="2.00065">
        <ele>148.4</ele>
        <time>2023-12-14T09:02:08Z</time>
      </trkpt>
      <trkpt lat="48.47087" lon="2.00073">
        <ele>148.4</ele>
        <time>2023-12-14T09:02:09Z</time>
      </trkpt>
      <trkpt lat="48.47083" lon="2.0008">
        <ele>148.4</ele>
        <time>2023-12-14T09:02:10Z</time>
      </trkpt>
      <trkpt lat="48.47079" lon="2.00087">
        <ele>147.8</ele>
        <time>2023-12-14T09:02:11Z</time>
      </trkpt>
      <trkpt lat="48.47075" lon="2.00094">
        <ele>147.6</ele>
        <time>2023-12-14T09:02:12Z</time>
      </trkpt>
      <trkpt lat="48.47072" lon="2.001">
        <ele>147.6</ele>
        <time>2023-12-14T09:02:13Z</time>
      </trkpt>
      <trkpt lat="48.47068" lon="2.00107">
        <ele>147.6</ele>
        <time>2023-12-14T09:02:14Z</time>
      </trkpt>
      <trkpt lat="48.47063" lon="2.00114">
        <ele>147.6</ele>
        <time>2023-12-14T09:02:15Z</time>
      </trkpt>
      <trkpt lat="48.47059" lon="2.0012">
        <ele>147.8</ele>
        <time>2023-12-14T09:02:16Z</time>
      </trkpt>
      <trkpt lat="48.47055" lon="2.00126">
        <ele>147.8</ele>
        <time>2023-12-14T09:02:17Z</time>
      </trkpt>
      <trkpt lat="48.4705" lon="2.00132">
        <ele>147.8</ele>
        <time>2023-12-14T09:02:18Z</time>
      </trkpt>
      <trkpt lat="48.47046" lon="2.00138">
        <ele>148</ele>
        <time>2023-12-14T09:02:19Z</time>
      </trkpt>
      <trkpt lat="48.47042" lon="2.00144">
        <ele>148.2</ele>
        <time>2023-12-14T09:02:20Z</time>
      </trkpt>
      <trkpt lat="48.47037" lon="2.0015">
        <ele>148.2</ele>
        <time>2023-12-14T09:02:21Z</time>
      </trkpt>
      <trkpt lat="48.47033" lon="2.00156">
        <ele>148.2</ele>
        <time>2023-12-14T09:02:22Z</time>
      </trkpt>
      <trkpt lat="48.47029" lon="2.00161">
        <ele>148.2</ele>
        <time>2023-12-14T09:02:23Z</time>
      </trkpt>
      <trkpt lat="48.47025" lon="2.00167">
        <ele>149</ele>
        <time>2023-12-14T09:02:24Z</time>
      </trkpt>
      <trkpt lat="48.47021" lon="2.00173">
        <ele>149</ele>
        <time>2023-12-14T09:02:25Z</time>
      </trkpt>
      <trkpt lat="48.47017" lon="2.0018">
        <ele>149</ele>
        <time>2023-12-14T09:02:26Z</time>
      </trkpt>
      <trkpt lat="48.47013" lon="2.00186">
        <ele>149.6</ele>
        <time>2023-12-14T09:02:27Z</time>
      </trkpt>
      <trkpt lat="48.47009" lon="2.00193">
        <ele>149.2</ele>
        <time>2023-12-14T09:02:28Z</time>
      </trkpt>
      <trkpt lat="48.47005" lon="2.00198">
        <ele>149.2</ele>
        <time>2023-12-14T09:02:29Z</time>
      </trkpt>
      <trkpt lat="48.47" lon="2.00203">
        <ele>149.2</ele>
        <time>2023-12-14T09:02:30Z</time>
      </trkpt>
      <trkpt lat="48.46995" lon="2.00207">
        <ele>149.2</ele>
        <time>2023-12-14T09:02:31Z</time>
      </trkpt>
      <trkpt lat="48.4699" lon="2.00212">
        <ele>149.2</ele>
        <time>2023-12-14T09:02:32Z</time>
      </trkpt>
      <trkpt lat="48.46985" lon="2.00217">
        <ele>149.2</ele>
        <time>2023-12-14T09:02:33Z</time>
      </trkpt>
      <trkpt lat="48.46981" lon="2.00223">
        <ele>149.2</ele>
        <time>2023-12-14T09:02:34Z</time>
      </trkpt>
      <trkpt lat="48.46976" lon="2.00228">
        <ele>149.2</ele>
        <time>2023-12-14T09:02:35Z</time>
      </trkpt>
      <trkpt lat="48.46972" lon="2.00234">
        <ele>149.2</ele>
        <time>2023-12-14T09:02:36Z</time>
      </trkpt>
      <trkpt lat="48.46967" lon="2.0024">
        <ele>149.2</ele>
        <time>2023-12-14T09:02:37Z</time>
      </trkpt>
      <trkpt lat="48.46963" lon="2.00245">
        <ele>149.2</ele>
        <time>2023-12-14T09:02:38Z</time>
      </trkpt>
      <trkpt lat="48.46958" lon="2.00251">
        <ele>149.2</ele>
        <time>2023-12-14T09:02:39Z</time>
      </trkpt>
      <trkpt lat="48.46953" lon="2.00257">
        <ele>148.4</ele>
        <time>2023-12-14T09:02:40Z</time>
      </trkpt>
      <trkpt lat="48.46949" lon="2.00262">
        <ele>148.4</ele>
        <time>2023-12-14T09:02:41Z</time>
      </trkpt>
      <trkpt lat="48.46944" lon="2.00268">
        <ele>148.4</ele>
        <time>2023-12-14T09:02:42Z</time>
      </trkpt>
      <trkpt lat="48.46939" lon="2.00274">
        <ele>149.2</ele>
        <time>2023-12-14T09:02:43Z</time>
      </trkpt>
      <trkpt lat="48.46934" lon="2.00279">
        <ele>149.4</ele>
        <time>2023-12-14T09:02:44Z</time>
      </trkpt>
      <trkpt lat="48.46929" lon="2.00285">
        <ele>149.4</ele>
        <time>2023-12-14T09:02:45Z</time>
      </trkpt>
      <trkpt lat="48.46925" lon="2.00291">
        <ele>149.4</ele>
        <time>2023-12-14T09:02:46Z</time>
      </trkpt>
      <trkpt lat="48.4692" lon="2.00297">
        <ele>149.4</ele>
        <time>2023-12-14T09:02:47Z</time>
      </trkpt>
      <trkpt lat="48.46915" lon="2.00303">
        <ele>149.2</ele>
        <time>2023-12-14T09:02:48Z</time>
      </trkpt>
      <trkpt lat="48.4691" lon="2.00309">
        <ele>149.2</ele>
        <time>2023-12-14T09:02:49Z</time>
      </trkpt>
      <trkpt lat="48.46905" lon="2.00314">
        <ele>149.2</ele>
        <time>2023-12-14T09:02:50Z</time>
      </trkpt>
      <trkpt lat="48.46899" lon="2.00319">
        <ele>150</ele>
        <time>2023-12-14T09:02:51Z</time>
      </trkpt>
      <trkpt lat="48.46894" lon="2.00323">
        <ele>150</ele>
        <time>2023-12-14T09:02:52Z</time>
      </trkpt>
      <trkpt lat="48.46888" lon="2.00327">
        <ele>150</ele>
        <time>2023-12-14T09:02:53Z</time>
      </trkpt>
      <trkpt lat="48.46882" lon="2.00331">
        <ele>150</ele>
        <time>2023-12-14T09:02:54Z</time>
      </trkpt>
      <trkpt lat="48.46876" lon="2.00334">
        <ele>150</ele>
        <time>2023-12-14T09:02:55Z</time>
      </trkpt>
      <trkpt lat="48.46869" lon="2.00336">
        <ele>150.6</ele>
        <time>2023-12-14T09:02:56Z</time>
      </trkpt>
      <trkpt lat="48.46863" lon="2.00338">
        <ele>150.6</ele>
        <time>2023-12-14T09:02:57Z</time>
      </trkpt>
      <trkpt lat="48.46857" lon="2.0034">
        <ele>150.6</ele>
        <time>2023-12-14T09:02:58Z</time>
      </trkpt>
      <trkpt lat="48.46851" lon="2.00341">
        <ele>151</ele>
        <time>2023-12-14T09:02:59Z</time>
      </trkpt>
      <trkpt lat="48.46844" lon="2.00343">
        <ele>150.8</ele>
        <time>2023-12-14T09:03:00Z</time>
      </trkpt>
      <trkpt lat="48.46838" lon="2.00344">
        <ele>150.8</ele>
        <time>2023-12-14T09:03:01Z</time>
      </trkpt>
      <trkpt lat="48.46832" lon="2.00345">
        <ele>150.8</ele>
        <time>2023-12-14T09:03:02Z</time>
      </trkpt>
      <trkpt lat="48.46825" lon="2.00346">
        <ele>150.8</ele>
        <time>2023-12-14T09:03:03Z</time>
      </trkpt>
      <trkpt lat="48.46819" lon="2.00347">
        <ele>151</ele>
        <time>2023-12-14T09:03:04Z</time>
      </trkpt>
      <trkpt lat="48.46813" lon="2.00348">
        <ele>151</ele>
        <time>2023-12-14T09:03:05Z</time>
      </trkpt>
      <trkpt lat="48.46807" lon="2.00349">
        <ele>151</ele>
        <time>2023-12-14T09:03:06Z</time>
      </trkpt>
      <trkpt lat="48.46801" lon="2.0035">
        <ele>151.4</ele>
        <time>2023-12-14T09:03:07Z</time>
      </trkpt>
      <trkpt lat="48.46794" lon="2.00351">
        <ele>151.2</ele>
        <time>2023-12-14T09:03:08Z</time>
      </trkpt>
      <trkpt lat="48.46788" lon="2.00352">
        <ele>151.2</ele>
        <time>2023-12-14T09:03:09Z</time>
      </trkpt>
      <trkpt lat="48.46782" lon="2.00353">
        <ele>151.2</ele>
        <time>2023-12-14T09:03:10Z</time>
      </trkpt>
      <trkpt lat="48.46776" lon="2.00353">
        <ele>151.4</ele>
        <time>2023-12-14T09:03:11Z</time>
      </trkpt>
      <trkpt lat="48.46769" lon="2.00354">
        <ele>151.2</ele>
        <time>2023-12-14T09:03:12Z</time>
      </trkpt>
      <trkpt lat="48.46763" lon="2.00355">
        <ele>151.2</ele>
        <time>2023-12-14T09:03:13Z</time>
      </trkpt>
      <trkpt lat="48.46757" lon="2.00356">
        <ele>151.2</ele>
        <time>2023-12-14T09:03:14Z</time>
      </trkpt>
      <trkpt lat="48.46751" lon="2.00357">
        <ele>151.6</ele>
        <time>2023-12-14T09:03:15Z</time>
      </trkpt>
      <trkpt lat="48.46745" lon="2.00357">
        <ele>151.8</ele>
        <time>2023-12-14T09:03:16Z</time>
      </trkpt>
      <trkpt lat="48.46739" lon="2.00358">
        <ele>151.8</ele>
        <time>2023-12-14T09:03:17Z</time>
      </trkpt>
      <trkpt lat="48.46732" lon="2.00358">
        <ele>151.8</ele>
        <time>2023-12-14T09:03:18Z</time>
      </trkpt>
      <trkpt lat="48.46726" lon="2.00359">
        <ele>151.8</ele>
        <time>2023-12-14T09:03:19Z</time>
      </trkpt>
      <trkpt lat="48.4672" lon="2.00359">
        <ele>151.8</ele>
        <time>2023-12-14T09:03:20Z</time>
      </trkpt>
      <trkpt lat="48.46714" lon="2.00359">
        <ele>151.8</ele>
        <time>2023-12-14T09:03:21Z</time>
      </trkpt>
      <trkpt lat="48.46707" lon="2.0036">
        <ele>151.8</ele>
        <time>2023-12-14T09:03:22Z</time>
      </trkpt>
      <trkpt lat="48.46701" lon="2.0036">
        <ele>152.2</ele>
        <time>2023-12-14T09:03:23Z</time>
      </trkpt>
      <trkpt lat="48.46695" lon="2.0036">
        <ele>152.4</ele>
        <time>2023-12-14T09:03:24Z</time>
      </trkpt>
      <trkpt lat="48.46688" lon="2.0036">
        <ele>152.4</ele>
        <time>2023-12-14T09:03:25Z</time>
      </trkpt>
      <trkpt lat="48.46682" lon="2.0036">
        <ele>152.4</ele>
        <time>2023-12-14T09:03:26Z</time>
      </trkpt>
      <trkpt lat="48.46675" lon="2.0036">
        <ele>151.8</ele>
        <time>2023-12-14T09:03:27Z</time>
      </trkpt>
      <trkpt lat="48.46668" lon="2.0036">
        <ele>152.2</ele>
        <time>2023-12-14T09:03:28Z</time>
      </trkpt>
      <trkpt lat="48.46662" lon="2.00359">
        <ele>152.2</ele>
        <time>2023-12-14T09:03:29Z</time>
      </trkpt>
      <trkpt lat="48.46655" lon="2.00359">
        <ele>152.2</ele>
        <time>2023-12-14T09:03:30Z</time>
      </trkpt>
      <trkpt lat="48.46648" lon="2.00358">
        <ele>151.6</ele>
        <time>2023-12-14T09:03:31Z</time>
      </trkpt>
      <trkpt lat="48.46642" lon="2.00357">
        <ele>152</ele>
        <time>2023-12-14T09:03:32Z</time>
      </trkpt>
      <trkpt lat="48.46635" lon="2.00356">
        <ele>152</ele>
        <time>2023-12-14T09:03:33Z</time>
      </trkpt>
      <trkpt lat="48.46628" lon="2.00355">
        <ele>152</ele>
        <time>2023-12-14T09:03:34Z</time>
      </trkpt>
      <trkpt lat="48.46621" lon="2.00353">
        <ele>152</ele>
        <time>2023-12-14T09:03:35Z</time>
      </trkpt>
      <trkpt lat="48.46615" lon="2.00352">
        <ele>151.8</ele>
        <time>2023-12-14T09:03:36Z</time>
      </trkpt>
      <trkpt lat="48.46608" lon="2.0035">
        <ele>151.8</ele>
        <time>2023-12-14T09:03:37Z</time>
      </trkpt>
      <trkpt lat="48.46601" lon="2.00349">
        <ele>151.8</ele>
        <time>2023-12-14T09:03:38Z</time>
      </trkpt>
      <trkpt lat="48.46595" lon="2.00348">
        <ele>151.8</ele>
        <time>2023-12-14T09:03:39Z</time>
      </trkpt>
      <trkpt lat="48.46588" lon="2.00346">
        <ele>151.8</ele>
        <time>2023-12-14T09:03:40Z</time>
      </trkpt>
      <trkpt lat="48.46582" lon="2.00344">
        <ele>151.8</ele>
        <time>2023-12-14T09:03:41Z</time>
      </trkpt>
      <trkpt lat="48.46575" lon="2.00343">
        <ele>151.8</ele>
        <time>2023-12-14T09:03:42Z</time>
      </trkpt>
      <trkpt lat="48.46568" lon="2.00341">
        <ele>151.8</ele>
        <time>2023-12-14T09:03:43Z</time>
      </trkpt>
      <trkpt lat="48.46562" lon="2.00339">
        <ele>151.8</ele>
        <time>2023-12-14T09:03:44Z</time>
      </trkpt>
      <trkpt lat="48.46555" lon="2.00337">
        <ele>151.8</ele>
        <time>2023-12-14T09:03:45Z</time>
      </trkpt>
      <trkpt lat="48.46549" lon="2.00336">
        <ele>151.8</ele>
        <time>2023-12-14T09:03:46Z</time>
      </trkpt>
      <trkpt lat="48.46542" lon="2.00334">
        <ele>151.8</ele>
        <time>2023-12-14T09:03:47Z</time>
      </trkpt>
      <trkpt lat="48.46536" lon="2.00333">
        <ele>151.2</ele>
        <time>2023-12-14T09:03:48Z</time>
      </trkpt>
      <trkpt lat="48.46529" lon="2.00331">
        <ele>151.2</ele>
        <time>2023-12-14T09:03:49Z</time>
      </trkpt>
      <trkpt lat="48.46523" lon="2.0033">
        <ele>151.2</ele>
        <time>2023-12-14T09:03:50Z</time>
      </trkpt>
      <trkpt lat="48.46516" lon="2.00328">
        <ele>152.2</ele>
        <time>2023-12-14T09:03:51Z</time>
      </trkpt>
      <trkpt lat="48.4651" lon="2.00327">
        <ele>152</ele>
        <time>2023-12-14T09:03:52Z</time>
      </trkpt>
      <trkpt lat="48.46503" lon="2.00325">
        <ele>152</ele>
        <time>2023-12-14T09:03:53Z</time>
      </trkpt>
      <trkpt lat="48.46497" lon="2.00324">
        <ele>152</ele>
        <time>2023-12-14T09:03:54Z</time>
      </trkpt>
      <trkpt lat="48.4649" lon="2.00323">
        <ele>152.4</ele>
        <time>2023-12-14T09:03:55Z</time>
      </trkpt>
      <trkpt lat="48.46484" lon="2.00321">
        <ele>152.2</ele>
        <time>2023-12-14T09:03:56Z</time>
      </trkpt>
      <trkpt lat="48.46477" lon="2.00321">
        <ele>152.2</ele>
        <time>2023-12-14T09:03:57Z</time>
      </trkpt>
      <trkpt lat="48.46471" lon="2.0032">
        <ele>152.2</ele>
        <time>2023-12-14T09:03:58Z</time>
      </trkpt>
      <trkpt lat="48.46464" lon="2.00319">
        <ele>153</ele>
        <time>2023-12-14T09:03:59Z</time>
      </trkpt>
      <trkpt lat="48.46458" lon="2.00318">
        <ele>152.8</ele>
        <time>2023-12-14T09:04:00Z</time>
      </trkpt>
      <trkpt lat="48.46452" lon="2.00318">
        <ele>152.8</ele>
        <time>2023-12-14T09:04:01Z</time>
      </trkpt>
      <trkpt lat="48.46445" lon="2.00317">
        <ele>152.8</ele>
        <time>2023-12-14T09:04:02Z</time>
      </trkpt>
      <trkpt lat="48.46439" lon="2.00317">
        <ele>153.2</ele>
        <time>2023-12-14T09:04:03Z</time>
      </trkpt>
      <trkpt lat="48.46433" lon="2.00316">
        <ele>153.2</ele>
        <time>2023-12-14T09:04:04Z</time>
      </trkpt>
      <trkpt lat="48.46426" lon="2.00316">
        <ele>153.2</ele>
        <time>2023-12-14T09:04:05Z</time>
      </trkpt>
      <trkpt lat="48.4642" lon="2.00316">
        <ele>153.2</ele>
        <time>2023-12-14T09:04:06Z</time>
      </trkpt>
      <trkpt lat="48.46414" lon="2.00316">
        <ele>153.2</ele>
        <time>2023-12-14T09:04:07Z</time>
      </trkpt>
      <trkpt lat="48.46407" lon="2.00316">
        <ele>153.4</ele>
        <time>2023-12-14T09:04:08Z</time>
      </trkpt>
      <trkpt lat="48.46401" lon="2.00317">
        <ele>153.4</ele>
        <time>2023-12-14T09:04:09Z</time>
      </trkpt>
      <trkpt lat="48.46395" lon="2.00317">
        <ele>153.4</ele>
        <time>2023-12-14T09:04:10Z</time>
      </trkpt>
      <trkpt lat="48.46388" lon="2.00318">
        <ele>153.8</ele>
        <time>2023-12-14T09:04:11Z</time>
      </trkpt>
      <trkpt lat="48.46382" lon="2.00319">
        <ele>153.6</ele>
        <time>2023-12-14T09:04:12Z</time>
      </trkpt>
      <trkpt lat="48.46376" lon="2.00319">
        <ele>153.6</ele>
        <time>2023-12-14T09:04:13Z</time>
      </trkpt>
      <trkpt lat="48.46369" lon="2.0032">
        <ele>153.6</ele>
        <time>2023-12-14T09:04:14Z</time>
      </trkpt>
      <trkpt lat="48.46363" lon="2.00322">
        <ele>153.6</ele>
        <time>2023-12-14T09:04:15Z</time>
      </trkpt>
      <trkpt lat="48.46357" lon="2.00322">
        <ele>154.6</ele>
        <time>2023-12-14T09:04:16Z</time>
      </trkpt>
      <trkpt lat="48.4635" lon="2.00323">
        <ele>154.6</ele>
        <time>2023-12-14T09:04:17Z</time>
      </trkpt>
      <trkpt lat="48.46344" lon="2.00324">
        <ele>154.6</ele>
        <time>2023-12-14T09:04:18Z</time>
      </trkpt>
      <trkpt lat="48.46338" lon="2.00326">
        <ele>154.6</ele>
        <time>2023-12-14T09:04:19Z</time>
      </trkpt>
      <trkpt lat="48.46332" lon="2.00327">
        <ele>154.8</ele>
        <time>2023-12-14T09:04:20Z</time>
      </trkpt>
      <trkpt lat="48.46325" lon="2.00328">
        <ele>154.8</ele>
        <time>2023-12-14T09:04:21Z</time>
      </trkpt>
      <trkpt lat="48.46319" lon="2.00329">
        <ele>154.8</ele>
        <time>2023-12-14T09:04:22Z</time>
      </trkpt>
      <trkpt lat="48.46313" lon="2.00331">
        <ele>154.8</ele>
        <time>2023-12-14T09:04:23Z</time>
      </trkpt>
      <trkpt lat="48.46306" lon="2.00332">
        <ele>155</ele>
        <time>2023-12-14T09:04:24Z</time>
      </trkpt>
      <trkpt lat="48.463" lon="2.00333">
        <ele>155</ele>
        <time>2023-12-14T09:04:25Z</time>
      </trkpt>
      <trkpt lat="48.46294" lon="2.00334">
        <ele>155</ele>
        <time>2023-12-14T09:04:26Z</time>
      </trkpt>
      <trkpt lat="48.46287" lon="2.00336">
        <ele>155</ele>
        <time>2023-12-14T09:04:27Z</time>
      </trkpt>
      <trkpt lat="48.46281" lon="2.00337">
        <ele>154.8</ele>
        <time>2023-12-14T09:04:28Z</time>
      </trkpt>
      <trkpt lat="48.46274" lon="2.00338">
        <ele>154.8</ele>
        <time>2023-12-14T09:04:29Z</time>
      </trkpt>
      <trkpt lat="48.46267" lon="2.0034">
        <ele>154.8</ele>
        <time>2023-12-14T09:04:30Z</time>
      </trkpt>
      <trkpt lat="48.46261" lon="2.00341">
        <ele>154.4</ele>
        <time>2023-12-14T09:04:31Z</time>
      </trkpt>
      <trkpt lat="48.46254" lon="2.00342">
        <ele>154.8</ele>
        <time>2023-12-14T09:04:32Z</time>
      </trkpt>
      <trkpt lat="48.46247" lon="2.00343">
        <ele>154.8</ele>
        <time>2023-12-14T09:04:33Z</time>
      </trkpt>
      <trkpt lat="48.4624" lon="2.00344">
        <ele>154.8</ele>
        <time>2023-12-14T09:04:34Z</time>
      </trkpt>
      <trkpt lat="48.46234" lon="2.00346">
        <ele>154.4</ele>
        <time>2023-12-14T09:04:35Z</time>
      </trkpt>
      <trkpt lat="48.46227" lon="2.00347">
        <ele>154</ele>
        <time>2023-12-14T09:04:36Z</time>
      </trkpt>
      <trkpt lat="48.4622" lon="2.00349">
        <ele>154</ele>
        <time>2023-12-14T09:04:37Z</time>
      </trkpt>
      <trkpt lat="48.46213" lon="2.0035">
        <ele>154</ele>
        <time>2023-12-14T09:04:38Z</time>
      </trkpt>
      <trkpt lat="48.46206" lon="2.00352">
        <ele>154</ele>
        <time>2023-12-14T09:04:39Z</time>
      </trkpt>
      <trkpt lat="48.46199" lon="2.00353">
        <ele>153.8</ele>
        <time>2023-12-14T09:04:40Z</time>
      </trkpt>
      <trkpt lat="48.46192" lon="2.00354">
        <ele>153.8</ele>
        <time>2023-12-14T09:04:41Z</time>
      </trkpt>
      <trkpt lat="48.46185" lon="2.00356">
        <ele>153.8</ele>
        <time>2023-12-14T09:04:42Z</time>
      </trkpt>
      <trkpt lat="48.46178" lon="2.00357">
        <ele>153.8</ele>
        <time>2023-12-14T09:04:43Z</time>
      </trkpt>
      <trkpt lat="48.46171" lon="2.00358">
        <ele>153.4</ele>
        <time>2023-12-14T09:04:44Z</time>
      </trkpt>
      <trkpt lat="48.46163" lon="2.00359">
        <ele>153.4</ele>
        <time>2023-12-14T09:04:45Z</time>
      </trkpt>
      <trkpt lat="48.46156" lon="2.00361">
        <ele>153.4</ele>
        <time>2023-12-14T09:04:46Z</time>
      </trkpt>
      <trkpt lat="48.46149" lon="2.00362">
        <ele>153.4</ele>
        <time>2023-12-14T09:04:47Z</time>
      </trkpt>
      <trkpt lat="48.46142" lon="2.00363">
        <ele>153.8</ele>
        <time>2023-12-14T09:04:48Z</time>
      </trkpt>
      <trkpt lat="48.46135" lon="2.00364">
        <ele>153.8</ele>
        <time>2023-12-14T09:04:49Z</time>
      </trkpt>
      <trkpt lat="48.46127" lon="2.00365">
        <ele>153.8</ele>
        <time>2023-12-14T09:04:50Z</time>
      </trkpt>
      <trkpt lat="48.4612" lon="2.00366">
        <ele>153.2</ele>
        <time>2023-12-14T09:04:51Z</time>
      </trkpt>
      <trkpt lat="48.46113" lon="2.00367">
        <ele>153</ele>
        <time>2023-12-14T09:04:52Z</time>
      </trkpt>
      <trkpt lat="48.46105" lon="2.00367">
        <ele>153</ele>
        <time>2023-12-14T09:04:53Z</time>
      </trkpt>
      <trkpt lat="48.46098" lon="2.00368">
        <ele>153</ele>
        <time>2023-12-14T09:04:54Z</time>
      </trkpt>
      <trkpt lat="48.4609" lon="2.00368">
        <ele>153</ele>
        <time>2023-12-14T09:04:55Z</time>
      </trkpt>
      <trkpt lat="48.46083" lon="2.00368">
        <ele>152.2</ele>
        <time>2023-12-14T09:04:56Z</time>
      </trkpt>
      <trkpt lat="48.46075" lon="2.00367">
        <ele>152.2</ele>
        <time>2023-12-14T09:04:57Z</time>
      </trkpt>
      <trkpt lat="48.46067" lon="2.00367">
        <ele>152.2</ele>
        <time>2023-12-14T09:04:58Z</time>
      </trkpt>
      <trkpt lat="48.46059" lon="2.00366">
        <ele>152.2</ele>
        <time>2023-12-14T09:04:59Z</time>
      </trkpt>
      <trkpt lat="48.46052" lon="2.00366">
        <ele>152.2</ele>
        <time>2023-12-14T09:05:00Z</time>
      </trkpt>
      <trkpt lat="48.46044" lon="2.00365">
        <ele>152.2</ele>
        <time>2023-12-14T09:05:01Z</time>
      </trkpt>
      <trkpt lat="48.46036" lon="2.00364">
        <ele>152.2</ele>
        <time>2023-12-14T09:05:02Z</time>
      </trkpt>
      <trkpt lat="48.46028" lon="2.00363">
        <ele>152.2</ele>
        <time>2023-12-14T09:05:03Z</time>
      </trkpt>
      <trkpt lat="48.46021" lon="2.00361">
        <ele>152</ele>
        <time>2023-12-14T09:05:04Z</time>
      </trkpt>
      <trkpt lat="48.46013" lon="2.0036">
        <ele>152</ele>
        <time>2023-12-14T09:05:05Z</time>
      </trkpt>
      <trkpt lat="48.46005" lon="2.00359">
        <ele>152</ele>
        <time>2023-12-14T09:05:06Z</time>
      </trkpt>
      <trkpt lat="48.45997" lon="2.00358">
        <ele>152.2</ele>
        <time>2023-12-14T09:05:07Z</time>
      </trkpt>
      <trkpt lat="48.4599" lon="2.00357">
        <ele>151.8</ele>
        <time>2023-12-14T09:05:08Z</time>
      </trkpt>
      <trkpt lat="48.45982" lon="2.00355">
        <ele>151.8</ele>
        <time>2023-12-14T09:05:09Z</time>
      </trkpt>
      <trkpt lat="48.45974" lon="2.00354">
        <ele>151.8</ele>
        <time>2023-12-14T09:05:10Z</time>
      </trkpt>
      <trkpt lat="48.45967" lon="2.00353">
        <ele>151.8</ele>
        <time>2023-12-14T09:05:11Z</time>
      </trkpt>
      <trkpt lat="48.45959" lon="2.00352">
        <ele>152.4</ele>
        <time>2023-12-14T09:05:12Z</time>
      </trkpt>
      <trkpt lat="48.45952" lon="2.0035">
        <ele>152.4</ele>
        <time>2023-12-14T09:05:13Z</time>
      </trkpt>
      <trkpt lat="48.45944" lon="2.00349">
        <ele>152.4</ele>
        <time>2023-12-14T09:05:14Z</time>
      </trkpt>
      <trkpt lat="48.45937" lon="2.00347">
        <ele>151.6</ele>
        <time>2023-12-14T09:05:15Z</time>
      </trkpt>
      <trkpt lat="48.45929" lon="2.00345">
        <ele>152</ele>
        <time>2023-12-14T09:05:16Z</time>
      </trkpt>
      <trkpt lat="48.45922" lon="2.00342">
        <ele>152</ele>
        <time>2023-12-14T09:05:17Z</time>
      </trkpt>
      <trkpt lat="48.45915" lon="2.00339">
        <ele>152</ele>
        <time>2023-12-14T09:05:18Z</time>
      </trkpt>
      <trkpt lat="48.45908" lon="2.00336">
        <ele>152</ele>
        <time>2023-12-14T09:05:19Z</time>
      </trkpt>
      <trkpt lat="48.45901" lon="2.00333">
        <ele>152</ele>
        <time>2023-12-14T09:05:20Z</time>
      </trkpt>
      <trkpt lat="48.45894" lon="2.0033">
        <ele>152</ele>
        <time>2023-12-14T09:05:21Z</time>
      </trkpt>
      <trkpt lat="48.45887" lon="2.00327">
        <ele>152</ele>
        <time>2023-12-14T09:05:22Z</time>
      </trkpt>
      <trkpt lat="48.4588" lon="2.00324">
        <ele>152</ele>
        <time>2023-12-14T09:05:23Z</time>
      </trkpt>
      <trkpt lat="48.45873" lon="2.00322">
        <ele>152.4</ele>
        <time>2023-12-14T09:05:24Z</time>
      </trkpt>
      <trkpt lat="48.45866" lon="2.00319">
        <ele>152.4</ele>
        <time>2023-12-14T09:05:25Z</time>
      </trkpt>
      <trkpt lat="48.4586" lon="2.00316">
        <ele>152.4</ele>
        <time>2023-12-14T09:05:26Z</time>
      </trkpt>
      <trkpt lat="48.45853" lon="2.00313">
        <ele>152.4</ele>
        <time>2023-12-14T09:05:27Z</time>
      </trkpt>
      <trkpt lat="48.45847" lon="2.0031">
        <ele>152.8</ele>
        <time>2023-12-14T09:05:28Z</time>
      </trkpt>
      <trkpt lat="48.4584" lon="2.00308">
        <ele>152.8</ele>
        <time>2023-12-14T09:05:29Z</time>
      </trkpt>
      <trkpt lat="48.45833" lon="2.00306">
        <ele>152.8</ele>
        <time>2023-12-14T09:05:30Z</time>
      </trkpt>
      <trkpt lat="48.45827" lon="2.00303">
        <ele>152.8</ele>
        <time>2023-12-14T09:05:31Z</time>
      </trkpt>
      <trkpt lat="48.4582" lon="2.00301">
        <ele>153.4</ele>
        <time>2023-12-14T09:05:32Z</time>
      </trkpt>
      <trkpt lat="48.45814" lon="2.00299">
        <ele>153.4</ele>
        <time>2023-12-14T09:05:33Z</time>
      </trkpt>
      <trkpt lat="48.45807" lon="2.00297">
        <ele>153.4</ele>
        <time>2023-12-14T09:05:34Z</time>
      </trkpt>
      <trkpt lat="48.458" lon="2.00295">
        <ele>153.4</ele>
        <time>2023-12-14T09:05:35Z</time>
      </trkpt>
      <trkpt lat="48.45794" lon="2.00293">
        <ele>152.6</ele>
        <time>2023-12-14T09:05:36Z</time>
      </trkpt>
      <trkpt lat="48.45787" lon="2.0029">
        <ele>152.6</ele>
        <time>2023-12-14T09:05:37Z</time>
      </trkpt>
      <trkpt lat="48.4578" lon="2.00289">
        <ele>152.6</ele>
        <time>2023-12-14T09:05:38Z</time>
      </trkpt>
      <trkpt lat="48.45773" lon="2.00287">
        <ele>152.8</ele>
        <time>2023-12-14T09:05:39Z</time>
      </trkpt>
      <trkpt lat="48.45766" lon="2.00285">
        <ele>153.6</ele>
        <time>2023-12-14T09:05:40Z</time>
      </trkpt>
      <trkpt lat="48.45759" lon="2.00284">
        <ele>153.6</ele>
        <time>2023-12-14T09:05:41Z</time>
      </trkpt>
      <trkpt lat="48.45752" lon="2.00282">
        <ele>153.6</ele>
        <time>2023-12-14T09:05:42Z</time>
      </trkpt>
      <trkpt lat="48.45745" lon="2.00281">
        <ele>152.8</ele>
        <time>2023-12-14T09:05:43Z</time>
      </trkpt>
      <trkpt lat="48.45739" lon="2.00279">
        <ele>152.8</ele>
        <time>2023-12-14T09:05:44Z</time>
      </trkpt>
      <trkpt lat="48.45732" lon="2.00277">
        <ele>152.8</ele>
        <time>2023-12-14T09:05:45Z</time>
      </trkpt>
      <trkpt lat="48.45725" lon="2.00276">
        <ele>152.8</ele>
        <time>2023-12-14T09:05:46Z</time>
      </trkpt>
      <trkpt lat="48.45718" lon="2.00274">
        <ele>152.6</ele>
        <time>2023-12-14T09:05:47Z</time>
      </trkpt>
      <trkpt lat="48.45711" lon="2.00272">
        <ele>152.8</ele>
        <time>2023-12-14T09:05:48Z</time>
      </trkpt>
      <trkpt lat="48.45704" lon="2.00271">
        <ele>152.8</ele>
        <time>2023-12-14T09:05:49Z</time>
      </trkpt>
      <trkpt lat="48.45697" lon="2.00269">
        <ele>152.8</ele>
        <time>2023-12-14T09:05:50Z</time>
      </trkpt>
      <trkpt lat="48.4569" lon="2.00267">
        <ele>152.8</ele>
        <time>2023-12-14T09:05:51Z</time>
      </trkpt>
      <trkpt lat="48.45683" lon="2.00266">
        <ele>152</ele>
        <time>2023-12-14T09:05:52Z</time>
      </trkpt>
      <trkpt lat="48.45676" lon="2.00264">
        <ele>152</ele>
        <time>2023-12-14T09:05:53Z</time>
      </trkpt>
      <trkpt lat="48.45669" lon="2.00263">
        <ele>152</ele>
        <time>2023-12-14T09:05:54Z</time>
      </trkpt>
      <trkpt lat="48.45662" lon="2.00262">
        <ele>152.2</ele>
        <time>2023-12-14T09:05:55Z</time>
      </trkpt>
      <trkpt lat="48.45654" lon="2.0026">
        <ele>153.2</ele>
        <time>2023-12-14T09:05:56Z</time>
      </trkpt>
      <trkpt lat="48.45647" lon="2.00259">
        <ele>153.2</ele>
        <time>2023-12-14T09:05:57Z</time>
      </trkpt>
      <trkpt lat="48.4564" lon="2.00259">
        <ele>153.2</ele>
        <time>2023-12-14T09:05:58Z</time>
      </trkpt>
      <trkpt lat="48.45633" lon="2.00258">
        <ele>152.4</ele>
        <time>2023-12-14T09:05:59Z</time>
      </trkpt>
      <trkpt lat="48.45625" lon="2.00258">
        <ele>152</ele>
        <time>2023-12-14T09:06:00Z</time>
      </trkpt>
      <trkpt lat="48.45618" lon="2.00258">
        <ele>152</ele>
        <time>2023-12-14T09:06:01Z</time>
      </trkpt>
      <trkpt lat="48.4561" lon="2.00258">
        <ele>152</ele>
        <time>2023-12-14T09:06:02Z</time>
      </trkpt>
      <trkpt lat="48.45603" lon="2.00258">
        <ele>152</ele>
        <time>2023-12-14T09:06:03Z</time>
      </trkpt>
      <trkpt lat="48.45596" lon="2.00259">
        <ele>152.2</ele>
        <time>2023-12-14T09:06:04Z</time>
      </trkpt>
      <trkpt lat="48.45588" lon="2.00259">
        <ele>152.2</ele>
        <time>2023-12-14T09:06:05Z</time>
      </trkpt>
      <trkpt lat="48.45581" lon="2.00259">
        <ele>152.2</ele>
        <time>2023-12-14T09:06:06Z</time>
      </trkpt>
      <trkpt lat="48.45574" lon="2.0026">
        <ele>151.8</ele>
        <time>2023-12-14T09:06:07Z</time>
      </trkpt>
      <trkpt lat="48.45566" lon="2.0026">
        <ele>152</ele>
        <time>2023-12-14T09:06:08Z</time>
      </trkpt>
      <trkpt lat="48.45559" lon="2.00261">
        <ele>152</ele>
        <time>2023-12-14T09:06:09Z</time>
      </trkpt>
      <trkpt lat="48.45551" lon="2.00262">
        <ele>152</ele>
        <time>2023-12-14T09:06:10Z</time>
      </trkpt>
      <trkpt lat="48.45544" lon="2.00263">
        <ele>152</ele>
        <time>2023-12-14T09:06:11Z</time>
      </trkpt>
      <trkpt lat="48.45536" lon="2.00264">
        <ele>152.4</ele>
        <time>2023-12-14T09:06:12Z</time>
      </trkpt>
      <trkpt lat="48.45529" lon="2.00265">
        <ele>152.4</ele>
        <time>2023-12-14T09:06:13Z</time>
      </trkpt>
      <trkpt lat="48.45522" lon="2.00265">
        <ele>152.4</ele>
        <time>2023-12-14T09:06:14Z</time>
      </trkpt>
      <trkpt lat="48.45514" lon="2.00266">
        <ele>151.8</ele>
        <time>2023-12-14T09:06:15Z</time>
      </trkpt>
      <trkpt lat="48.45506" lon="2.00267">
        <ele>151.2</ele>
        <time>2023-12-14T09:06:16Z</time>
      </trkpt>
      <trkpt lat="48.45499" lon="2.00268">
        <ele>151.2</ele>
        <time>2023-12-14T09:06:17Z</time>
      </trkpt>
      <trkpt lat="48.45491" lon="2.00268">
        <ele>151.2</ele>
        <time>2023-12-14T09:06:18Z</time>
      </trkpt>
      <trkpt lat="48.45483" lon="2.00268">
        <ele>151.2</ele>
        <time>2023-12-14T09:06:19Z</time>
      </trkpt>
      <trkpt lat="48.45476" lon="2.00269">
        <ele>151.8</ele>
        <time>2023-12-14T09:06:20Z</time>
      </trkpt>
      <trkpt lat="48.45468" lon="2.00269">
        <ele>151.8</ele>
        <time>2023-12-14T09:06:21Z</time>
      </trkpt>
      <trkpt lat="48.4546" lon="2.0027">
        <ele>151.8</ele>
        <time>2023-12-14T09:06:22Z</time>
      </trkpt>
      <trkpt lat="48.45453" lon="2.00271">
        <ele>150.8</ele>
        <time>2023-12-14T09:06:23Z</time>
      </trkpt>
      <trkpt lat="48.45445" lon="2.00271">
        <ele>151.2</ele>
        <time>2023-12-14T09:06:24Z</time>
      </trkpt>
      <trkpt lat="48.45437" lon="2.00271">
        <ele>151.2</ele>
        <time>2023-12-14T09:06:25Z</time>
      </trkpt>
      <trkpt lat="48.4543" lon="2.00271">
        <ele>151.2</ele>
        <time>2023-12-14T09:06:26Z</time>
      </trkpt>
      <trkpt lat="48.45422" lon="2.00271">
        <ele>151.2</ele>
        <time>2023-12-14T09:06:27Z</time>
      </trkpt>
      <trkpt lat="48.45414" lon="2.00271">
        <ele>151.2</ele>
        <time>2023-12-14T09:06:28Z</time>
      </trkpt>
      <trkpt lat="48.45407" lon="2.00271">
        <ele>151.2</ele>
        <time>2023-12-14T09:06:29Z</time>
      </trkpt>
      <trkpt lat="48.45399" lon="2.00271">
        <ele>151.2</ele>
        <time>2023-12-14T09:06:30Z</time>
      </trkpt>
      <trkpt lat="48.45391" lon="2.00271">
        <ele>151</ele>
        <time>2023-12-14T09:06:31Z</time>
      </trkpt>
      <trkpt lat="48.45383" lon="2.00271">
        <ele>151.2</ele>
        <time>2023-12-14T09:06:32Z</time>
      </trkpt>
      <trkpt lat="48.45375" lon="2.00271">
        <ele>151.2</ele>
        <time>2023-12-14T09:06:33Z</time>
      </trkpt>
      <trkpt lat="48.45368" lon="2.00271">
        <ele>151.2</ele>
        <time>2023-12-14T09:06:34Z</time>
      </trkpt>
      <trkpt lat="48.4536" lon="2.00271">
        <ele>150.8</ele>
        <time>2023-12-14T09:06:35Z</time>
      </trkpt>
      <trkpt lat="48.45352" lon="2.00271">
        <ele>150.2</ele>
        <time>2023-12-14T09:06:36Z</time>
      </trkpt>
      <trkpt lat="48.45345" lon="2.00271">
        <ele>150.2</ele>
        <time>2023-12-14T09:06:37Z</time>
      </trkpt>
      <trkpt lat="48.45337" lon="2.00271">
        <ele>150.2</ele>
        <time>2023-12-14T09:06:38Z</time>
      </trkpt>
      <trkpt lat="48.4533" lon="2.00272">
        <ele>150.2</ele>
        <time>2023-12-14T09:06:39Z</time>
      </trkpt>
      <trkpt lat="48.45323" lon="2.00272">
        <ele>150.4</ele>
        <time>2023-12-14T09:06:40Z</time>
      </trkpt>
      <trkpt lat="48.45315" lon="2.00272">
        <ele>150.4</ele>
        <time>2023-12-14T09:06:41Z</time>
      </trkpt>
      <trkpt lat="48.45308" lon="2.00272">
        <ele>150.4</ele>
        <time>2023-12-14T09:06:42Z</time>
      </trkpt>
      <trkpt lat="48.45301" lon="2.00272">
        <ele>150.2</ele>
        <time>2023-12-14T09:06:43Z</time>
      </trkpt>
      <trkpt lat="48.45294" lon="2.00271">
        <ele>149.8</ele>
        <time>2023-12-14T09:06:44Z</time>
      </trkpt>
      <trkpt lat="48.45287" lon="2.00271">
        <ele>149.8</ele>
        <time>2023-12-14T09:06:45Z</time>
      </trkpt>
      <trkpt lat="48.4528" lon="2.00272">
        <ele>149.8</ele>
        <time>2023-12-14T09:06:46Z</time>
      </trkpt>
      <trkpt lat="48.45273" lon="2.00272">
        <ele>149.8</ele>
        <time>2023-12-14T09:06:47Z</time>
      </trkpt>
      <trkpt lat="48.45266" lon="2.00272">
        <ele>149.6</ele>
        <time>2023-12-14T09:06:48Z</time>
      </trkpt>
      <trkpt lat="48.45259" lon="2.00271">
        <ele>149.6</ele>
        <time>2023-12-14T09:06:49Z</time>
      </trkpt>
      <trkpt lat="48.45253" lon="2.00269">
        <ele>149.6</ele>
        <time>2023-12-14T09:06:50Z</time>
      </trkpt>
      <trkpt lat="48.45246" lon="2.00269">
        <ele>149.6</ele>
        <time>2023-12-14T09:06:51Z</time>
      </trkpt>
      <trkpt lat="48.4524" lon="2.00267">
        <ele>149.6</ele>
        <time>2023-12-14T09:06:52Z</time>
      </trkpt>
      <trkpt lat="48.45233" lon="2.00266">
        <ele>149.6</ele>
        <time>2023-12-14T09:06:53Z</time>
      </trkpt>
      <trkpt lat="48.45227" lon="2.00265">
        <ele>149.6</ele>
        <time>2023-12-14T09:06:54Z</time>
      </trkpt>
      <trkpt lat="48.45221" lon="2.00264">
        <ele>149.6</ele>
        <time>2023-12-14T09:06:55Z</time>
      </trkpt>
      <trkpt lat="48.45214" lon="2.00263">
        <ele>149.6</ele>
        <time>2023-12-14T09:06:56Z</time>
      </trkpt>
      <trkpt lat="48.45208" lon="2.00263">
        <ele>149.6</ele>
        <time>2023-12-14T09:06:57Z</time>
      </trkpt>
      <trkpt lat="48.45201" lon="2.00263">
        <ele>149.6</ele>
        <time>2023-12-14T09:06:58Z</time>
      </trkpt>
      <trkpt lat="48.45194" lon="2.00263">
        <ele>149.6</ele>
        <time>2023-12-14T09:06:59Z</time>
      </trkpt>
      <trkpt lat="48.45187" lon="2.00263">
        <ele>149</ele>
        <time>2023-12-14T09:07:00Z</time>
      </trkpt>
      <trkpt lat="48.4518" lon="2.00262">
        <ele>149</ele>
        <time>2023-12-14T09:07:01Z</time>
      </trkpt>
      <trkpt lat="48.45173" lon="2.00259">
        <ele>149</ele>
        <time>2023-12-14T09:07:02Z</time>
      </trkpt>
      <trkpt lat="48.45166" lon="2.00254">
        <ele>148.4</ele>
        <time>2023-12-14T09:07:03Z</time>
      </trkpt>
      <trkpt lat="48.4516" lon="2.00248">
        <ele>148.4</ele>
        <time>2023-12-14T09:07:04Z</time>
      </trkpt>
      <trkpt lat="48.45154" lon="2.00243">
        <ele>148.4</ele>
        <time>2023-12-14T09:07:05Z</time>
      </trkpt>
      <trkpt lat="48.45148" lon="2.00239">
        <ele>148.4</ele>
        <time>2023-12-14T09:07:06Z</time>
      </trkpt>
      <trkpt lat="48.45141" lon="2.00239">
        <ele>149.4</ele>
        <time>2023-12-14T09:07:07Z</time>
      </trkpt>
      <trkpt lat="48.45134" lon="2.00241">
        <ele>151</ele>
        <time>2023-12-14T09:07:08Z</time>
      </trkpt>
      <trkpt lat="48.45128" lon="2.00245">
        <ele>151</ele>
        <time>2023-12-14T09:07:09Z</time>
      </trkpt>
      <trkpt lat="48.45122" lon="2.0025">
        <ele>151</ele>
        <time>2023-12-14T09:07:10Z</time>
      </trkpt>
      <trkpt lat="48.45116" lon="2.00256">
        <ele>150</ele>
        <time>2023-12-14T09:07:11Z</time>
      </trkpt>
      <trkpt lat="48.4511" lon="2.00262">
        <ele>149.2</ele>
        <time>2023-12-14T09:07:12Z</time>
      </trkpt>
      <trkpt lat="48.45103" lon="2.00267">
        <ele>149.2</ele>
        <time>2023-12-14T09:07:13Z</time>
      </trkpt>
      <trkpt lat="48.45096" lon="2.0027">
        <ele>149.2</ele>
        <time>2023-12-14T09:07:14Z</time>
      </trkpt>
      <trkpt lat="48.45088" lon="2.00272">
        <ele>148.8</ele>
        <time>2023-12-14T09:07:15Z</time>
      </trkpt>
      <trkpt lat="48.45081" lon="2.00274">
        <ele>149</ele>
        <time>2023-12-14T09:07:16Z</time>
      </trkpt>
      <trkpt lat="48.45074" lon="2.00274">
        <ele>149</ele>
        <time>2023-12-14T09:07:17Z</time>
      </trkpt>
      <trkpt lat="48.45067" lon="2.00273">
        <ele>149</ele>
        <time>2023-12-14T09:07:18Z</time>
      </trkpt>
      <trkpt lat="48.4506" lon="2.00272">
        <ele>148.2</ele>
        <time>2023-12-14T09:07:19Z</time>
      </trkpt>
      <trkpt lat="48.45053" lon="2.00271">
        <ele>147.8</ele>
        <time>2023-12-14T09:07:20Z</time>
      </trkpt>
      <trkpt lat="48.45046" lon="2.00269">
        <ele>147.8</ele>
        <time>2023-12-14T09:07:21Z</time>
      </trkpt>
      <trkpt lat="48.45039" lon="2.00268">
        <ele>147.8</ele>
        <time>2023-12-14T09:07:22Z</time>
      </trkpt>
      <trkpt lat="48.45032" lon="2.00267">
        <ele>148.4</ele>
        <time>2023-12-14T09:07:23Z</time>
      </trkpt>
      <trkpt lat="48.45025" lon="2.00265">
        <ele>148.2</ele>
        <time>2023-12-14T09:07:24Z</time>
      </trkpt>
      <trkpt lat="48.45018" lon="2.00264">
        <ele>148.2</ele>
        <time>2023-12-14T09:07:25Z</time>
      </trkpt>
      <trkpt lat="48.45012" lon="2.00263">
        <ele>148.2</ele>
        <time>2023-12-14T09:07:26Z</time>
      </trkpt>
      <trkpt lat="48.45005" lon="2.00262">
        <ele>148.6</ele>
        <time>2023-12-14T09:07:27Z</time>
      </trkpt>
      <trkpt lat="48.44998" lon="2.0026">
        <ele>148.4</ele>
        <time>2023-12-14T09:07:28Z</time>
      </trkpt>
      <trkpt lat="48.44991" lon="2.00259">
        <ele>148.4</ele>
        <time>2023-12-14T09:07:29Z</time>
      </trkpt>
      <trkpt lat="48.44984" lon="2.00257">
        <ele>148.4</ele>
        <time>2023-12-14T09:07:30Z</time>
      </trkpt>
      <trkpt lat="48.44977" lon="2.00256">
        <ele>148.4</ele>
        <time>2023-12-14T09:07:31Z</time>
      </trkpt>
      <trkpt lat="48.4497" lon="2.00255">
        <ele>147.4</ele>
        <time>2023-12-14T09:07:32Z</time>
      </trkpt>
      <trkpt lat="48.44963" lon="2.00256">
        <ele>147.4</ele>
        <time>2023-12-14T09:07:33Z</time>
      </trkpt>
      <trkpt lat="48.44956" lon="2.00256">
        <ele>147.4</ele>
        <time>2023-12-14T09:07:34Z</time>
      </trkpt>
      <trkpt lat="48.44949" lon="2.00256">
        <ele>147.8</ele>
        <time>2023-12-14T09:07:35Z</time>
      </trkpt>
      <trkpt lat="48.44942" lon="2.00257">
        <ele>148</ele>
        <time>2023-12-14T09:07:36Z</time>
      </trkpt>
      <trkpt lat="48.44935" lon="2.00258">
        <ele>148</ele>
        <time>2023-12-14T09:07:37Z</time>
      </trkpt>
      <trkpt lat="48.44928" lon="2.00259">
        <ele>148</ele>
        <time>2023-12-14T09:07:38Z</time>
      </trkpt>
      <trkpt lat="48.4492" lon="2.0026">
        <ele>148</ele>
        <time>2023-12-14T09:07:39Z</time>
      </trkpt>
      <trkpt lat="48.44913" lon="2.00262">
        <ele>147</ele>
        <time>2023-12-14T09:07:40Z</time>
      </trkpt>
      <trkpt lat="48.44906" lon="2.00264">
        <ele>147</ele>
        <time>2023-12-14T09:07:41Z</time>
      </trkpt>
      <trkpt lat="48.44899" lon="2.00266">
        <ele>147</ele>
        <time>2023-12-14T09:07:42Z</time>
      </trkpt>
      <trkpt lat="48.44892" lon="2.00268">
        <ele>147</ele>
        <time>2023-12-14T09:07:43Z</time>
      </trkpt>
      <trkpt lat="48.44885" lon="2.0027">
        <ele>147.2</ele>
        <time>2023-12-14T09:07:44Z</time>
      </trkpt>
      <trkpt lat="48.44878" lon="2.00273">
        <ele>147.2</ele>
        <time>2023-12-14T09:07:45Z</time>
      </trkpt>
      <trkpt lat="48.44871" lon="2.00275">
        <ele>147.2</ele>
        <time>2023-12-14T09:07:46Z</time>
      </trkpt>
      <trkpt lat="48.44864" lon="2.00278">
        <ele>147.6</ele>
        <time>2023-12-14T09:07:47Z</time>
      </trkpt>
      <trkpt lat="48.44857" lon="2.0028">
        <ele>147.8</ele>
        <time>2023-12-14T09:07:48Z</time>
      </trkpt>
      <trkpt lat="48.44849" lon="2.00283">
        <ele>147.8</ele>
        <time>2023-12-14T09:07:49Z</time>
      </trkpt>
      <trkpt lat="48.44842" lon="2.00286">
        <ele>147.8</ele>
        <time>2023-12-14T09:07:50Z</time>
      </trkpt>
      <trkpt lat="48.44835" lon="2.00288">
        <ele>147.8</ele>
        <time>2023-12-14T09:07:51Z</time>
      </trkpt>
      <trkpt lat="48.44827" lon="2.00291">
        <ele>147.4</ele>
        <time>2023-12-14T09:07:52Z</time>
      </trkpt>
      <trkpt lat="48.4482" lon="2.00294">
        <ele>147.4</ele>
        <time>2023-12-14T09:07:53Z</time>
      </trkpt>
      <trkpt lat="48.44813" lon="2.00297">
        <ele>147.4</ele>
        <time>2023-12-14T09:07:54Z</time>
      </trkpt>
      <trkpt lat="48.44805" lon="2.00299">
        <ele>147</ele>
        <time>2023-12-14T09:07:55Z</time>
      </trkpt>
      <trkpt lat="48.44798" lon="2.00302">
        <ele>147.2</ele>
        <time>2023-12-14T09:07:56Z</time>
      </trkpt>
      <trkpt lat="48.4479" lon="2.00305">
        <ele>147.2</ele>
        <time>2023-12-14T09:07:57Z</time>
      </trkpt>
      <trkpt lat="48.44783" lon="2.00309">
        <ele>147.2</ele>
        <time>2023-12-14T09:07:58Z</time>
      </trkpt>
      <trkpt lat="48.44775" lon="2.00313">
        <ele>147.6</ele>
        <time>2023-12-14T09:07:59Z</time>
      </trkpt>
      <trkpt lat="48.44768" lon="2.00317">
        <ele>146.4</ele>
        <time>2023-12-14T09:08:00Z</time>
      </trkpt>
      <trkpt lat="48.44761" lon="2.00322">
        <ele>146.4</ele>
        <time>2023-12-14T09:08:01Z</time>
      </trkpt>
      <trkpt lat="48.44754" lon="2.00329">
        <ele>146.4</ele>
        <time>2023-12-14T09:08:02Z</time>
      </trkpt>
      <trkpt lat="48.44747" lon="2.00335">
        <ele>146.8</ele>
        <time>2023-12-14T09:08:03Z</time>
      </trkpt>
      <trkpt lat="48.44741" lon="2.00342">
        <ele>146.4</ele>
        <time>2023-12-14T09:08:04Z</time>
      </trkpt>
      <trkpt lat="48.44734" lon="2.0035">
        <ele>146.4</ele>
        <time>2023-12-14T09:08:05Z</time>
      </trkpt>
      <trkpt lat="48.44728" lon="2.00357">
        <ele>146.4</ele>
        <time>2023-12-14T09:08:06Z</time>
      </trkpt>
      <trkpt lat="48.44722" lon="2.00364">
        <ele>145.8</ele>
        <time>2023-12-14T09:08:07Z</time>
      </trkpt>
      <trkpt lat="48.44715" lon="2.00371">
        <ele>145.4</ele>
        <time>2023-12-14T09:08:08Z</time>
      </trkpt>
      <trkpt lat="48.44708" lon="2.00377">
        <ele>145.4</ele>
        <time>2023-12-14T09:08:09Z</time>
      </trkpt>
      <trkpt lat="48.447" lon="2.0038">
        <ele>145.4</ele>
        <time>2023-12-14T09:08:10Z</time>
      </trkpt>
      <trkpt lat="48.44693" lon="2.0038">
        <ele>145.4</ele>
        <time>2023-12-14T09:08:11Z</time>
      </trkpt>
      <trkpt lat="48.44685" lon="2.00378">
        <ele>144.2</ele>
        <time>2023-12-14T09:08:12Z</time>
      </trkpt>
      <trkpt lat="48.44678" lon="2.00374">
        <ele>144.2</ele>
        <time>2023-12-14T09:08:13Z</time>
      </trkpt>
      <trkpt lat="48.44671" lon="2.00371">
        <ele>144.2</ele>
        <time>2023-12-14T09:08:14Z</time>
      </trkpt>
      <trkpt lat="48.44664" lon="2.00368">
        <ele>143.8</ele>
        <time>2023-12-14T09:08:15Z</time>
      </trkpt>
      <trkpt lat="48.44657" lon="2.00366">
        <ele>143.6</ele>
        <time>2023-12-14T09:08:16Z</time>
      </trkpt>
      <trkpt lat="48.4465" lon="2.00364">
        <ele>143.6</ele>
        <time>2023-12-14T09:08:17Z</time>
      </trkpt>
      <trkpt lat="48.44643" lon="2.00362">
        <ele>143.6</ele>
        <time>2023-12-14T09:08:18Z</time>
      </trkpt>
      <trkpt lat="48.44636" lon="2.00361">
        <ele>143.6</ele>
        <time>2023-12-14T09:08:19Z</time>
      </trkpt>
      <trkpt lat="48.4463" lon="2.0036">
        <ele>143.8</ele>
        <time>2023-12-14T09:08:20Z</time>
      </trkpt>
      <trkpt lat="48.44623" lon="2.00358">
        <ele>143.8</ele>
        <time>2023-12-14T09:08:21Z</time>
      </trkpt>
      <trkpt lat="48.44616" lon="2.00357">
        <ele>143.8</ele>
        <time>2023-12-14T09:08:22Z</time>
      </trkpt>
      <trkpt lat="48.44609" lon="2.00356">
        <ele>143.8</ele>
        <time>2023-12-14T09:08:23Z</time>
      </trkpt>
      <trkpt lat="48.44602" lon="2.00354">
        <ele>144</ele>
        <time>2023-12-14T09:08:24Z</time>
      </trkpt>
      <trkpt lat="48.44595" lon="2.00353">
        <ele>144</ele>
        <time>2023-12-14T09:08:25Z</time>
      </trkpt>
      <trkpt lat="48.44588" lon="2.00351">
        <ele>144</ele>
        <time>2023-12-14T09:08:26Z</time>
      </trkpt>
      <trkpt lat="48.44581" lon="2.0035">
        <ele>143.6</ele>
        <time>2023-12-14T09:08:27Z</time>
      </trkpt>
      <trkpt lat="48.44574" lon="2.00349">
        <ele>143.8</ele>
        <time>2023-12-14T09:08:28Z</time>
      </trkpt>
      <trkpt lat="48.44567" lon="2.00349">
        <ele>143.8</ele>
        <time>2023-12-14T09:08:29Z</time>
      </trkpt>
      <trkpt lat="48.44561" lon="2.00351">
        <ele>143.8</ele>
        <time>2023-12-14T09:08:30Z</time>
      </trkpt>
      <trkpt lat="48.44554" lon="2.00353">
        <ele>144.6</ele>
        <time>2023-12-14T09:08:31Z</time>
      </trkpt>
      <trkpt lat="48.44548" lon="2.00358">
        <ele>144</ele>
        <time>2023-12-14T09:08:32Z</time>
      </trkpt>
      <trkpt lat="48.44542" lon="2.00363">
        <ele>144</ele>
        <time>2023-12-14T09:08:33Z</time>
      </trkpt>
      <trkpt lat="48.44535" lon="2.00368">
        <ele>144</ele>
        <time>2023-12-14T09:08:34Z</time>
      </trkpt>
      <trkpt lat="48.44529" lon="2.00374">
        <ele>143</ele>
        <time>2023-12-14T09:08:35Z</time>
      </trkpt>
      <trkpt lat="48.44523" lon="2.0038">
        <ele>143</ele>
        <time>2023-12-14T09:08:36Z</time>
      </trkpt>
      <trkpt lat="48.44517" lon="2.00387">
        <ele>143</ele>
        <time>2023-12-14T09:08:37Z</time>
      </trkpt>
      <trkpt lat="48.4451" lon="2.00393">
        <ele>143</ele>
        <time>2023-12-14T09:08:38Z</time>
      </trkpt>
      <trkpt lat="48.44505" lon="2.004">
        <ele>142.6</ele>
        <time>2023-12-14T09:08:39Z</time>
      </trkpt>
      <trkpt lat="48.44499" lon="2.00407">
        <ele>142.6</ele>
        <time>2023-12-14T09:08:40Z</time>
      </trkpt>
      <trkpt lat="48.44493" lon="2.00414">
        <ele>142.6</ele>
        <time>2023-12-14T09:08:41Z</time>
      </trkpt>
      <trkpt lat="48.44488" lon="2.00423">
        <ele>142.6</ele>
        <time>2023-12-14T09:08:42Z</time>
      </trkpt>
      <trkpt lat="48.44484" lon="2.00432">
        <ele>142.6</ele>
        <time>2023-12-14T09:08:43Z</time>
      </trkpt>
      <trkpt lat="48.44479" lon="2.00441">
        <ele>142</ele>
        <time>2023-12-14T09:08:44Z</time>
      </trkpt>
      <trkpt lat="48.44475" lon="2.0045">
        <ele>142</ele>
        <time>2023-12-14T09:08:45Z</time>
      </trkpt>
      <trkpt lat="48.44471" lon="2.0046">
        <ele>142</ele>
        <time>2023-12-14T09:08:46Z</time>
      </trkpt>
      <trkpt lat="48.44467" lon="2.0047">
        <ele>142</ele>
        <time>2023-12-14T09:08:47Z</time>
      </trkpt>
      <trkpt lat="48.44464" lon="2.0048">
        <ele>142.8</ele>
        <time>2023-12-14T09:08:48Z</time>
      </trkpt>
      <trkpt lat="48.44461" lon="2.00491">
        <ele>142.8</ele>
        <time>2023-12-14T09:08:49Z</time>
      </trkpt>
      <trkpt lat="48.44459" lon="2.00501">
        <ele>142.8</ele>
        <time>2023-12-14T09:08:50Z</time>
      </trkpt>
      <trkpt lat="48.44456" lon="2.00512">
        <ele>141.8</ele>
        <time>2023-12-14T09:08:51Z</time>
      </trkpt>
      <trkpt lat="48.44453" lon="2.00523">
        <ele>141.2</ele>
        <time>2023-12-14T09:08:52Z</time>
      </trkpt>
      <trkpt lat="48.4445" lon="2.00533">
        <ele>141.2</ele>
        <time>2023-12-14T09:08:53Z</time>
      </trkpt>
      <trkpt lat="48.44448" lon="2.00543">
        <ele>141.2</ele>
        <time>2023-12-14T09:08:54Z</time>
      </trkpt>
      <trkpt lat="48.44445" lon="2.00553">
        <ele>141.2</ele>
        <time>2023-12-14T09:08:55Z</time>
      </trkpt>
      <trkpt lat="48.44441" lon="2.00562">
        <ele>141</ele>
        <time>2023-12-14T09:08:56Z</time>
      </trkpt>
      <trkpt lat="48.44436" lon="2.00568">
        <ele>141</ele>
        <time>2023-12-14T09:08:57Z</time>
      </trkpt>
      <trkpt lat="48.44431" lon="2.00572">
        <ele>141</ele>
        <time>2023-12-14T09:08:58Z</time>
      </trkpt>
      <trkpt lat="48.44426" lon="2.00576">
        <ele>141</ele>
        <time>2023-12-14T09:08:59Z</time>
      </trkpt>
      <trkpt lat="48.4442" lon="2.0058">
        <ele>142</ele>
        <time>2023-12-14T09:09:00Z</time>
      </trkpt>
      <trkpt lat="48.44415" lon="2.00584">
        <ele>142</ele>
        <time>2023-12-14T09:09:01Z</time>
      </trkpt>
      <trkpt lat="48.44409" lon="2.00588">
        <ele>142</ele>
        <time>2023-12-14T09:09:02Z</time>
      </trkpt>
      <trkpt lat="48.44404" lon="2.00592">
        <ele>142</ele>
        <time>2023-12-14T09:09:03Z</time>
      </trkpt>
      <trkpt lat="48.44399" lon="2.00596">
        <ele>142.4</ele>
        <time>2023-12-14T09:09:04Z</time>
      </trkpt>
      <trkpt lat="48.44394" lon="2.00601">
        <ele>142.4</ele>
        <time>2023-12-14T09:09:05Z</time>
      </trkpt>
      <trkpt lat="48.44389" lon="2.00606">
        <ele>142.4</ele>
        <time>2023-12-14T09:09:06Z</time>
      </trkpt>
      <trkpt lat="48.44385" lon="2.00611">
        <ele>142.8</ele>
        <time>2023-12-14T09:09:07Z</time>
      </trkpt>
      <trkpt lat="48.4438" lon="2.00616">
        <ele>143.2</ele>
        <time>2023-12-14T09:09:08Z</time>
      </trkpt>
      <trkpt lat="48.44375" lon="2.0062">
        <ele>143.2</ele>
        <time>2023-12-14T09:09:09Z</time>
      </trkpt>
      <trkpt lat="48.44371" lon="2.00626">
        <ele>143.2</ele>
        <time>2023-12-14T09:09:10Z</time>
      </trkpt>
      <trkpt lat="48.44367" lon="2.00632">
        <ele>143.4</ele>
        <time>2023-12-14T09:09:11Z</time>
      </trkpt>
      <trkpt lat="48.44363" lon="2.00638">
        <ele>143.8</ele>
        <time>2023-12-14T09:09:12Z</time>
      </trkpt>
      <trkpt lat="48.4436" lon="2.00644">
        <ele>143.8</ele>
        <time>2023-12-14T09:09:13Z</time>
      </trkpt>
      <trkpt lat="48.44357" lon="2.00651">
        <ele>143.8</ele>
        <time>2023-12-14T09:09:14Z</time>
      </trkpt>
      <trkpt lat="48.44354" lon="2.00657">
        <ele>144.4</ele>
        <time>2023-12-14T09:09:15Z</time>
      </trkpt>
      <trkpt lat="48.44351" lon="2.00663">
        <ele>144.6</ele>
        <time>2023-12-14T09:09:16Z</time>
      </trkpt>
      <trkpt lat="48.44348" lon="2.0067">
        <ele>144.6</ele>
        <time>2023-12-14T09:09:17Z</time>
      </trkpt>
      <trkpt lat="48.44345" lon="2.00675">
        <ele>144.6</ele>
        <time>2023-12-14T09:09:18Z</time>
      </trkpt>
      <trkpt lat="48.44342" lon="2.00681">
        <ele>145.6</ele>
        <time>2023-12-14T09:09:19Z</time>
      </trkpt>
      <trkpt lat="48.44339" lon="2.00687">
        <ele>146</ele>
        <time>2023-12-14T09:09:20Z</time>
      </trkpt>
      <trkpt lat="48.44336" lon="2.00692">
        <ele>146</ele>
        <time>2023-12-14T09:09:21Z</time>
      </trkpt>
      <trkpt lat="48.44332" lon="2.00696">
        <ele>146</ele>
        <time>2023-12-14T09:09:22Z</time>
      </trkpt>
      <trkpt lat="48.44328" lon="2.00699">
        <ele>146</ele>
        <time>2023-12-14T09:09:23Z</time>
      </trkpt>
      <trkpt lat="48.44324" lon="2.00702">
        <ele>145.2</ele>
        <time>2023-12-14T09:09:24Z</time>
      </trkpt>
      <trkpt lat="48.44319" lon="2.00705">
        <ele>145.2</ele>
        <time>2023-12-14T09:09:25Z</time>
      </trkpt>
      <trkpt lat="48.44314" lon="2.00707">
        <ele>145.2</ele>
        <time>2023-12-14T09:09:26Z</time>
      </trkpt>
      <trkpt lat="48.4431" lon="2.00709">
        <ele>146.2</ele>
        <time>2023-12-14T09:09:27Z</time>
      </trkpt>
      <trkpt lat="48.44305" lon="2.00711">
        <ele>146.6</ele>
        <time>2023-12-14T09:09:28Z</time>
      </trkpt>
      <trkpt lat="48.44301" lon="2.00713">
        <ele>146.6</ele>
        <time>2023-12-14T09:09:29Z</time>
      </trkpt>
      <trkpt lat="48.44296" lon="2.00715">
        <ele>146.6</ele>
        <time>2023-12-14T09:09:30Z</time>
      </trkpt>
      <trkpt lat="48.44291" lon="2.00717">
        <ele>146</ele>
        <time>2023-12-14T09:09:31Z</time>
      </trkpt>
      <trkpt lat="48.44287" lon="2.00718">
        <ele>147.4</ele>
        <time>2023-12-14T09:09:32Z</time>
      </trkpt>
      <trkpt lat="48.44282" lon="2.00721">
        <ele>147.4</ele>
        <time>2023-12-14T09:09:33Z</time>
      </trkpt>
      <trkpt lat="48.44277" lon="2.00723">
        <ele>147.4</ele>
        <time>2023-12-14T09:09:34Z</time>
      </trkpt>
      <trkpt lat="48.44272" lon="2.00726">
        <ele>146.4</ele>
        <time>2023-12-14T09:09:35Z</time>
      </trkpt>
      <trkpt lat="48.44267" lon="2.00728">
        <ele>146.6</ele>
        <time>2023-12-14T09:09:36Z</time>
      </trkpt>
      <trkpt lat="48.44262" lon="2.00731">
        <ele>146.6</ele>
        <time>2023-12-14T09:09:37Z</time>
      </trkpt>
      <trkpt lat="48.44257" lon="2.00733">
        <ele>146.6</ele>
        <time>2023-12-14T09:09:38Z</time>
      </trkpt>
      <trkpt lat="48.44252" lon="2.00736">
        <ele>146</ele>
        <time>2023-12-14T09:09:39Z</time>
      </trkpt>
      <trkpt lat="48.44246" lon="2.00739">
        <ele>146.2</ele>
        <time>2023-12-14T09:09:40Z</time>
      </trkpt>
      <trkpt lat="48.44241" lon="2.00741">
        <ele>146.2</ele>
        <time>2023-12-14T09:09:41Z</time>
      </trkpt>
      <trkpt lat="48.44236" lon="2.00744">
        <ele>146.2</ele>
        <time>2023-12-14T09:09:42Z</time>
      </trkpt>
      <trkpt lat="48.4423" lon="2.00747">
        <ele>147</ele>
        <time>2023-12-14T09:09:43Z</time>
      </trkpt>
      <trkpt lat="48.44225" lon="2.0075">
        <ele>147.2</ele>
        <time>2023-12-14T09:09:44Z</time>
      </trkpt>
      <trkpt lat="48.4422" lon="2.00753">
        <ele>147.2</ele>
        <time>2023-12-14T09:09:45Z</time>
      </trkpt>
      <trkpt lat="48.44214" lon="2.00755">
        <ele>147.2</ele>
        <time>2023-12-14T09:09:46Z</time>
      </trkpt>
      <trkpt lat="48.44209" lon="2.00758">
        <ele>146.8</ele>
        <time>2023-12-14T09:09:47Z</time>
      </trkpt>
      <trkpt lat="48.44203" lon="2.00761">
        <ele>146.8</ele>
        <time>2023-12-14T09:09:48Z</time>
      </trkpt>
      <trkpt lat="48.44198" lon="2.00763">
        <ele>146.8</ele>
        <time>2023-12-14T09:09:49Z</time>
      </trkpt>
      <trkpt lat="48.44192" lon="2.00766">
        <ele>146.8</ele>
        <time>2023-12-14T09:09:50Z</time>
      </trkpt>
      <trkpt lat="48.44186" lon="2.00768">
        <ele>146.8</ele>
        <time>2023-12-14T09:09:51Z</time>
      </trkpt>
      <trkpt lat="48.44181" lon="2.00771">
        <ele>147.4</ele>
        <time>2023-12-14T09:09:52Z</time>
      </trkpt>
      <trkpt lat="48.44175" lon="2.00774">
        <ele>147.4</ele>
        <time>2023-12-14T09:09:53Z</time>
      </trkpt>
      <trkpt lat="48.44169" lon="2.00776">
        <ele>147.4</ele>
        <time>2023-12-14T09:09:54Z</time>
      </trkpt>
      <trkpt lat="48.44163" lon="2.00779">
        <ele>147</ele>
        <time>2023-12-14T09:09:55Z</time>
      </trkpt>
      <trkpt lat="48.44157" lon="2.00782">
        <ele>147.2</ele>
        <time>2023-12-14T09:09:56Z</time>
      </trkpt>
      <trkpt lat="48.4415" lon="2.00785">
        <ele>147.2</ele>
        <time>2023-12-14T09:09:57Z</time>
      </trkpt>
      <trkpt lat="48.44144" lon="2.00788">
        <ele>147.2</ele>
        <time>2023-12-14T09:09:58Z</time>
      </trkpt>
      <trkpt lat="48.44138" lon="2.0079">
        <ele>147</ele>
        <time>2023-12-14T09:09:59Z</time>
      </trkpt>
      <trkpt lat="48.44131" lon="2.00793">
        <ele>146.6</ele>
        <time>2023-12-14T09:10:00Z</time>
      </trkpt>
      <trkpt lat="48.44124" lon="2.00796">
        <ele>146.6</ele>
        <time>2023-12-14T09:10:01Z</time>
      </trkpt>
      <trkpt lat="48.44118" lon="2.00799">
        <ele>146.6</ele>
        <time>2023-12-14T09:10:02Z</time>
      </trkpt>
      <trkpt lat="48.44111" lon="2.00802">
        <ele>145.8</ele>
        <time>2023-12-14T09:10:03Z</time>
      </trkpt>
      <trkpt lat="48.44104" lon="2.00805">
        <ele>145.8</ele>
        <time>2023-12-14T09:10:04Z</time>
      </trkpt>
      <trkpt lat="48.44097" lon="2.00807">
        <ele>145.8</ele>
        <time>2023-12-14T09:10:05Z</time>
      </trkpt>
      <trkpt lat="48.4409" lon="2.0081">
        <ele>145.8</ele>
        <time>2023-12-14T09:10:06Z</time>
      </trkpt>
      <trkpt lat="48.44083" lon="2.00813">
        <ele>145.4</ele>
        <time>2023-12-14T09:10:07Z</time>
      </trkpt>
      <trkpt lat="48.44076" lon="2.00816">
        <ele>145.8</ele>
        <time>2023-12-14T09:10:08Z</time>
      </trkpt>
      <trkpt lat="48.44069" lon="2.00819">
        <ele>145.8</ele>
        <time>2023-12-14T09:10:09Z</time>
      </trkpt>
      <trkpt lat="48.44062" lon="2.00822">
        <ele>145.8</ele>
        <time>2023-12-14T09:10:10Z</time>
      </trkpt>
      <trkpt lat="48.44055" lon="2.00825">
        <ele>145.2</ele>
        <time>2023-12-14T09:10:11Z</time>
      </trkpt>
      <trkpt lat="48.44047" lon="2.00828">
        <ele>145</ele>
        <time>2023-12-14T09:10:12Z</time>
      </trkpt>
      <trkpt lat="48.4404" lon="2.00831">
        <ele>145</ele>
        <time>2023-12-14T09:10:13Z</time>
      </trkpt>
      <trkpt lat="48.44032" lon="2.00834">
        <ele>145</ele>
        <time>2023-12-14T09:10:14Z</time>
      </trkpt>
      <trkpt lat="48.44025" lon="2.00837">
        <ele>144</ele>
        <time>2023-12-14T09:10:15Z</time>
      </trkpt>
      <trkpt lat="48.44017" lon="2.00841">
        <ele>143.8</ele>
        <time>2023-12-14T09:10:16Z</time>
      </trkpt>
      <trkpt lat="48.4401" lon="2.00844">
        <ele>143.8</ele>
        <time>2023-12-14T09:10:17Z</time>
      </trkpt>
      <trkpt lat="48.44002" lon="2.00847">
        <ele>143.8</ele>
        <time>2023-12-14T09:10:18Z</time>
      </trkpt>
      <trkpt lat="48.43994" lon="2.0085">
        <ele>143.4</ele>
        <time>2023-12-14T09:10:19Z</time>
      </trkpt>
      <trkpt lat="48.43986" lon="2.00854">
        <ele>142.6</ele>
        <time>2023-12-14T09:10:20Z</time>
      </trkpt>
      <trkpt lat="48.43979" lon="2.00857">
        <ele>142.6</ele>
        <time>2023-12-14T09:10:21Z</time>
      </trkpt>
      <trkpt lat="48.43971" lon="2.0086">
        <ele>142.6</ele>
        <time>2023-12-14T09:10:22Z</time>
      </trkpt>
      <trkpt lat="48.43963" lon="2.00864">
        <ele>142.6</ele>
        <time>2023-12-14T09:10:23Z</time>
      </trkpt>
      <trkpt lat="48.43955" lon="2.00867">
        <ele>142.2</ele>
        <time>2023-12-14T09:10:24Z</time>
      </trkpt>
      <trkpt lat="48.43947" lon="2.00871">
        <ele>142.2</ele>
        <time>2023-12-14T09:10:25Z</time>
      </trkpt>
      <trkpt lat="48.43939" lon="2.00874">
        <ele>142.2</ele>
        <time>2023-12-14T09:10:26Z</time>
      </trkpt>
      <trkpt lat="48.43931" lon="2.00878">
        <ele>142.2</ele>
        <time>2023-12-14T09:10:27Z</time>
      </trkpt>
      <trkpt lat="48.43923" lon="2.00881">
        <ele>142</ele>
        <time>2023-12-14T09:10:28Z</time>
      </trkpt>
      <trkpt lat="48.43914" lon="2.00885">
        <ele>142</ele>
        <time>2023-12-14T09:10:29Z</time>
      </trkpt>
      <trkpt lat="48.43906" lon="2.00888">
        <ele>142</ele>
        <time>2023-12-14T09:10:30Z</time>
      </trkpt>
      <trkpt lat="48.43898" lon="2.00892">
        <ele>141</ele>
        <time>2023-12-14T09:10:31Z</time>
      </trkpt>
      <trkpt lat="48.4389" lon="2.00895">
        <ele>141.2</ele>
        <time>2023-12-14T09:10:32Z</time>
      </trkpt>
      <trkpt lat="48.43881" lon="2.00898">
        <ele>141.2</ele>
        <time>2023-12-14T09:10:33Z</time>
      </trkpt>
      <trkpt lat="48.43873" lon="2.00901">
        <ele>141.2</ele>
        <time>2023-12-14T09:10:34Z</time>
      </trkpt>
      <trkpt lat="48.43864" lon="2.00904">
        <ele>140.2</ele>
        <time>2023-12-14T09:10:35Z</time>
      </trkpt>
      <trkpt lat="48.43855" lon="2.00907">
        <ele>138</ele>
        <time>2023-12-14T09:10:36Z</time>
      </trkpt>
      <trkpt lat="48.43846" lon="2.00909">
        <ele>138</ele>
        <time>2023-12-14T09:10:37Z</time>
      </trkpt>
      <trkpt lat="48.43837" lon="2.00911">
        <ele>138</ele>
        <time>2023-12-14T09:10:38Z</time>
      </trkpt>
      <trkpt lat="48.43827" lon="2.00912">
        <ele>137</ele>
        <time>2023-12-14T09:10:39Z</time>
      </trkpt>
      <trkpt lat="48.43818" lon="2.00913">
        <ele>135</ele>
        <time>2023-12-14T09:10:40Z</time>
      </trkpt>
      <trkpt lat="48.43808" lon="2.00913">
        <ele>135</ele>
        <time>2023-12-14T09:10:41Z</time>
      </trkpt>
      <trkpt lat="48.43799" lon="2.0091">
        <ele>135</ele>
        <time>2023-12-14T09:10:42Z</time>
      </trkpt>
      <trkpt lat="48.4379" lon="2.00905">
        <ele>134</ele>
        <time>2023-12-14T09:10:43Z</time>
      </trkpt>
      <trkpt lat="48.43782" lon="2.00896">
        <ele>132.4</ele>
        <time>2023-12-14T09:10:44Z</time>
      </trkpt>
      <trkpt lat="48.43775" lon="2.00886">
        <ele>132.4</ele>
        <time>2023-12-14T09:10:45Z</time>
      </trkpt>
      <trkpt lat="48.43769" lon="2.00874">
        <ele>132.4</ele>
        <time>2023-12-14T09:10:46Z</time>
      </trkpt>
      <trkpt lat="48.43762" lon="2.00863">
        <ele>131.4</ele>
        <time>2023-12-14T09:10:47Z</time>
      </trkpt>
      <trkpt lat="48.43756" lon="2.00851">
        <ele>128</ele>
        <time>2023-12-14T09:10:48Z</time>
      </trkpt>
      <trkpt lat="48.4375" lon="2.00839">
        <ele>128</ele>
        <time>2023-12-14T09:10:49Z</time>
      </trkpt>
      <trkpt lat="48.43743" lon="2.00828">
        <ele>128</ele>
        <time>2023-12-14T09:10:50Z</time>
      </trkpt>
      <trkpt lat="48.43735" lon="2.00818">
        <ele>127.8</ele>
        <time>2023-12-14T09:10:51Z</time>
      </trkpt>
      <trkpt lat="48.43727" lon="2.00809">
        <ele>129</ele>
        <time>2023-12-14T09:10:52Z</time>
      </trkpt>
      <trkpt lat="48.43719" lon="2.008">
        <ele>129</ele>
        <time>2023-12-14T09:10:53Z</time>
      </trkpt>
      <trkpt lat="48.43711" lon="2.00794">
        <ele>129</ele>
        <time>2023-12-14T09:10:54Z</time>
      </trkpt>
      <trkpt lat="48.43703" lon="2.00788">
        <ele>128.8</ele>
        <time>2023-12-14T09:10:55Z</time>
      </trkpt>
      <trkpt lat="48.43695" lon="2.00784">
        <ele>129.6</ele>
        <time>2023-12-14T09:10:56Z</time>
      </trkpt>
      <trkpt lat="48.43687" lon="2.00781">
        <ele>129.6</ele>
        <time>2023-12-14T09:10:57Z</time>
      </trkpt>
      <trkpt lat="48.43679" lon="2.00779">
        <ele>129.6</ele>
        <time>2023-12-14T09:10:58Z</time>
      </trkpt>
      <trkpt lat="48.43671" lon="2.00776">
        <ele>130</ele>
        <time>2023-12-14T09:10:59Z</time>
      </trkpt>
      <trkpt lat="48.43664" lon="2.00774">
        <ele>130</ele>
        <time>2023-12-14T09:11:00Z</time>
      </trkpt>
      <trkpt lat="48.43656" lon="2.00772">
        <ele>130</ele>
        <time>2023-12-14T09:11:01Z</time>
      </trkpt>
      <trkpt lat="48.43649" lon="2.0077">
        <ele>130</ele>
        <time>2023-12-14T09:11:02Z</time>
      </trkpt>
      <trkpt lat="48.43642" lon="2.00768">
        <ele>130.2</ele>
        <time>2023-12-14T09:11:03Z</time>
      </trkpt>
      <trkpt lat="48.43635" lon="2.00766">
        <ele>130.2</ele>
        <time>2023-12-14T09:11:04Z</time>
      </trkpt>
      <trkpt lat="48.43628" lon="2.00764">
        <ele>130.2</ele>
        <time>2023-12-14T09:11:05Z</time>
      </trkpt>
      <trkpt lat="48.43621" lon="2.00763">
        <ele>130.2</ele>
        <time>2023-12-14T09:11:06Z</time>
      </trkpt>
      <trkpt lat="48.43615" lon="2.00761">
        <ele>131.2</ele>
        <time>2023-12-14T09:11:07Z</time>
      </trkpt>
      <trkpt lat="48.43609" lon="2.00758">
        <ele>132.2</ele>
        <time>2023-12-14T09:11:08Z</time>
      </trkpt>
      <trkpt lat="48.43603" lon="2.00756">
        <ele>132.2</ele>
        <time>2023-12-14T09:11:09Z</time>
      </trkpt>
      <trkpt lat="48.43597" lon="2.00754">
        <ele>132.2</ele>
        <time>2023-12-14T09:11:10Z</time>
      </trkpt>
      <trkpt lat="48.43591" lon="2.00753">
        <ele>132.2</ele>
        <time>2023-12-14T09:11:11Z</time>
      </trkpt>
      <trkpt lat="48.43585" lon="2.00751">
        <ele>132.2</ele>
        <time>2023-12-14T09:11:12Z</time>
      </trkpt>
      <trkpt lat="48.43579" lon="2.0075">
        <ele>132.2</ele>
        <time>2023-12-14T09:11:13Z</time>
      </trkpt>
      <trkpt lat="48.43573" lon="2.00748">
        <ele>132.2</ele>
        <time>2023-12-14T09:11:14Z</time>
      </trkpt>
      <trkpt lat="48.43568" lon="2.00746">
        <ele>133.2</ele>
        <time>2023-12-14T09:11:15Z</time>
      </trkpt>
      <trkpt lat="48.43562" lon="2.00744">
        <ele>133.6</ele>
        <time>2023-12-14T09:11:16Z</time>
      </trkpt>
      <trkpt lat="48.43557" lon="2.00742">
        <ele>133.6</ele>
        <time>2023-12-14T09:11:17Z</time>
      </trkpt>
      <trkpt lat="48.43552" lon="2.0074">
        <ele>133.6</ele>
        <time>2023-12-14T09:11:18Z</time>
      </trkpt>
      <trkpt lat="48.43547" lon="2.00738">
        <ele>133.6</ele>
        <time>2023-12-14T09:11:19Z</time>
      </trkpt>
      <trkpt lat="48.43543" lon="2.00736">
        <ele>135.2</ele>
        <time>2023-12-14T09:11:20Z</time>
      </trkpt>
      <trkpt lat="48.43538" lon="2.00733">
        <ele>135.2</ele>
        <time>2023-12-14T09:11:21Z</time>
      </trkpt>
      <trkpt lat="48.43534" lon="2.0073">
        <ele>135.2</ele>
        <time>2023-12-14T09:11:22Z</time>
      </trkpt>
      <trkpt lat="48.4353" lon="2.00726">
        <ele>135.6</ele>
        <time>2023-12-14T09:11:23Z</time>
      </trkpt>
      <trkpt lat="48.43526" lon="2.00722">
        <ele>136.2</ele>
        <time>2023-12-14T09:11:24Z</time>
      </trkpt>
      <trkpt lat="48.43522" lon="2.00719">
        <ele>136.2</ele>
        <time>2023-12-14T09:11:25Z</time>
      </trkpt>
      <trkpt lat="48.43518" lon="2.00715">
        <ele>136.2</ele>
        <time>2023-12-14T09:11:26Z</time>
      </trkpt>
      <trkpt lat="48.43514" lon="2.00711">
        <ele>136.2</ele>
        <time>2023-12-14T09:11:27Z</time>
      </trkpt>
      <trkpt lat="48.4351" lon="2.00707">
        <ele>136.2</ele>
        <time>2023-12-14T09:11:28Z</time>
      </trkpt>
      <trkpt lat="48.43506" lon="2.00703">
        <ele>136.2</ele>
        <time>2023-12-14T09:11:29Z</time>
      </trkpt>
      <trkpt lat="48.43501" lon="2.00699">
        <ele>136.2</ele>
        <time>2023-12-14T09:11:30Z</time>
      </trkpt>
      <trkpt lat="48.43497" lon="2.00695">
        <ele>137.2</ele>
        <time>2023-12-14T09:11:31Z</time>
      </trkpt>
      <trkpt lat="48.43493" lon="2.00691">
        <ele>136.8</ele>
        <time>2023-12-14T09:11:32Z</time>
      </trkpt>
      <trkpt lat="48.43489" lon="2.00687">
        <ele>136.8</ele>
        <time>2023-12-14T09:11:33Z</time>
      </trkpt>
      <trkpt lat="48.43485" lon="2.00684">
        <ele>136.8</ele>
        <time>2023-12-14T09:11:34Z</time>
      </trkpt>
      <trkpt lat="48.4348" lon="2.0068">
        <ele>137.6</ele>
        <time>2023-12-14T09:11:35Z</time>
      </trkpt>
      <trkpt lat="48.43476" lon="2.00677">
        <ele>137.8</ele>
        <time>2023-12-14T09:11:36Z</time>
      </trkpt>
      <trkpt lat="48.43472" lon="2.00673">
        <ele>137.8</ele>
        <time>2023-12-14T09:11:37Z</time>
      </trkpt>
      <trkpt lat="48.43467" lon="2.0067">
        <ele>137.8</ele>
        <time>2023-12-14T09:11:38Z</time>
      </trkpt>
      <trkpt lat="48.43463" lon="2.00667">
        <ele>138.6</ele>
        <time>2023-12-14T09:11:39Z</time>
      </trkpt>
      <trkpt lat="48.43459" lon="2.00664">
        <ele>138.6</ele>
        <time>2023-12-14T09:11:40Z</time>
      </trkpt>
      <trkpt lat="48.43454" lon="2.00661">
        <ele>138.6</ele>
        <time>2023-12-14T09:11:41Z</time>
      </trkpt>
      <trkpt lat="48.4345" lon="2.00659">
        <ele>138.6</ele>
        <time>2023-12-14T09:11:42Z</time>
      </trkpt>
      <trkpt lat="48.43445" lon="2.00657">
        <ele>139.2</ele>
        <time>2023-12-14T09:11:43Z</time>
      </trkpt>
      <trkpt lat="48.4344" lon="2.00655">
        <ele>140.2</ele>
        <time>2023-12-14T09:11:44Z</time>
      </trkpt>
      <trkpt lat="48.43436" lon="2.00653">
        <ele>140.2</ele>
        <time>2023-12-14T09:11:45Z</time>
      </trkpt>
      <trkpt lat="48.43431" lon="2.00651">
        <ele>140.2</ele>
        <time>2023-12-14T09:11:46Z</time>
      </trkpt>
      <trkpt lat="48.43427" lon="2.00649">
        <ele>140.2</ele>
        <time>2023-12-14T09:11:47Z</time>
      </trkpt>
      <trkpt lat="48.43422" lon="2.00648">
        <ele>140.4</ele>
        <time>2023-12-14T09:11:48Z</time>
      </trkpt>
      <trkpt lat="48.43417" lon="2.00646">
        <ele>140.4</ele>
        <time>2023-12-14T09:11:49Z</time>
      </trkpt>
      <trkpt lat="48.43413" lon="2.00645">
        <ele>140.4</ele>
        <time>2023-12-14T09:11:50Z</time>
      </trkpt>
      <trkpt lat="48.43408" lon="2.00643">
        <ele>141.4</ele>
        <time>2023-12-14T09:11:51Z</time>
      </trkpt>
      <trkpt lat="48.43403" lon="2.00642">
        <ele>142</ele>
        <time>2023-12-14T09:11:52Z</time>
      </trkpt>
      <trkpt lat="48.43398" lon="2.0064">
        <ele>142</ele>
        <time>2023-12-14T09:11:53Z</time>
      </trkpt>
      <trkpt lat="48.43394" lon="2.00639">
        <ele>142</ele>
        <time>2023-12-14T09:11:54Z</time>
      </trkpt>
      <trkpt lat="48.43389" lon="2.00638">
        <ele>142.6</ele>
        <time>2023-12-14T09:11:55Z</time>
      </trkpt>
      <trkpt lat="48.43384" lon="2.00636">
        <ele>142.6</ele>
        <time>2023-12-14T09:11:56Z</time>
      </trkpt>
      <trkpt lat="48.4338" lon="2.00634">
        <ele>142.6</ele>
        <time>2023-12-14T09:11:57Z</time>
      </trkpt>
      <trkpt lat="48.43375" lon="2.00633">
        <ele>142.6</ele>
        <time>2023-12-14T09:11:58Z</time>
      </trkpt>
      <trkpt lat="48.4337" lon="2.00631">
        <ele>143.6</ele>
        <time>2023-12-14T09:11:59Z</time>
      </trkpt>
      <trkpt lat="48.43366" lon="2.0063">
        <ele>144.2</ele>
        <time>2023-12-14T09:12:00Z</time>
      </trkpt>
      <trkpt lat="48.43361" lon="2.00629">
        <ele>144.2</ele>
        <time>2023-12-14T09:12:01Z</time>
      </trkpt>
      <trkpt lat="48.43356" lon="2.00627">
        <ele>144.2</ele>
        <time>2023-12-14T09:12:02Z</time>
      </trkpt>
      <trkpt lat="48.43351" lon="2.00626">
        <ele>144.2</ele>
        <time>2023-12-14T09:12:03Z</time>
      </trkpt>
      <trkpt lat="48.43346" lon="2.00625">
        <ele>145</ele>
        <time>2023-12-14T09:12:04Z</time>
      </trkpt>
      <trkpt lat="48.43341" lon="2.00624">
        <ele>145</ele>
        <time>2023-12-14T09:12:05Z</time>
      </trkpt>
      <trkpt lat="48.43336" lon="2.00624">
        <ele>145</ele>
        <time>2023-12-14T09:12:06Z</time>
      </trkpt>
      <trkpt lat="48.43331" lon="2.00623">
        <ele>144.4</ele>
        <time>2023-12-14T09:12:07Z</time>
      </trkpt>
      <trkpt lat="48.43326" lon="2.00622">
        <ele>145.4</ele>
        <time>2023-12-14T09:12:08Z</time>
      </trkpt>
      <trkpt lat="48.4332" lon="2.00623">
        <ele>145.4</ele>
        <time>2023-12-14T09:12:09Z</time>
      </trkpt>
      <trkpt lat="48.43315" lon="2.00623">
        <ele>145.4</ele>
        <time>2023-12-14T09:12:10Z</time>
      </trkpt>
      <trkpt lat="48.4331" lon="2.00623">
        <ele>146</ele>
        <time>2023-12-14T09:12:11Z</time>
      </trkpt>
      <trkpt lat="48.43305" lon="2.00624">
        <ele>145.4</ele>
        <time>2023-12-14T09:12:12Z</time>
      </trkpt>
      <trkpt lat="48.433" lon="2.00624">
        <ele>145.4</ele>
        <time>2023-12-14T09:12:13Z</time>
      </trkpt>
      <trkpt lat="48.43295" lon="2.00625">
        <ele>145.4</ele>
        <time>2023-12-14T09:12:14Z</time>
      </trkpt>
      <trkpt lat="48.43289" lon="2.00625">
        <ele>146.4</ele>
        <time>2023-12-14T09:12:15Z</time>
      </trkpt>
      <trkpt lat="48.43284" lon="2.00626">
        <ele>146.2</ele>
        <time>2023-12-14T09:12:16Z</time>
      </trkpt>
      <trkpt lat="48.43279" lon="2.00627">
        <ele>146.2</ele>
        <time>2023-12-14T09:12:17Z</time>
      </trkpt>
      <trkpt lat="48.43274" lon="2.00628">
        <ele>146.2</ele>
        <time>2023-12-14T09:12:18Z</time>
      </trkpt>
      <trkpt lat="48.43269" lon="2.00629">
        <ele>146.6</ele>
        <time>2023-12-14T09:12:19Z</time>
      </trkpt>
      <trkpt lat="48.43263" lon="2.0063">
        <ele>146.4</ele>
        <time>2023-12-14T09:12:20Z</time>
      </trkpt>
      <trkpt lat="48.43258" lon="2.00631">
        <ele>146.4</ele>
        <time>2023-12-14T09:12:21Z</time>
      </trkpt>
      <trkpt lat="48.43253" lon="2.00632">
        <ele>146.4</ele>
        <time>2023-12-14T09:12:22Z</time>
      </trkpt>
      <trkpt lat="48.43247" lon="2.00633">
        <ele>146.4</ele>
        <time>2023-12-14T09:12:23Z</time>
      </trkpt>
      <trkpt lat="48.43241" lon="2.00634">
        <ele>146.6</ele>
        <time>2023-12-14T09:12:24Z</time>
      </trkpt>
      <trkpt lat="48.43236" lon="2.00634">
        <ele>146.6</ele>
        <time>2023-12-14T09:12:25Z</time>
      </trkpt>
      <trkpt lat="48.4323" lon="2.00635">
        <ele>146.6</ele>
        <time>2023-12-14T09:12:26Z</time>
      </trkpt>
      <trkpt lat="48.43225" lon="2.00636">
        <ele>146.6</ele>
        <time>2023-12-14T09:12:27Z</time>
      </trkpt>
      <trkpt lat="48.43219" lon="2.00637">
        <ele>146.8</ele>
        <time>2023-12-14T09:12:28Z</time>
      </trkpt>
      <trkpt lat="48.43214" lon="2.00638">
        <ele>146.8</ele>
        <time>2023-12-14T09:12:29Z</time>
      </trkpt>
      <trkpt lat="48.43208" lon="2.00638">
        <ele>146.8</ele>
        <time>2023-12-14T09:12:30Z</time>
      </trkpt>
      <trkpt lat="48.43203" lon="2.00639">
        <ele>147.8</ele>
        <time>2023-12-14T09:12:31Z</time>
      </trkpt>
      <trkpt lat="48.43197" lon="2.0064">
        <ele>147.8</ele>
        <time>2023-12-14T09:12:32Z</time>
      </trkpt>
      <trkpt lat="48.43191" lon="2.00641">
        <ele>147.8</ele>
        <time>2023-12-14T09:12:33Z</time>
      </trkpt>
      <trkpt lat="48.43186" lon="2.00642">
        <ele>147.8</ele>
        <time>2023-12-14T09:12:34Z</time>
      </trkpt>
      <trkpt lat="48.4318" lon="2.00643">
        <ele>147.4</ele>
        <time>2023-12-14T09:12:35Z</time>
      </trkpt>
      <trkpt lat="48.43175" lon="2.00643">
        <ele>148.2</ele>
        <time>2023-12-14T09:12:36Z</time>
      </trkpt>
      <trkpt lat="48.43169" lon="2.00644">
        <ele>148.2</ele>
        <time>2023-12-14T09:12:37Z</time>
      </trkpt>
      <trkpt lat="48.43163" lon="2.00645">
        <ele>148.2</ele>
        <time>2023-12-14T09:12:38Z</time>
      </trkpt>
      <trkpt lat="48.43158" lon="2.00646">
        <ele>148</ele>
        <time>2023-12-14T09:12:39Z</time>
      </trkpt>
      <trkpt lat="48.43152" lon="2.00647">
        <ele>148</ele>
        <time>2023-12-14T09:12:40Z</time>
      </trkpt>
      <trkpt lat="48.43146" lon="2.00648">
        <ele>148</ele>
        <time>2023-12-14T09:12:41Z</time>
      </trkpt>
      <trkpt lat="48.43141" lon="2.00648">
        <ele>148</ele>
        <time>2023-12-14T09:12:42Z</time>
      </trkpt>
      <trkpt lat="48.43135" lon="2.00649">
        <ele>148</ele>
        <time>2023-12-14T09:12:43Z</time>
      </trkpt>
      <trkpt lat="48.43129" lon="2.0065">
        <ele>148.6</ele>
        <time>2023-12-14T09:12:44Z</time>
      </trkpt>
      <trkpt lat="48.43124" lon="2.00651">
        <ele>148.6</ele>
        <time>2023-12-14T09:12:45Z</time>
      </trkpt>
      <trkpt lat="48.43118" lon="2.00652">
        <ele>148.6</ele>
        <time>2023-12-14T09:12:46Z</time>
      </trkpt>
      <trkpt lat="48.43112" lon="2.00653">
        <ele>148.6</ele>
        <time>2023-12-14T09:12:47Z</time>
      </trkpt>
      <trkpt lat="48.43106" lon="2.00653">
        <ele>148.2</ele>
        <time>2023-12-14T09:12:48Z</time>
      </trkpt>
      <trkpt lat="48.431" lon="2.00654">
        <ele>148.2</ele>
        <time>2023-12-14T09:12:49Z</time>
      </trkpt>
      <trkpt lat="48.43093" lon="2.00655">
        <ele>148.2</ele>
        <time>2023-12-14T09:12:50Z</time>
      </trkpt>
      <trkpt lat="48.43087" lon="2.00655">
        <ele>148.2</ele>
        <time>2023-12-14T09:12:51Z</time>
      </trkpt>
      <trkpt lat="48.43081" lon="2.00656">
        <ele>147.6</ele>
        <time>2023-12-14T09:12:52Z</time>
      </trkpt>
      <trkpt lat="48.43074" lon="2.00656">
        <ele>147.6</ele>
        <time>2023-12-14T09:12:53Z</time>
      </trkpt>
      <trkpt lat="48.43068" lon="2.00656">
        <ele>147.6</ele>
        <time>2023-12-14T09:12:54Z</time>
      </trkpt>
      <trkpt lat="48.43061" lon="2.00656">
        <ele>147.6</ele>
        <time>2023-12-14T09:12:55Z</time>
      </trkpt>
      <trkpt lat="48.43055" lon="2.00656">
        <ele>147.4</ele>
        <time>2023-12-14T09:12:56Z</time>
      </trkpt>
      <trkpt lat="48.43048" lon="2.00656">
        <ele>147.4</ele>
        <time>2023-12-14T09:12:57Z</time>
      </trkpt>
      <trkpt lat="48.43042" lon="2.00655">
        <ele>147.4</ele>
        <time>2023-12-14T09:12:58Z</time>
      </trkpt>
      <trkpt lat="48.43035" lon="2.00655">
        <ele>146.6</ele>
        <time>2023-12-14T09:12:59Z</time>
      </trkpt>
      <trkpt lat="48.43028" lon="2.00654">
        <ele>147.4</ele>
        <time>2023-12-14T09:13:00Z</time>
      </trkpt>
      <trkpt lat="48.43022" lon="2.00654">
        <ele>147.4</ele>
        <time>2023-12-14T09:13:01Z</time>
      </trkpt>
      <trkpt lat="48.43015" lon="2.00653">
        <ele>147.4</ele>
        <time>2023-12-14T09:13:02Z</time>
      </trkpt>
      <trkpt lat="48.43008" lon="2.00653">
        <ele>147.4</ele>
        <time>2023-12-14T09:13:03Z</time>
      </trkpt>
      <trkpt lat="48.43001" lon="2.00653">
        <ele>146.2</ele>
        <time>2023-12-14T09:13:04Z</time>
      </trkpt>
      <trkpt lat="48.42994" lon="2.00652">
        <ele>146.2</ele>
        <time>2023-12-14T09:13:05Z</time>
      </trkpt>
      <trkpt lat="48.42987" lon="2.00652">
        <ele>146.2</ele>
        <time>2023-12-14T09:13:06Z</time>
      </trkpt>
      <trkpt lat="48.4298" lon="2.00651">
        <ele>146.2</ele>
        <time>2023-12-14T09:13:07Z</time>
      </trkpt>
      <trkpt lat="48.42973" lon="2.00651">
        <ele>145.8</ele>
        <time>2023-12-14T09:13:08Z</time>
      </trkpt>
      <trkpt lat="48.42966" lon="2.00651">
        <ele>145.8</ele>
        <time>2023-12-14T09:13:09Z</time>
      </trkpt>
      <trkpt lat="48.42959" lon="2.0065">
        <ele>145.8</ele>
        <time>2023-12-14T09:13:10Z</time>
      </trkpt>
      <trkpt lat="48.42952" lon="2.0065">
        <ele>146.8</ele>
        <time>2023-12-14T09:13:11Z</time>
      </trkpt>
      <trkpt lat="48.42945" lon="2.00649">
        <ele>147</ele>
        <time>2023-12-14T09:13:12Z</time>
      </trkpt>
      <trkpt lat="48.42938" lon="2.00649">
        <ele>147</ele>
        <time>2023-12-14T09:13:13Z</time>
      </trkpt>
      <trkpt lat="48.42931" lon="2.00649">
        <ele>147</ele>
        <time>2023-12-14T09:13:14Z</time>
      </trkpt>
      <trkpt lat="48.42924" lon="2.00648">
        <ele>146</ele>
        <time>2023-12-14T09:13:15Z</time>
      </trkpt>
      <trkpt lat="48.42917" lon="2.00648">
        <ele>146</ele>
        <time>2023-12-14T09:13:16Z</time>
      </trkpt>
      <trkpt lat="48.4291" lon="2.00648">
        <ele>146</ele>
        <time>2023-12-14T09:13:17Z</time>
      </trkpt>
      <trkpt lat="48.42903" lon="2.00647">
        <ele>146</ele>
        <time>2023-12-14T09:13:18Z</time>
      </trkpt>
      <trkpt lat="48.42896" lon="2.00646">
        <ele>146.4</ele>
        <time>2023-12-14T09:13:19Z</time>
      </trkpt>
      <trkpt lat="48.42889" lon="2.00645">
        <ele>145.6</ele>
        <time>2023-12-14T09:13:20Z</time>
      </trkpt>
      <trkpt lat="48.42882" lon="2.00644">
        <ele>145.6</ele>
        <time>2023-12-14T09:13:21Z</time>
      </trkpt>
      <trkpt lat="48.42875" lon="2.00643">
        <ele>145.6</ele>
        <time>2023-12-14T09:13:22Z</time>
      </trkpt>
      <trkpt lat="48.42868" lon="2.00642">
        <ele>145.6</ele>
        <time>2023-12-14T09:13:23Z</time>
      </trkpt>
      <trkpt lat="48.42861" lon="2.00641">
        <ele>146.8</ele>
        <time>2023-12-14T09:13:24Z</time>
      </trkpt>
      <trkpt lat="48.42854" lon="2.0064">
        <ele>146.8</ele>
        <time>2023-12-14T09:13:25Z</time>
      </trkpt>
      <trkpt lat="48.42847" lon="2.00639">
        <ele>146.8</ele>
        <time>2023-12-14T09:13:26Z</time>
      </trkpt>
      <trkpt lat="48.4284" lon="2.00638">
        <ele>146.2</ele>
        <time>2023-12-14T09:13:27Z</time>
      </trkpt>
      <trkpt lat="48.42833" lon="2.00636">
        <ele>145.8</ele>
        <time>2023-12-14T09:13:28Z</time>
      </trkpt>
      <trkpt lat="48.42826" lon="2.00635">
        <ele>145.8</ele>
        <time>2023-12-14T09:13:29Z</time>
      </trkpt>
      <trkpt lat="48.42819" lon="2.00634">
        <ele>145.8</ele>
        <time>2023-12-14T09:13:30Z</time>
      </trkpt>
      <trkpt lat="48.42812" lon="2.00632">
        <ele>146.2</ele>
        <time>2023-12-14T09:13:31Z</time>
      </trkpt>
      <trkpt lat="48.42805" lon="2.0063">
        <ele>146.6</ele>
        <time>2023-12-14T09:13:32Z</time>
      </trkpt>
      <trkpt lat="48.42798" lon="2.00628">
        <ele>146.6</ele>
        <time>2023-12-14T09:13:33Z</time>
      </trkpt>
      <trkpt lat="48.42791" lon="2.00626">
        <ele>146.6</ele>
        <time>2023-12-14T09:13:34Z</time>
      </trkpt>
      <trkpt lat="48.42785" lon="2.00623">
        <ele>146.4</ele>
        <time>2023-12-14T09:13:35Z</time>
      </trkpt>
      <trkpt lat="48.42778" lon="2.00621">
        <ele>146.2</ele>
        <time>2023-12-14T09:13:36Z</time>
      </trkpt>
      <trkpt lat="48.42771" lon="2.00618">
        <ele>146.2</ele>
        <time>2023-12-14T09:13:37Z</time>
      </trkpt>
      <trkpt lat="48.42764" lon="2.00616">
        <ele>146.2</ele>
        <time>2023-12-14T09:13:38Z</time>
      </trkpt>
      <trkpt lat="48.42757" lon="2.00614">
        <ele>146.2</ele>
        <time>2023-12-14T09:13:39Z</time>
      </trkpt>
      <trkpt lat="48.4275" lon="2.00611">
        <ele>145.2</ele>
        <time>2023-12-14T09:13:40Z</time>
      </trkpt>
      <trkpt lat="48.42743" lon="2.00609">
        <ele>145.2</ele>
        <time>2023-12-14T09:13:41Z</time>
      </trkpt>
      <trkpt lat="48.42737" lon="2.00606">
        <ele>145.2</ele>
        <time>2023-12-14T09:13:42Z</time>
      </trkpt>
      <trkpt lat="48.4273" lon="2.00604">
        <ele>145.2</ele>
        <time>2023-12-14T09:13:43Z</time>
      </trkpt>
      <trkpt lat="48.42723" lon="2.00601">
        <ele>146.2</ele>
        <time>2023-12-14T09:13:44Z</time>
      </trkpt>
      <trkpt lat="48.42717" lon="2.00598">
        <ele>146.2</ele>
        <time>2023-12-14T09:13:45Z</time>
      </trkpt>
      <trkpt lat="48.4271" lon="2.00596">
        <ele>146.2</ele>
        <time>2023-12-14T09:13:46Z</time>
      </trkpt>
      <trkpt lat="48.42704" lon="2.00593">
        <ele>146.2</ele>
        <time>2023-12-14T09:13:47Z</time>
      </trkpt>
      <trkpt lat="48.42697" lon="2.0059">
        <ele>146.6</ele>
        <time>2023-12-14T09:13:48Z</time>
      </trkpt>
      <trkpt lat="48.42691" lon="2.00588">
        <ele>146.6</ele>
        <time>2023-12-14T09:13:49Z</time>
      </trkpt>
      <trkpt lat="48.42684" lon="2.00585">
        <ele>146.6</ele>
        <time>2023-12-14T09:13:50Z</time>
      </trkpt>
      <trkpt lat="48.42678" lon="2.00582">
        <ele>146.6</ele>
        <time>2023-12-14T09:13:51Z</time>
      </trkpt>
      <trkpt lat="48.42671" lon="2.0058">
        <ele>147.2</ele>
        <time>2023-12-14T09:13:52Z</time>
      </trkpt>
      <trkpt lat="48.42665" lon="2.00577">
        <ele>147.2</ele>
        <time>2023-12-14T09:13:53Z</time>
      </trkpt>
      <trkpt lat="48.42658" lon="2.00575">
        <ele>147.2</ele>
        <time>2023-12-14T09:13:54Z</time>
      </trkpt>
      <trkpt lat="48.42651" lon="2.00572">
        <ele>147.6</ele>
        <time>2023-12-14T09:13:55Z</time>
      </trkpt>
      <trkpt lat="48.42645" lon="2.00569">
        <ele>147.2</ele>
        <time>2023-12-14T09:13:56Z</time>
      </trkpt>
      <trkpt lat="48.42638" lon="2.00567">
        <ele>147.2</ele>
        <time>2023-12-14T09:13:57Z</time>
      </trkpt>
      <trkpt lat="48.42632" lon="2.00565">
        <ele>147.2</ele>
        <time>2023-12-14T09:13:58Z</time>
      </trkpt>
      <trkpt lat="48.42625" lon="2.00562">
        <ele>146.8</ele>
        <time>2023-12-14T09:13:59Z</time>
      </trkpt>
      <trkpt lat="48.42619" lon="2.0056">
        <ele>147.6</ele>
        <time>2023-12-14T09:14:00Z</time>
      </trkpt>
      <trkpt lat="48.42612" lon="2.00558">
        <ele>147.6</ele>
        <time>2023-12-14T09:14:01Z</time>
      </trkpt>
      <trkpt lat="48.42605" lon="2.00556">
        <ele>147.6</ele>
        <time>2023-12-14T09:14:02Z</time>
      </trkpt>
      <trkpt lat="48.42599" lon="2.00554">
        <ele>147.6</ele>
        <time>2023-12-14T09:14:03Z</time>
      </trkpt>
      <trkpt lat="48.42592" lon="2.00552">
        <ele>147.6</ele>
        <time>2023-12-14T09:14:04Z</time>
      </trkpt>
      <trkpt lat="48.42586" lon="2.0055">
        <ele>147.6</ele>
        <time>2023-12-14T09:14:05Z</time>
      </trkpt>
      <trkpt lat="48.42579" lon="2.00549">
        <ele>147.6</ele>
        <time>2023-12-14T09:14:06Z</time>
      </trkpt>
      <trkpt lat="48.42573" lon="2.00547">
        <ele>147.6</ele>
        <time>2023-12-14T09:14:07Z</time>
      </trkpt>
      <trkpt lat="48.42566" lon="2.00545">
        <ele>147.6</ele>
        <time>2023-12-14T09:14:08Z</time>
      </trkpt>
      <trkpt lat="48.42559" lon="2.00544">
        <ele>147.6</ele>
        <time>2023-12-14T09:14:09Z</time>
      </trkpt>
      <trkpt lat="48.42553" lon="2.00543">
        <ele>147.6</ele>
        <time>2023-12-14T09:14:10Z</time>
      </trkpt>
      <trkpt lat="48.42546" lon="2.00542">
        <ele>148.4</ele>
        <time>2023-12-14T09:14:11Z</time>
      </trkpt>
      <trkpt lat="48.4254" lon="2.00541">
        <ele>148.2</ele>
        <time>2023-12-14T09:14:12Z</time>
      </trkpt>
      <trkpt lat="48.42533" lon="2.0054">
        <ele>148.2</ele>
        <time>2023-12-14T09:14:13Z</time>
      </trkpt>
      <trkpt lat="48.42526" lon="2.00538">
        <ele>148.2</ele>
        <time>2023-12-14T09:14:14Z</time>
      </trkpt>
      <trkpt lat="48.4252" lon="2.00537">
        <ele>148</ele>
        <time>2023-12-14T09:14:15Z</time>
      </trkpt>
      <trkpt lat="48.42513" lon="2.00536">
        <ele>148.4</ele>
        <time>2023-12-14T09:14:16Z</time>
      </trkpt>
      <trkpt lat="48.42507" lon="2.00535">
        <ele>148.4</ele>
        <time>2023-12-14T09:14:17Z</time>
      </trkpt>
      <trkpt lat="48.425" lon="2.00533">
        <ele>148.4</ele>
        <time>2023-12-14T09:14:18Z</time>
      </trkpt>
      <trkpt lat="48.42494" lon="2.00532">
        <ele>148.4</ele>
        <time>2023-12-14T09:14:19Z</time>
      </trkpt>
      <trkpt lat="48.42487" lon="2.00531">
        <ele>148.6</ele>
        <time>2023-12-14T09:14:20Z</time>
      </trkpt>
      <trkpt lat="48.4248" lon="2.00529">
        <ele>148.6</ele>
        <time>2023-12-14T09:14:21Z</time>
      </trkpt>
      <trkpt lat="48.42474" lon="2.00527">
        <ele>148.6</ele>
        <time>2023-12-14T09:14:22Z</time>
      </trkpt>
      <trkpt lat="48.42467" lon="2.00525">
        <ele>148</ele>
        <time>2023-12-14T09:14:23Z</time>
      </trkpt>
      <trkpt lat="48.42461" lon="2.00523">
        <ele>148.2</ele>
        <time>2023-12-14T09:14:24Z</time>
      </trkpt>
      <trkpt lat="48.42454" lon="2.00522">
        <ele>148.2</ele>
        <time>2023-12-14T09:14:25Z</time>
      </trkpt>
      <trkpt lat="48.42448" lon="2.00521">
        <ele>148.2</ele>
        <time>2023-12-14T09:14:26Z</time>
      </trkpt>
      <trkpt lat="48.42441" lon="2.00519">
        <ele>148.2</ele>
        <time>2023-12-14T09:14:27Z</time>
      </trkpt>
      <trkpt lat="48.42435" lon="2.00518">
        <ele>148.6</ele>
        <time>2023-12-14T09:14:28Z</time>
      </trkpt>
      <trkpt lat="48.42428" lon="2.00517">
        <ele>148.6</ele>
        <time>2023-12-14T09:14:29Z</time>
      </trkpt>
      <trkpt lat="48.42422" lon="2.00515">
        <ele>148.6</ele>
        <time>2023-12-14T09:14:30Z</time>
      </trkpt>
      <trkpt lat="48.42415" lon="2.00514">
        <ele>148.6</ele>
        <time>2023-12-14T09:14:31Z</time>
      </trkpt>
      <trkpt lat="48.42409" lon="2.00513">
        <ele>149.2</ele>
        <time>2023-12-14T09:14:32Z</time>
      </trkpt>
      <trkpt lat="48.42402" lon="2.00511">
        <ele>149.2</ele>
        <time>2023-12-14T09:14:33Z</time>
      </trkpt>
      <trkpt lat="48.42396" lon="2.0051">
        <ele>149.2</ele>
        <time>2023-12-14T09:14:34Z</time>
      </trkpt>
      <trkpt lat="48.4239" lon="2.00509">
        <ele>148.6</ele>
        <time>2023-12-14T09:14:35Z</time>
      </trkpt>
      <trkpt lat="48.42383" lon="2.00508">
        <ele>149</ele>
        <time>2023-12-14T09:14:36Z</time>
      </trkpt>
      <trkpt lat="48.42377" lon="2.00506">
        <ele>149</ele>
        <time>2023-12-14T09:14:37Z</time>
      </trkpt>
      <trkpt lat="48.4237" lon="2.00505">
        <ele>149</ele>
        <time>2023-12-14T09:14:38Z</time>
      </trkpt>
      <trkpt lat="48.42363" lon="2.00503">
        <ele>149</ele>
        <time>2023-12-14T09:14:39Z</time>
      </trkpt>
      <trkpt lat="48.42357" lon="2.00502">
        <ele>148.4</ele>
        <time>2023-12-14T09:14:40Z</time>
      </trkpt>
      <trkpt lat="48.4235" lon="2.00501">
        <ele>148.4</ele>
        <time>2023-12-14T09:14:41Z</time>
      </trkpt>
      <trkpt lat="48.42344" lon="2.00499">
        <ele>148.4</ele>
        <time>2023-12-14T09:14:42Z</time>
      </trkpt>
      <trkpt lat="48.42337" lon="2.00498">
        <ele>148.4</ele>
        <time>2023-12-14T09:14:43Z</time>
      </trkpt>
      <trkpt lat="48.4233" lon="2.00497">
        <ele>148.6</ele>
        <time>2023-12-14T09:14:44Z</time>
      </trkpt>
      <trkpt lat="48.42324" lon="2.00495">
        <ele>148.6</ele>
        <time>2023-12-14T09:14:45Z</time>
      </trkpt>
      <trkpt lat="48.42317" lon="2.00493">
        <ele>148.6</ele>
        <time>2023-12-14T09:14:46Z</time>
      </trkpt>
      <trkpt lat="48.4231" lon="2.00492">
        <ele>148.6</ele>
        <time>2023-12-14T09:14:47Z</time>
      </trkpt>
      <trkpt lat="48.42303" lon="2.00491">
        <ele>148.6</ele>
        <time>2023-12-14T09:14:48Z</time>
      </trkpt>
      <trkpt lat="48.42296" lon="2.00489">
        <ele>148.6</ele>
        <time>2023-12-14T09:14:49Z</time>
      </trkpt>
      <trkpt lat="48.42289" lon="2.00488">
        <ele>148.6</ele>
        <time>2023-12-14T09:14:50Z</time>
      </trkpt>
      <trkpt lat="48.42283" lon="2.00486">
        <ele>148.2</ele>
        <time>2023-12-14T09:14:51Z</time>
      </trkpt>
      <trkpt lat="48.42276" lon="2.00485">
        <ele>149</ele>
        <time>2023-12-14T09:14:52Z</time>
      </trkpt>
      <trkpt lat="48.42269" lon="2.00484">
        <ele>149</ele>
        <time>2023-12-14T09:14:53Z</time>
      </trkpt>
      <trkpt lat="48.42262" lon="2.00482">
        <ele>149</ele>
        <time>2023-12-14T09:14:54Z</time>
      </trkpt>
      <trkpt lat="48.42255" lon="2.00481">
        <ele>149</ele>
        <time>2023-12-14T09:14:55Z</time>
      </trkpt>
      <trkpt lat="48.42248" lon="2.00479">
        <ele>148.6</ele>
        <time>2023-12-14T09:14:56Z</time>
      </trkpt>
      <trkpt lat="48.42241" lon="2.00478">
        <ele>148.6</ele>
        <time>2023-12-14T09:14:57Z</time>
      </trkpt>
      <trkpt lat="48.42234" lon="2.00476">
        <ele>148.6</ele>
        <time>2023-12-14T09:14:58Z</time>
      </trkpt>
      <trkpt lat="48.42227" lon="2.00475">
        <ele>149</ele>
        <time>2023-12-14T09:14:59Z</time>
      </trkpt>
      <trkpt lat="48.42221" lon="2.00474">
        <ele>149</ele>
        <time>2023-12-14T09:15:00Z</time>
      </trkpt>
      <trkpt lat="48.42214" lon="2.00472">
        <ele>149</ele>
        <time>2023-12-14T09:15:01Z</time>
      </trkpt>
      <trkpt lat="48.42207" lon="2.00471">
        <ele>149</ele>
        <time>2023-12-14T09:15:02Z</time>
      </trkpt>
      <trkpt lat="48.422" lon="2.00469">
        <ele>149</ele>
        <time>2023-12-14T09:15:03Z</time>
      </trkpt>
      <trkpt lat="48.42193" lon="2.00468">
        <ele>149</ele>
        <time>2023-12-14T09:15:04Z</time>
      </trkpt>
      <trkpt lat="48.42186" lon="2.00467">
        <ele>149</ele>
        <time>2023-12-14T09:15:05Z</time>
      </trkpt>
      <trkpt lat="48.42179" lon="2.00465">
        <ele>149</ele>
        <time>2023-12-14T09:15:06Z</time>
      </trkpt>
      <trkpt lat="48.42172" lon="2.00464">
        <ele>149</ele>
        <time>2023-12-14T09:15:07Z</time>
      </trkpt>
      <trkpt lat="48.42165" lon="2.00462">
        <ele>148.6</ele>
        <time>2023-12-14T09:15:08Z</time>
      </trkpt>
      <trkpt lat="48.42158" lon="2.00461">
        <ele>148.6</ele>
        <time>2023-12-14T09:15:09Z</time>
      </trkpt>
      <trkpt lat="48.42151" lon="2.00459">
        <ele>148.6</ele>
        <time>2023-12-14T09:15:10Z</time>
      </trkpt>
      <trkpt lat="48.42145" lon="2.00457">
        <ele>148.6</ele>
        <time>2023-12-14T09:15:11Z</time>
      </trkpt>
      <trkpt lat="48.42138" lon="2.00456">
        <ele>148.6</ele>
        <time>2023-12-14T09:15:12Z</time>
      </trkpt>
      <trkpt lat="48.42131" lon="2.00454">
        <ele>148.6</ele>
        <time>2023-12-14T09:15:13Z</time>
      </trkpt>
      <trkpt lat="48.42124" lon="2.00452">
        <ele>148.6</ele>
        <time>2023-12-14T09:15:14Z</time>
      </trkpt>
      <trkpt lat="48.42117" lon="2.0045">
        <ele>148.6</ele>
        <time>2023-12-14T09:15:15Z</time>
      </trkpt>
      <trkpt lat="48.42111" lon="2.00448">
        <ele>148.2</ele>
        <time>2023-12-14T09:15:16Z</time>
      </trkpt>
      <trkpt lat="48.42104" lon="2.00446">
        <ele>148.2</ele>
        <time>2023-12-14T09:15:17Z</time>
      </trkpt>
      <trkpt lat="48.42097" lon="2.00444">
        <ele>148.2</ele>
        <time>2023-12-14T09:15:18Z</time>
      </trkpt>
      <trkpt lat="48.42091" lon="2.00442">
        <ele>148.4</ele>
        <time>2023-12-14T09:15:19Z</time>
      </trkpt>
      <trkpt lat="48.42084" lon="2.0044">
        <ele>149</ele>
        <time>2023-12-14T09:15:20Z</time>
      </trkpt>
      <trkpt lat="48.42078" lon="2.00439">
        <ele>149</ele>
        <time>2023-12-14T09:15:21Z</time>
      </trkpt>
      <trkpt lat="48.42071" lon="2.00437">
        <ele>149</ele>
        <time>2023-12-14T09:15:22Z</time>
      </trkpt>
      <trkpt lat="48.42065" lon="2.00435">
        <ele>149</ele>
        <time>2023-12-14T09:15:23Z</time>
      </trkpt>
      <trkpt lat="48.42058" lon="2.00433">
        <ele>150</ele>
        <time>2023-12-14T09:15:24Z</time>
      </trkpt>
      <trkpt lat="48.42052" lon="2.00431">
        <ele>150</ele>
        <time>2023-12-14T09:15:25Z</time>
      </trkpt>
      <trkpt lat="48.42045" lon="2.00428">
        <ele>150</ele>
        <time>2023-12-14T09:15:26Z</time>
      </trkpt>
      <trkpt lat="48.42038" lon="2.00426">
        <ele>149.2</ele>
        <time>2023-12-14T09:15:27Z</time>
      </trkpt>
      <trkpt lat="48.42031" lon="2.00424">
        <ele>148.6</ele>
        <time>2023-12-14T09:15:28Z</time>
      </trkpt>
      <trkpt lat="48.42024" lon="2.00422">
        <ele>148.6</ele>
        <time>2023-12-14T09:15:29Z</time>
      </trkpt>
      <trkpt lat="48.42017" lon="2.00421">
        <ele>148.6</ele>
        <time>2023-12-14T09:15:30Z</time>
      </trkpt>
      <trkpt lat="48.4201" lon="2.00418">
        <ele>148.6</ele>
        <time>2023-12-14T09:15:31Z</time>
      </trkpt>
      <trkpt lat="48.42004" lon="2.00416">
        <ele>148.2</ele>
        <time>2023-12-14T09:15:32Z</time>
      </trkpt>
      <trkpt lat="48.41997" lon="2.00413">
        <ele>148.2</ele>
        <time>2023-12-14T09:15:33Z</time>
      </trkpt>
      <trkpt lat="48.4199" lon="2.00411">
        <ele>148.2</ele>
        <time>2023-12-14T09:15:34Z</time>
      </trkpt>
      <trkpt lat="48.41983" lon="2.00409">
        <ele>148.2</ele>
        <time>2023-12-14T09:15:35Z</time>
      </trkpt>
      <trkpt lat="48.41976" lon="2.00407">
        <ele>147.4</ele>
        <time>2023-12-14T09:15:36Z</time>
      </trkpt>
      <trkpt lat="48.41969" lon="2.00406">
        <ele>147.4</ele>
        <time>2023-12-14T09:15:37Z</time>
      </trkpt>
      <trkpt lat="48.41962" lon="2.00404">
        <ele>147.4</ele>
        <time>2023-12-14T09:15:38Z</time>
      </trkpt>
      <trkpt lat="48.41955" lon="2.00401">
        <ele>147.4</ele>
        <time>2023-12-14T09:15:39Z</time>
      </trkpt>
      <trkpt lat="48.41948" lon="2.00399">
        <ele>147.4</ele>
        <time>2023-12-14T09:15:40Z</time>
      </trkpt>
      <trkpt lat="48.41942" lon="2.00397">
        <ele>147.4</ele>
        <time>2023-12-14T09:15:41Z</time>
      </trkpt>
      <trkpt lat="48.41935" lon="2.00395">
        <ele>147.4</ele>
        <time>2023-12-14T09:15:42Z</time>
      </trkpt>
      <trkpt lat="48.41928" lon="2.00394">
        <ele>147.6</ele>
        <time>2023-12-14T09:15:43Z</time>
      </trkpt>
      <trkpt lat="48.41922" lon="2.00392">
        <ele>147.6</ele>
        <time>2023-12-14T09:15:44Z</time>
      </trkpt>
      <trkpt lat="48.41916" lon="2.0039">
        <ele>147.6</ele>
        <time>2023-12-14T09:15:45Z</time>
      </trkpt>
      <trkpt lat="48.4191" lon="2.00388">
        <ele>147.6</ele>
        <time>2023-12-14T09:15:46Z</time>
      </trkpt>
      <trkpt lat="48.41904" lon="2.00387">
        <ele>147.6</ele>
        <time>2023-12-14T09:15:47Z</time>
      </trkpt>
      <trkpt lat="48.41898" lon="2.00385">
        <ele>147.6</ele>
        <time>2023-12-14T09:15:48Z</time>
      </trkpt>
      <trkpt lat="48.41893" lon="2.00384">
        <ele>147.6</ele>
        <time>2023-12-14T09:15:49Z</time>
      </trkpt>
      <trkpt lat="48.41889" lon="2.00385">
        <ele>147.6</ele>
        <time>2023-12-14T09:15:50Z</time>
      </trkpt>
      <trkpt lat="48.41885" lon="2.00388">
        <ele>148.6</ele>
        <time>2023-12-14T09:15:51Z</time>
      </trkpt>
      <trkpt lat="48.41884" lon="2.00393">
        <ele>148.8</ele>
        <time>2023-12-14T09:15:52Z</time>
      </trkpt>
      <trkpt lat="48.41883" lon="2.00399">
        <ele>148.8</ele>
        <time>2023-12-14T09:15:53Z</time>
      </trkpt>
      <trkpt lat="48.41884" lon="2.00406">
        <ele>148.8</ele>
        <time>2023-12-14T09:15:54Z</time>
      </trkpt>
      <trkpt lat="48.41884" lon="2.00412">
        <ele>148.4</ele>
        <time>2023-12-14T09:15:55Z</time>
      </trkpt>
      <trkpt lat="48.41884" lon="2.00419">
        <ele>148.4</ele>
        <time>2023-12-14T09:15:56Z</time>
      </trkpt>
      <trkpt lat="48.41885" lon="2.00426">
        <ele>148.4</ele>
        <time>2023-12-14T09:15:57Z</time>
      </trkpt>
      <trkpt lat="48.41886" lon="2.00433">
        <ele>148.4</ele>
        <time>2023-12-14T09:15:58Z</time>
      </trkpt>
      <trkpt lat="48.41886" lon="2.00442">
        <ele>148.4</ele>
        <time>2023-12-14T09:15:59Z</time>
      </trkpt>
      <trkpt lat="48.41887" lon="2.0045">
        <ele>148.6</ele>
        <time>2023-12-14T09:16:00Z</time>
      </trkpt>
      <trkpt lat="48.41888" lon="2.00458">
        <ele>148.6</ele>
        <time>2023-12-14T09:16:01Z</time>
      </trkpt>
      <trkpt lat="48.41889" lon="2.00466">
        <ele>148.6</ele>
        <time>2023-12-14T09:16:02Z</time>
      </trkpt>
      <trkpt lat="48.4189" lon="2.00474">
        <ele>148.6</ele>
        <time>2023-12-14T09:16:03Z</time>
      </trkpt>
      <trkpt lat="48.41891" lon="2.00483">
        <ele>148.2</ele>
        <time>2023-12-14T09:16:04Z</time>
      </trkpt>
      <trkpt lat="48.41892" lon="2.00491">
        <ele>148.2</ele>
        <time>2023-12-14T09:16:05Z</time>
      </trkpt>
      <trkpt lat="48.41894" lon="2.005">
        <ele>148.2</ele>
        <time>2023-12-14T09:16:06Z</time>
      </trkpt>
      <trkpt lat="48.41895" lon="2.00509">
        <ele>148.2</ele>
        <time>2023-12-14T09:16:07Z</time>
      </trkpt>
      <trkpt lat="48.41896" lon="2.00517">
        <ele>147.6</ele>
        <time>2023-12-14T09:16:08Z</time>
      </trkpt>
      <trkpt lat="48.41897" lon="2.00526">
        <ele>147.6</ele>
        <time>2023-12-14T09:16:09Z</time>
      </trkpt>
      <trkpt lat="48.41898" lon="2.00535">
        <ele>147.6</ele>
        <time>2023-12-14T09:16:10Z</time>
      </trkpt>
      <trkpt lat="48.41899" lon="2.00545">
        <ele>148.4</ele>
        <time>2023-12-14T09:16:11Z</time>
      </trkpt>
      <trkpt lat="48.419" lon="2.00554">
        <ele>148.6</ele>
        <time>2023-12-14T09:16:12Z</time>
      </trkpt>
      <trkpt lat="48.41902" lon="2.00563">
        <ele>148.6</ele>
        <time>2023-12-14T09:16:13Z</time>
      </trkpt>
      <trkpt lat="48.41903" lon="2.00572">
        <ele>148.6</ele>
        <time>2023-12-14T09:16:14Z</time>
      </trkpt>
      <trkpt lat="48.41904" lon="2.00581">
        <ele>148.6</ele>
        <time>2023-12-14T09:16:15Z</time>
      </trkpt>
      <trkpt lat="48.41905" lon="2.0059">
        <ele>149.2</ele>
        <time>2023-12-14T09:16:16Z</time>
      </trkpt>
      <trkpt lat="48.41906" lon="2.00599">
        <ele>149.2</ele>
        <time>2023-12-14T09:16:17Z</time>
      </trkpt>
      <trkpt lat="48.41907" lon="2.00608">
        <ele>149.2</ele>
        <time>2023-12-14T09:16:18Z</time>
      </trkpt>
      <trkpt lat="48.41908" lon="2.00615">
        <ele>149.2</ele>
        <time>2023-12-14T09:16:19Z</time>
      </trkpt>
      <trkpt lat="48.41908" lon="2.00619">
        <ele>149.8</ele>
        <time>2023-12-14T09:16:20Z</time>
      </trkpt>
      <trkpt lat="48.41909" lon="2.00621">
        <ele>149.8</ele>
        <time>2023-12-14T09:16:21Z</time>
      </trkpt>
      <trkpt lat="48.41911" lon="2.00621">
        <ele>149.8</ele>
        <time>2023-12-14T09:16:22Z</time>
      </trkpt>
      <trkpt lat="48.41911" lon="2.00619">
        <ele>148.8</ele>
        <time>2023-12-14T09:16:23Z</time>
      </trkpt>
      <trkpt lat="48.4191" lon="2.00617">
        <ele>149.6</ele>
        <time>2023-12-14T09:16:24Z</time>
      </trkpt>
      <trkpt lat="48.41908" lon="2.00615">
        <ele>149.6</ele>
        <time>2023-12-14T09:16:25Z</time>
      </trkpt>
      <trkpt lat="48.41907" lon="2.00612">
        <ele>149.6</ele>
        <time>2023-12-14T09:16:26Z</time>
      </trkpt>
      <trkpt lat="48.41906" lon="2.00608">
        <ele>148.8</ele>
        <time>2023-12-14T09:16:27Z</time>
      </trkpt>
      <trkpt lat="48.41905" lon="2.00604">
        <ele>148.4</ele>
        <time>2023-12-14T09:16:28Z</time>
      </trkpt>
      <trkpt lat="48.41905" lon="2.006">
        <ele>148.4</ele>
        <time>2023-12-14T09:16:29Z</time>
      </trkpt>
      <trkpt lat="48.41905" lon="2.00598">
        <ele>148.4</ele>
        <time>2023-12-14T09:16:30Z</time>
      </trkpt>
      <trkpt lat="48.41905" lon="2.00597">
        <ele>149.2</ele>
        <time>2023-12-14T09:16:31Z</time>
      </trkpt>
      <trkpt lat="48.41905" lon="2.00597">
        <ele>149</ele>
        <time>2023-12-14T09:16:32Z</time>
      </trkpt>
      <trkpt lat="48.41905" lon="2.00597">
        <ele>149</ele>
        <time>2023-12-14T09:16:33Z</time>
      </trkpt>
      <trkpt lat="48.41905" lon="2.00597">
        <ele>149</ele>
        <time>2023-12-14T09:16:34Z</time>
      </trkpt>
      <trkpt lat="48.41906" lon="2.00597">
        <ele>149</ele>
        <time>2023-12-14T09:16:35Z</time>
      </trkpt>
      <trkpt lat="48.41907" lon="2.00599">
        <ele>149.6</ele>
        <time>2023-12-14T09:16:36Z</time>
      </trkpt>
      <trkpt lat="48.41907" lon="2.00603">
        <ele>149.6</ele>
        <time>2023-12-14T09:16:37Z</time>
      </trkpt>
      <trkpt lat="48.41907" lon="2.00605">
        <ele>149.6</ele>
        <time>2023-12-14T09:16:38Z</time>
      </trkpt>
      <trkpt lat="48.41906" lon="2.00608">
        <ele>149.2</ele>
        <time>2023-12-14T09:16:39Z</time>
      </trkpt>
      <trkpt lat="48.41906" lon="2.00612">
        <ele>149.2</ele>
        <time>2023-12-14T09:16:40Z</time>
      </trkpt>
      <trkpt lat="48.41907" lon="2.00616">
        <ele>149.2</ele>
        <time>2023-12-14T09:16:41Z</time>
      </trkpt>
      <trkpt lat="48.41907" lon="2.00621">
        <ele>149.2</ele>
        <time>2023-12-14T09:16:42Z</time>
      </trkpt>
      <trkpt lat="48.41908" lon="2.00627">
        <ele>149.2</ele>
        <time>2023-12-14T09:16:43Z</time>
      </trkpt>
      <trkpt lat="48.41909" lon="2.00633">
        <ele>148.8</ele>
        <time>2023-12-14T09:16:44Z</time>
      </trkpt>
      <trkpt lat="48.4191" lon="2.00639">
        <ele>148.8</ele>
        <time>2023-12-14T09:16:45Z</time>
      </trkpt>
      <trkpt lat="48.41911" lon="2.00645">
        <ele>148.8</ele>
        <time>2023-12-14T09:16:46Z</time>
      </trkpt>
      <trkpt lat="48.41912" lon="2.00652">
        <ele>148.8</ele>
        <time>2023-12-14T09:16:47Z</time>
      </trkpt>
      <trkpt lat="48.41913" lon="2.00659">
        <ele>149</ele>
        <time>2023-12-14T09:16:48Z</time>
      </trkpt>
      <trkpt lat="48.41915" lon="2.00666">
        <ele>149</ele>
        <time>2023-12-14T09:16:49Z</time>
      </trkpt>
      <trkpt lat="48.41916" lon="2.00673">
        <ele>149</ele>
        <time>2023-12-14T09:16:50Z</time>
      </trkpt>
      <trkpt lat="48.41916" lon="2.0068">
        <ele>149.6</ele>
        <time>2023-12-14T09:16:51Z</time>
      </trkpt>
      <trkpt lat="48.41917" lon="2.00687">
        <ele>149.4</ele>
        <time>2023-12-14T09:16:52Z</time>
      </trkpt>
      <trkpt lat="48.41919" lon="2.00695">
        <ele>149.4</ele>
        <time>2023-12-14T09:16:53Z</time>
      </trkpt>
      <trkpt lat="48.4192" lon="2.00702">
        <ele>149.4</ele>
        <time>2023-12-14T09:16:54Z</time>
      </trkpt>
      <trkpt lat="48.41921" lon="2.00709">
        <ele>149.4</ele>
        <time>2023-12-14T09:16:55Z</time>
      </trkpt>
      <trkpt lat="48.41921" lon="2.00717">
        <ele>149.2</ele>
        <time>2023-12-14T09:16:56Z</time>
      </trkpt>
      <trkpt lat="48.41923" lon="2.00725">
        <ele>149.2</ele>
        <time>2023-12-14T09:16:57Z</time>
      </trkpt>
      <trkpt lat="48.41924" lon="2.00733">
        <ele>149.2</ele>
        <time>2023-12-14T09:16:58Z</time>
      </trkpt>
      <trkpt lat="48.41925" lon="2.00741">
        <ele>149.2</ele>
        <time>2023-12-14T09:16:59Z</time>
      </trkpt>
      <trkpt lat="48.41926" lon="2.00749">
        <ele>149.2</ele>
        <time>2023-12-14T09:17:00Z</time>
      </trkpt>
      <trkpt lat="48.41927" lon="2.00758">
        <ele>149.2</ele>
        <time>2023-12-14T09:17:01Z</time>
      </trkpt>
      <trkpt lat="48.41928" lon="2.00766">
        <ele>149.2</ele>
        <time>2023-12-14T09:17:02Z</time>
      </trkpt>
      <trkpt lat="48.41929" lon="2.00775">
        <ele>149.2</ele>
        <time>2023-12-14T09:17:03Z</time>
      </trkpt>
      <trkpt lat="48.4193" lon="2.00784">
        <ele>149.2</ele>
        <time>2023-12-14T09:17:04Z</time>
      </trkpt>
      <trkpt lat="48.41931" lon="2.00793">
        <ele>149.2</ele>
        <time>2023-12-14T09:17:05Z</time>
      </trkpt>
      <trkpt lat="48.41932" lon="2.00801">
        <ele>149.2</ele>
        <time>2023-12-14T09:17:06Z</time>
      </trkpt>
      <trkpt lat="48.41933" lon="2.0081">
        <ele>149.2</ele>
        <time>2023-12-14T09:17:07Z</time>
      </trkpt>
      <trkpt lat="48.41934" lon="2.00819">
        <ele>148.6</ele>
        <time>2023-12-14T09:17:08Z</time>
      </trkpt>
      <trkpt lat="48.41936" lon="2.00828">
        <ele>148.6</ele>
        <time>2023-12-14T09:17:09Z</time>
      </trkpt>
      <trkpt lat="48.41937" lon="2.00837">
        <ele>148.6</ele>
        <time>2023-12-14T09:17:10Z</time>
      </trkpt>
      <trkpt lat="48.41938" lon="2.00846">
        <ele>148.6</ele>
        <time>2023-12-14T09:17:11Z</time>
      </trkpt>
      <trkpt lat="48.41939" lon="2.00855">
        <ele>148.8</ele>
        <time>2023-12-14T09:17:12Z</time>
      </trkpt>
      <trkpt lat="48.4194" lon="2.00864">
        <ele>148.8</ele>
        <time>2023-12-14T09:17:13Z</time>
      </trkpt>
      <trkpt lat="48.41942" lon="2.00873">
        <ele>148.8</ele>
        <time>2023-12-14T09:17:14Z</time>
      </trkpt>
      <trkpt lat="48.41943" lon="2.00883">
        <ele>148.8</ele>
        <time>2023-12-14T09:17:15Z</time>
      </trkpt>
      <trkpt lat="48.41944" lon="2.00892">
        <ele>148.8</ele>
        <time>2023-12-14T09:17:16Z</time>
      </trkpt>
      <trkpt lat="48.41945" lon="2.00901">
        <ele>148.8</ele>
        <time>2023-12-14T09:17:17Z</time>
      </trkpt>
      <trkpt lat="48.41946" lon="2.0091">
        <ele>148.8</ele>
        <time>2023-12-14T09:17:18Z</time>
      </trkpt>
      <trkpt lat="48.41947" lon="2.0092">
        <ele>149.2</ele>
        <time>2023-12-14T09:17:19Z</time>
      </trkpt>
      <trkpt lat="48.41948" lon="2.00929">
        <ele>149.2</ele>
        <time>2023-12-14T09:17:20Z</time>
      </trkpt>
      <trkpt lat="48.41949" lon="2.00938">
        <ele>149.2</ele>
        <time>2023-12-14T09:17:21Z</time>
      </trkpt>
      <trkpt lat="48.41951" lon="2.00948">
        <ele>149.2</ele>
        <time>2023-12-14T09:17:22Z</time>
      </trkpt>
      <trkpt lat="48.41952" lon="2.00957">
        <ele>148.6</ele>
        <time>2023-12-14T09:17:23Z</time>
      </trkpt>
      <trkpt lat="48.41953" lon="2.00967">
        <ele>148.6</ele>
        <time>2023-12-14T09:17:24Z</time>
      </trkpt>
      <trkpt lat="48.41954" lon="2.00976">
        <ele>148.6</ele>
        <time>2023-12-14T09:17:25Z</time>
      </trkpt>
      <trkpt lat="48.41955" lon="2.00986">
        <ele>148.6</ele>
        <time>2023-12-14T09:17:26Z</time>
      </trkpt>
      <trkpt lat="48.41957" lon="2.00995">
        <ele>149.4</ele>
        <time>2023-12-14T09:17:27Z</time>
      </trkpt>
      <trkpt lat="48.41958" lon="2.01005">
        <ele>149</ele>
        <time>2023-12-14T09:17:28Z</time>
      </trkpt>
      <trkpt lat="48.41959" lon="2.01014">
        <ele>149</ele>
        <time>2023-12-14T09:17:29Z</time>
      </trkpt>
      <trkpt lat="48.4196" lon="2.01024">
        <ele>149</ele>
        <time>2023-12-14T09:17:30Z</time>
      </trkpt>
      <trkpt lat="48.41961" lon="2.01033">
        <ele>149.2</ele>
        <time>2023-12-14T09:17:31Z</time>
      </trkpt>
      <trkpt lat="48.41963" lon="2.01043">
        <ele>149.2</ele>
        <time>2023-12-14T09:17:32Z</time>
      </trkpt>
      <trkpt lat="48.41964" lon="2.01052">
        <ele>149.2</ele>
        <time>2023-12-14T09:17:33Z</time>
      </trkpt>
      <trkpt lat="48.41965" lon="2.01062">
        <ele>149.2</ele>
        <time>2023-12-14T09:17:34Z</time>
      </trkpt>
      <trkpt lat="48.41966" lon="2.01072">
        <ele>149.2</ele>
        <time>2023-12-14T09:17:35Z</time>
      </trkpt>
      <trkpt lat="48.41968" lon="2.01081">
        <ele>149</ele>
        <time>2023-12-14T09:17:36Z</time>
      </trkpt>
      <trkpt lat="48.41969" lon="2.01091">
        <ele>149</ele>
        <time>2023-12-14T09:17:37Z</time>
      </trkpt>
      <trkpt lat="48.4197" lon="2.011">
        <ele>149</ele>
        <time>2023-12-14T09:17:38Z</time>
      </trkpt>
      <trkpt lat="48.41971" lon="2.0111">
        <ele>149</ele>
        <time>2023-12-14T09:17:39Z</time>
      </trkpt>
      <trkpt lat="48.41973" lon="2.01119">
        <ele>149.4</ele>
        <time>2023-12-14T09:17:40Z</time>
      </trkpt>
      <trkpt lat="48.41974" lon="2.01129">
        <ele>149.4</ele>
        <time>2023-12-14T09:17:41Z</time>
      </trkpt>
      <trkpt lat="48.41975" lon="2.01138">
        <ele>149.4</ele>
        <time>2023-12-14T09:17:42Z</time>
      </trkpt>
      <trkpt lat="48.41976" lon="2.01148">
        <ele>149.4</ele>
        <time>2023-12-14T09:17:43Z</time>
      </trkpt>
      <trkpt lat="48.41978" lon="2.01157">
        <ele>148.8</ele>
        <time>2023-12-14T09:17:44Z</time>
      </trkpt>
      <trkpt lat="48.41979" lon="2.01167">
        <ele>148.8</ele>
        <time>2023-12-14T09:17:45Z</time>
      </trkpt>
      <trkpt lat="48.4198" lon="2.01176">
        <ele>148.8</ele>
        <time>2023-12-14T09:17:46Z</time>
      </trkpt>
      <trkpt lat="48.41981" lon="2.01186">
        <ele>148.8</ele>
        <time>2023-12-14T09:17:47Z</time>
      </trkpt>
      <trkpt lat="48.41983" lon="2.01195">
        <ele>149.8</ele>
        <time>2023-12-14T09:17:48Z</time>
      </trkpt>
      <trkpt lat="48.41984" lon="2.01205">
        <ele>149.8</ele>
        <time>2023-12-14T09:17:49Z</time>
      </trkpt>
      <trkpt lat="48.41985" lon="2.01215">
        <ele>149.8</ele>
        <time>2023-12-14T09:17:50Z</time>
      </trkpt>
      <trkpt lat="48.41986" lon="2.01224">
        <ele>149.6</ele>
        <time>2023-12-14T09:17:51Z</time>
      </trkpt>
      <trkpt lat="48.41988" lon="2.01234">
        <ele>148.8</ele>
        <time>2023-12-14T09:17:52Z</time>
      </trkpt>
      <trkpt lat="48.41989" lon="2.01244">
        <ele>148.8</ele>
        <time>2023-12-14T09:17:53Z</time>
      </trkpt>
      <trkpt lat="48.4199" lon="2.01253">
        <ele>148.8</ele>
        <time>2023-12-14T09:17:54Z</time>
      </trkpt>
      <trkpt lat="48.41991" lon="2.01263">
        <ele>148.8</ele>
        <time>2023-12-14T09:17:55Z</time>
      </trkpt>
      <trkpt lat="48.41993" lon="2.01272">
        <ele>149.2</ele>
        <time>2023-12-14T09:17:56Z</time>
      </trkpt>
      <trkpt lat="48.41994" lon="2.01282">
        <ele>149.2</ele>
        <time>2023-12-14T09:17:57Z</time>
      </trkpt>
      <trkpt lat="48.41996" lon="2.01292">
        <ele>149.2</ele>
        <time>2023-12-14T09:17:58Z</time>
      </trkpt>
      <trkpt lat="48.41997" lon="2.01302">
        <ele>149.6</ele>
        <time>2023-12-14T09:17:59Z</time>
      </trkpt>
      <trkpt lat="48.41998" lon="2.01312">
        <ele>149.6</ele>
        <time>2023-12-14T09:18:00Z</time>
      </trkpt>
      <trkpt lat="48.41999" lon="2.01321">
        <ele>149.6</ele>
        <time>2023-12-14T09:18:01Z</time>
      </trkpt>
      <trkpt lat="48.42" lon="2.01331">
        <ele>149.6</ele>
        <time>2023-12-14T09:18:02Z</time>
      </trkpt>
      <trkpt lat="48.42002" lon="2.01341">
        <ele>149.6</ele>
        <time>2023-12-14T09:18:03Z</time>
      </trkpt>
      <trkpt lat="48.42003" lon="2.01351">
        <ele>149.2</ele>
        <time>2023-12-14T09:18:04Z</time>
      </trkpt>
      <trkpt lat="48.42004" lon="2.01361">
        <ele>149.2</ele>
        <time>2023-12-14T09:18:05Z</time>
      </trkpt>
      <trkpt lat="48.42005" lon="2.01371">
        <ele>149.2</ele>
        <time>2023-12-14T09:18:06Z</time>
      </trkpt>
      <trkpt lat="48.42007" lon="2.01381">
        <ele>149.2</ele>
        <time>2023-12-14T09:18:07Z</time>
      </trkpt>
      <trkpt lat="48.42008" lon="2.01391">
        <ele>149</ele>
        <time>2023-12-14T09:18:08Z</time>
      </trkpt>
      <trkpt lat="48.42009" lon="2.01401">
        <ele>149</ele>
        <time>2023-12-14T09:18:09Z</time>
      </trkpt>
      <trkpt lat="48.42011" lon="2.01411">
        <ele>149</ele>
        <time>2023-12-14T09:18:10Z</time>
      </trkpt>
      <trkpt lat="48.42012" lon="2.01421">
        <ele>149</ele>
        <time>2023-12-14T09:18:11Z</time>
      </trkpt>
      <trkpt lat="48.42013" lon="2.01431">
        <ele>149.2</ele>
        <time>2023-12-14T09:18:12Z</time>
      </trkpt>
      <trkpt lat="48.42015" lon="2.01441">
        <ele>149.2</ele>
        <time>2023-12-14T09:18:13Z</time>
      </trkpt>
      <trkpt lat="48.42016" lon="2.01451">
        <ele>149.2</ele>
        <time>2023-12-14T09:18:14Z</time>
      </trkpt>
      <trkpt lat="48.42018" lon="2.01461">
        <ele>149.2</ele>
        <time>2023-12-14T09:18:15Z</time>
      </trkpt>
      <trkpt lat="48.42019" lon="2.01471">
        <ele>148.8</ele>
        <time>2023-12-14T09:18:16Z</time>
      </trkpt>
      <trkpt lat="48.42021" lon="2.01481">
        <ele>148.8</ele>
        <time>2023-12-14T09:18:17Z</time>
      </trkpt>
      <trkpt lat="48.42022" lon="2.01491">
        <ele>148.8</ele>
        <time>2023-12-14T09:18:18Z</time>
      </trkpt>
      <trkpt lat="48.42024" lon="2.01501">
        <ele>148.8</ele>
        <time>2023-12-14T09:18:19Z</time>
      </trkpt>
      <trkpt lat="48.42026" lon="2.01512">
        <ele>148.6</ele>
        <time>2023-12-14T09:18:20Z</time>
      </trkpt>
      <trkpt lat="48.42028" lon="2.01521">
        <ele>148.6</ele>
        <time>2023-12-14T09:18:21Z</time>
      </trkpt>
      <trkpt lat="48.4203" lon="2.01531">
        <ele>148.6</ele>
        <time>2023-12-14T09:18:22Z</time>
      </trkpt>
      <trkpt lat="48.42032" lon="2.01541">
        <ele>149.4</ele>
        <time>2023-12-14T09:18:23Z</time>
      </trkpt>
      <trkpt lat="48.42034" lon="2.01551">
        <ele>148.6</ele>
        <time>2023-12-14T09:18:24Z</time>
      </trkpt>
      <trkpt lat="48.42036" lon="2.01561">
        <ele>148.6</ele>
        <time>2023-12-14T09:18:25Z</time>
      </trkpt>
      <trkpt lat="48.42038" lon="2.01571">
        <ele>148.6</ele>
        <time>2023-12-14T09:18:26Z</time>
      </trkpt>
      <trkpt lat="48.4204" lon="2.01581">
        <ele>148.4</ele>
        <time>2023-12-14T09:18:27Z</time>
      </trkpt>
      <trkpt lat="48.42043" lon="2.01591">
        <ele>148.6</ele>
        <time>2023-12-14T09:18:28Z</time>
      </trkpt>
      <trkpt lat="48.42045" lon="2.01601">
        <ele>148.6</ele>
        <time>2023-12-14T09:18:29Z</time>
      </trkpt>
      <trkpt lat="48.42047" lon="2.01611">
        <ele>148.6</ele>
        <time>2023-12-14T09:18:30Z</time>
      </trkpt>
      <trkpt lat="48.42049" lon="2.01622">
        <ele>149</ele>
        <time>2023-12-14T09:18:31Z</time>
      </trkpt>
      <trkpt lat="48.42051" lon="2.01632">
        <ele>148.8</ele>
        <time>2023-12-14T09:18:32Z</time>
      </trkpt>
      <trkpt lat="48.42053" lon="2.01642">
        <ele>148.8</ele>
        <time>2023-12-14T09:18:33Z</time>
      </trkpt>
      <trkpt lat="48.42055" lon="2.01652">
        <ele>148.8</ele>
        <time>2023-12-14T09:18:34Z</time>
      </trkpt>
      <trkpt lat="48.42058" lon="2.01662">
        <ele>148.8</ele>
        <time>2023-12-14T09:18:35Z</time>
      </trkpt>
      <trkpt lat="48.4206" lon="2.01672">
        <ele>148</ele>
        <time>2023-12-14T09:18:36Z</time>
      </trkpt>
      <trkpt lat="48.42062" lon="2.01682">
        <ele>148</ele>
        <time>2023-12-14T09:18:37Z</time>
      </trkpt>
      <trkpt lat="48.42064" lon="2.01692">
        <ele>148</ele>
        <time>2023-12-14T09:18:38Z</time>
      </trkpt>
      <trkpt lat="48.42066" lon="2.01702">
        <ele>148</ele>
        <time>2023-12-14T09:18:39Z</time>
      </trkpt>
      <trkpt lat="48.42068" lon="2.01712">
        <ele>148</ele>
        <time>2023-12-14T09:18:40Z</time>
      </trkpt>
      <trkpt lat="48.42071" lon="2.01723">
        <ele>148</ele>
        <time>2023-12-14T09:18:41Z</time>
      </trkpt>
      <trkpt lat="48.42073" lon="2.01733">
        <ele>148</ele>
        <time>2023-12-14T09:18:42Z</time>
      </trkpt>
      <trkpt lat="48.42075" lon="2.01743">
        <ele>148</ele>
        <time>2023-12-14T09:18:43Z</time>
      </trkpt>
      <trkpt lat="48.42078" lon="2.01753">
        <ele>147.4</ele>
        <time>2023-12-14T09:18:44Z</time>
      </trkpt>
      <trkpt lat="48.4208" lon="2.01763">
        <ele>147.4</ele>
        <time>2023-12-14T09:18:45Z</time>
      </trkpt>
      <trkpt lat="48.42082" lon="2.01773">
        <ele>147.4</ele>
        <time>2023-12-14T09:18:46Z</time>
      </trkpt>
      <trkpt lat="48.42084" lon="2.01783">
        <ele>148</ele>
        <time>2023-12-14T09:18:47Z</time>
      </trkpt>
      <trkpt lat="48.42087" lon="2.01793">
        <ele>148</ele>
        <time>2023-12-14T09:18:48Z</time>
      </trkpt>
      <trkpt lat="48.42089" lon="2.01803">
        <ele>148</ele>
        <time>2023-12-14T09:18:49Z</time>
      </trkpt>
      <trkpt lat="48.42091" lon="2.01813">
        <ele>148</ele>
        <time>2023-12-14T09:18:50Z</time>
      </trkpt>
      <trkpt lat="48.42093" lon="2.01824">
        <ele>147.4</ele>
        <time>2023-12-14T09:18:51Z</time>
      </trkpt>
      <trkpt lat="48.42096" lon="2.01834">
        <ele>148</ele>
        <time>2023-12-14T09:18:52Z</time>
      </trkpt>
      <trkpt lat="48.42098" lon="2.01844">
        <ele>148</ele>
        <time>2023-12-14T09:18:53Z</time>
      </trkpt>
      <trkpt lat="48.421" lon="2.01854">
        <ele>148</ele>
        <time>2023-12-14T09:18:54Z</time>
      </trkpt>
      <trkpt lat="48.42102" lon="2.01864">
        <ele>147.4</ele>
        <time>2023-12-14T09:18:55Z</time>
      </trkpt>
      <trkpt lat="48.42105" lon="2.01874">
        <ele>147.4</ele>
        <time>2023-12-14T09:18:56Z</time>
      </trkpt>
      <trkpt lat="48.42107" lon="2.01884">
        <ele>147.4</ele>
        <time>2023-12-14T09:18:57Z</time>
      </trkpt>
      <trkpt lat="48.42109" lon="2.01893">
        <ele>147.4</ele>
        <time>2023-12-14T09:18:58Z</time>
      </trkpt>
      <trkpt lat="48.42111" lon="2.01903">
        <ele>148.2</ele>
        <time>2023-12-14T09:18:59Z</time>
      </trkpt>
      <trkpt lat="48.42113" lon="2.01913">
        <ele>148.2</ele>
        <time>2023-12-14T09:19:00Z</time>
      </trkpt>
      <trkpt lat="48.42114" lon="2.01922">
        <ele>148.2</ele>
        <time>2023-12-14T09:19:01Z</time>
      </trkpt>
      <trkpt lat="48.42116" lon="2.01932">
        <ele>148.2</ele>
        <time>2023-12-14T09:19:02Z</time>
      </trkpt>
      <trkpt lat="48.42118" lon="2.01941">
        <ele>147.2</ele>
        <time>2023-12-14T09:19:03Z</time>
      </trkpt>
      <trkpt lat="48.4212" lon="2.01951">
        <ele>147</ele>
        <time>2023-12-14T09:19:04Z</time>
      </trkpt>
      <trkpt lat="48.42122" lon="2.01961">
        <ele>147</ele>
        <time>2023-12-14T09:19:05Z</time>
      </trkpt>
      <trkpt lat="48.42124" lon="2.01971">
        <ele>147</ele>
        <time>2023-12-14T09:19:06Z</time>
      </trkpt>
      <trkpt lat="48.42126" lon="2.01981">
        <ele>147.8</ele>
        <time>2023-12-14T09:19:07Z</time>
      </trkpt>
      <trkpt lat="48.42129" lon="2.01991">
        <ele>147.2</ele>
        <time>2023-12-14T09:19:08Z</time>
      </trkpt>
      <trkpt lat="48.42131" lon="2.02001">
        <ele>147.2</ele>
        <time>2023-12-14T09:19:09Z</time>
      </trkpt>
      <trkpt lat="48.42133" lon="2.02011">
        <ele>147.2</ele>
        <time>2023-12-14T09:19:10Z</time>
      </trkpt>
      <trkpt lat="48.42135" lon="2.02022">
        <ele>147.2</ele>
        <time>2023-12-14T09:19:11Z</time>
      </trkpt>
      <trkpt lat="48.42138" lon="2.02032">
        <ele>146.8</ele>
        <time>2023-12-14T09:19:12Z</time>
      </trkpt>
      <trkpt lat="48.4214" lon="2.02042">
        <ele>146.8</ele>
        <time>2023-12-14T09:19:13Z</time>
      </trkpt>
      <trkpt lat="48.42142" lon="2.02053">
        <ele>146.8</ele>
        <time>2023-12-14T09:19:14Z</time>
      </trkpt>
      <trkpt lat="48.42145" lon="2.02063">
        <ele>146.8</ele>
        <time>2023-12-14T09:19:15Z</time>
      </trkpt>
      <trkpt lat="48.42147" lon="2.02074">
        <ele>146.6</ele>
        <time>2023-12-14T09:19:16Z</time>
      </trkpt>
      <trkpt lat="48.42149" lon="2.02085">
        <ele>146.6</ele>
        <time>2023-12-14T09:19:17Z</time>
      </trkpt>
      <trkpt lat="48.42152" lon="2.02095">
        <ele>146.6</ele>
        <time>2023-12-14T09:19:18Z</time>
      </trkpt>
      <trkpt lat="48.42154" lon="2.02106">
        <ele>146.6</ele>
        <time>2023-12-14T09:19:19Z</time>
      </trkpt>
      <trkpt lat="48.42156" lon="2.02117">
        <ele>147</ele>
        <time>2023-12-14T09:19:20Z</time>
      </trkpt>
      <trkpt lat="48.42158" lon="2.02127">
        <ele>147</ele>
        <time>2023-12-14T09:19:21Z</time>
      </trkpt>
      <trkpt lat="48.42161" lon="2.02138">
        <ele>147</ele>
        <time>2023-12-14T09:19:22Z</time>
      </trkpt>
      <trkpt lat="48.42163" lon="2.02148">
        <ele>146.6</ele>
        <time>2023-12-14T09:19:23Z</time>
      </trkpt>
      <trkpt lat="48.42165" lon="2.02158">
        <ele>146.2</ele>
        <time>2023-12-14T09:19:24Z</time>
      </trkpt>
      <trkpt lat="48.42167" lon="2.02169">
        <ele>146.2</ele>
        <time>2023-12-14T09:19:25Z</time>
      </trkpt>
      <trkpt lat="48.4217" lon="2.02179">
        <ele>146.2</ele>
        <time>2023-12-14T09:19:26Z</time>
      </trkpt>
      <trkpt lat="48.42172" lon="2.02189">
        <ele>147.2</ele>
        <time>2023-12-14T09:19:27Z</time>
      </trkpt>
      <trkpt lat="48.42174" lon="2.02199">
        <ele>147.4</ele>
        <time>2023-12-14T09:19:28Z</time>
      </trkpt>
      <trkpt lat="48.42177" lon="2.02209">
        <ele>147.4</ele>
        <time>2023-12-14T09:19:29Z</time>
      </trkpt>
      <trkpt lat="48.42179" lon="2.02219">
        <ele>147.4</ele>
        <time>2023-12-14T09:19:30Z</time>
      </trkpt>
      <trkpt lat="48.42181" lon="2.0223">
        <ele>146.4</ele>
        <time>2023-12-14T09:19:31Z</time>
      </trkpt>
      <trkpt lat="48.42184" lon="2.0224">
        <ele>146</ele>
        <time>2023-12-14T09:19:32Z</time>
      </trkpt>
      <trkpt lat="48.42186" lon="2.0225">
        <ele>146</ele>
        <time>2023-12-14T09:19:33Z</time>
      </trkpt>
      <trkpt lat="48.42189" lon="2.0226">
        <ele>146</ele>
        <time>2023-12-14T09:19:34Z</time>
      </trkpt>
      <trkpt lat="48.42191" lon="2.02271">
        <ele>146</ele>
        <time>2023-12-14T09:19:35Z</time>
      </trkpt>
      <trkpt lat="48.42194" lon="2.02282">
        <ele>146.6</ele>
        <time>2023-12-14T09:19:36Z</time>
      </trkpt>
      <trkpt lat="48.42196" lon="2.02292">
        <ele>146.6</ele>
        <time>2023-12-14T09:19:37Z</time>
      </trkpt>
      <trkpt lat="48.42198" lon="2.02303">
        <ele>146.6</ele>
        <time>2023-12-14T09:19:38Z</time>
      </trkpt>
      <trkpt lat="48.42201" lon="2.02314">
        <ele>145.6</ele>
        <time>2023-12-14T09:19:39Z</time>
      </trkpt>
      <trkpt lat="48.42203" lon="2.02324">
        <ele>146</ele>
        <time>2023-12-14T09:19:40Z</time>
      </trkpt>
      <trkpt lat="48.42205" lon="2.02334">
        <ele>146</ele>
        <time>2023-12-14T09:19:41Z</time>
      </trkpt>
      <trkpt lat="48.42208" lon="2.02345">
        <ele>146</ele>
        <time>2023-12-14T09:19:42Z</time>
      </trkpt>
      <trkpt lat="48.4221" lon="2.02356">
        <ele>146</ele>
        <time>2023-12-14T09:19:43Z</time>
      </trkpt>
      <trkpt lat="48.42212" lon="2.02366">
        <ele>145.8</ele>
        <time>2023-12-14T09:19:44Z</time>
      </trkpt>
      <trkpt lat="48.42215" lon="2.02377">
        <ele>145.8</ele>
        <time>2023-12-14T09:19:45Z</time>
      </trkpt>
      <trkpt lat="48.42217" lon="2.02387">
        <ele>145.8</ele>
        <time>2023-12-14T09:19:46Z</time>
      </trkpt>
      <trkpt lat="48.4222" lon="2.02397">
        <ele>145.8</ele>
        <time>2023-12-14T09:19:47Z</time>
      </trkpt>
      <trkpt lat="48.42222" lon="2.02408">
        <ele>145.4</ele>
        <time>2023-12-14T09:19:48Z</time>
      </trkpt>
      <trkpt lat="48.42224" lon="2.02418">
        <ele>145.4</ele>
        <time>2023-12-14T09:19:49Z</time>
      </trkpt>
      <trkpt lat="48.42227" lon="2.02428">
        <ele>145.4</ele>
        <time>2023-12-14T09:19:50Z</time>
      </trkpt>
      <trkpt lat="48.42229" lon="2.02439">
        <ele>145.4</ele>
        <time>2023-12-14T09:19:51Z</time>
      </trkpt>
      <trkpt lat="48.42231" lon="2.02449">
        <ele>145.6</ele>
        <time>2023-12-14T09:19:52Z</time>
      </trkpt>
      <trkpt lat="48.42233" lon="2.02459">
        <ele>145.6</ele>
        <time>2023-12-14T09:19:53Z</time>
      </trkpt>
      <trkpt lat="48.42235" lon="2.02469">
        <ele>145.6</ele>
        <time>2023-12-14T09:19:54Z</time>
      </trkpt>
      <trkpt lat="48.42238" lon="2.02479">
        <ele>145.6</ele>
        <time>2023-12-14T09:19:55Z</time>
      </trkpt>
      <trkpt lat="48.4224" lon="2.02489">
        <ele>146.4</ele>
        <time>2023-12-14T09:19:56Z</time>
      </trkpt>
      <trkpt lat="48.42242" lon="2.025">
        <ele>146.4</ele>
        <time>2023-12-14T09:19:57Z</time>
      </trkpt>
      <trkpt lat="48.42244" lon="2.0251">
        <ele>146.4</ele>
        <time>2023-12-14T09:19:58Z</time>
      </trkpt>
      <trkpt lat="48.42247" lon="2.0252">
        <ele>145.4</ele>
        <time>2023-12-14T09:19:59Z</time>
      </trkpt>
      <trkpt lat="48.42249" lon="2.02531">
        <ele>145.2</ele>
        <time>2023-12-14T09:20:00Z</time>
      </trkpt>
      <trkpt lat="48.42252" lon="2.02541">
        <ele>145.2</ele>
        <time>2023-12-14T09:20:01Z</time>
      </trkpt>
      <trkpt lat="48.42254" lon="2.02551">
        <ele>145.2</ele>
        <time>2023-12-14T09:20:02Z</time>
      </trkpt>
      <trkpt lat="48.42256" lon="2.02561">
        <ele>145.2</ele>
        <time>2023-12-14T09:20:03Z</time>
      </trkpt>
      <trkpt lat="48.42258" lon="2.02572">
        <ele>145.2</ele>
        <time>2023-12-14T09:20:04Z</time>
      </trkpt>
      <trkpt lat="48.42261" lon="2.02582">
        <ele>145.2</ele>
        <time>2023-12-14T09:20:05Z</time>
      </trkpt>
      <trkpt lat="48.42263" lon="2.02592">
        <ele>145.2</ele>
        <time>2023-12-14T09:20:06Z</time>
      </trkpt>
      <trkpt lat="48.42266" lon="2.02603">
        <ele>145.2</ele>
        <time>2023-12-14T09:20:07Z</time>
      </trkpt>
      <trkpt lat="48.42268" lon="2.02613">
        <ele>144.8</ele>
        <time>2023-12-14T09:20:08Z</time>
      </trkpt>
      <trkpt lat="48.4227" lon="2.02623">
        <ele>144.8</ele>
        <time>2023-12-14T09:20:09Z</time>
      </trkpt>
      <trkpt lat="48.42273" lon="2.02633">
        <ele>144.8</ele>
        <time>2023-12-14T09:20:10Z</time>
      </trkpt>
      <trkpt lat="48.42275" lon="2.02644">
        <ele>145.4</ele>
        <time>2023-12-14T09:20:11Z</time>
      </trkpt>
      <trkpt lat="48.42277" lon="2.02654">
        <ele>144.6</ele>
        <time>2023-12-14T09:20:12Z</time>
      </trkpt>
      <trkpt lat="48.4228" lon="2.02665">
        <ele>144.6</ele>
        <time>2023-12-14T09:20:13Z</time>
      </trkpt>
      <trkpt lat="48.42282" lon="2.02675">
        <ele>144.6</ele>
        <time>2023-12-14T09:20:14Z</time>
      </trkpt>
      <trkpt lat="48.42284" lon="2.02686">
        <ele>144.6</ele>
        <time>2023-12-14T09:20:15Z</time>
      </trkpt>
      <trkpt lat="48.42286" lon="2.02697">
        <ele>144.6</ele>
        <time>2023-12-14T09:20:16Z</time>
      </trkpt>
      <trkpt lat="48.42288" lon="2.02707">
        <ele>144.6</ele>
        <time>2023-12-14T09:20:17Z</time>
      </trkpt>
      <trkpt lat="48.42291" lon="2.02718">
        <ele>144.6</ele>
        <time>2023-12-14T09:20:18Z</time>
      </trkpt>
      <trkpt lat="48.42293" lon="2.02728">
        <ele>144.6</ele>
        <time>2023-12-14T09:20:19Z</time>
      </trkpt>
      <trkpt lat="48.42296" lon="2.02739">
        <ele>144.2</ele>
        <time>2023-12-14T09:20:20Z</time>
      </trkpt>
      <trkpt lat="48.42298" lon="2.02749">
        <ele>144.2</ele>
        <time>2023-12-14T09:20:21Z</time>
      </trkpt>
      <trkpt lat="48.423" lon="2.0276">
        <ele>144.2</ele>
        <time>2023-12-14T09:20:22Z</time>
      </trkpt>
      <trkpt lat="48.42303" lon="2.0277">
        <ele>144.2</ele>
        <time>2023-12-14T09:20:23Z</time>
      </trkpt>
      <trkpt lat="48.42305" lon="2.02781">
        <ele>144</ele>
        <time>2023-12-14T09:20:24Z</time>
      </trkpt>
      <trkpt lat="48.42307" lon="2.02791">
        <ele>144</ele>
        <time>2023-12-14T09:20:25Z</time>
      </trkpt>
      <trkpt lat="48.42309" lon="2.02802">
        <ele>144</ele>
        <time>2023-12-14T09:20:26Z</time>
      </trkpt>
      <trkpt lat="48.42312" lon="2.02812">
        <ele>144</ele>
        <time>2023-12-14T09:20:27Z</time>
      </trkpt>
      <trkpt lat="48.42314" lon="2.02822">
        <ele>143.8</ele>
        <time>2023-12-14T09:20:28Z</time>
      </trkpt>
      <trkpt lat="48.42316" lon="2.02832">
        <ele>143.8</ele>
        <time>2023-12-14T09:20:29Z</time>
      </trkpt>
      <trkpt lat="48.42319" lon="2.02842">
        <ele>143.8</ele>
        <time>2023-12-14T09:20:30Z</time>
      </trkpt>
      <trkpt lat="48.42321" lon="2.02852">
        <ele>143.8</ele>
        <time>2023-12-14T09:20:31Z</time>
      </trkpt>
      <trkpt lat="48.42323" lon="2.02862">
        <ele>144.4</ele>
        <time>2023-12-14T09:20:32Z</time>
      </trkpt>
      <trkpt lat="48.42325" lon="2.02872">
        <ele>144.4</ele>
        <time>2023-12-14T09:20:33Z</time>
      </trkpt>
      <trkpt lat="48.42328" lon="2.02882">
        <ele>144.4</ele>
        <time>2023-12-14T09:20:34Z</time>
      </trkpt>
      <trkpt lat="48.4233" lon="2.02891">
        <ele>144.4</ele>
        <time>2023-12-14T09:20:35Z</time>
      </trkpt>
      <trkpt lat="48.42332" lon="2.02901">
        <ele>144.6</ele>
        <time>2023-12-14T09:20:36Z</time>
      </trkpt>
      <trkpt lat="48.42334" lon="2.02911">
        <ele>144.6</ele>
        <time>2023-12-14T09:20:37Z</time>
      </trkpt>
      <trkpt lat="48.42336" lon="2.02921">
        <ele>144.6</ele>
        <time>2023-12-14T09:20:38Z</time>
      </trkpt>
      <trkpt lat="48.42338" lon="2.0293">
        <ele>145.6</ele>
        <time>2023-12-14T09:20:39Z</time>
      </trkpt>
      <trkpt lat="48.4234" lon="2.0294">
        <ele>144.6</ele>
        <time>2023-12-14T09:20:40Z</time>
      </trkpt>
      <trkpt lat="48.42342" lon="2.02949">
        <ele>144.6</ele>
        <time>2023-12-14T09:20:41Z</time>
      </trkpt>
      <trkpt lat="48.42344" lon="2.02959">
        <ele>144.6</ele>
        <time>2023-12-14T09:20:42Z</time>
      </trkpt>
      <trkpt lat="48.42346" lon="2.02968">
        <ele>144.6</ele>
        <time>2023-12-14T09:20:43Z</time>
      </trkpt>
      <trkpt lat="48.42348" lon="2.02978">
        <ele>144.8</ele>
        <time>2023-12-14T09:20:44Z</time>
      </trkpt>
      <trkpt lat="48.42351" lon="2.02987">
        <ele>144.8</ele>
        <time>2023-12-14T09:20:45Z</time>
      </trkpt>
      <trkpt lat="48.42352" lon="2.02996">
        <ele>144.8</ele>
        <time>2023-12-14T09:20:46Z</time>
      </trkpt>
      <trkpt lat="48.42354" lon="2.03006">
        <ele>145.2</ele>
        <time>2023-12-14T09:20:47Z</time>
      </trkpt>
      <trkpt lat="48.42356" lon="2.03015">
        <ele>145.2</ele>
        <time>2023-12-14T09:20:48Z</time>
      </trkpt>
      <trkpt lat="48.42358" lon="2.03025">
        <ele>145.2</ele>
        <time>2023-12-14T09:20:49Z</time>
      </trkpt>
      <trkpt lat="48.42361" lon="2.03034">
        <ele>145.2</ele>
        <time>2023-12-14T09:20:50Z</time>
      </trkpt>
      <trkpt lat="48.42363" lon="2.03044">
        <ele>144.6</ele>
        <time>2023-12-14T09:20:51Z</time>
      </trkpt>
      <trkpt lat="48.42365" lon="2.03053">
        <ele>144.6</ele>
        <time>2023-12-14T09:20:52Z</time>
      </trkpt>
      <trkpt lat="48.42367" lon="2.03063">
        <ele>144.6</ele>
        <time>2023-12-14T09:20:53Z</time>
      </trkpt>
      <trkpt lat="48.42369" lon="2.03073">
        <ele>144.6</ele>
        <time>2023-12-14T09:20:54Z</time>
      </trkpt>
      <trkpt lat="48.42371" lon="2.03083">
        <ele>144.6</ele>
        <time>2023-12-14T09:20:55Z</time>
      </trkpt>
      <trkpt lat="48.42373" lon="2.03092">
        <ele>143.4</ele>
        <time>2023-12-14T09:20:56Z</time>
      </trkpt>
      <trkpt lat="48.42376" lon="2.03102">
        <ele>143.4</ele>
        <time>2023-12-14T09:20:57Z</time>
      </trkpt>
      <trkpt lat="48.42378" lon="2.03112">
        <ele>143.4</ele>
        <time>2023-12-14T09:20:58Z</time>
      </trkpt>
      <trkpt lat="48.4238" lon="2.03122">
        <ele>144.4</ele>
        <time>2023-12-14T09:20:59Z</time>
      </trkpt>
      <trkpt lat="48.42382" lon="2.03133">
        <ele>144</ele>
        <time>2023-12-14T09:21:00Z</time>
      </trkpt>
      <trkpt lat="48.42385" lon="2.03143">
        <ele>144</ele>
        <time>2023-12-14T09:21:01Z</time>
      </trkpt>
      <trkpt lat="48.42387" lon="2.03153">
        <ele>144</ele>
        <time>2023-12-14T09:21:02Z</time>
      </trkpt>
      <trkpt lat="48.42389" lon="2.03163">
        <ele>144</ele>
        <time>2023-12-14T09:21:03Z</time>
      </trkpt>
      <trkpt lat="48.42391" lon="2.03174">
        <ele>143.8</ele>
        <time>2023-12-14T09:21:04Z</time>
      </trkpt>
      <trkpt lat="48.42394" lon="2.03184">
        <ele>143.8</ele>
        <time>2023-12-14T09:21:05Z</time>
      </trkpt>
      <trkpt lat="48.42396" lon="2.03194">
        <ele>143.8</ele>
        <time>2023-12-14T09:21:06Z</time>
      </trkpt>
      <trkpt lat="48.42398" lon="2.03205">
        <ele>143.2</ele>
        <time>2023-12-14T09:21:07Z</time>
      </trkpt>
      <trkpt lat="48.42401" lon="2.03215">
        <ele>143.4</ele>
        <time>2023-12-14T09:21:08Z</time>
      </trkpt>
      <trkpt lat="48.42403" lon="2.03225">
        <ele>143.4</ele>
        <time>2023-12-14T09:21:09Z</time>
      </trkpt>
      <trkpt lat="48.42405" lon="2.03236">
        <ele>143.4</ele>
        <time>2023-12-14T09:21:10Z</time>
      </trkpt>
      <trkpt lat="48.42407" lon="2.03247">
        <ele>143</ele>
        <time>2023-12-14T09:21:11Z</time>
      </trkpt>
      <trkpt lat="48.4241" lon="2.03257">
        <ele>142.6</ele>
        <time>2023-12-14T09:21:12Z</time>
      </trkpt>
      <trkpt lat="48.42412" lon="2.03267">
        <ele>142.6</ele>
        <time>2023-12-14T09:21:13Z</time>
      </trkpt>
      <trkpt lat="48.42414" lon="2.03278">
        <ele>142.6</ele>
        <time>2023-12-14T09:21:14Z</time>
      </trkpt>
      <trkpt lat="48.42417" lon="2.03288">
        <ele>142.6</ele>
        <time>2023-12-14T09:21:15Z</time>
      </trkpt>
      <trkpt lat="48.42419" lon="2.03299">
        <ele>142.8</ele>
        <time>2023-12-14T09:21:16Z</time>
      </trkpt>
      <trkpt lat="48.42421" lon="2.03309">
        <ele>142.8</ele>
        <time>2023-12-14T09:21:17Z</time>
      </trkpt>
      <trkpt lat="48.42423" lon="2.0332">
        <ele>142.8</ele>
        <time>2023-12-14T09:21:18Z</time>
      </trkpt>
      <trkpt lat="48.42426" lon="2.0333">
        <ele>142.4</ele>
        <time>2023-12-14T09:21:19Z</time>
      </trkpt>
      <trkpt lat="48.42428" lon="2.0334">
        <ele>142.4</ele>
        <time>2023-12-14T09:21:20Z</time>
      </trkpt>
      <trkpt lat="48.4243" lon="2.0335">
        <ele>142.4</ele>
        <time>2023-12-14T09:21:21Z</time>
      </trkpt>
      <trkpt lat="48.42433" lon="2.03361">
        <ele>142.4</ele>
        <time>2023-12-14T09:21:22Z</time>
      </trkpt>
      <trkpt lat="48.42435" lon="2.03371">
        <ele>142.4</ele>
        <time>2023-12-14T09:21:23Z</time>
      </trkpt>
      <trkpt lat="48.42437" lon="2.03381">
        <ele>142.8</ele>
        <time>2023-12-14T09:21:24Z</time>
      </trkpt>
      <trkpt lat="48.4244" lon="2.03391">
        <ele>142.8</ele>
        <time>2023-12-14T09:21:25Z</time>
      </trkpt>
      <trkpt lat="48.42442" lon="2.03401">
        <ele>142.8</ele>
        <time>2023-12-14T09:21:26Z</time>
      </trkpt>
      <trkpt lat="48.42444" lon="2.03412">
        <ele>142.8</ele>
        <time>2023-12-14T09:21:27Z</time>
      </trkpt>
      <trkpt lat="48.42446" lon="2.03422">
        <ele>142.8</ele>
        <time>2023-12-14T09:21:28Z</time>
      </trkpt>
      <trkpt lat="48.42448" lon="2.03432">
        <ele>142.8</ele>
        <time>2023-12-14T09:21:29Z</time>
      </trkpt>
      <trkpt lat="48.42451" lon="2.03443">
        <ele>142.8</ele>
        <time>2023-12-14T09:21:30Z</time>
      </trkpt>
      <trkpt lat="48.42453" lon="2.03453">
        <ele>142.2</ele>
        <time>2023-12-14T09:21:31Z</time>
      </trkpt>
      <trkpt lat="48.42455" lon="2.03464">
        <ele>142.2</ele>
        <time>2023-12-14T09:21:32Z</time>
      </trkpt>
      <trkpt lat="48.42458" lon="2.03474">
        <ele>142.2</ele>
        <time>2023-12-14T09:21:33Z</time>
      </trkpt>
      <trkpt lat="48.4246" lon="2.03484">
        <ele>142.2</ele>
        <time>2023-12-14T09:21:34Z</time>
      </trkpt>
      <trkpt lat="48.42463" lon="2.03495">
        <ele>142.2</ele>
        <time>2023-12-14T09:21:35Z</time>
      </trkpt>
      <trkpt lat="48.42465" lon="2.03505">
        <ele>142.2</ele>
        <time>2023-12-14T09:21:36Z</time>
      </trkpt>
      <trkpt lat="48.42467" lon="2.03516">
        <ele>142.2</ele>
        <time>2023-12-14T09:21:37Z</time>
      </trkpt>
      <trkpt lat="48.42469" lon="2.03526">
        <ele>142.2</ele>
        <time>2023-12-14T09:21:38Z</time>
      </trkpt>
      <trkpt lat="48.42471" lon="2.03536">
        <ele>141.8</ele>
        <time>2023-12-14T09:21:39Z</time>
      </trkpt>
      <trkpt lat="48.42474" lon="2.03547">
        <ele>141.6</ele>
        <time>2023-12-14T09:21:40Z</time>
      </trkpt>
      <trkpt lat="48.42476" lon="2.03557">
        <ele>141.6</ele>
        <time>2023-12-14T09:21:41Z</time>
      </trkpt>
      <trkpt lat="48.42479" lon="2.03567">
        <ele>141.6</ele>
        <time>2023-12-14T09:21:42Z</time>
      </trkpt>
      <trkpt lat="48.42481" lon="2.03578">
        <ele>141.6</ele>
        <time>2023-12-14T09:21:43Z</time>
      </trkpt>
      <trkpt lat="48.42483" lon="2.03588">
        <ele>141.4</ele>
        <time>2023-12-14T09:21:44Z</time>
      </trkpt>
      <trkpt lat="48.42485" lon="2.03599">
        <ele>141.4</ele>
        <time>2023-12-14T09:21:45Z</time>
      </trkpt>
      <trkpt lat="48.42488" lon="2.03609">
        <ele>141.4</ele>
        <time>2023-12-14T09:21:46Z</time>
      </trkpt>
      <trkpt lat="48.4249" lon="2.0362">
        <ele>141.4</ele>
        <time>2023-12-14T09:21:47Z</time>
      </trkpt>
      <trkpt lat="48.42492" lon="2.0363">
        <ele>141.2</ele>
        <time>2023-12-14T09:21:48Z</time>
      </trkpt>
      <trkpt lat="48.42494" lon="2.03641">
        <ele>141.2</ele>
        <time>2023-12-14T09:21:49Z</time>
      </trkpt>
      <trkpt lat="48.42497" lon="2.03651">
        <ele>141.2</ele>
        <time>2023-12-14T09:21:50Z</time>
      </trkpt>
      <trkpt lat="48.42499" lon="2.03662">
        <ele>140.6</ele>
        <time>2023-12-14T09:21:51Z</time>
      </trkpt>
      <trkpt lat="48.42501" lon="2.03672">
        <ele>140.8</ele>
        <time>2023-12-14T09:21:52Z</time>
      </trkpt>
      <trkpt lat="48.42504" lon="2.03683">
        <ele>140.8</ele>
        <time>2023-12-14T09:21:53Z</time>
      </trkpt>
      <trkpt lat="48.42506" lon="2.03693">
        <ele>140.8</ele>
        <time>2023-12-14T09:21:54Z</time>
      </trkpt>
      <trkpt lat="48.42508" lon="2.03704">
        <ele>140.8</ele>
        <time>2023-12-14T09:21:55Z</time>
      </trkpt>
      <trkpt lat="48.42511" lon="2.03714">
        <ele>141.4</ele>
        <time>2023-12-14T09:21:56Z</time>
      </trkpt>
      <trkpt lat="48.42513" lon="2.03725">
        <ele>141.4</ele>
        <time>2023-12-14T09:21:57Z</time>
      </trkpt>
      <trkpt lat="48.42515" lon="2.03735">
        <ele>141.4</ele>
        <time>2023-12-14T09:21:58Z</time>
      </trkpt>
      <trkpt lat="48.42518" lon="2.03746">
        <ele>140.4</ele>
        <time>2023-12-14T09:21:59Z</time>
      </trkpt>
      <trkpt lat="48.4252" lon="2.03756">
        <ele>140</ele>
        <time>2023-12-14T09:22:00Z</time>
      </trkpt>
      <trkpt lat="48.42522" lon="2.03767">
        <ele>140</ele>
        <time>2023-12-14T09:22:01Z</time>
      </trkpt>
      <trkpt lat="48.42524" lon="2.03777">
        <ele>140</ele>
        <time>2023-12-14T09:22:02Z</time>
      </trkpt>
      <trkpt lat="48.42527" lon="2.03788">
        <ele>140</ele>
        <time>2023-12-14T09:22:03Z</time>
      </trkpt>
      <trkpt lat="48.42529" lon="2.03798">
        <ele>140.4</ele>
        <time>2023-12-14T09:22:04Z</time>
      </trkpt>
      <trkpt lat="48.42531" lon="2.03809">
        <ele>140.4</ele>
        <time>2023-12-14T09:22:05Z</time>
      </trkpt>
      <trkpt lat="48.42533" lon="2.03819">
        <ele>140.4</ele>
        <time>2023-12-14T09:22:06Z</time>
      </trkpt>
      <trkpt lat="48.42536" lon="2.0383">
        <ele>140</ele>
        <time>2023-12-14T09:22:07Z</time>
      </trkpt>
      <trkpt lat="48.42538" lon="2.0384">
        <ele>140.4</ele>
        <time>2023-12-14T09:22:08Z</time>
      </trkpt>
      <trkpt lat="48.42541" lon="2.0385">
        <ele>140.4</ele>
        <time>2023-12-14T09:22:09Z</time>
      </trkpt>
      <trkpt lat="48.42543" lon="2.03861">
        <ele>140.4</ele>
        <time>2023-12-14T09:22:10Z</time>
      </trkpt>
      <trkpt lat="48.42545" lon="2.03871">
        <ele>140.4</ele>
        <time>2023-12-14T09:22:11Z</time>
      </trkpt>
      <trkpt lat="48.42547" lon="2.03881">
        <ele>140.2</ele>
        <time>2023-12-14T09:22:12Z</time>
      </trkpt>
      <trkpt lat="48.42549" lon="2.03891">
        <ele>140.2</ele>
        <time>2023-12-14T09:22:13Z</time>
      </trkpt>
      <trkpt lat="48.42552" lon="2.03901">
        <ele>140.2</ele>
        <time>2023-12-14T09:22:14Z</time>
      </trkpt>
      <trkpt lat="48.42554" lon="2.0391">
        <ele>140.2</ele>
        <time>2023-12-14T09:22:15Z</time>
      </trkpt>
      <trkpt lat="48.42556" lon="2.0392">
        <ele>140.6</ele>
        <time>2023-12-14T09:22:16Z</time>
      </trkpt>
      <trkpt lat="48.42558" lon="2.03929">
        <ele>140.6</ele>
        <time>2023-12-14T09:22:17Z</time>
      </trkpt>
      <trkpt lat="48.42561" lon="2.03939">
        <ele>140.6</ele>
        <time>2023-12-14T09:22:18Z</time>
      </trkpt>
      <trkpt lat="48.42563" lon="2.03948">
        <ele>141</ele>
        <time>2023-12-14T09:22:19Z</time>
      </trkpt>
      <trkpt lat="48.42564" lon="2.03957">
        <ele>140.8</ele>
        <time>2023-12-14T09:22:20Z</time>
      </trkpt>
      <trkpt lat="48.42566" lon="2.03967">
        <ele>140.8</ele>
        <time>2023-12-14T09:22:21Z</time>
      </trkpt>
      <trkpt lat="48.42568" lon="2.03976">
        <ele>140.8</ele>
        <time>2023-12-14T09:22:22Z</time>
      </trkpt>
      <trkpt lat="48.4257" lon="2.03985">
        <ele>141.2</ele>
        <time>2023-12-14T09:22:23Z</time>
      </trkpt>
      <trkpt lat="48.42572" lon="2.03994">
        <ele>141.4</ele>
        <time>2023-12-14T09:22:24Z</time>
      </trkpt>
      <trkpt lat="48.42575" lon="2.04003">
        <ele>141.4</ele>
        <time>2023-12-14T09:22:25Z</time>
      </trkpt>
      <trkpt lat="48.42577" lon="2.04012">
        <ele>141.4</ele>
        <time>2023-12-14T09:22:26Z</time>
      </trkpt>
      <trkpt lat="48.42579" lon="2.04021">
        <ele>142.4</ele>
        <time>2023-12-14T09:22:27Z</time>
      </trkpt>
      <trkpt lat="48.42581" lon="2.04029">
        <ele>142.6</ele>
        <time>2023-12-14T09:22:28Z</time>
      </trkpt>
      <trkpt lat="48.42582" lon="2.04038">
        <ele>142.6</ele>
        <time>2023-12-14T09:22:29Z</time>
      </trkpt>
      <trkpt lat="48.42584" lon="2.04047">
        <ele>142.6</ele>
        <time>2023-12-14T09:22:30Z</time>
      </trkpt>
      <trkpt lat="48.42586" lon="2.04056">
        <ele>141.8</ele>
        <time>2023-12-14T09:22:31Z</time>
      </trkpt>
      <trkpt lat="48.42588" lon="2.04065">
        <ele>141.8</ele>
        <time>2023-12-14T09:22:32Z</time>
      </trkpt>
      <trkpt lat="48.4259" lon="2.04073">
        <ele>141.8</ele>
        <time>2023-12-14T09:22:33Z</time>
      </trkpt>
      <trkpt lat="48.42592" lon="2.04082">
        <ele>141.8</ele>
        <time>2023-12-14T09:22:34Z</time>
      </trkpt>
      <trkpt lat="48.42594" lon="2.04091">
        <ele>142.4</ele>
        <time>2023-12-14T09:22:35Z</time>
      </trkpt>
      <trkpt lat="48.42596" lon="2.041">
        <ele>143</ele>
        <time>2023-12-14T09:22:36Z</time>
      </trkpt>
      <trkpt lat="48.42598" lon="2.04109">
        <ele>143</ele>
        <time>2023-12-14T09:22:37Z</time>
      </trkpt>
      <trkpt lat="48.426" lon="2.04118">
        <ele>143</ele>
        <time>2023-12-14T09:22:38Z</time>
      </trkpt>
      <trkpt lat="48.42602" lon="2.04127">
        <ele>142.2</ele>
        <time>2023-12-14T09:22:39Z</time>
      </trkpt>
      <trkpt lat="48.42604" lon="2.04136">
        <ele>142.2</ele>
        <time>2023-12-14T09:22:40Z</time>
      </trkpt>
      <trkpt lat="48.42606" lon="2.04145">
        <ele>142.2</ele>
        <time>2023-12-14T09:22:41Z</time>
      </trkpt>
      <trkpt lat="48.42608" lon="2.04153">
        <ele>142.2</ele>
        <time>2023-12-14T09:22:42Z</time>
      </trkpt>
      <trkpt lat="48.42609" lon="2.04162">
        <ele>142.2</ele>
        <time>2023-12-14T09:22:43Z</time>
      </trkpt>
      <trkpt lat="48.42612" lon="2.04171">
        <ele>141.6</ele>
        <time>2023-12-14T09:22:44Z</time>
      </trkpt>
      <trkpt lat="48.42614" lon="2.04179">
        <ele>141.6</ele>
        <time>2023-12-14T09:22:45Z</time>
      </trkpt>
      <trkpt lat="48.42616" lon="2.04188">
        <ele>141.6</ele>
        <time>2023-12-14T09:22:46Z</time>
      </trkpt>
      <trkpt lat="48.42618" lon="2.04197">
        <ele>142</ele>
        <time>2023-12-14T09:22:47Z</time>
      </trkpt>
      <trkpt lat="48.42619" lon="2.04206">
        <ele>142.2</ele>
        <time>2023-12-14T09:22:48Z</time>
      </trkpt>
      <trkpt lat="48.42621" lon="2.04215">
        <ele>142.2</ele>
        <time>2023-12-14T09:22:49Z</time>
      </trkpt>
      <trkpt lat="48.42623" lon="2.04224">
        <ele>142.2</ele>
        <time>2023-12-14T09:22:50Z</time>
      </trkpt>
      <trkpt lat="48.42625" lon="2.04232">
        <ele>142.2</ele>
        <time>2023-12-14T09:22:51Z</time>
      </trkpt>
      <trkpt lat="48.42627" lon="2.04241">
        <ele>142.8</ele>
        <time>2023-12-14T09:22:52Z</time>
      </trkpt>
      <trkpt lat="48.42629" lon="2.0425">
        <ele>142.8</ele>
        <time>2023-12-14T09:22:53Z</time>
      </trkpt>
      <trkpt lat="48.42631" lon="2.04259">
        <ele>142.8</ele>
        <time>2023-12-14T09:22:54Z</time>
      </trkpt>
      <trkpt lat="48.42633" lon="2.04268">
        <ele>143</ele>
        <time>2023-12-14T09:22:55Z</time>
      </trkpt>
      <trkpt lat="48.42635" lon="2.04277">
        <ele>143.2</ele>
        <time>2023-12-14T09:22:56Z</time>
      </trkpt>
      <trkpt lat="48.42637" lon="2.04286">
        <ele>143.2</ele>
        <time>2023-12-14T09:22:57Z</time>
      </trkpt>
      <trkpt lat="48.42639" lon="2.04296">
        <ele>143.2</ele>
        <time>2023-12-14T09:22:58Z</time>
      </trkpt>
      <trkpt lat="48.42641" lon="2.04305">
        <ele>143.2</ele>
        <time>2023-12-14T09:22:59Z</time>
      </trkpt>
      <trkpt lat="48.42643" lon="2.04315">
        <ele>142.6</ele>
        <time>2023-12-14T09:23:00Z</time>
      </trkpt>
      <trkpt lat="48.42645" lon="2.04325">
        <ele>142.6</ele>
        <time>2023-12-14T09:23:01Z</time>
      </trkpt>
      <trkpt lat="48.42647" lon="2.04335">
        <ele>142.6</ele>
        <time>2023-12-14T09:23:02Z</time>
      </trkpt>
      <trkpt lat="48.42649" lon="2.04344">
        <ele>142.6</ele>
        <time>2023-12-14T09:23:03Z</time>
      </trkpt>
      <trkpt lat="48.42651" lon="2.04354">
        <ele>142.2</ele>
        <time>2023-12-14T09:23:04Z</time>
      </trkpt>
      <trkpt lat="48.42653" lon="2.04364">
        <ele>142.2</ele>
        <time>2023-12-14T09:23:05Z</time>
      </trkpt>
      <trkpt lat="48.42655" lon="2.04374">
        <ele>142.2</ele>
        <time>2023-12-14T09:23:06Z</time>
      </trkpt>
      <trkpt lat="48.42657" lon="2.04383">
        <ele>142.2</ele>
        <time>2023-12-14T09:23:07Z</time>
      </trkpt>
      <trkpt lat="48.42659" lon="2.04393">
        <ele>141.8</ele>
        <time>2023-12-14T09:23:08Z</time>
      </trkpt>
      <trkpt lat="48.42662" lon="2.04403">
        <ele>141.8</ele>
        <time>2023-12-14T09:23:09Z</time>
      </trkpt>
      <trkpt lat="48.42664" lon="2.04412">
        <ele>141.8</ele>
        <time>2023-12-14T09:23:10Z</time>
      </trkpt>
      <trkpt lat="48.42666" lon="2.04422">
        <ele>141.8</ele>
        <time>2023-12-14T09:23:11Z</time>
      </trkpt>
      <trkpt lat="48.42668" lon="2.04432">
        <ele>141.6</ele>
        <time>2023-12-14T09:23:12Z</time>
      </trkpt>
      <trkpt lat="48.4267" lon="2.04442">
        <ele>141.6</ele>
        <time>2023-12-14T09:23:13Z</time>
      </trkpt>
      <trkpt lat="48.42672" lon="2.04452">
        <ele>141.6</ele>
        <time>2023-12-14T09:23:14Z</time>
      </trkpt>
      <trkpt lat="48.42674" lon="2.04462">
        <ele>141.6</ele>
        <time>2023-12-14T09:23:15Z</time>
      </trkpt>
      <trkpt lat="48.42676" lon="2.04472">
        <ele>141.6</ele>
        <time>2023-12-14T09:23:16Z</time>
      </trkpt>
      <trkpt lat="48.42678" lon="2.04482">
        <ele>142</ele>
        <time>2023-12-14T09:23:17Z</time>
      </trkpt>
      <trkpt lat="48.4268" lon="2.04492">
        <ele>142</ele>
        <time>2023-12-14T09:23:18Z</time>
      </trkpt>
      <trkpt lat="48.42681" lon="2.04502">
        <ele>142</ele>
        <time>2023-12-14T09:23:19Z</time>
      </trkpt>
      <trkpt lat="48.42683" lon="2.04512">
        <ele>140.8</ele>
        <time>2023-12-14T09:23:20Z</time>
      </trkpt>
      <trkpt lat="48.42685" lon="2.04522">
        <ele>140.8</ele>
        <time>2023-12-14T09:23:21Z</time>
      </trkpt>
      <trkpt lat="48.42687" lon="2.04533">
        <ele>140.8</ele>
        <time>2023-12-14T09:23:22Z</time>
      </trkpt>
      <trkpt lat="48.42688" lon="2.04543">
        <ele>140.8</ele>
        <time>2023-12-14T09:23:23Z</time>
      </trkpt>
      <trkpt lat="48.4269" lon="2.04553">
        <ele>141.4</ele>
        <time>2023-12-14T09:23:24Z</time>
      </trkpt>
      <trkpt lat="48.42692" lon="2.04563">
        <ele>141.4</ele>
        <time>2023-12-14T09:23:25Z</time>
      </trkpt>
      <trkpt lat="48.42694" lon="2.04574">
        <ele>141.4</ele>
        <time>2023-12-14T09:23:26Z</time>
      </trkpt>
      <trkpt lat="48.42696" lon="2.04584">
        <ele>140.6</ele>
        <time>2023-12-14T09:23:27Z</time>
      </trkpt>
      <trkpt lat="48.42698" lon="2.04594">
        <ele>140.6</ele>
        <time>2023-12-14T09:23:28Z</time>
      </trkpt>
      <trkpt lat="48.42699" lon="2.04605">
        <ele>140.6</ele>
        <time>2023-12-14T09:23:29Z</time>
      </trkpt>
      <trkpt lat="48.42701" lon="2.04615">
        <ele>140.6</ele>
        <time>2023-12-14T09:23:30Z</time>
      </trkpt>
      <trkpt lat="48.42703" lon="2.04626">
        <ele>140.6</ele>
        <time>2023-12-14T09:23:31Z</time>
      </trkpt>
      <trkpt lat="48.42705" lon="2.04636">
        <ele>140.2</ele>
        <time>2023-12-14T09:23:32Z</time>
      </trkpt>
      <trkpt lat="48.42707" lon="2.04647">
        <ele>140.2</ele>
        <time>2023-12-14T09:23:33Z</time>
      </trkpt>
      <trkpt lat="48.42709" lon="2.04657">
        <ele>140.2</ele>
        <time>2023-12-14T09:23:34Z</time>
      </trkpt>
      <trkpt lat="48.42711" lon="2.04668">
        <ele>140.2</ele>
        <time>2023-12-14T09:23:35Z</time>
      </trkpt>
      <trkpt lat="48.42712" lon="2.04679">
        <ele>140</ele>
        <time>2023-12-14T09:23:36Z</time>
      </trkpt>
      <trkpt lat="48.42714" lon="2.04689">
        <ele>140</ele>
        <time>2023-12-14T09:23:37Z</time>
      </trkpt>
      <trkpt lat="48.42716" lon="2.047">
        <ele>140</ele>
        <time>2023-12-14T09:23:38Z</time>
      </trkpt>
      <trkpt lat="48.42718" lon="2.04711">
        <ele>140</ele>
        <time>2023-12-14T09:23:39Z</time>
      </trkpt>
      <trkpt lat="48.4272" lon="2.04721">
        <ele>140.6</ele>
        <time>2023-12-14T09:23:40Z</time>
      </trkpt>
      <trkpt lat="48.42722" lon="2.04732">
        <ele>140.6</ele>
        <time>2023-12-14T09:23:41Z</time>
      </trkpt>
      <trkpt lat="48.42724" lon="2.04742">
        <ele>140.6</ele>
        <time>2023-12-14T09:23:42Z</time>
      </trkpt>
      <trkpt lat="48.42726" lon="2.04753">
        <ele>140.6</ele>
        <time>2023-12-14T09:23:43Z</time>
      </trkpt>
      <trkpt lat="48.42727" lon="2.04764">
        <ele>139.8</ele>
        <time>2023-12-14T09:23:44Z</time>
      </trkpt>
      <trkpt lat="48.42729" lon="2.04775">
        <ele>139.8</ele>
        <time>2023-12-14T09:23:45Z</time>
      </trkpt>
      <trkpt lat="48.42731" lon="2.04786">
        <ele>139.8</ele>
        <time>2023-12-14T09:23:46Z</time>
      </trkpt>
      <trkpt lat="48.42733" lon="2.04797">
        <ele>139.6</ele>
        <time>2023-12-14T09:23:47Z</time>
      </trkpt>
      <trkpt lat="48.42735" lon="2.04808">
        <ele>138.8</ele>
        <time>2023-12-14T09:23:48Z</time>
      </trkpt>
      <trkpt lat="48.42737" lon="2.04818">
        <ele>138.8</ele>
        <time>2023-12-14T09:23:49Z</time>
      </trkpt>
      <trkpt lat="48.42739" lon="2.04829">
        <ele>138.8</ele>
        <time>2023-12-14T09:23:50Z</time>
      </trkpt>
      <trkpt lat="48.42742" lon="2.04839">
        <ele>138.8</ele>
        <time>2023-12-14T09:23:51Z</time>
      </trkpt>
      <trkpt lat="48.42746" lon="2.04849">
        <ele>137.2</ele>
        <time>2023-12-14T09:23:52Z</time>
      </trkpt>
      <trkpt lat="48.4275" lon="2.04859">
        <ele>137.2</ele>
        <time>2023-12-14T09:23:53Z</time>
      </trkpt>
      <trkpt lat="48.42755" lon="2.04869">
        <ele>137.2</ele>
        <time>2023-12-14T09:23:54Z</time>
      </trkpt>
      <trkpt lat="48.4276" lon="2.04879">
        <ele>136.2</ele>
        <time>2023-12-14T09:23:55Z</time>
      </trkpt>
      <trkpt lat="48.42766" lon="2.04888">
        <ele>134.4</ele>
        <time>2023-12-14T09:23:56Z</time>
      </trkpt>
      <trkpt lat="48.42772" lon="2.04897">
        <ele>134.4</ele>
        <time>2023-12-14T09:23:57Z</time>
      </trkpt>
      <trkpt lat="48.42778" lon="2.04905">
        <ele>134.4</ele>
        <time>2023-12-14T09:23:58Z</time>
      </trkpt>
      <trkpt lat="48.42784" lon="2.04913">
        <ele>134.4</ele>
        <time>2023-12-14T09:23:59Z</time>
      </trkpt>
      <trkpt lat="48.4279" lon="2.04921">
        <ele>134.2</ele>
        <time>2023-12-14T09:24:00Z</time>
      </trkpt>
      <trkpt lat="48.42796" lon="2.04929">
        <ele>134.2</ele>
        <time>2023-12-14T09:24:01Z</time>
      </trkpt>
      <trkpt lat="48.42802" lon="2.04937">
        <ele>134.2</ele>
        <time>2023-12-14T09:24:02Z</time>
      </trkpt>
      <trkpt lat="48.42807" lon="2.04945">
        <ele>134.6</ele>
        <time>2023-12-14T09:24:03Z</time>
      </trkpt>
      <trkpt lat="48.42812" lon="2.04953">
        <ele>134.8</ele>
        <time>2023-12-14T09:24:04Z</time>
      </trkpt>
      <trkpt lat="48.42817" lon="2.04962">
        <ele>134.8</ele>
        <time>2023-12-14T09:24:05Z</time>
      </trkpt>
      <trkpt lat="48.4282" lon="2.04971">
        <ele>134.8</ele>
        <time>2023-12-14T09:24:06Z</time>
      </trkpt>
      <trkpt lat="48.42822" lon="2.04981">
        <ele>134.8</ele>
        <time>2023-12-14T09:24:07Z</time>
      </trkpt>
      <trkpt lat="48.42824" lon="2.04991">
        <ele>135.2</ele>
        <time>2023-12-14T09:24:08Z</time>
      </trkpt>
      <trkpt lat="48.42824" lon="2.05001">
        <ele>135.2</ele>
        <time>2023-12-14T09:24:09Z</time>
      </trkpt>
      <trkpt lat="48.42824" lon="2.05012">
        <ele>135.2</ele>
        <time>2023-12-14T09:24:10Z</time>
      </trkpt>
      <trkpt lat="48.42823" lon="2.05022">
        <ele>135.2</ele>
        <time>2023-12-14T09:24:11Z</time>
      </trkpt>
      <trkpt lat="48.42822" lon="2.05032">
        <ele>135.2</ele>
        <time>2023-12-14T09:24:12Z</time>
      </trkpt>
      <trkpt lat="48.42821" lon="2.05043">
        <ele>135.2</ele>
        <time>2023-12-14T09:24:13Z</time>
      </trkpt>
      <trkpt lat="48.42819" lon="2.05053">
        <ele>135.2</ele>
        <time>2023-12-14T09:24:14Z</time>
      </trkpt>
      <trkpt lat="48.42817" lon="2.05064">
        <ele>134.6</ele>
        <time>2023-12-14T09:24:15Z</time>
      </trkpt>
      <trkpt lat="48.42815" lon="2.05075">
        <ele>134.8</ele>
        <time>2023-12-14T09:24:16Z</time>
      </trkpt>
      <trkpt lat="48.42813" lon="2.05086">
        <ele>134.8</ele>
        <time>2023-12-14T09:24:17Z</time>
      </trkpt>
      <trkpt lat="48.4281" lon="2.05097">
        <ele>134.8</ele>
        <time>2023-12-14T09:24:18Z</time>
      </trkpt>
      <trkpt lat="48.42807" lon="2.05108">
        <ele>134.6</ele>
        <time>2023-12-14T09:24:19Z</time>
      </trkpt>
      <trkpt lat="48.42804" lon="2.05118">
        <ele>134.4</ele>
        <time>2023-12-14T09:24:20Z</time>
      </trkpt>
      <trkpt lat="48.42801" lon="2.05129">
        <ele>134.4</ele>
        <time>2023-12-14T09:24:21Z</time>
      </trkpt>
      <trkpt lat="48.42797" lon="2.05139">
        <ele>134.4</ele>
        <time>2023-12-14T09:24:22Z</time>
      </trkpt>
      <trkpt lat="48.42793" lon="2.05149">
        <ele>135.4</ele>
        <time>2023-12-14T09:24:23Z</time>
      </trkpt>
      <trkpt lat="48.42789" lon="2.05159">
        <ele>134.8</ele>
        <time>2023-12-14T09:24:24Z</time>
      </trkpt>
      <trkpt lat="48.42785" lon="2.05168">
        <ele>134.8</ele>
        <time>2023-12-14T09:24:25Z</time>
      </trkpt>
      <trkpt lat="48.42781" lon="2.05178">
        <ele>134.8</ele>
        <time>2023-12-14T09:24:26Z</time>
      </trkpt>
      <trkpt lat="48.42777" lon="2.05188">
        <ele>134.8</ele>
        <time>2023-12-14T09:24:27Z</time>
      </trkpt>
      <trkpt lat="48.42773" lon="2.05199">
        <ele>134</ele>
        <time>2023-12-14T09:24:28Z</time>
      </trkpt>
      <trkpt lat="48.4277" lon="2.05209">
        <ele>134</ele>
        <time>2023-12-14T09:24:29Z</time>
      </trkpt>
      <trkpt lat="48.42766" lon="2.0522">
        <ele>134</ele>
        <time>2023-12-14T09:24:30Z</time>
      </trkpt>
      <trkpt lat="48.42763" lon="2.05231">
        <ele>134</ele>
        <time>2023-12-14T09:24:31Z</time>
      </trkpt>
      <trkpt lat="48.4276" lon="2.05243">
        <ele>132.8</ele>
        <time>2023-12-14T09:24:32Z</time>
      </trkpt>
      <trkpt lat="48.42757" lon="2.05254">
        <ele>132.8</ele>
        <time>2023-12-14T09:24:33Z</time>
      </trkpt>
      <trkpt lat="48.42755" lon="2.05266">
        <ele>132.8</ele>
        <time>2023-12-14T09:24:34Z</time>
      </trkpt>
      <trkpt lat="48.42752" lon="2.05277">
        <ele>133.2</ele>
        <time>2023-12-14T09:24:35Z</time>
      </trkpt>
      <trkpt lat="48.4275" lon="2.05289">
        <ele>133.2</ele>
        <time>2023-12-14T09:24:36Z</time>
      </trkpt>
      <trkpt lat="48.42748" lon="2.053">
        <ele>133.2</ele>
        <time>2023-12-14T09:24:37Z</time>
      </trkpt>
      <trkpt lat="48.42746" lon="2.05311">
        <ele>133.2</ele>
        <time>2023-12-14T09:24:38Z</time>
      </trkpt>
      <trkpt lat="48.42744" lon="2.05323">
        <ele>132.4</ele>
        <time>2023-12-14T09:24:39Z</time>
      </trkpt>
      <trkpt lat="48.42743" lon="2.05334">
        <ele>132.2</ele>
        <time>2023-12-14T09:24:40Z</time>
      </trkpt>
      <trkpt lat="48.42741" lon="2.05346">
        <ele>132.2</ele>
        <time>2023-12-14T09:24:41Z</time>
      </trkpt>
      <trkpt lat="48.4274" lon="2.05358">
        <ele>132.2</ele>
        <time>2023-12-14T09:24:42Z</time>
      </trkpt>
      <trkpt lat="48.42739" lon="2.0537">
        <ele>132.2</ele>
        <time>2023-12-14T09:24:43Z</time>
      </trkpt>
      <trkpt lat="48.42738" lon="2.05382">
        <ele>132.2</ele>
        <time>2023-12-14T09:24:44Z</time>
      </trkpt>
      <trkpt lat="48.42737" lon="2.05394">
        <ele>132.2</ele>
        <time>2023-12-14T09:24:45Z</time>
      </trkpt>
      <trkpt lat="48.42737" lon="2.05406">
        <ele>132.2</ele>
        <time>2023-12-14T09:24:46Z</time>
      </trkpt>
      <trkpt lat="48.42736" lon="2.05418">
        <ele>131.6</ele>
        <time>2023-12-14T09:24:47Z</time>
      </trkpt>
      <trkpt lat="48.42736" lon="2.0543">
        <ele>132</ele>
        <time>2023-12-14T09:24:48Z</time>
      </trkpt>
      <trkpt lat="48.42736" lon="2.05442">
        <ele>132</ele>
        <time>2023-12-14T09:24:49Z</time>
      </trkpt>
      <trkpt lat="48.42736" lon="2.05453">
        <ele>132</ele>
        <time>2023-12-14T09:24:50Z</time>
      </trkpt>
      <trkpt lat="48.42736" lon="2.05464">
        <ele>132</ele>
        <time>2023-12-14T09:24:51Z</time>
      </trkpt>
      <trkpt lat="48.42736" lon="2.05476">
        <ele>131.2</ele>
        <time>2023-12-14T09:24:52Z</time>
      </trkpt>
      <trkpt lat="48.42736" lon="2.05487">
        <ele>131.2</ele>
        <time>2023-12-14T09:24:53Z</time>
      </trkpt>
      <trkpt lat="48.42736" lon="2.05498">
        <ele>131.2</ele>
        <time>2023-12-14T09:24:54Z</time>
      </trkpt>
      <trkpt lat="48.42736" lon="2.0551">
        <ele>131.2</ele>
        <time>2023-12-14T09:24:55Z</time>
      </trkpt>
      <trkpt lat="48.42736" lon="2.05521">
        <ele>131.6</ele>
        <time>2023-12-14T09:24:56Z</time>
      </trkpt>
      <trkpt lat="48.42736" lon="2.05532">
        <ele>131.6</ele>
        <time>2023-12-14T09:24:57Z</time>
      </trkpt>
      <trkpt lat="48.42736" lon="2.05544">
        <ele>131.6</ele>
        <time>2023-12-14T09:24:58Z</time>
      </trkpt>
      <trkpt lat="48.42737" lon="2.05555">
        <ele>130.6</ele>
        <time>2023-12-14T09:24:59Z</time>
      </trkpt>
      <trkpt lat="48.42737" lon="2.05566">
        <ele>129.4</ele>
        <time>2023-12-14T09:25:00Z</time>
      </trkpt>
      <trkpt lat="48.42738" lon="2.05578">
        <ele>129.4</ele>
        <time>2023-12-14T09:25:01Z</time>
      </trkpt>
      <trkpt lat="48.42739" lon="2.05589">
        <ele>129.4</ele>
        <time>2023-12-14T09:25:02Z</time>
      </trkpt>
      <trkpt lat="48.4274" lon="2.05601">
        <ele>128.4</ele>
        <time>2023-12-14T09:25:03Z</time>
      </trkpt>
      <trkpt lat="48.42741" lon="2.05612">
        <ele>127.6</ele>
        <time>2023-12-14T09:25:04Z</time>
      </trkpt>
      <trkpt lat="48.42743" lon="2.05624">
        <ele>127.6</ele>
        <time>2023-12-14T09:25:05Z</time>
      </trkpt>
      <trkpt lat="48.42745" lon="2.05635">
        <ele>127.6</ele>
        <time>2023-12-14T09:25:06Z</time>
      </trkpt>
      <trkpt lat="48.42747" lon="2.05647">
        <ele>127.6</ele>
        <time>2023-12-14T09:25:07Z</time>
      </trkpt>
      <trkpt lat="48.4275" lon="2.0566">
        <ele>126.2</ele>
        <time>2023-12-14T09:25:08Z</time>
      </trkpt>
      <trkpt lat="48.42752" lon="2.05672">
        <ele>126.2</ele>
        <time>2023-12-14T09:25:09Z</time>
      </trkpt>
      <trkpt lat="48.42754" lon="2.05685">
        <ele>126.2</ele>
        <time>2023-12-14T09:25:10Z</time>
      </trkpt>
      <trkpt lat="48.42756" lon="2.05697">
        <ele>125.2</ele>
        <time>2023-12-14T09:25:11Z</time>
      </trkpt>
      <trkpt lat="48.42758" lon="2.0571">
        <ele>123.4</ele>
        <time>2023-12-14T09:25:12Z</time>
      </trkpt>
      <trkpt lat="48.42761" lon="2.05724">
        <ele>123.4</ele>
        <time>2023-12-14T09:25:13Z</time>
      </trkpt>
      <trkpt lat="48.42763" lon="2.05737">
        <ele>123.4</ele>
        <time>2023-12-14T09:25:14Z</time>
      </trkpt>
      <trkpt lat="48.42766" lon="2.0575">
        <ele>122.8</ele>
        <time>2023-12-14T09:25:15Z</time>
      </trkpt>
      <trkpt lat="48.42768" lon="2.05764">
        <ele>121.6</ele>
        <time>2023-12-14T09:25:16Z</time>
      </trkpt>
      <trkpt lat="48.4277" lon="2.05778">
        <ele>121.6</ele>
        <time>2023-12-14T09:25:17Z</time>
      </trkpt>
      <trkpt lat="48.42771" lon="2.05793">
        <ele>121.6</ele>
        <time>2023-12-14T09:25:18Z</time>
      </trkpt>
      <trkpt lat="48.42772" lon="2.05808">
        <ele>120.6</ele>
        <time>2023-12-14T09:25:19Z</time>
      </trkpt>
      <trkpt lat="48.42773" lon="2.05824">
        <ele>117.6</ele>
        <time>2023-12-14T09:25:20Z</time>
      </trkpt>
      <trkpt lat="48.42773" lon="2.05839">
        <ele>117.6</ele>
        <time>2023-12-14T09:25:21Z</time>
      </trkpt>
      <trkpt lat="48.42773" lon="2.05855">
        <ele>117.6</ele>
        <time>2023-12-14T09:25:22Z</time>
      </trkpt>
      <trkpt lat="48.42772" lon="2.05871">
        <ele>116.6</ele>
        <time>2023-12-14T09:25:23Z</time>
      </trkpt>
      <trkpt lat="48.42772" lon="2.05887">
        <ele>114.4</ele>
        <time>2023-12-14T09:25:24Z</time>
      </trkpt>
      <trkpt lat="48.42771" lon="2.05901">
        <ele>114.4</ele>
        <time>2023-12-14T09:25:25Z</time>
      </trkpt>
      <trkpt lat="48.42771" lon="2.05916">
        <ele>114.4</ele>
        <time>2023-12-14T09:25:26Z</time>
      </trkpt>
      <trkpt lat="48.42771" lon="2.05932">
        <ele>113.4</ele>
        <time>2023-12-14T09:25:27Z</time>
      </trkpt>
      <trkpt lat="48.4277" lon="2.05947">
        <ele>111.8</ele>
        <time>2023-12-14T09:25:28Z</time>
      </trkpt>
      <trkpt lat="48.4277" lon="2.05962">
        <ele>111.8</ele>
        <time>2023-12-14T09:25:29Z</time>
      </trkpt>
      <trkpt lat="48.42769" lon="2.05978">
        <ele>111.8</ele>
        <time>2023-12-14T09:25:30Z</time>
      </trkpt>
      <trkpt lat="48.42768" lon="2.05994">
        <ele>110.8</ele>
        <time>2023-12-14T09:25:31Z</time>
      </trkpt>
      <trkpt lat="48.42767" lon="2.06009">
        <ele>108.8</ele>
        <time>2023-12-14T09:25:32Z</time>
      </trkpt>
      <trkpt lat="48.42767" lon="2.06026">
        <ele>108.8</ele>
        <time>2023-12-14T09:25:33Z</time>
      </trkpt>
      <trkpt lat="48.42766" lon="2.06042">
        <ele>108.8</ele>
        <time>2023-12-14T09:25:34Z</time>
      </trkpt>
      <trkpt lat="48.42766" lon="2.06058">
        <ele>107.8</ele>
        <time>2023-12-14T09:25:35Z</time>
      </trkpt>
      <trkpt lat="48.42766" lon="2.06074">
        <ele>105.4</ele>
        <time>2023-12-14T09:25:36Z</time>
      </trkpt>
      <trkpt lat="48.42764" lon="2.06091">
        <ele>105.4</ele>
        <time>2023-12-14T09:25:37Z</time>
      </trkpt>
      <trkpt lat="48.42764" lon="2.06107">
        <ele>105.4</ele>
        <time>2023-12-14T09:25:38Z</time>
      </trkpt>
      <trkpt lat="48.42763" lon="2.06123">
        <ele>104.4</ele>
        <time>2023-12-14T09:25:39Z</time>
      </trkpt>
      <trkpt lat="48.42763" lon="2.06138">
        <ele>103.4</ele>
        <time>2023-12-14T09:25:40Z</time>
      </trkpt>
      <trkpt lat="48.42762" lon="2.06153">
        <ele>103.4</ele>
        <time>2023-12-14T09:25:41Z</time>
      </trkpt>
      <trkpt lat="48.42762" lon="2.06167">
        <ele>103.4</ele>
        <time>2023-12-14T09:25:42Z</time>
      </trkpt>
      <trkpt lat="48.42761" lon="2.06182">
        <ele>102.4</ele>
        <time>2023-12-14T09:25:43Z</time>
      </trkpt>
      <trkpt lat="48.42761" lon="2.06197">
        <ele>100</ele>
        <time>2023-12-14T09:25:44Z</time>
      </trkpt>
      <trkpt lat="48.4276" lon="2.06213">
        <ele>100</ele>
        <time>2023-12-14T09:25:45Z</time>
      </trkpt>
      <trkpt lat="48.42759" lon="2.06228">
        <ele>100</ele>
        <time>2023-12-14T09:25:46Z</time>
      </trkpt>
      <trkpt lat="48.42758" lon="2.06243">
        <ele>99</ele>
        <time>2023-12-14T09:25:47Z</time>
      </trkpt>
      <trkpt lat="48.42757" lon="2.06259">
        <ele>96.8</ele>
        <time>2023-12-14T09:25:48Z</time>
      </trkpt>
      <trkpt lat="48.42755" lon="2.06274">
        <ele>96.8</ele>
        <time>2023-12-14T09:25:49Z</time>
      </trkpt>
      <trkpt lat="48.42754" lon="2.0629">
        <ele>96.8</ele>
        <time>2023-12-14T09:25:50Z</time>
      </trkpt>
      <trkpt lat="48.42752" lon="2.06305">
        <ele>96</ele>
        <time>2023-12-14T09:25:51Z</time>
      </trkpt>
      <trkpt lat="48.42749" lon="2.06321">
        <ele>96</ele>
        <time>2023-12-14T09:25:52Z</time>
      </trkpt>
      <trkpt lat="48.42747" lon="2.06336">
        <ele>96</ele>
        <time>2023-12-14T09:25:53Z</time>
      </trkpt>
      <trkpt lat="48.42744" lon="2.06351">
        <ele>96</ele>
        <time>2023-12-14T09:25:54Z</time>
      </trkpt>
      <trkpt lat="48.42741" lon="2.06366">
        <ele>95</ele>
        <time>2023-12-14T09:25:55Z</time>
      </trkpt>
      <trkpt lat="48.42739" lon="2.06381">
        <ele>94</ele>
        <time>2023-12-14T09:25:56Z</time>
      </trkpt>
      <trkpt lat="48.42736" lon="2.06395">
        <ele>94</ele>
        <time>2023-12-14T09:25:57Z</time>
      </trkpt>
      <trkpt lat="48.42733" lon="2.0641">
        <ele>94</ele>
        <time>2023-12-14T09:25:58Z</time>
      </trkpt>
      <trkpt lat="48.42731" lon="2.06424">
        <ele>94</ele>
        <time>2023-12-14T09:25:59Z</time>
      </trkpt>
      <trkpt lat="48.42728" lon="2.06437">
        <ele>93</ele>
        <time>2023-12-14T09:26:00Z</time>
      </trkpt>
      <trkpt lat="48.42726" lon="2.06451">
        <ele>93</ele>
        <time>2023-12-14T09:26:01Z</time>
      </trkpt>
      <trkpt lat="48.42723" lon="2.06464">
        <ele>93</ele>
        <time>2023-12-14T09:26:02Z</time>
      </trkpt>
      <trkpt lat="48.4272" lon="2.06477">
        <ele>94</ele>
        <time>2023-12-14T09:26:03Z</time>
      </trkpt>
      <trkpt lat="48.42718" lon="2.0649">
        <ele>93.2</ele>
        <time>2023-12-14T09:26:04Z</time>
      </trkpt>
      <trkpt lat="48.42715" lon="2.06503">
        <ele>93.2</ele>
        <time>2023-12-14T09:26:05Z</time>
      </trkpt>
      <trkpt lat="48.42713" lon="2.06515">
        <ele>93.2</ele>
        <time>2023-12-14T09:26:06Z</time>
      </trkpt>
      <trkpt lat="48.42711" lon="2.06527">
        <ele>93.6</ele>
        <time>2023-12-14T09:26:07Z</time>
      </trkpt>
      <trkpt lat="48.42708" lon="2.06539">
        <ele>92.4</ele>
        <time>2023-12-14T09:26:08Z</time>
      </trkpt>
      <trkpt lat="48.42706" lon="2.0655">
        <ele>92.4</ele>
        <time>2023-12-14T09:26:09Z</time>
      </trkpt>
      <trkpt lat="48.42703" lon="2.06561">
        <ele>92.4</ele>
        <time>2023-12-14T09:26:10Z</time>
      </trkpt>
      <trkpt lat="48.42701" lon="2.06571">
        <ele>93.4</ele>
        <time>2023-12-14T09:26:11Z</time>
      </trkpt>
      <trkpt lat="48.42698" lon="2.06579">
        <ele>94</ele>
        <time>2023-12-14T09:26:12Z</time>
      </trkpt>
      <trkpt lat="48.42696" lon="2.06588">
        <ele>94</ele>
        <time>2023-12-14T09:26:13Z</time>
      </trkpt>
      <trkpt lat="48.42694" lon="2.06596">
        <ele>94</ele>
        <time>2023-12-14T09:26:14Z</time>
      </trkpt>
      <trkpt lat="48.42692" lon="2.06603">
        <ele>93.4</ele>
        <time>2023-12-14T09:26:15Z</time>
      </trkpt>
      <trkpt lat="48.42689" lon="2.06609">
        <ele>93.6</ele>
        <time>2023-12-14T09:26:16Z</time>
      </trkpt>
      <trkpt lat="48.42687" lon="2.06614">
        <ele>93.6</ele>
        <time>2023-12-14T09:26:17Z</time>
      </trkpt>
      <trkpt lat="48.42685" lon="2.06617">
        <ele>93.6</ele>
        <time>2023-12-14T09:26:18Z</time>
      </trkpt>
      <trkpt lat="48.42683" lon="2.06619">
        <ele>93.6</ele>
        <time>2023-12-14T09:26:19Z</time>
      </trkpt>
      <trkpt lat="48.4268" lon="2.06618">
        <ele>92.4</ele>
        <time>2023-12-14T09:26:20Z</time>
      </trkpt>
      <trkpt lat="48.42677" lon="2.06615">
        <ele>92.4</ele>
        <time>2023-12-14T09:26:21Z</time>
      </trkpt>
      <trkpt lat="48.42675" lon="2.0661">
        <ele>92.4</ele>
        <time>2023-12-14T09:26:22Z</time>
      </trkpt>
      <trkpt lat="48.42673" lon="2.06604">
        <ele>92.4</ele>
        <time>2023-12-14T09:26:23Z</time>
      </trkpt>
      <trkpt lat="48.42672" lon="2.06598">
        <ele>90</ele>
        <time>2023-12-14T09:26:24Z</time>
      </trkpt>
      <trkpt lat="48.4267" lon="2.06592">
        <ele>90</ele>
        <time>2023-12-14T09:26:25Z</time>
      </trkpt>
      <trkpt lat="48.42668" lon="2.06585">
        <ele>90</ele>
        <time>2023-12-14T09:26:26Z</time>
      </trkpt>
      <trkpt lat="48.42665" lon="2.06578">
        <ele>89.2</ele>
        <time>2023-12-14T09:26:27Z</time>
      </trkpt>
      <trkpt lat="48.42662" lon="2.06572">
        <ele>90</ele>
        <time>2023-12-14T09:26:28Z</time>
      </trkpt>
      <trkpt lat="48.42659" lon="2.06565">
        <ele>90</ele>
        <time>2023-12-14T09:26:29Z</time>
      </trkpt>
      <trkpt lat="48.42656" lon="2.06558">
        <ele>90</ele>
        <time>2023-12-14T09:26:30Z</time>
      </trkpt>
      <trkpt lat="48.42653" lon="2.06551">
        <ele>89.6</ele>
        <time>2023-12-14T09:26:31Z</time>
      </trkpt>
      <trkpt lat="48.42649" lon="2.06545">
        <ele>89.2</ele>
        <time>2023-12-14T09:26:32Z</time>
      </trkpt>
      <trkpt lat="48.42645" lon="2.0654">
        <ele>89.2</ele>
        <time>2023-12-14T09:26:33Z</time>
      </trkpt>
      <trkpt lat="48.42639" lon="2.06537">
        <ele>89.2</ele>
        <time>2023-12-14T09:26:34Z</time>
      </trkpt>
      <trkpt lat="48.42633" lon="2.06535">
        <ele>89.2</ele>
        <time>2023-12-14T09:26:35Z</time>
      </trkpt>
      <trkpt lat="48.42628" lon="2.06534">
        <ele>88.6</ele>
        <time>2023-12-14T09:26:36Z</time>
      </trkpt>
      <trkpt lat="48.42622" lon="2.06532">
        <ele>88.6</ele>
        <time>2023-12-14T09:26:37Z</time>
      </trkpt>
      <trkpt lat="48.42616" lon="2.0653">
        <ele>88.6</ele>
        <time>2023-12-14T09:26:38Z</time>
      </trkpt>
      <trkpt lat="48.4261" lon="2.06528">
        <ele>87.8</ele>
        <time>2023-12-14T09:26:39Z</time>
      </trkpt>
      <trkpt lat="48.42604" lon="2.06526">
        <ele>88</ele>
        <time>2023-12-14T09:26:40Z</time>
      </trkpt>
      <trkpt lat="48.42598" lon="2.06524">
        <ele>88</ele>
        <time>2023-12-14T09:26:41Z</time>
      </trkpt>
      <trkpt lat="48.42591" lon="2.06521">
        <ele>88</ele>
        <time>2023-12-14T09:26:42Z</time>
      </trkpt>
      <trkpt lat="48.42585" lon="2.06519">
        <ele>88</ele>
        <time>2023-12-14T09:26:43Z</time>
      </trkpt>
      <trkpt lat="48.42578" lon="2.06516">
        <ele>87.2</ele>
        <time>2023-12-14T09:26:44Z</time>
      </trkpt>
      <trkpt lat="48.42572" lon="2.06513">
        <ele>87.2</ele>
        <time>2023-12-14T09:26:45Z</time>
      </trkpt>
      <trkpt lat="48.42565" lon="2.06511">
        <ele>87.2</ele>
        <time>2023-12-14T09:26:46Z</time>
      </trkpt>
      <trkpt lat="48.42558" lon="2.06508">
        <ele>87.2</ele>
        <time>2023-12-14T09:26:47Z</time>
      </trkpt>
      <trkpt lat="48.42552" lon="2.06505">
        <ele>86.8</ele>
        <time>2023-12-14T09:26:48Z</time>
      </trkpt>
      <trkpt lat="48.42545" lon="2.06503">
        <ele>86.8</ele>
        <time>2023-12-14T09:26:49Z</time>
      </trkpt>
      <trkpt lat="48.42538" lon="2.06501">
        <ele>86.8</ele>
        <time>2023-12-14T09:26:50Z</time>
      </trkpt>
      <trkpt lat="48.42531" lon="2.06499">
        <ele>86.8</ele>
        <time>2023-12-14T09:26:51Z</time>
      </trkpt>
      <trkpt lat="48.42524" lon="2.06496">
        <ele>86.4</ele>
        <time>2023-12-14T09:26:52Z</time>
      </trkpt>
      <trkpt lat="48.42517" lon="2.06494">
        <ele>86.4</ele>
        <time>2023-12-14T09:26:53Z</time>
      </trkpt>
      <trkpt lat="48.42511" lon="2.06492">
        <ele>86.4</ele>
        <time>2023-12-14T09:26:54Z</time>
      </trkpt>
      <trkpt lat="48.42504" lon="2.06489">
        <ele>86.4</ele>
        <time>2023-12-14T09:26:55Z</time>
      </trkpt>
      <trkpt lat="48.42498" lon="2.06487">
        <ele>86.8</ele>
        <time>2023-12-14T09:26:56Z</time>
      </trkpt>
      <trkpt lat="48.42493" lon="2.06484">
        <ele>86.8</ele>
        <time>2023-12-14T09:26:57Z</time>
      </trkpt>
      <trkpt lat="48.42487" lon="2.06483">
        <ele>86.8</ele>
        <time>2023-12-14T09:26:58Z</time>
      </trkpt>
      <trkpt lat="48.42481" lon="2.06481">
        <ele>86.8</ele>
        <time>2023-12-14T09:26:59Z</time>
      </trkpt>
      <trkpt lat="48.42475" lon="2.0648">
        <ele>88</ele>
        <time>2023-12-14T09:27:00Z</time>
      </trkpt>
      <trkpt lat="48.42471" lon="2.06479">
        <ele>88</ele>
        <time>2023-12-14T09:27:01Z</time>
      </trkpt>
      <trkpt lat="48.42465" lon="2.06477">
        <ele>88</ele>
        <time>2023-12-14T09:27:02Z</time>
      </trkpt>
      <trkpt lat="48.4246" lon="2.06475">
        <ele>88</ele>
        <time>2023-12-14T09:27:03Z</time>
      </trkpt>
      <trkpt lat="48.42455" lon="2.06473">
        <ele>88</ele>
        <time>2023-12-14T09:27:04Z</time>
      </trkpt>
      <trkpt lat="48.4245" lon="2.06471">
        <ele>88</ele>
        <time>2023-12-14T09:27:05Z</time>
      </trkpt>
      <trkpt lat="48.42445" lon="2.06469">
        <ele>88</ele>
        <time>2023-12-14T09:27:06Z</time>
      </trkpt>
      <trkpt lat="48.42441" lon="2.06467">
        <ele>88.4</ele>
        <time>2023-12-14T09:27:07Z</time>
      </trkpt>
      <trkpt lat="48.42436" lon="2.06464">
        <ele>88.2</ele>
        <time>2023-12-14T09:27:08Z</time>
      </trkpt>
      <trkpt lat="48.42431" lon="2.06462">
        <ele>88.2</ele>
        <time>2023-12-14T09:27:09Z</time>
      </trkpt>
      <trkpt lat="48.42425" lon="2.0646">
        <ele>88.2</ele>
        <time>2023-12-14T09:27:10Z</time>
      </trkpt>
      <trkpt lat="48.4242" lon="2.06458">
        <ele>88.6</ele>
        <time>2023-12-14T09:27:11Z</time>
      </trkpt>
      <trkpt lat="48.42414" lon="2.06455">
        <ele>88.6</ele>
        <time>2023-12-14T09:27:12Z</time>
      </trkpt>
      <trkpt lat="48.42409" lon="2.06453">
        <ele>88.6</ele>
        <time>2023-12-14T09:27:13Z</time>
      </trkpt>
      <trkpt lat="48.42404" lon="2.06452">
        <ele>88.6</ele>
        <time>2023-12-14T09:27:14Z</time>
      </trkpt>
      <trkpt lat="48.42399" lon="2.06449">
        <ele>88.2</ele>
        <time>2023-12-14T09:27:15Z</time>
      </trkpt>
      <trkpt lat="48.42393" lon="2.06447">
        <ele>88.4</ele>
        <time>2023-12-14T09:27:16Z</time>
      </trkpt>
      <trkpt lat="48.42388" lon="2.06445">
        <ele>88.4</ele>
        <time>2023-12-14T09:27:17Z</time>
      </trkpt>
      <trkpt lat="48.42383" lon="2.06443">
        <ele>88.4</ele>
        <time>2023-12-14T09:27:18Z</time>
      </trkpt>
      <trkpt lat="48.42377" lon="2.06441">
        <ele>88.2</ele>
        <time>2023-12-14T09:27:19Z</time>
      </trkpt>
      <trkpt lat="48.42373" lon="2.06437">
        <ele>88</ele>
        <time>2023-12-14T09:27:20Z</time>
      </trkpt>
      <trkpt lat="48.42368" lon="2.06435">
        <ele>88</ele>
        <time>2023-12-14T09:27:21Z</time>
      </trkpt>
      <trkpt lat="48.42362" lon="2.06431">
        <ele>88</ele>
        <time>2023-12-14T09:27:22Z</time>
      </trkpt>
      <trkpt lat="48.42357" lon="2.06428">
        <ele>88</ele>
        <time>2023-12-14T09:27:23Z</time>
      </trkpt>
      <trkpt lat="48.42352" lon="2.06425">
        <ele>88.2</ele>
        <time>2023-12-14T09:27:24Z</time>
      </trkpt>
      <trkpt lat="48.42347" lon="2.06423">
        <ele>88.2</ele>
        <time>2023-12-14T09:27:25Z</time>
      </trkpt>
      <trkpt lat="48.42342" lon="2.0642">
        <ele>88.2</ele>
        <time>2023-12-14T09:27:26Z</time>
      </trkpt>
      <trkpt lat="48.42337" lon="2.06418">
        <ele>87.8</ele>
        <time>2023-12-14T09:27:27Z</time>
      </trkpt>
      <trkpt lat="48.42333" lon="2.06414">
        <ele>88.2</ele>
        <time>2023-12-14T09:27:28Z</time>
      </trkpt>
      <trkpt lat="48.42327" lon="2.06412">
        <ele>88.2</ele>
        <time>2023-12-14T09:27:29Z</time>
      </trkpt>
      <trkpt lat="48.42322" lon="2.0641">
        <ele>88.2</ele>
        <time>2023-12-14T09:27:30Z</time>
      </trkpt>
      <trkpt lat="48.42317" lon="2.06409">
        <ele>88.2</ele>
        <time>2023-12-14T09:27:31Z</time>
      </trkpt>
      <trkpt lat="48.42311" lon="2.06407">
        <ele>88.4</ele>
        <time>2023-12-14T09:27:32Z</time>
      </trkpt>
      <trkpt lat="48.42306" lon="2.06406">
        <ele>88.4</ele>
        <time>2023-12-14T09:27:33Z</time>
      </trkpt>
      <trkpt lat="48.423" lon="2.06404">
        <ele>88.4</ele>
        <time>2023-12-14T09:27:34Z</time>
      </trkpt>
      <trkpt lat="48.42296" lon="2.064">
        <ele>87.8</ele>
        <time>2023-12-14T09:27:35Z</time>
      </trkpt>
      <trkpt lat="48.42291" lon="2.06398">
        <ele>88.2</ele>
        <time>2023-12-14T09:27:36Z</time>
      </trkpt>
      <trkpt lat="48.42285" lon="2.06397">
        <ele>88.2</ele>
        <time>2023-12-14T09:27:37Z</time>
      </trkpt>
      <trkpt lat="48.42279" lon="2.06394">
        <ele>88.2</ele>
        <time>2023-12-14T09:27:38Z</time>
      </trkpt>
      <trkpt lat="48.42275" lon="2.06392">
        <ele>88</ele>
        <time>2023-12-14T09:27:39Z</time>
      </trkpt>
      <trkpt lat="48.42269" lon="2.0639">
        <ele>87.8</ele>
        <time>2023-12-14T09:27:40Z</time>
      </trkpt>
      <trkpt lat="48.42263" lon="2.06387">
        <ele>87.8</ele>
        <time>2023-12-14T09:27:41Z</time>
      </trkpt>
      <trkpt lat="48.42257" lon="2.06384">
        <ele>87.8</ele>
        <time>2023-12-14T09:27:42Z</time>
      </trkpt>
      <trkpt lat="48.42251" lon="2.06381">
        <ele>87.8</ele>
        <time>2023-12-14T09:27:43Z</time>
      </trkpt>
      <trkpt lat="48.42246" lon="2.06378">
        <ele>87.4</ele>
        <time>2023-12-14T09:27:44Z</time>
      </trkpt>
      <trkpt lat="48.42241" lon="2.06375">
        <ele>87.4</ele>
        <time>2023-12-14T09:27:45Z</time>
      </trkpt>
      <trkpt lat="48.42234" lon="2.06372">
        <ele>87.4</ele>
        <time>2023-12-14T09:27:46Z</time>
      </trkpt>
      <trkpt lat="48.42228" lon="2.06369">
        <ele>87</ele>
        <time>2023-12-14T09:27:47Z</time>
      </trkpt>
      <trkpt lat="48.42221" lon="2.06366">
        <ele>87.4</ele>
        <time>2023-12-14T09:27:48Z</time>
      </trkpt>
      <trkpt lat="48.42214" lon="2.06365">
        <ele>87.4</ele>
        <time>2023-12-14T09:27:49Z</time>
      </trkpt>
      <trkpt lat="48.42208" lon="2.06362">
        <ele>87.4</ele>
        <time>2023-12-14T09:27:50Z</time>
      </trkpt>
      <trkpt lat="48.42202" lon="2.06359">
        <ele>87.4</ele>
        <time>2023-12-14T09:27:51Z</time>
      </trkpt>
      <trkpt lat="48.42197" lon="2.06355">
        <ele>87.2</ele>
        <time>2023-12-14T09:27:52Z</time>
      </trkpt>
      <trkpt lat="48.42191" lon="2.06351">
        <ele>87.2</ele>
        <time>2023-12-14T09:27:53Z</time>
      </trkpt>
      <trkpt lat="48.42186" lon="2.06347">
        <ele>87.2</ele>
        <time>2023-12-14T09:27:54Z</time>
      </trkpt>
      <trkpt lat="48.42181" lon="2.06343">
        <ele>87.4</ele>
        <time>2023-12-14T09:27:55Z</time>
      </trkpt>
      <trkpt lat="48.42176" lon="2.06338">
        <ele>87.8</ele>
        <time>2023-12-14T09:27:56Z</time>
      </trkpt>
      <trkpt lat="48.42171" lon="2.06332">
        <ele>87.8</ele>
        <time>2023-12-14T09:27:57Z</time>
      </trkpt>
      <trkpt lat="48.42167" lon="2.06327">
        <ele>87.8</ele>
        <time>2023-12-14T09:27:58Z</time>
      </trkpt>
      <trkpt lat="48.42162" lon="2.06322">
        <ele>87.2</ele>
        <time>2023-12-14T09:27:59Z</time>
      </trkpt>
      <trkpt lat="48.42157" lon="2.06316">
        <ele>87.2</ele>
        <time>2023-12-14T09:28:00Z</time>
      </trkpt>
      <trkpt lat="48.42153" lon="2.06311">
        <ele>87.2</ele>
        <time>2023-12-14T09:28:01Z</time>
      </trkpt>
      <trkpt lat="48.42149" lon="2.06306">
        <ele>87.2</ele>
        <time>2023-12-14T09:28:02Z</time>
      </trkpt>
      <trkpt lat="48.42145" lon="2.06301">
        <ele>87.6</ele>
        <time>2023-12-14T09:28:03Z</time>
      </trkpt>
      <trkpt lat="48.4214" lon="2.06296">
        <ele>87.6</ele>
        <time>2023-12-14T09:28:04Z</time>
      </trkpt>
      <trkpt lat="48.42135" lon="2.06292">
        <ele>87.6</ele>
        <time>2023-12-14T09:28:05Z</time>
      </trkpt>
      <trkpt lat="48.42131" lon="2.06287">
        <ele>87.6</ele>
        <time>2023-12-14T09:28:06Z</time>
      </trkpt>
      <trkpt lat="48.42126" lon="2.06283">
        <ele>87.6</ele>
        <time>2023-12-14T09:28:07Z</time>
      </trkpt>
      <trkpt lat="48.42121" lon="2.06278">
        <ele>87.6</ele>
        <time>2023-12-14T09:28:08Z</time>
      </trkpt>
      <trkpt lat="48.42116" lon="2.06273">
        <ele>87.6</ele>
        <time>2023-12-14T09:28:09Z</time>
      </trkpt>
      <trkpt lat="48.42111" lon="2.06268">
        <ele>87.6</ele>
        <time>2023-12-14T09:28:10Z</time>
      </trkpt>
      <trkpt lat="48.42107" lon="2.06262">
        <ele>87.6</ele>
        <time>2023-12-14T09:28:11Z</time>
      </trkpt>
      <trkpt lat="48.42103" lon="2.06256">
        <ele>87.4</ele>
        <time>2023-12-14T09:28:12Z</time>
      </trkpt>
      <trkpt lat="48.42099" lon="2.0625">
        <ele>87.4</ele>
        <time>2023-12-14T09:28:13Z</time>
      </trkpt>
      <trkpt lat="48.42095" lon="2.06244">
        <ele>87.4</ele>
        <time>2023-12-14T09:28:14Z</time>
      </trkpt>
      <trkpt lat="48.42092" lon="2.06238">
        <ele>87.4</ele>
        <time>2023-12-14T09:28:15Z</time>
      </trkpt>
      <trkpt lat="48.42088" lon="2.06231">
        <ele>87.6</ele>
        <time>2023-12-14T09:28:16Z</time>
      </trkpt>
      <trkpt lat="48.42084" lon="2.06225">
        <ele>87.6</ele>
        <time>2023-12-14T09:28:17Z</time>
      </trkpt>
      <trkpt lat="48.42081" lon="2.06219">
        <ele>87.6</ele>
        <time>2023-12-14T09:28:18Z</time>
      </trkpt>
      <trkpt lat="48.42077" lon="2.06213">
        <ele>88</ele>
        <time>2023-12-14T09:28:19Z</time>
      </trkpt>
      <trkpt lat="48.42074" lon="2.06207">
        <ele>88</ele>
        <time>2023-12-14T09:28:20Z</time>
      </trkpt>
      <trkpt lat="48.4207" lon="2.06201">
        <ele>88</ele>
        <time>2023-12-14T09:28:21Z</time>
      </trkpt>
      <trkpt lat="48.42066" lon="2.06195">
        <ele>88</ele>
        <time>2023-12-14T09:28:22Z</time>
      </trkpt>
      <trkpt lat="48.42063" lon="2.06189">
        <ele>87.4</ele>
        <time>2023-12-14T09:28:23Z</time>
      </trkpt>
      <trkpt lat="48.42059" lon="2.06182">
        <ele>87.8</ele>
        <time>2023-12-14T09:28:24Z</time>
      </trkpt>
      <trkpt lat="48.42056" lon="2.06176">
        <ele>87.8</ele>
        <time>2023-12-14T09:28:25Z</time>
      </trkpt>
      <trkpt lat="48.42053" lon="2.06169">
        <ele>87.8</ele>
        <time>2023-12-14T09:28:26Z</time>
      </trkpt>
      <trkpt lat="48.42051" lon="2.06162">
        <ele>87.8</ele>
        <time>2023-12-14T09:28:27Z</time>
      </trkpt>
      <trkpt lat="48.42047" lon="2.06155">
        <ele>88.2</ele>
        <time>2023-12-14T09:28:28Z</time>
      </trkpt>
      <trkpt lat="48.42045" lon="2.06149">
        <ele>88.2</ele>
        <time>2023-12-14T09:28:29Z</time>
      </trkpt>
      <trkpt lat="48.42042" lon="2.06141">
        <ele>88.2</ele>
        <time>2023-12-14T09:28:30Z</time>
      </trkpt>
      <trkpt lat="48.4204" lon="2.06134">
        <ele>88.2</ele>
        <time>2023-12-14T09:28:31Z</time>
      </trkpt>
      <trkpt lat="48.42037" lon="2.06127">
        <ele>88.2</ele>
        <time>2023-12-14T09:28:32Z</time>
      </trkpt>
      <trkpt lat="48.42035" lon="2.06119">
        <ele>88.2</ele>
        <time>2023-12-14T09:28:33Z</time>
      </trkpt>
      <trkpt lat="48.42032" lon="2.06112">
        <ele>88.2</ele>
        <time>2023-12-14T09:28:34Z</time>
      </trkpt>
      <trkpt lat="48.4203" lon="2.06104">
        <ele>88.4</ele>
        <time>2023-12-14T09:28:35Z</time>
      </trkpt>
      <trkpt lat="48.42027" lon="2.06097">
        <ele>88.2</ele>
        <time>2023-12-14T09:28:36Z</time>
      </trkpt>
      <trkpt lat="48.42025" lon="2.06089">
        <ele>88.2</ele>
        <time>2023-12-14T09:28:37Z</time>
      </trkpt>
      <trkpt lat="48.42023" lon="2.06082">
        <ele>88.2</ele>
        <time>2023-12-14T09:28:38Z</time>
      </trkpt>
      <trkpt lat="48.42021" lon="2.06075">
        <ele>88</ele>
        <time>2023-12-14T09:28:39Z</time>
      </trkpt>
      <trkpt lat="48.4202" lon="2.06068">
        <ele>87.8</ele>
        <time>2023-12-14T09:28:40Z</time>
      </trkpt>
      <trkpt lat="48.42018" lon="2.06061">
        <ele>87.8</ele>
        <time>2023-12-14T09:28:41Z</time>
      </trkpt>
      <trkpt lat="48.42015" lon="2.06054">
        <ele>87.8</ele>
        <time>2023-12-14T09:28:42Z</time>
      </trkpt>
      <trkpt lat="48.42014" lon="2.06048">
        <ele>88</ele>
        <time>2023-12-14T09:28:43Z</time>
      </trkpt>
      <trkpt lat="48.42013" lon="2.06041">
        <ele>88.2</ele>
        <time>2023-12-14T09:28:44Z</time>
      </trkpt>
      <trkpt lat="48.42012" lon="2.06034">
        <ele>88.2</ele>
        <time>2023-12-14T09:28:45Z</time>
      </trkpt>
      <trkpt lat="48.4201" lon="2.06027">
        <ele>88.2</ele>
        <time>2023-12-14T09:28:46Z</time>
      </trkpt>
      <trkpt lat="48.42008" lon="2.0602">
        <ele>88</ele>
        <time>2023-12-14T09:28:47Z</time>
      </trkpt>
      <trkpt lat="48.42008" lon="2.06013">
        <ele>88.4</ele>
        <time>2023-12-14T09:28:48Z</time>
      </trkpt>
      <trkpt lat="48.42007" lon="2.06006">
        <ele>88.4</ele>
        <time>2023-12-14T09:28:49Z</time>
      </trkpt>
      <trkpt lat="48.42006" lon="2.05998">
        <ele>88.4</ele>
        <time>2023-12-14T09:28:50Z</time>
      </trkpt>
      <trkpt lat="48.42005" lon="2.0599">
        <ele>87.8</ele>
        <time>2023-12-14T09:28:51Z</time>
      </trkpt>
      <trkpt lat="48.42004" lon="2.05982">
        <ele>87.8</ele>
        <time>2023-12-14T09:28:52Z</time>
      </trkpt>
      <trkpt lat="48.42004" lon="2.05973">
        <ele>87.8</ele>
        <time>2023-12-14T09:28:53Z</time>
      </trkpt>
      <trkpt lat="48.42003" lon="2.05965">
        <ele>87.8</ele>
        <time>2023-12-14T09:28:54Z</time>
      </trkpt>
      <trkpt lat="48.42002" lon="2.05956">
        <ele>88.8</ele>
        <time>2023-12-14T09:28:55Z</time>
      </trkpt>
      <trkpt lat="48.42001" lon="2.05948">
        <ele>89</ele>
        <time>2023-12-14T09:28:56Z</time>
      </trkpt>
      <trkpt lat="48.42001" lon="2.05939">
        <ele>89</ele>
        <time>2023-12-14T09:28:57Z</time>
      </trkpt>
      <trkpt lat="48.42" lon="2.05931">
        <ele>89</ele>
        <time>2023-12-14T09:28:58Z</time>
      </trkpt>
      <trkpt lat="48.41999" lon="2.05922">
        <ele>89</ele>
        <time>2023-12-14T09:28:59Z</time>
      </trkpt>
      <trkpt lat="48.41999" lon="2.05914">
        <ele>89</ele>
        <time>2023-12-14T09:29:00Z</time>
      </trkpt>
      <trkpt lat="48.41998" lon="2.05905">
        <ele>89</ele>
        <time>2023-12-14T09:29:01Z</time>
      </trkpt>
      <trkpt lat="48.41998" lon="2.05897">
        <ele>89</ele>
        <time>2023-12-14T09:29:02Z</time>
      </trkpt>
      <trkpt lat="48.41997" lon="2.05888">
        <ele>89</ele>
        <time>2023-12-14T09:29:03Z</time>
      </trkpt>
      <trkpt lat="48.41996" lon="2.0588">
        <ele>88.6</ele>
        <time>2023-12-14T09:29:04Z</time>
      </trkpt>
      <trkpt lat="48.41996" lon="2.05871">
        <ele>88.6</ele>
        <time>2023-12-14T09:29:05Z</time>
      </trkpt>
      <trkpt lat="48.41995" lon="2.05863">
        <ele>88.6</ele>
        <time>2023-12-14T09:29:06Z</time>
      </trkpt>
      <trkpt lat="48.41995" lon="2.05855">
        <ele>89.4</ele>
        <time>2023-12-14T09:29:07Z</time>
      </trkpt>
      <trkpt lat="48.41994" lon="2.05846">
        <ele>89</ele>
        <time>2023-12-14T09:29:08Z</time>
      </trkpt>
      <trkpt lat="48.41993" lon="2.05838">
        <ele>89</ele>
        <time>2023-12-14T09:29:09Z</time>
      </trkpt>
      <trkpt lat="48.41993" lon="2.0583">
        <ele>89</ele>
        <time>2023-12-14T09:29:10Z</time>
      </trkpt>
      <trkpt lat="48.41992" lon="2.05822">
        <ele>89.4</ele>
        <time>2023-12-14T09:29:11Z</time>
      </trkpt>
      <trkpt lat="48.41992" lon="2.05814">
        <ele>89.4</ele>
        <time>2023-12-14T09:29:12Z</time>
      </trkpt>
      <trkpt lat="48.41992" lon="2.05806">
        <ele>89.4</ele>
        <time>2023-12-14T09:29:13Z</time>
      </trkpt>
      <trkpt lat="48.41992" lon="2.05798">
        <ele>89.4</ele>
        <time>2023-12-14T09:29:14Z</time>
      </trkpt>
      <trkpt lat="48.41991" lon="2.05791">
        <ele>89.4</ele>
        <time>2023-12-14T09:29:15Z</time>
      </trkpt>
      <trkpt lat="48.41991" lon="2.05783">
        <ele>90</ele>
        <time>2023-12-14T09:29:16Z</time>
      </trkpt>
      <trkpt lat="48.4199" lon="2.05775">
        <ele>90</ele>
        <time>2023-12-14T09:29:17Z</time>
      </trkpt>
      <trkpt lat="48.41989" lon="2.05767">
        <ele>90</ele>
        <time>2023-12-14T09:29:18Z</time>
      </trkpt>
      <trkpt lat="48.41989" lon="2.0576">
        <ele>90.4</ele>
        <time>2023-12-14T09:29:19Z</time>
      </trkpt>
      <trkpt lat="48.41988" lon="2.05752">
        <ele>90.2</ele>
        <time>2023-12-14T09:29:20Z</time>
      </trkpt>
      <trkpt lat="48.41987" lon="2.05744">
        <ele>90.2</ele>
        <time>2023-12-14T09:29:21Z</time>
      </trkpt>
      <trkpt lat="48.41987" lon="2.05737">
        <ele>90.2</ele>
        <time>2023-12-14T09:29:22Z</time>
      </trkpt>
      <trkpt lat="48.41986" lon="2.0573">
        <ele>90.6</ele>
        <time>2023-12-14T09:29:23Z</time>
      </trkpt>
      <trkpt lat="48.41985" lon="2.05722">
        <ele>91.2</ele>
        <time>2023-12-14T09:29:24Z</time>
      </trkpt>
      <trkpt lat="48.41985" lon="2.05715">
        <ele>91.2</ele>
        <time>2023-12-14T09:29:25Z</time>
      </trkpt>
      <trkpt lat="48.41984" lon="2.05708">
        <ele>91.2</ele>
        <time>2023-12-14T09:29:26Z</time>
      </trkpt>
      <trkpt lat="48.41983" lon="2.05701">
        <ele>91.2</ele>
        <time>2023-12-14T09:29:27Z</time>
      </trkpt>
      <trkpt lat="48.41982" lon="2.05694">
        <ele>91.2</ele>
        <time>2023-12-14T09:29:28Z</time>
      </trkpt>
      <trkpt lat="48.41982" lon="2.05687">
        <ele>91.2</ele>
        <time>2023-12-14T09:29:29Z</time>
      </trkpt>
      <trkpt lat="48.41981" lon="2.0568">
        <ele>91.2</ele>
        <time>2023-12-14T09:29:30Z</time>
      </trkpt>
      <trkpt lat="48.41981" lon="2.05672">
        <ele>92</ele>
        <time>2023-12-14T09:29:31Z</time>
      </trkpt>
      <trkpt lat="48.4198" lon="2.05666">
        <ele>92.2</ele>
        <time>2023-12-14T09:29:32Z</time>
      </trkpt>
      <trkpt lat="48.4198" lon="2.05659">
        <ele>92.2</ele>
        <time>2023-12-14T09:29:33Z</time>
      </trkpt>
      <trkpt lat="48.41979" lon="2.05652">
        <ele>92.2</ele>
        <time>2023-12-14T09:29:34Z</time>
      </trkpt>
      <trkpt lat="48.41978" lon="2.05645">
        <ele>93</ele>
        <time>2023-12-14T09:29:35Z</time>
      </trkpt>
      <trkpt lat="48.41978" lon="2.05638">
        <ele>93</ele>
        <time>2023-12-14T09:29:36Z</time>
      </trkpt>
      <trkpt lat="48.41977" lon="2.05631">
        <ele>93</ele>
        <time>2023-12-14T09:29:37Z</time>
      </trkpt>
      <trkpt lat="48.41976" lon="2.05625">
        <ele>93</ele>
        <time>2023-12-14T09:29:38Z</time>
      </trkpt>
      <trkpt lat="48.41976" lon="2.05618">
        <ele>93.8</ele>
        <time>2023-12-14T09:29:39Z</time>
      </trkpt>
      <trkpt lat="48.41976" lon="2.05612">
        <ele>94.2</ele>
        <time>2023-12-14T09:29:40Z</time>
      </trkpt>
      <trkpt lat="48.41975" lon="2.05606">
        <ele>94.2</ele>
        <time>2023-12-14T09:29:41Z</time>
      </trkpt>
      <trkpt lat="48.41975" lon="2.056">
        <ele>94.2</ele>
        <time>2023-12-14T09:29:42Z</time>
      </trkpt>
      <trkpt lat="48.41974" lon="2.05594">
        <ele>94.8</ele>
        <time>2023-12-14T09:29:43Z</time>
      </trkpt>
      <trkpt lat="48.41973" lon="2.05587">
        <ele>94.2</ele>
        <time>2023-12-14T09:29:44Z</time>
      </trkpt>
      <trkpt lat="48.41971" lon="2.05581">
        <ele>94.2</ele>
        <time>2023-12-14T09:29:45Z</time>
      </trkpt>
      <trkpt lat="48.4197" lon="2.05574">
        <ele>94.2</ele>
        <time>2023-12-14T09:29:46Z</time>
      </trkpt>
      <trkpt lat="48.41967" lon="2.05568">
        <ele>93.6</ele>
        <time>2023-12-14T09:29:47Z</time>
      </trkpt>
      <trkpt lat="48.41965" lon="2.05562">
        <ele>93</ele>
        <time>2023-12-14T09:29:48Z</time>
      </trkpt>
      <trkpt lat="48.41962" lon="2.05556">
        <ele>93</ele>
        <time>2023-12-14T09:29:49Z</time>
      </trkpt>
      <trkpt lat="48.41959" lon="2.05549">
        <ele>93</ele>
        <time>2023-12-14T09:29:50Z</time>
      </trkpt>
      <trkpt lat="48.41955" lon="2.05543">
        <ele>93</ele>
        <time>2023-12-14T09:29:51Z</time>
      </trkpt>
      <trkpt lat="48.41952" lon="2.05536">
        <ele>92.8</ele>
        <time>2023-12-14T09:29:52Z</time>
      </trkpt>
      <trkpt lat="48.41948" lon="2.05529">
        <ele>92.8</ele>
        <time>2023-12-14T09:29:53Z</time>
      </trkpt>
      <trkpt lat="48.41944" lon="2.05522">
        <ele>92.8</ele>
        <time>2023-12-14T09:29:54Z</time>
      </trkpt>
      <trkpt lat="48.41941" lon="2.05516">
        <ele>92.8</ele>
        <time>2023-12-14T09:29:55Z</time>
      </trkpt>
      <trkpt lat="48.41937" lon="2.05509">
        <ele>91.6</ele>
        <time>2023-12-14T09:29:56Z</time>
      </trkpt>
      <trkpt lat="48.41933" lon="2.05502">
        <ele>91.6</ele>
        <time>2023-12-14T09:29:57Z</time>
      </trkpt>
      <trkpt lat="48.4193" lon="2.05496">
        <ele>91.6</ele>
        <time>2023-12-14T09:29:58Z</time>
      </trkpt>
      <trkpt lat="48.41926" lon="2.0549">
        <ele>91.6</ele>
        <time>2023-12-14T09:29:59Z</time>
      </trkpt>
      <trkpt lat="48.41922" lon="2.05483">
        <ele>90.8</ele>
        <time>2023-12-14T09:30:00Z</time>
      </trkpt>
      <trkpt lat="48.41918" lon="2.05476">
        <ele>90.8</ele>
        <time>2023-12-14T09:30:01Z</time>
      </trkpt>
      <trkpt lat="48.41914" lon="2.0547">
        <ele>90.8</ele>
        <time>2023-12-14T09:30:02Z</time>
      </trkpt>
      <trkpt lat="48.4191" lon="2.05463">
        <ele>90</ele>
        <time>2023-12-14T09:30:03Z</time>
      </trkpt>
      <trkpt lat="48.41906" lon="2.05456">
        <ele>89.6</ele>
        <time>2023-12-14T09:30:04Z</time>
      </trkpt>
      <trkpt lat="48.41902" lon="2.05449">
        <ele>89.6</ele>
        <time>2023-12-14T09:30:05Z</time>
      </trkpt>
      <trkpt lat="48.41899" lon="2.05442">
        <ele>89.6</ele>
        <time>2023-12-14T09:30:06Z</time>
      </trkpt>
      <trkpt lat="48.41895" lon="2.05435">
        <ele>89.6</ele>
        <time>2023-12-14T09:30:07Z</time>
      </trkpt>
      <trkpt lat="48.41891" lon="2.05428">
        <ele>89.8</ele>
        <time>2023-12-14T09:30:08Z</time>
      </trkpt>
      <trkpt lat="48.41888" lon="2.05421">
        <ele>89.8</ele>
        <time>2023-12-14T09:30:09Z</time>
      </trkpt>
      <trkpt lat="48.41884" lon="2.05414">
        <ele>89.8</ele>
        <time>2023-12-14T09:30:10Z</time>
      </trkpt>
      <trkpt lat="48.41881" lon="2.05407">
        <ele>89.4</ele>
        <time>2023-12-14T09:30:11Z</time>
      </trkpt>
      <trkpt lat="48.41878" lon="2.054">
        <ele>89.6</ele>
        <time>2023-12-14T09:30:12Z</time>
      </trkpt>
      <trkpt lat="48.41875" lon="2.05393">
        <ele>89.6</ele>
        <time>2023-12-14T09:30:13Z</time>
      </trkpt>
      <trkpt lat="48.41872" lon="2.05386">
        <ele>89.6</ele>
        <time>2023-12-14T09:30:14Z</time>
      </trkpt>
      <trkpt lat="48.41869" lon="2.05378">
        <ele>90.6</ele>
        <time>2023-12-14T09:30:15Z</time>
      </trkpt>
      <trkpt lat="48.41866" lon="2.05371">
        <ele>91</ele>
        <time>2023-12-14T09:30:16Z</time>
      </trkpt>
      <trkpt lat="48.41864" lon="2.05364">
        <ele>91</ele>
        <time>2023-12-14T09:30:17Z</time>
      </trkpt>
      <trkpt lat="48.41861" lon="2.05358">
        <ele>91</ele>
        <time>2023-12-14T09:30:18Z</time>
      </trkpt>
      <trkpt lat="48.41858" lon="2.0535">
        <ele>90.4</ele>
        <time>2023-12-14T09:30:19Z</time>
      </trkpt>
      <trkpt lat="48.41855" lon="2.05343">
        <ele>90.4</ele>
        <time>2023-12-14T09:30:20Z</time>
      </trkpt>
      <trkpt lat="48.41852" lon="2.05336">
        <ele>90.4</ele>
        <time>2023-12-14T09:30:21Z</time>
      </trkpt>
      <trkpt lat="48.41849" lon="2.05328">
        <ele>90.4</ele>
        <time>2023-12-14T09:30:22Z</time>
      </trkpt>
      <trkpt lat="48.41846" lon="2.05321">
        <ele>90.4</ele>
        <time>2023-12-14T09:30:23Z</time>
      </trkpt>
      <trkpt lat="48.41843" lon="2.05314">
        <ele>89.6</ele>
        <time>2023-12-14T09:30:24Z</time>
      </trkpt>
      <trkpt lat="48.4184" lon="2.05307">
        <ele>89.6</ele>
        <time>2023-12-14T09:30:25Z</time>
      </trkpt>
      <trkpt lat="48.41837" lon="2.05299">
        <ele>89.6</ele>
        <time>2023-12-14T09:30:26Z</time>
      </trkpt>
      <trkpt lat="48.41835" lon="2.05292">
        <ele>89.6</ele>
        <time>2023-12-14T09:30:27Z</time>
      </trkpt>
      <trkpt lat="48.41832" lon="2.05285">
        <ele>90.6</ele>
        <time>2023-12-14T09:30:28Z</time>
      </trkpt>
      <trkpt lat="48.4183" lon="2.05278">
        <ele>90.6</ele>
        <time>2023-12-14T09:30:29Z</time>
      </trkpt>
      <trkpt lat="48.41827" lon="2.0527">
        <ele>90.6</ele>
        <time>2023-12-14T09:30:30Z</time>
      </trkpt>
      <trkpt lat="48.41824" lon="2.05263">
        <ele>90.6</ele>
        <time>2023-12-14T09:30:31Z</time>
      </trkpt>
      <trkpt lat="48.41821" lon="2.05256">
        <ele>90.4</ele>
        <time>2023-12-14T09:30:32Z</time>
      </trkpt>
      <trkpt lat="48.41818" lon="2.05249">
        <ele>90.4</ele>
        <time>2023-12-14T09:30:33Z</time>
      </trkpt>
      <trkpt lat="48.41815" lon="2.05242">
        <ele>90.4</ele>
        <time>2023-12-14T09:30:34Z</time>
      </trkpt>
      <trkpt lat="48.41813" lon="2.05235">
        <ele>90.2</ele>
        <time>2023-12-14T09:30:35Z</time>
      </trkpt>
      <trkpt lat="48.4181" lon="2.05228">
        <ele>90.4</ele>
        <time>2023-12-14T09:30:36Z</time>
      </trkpt>
      <trkpt lat="48.41807" lon="2.05221">
        <ele>90.4</ele>
        <time>2023-12-14T09:30:37Z</time>
      </trkpt>
      <trkpt lat="48.41804" lon="2.05214">
        <ele>90.4</ele>
        <time>2023-12-14T09:30:38Z</time>
      </trkpt>
      <trkpt lat="48.41801" lon="2.05207">
        <ele>91.2</ele>
        <time>2023-12-14T09:30:39Z</time>
      </trkpt>
      <trkpt lat="48.41798" lon="2.052">
        <ele>90.6</ele>
        <time>2023-12-14T09:30:40Z</time>
      </trkpt>
      <trkpt lat="48.41795" lon="2.05193">
        <ele>90.6</ele>
        <time>2023-12-14T09:30:41Z</time>
      </trkpt>
      <trkpt lat="48.41793" lon="2.05186">
        <ele>90.6</ele>
        <time>2023-12-14T09:30:42Z</time>
      </trkpt>
      <trkpt lat="48.4179" lon="2.05179">
        <ele>90.6</ele>
        <time>2023-12-14T09:30:43Z</time>
      </trkpt>
      <trkpt lat="48.41787" lon="2.05172">
        <ele>91</ele>
        <time>2023-12-14T09:30:44Z</time>
      </trkpt>
      <trkpt lat="48.41784" lon="2.05165">
        <ele>91</ele>
        <time>2023-12-14T09:30:45Z</time>
      </trkpt>
      <trkpt lat="48.41781" lon="2.05158">
        <ele>91</ele>
        <time>2023-12-14T09:30:46Z</time>
      </trkpt>
      <trkpt lat="48.41777" lon="2.05151">
        <ele>91.2</ele>
        <time>2023-12-14T09:30:47Z</time>
      </trkpt>
      <trkpt lat="48.41774" lon="2.05145">
        <ele>90.8</ele>
        <time>2023-12-14T09:30:48Z</time>
      </trkpt>
      <trkpt lat="48.4177" lon="2.05138">
        <ele>90.8</ele>
        <time>2023-12-14T09:30:49Z</time>
      </trkpt>
      <trkpt lat="48.41767" lon="2.05131">
        <ele>90.8</ele>
        <time>2023-12-14T09:30:50Z</time>
      </trkpt>
      <trkpt lat="48.41763" lon="2.05125">
        <ele>91.8</ele>
        <time>2023-12-14T09:30:51Z</time>
      </trkpt>
      <trkpt lat="48.4176" lon="2.05118">
        <ele>91.4</ele>
        <time>2023-12-14T09:30:52Z</time>
      </trkpt>
      <trkpt lat="48.41756" lon="2.05112">
        <ele>91.4</ele>
        <time>2023-12-14T09:30:53Z</time>
      </trkpt>
      <trkpt lat="48.41752" lon="2.05106">
        <ele>91.4</ele>
        <time>2023-12-14T09:30:54Z</time>
      </trkpt>
      <trkpt lat="48.41748" lon="2.051">
        <ele>90.4</ele>
        <time>2023-12-14T09:30:55Z</time>
      </trkpt>
      <trkpt lat="48.41744" lon="2.05094">
        <ele>89.8</ele>
        <time>2023-12-14T09:30:56Z</time>
      </trkpt>
      <trkpt lat="48.4174" lon="2.05087">
        <ele>89.8</ele>
        <time>2023-12-14T09:30:57Z</time>
      </trkpt>
      <trkpt lat="48.41735" lon="2.05081">
        <ele>89.8</ele>
        <time>2023-12-14T09:30:58Z</time>
      </trkpt>
      <trkpt lat="48.41731" lon="2.05075">
        <ele>90.8</ele>
        <time>2023-12-14T09:30:59Z</time>
      </trkpt>
      <trkpt lat="48.41727" lon="2.05068">
        <ele>91</ele>
        <time>2023-12-14T09:31:00Z</time>
      </trkpt>
      <trkpt lat="48.41723" lon="2.05061">
        <ele>91</ele>
        <time>2023-12-14T09:31:01Z</time>
      </trkpt>
      <trkpt lat="48.41719" lon="2.05054">
        <ele>91</ele>
        <time>2023-12-14T09:31:02Z</time>
      </trkpt>
      <trkpt lat="48.41715" lon="2.05048">
        <ele>90</ele>
        <time>2023-12-14T09:31:03Z</time>
      </trkpt>
      <trkpt lat="48.41711" lon="2.05041">
        <ele>90.4</ele>
        <time>2023-12-14T09:31:04Z</time>
      </trkpt>
      <trkpt lat="48.41707" lon="2.05034">
        <ele>90.4</ele>
        <time>2023-12-14T09:31:05Z</time>
      </trkpt>
      <trkpt lat="48.41703" lon="2.05027">
        <ele>90.4</ele>
        <time>2023-12-14T09:31:06Z</time>
      </trkpt>
      <trkpt lat="48.41698" lon="2.0502">
        <ele>90.4</ele>
        <time>2023-12-14T09:31:07Z</time>
      </trkpt>
      <trkpt lat="48.41694" lon="2.05013">
        <ele>89.8</ele>
        <time>2023-12-14T09:31:08Z</time>
      </trkpt>
      <trkpt lat="48.4169" lon="2.05006">
        <ele>89.8</ele>
        <time>2023-12-14T09:31:09Z</time>
      </trkpt>
      <trkpt lat="48.41685" lon="2.04999">
        <ele>89.8</ele>
        <time>2023-12-14T09:31:10Z</time>
      </trkpt>
      <trkpt lat="48.41681" lon="2.04992">
        <ele>89.4</ele>
        <time>2023-12-14T09:31:11Z</time>
      </trkpt>
      <trkpt lat="48.41677" lon="2.04984">
        <ele>89.2</ele>
        <time>2023-12-14T09:31:12Z</time>
      </trkpt>
      <trkpt lat="48.41673" lon="2.04977">
        <ele>89.2</ele>
        <time>2023-12-14T09:31:13Z</time>
      </trkpt>
      <trkpt lat="48.41669" lon="2.0497">
        <ele>89.2</ele>
        <time>2023-12-14T09:31:14Z</time>
      </trkpt>
      <trkpt lat="48.41665" lon="2.04962">
        <ele>89.2</ele>
        <time>2023-12-14T09:31:15Z</time>
      </trkpt>
      <trkpt lat="48.4166" lon="2.04956">
        <ele>89.2</ele>
        <time>2023-12-14T09:31:16Z</time>
      </trkpt>
      <trkpt lat="48.41656" lon="2.04949">
        <ele>89.2</ele>
        <time>2023-12-14T09:31:17Z</time>
      </trkpt>
      <trkpt lat="48.41651" lon="2.04943">
        <ele>89.2</ele>
        <time>2023-12-14T09:31:18Z</time>
      </trkpt>
      <trkpt lat="48.41645" lon="2.04937">
        <ele>89.2</ele>
        <time>2023-12-14T09:31:19Z</time>
      </trkpt>
      <trkpt lat="48.4164" lon="2.04931">
        <ele>89.2</ele>
        <time>2023-12-14T09:31:20Z</time>
      </trkpt>
      <trkpt lat="48.41635" lon="2.04925">
        <ele>89.2</ele>
        <time>2023-12-14T09:31:21Z</time>
      </trkpt>
      <trkpt lat="48.4163" lon="2.04919">
        <ele>89.2</ele>
        <time>2023-12-14T09:31:22Z</time>
      </trkpt>
      <trkpt lat="48.41625" lon="2.04913">
        <ele>89.2</ele>
        <time>2023-12-14T09:31:23Z</time>
      </trkpt>
      <trkpt lat="48.41621" lon="2.04907">
        <ele>89.2</ele>
        <time>2023-12-14T09:31:24Z</time>
      </trkpt>
      <trkpt lat="48.41616" lon="2.04901">
        <ele>89.2</ele>
        <time>2023-12-14T09:31:25Z</time>
      </trkpt>
      <trkpt lat="48.41611" lon="2.04895">
        <ele>89.2</ele>
        <time>2023-12-14T09:31:26Z</time>
      </trkpt>
      <trkpt lat="48.41606" lon="2.04888">
        <ele>88.8</ele>
        <time>2023-12-14T09:31:27Z</time>
      </trkpt>
      <trkpt lat="48.41601" lon="2.04883">
        <ele>89.2</ele>
        <time>2023-12-14T09:31:28Z</time>
      </trkpt>
      <trkpt lat="48.41596" lon="2.04877">
        <ele>89.2</ele>
        <time>2023-12-14T09:31:29Z</time>
      </trkpt>
      <trkpt lat="48.41591" lon="2.04872">
        <ele>89.2</ele>
        <time>2023-12-14T09:31:30Z</time>
      </trkpt>
      <trkpt lat="48.41586" lon="2.04867">
        <ele>89.2</ele>
        <time>2023-12-14T09:31:31Z</time>
      </trkpt>
      <trkpt lat="48.41581" lon="2.04862">
        <ele>89</ele>
        <time>2023-12-14T09:31:32Z</time>
      </trkpt>
      <trkpt lat="48.41575" lon="2.04857">
        <ele>89</ele>
        <time>2023-12-14T09:31:33Z</time>
      </trkpt>
      <trkpt lat="48.4157" lon="2.04853">
        <ele>89</ele>
        <time>2023-12-14T09:31:34Z</time>
      </trkpt>
      <trkpt lat="48.41565" lon="2.04848">
        <ele>89.2</ele>
        <time>2023-12-14T09:31:35Z</time>
      </trkpt>
      <trkpt lat="48.4156" lon="2.04843">
        <ele>89.8</ele>
        <time>2023-12-14T09:31:36Z</time>
      </trkpt>
      <trkpt lat="48.41555" lon="2.04839">
        <ele>89.8</ele>
        <time>2023-12-14T09:31:37Z</time>
      </trkpt>
      <trkpt lat="48.4155" lon="2.04834">
        <ele>89.8</ele>
        <time>2023-12-14T09:31:38Z</time>
      </trkpt>
      <trkpt lat="48.41544" lon="2.04829">
        <ele>90</ele>
        <time>2023-12-14T09:31:39Z</time>
      </trkpt>
      <trkpt lat="48.4154" lon="2.04824">
        <ele>89.8</ele>
        <time>2023-12-14T09:31:40Z</time>
      </trkpt>
      <trkpt lat="48.41535" lon="2.0482">
        <ele>89.8</ele>
        <time>2023-12-14T09:31:41Z</time>
      </trkpt>
      <trkpt lat="48.4153" lon="2.04816">
        <ele>89.8</ele>
        <time>2023-12-14T09:31:42Z</time>
      </trkpt>
      <trkpt lat="48.41525" lon="2.04811">
        <ele>90.2</ele>
        <time>2023-12-14T09:31:43Z</time>
      </trkpt>
      <trkpt lat="48.4152" lon="2.04806">
        <ele>90.4</ele>
        <time>2023-12-14T09:31:44Z</time>
      </trkpt>
      <trkpt lat="48.41516" lon="2.04802">
        <ele>90.4</ele>
        <time>2023-12-14T09:31:45Z</time>
      </trkpt>
      <trkpt lat="48.41511" lon="2.04798">
        <ele>90.4</ele>
        <time>2023-12-14T09:31:46Z</time>
      </trkpt>
      <trkpt lat="48.41506" lon="2.04793">
        <ele>91.2</ele>
        <time>2023-12-14T09:31:47Z</time>
      </trkpt>
      <trkpt lat="48.41502" lon="2.04789">
        <ele>91.2</ele>
        <time>2023-12-14T09:31:48Z</time>
      </trkpt>
      <trkpt lat="48.41497" lon="2.04784">
        <ele>91.2</ele>
        <time>2023-12-14T09:31:49Z</time>
      </trkpt>
      <trkpt lat="48.41493" lon="2.0478">
        <ele>91.2</ele>
        <time>2023-12-14T09:31:50Z</time>
      </trkpt>
      <trkpt lat="48.41488" lon="2.04776">
        <ele>91.2</ele>
        <time>2023-12-14T09:31:51Z</time>
      </trkpt>
      <trkpt lat="48.41483" lon="2.04772">
        <ele>91.6</ele>
        <time>2023-12-14T09:31:52Z</time>
      </trkpt>
      <trkpt lat="48.41479" lon="2.04767">
        <ele>91.6</ele>
        <time>2023-12-14T09:31:53Z</time>
      </trkpt>
      <trkpt lat="48.41474" lon="2.04764">
        <ele>91.6</ele>
        <time>2023-12-14T09:31:54Z</time>
      </trkpt>
      <trkpt lat="48.4147" lon="2.04759">
        <ele>92.2</ele>
        <time>2023-12-14T09:31:55Z</time>
      </trkpt>
      <trkpt lat="48.41465" lon="2.04756">
        <ele>92.2</ele>
        <time>2023-12-14T09:31:56Z</time>
      </trkpt>
      <trkpt lat="48.41461" lon="2.04752">
        <ele>92.2</ele>
        <time>2023-12-14T09:31:57Z</time>
      </trkpt>
      <trkpt lat="48.41456" lon="2.04748">
        <ele>92.2</ele>
        <time>2023-12-14T09:31:58Z</time>
      </trkpt>
      <trkpt lat="48.41451" lon="2.04745">
        <ele>92.2</ele>
        <time>2023-12-14T09:31:59Z</time>
      </trkpt>
      <trkpt lat="48.41447" lon="2.04741">
        <ele>93</ele>
        <time>2023-12-14T09:32:00Z</time>
      </trkpt>
      <trkpt lat="48.41442" lon="2.04738">
        <ele>93</ele>
        <time>2023-12-14T09:32:01Z</time>
      </trkpt>
      <trkpt lat="48.41437" lon="2.04735">
        <ele>93</ele>
        <time>2023-12-14T09:32:02Z</time>
      </trkpt>
      <trkpt lat="48.41432" lon="2.04731">
        <ele>93.2</ele>
        <time>2023-12-14T09:32:03Z</time>
      </trkpt>
      <trkpt lat="48.41427" lon="2.04728">
        <ele>93.2</ele>
        <time>2023-12-14T09:32:04Z</time>
      </trkpt>
      <trkpt lat="48.41423" lon="2.04725">
        <ele>93.2</ele>
        <time>2023-12-14T09:32:05Z</time>
      </trkpt>
      <trkpt lat="48.41418" lon="2.04722">
        <ele>93.2</ele>
        <time>2023-12-14T09:32:06Z</time>
      </trkpt>
      <trkpt lat="48.41413" lon="2.04719">
        <ele>93.2</ele>
        <time>2023-12-14T09:32:07Z</time>
      </trkpt>
      <trkpt lat="48.41408" lon="2.04715">
        <ele>93</ele>
        <time>2023-12-14T09:32:08Z</time>
      </trkpt>
      <trkpt lat="48.41403" lon="2.04712">
        <ele>93</ele>
        <time>2023-12-14T09:32:09Z</time>
      </trkpt>
      <trkpt lat="48.41397" lon="2.0471">
        <ele>93</ele>
        <time>2023-12-14T09:32:10Z</time>
      </trkpt>
      <trkpt lat="48.41392" lon="2.04707">
        <ele>92.2</ele>
        <time>2023-12-14T09:32:11Z</time>
      </trkpt>
      <trkpt lat="48.41386" lon="2.04705">
        <ele>92.6</ele>
        <time>2023-12-14T09:32:12Z</time>
      </trkpt>
      <trkpt lat="48.41381" lon="2.04702">
        <ele>92.6</ele>
        <time>2023-12-14T09:32:13Z</time>
      </trkpt>
      <trkpt lat="48.41375" lon="2.047">
        <ele>92.6</ele>
        <time>2023-12-14T09:32:14Z</time>
      </trkpt>
      <trkpt lat="48.4137" lon="2.04697">
        <ele>91.6</ele>
        <time>2023-12-14T09:32:15Z</time>
      </trkpt>
      <trkpt lat="48.41364" lon="2.04695">
        <ele>91.8</ele>
        <time>2023-12-14T09:32:16Z</time>
      </trkpt>
      <trkpt lat="48.41359" lon="2.04691">
        <ele>91.8</ele>
        <time>2023-12-14T09:32:17Z</time>
      </trkpt>
      <trkpt lat="48.41354" lon="2.04688">
        <ele>91.8</ele>
        <time>2023-12-14T09:32:18Z</time>
      </trkpt>
      <trkpt lat="48.41349" lon="2.04685">
        <ele>91.2</ele>
        <time>2023-12-14T09:32:19Z</time>
      </trkpt>
      <trkpt lat="48.41344" lon="2.04682">
        <ele>91.6</ele>
        <time>2023-12-14T09:32:20Z</time>
      </trkpt>
      <trkpt lat="48.41339" lon="2.04679">
        <ele>91.6</ele>
        <time>2023-12-14T09:32:21Z</time>
      </trkpt>
      <trkpt lat="48.41334" lon="2.04675">
        <ele>91.6</ele>
        <time>2023-12-14T09:32:22Z</time>
      </trkpt>
      <trkpt lat="48.4133" lon="2.04672">
        <ele>91.6</ele>
        <time>2023-12-14T09:32:23Z</time>
      </trkpt>
      <trkpt lat="48.41325" lon="2.04668">
        <ele>90.8</ele>
        <time>2023-12-14T09:32:24Z</time>
      </trkpt>
      <trkpt lat="48.4132" lon="2.04665">
        <ele>90.8</ele>
        <time>2023-12-14T09:32:25Z</time>
      </trkpt>
      <trkpt lat="48.41315" lon="2.04661">
        <ele>90.8</ele>
        <time>2023-12-14T09:32:26Z</time>
      </trkpt>
      <trkpt lat="48.4131" lon="2.04658">
        <ele>90.8</ele>
        <time>2023-12-14T09:32:27Z</time>
      </trkpt>
      <trkpt lat="48.41305" lon="2.04653">
        <ele>89.8</ele>
        <time>2023-12-14T09:32:28Z</time>
      </trkpt>
      <trkpt lat="48.413" lon="2.04649">
        <ele>89.8</ele>
        <time>2023-12-14T09:32:29Z</time>
      </trkpt>
      <trkpt lat="48.41295" lon="2.04645">
        <ele>89.8</ele>
        <time>2023-12-14T09:32:30Z</time>
      </trkpt>
      <trkpt lat="48.41289" lon="2.04641">
        <ele>89.8</ele>
        <time>2023-12-14T09:32:31Z</time>
      </trkpt>
      <trkpt lat="48.41284" lon="2.04638">
        <ele>89.8</ele>
        <time>2023-12-14T09:32:32Z</time>
      </trkpt>
      <trkpt lat="48.41278" lon="2.04634">
        <ele>89.8</ele>
        <time>2023-12-14T09:32:33Z</time>
      </trkpt>
      <trkpt lat="48.41273" lon="2.0463">
        <ele>89.8</ele>
        <time>2023-12-14T09:32:34Z</time>
      </trkpt>
      <trkpt lat="48.41267" lon="2.04627">
        <ele>90.4</ele>
        <time>2023-12-14T09:32:35Z</time>
      </trkpt>
      <trkpt lat="48.41262" lon="2.04623">
        <ele>90.4</ele>
        <time>2023-12-14T09:32:36Z</time>
      </trkpt>
      <trkpt lat="48.41256" lon="2.0462">
        <ele>90.4</ele>
        <time>2023-12-14T09:32:37Z</time>
      </trkpt>
      <trkpt lat="48.41251" lon="2.04616">
        <ele>90.4</ele>
        <time>2023-12-14T09:32:38Z</time>
      </trkpt>
      <trkpt lat="48.41245" lon="2.04613">
        <ele>89.8</ele>
        <time>2023-12-14T09:32:39Z</time>
      </trkpt>
      <trkpt lat="48.4124" lon="2.0461">
        <ele>90</ele>
        <time>2023-12-14T09:32:40Z</time>
      </trkpt>
      <trkpt lat="48.41234" lon="2.04607">
        <ele>90</ele>
        <time>2023-12-14T09:32:41Z</time>
      </trkpt>
      <trkpt lat="48.41228" lon="2.04603">
        <ele>90</ele>
        <time>2023-12-14T09:32:42Z</time>
      </trkpt>
      <trkpt lat="48.41223" lon="2.046">
        <ele>90.2</ele>
        <time>2023-12-14T09:32:43Z</time>
      </trkpt>
      <trkpt lat="48.41218" lon="2.04597">
        <ele>90.2</ele>
        <time>2023-12-14T09:32:44Z</time>
      </trkpt>
      <trkpt lat="48.41212" lon="2.04594">
        <ele>90.2</ele>
        <time>2023-12-14T09:32:45Z</time>
      </trkpt>
      <trkpt lat="48.41207" lon="2.04591">
        <ele>90.2</ele>
        <time>2023-12-14T09:32:46Z</time>
      </trkpt>
      <trkpt lat="48.41202" lon="2.04588">
        <ele>91.2</ele>
        <time>2023-12-14T09:32:47Z</time>
      </trkpt>
      <trkpt lat="48.41196" lon="2.04586">
        <ele>91.4</ele>
        <time>2023-12-14T09:32:48Z</time>
      </trkpt>
      <trkpt lat="48.41191" lon="2.04584">
        <ele>91.4</ele>
        <time>2023-12-14T09:32:49Z</time>
      </trkpt>
      <trkpt lat="48.41185" lon="2.04581">
        <ele>91.4</ele>
        <time>2023-12-14T09:32:50Z</time>
      </trkpt>
      <trkpt lat="48.4118" lon="2.04579">
        <ele>91.4</ele>
        <time>2023-12-14T09:32:51Z</time>
      </trkpt>
      <trkpt lat="48.41175" lon="2.04578">
        <ele>91</ele>
        <time>2023-12-14T09:32:52Z</time>
      </trkpt>
      <trkpt lat="48.41169" lon="2.04576">
        <ele>91</ele>
        <time>2023-12-14T09:32:53Z</time>
      </trkpt>
      <trkpt lat="48.41164" lon="2.04574">
        <ele>91</ele>
        <time>2023-12-14T09:32:54Z</time>
      </trkpt>
      <trkpt lat="48.41158" lon="2.04573">
        <ele>92</ele>
        <time>2023-12-14T09:32:55Z</time>
      </trkpt>
      <trkpt lat="48.41153" lon="2.04572">
        <ele>91.8</ele>
        <time>2023-12-14T09:32:56Z</time>
      </trkpt>
      <trkpt lat="48.41147" lon="2.04571">
        <ele>91.8</ele>
        <time>2023-12-14T09:32:57Z</time>
      </trkpt>
      <trkpt lat="48.41142" lon="2.0457">
        <ele>91.8</ele>
        <time>2023-12-14T09:32:58Z</time>
      </trkpt>
      <trkpt lat="48.41136" lon="2.04569">
        <ele>92.2</ele>
        <time>2023-12-14T09:32:59Z</time>
      </trkpt>
      <trkpt lat="48.41131" lon="2.04567">
        <ele>91.8</ele>
        <time>2023-12-14T09:33:00Z</time>
      </trkpt>
      <trkpt lat="48.41125" lon="2.04565">
        <ele>91.8</ele>
        <time>2023-12-14T09:33:01Z</time>
      </trkpt>
      <trkpt lat="48.4112" lon="2.04563">
        <ele>91.8</ele>
        <time>2023-12-14T09:33:02Z</time>
      </trkpt>
      <trkpt lat="48.41114" lon="2.04561">
        <ele>91.8</ele>
        <time>2023-12-14T09:33:03Z</time>
      </trkpt>
      <trkpt lat="48.41109" lon="2.04559">
        <ele>92</ele>
        <time>2023-12-14T09:33:04Z</time>
      </trkpt>
      <trkpt lat="48.41104" lon="2.04556">
        <ele>92</ele>
        <time>2023-12-14T09:33:05Z</time>
      </trkpt>
      <trkpt lat="48.41098" lon="2.04553">
        <ele>92</ele>
        <time>2023-12-14T09:33:06Z</time>
      </trkpt>
      <trkpt lat="48.41093" lon="2.0455">
        <ele>92</ele>
        <time>2023-12-14T09:33:07Z</time>
      </trkpt>
      <trkpt lat="48.41088" lon="2.04546">
        <ele>93.4</ele>
        <time>2023-12-14T09:33:08Z</time>
      </trkpt>
      <trkpt lat="48.41084" lon="2.04542">
        <ele>93.4</ele>
        <time>2023-12-14T09:33:09Z</time>
      </trkpt>
      <trkpt lat="48.4108" lon="2.04537">
        <ele>93.4</ele>
        <time>2023-12-14T09:33:10Z</time>
      </trkpt>
      <trkpt lat="48.41076" lon="2.04532">
        <ele>93</ele>
        <time>2023-12-14T09:33:11Z</time>
      </trkpt>
      <trkpt lat="48.41072" lon="2.04528">
        <ele>93.6</ele>
        <time>2023-12-14T09:33:12Z</time>
      </trkpt>
      <trkpt lat="48.41067" lon="2.04522">
        <ele>93.6</ele>
        <time>2023-12-14T09:33:13Z</time>
      </trkpt>
      <trkpt lat="48.41064" lon="2.04517">
        <ele>93.6</ele>
        <time>2023-12-14T09:33:14Z</time>
      </trkpt>
      <trkpt lat="48.41061" lon="2.04511">
        <ele>94.2</ele>
        <time>2023-12-14T09:33:15Z</time>
      </trkpt>
      <trkpt lat="48.41057" lon="2.04507">
        <ele>94.4</ele>
        <time>2023-12-14T09:33:16Z</time>
      </trkpt>
      <trkpt lat="48.41053" lon="2.04502">
        <ele>94.4</ele>
        <time>2023-12-14T09:33:17Z</time>
      </trkpt>
      <trkpt lat="48.4105" lon="2.04497">
        <ele>94.4</ele>
        <time>2023-12-14T09:33:18Z</time>
      </trkpt>
      <trkpt lat="48.41046" lon="2.04493">
        <ele>94.6</ele>
        <time>2023-12-14T09:33:19Z</time>
      </trkpt>
      <trkpt lat="48.41042" lon="2.04488">
        <ele>94.6</ele>
        <time>2023-12-14T09:33:20Z</time>
      </trkpt>
      <trkpt lat="48.41039" lon="2.04482">
        <ele>94.6</ele>
        <time>2023-12-14T09:33:21Z</time>
      </trkpt>
      <trkpt lat="48.41035" lon="2.04477">
        <ele>94.6</ele>
        <time>2023-12-14T09:33:22Z</time>
      </trkpt>
      <trkpt lat="48.4103" lon="2.04473">
        <ele>94.6</ele>
        <time>2023-12-14T09:33:23Z</time>
      </trkpt>
      <trkpt lat="48.41026" lon="2.04467">
        <ele>95.4</ele>
        <time>2023-12-14T09:33:24Z</time>
      </trkpt>
      <trkpt lat="48.41023" lon="2.04462">
        <ele>95.4</ele>
        <time>2023-12-14T09:33:25Z</time>
      </trkpt>
      <trkpt lat="48.41019" lon="2.04457">
        <ele>95.4</ele>
        <time>2023-12-14T09:33:26Z</time>
      </trkpt>
      <trkpt lat="48.41015" lon="2.04451">
        <ele>95.4</ele>
        <time>2023-12-14T09:33:27Z</time>
      </trkpt>
      <trkpt lat="48.41011" lon="2.04446">
        <ele>96</ele>
        <time>2023-12-14T09:33:28Z</time>
      </trkpt>
      <trkpt lat="48.41007" lon="2.0444">
        <ele>96</ele>
        <time>2023-12-14T09:33:29Z</time>
      </trkpt>
      <trkpt lat="48.41004" lon="2.04434">
        <ele>96</ele>
        <time>2023-12-14T09:33:30Z</time>
      </trkpt>
      <trkpt lat="48.41001" lon="2.04428">
        <ele>97</ele>
        <time>2023-12-14T09:33:31Z</time>
      </trkpt>
      <trkpt lat="48.40997" lon="2.04422">
        <ele>97</ele>
        <time>2023-12-14T09:33:32Z</time>
      </trkpt>
      <trkpt lat="48.40994" lon="2.04417">
        <ele>97</ele>
        <time>2023-12-14T09:33:33Z</time>
      </trkpt>
      <trkpt lat="48.4099" lon="2.04412">
        <ele>97</ele>
        <time>2023-12-14T09:33:34Z</time>
      </trkpt>
      <trkpt lat="48.40986" lon="2.04406">
        <ele>98</ele>
        <time>2023-12-14T09:33:35Z</time>
      </trkpt>
      <trkpt lat="48.40983" lon="2.04401">
        <ele>98</ele>
        <time>2023-12-14T09:33:36Z</time>
      </trkpt>
      <trkpt lat="48.40979" lon="2.04396">
        <ele>98</ele>
        <time>2023-12-14T09:33:37Z</time>
      </trkpt>
      <trkpt lat="48.40975" lon="2.04392">
        <ele>98</ele>
        <time>2023-12-14T09:33:38Z</time>
      </trkpt>
      <trkpt lat="48.40971" lon="2.04387">
        <ele>98.6</ele>
        <time>2023-12-14T09:33:39Z</time>
      </trkpt>
      <trkpt lat="48.40967" lon="2.04382">
        <ele>98.6</ele>
        <time>2023-12-14T09:33:40Z</time>
      </trkpt>
      <trkpt lat="48.40963" lon="2.04378">
        <ele>98.6</ele>
        <time>2023-12-14T09:33:41Z</time>
      </trkpt>
      <trkpt lat="48.40959" lon="2.04373">
        <ele>98.6</ele>
        <time>2023-12-14T09:33:42Z</time>
      </trkpt>
      <trkpt lat="48.40955" lon="2.04368">
        <ele>98</ele>
        <time>2023-12-14T09:33:43Z</time>
      </trkpt>
      <trkpt lat="48.40951" lon="2.04363">
        <ele>97.6</ele>
        <time>2023-12-14T09:33:44Z</time>
      </trkpt>
      <trkpt lat="48.40948" lon="2.04358">
        <ele>97.6</ele>
        <time>2023-12-14T09:33:45Z</time>
      </trkpt>
      <trkpt lat="48.40944" lon="2.04352">
        <ele>97.6</ele>
        <time>2023-12-14T09:33:46Z</time>
      </trkpt>
      <trkpt lat="48.4094" lon="2.04346">
        <ele>97.6</ele>
        <time>2023-12-14T09:33:47Z</time>
      </trkpt>
      <trkpt lat="48.40936" lon="2.0434">
        <ele>97.6</ele>
        <time>2023-12-14T09:33:48Z</time>
      </trkpt>
      <trkpt lat="48.40933" lon="2.04333">
        <ele>97.6</ele>
        <time>2023-12-14T09:33:49Z</time>
      </trkpt>
      <trkpt lat="48.4093" lon="2.04327">
        <ele>97.6</ele>
        <time>2023-12-14T09:33:50Z</time>
      </trkpt>
      <trkpt lat="48.40926" lon="2.0432">
        <ele>96.6</ele>
        <time>2023-12-14T09:33:51Z</time>
      </trkpt>
      <trkpt lat="48.40924" lon="2.04312">
        <ele>97.8</ele>
        <time>2023-12-14T09:33:52Z</time>
      </trkpt>
      <trkpt lat="48.40921" lon="2.04305">
        <ele>97.8</ele>
        <time>2023-12-14T09:33:53Z</time>
      </trkpt>
      <trkpt lat="48.40918" lon="2.04298">
        <ele>97.8</ele>
        <time>2023-12-14T09:33:54Z</time>
      </trkpt>
      <trkpt lat="48.40915" lon="2.04291">
        <ele>97.4</ele>
        <time>2023-12-14T09:33:55Z</time>
      </trkpt>
      <trkpt lat="48.40912" lon="2.04283">
        <ele>97.6</ele>
        <time>2023-12-14T09:33:56Z</time>
      </trkpt>
      <trkpt lat="48.40909" lon="2.04276">
        <ele>97.6</ele>
        <time>2023-12-14T09:33:57Z</time>
      </trkpt>
      <trkpt lat="48.40906" lon="2.04269">
        <ele>97.6</ele>
        <time>2023-12-14T09:33:58Z</time>
      </trkpt>
      <trkpt lat="48.40903" lon="2.04262">
        <ele>96.6</ele>
        <time>2023-12-14T09:33:59Z</time>
      </trkpt>
      <trkpt lat="48.40901" lon="2.04256">
        <ele>95.8</ele>
        <time>2023-12-14T09:34:00Z</time>
      </trkpt>
      <trkpt lat="48.40897" lon="2.04249">
        <ele>95.8</ele>
        <time>2023-12-14T09:34:01Z</time>
      </trkpt>
      <trkpt lat="48.40894" lon="2.04242">
        <ele>95.8</ele>
        <time>2023-12-14T09:34:02Z</time>
      </trkpt>
      <trkpt lat="48.40892" lon="2.04235">
        <ele>95.8</ele>
        <time>2023-12-14T09:34:03Z</time>
      </trkpt>
      <trkpt lat="48.40889" lon="2.04227">
        <ele>95.4</ele>
        <time>2023-12-14T09:34:04Z</time>
      </trkpt>
      <trkpt lat="48.40886" lon="2.04219">
        <ele>95.4</ele>
        <time>2023-12-14T09:34:05Z</time>
      </trkpt>
      <trkpt lat="48.40884" lon="2.0421">
        <ele>95.4</ele>
        <time>2023-12-14T09:34:06Z</time>
      </trkpt>
      <trkpt lat="48.40882" lon="2.04201">
        <ele>94.4</ele>
        <time>2023-12-14T09:34:07Z</time>
      </trkpt>
      <trkpt lat="48.40879" lon="2.04192">
        <ele>92.6</ele>
        <time>2023-12-14T09:34:08Z</time>
      </trkpt>
      <trkpt lat="48.40877" lon="2.04183">
        <ele>92.6</ele>
        <time>2023-12-14T09:34:09Z</time>
      </trkpt>
      <trkpt lat="48.40875" lon="2.04173">
        <ele>92.6</ele>
        <time>2023-12-14T09:34:10Z</time>
      </trkpt>
      <trkpt lat="48.40873" lon="2.04164">
        <ele>92.6</ele>
        <time>2023-12-14T09:34:11Z</time>
      </trkpt>
      <trkpt lat="48.40871" lon="2.04154">
        <ele>92.2</ele>
        <time>2023-12-14T09:34:12Z</time>
      </trkpt>
      <trkpt lat="48.40869" lon="2.04144">
        <ele>92.2</ele>
        <time>2023-12-14T09:34:13Z</time>
      </trkpt>
      <trkpt lat="48.40867" lon="2.04134">
        <ele>92.2</ele>
        <time>2023-12-14T09:34:14Z</time>
      </trkpt>
      <trkpt lat="48.40865" lon="2.04125">
        <ele>92.2</ele>
        <time>2023-12-14T09:34:15Z</time>
      </trkpt>
      <trkpt lat="48.40863" lon="2.04115">
        <ele>91.6</ele>
        <time>2023-12-14T09:34:16Z</time>
      </trkpt>
      <trkpt lat="48.40861" lon="2.04106">
        <ele>91.6</ele>
        <time>2023-12-14T09:34:17Z</time>
      </trkpt>
      <trkpt lat="48.40858" lon="2.04096">
        <ele>91.6</ele>
        <time>2023-12-14T09:34:18Z</time>
      </trkpt>
      <trkpt lat="48.40856" lon="2.04087">
        <ele>91.6</ele>
        <time>2023-12-14T09:34:19Z</time>
      </trkpt>
      <trkpt lat="48.40854" lon="2.04078">
        <ele>91.2</ele>
        <time>2023-12-14T09:34:20Z</time>
      </trkpt>
      <trkpt lat="48.40851" lon="2.04069">
        <ele>91.2</ele>
        <time>2023-12-14T09:34:21Z</time>
      </trkpt>
      <trkpt lat="48.40848" lon="2.04059">
        <ele>91.2</ele>
        <time>2023-12-14T09:34:22Z</time>
      </trkpt>
      <trkpt lat="48.40844" lon="2.0405">
        <ele>91.2</ele>
        <time>2023-12-14T09:34:23Z</time>
      </trkpt>
      <trkpt lat="48.40841" lon="2.04043">
        <ele>90.2</ele>
        <time>2023-12-14T09:34:24Z</time>
      </trkpt>
      <trkpt lat="48.40837" lon="2.04036">
        <ele>90.2</ele>
        <time>2023-12-14T09:34:25Z</time>
      </trkpt>
      <trkpt lat="48.40834" lon="2.04028">
        <ele>90.2</ele>
        <time>2023-12-14T09:34:26Z</time>
      </trkpt>
      <trkpt lat="48.40829" lon="2.04021">
        <ele>90.2</ele>
        <time>2023-12-14T09:34:27Z</time>
      </trkpt>
      <trkpt lat="48.40824" lon="2.04015">
        <ele>90.4</ele>
        <time>2023-12-14T09:34:28Z</time>
      </trkpt>
      <trkpt lat="48.40818" lon="2.04008">
        <ele>90.4</ele>
        <time>2023-12-14T09:34:29Z</time>
      </trkpt>
      <trkpt lat="48.40812" lon="2.04003">
        <ele>90.4</ele>
        <time>2023-12-14T09:34:30Z</time>
      </trkpt>
      <trkpt lat="48.40806" lon="2.03997">
        <ele>89.6</ele>
        <time>2023-12-14T09:34:31Z</time>
      </trkpt>
      <trkpt lat="48.408" lon="2.03991">
        <ele>90.2</ele>
        <time>2023-12-14T09:34:32Z</time>
      </trkpt>
      <trkpt lat="48.40794" lon="2.03986">
        <ele>90.2</ele>
        <time>2023-12-14T09:34:33Z</time>
      </trkpt>
      <trkpt lat="48.40788" lon="2.0398">
        <ele>90.2</ele>
        <time>2023-12-14T09:34:34Z</time>
      </trkpt>
      <trkpt lat="48.40783" lon="2.03975">
        <ele>90.2</ele>
        <time>2023-12-14T09:34:35Z</time>
      </trkpt>
      <trkpt lat="48.40778" lon="2.03969">
        <ele>90.2</ele>
        <time>2023-12-14T09:34:36Z</time>
      </trkpt>
      <trkpt lat="48.40773" lon="2.03964">
        <ele>90.2</ele>
        <time>2023-12-14T09:34:37Z</time>
      </trkpt>
      <trkpt lat="48.40768" lon="2.03959">
        <ele>90.2</ele>
        <time>2023-12-14T09:34:38Z</time>
      </trkpt>
      <trkpt lat="48.40764" lon="2.03953">
        <ele>90.2</ele>
        <time>2023-12-14T09:34:39Z</time>
      </trkpt>
      <trkpt lat="48.40759" lon="2.03947">
        <ele>89.8</ele>
        <time>2023-12-14T09:34:40Z</time>
      </trkpt>
      <trkpt lat="48.40755" lon="2.0394">
        <ele>89.8</ele>
        <time>2023-12-14T09:34:41Z</time>
      </trkpt>
      <trkpt lat="48.40751" lon="2.03934">
        <ele>89.8</ele>
        <time>2023-12-14T09:34:42Z</time>
      </trkpt>
      <trkpt lat="48.40747" lon="2.03928">
        <ele>90.8</ele>
        <time>2023-12-14T09:34:43Z</time>
      </trkpt>
      <trkpt lat="48.40743" lon="2.03923">
        <ele>91</ele>
        <time>2023-12-14T09:34:44Z</time>
      </trkpt>
      <trkpt lat="48.4074" lon="2.03916">
        <ele>91</ele>
        <time>2023-12-14T09:34:45Z</time>
      </trkpt>
      <trkpt lat="48.40736" lon="2.03911">
        <ele>91</ele>
        <time>2023-12-14T09:34:46Z</time>
      </trkpt>
      <trkpt lat="48.40732" lon="2.03905">
        <ele>91</ele>
        <time>2023-12-14T09:34:47Z</time>
      </trkpt>
      <trkpt lat="48.40728" lon="2.039">
        <ele>91.2</ele>
        <time>2023-12-14T09:34:48Z</time>
      </trkpt>
      <trkpt lat="48.40724" lon="2.03894">
        <ele>91.2</ele>
        <time>2023-12-14T09:34:49Z</time>
      </trkpt>
      <trkpt lat="48.40721" lon="2.03889">
        <ele>91.2</ele>
        <time>2023-12-14T09:34:50Z</time>
      </trkpt>
      <trkpt lat="48.40716" lon="2.03884">
        <ele>91.8</ele>
        <time>2023-12-14T09:34:51Z</time>
      </trkpt>
      <trkpt lat="48.40711" lon="2.03879">
        <ele>92</ele>
        <time>2023-12-14T09:34:52Z</time>
      </trkpt>
      <trkpt lat="48.40706" lon="2.03874">
        <ele>92</ele>
        <time>2023-12-14T09:34:53Z</time>
      </trkpt>
      <trkpt lat="48.40701" lon="2.03869">
        <ele>92</ele>
        <time>2023-12-14T09:34:54Z</time>
      </trkpt>
      <trkpt lat="48.40695" lon="2.03865">
        <ele>92</ele>
        <time>2023-12-14T09:34:55Z</time>
      </trkpt>
      <trkpt lat="48.40689" lon="2.03861">
        <ele>92</ele>
        <time>2023-12-14T09:34:56Z</time>
      </trkpt>
      <trkpt lat="48.40683" lon="2.03857">
        <ele>92</ele>
        <time>2023-12-14T09:34:57Z</time>
      </trkpt>
      <trkpt lat="48.40677" lon="2.03855">
        <ele>92</ele>
        <time>2023-12-14T09:34:58Z</time>
      </trkpt>
      <trkpt lat="48.4067" lon="2.03852">
        <ele>92</ele>
        <time>2023-12-14T09:34:59Z</time>
      </trkpt>
      <trkpt lat="48.40664" lon="2.03849">
        <ele>92</ele>
        <time>2023-12-14T09:35:00Z</time>
      </trkpt>
      <trkpt lat="48.40658" lon="2.03847">
        <ele>92</ele>
        <time>2023-12-14T09:35:01Z</time>
      </trkpt>
      <trkpt lat="48.40651" lon="2.03845">
        <ele>92</ele>
        <time>2023-12-14T09:35:02Z</time>
      </trkpt>
      <trkpt lat="48.40645" lon="2.03843">
        <ele>92</ele>
        <time>2023-12-14T09:35:03Z</time>
      </trkpt>
      <trkpt lat="48.40639" lon="2.03841">
        <ele>92.2</ele>
        <time>2023-12-14T09:35:04Z</time>
      </trkpt>
      <trkpt lat="48.40633" lon="2.03839">
        <ele>92.2</ele>
        <time>2023-12-14T09:35:05Z</time>
      </trkpt>
      <trkpt lat="48.40627" lon="2.03838">
        <ele>92.2</ele>
        <time>2023-12-14T09:35:06Z</time>
      </trkpt>
      <trkpt lat="48.40621" lon="2.03836">
        <ele>91.6</ele>
        <time>2023-12-14T09:35:07Z</time>
      </trkpt>
      <trkpt lat="48.40615" lon="2.03834">
        <ele>92.2</ele>
        <time>2023-12-14T09:35:08Z</time>
      </trkpt>
      <trkpt lat="48.40609" lon="2.03831">
        <ele>92.2</ele>
        <time>2023-12-14T09:35:09Z</time>
      </trkpt>
      <trkpt lat="48.40603" lon="2.03828">
        <ele>92.2</ele>
        <time>2023-12-14T09:35:10Z</time>
      </trkpt>
      <trkpt lat="48.40597" lon="2.03826">
        <ele>91.8</ele>
        <time>2023-12-14T09:35:11Z</time>
      </trkpt>
      <trkpt lat="48.40591" lon="2.03822">
        <ele>91.8</ele>
        <time>2023-12-14T09:35:12Z</time>
      </trkpt>
      <trkpt lat="48.40586" lon="2.03819">
        <ele>91.8</ele>
        <time>2023-12-14T09:35:13Z</time>
      </trkpt>
      <trkpt lat="48.4058" lon="2.03815">
        <ele>91.8</ele>
        <time>2023-12-14T09:35:14Z</time>
      </trkpt>
      <trkpt lat="48.40575" lon="2.03812">
        <ele>91.8</ele>
        <time>2023-12-14T09:35:15Z</time>
      </trkpt>
      <trkpt lat="48.40569" lon="2.03808">
        <ele>92</ele>
        <time>2023-12-14T09:35:16Z</time>
      </trkpt>
      <trkpt lat="48.40564" lon="2.03805">
        <ele>92</ele>
        <time>2023-12-14T09:35:17Z</time>
      </trkpt>
      <trkpt lat="48.40558" lon="2.03802">
        <ele>92</ele>
        <time>2023-12-14T09:35:18Z</time>
      </trkpt>
      <trkpt lat="48.40552" lon="2.03798">
        <ele>92</ele>
        <time>2023-12-14T09:35:19Z</time>
      </trkpt>
      <trkpt lat="48.40547" lon="2.03794">
        <ele>92.2</ele>
        <time>2023-12-14T09:35:20Z</time>
      </trkpt>
      <trkpt lat="48.40541" lon="2.0379">
        <ele>92.2</ele>
        <time>2023-12-14T09:35:21Z</time>
      </trkpt>
      <trkpt lat="48.40536" lon="2.03786">
        <ele>92.2</ele>
        <time>2023-12-14T09:35:22Z</time>
      </trkpt>
      <trkpt lat="48.40531" lon="2.03782">
        <ele>92.6</ele>
        <time>2023-12-14T09:35:23Z</time>
      </trkpt>
      <trkpt lat="48.40526" lon="2.03777">
        <ele>92.8</ele>
        <time>2023-12-14T09:35:24Z</time>
      </trkpt>
      <trkpt lat="48.40521" lon="2.03771">
        <ele>92.8</ele>
        <time>2023-12-14T09:35:25Z</time>
      </trkpt>
      <trkpt lat="48.40517" lon="2.03766">
        <ele>92.8</ele>
        <time>2023-12-14T09:35:26Z</time>
      </trkpt>
      <trkpt lat="48.40512" lon="2.0376">
        <ele>92.6</ele>
        <time>2023-12-14T09:35:27Z</time>
      </trkpt>
      <trkpt lat="48.40508" lon="2.03754">
        <ele>93.2</ele>
        <time>2023-12-14T09:35:28Z</time>
      </trkpt>
      <trkpt lat="48.40504" lon="2.03748">
        <ele>93.2</ele>
        <time>2023-12-14T09:35:29Z</time>
      </trkpt>
      <trkpt lat="48.405" lon="2.03741">
        <ele>93.2</ele>
        <time>2023-12-14T09:35:30Z</time>
      </trkpt>
      <trkpt lat="48.40497" lon="2.03734">
        <ele>93.2</ele>
        <time>2023-12-14T09:35:31Z</time>
      </trkpt>
      <trkpt lat="48.40493" lon="2.03727">
        <ele>92.8</ele>
        <time>2023-12-14T09:35:32Z</time>
      </trkpt>
      <trkpt lat="48.4049" lon="2.0372">
        <ele>92.8</ele>
        <time>2023-12-14T09:35:33Z</time>
      </trkpt>
      <trkpt lat="48.40487" lon="2.03713">
        <ele>92.8</ele>
        <time>2023-12-14T09:35:34Z</time>
      </trkpt>
      <trkpt lat="48.40484" lon="2.03706">
        <ele>93.4</ele>
        <time>2023-12-14T09:35:35Z</time>
      </trkpt>
      <trkpt lat="48.40481" lon="2.03698">
        <ele>93.2</ele>
        <time>2023-12-14T09:35:36Z</time>
      </trkpt>
      <trkpt lat="48.40478" lon="2.0369">
        <ele>93.2</ele>
        <time>2023-12-14T09:35:37Z</time>
      </trkpt>
      <trkpt lat="48.40475" lon="2.03683">
        <ele>93.2</ele>
        <time>2023-12-14T09:35:38Z</time>
      </trkpt>
      <trkpt lat="48.40473" lon="2.03675">
        <ele>93.2</ele>
        <time>2023-12-14T09:35:39Z</time>
      </trkpt>
      <trkpt lat="48.4047" lon="2.03667">
        <ele>93.2</ele>
        <time>2023-12-14T09:35:40Z</time>
      </trkpt>
      <trkpt lat="48.40468" lon="2.03659">
        <ele>93.2</ele>
        <time>2023-12-14T09:35:41Z</time>
      </trkpt>
      <trkpt lat="48.40465" lon="2.03651">
        <ele>93.2</ele>
        <time>2023-12-14T09:35:42Z</time>
      </trkpt>
      <trkpt lat="48.40463" lon="2.03643">
        <ele>93.8</ele>
        <time>2023-12-14T09:35:43Z</time>
      </trkpt>
      <trkpt lat="48.4046" lon="2.03635">
        <ele>93.4</ele>
        <time>2023-12-14T09:35:44Z</time>
      </trkpt>
      <trkpt lat="48.40458" lon="2.03627">
        <ele>93.4</ele>
        <time>2023-12-14T09:35:45Z</time>
      </trkpt>
      <trkpt lat="48.40456" lon="2.03619">
        <ele>93.4</ele>
        <time>2023-12-14T09:35:46Z</time>
      </trkpt>
      <trkpt lat="48.40453" lon="2.03611">
        <ele>93.4</ele>
        <time>2023-12-14T09:35:47Z</time>
      </trkpt>
      <trkpt lat="48.4045" lon="2.03603">
        <ele>93.2</ele>
        <time>2023-12-14T09:35:48Z</time>
      </trkpt>
      <trkpt lat="48.40448" lon="2.03595">
        <ele>93.2</ele>
        <time>2023-12-14T09:35:49Z</time>
      </trkpt>
      <trkpt lat="48.40445" lon="2.03588">
        <ele>93.2</ele>
        <time>2023-12-14T09:35:50Z</time>
      </trkpt>
      <trkpt lat="48.40443" lon="2.0358">
        <ele>93.2</ele>
        <time>2023-12-14T09:35:51Z</time>
      </trkpt>
      <trkpt lat="48.4044" lon="2.03572">
        <ele>93.4</ele>
        <time>2023-12-14T09:35:52Z</time>
      </trkpt>
      <trkpt lat="48.40437" lon="2.03564">
        <ele>93.4</ele>
        <time>2023-12-14T09:35:53Z</time>
      </trkpt>
      <trkpt lat="48.40434" lon="2.03556">
        <ele>93.4</ele>
        <time>2023-12-14T09:35:54Z</time>
      </trkpt>
      <trkpt lat="48.40432" lon="2.03548">
        <ele>93.4</ele>
        <time>2023-12-14T09:35:55Z</time>
      </trkpt>
      <trkpt lat="48.40429" lon="2.0354">
        <ele>93.6</ele>
        <time>2023-12-14T09:35:56Z</time>
      </trkpt>
      <trkpt lat="48.40426" lon="2.03532">
        <ele>93.6</ele>
        <time>2023-12-14T09:35:57Z</time>
      </trkpt>
      <trkpt lat="48.40423" lon="2.03525">
        <ele>93.6</ele>
        <time>2023-12-14T09:35:58Z</time>
      </trkpt>
      <trkpt lat="48.4042" lon="2.03517">
        <ele>93.8</ele>
        <time>2023-12-14T09:35:59Z</time>
      </trkpt>
      <trkpt lat="48.40416" lon="2.0351">
        <ele>94</ele>
        <time>2023-12-14T09:36:00Z</time>
      </trkpt>
      <trkpt lat="48.40413" lon="2.03502">
        <ele>94</ele>
        <time>2023-12-14T09:36:01Z</time>
      </trkpt>
      <trkpt lat="48.4041" lon="2.03495">
        <ele>94</ele>
        <time>2023-12-14T09:36:02Z</time>
      </trkpt>
      <trkpt lat="48.40407" lon="2.03488">
        <ele>94</ele>
        <time>2023-12-14T09:36:03Z</time>
      </trkpt>
      <trkpt lat="48.40404" lon="2.0348">
        <ele>94</ele>
        <time>2023-12-14T09:36:04Z</time>
      </trkpt>
      <trkpt lat="48.40401" lon="2.03473">
        <ele>94</ele>
        <time>2023-12-14T09:36:05Z</time>
      </trkpt>
      <trkpt lat="48.40398" lon="2.03466">
        <ele>94</ele>
        <time>2023-12-14T09:36:06Z</time>
      </trkpt>
      <trkpt lat="48.40395" lon="2.03459">
        <ele>94.6</ele>
        <time>2023-12-14T09:36:07Z</time>
      </trkpt>
      <trkpt lat="48.40392" lon="2.03452">
        <ele>94.8</ele>
        <time>2023-12-14T09:36:08Z</time>
      </trkpt>
      <trkpt lat="48.40389" lon="2.03445">
        <ele>94.8</ele>
        <time>2023-12-14T09:36:09Z</time>
      </trkpt>
      <trkpt lat="48.40386" lon="2.03439">
        <ele>94.8</ele>
        <time>2023-12-14T09:36:10Z</time>
      </trkpt>
      <trkpt lat="48.40383" lon="2.03432">
        <ele>94.8</ele>
        <time>2023-12-14T09:36:11Z</time>
      </trkpt>
      <trkpt lat="48.4038" lon="2.03425">
        <ele>95.6</ele>
        <time>2023-12-14T09:36:12Z</time>
      </trkpt>
      <trkpt lat="48.40377" lon="2.03418">
        <ele>95.6</ele>
        <time>2023-12-14T09:36:13Z</time>
      </trkpt>
      <trkpt lat="48.40374" lon="2.03411">
        <ele>95.6</ele>
        <time>2023-12-14T09:36:14Z</time>
      </trkpt>
      <trkpt lat="48.40371" lon="2.03404">
        <ele>95.6</ele>
        <time>2023-12-14T09:36:15Z</time>
      </trkpt>
      <trkpt lat="48.40368" lon="2.03397">
        <ele>96</ele>
        <time>2023-12-14T09:36:16Z</time>
      </trkpt>
      <trkpt lat="48.40365" lon="2.03391">
        <ele>96</ele>
        <time>2023-12-14T09:36:17Z</time>
      </trkpt>
      <trkpt lat="48.40361" lon="2.03384">
        <ele>96</ele>
        <time>2023-12-14T09:36:18Z</time>
      </trkpt>
      <trkpt lat="48.40358" lon="2.03377">
        <ele>96</ele>
        <time>2023-12-14T09:36:19Z</time>
      </trkpt>
      <trkpt lat="48.40355" lon="2.0337">
        <ele>95.8</ele>
        <time>2023-12-14T09:36:20Z</time>
      </trkpt>
      <trkpt lat="48.40352" lon="2.03363">
        <ele>95.8</ele>
        <time>2023-12-14T09:36:21Z</time>
      </trkpt>
      <trkpt lat="48.40348" lon="2.03356">
        <ele>95.8</ele>
        <time>2023-12-14T09:36:22Z</time>
      </trkpt>
      <trkpt lat="48.40345" lon="2.03349">
        <ele>96.2</ele>
        <time>2023-12-14T09:36:23Z</time>
      </trkpt>
      <trkpt lat="48.40341" lon="2.03343">
        <ele>96.6</ele>
        <time>2023-12-14T09:36:24Z</time>
      </trkpt>
      <trkpt lat="48.40338" lon="2.03336">
        <ele>96.6</ele>
        <time>2023-12-14T09:36:25Z</time>
      </trkpt>
      <trkpt lat="48.40335" lon="2.03329">
        <ele>96.6</ele>
        <time>2023-12-14T09:36:26Z</time>
      </trkpt>
      <trkpt lat="48.40331" lon="2.03323">
        <ele>96.8</ele>
        <time>2023-12-14T09:36:27Z</time>
      </trkpt>
      <trkpt lat="48.40328" lon="2.03316">
        <ele>97.2</ele>
        <time>2023-12-14T09:36:28Z</time>
      </trkpt>
      <trkpt lat="48.40324" lon="2.03309">
        <ele>97.2</ele>
        <time>2023-12-14T09:36:29Z</time>
      </trkpt>
      <trkpt lat="48.4032" lon="2.03303">
        <ele>97.2</ele>
        <time>2023-12-14T09:36:30Z</time>
      </trkpt>
      <trkpt lat="48.40317" lon="2.03298">
        <ele>96.8</ele>
        <time>2023-12-14T09:36:31Z</time>
      </trkpt>
      <trkpt lat="48.40314" lon="2.03292">
        <ele>97.2</ele>
        <time>2023-12-14T09:36:32Z</time>
      </trkpt>
      <trkpt lat="48.4031" lon="2.03286">
        <ele>97.2</ele>
        <time>2023-12-14T09:36:33Z</time>
      </trkpt>
      <trkpt lat="48.40306" lon="2.03281">
        <ele>97.2</ele>
        <time>2023-12-14T09:36:34Z</time>
      </trkpt>
      <trkpt lat="48.40302" lon="2.03275">
        <ele>97.2</ele>
        <time>2023-12-14T09:36:35Z</time>
      </trkpt>
      <trkpt lat="48.40298" lon="2.03271">
        <ele>97.4</ele>
        <time>2023-12-14T09:36:36Z</time>
      </trkpt>
      <trkpt lat="48.40294" lon="2.03265">
        <ele>97.4</ele>
        <time>2023-12-14T09:36:37Z</time>
      </trkpt>
      <trkpt lat="48.40289" lon="2.03259">
        <ele>97.4</ele>
        <time>2023-12-14T09:36:38Z</time>
      </trkpt>
      <trkpt lat="48.40285" lon="2.03253">
        <ele>97.2</ele>
        <time>2023-12-14T09:36:39Z</time>
      </trkpt>
      <trkpt lat="48.4028" lon="2.03247">
        <ele>97.6</ele>
        <time>2023-12-14T09:36:40Z</time>
      </trkpt>
      <trkpt lat="48.40276" lon="2.03241">
        <ele>97.6</ele>
        <time>2023-12-14T09:36:41Z</time>
      </trkpt>
      <trkpt lat="48.40271" lon="2.03235">
        <ele>97.6</ele>
        <time>2023-12-14T09:36:42Z</time>
      </trkpt>
      <trkpt lat="48.40266" lon="2.0323">
        <ele>97.4</ele>
        <time>2023-12-14T09:36:43Z</time>
      </trkpt>
      <trkpt lat="48.40262" lon="2.03224">
        <ele>97.8</ele>
        <time>2023-12-14T09:36:44Z</time>
      </trkpt>
      <trkpt lat="48.40257" lon="2.03218">
        <ele>97.8</ele>
        <time>2023-12-14T09:36:45Z</time>
      </trkpt>
      <trkpt lat="48.40252" lon="2.03212">
        <ele>97.8</ele>
        <time>2023-12-14T09:36:46Z</time>
      </trkpt>
      <trkpt lat="48.40247" lon="2.03207">
        <ele>97.6</ele>
        <time>2023-12-14T09:36:47Z</time>
      </trkpt>
      <trkpt lat="48.40243" lon="2.03201">
        <ele>97.4</ele>
        <time>2023-12-14T09:36:48Z</time>
      </trkpt>
      <trkpt lat="48.40238" lon="2.03195">
        <ele>97.4</ele>
        <time>2023-12-14T09:36:49Z</time>
      </trkpt>
      <trkpt lat="48.40233" lon="2.03189">
        <ele>97.4</ele>
        <time>2023-12-14T09:36:50Z</time>
      </trkpt>
      <trkpt lat="48.40228" lon="2.03184">
        <ele>98</ele>
        <time>2023-12-14T09:36:51Z</time>
      </trkpt>
      <trkpt lat="48.40224" lon="2.03178">
        <ele>97.6</ele>
        <time>2023-12-14T09:36:52Z</time>
      </trkpt>
      <trkpt lat="48.40219" lon="2.03172">
        <ele>97.6</ele>
        <time>2023-12-14T09:36:53Z</time>
      </trkpt>
      <trkpt lat="48.40214" lon="2.03166">
        <ele>97.6</ele>
        <time>2023-12-14T09:36:54Z</time>
      </trkpt>
      <trkpt lat="48.4021" lon="2.03161">
        <ele>97.6</ele>
        <time>2023-12-14T09:36:55Z</time>
      </trkpt>
      <trkpt lat="48.40205" lon="2.03155">
        <ele>97.6</ele>
        <time>2023-12-14T09:36:56Z</time>
      </trkpt>
      <trkpt lat="48.402" lon="2.0315">
        <ele>97.6</ele>
        <time>2023-12-14T09:36:57Z</time>
      </trkpt>
      <trkpt lat="48.40195" lon="2.03145">
        <ele>97.6</ele>
        <time>2023-12-14T09:36:58Z</time>
      </trkpt>
      <trkpt lat="48.40191" lon="2.03139">
        <ele>98</ele>
        <time>2023-12-14T09:36:59Z</time>
      </trkpt>
      <trkpt lat="48.40186" lon="2.03133">
        <ele>98</ele>
        <time>2023-12-14T09:37:00Z</time>
      </trkpt>
      <trkpt lat="48.40181" lon="2.03128">
        <ele>98</ele>
        <time>2023-12-14T09:37:01Z</time>
      </trkpt>
      <trkpt lat="48.40177" lon="2.03123">
        <ele>98</ele>
        <time>2023-12-14T09:37:02Z</time>
      </trkpt>
      <trkpt lat="48.40172" lon="2.03116">
        <ele>98.2</ele>
        <time>2023-12-14T09:37:03Z</time>
      </trkpt>
      <trkpt lat="48.40168" lon="2.03111">
        <ele>98</ele>
        <time>2023-12-14T09:37:04Z</time>
      </trkpt>
      <trkpt lat="48.40163" lon="2.03106">
        <ele>98</ele>
        <time>2023-12-14T09:37:05Z</time>
      </trkpt>
      <trkpt lat="48.40158" lon="2.03101">
        <ele>98</ele>
        <time>2023-12-14T09:37:06Z</time>
      </trkpt>
      <trkpt lat="48.40153" lon="2.03096">
        <ele>98.4</ele>
        <time>2023-12-14T09:37:07Z</time>
      </trkpt>
      <trkpt lat="48.40148" lon="2.03091">
        <ele>98</ele>
        <time>2023-12-14T09:37:08Z</time>
      </trkpt>
      <trkpt lat="48.40143" lon="2.03086">
        <ele>98</ele>
        <time>2023-12-14T09:37:09Z</time>
      </trkpt>
      <trkpt lat="48.40138" lon="2.03082">
        <ele>98</ele>
        <time>2023-12-14T09:37:10Z</time>
      </trkpt>
      <trkpt lat="48.40133" lon="2.03078">
        <ele>98</ele>
        <time>2023-12-14T09:37:11Z</time>
      </trkpt>
      <trkpt lat="48.40128" lon="2.03073">
        <ele>98.6</ele>
        <time>2023-12-14T09:37:12Z</time>
      </trkpt>
      <trkpt lat="48.40122" lon="2.0307">
        <ele>98.6</ele>
        <time>2023-12-14T09:37:13Z</time>
      </trkpt>
      <trkpt lat="48.40116" lon="2.03065">
        <ele>98.6</ele>
        <time>2023-12-14T09:37:14Z</time>
      </trkpt>
      <trkpt lat="48.40111" lon="2.03061">
        <ele>98.6</ele>
        <time>2023-12-14T09:37:15Z</time>
      </trkpt>
      <trkpt lat="48.40106" lon="2.03057">
        <ele>98.8</ele>
        <time>2023-12-14T09:37:16Z</time>
      </trkpt>
      <trkpt lat="48.401" lon="2.03053">
        <ele>98.8</ele>
        <time>2023-12-14T09:37:17Z</time>
      </trkpt>
      <trkpt lat="48.40096" lon="2.03048">
        <ele>98.8</ele>
        <time>2023-12-14T09:37:18Z</time>
      </trkpt>
      <trkpt lat="48.4009" lon="2.03045">
        <ele>98.8</ele>
        <time>2023-12-14T09:37:19Z</time>
      </trkpt>
      <trkpt lat="48.40085" lon="2.03041">
        <ele>98.8</ele>
        <time>2023-12-14T09:37:20Z</time>
      </trkpt>
      <trkpt lat="48.4008" lon="2.03036">
        <ele>98.8</ele>
        <time>2023-12-14T09:37:21Z</time>
      </trkpt>
      <trkpt lat="48.40075" lon="2.03032">
        <ele>98.8</ele>
        <time>2023-12-14T09:37:22Z</time>
      </trkpt>
      <trkpt lat="48.4007" lon="2.03029">
        <ele>99.4</ele>
        <time>2023-12-14T09:37:23Z</time>
      </trkpt>
      <trkpt lat="48.40065" lon="2.03025">
        <ele>100</ele>
        <time>2023-12-14T09:37:24Z</time>
      </trkpt>
      <trkpt lat="48.4006" lon="2.03022">
        <ele>100</ele>
        <time>2023-12-14T09:37:25Z</time>
      </trkpt>
      <trkpt lat="48.40055" lon="2.0302">
        <ele>100</ele>
        <time>2023-12-14T09:37:26Z</time>
      </trkpt>
      <trkpt lat="48.40049" lon="2.03019">
        <ele>100</ele>
        <time>2023-12-14T09:37:27Z</time>
      </trkpt>
      <trkpt lat="48.40044" lon="2.03017">
        <ele>99.8</ele>
        <time>2023-12-14T09:37:28Z</time>
      </trkpt>
      <trkpt lat="48.40039" lon="2.03016">
        <ele>99.8</ele>
        <time>2023-12-14T09:37:29Z</time>
      </trkpt>
      <trkpt lat="48.40033" lon="2.03015">
        <ele>99.8</ele>
        <time>2023-12-14T09:37:30Z</time>
      </trkpt>
      <trkpt lat="48.40027" lon="2.03015">
        <ele>99</ele>
        <time>2023-12-14T09:37:31Z</time>
      </trkpt>
      <trkpt lat="48.40021" lon="2.03015">
        <ele>98</ele>
        <time>2023-12-14T09:37:32Z</time>
      </trkpt>
      <trkpt lat="48.40015" lon="2.03015">
        <ele>98</ele>
        <time>2023-12-14T09:37:33Z</time>
      </trkpt>
      <trkpt lat="48.40009" lon="2.03016">
        <ele>98</ele>
        <time>2023-12-14T09:37:34Z</time>
      </trkpt>
      <trkpt lat="48.40004" lon="2.03017">
        <ele>98</ele>
        <time>2023-12-14T09:37:35Z</time>
      </trkpt>
      <trkpt lat="48.39998" lon="2.03017">
        <ele>98</ele>
        <time>2023-12-14T09:37:36Z</time>
      </trkpt>
      <trkpt lat="48.39993" lon="2.03019">
        <ele>98</ele>
        <time>2023-12-14T09:37:37Z</time>
      </trkpt>
      <trkpt lat="48.39988" lon="2.03021">
        <ele>98</ele>
        <time>2023-12-14T09:37:38Z</time>
      </trkpt>
      <trkpt lat="48.39983" lon="2.03024">
        <ele>98</ele>
        <time>2023-12-14T09:37:39Z</time>
      </trkpt>
      <trkpt lat="48.39977" lon="2.03026">
        <ele>97.6</ele>
        <time>2023-12-14T09:37:40Z</time>
      </trkpt>
      <trkpt lat="48.39972" lon="2.03029">
        <ele>97.6</ele>
        <time>2023-12-14T09:37:41Z</time>
      </trkpt>
      <trkpt lat="48.39967" lon="2.03031">
        <ele>97.6</ele>
        <time>2023-12-14T09:37:42Z</time>
      </trkpt>
      <trkpt lat="48.39962" lon="2.03033">
        <ele>97</ele>
        <time>2023-12-14T09:37:43Z</time>
      </trkpt>
      <trkpt lat="48.39956" lon="2.03035">
        <ele>96.8</ele>
        <time>2023-12-14T09:37:44Z</time>
      </trkpt>
      <trkpt lat="48.3995" lon="2.03039">
        <ele>96.8</ele>
        <time>2023-12-14T09:37:45Z</time>
      </trkpt>
      <trkpt lat="48.39945" lon="2.03043">
        <ele>96.8</ele>
        <time>2023-12-14T09:37:46Z</time>
      </trkpt>
      <trkpt lat="48.3994" lon="2.03046">
        <ele>96.8</ele>
        <time>2023-12-14T09:37:47Z</time>
      </trkpt>
      <trkpt lat="48.39934" lon="2.03048">
        <ele>96.6</ele>
        <time>2023-12-14T09:37:48Z</time>
      </trkpt>
      <trkpt lat="48.39929" lon="2.03051">
        <ele>96.6</ele>
        <time>2023-12-14T09:37:49Z</time>
      </trkpt>
      <trkpt lat="48.39924" lon="2.03052">
        <ele>96.6</ele>
        <time>2023-12-14T09:37:50Z</time>
      </trkpt>
      <trkpt lat="48.39919" lon="2.03054">
        <ele>96.2</ele>
        <time>2023-12-14T09:37:51Z</time>
      </trkpt>
      <trkpt lat="48.39913" lon="2.03057">
        <ele>96</ele>
        <time>2023-12-14T09:37:52Z</time>
      </trkpt>
      <trkpt lat="48.39907" lon="2.03061">
        <ele>96</ele>
        <time>2023-12-14T09:37:53Z</time>
      </trkpt>
      <trkpt lat="48.399" lon="2.03065">
        <ele>96</ele>
        <time>2023-12-14T09:37:54Z</time>
      </trkpt>
      <trkpt lat="48.39894" lon="2.03068">
        <ele>96.4</ele>
        <time>2023-12-14T09:37:55Z</time>
      </trkpt>
      <trkpt lat="48.39888" lon="2.03071">
        <ele>96</ele>
        <time>2023-12-14T09:37:56Z</time>
      </trkpt>
      <trkpt lat="48.39882" lon="2.03073">
        <ele>96</ele>
        <time>2023-12-14T09:37:57Z</time>
      </trkpt>
      <trkpt lat="48.39877" lon="2.03076">
        <ele>96</ele>
        <time>2023-12-14T09:37:58Z</time>
      </trkpt>
      <trkpt lat="48.39872" lon="2.0308">
        <ele>96.4</ele>
        <time>2023-12-14T09:37:59Z</time>
      </trkpt>
      <trkpt lat="48.39866" lon="2.03083">
        <ele>96</ele>
        <time>2023-12-14T09:38:00Z</time>
      </trkpt>
      <trkpt lat="48.3986" lon="2.03087">
        <ele>96</ele>
        <time>2023-12-14T09:38:01Z</time>
      </trkpt>
      <trkpt lat="48.39853" lon="2.0309">
        <ele>96</ele>
        <time>2023-12-14T09:38:02Z</time>
      </trkpt>
      <trkpt lat="48.39846" lon="2.03093">
        <ele>96</ele>
        <time>2023-12-14T09:38:03Z</time>
      </trkpt>
      <trkpt lat="48.3984" lon="2.03096">
        <ele>95.6</ele>
        <time>2023-12-14T09:38:04Z</time>
      </trkpt>
      <trkpt lat="48.39833" lon="2.03098">
        <ele>95.6</ele>
        <time>2023-12-14T09:38:05Z</time>
      </trkpt>
      <trkpt lat="48.39827" lon="2.03101">
        <ele>95.6</ele>
        <time>2023-12-14T09:38:06Z</time>
      </trkpt>
      <trkpt lat="48.3982" lon="2.03105">
        <ele>95.6</ele>
        <time>2023-12-14T09:38:07Z</time>
      </trkpt>
      <trkpt lat="48.39813" lon="2.03108">
        <ele>94.6</ele>
        <time>2023-12-14T09:38:08Z</time>
      </trkpt>
      <trkpt lat="48.39806" lon="2.03112">
        <ele>94.6</ele>
        <time>2023-12-14T09:38:09Z</time>
      </trkpt>
      <trkpt lat="48.39798" lon="2.03115">
        <ele>94.6</ele>
        <time>2023-12-14T09:38:10Z</time>
      </trkpt>
      <trkpt lat="48.3979" lon="2.03117">
        <ele>94.4</ele>
        <time>2023-12-14T09:38:11Z</time>
      </trkpt>
      <trkpt lat="48.39783" lon="2.03119">
        <ele>94.8</ele>
        <time>2023-12-14T09:38:12Z</time>
      </trkpt>
      <trkpt lat="48.39777" lon="2.03122">
        <ele>94.8</ele>
        <time>2023-12-14T09:38:13Z</time>
      </trkpt>
      <trkpt lat="48.3977" lon="2.03123">
        <ele>94.8</ele>
        <time>2023-12-14T09:38:14Z</time>
      </trkpt>
      <trkpt lat="48.39763" lon="2.03125">
        <ele>94.8</ele>
        <time>2023-12-14T09:38:15Z</time>
      </trkpt>
      <trkpt lat="48.39756" lon="2.03126">
        <ele>95</ele>
        <time>2023-12-14T09:38:16Z</time>
      </trkpt>
      <trkpt lat="48.39749" lon="2.03126">
        <ele>95</ele>
        <time>2023-12-14T09:38:17Z</time>
      </trkpt>
      <trkpt lat="48.39743" lon="2.03126">
        <ele>95</ele>
        <time>2023-12-14T09:38:18Z</time>
      </trkpt>
      <trkpt lat="48.39736" lon="2.03126">
        <ele>95</ele>
        <time>2023-12-14T09:38:19Z</time>
      </trkpt>
      <trkpt lat="48.39729" lon="2.03126">
        <ele>94.6</ele>
        <time>2023-12-14T09:38:20Z</time>
      </trkpt>
      <trkpt lat="48.39722" lon="2.03125">
        <ele>94.6</ele>
        <time>2023-12-14T09:38:21Z</time>
      </trkpt>
      <trkpt lat="48.39716" lon="2.03123">
        <ele>94.6</ele>
        <time>2023-12-14T09:38:22Z</time>
      </trkpt>
      <trkpt lat="48.3971" lon="2.03122">
        <ele>94.6</ele>
        <time>2023-12-14T09:38:23Z</time>
      </trkpt>
      <trkpt lat="48.39703" lon="2.03121">
        <ele>95</ele>
        <time>2023-12-14T09:38:24Z</time>
      </trkpt>
      <trkpt lat="48.39697" lon="2.03119">
        <ele>95</ele>
        <time>2023-12-14T09:38:25Z</time>
      </trkpt>
      <trkpt lat="48.39691" lon="2.03117">
        <ele>95</ele>
        <time>2023-12-14T09:38:26Z</time>
      </trkpt>
      <trkpt lat="48.39685" lon="2.03114">
        <ele>96</ele>
        <time>2023-12-14T09:38:27Z</time>
      </trkpt>
      <trkpt lat="48.39679" lon="2.0311">
        <ele>95.8</ele>
        <time>2023-12-14T09:38:28Z</time>
      </trkpt>
      <trkpt lat="48.39674" lon="2.03106">
        <ele>95.8</ele>
        <time>2023-12-14T09:38:29Z</time>
      </trkpt>
      <trkpt lat="48.39669" lon="2.03102">
        <ele>95.8</ele>
        <time>2023-12-14T09:38:30Z</time>
      </trkpt>
      <trkpt lat="48.39663" lon="2.03098">
        <ele>95.8</ele>
        <time>2023-12-14T09:38:31Z</time>
      </trkpt>
      <trkpt lat="48.39657" lon="2.03095">
        <ele>95.6</ele>
        <time>2023-12-14T09:38:32Z</time>
      </trkpt>
      <trkpt lat="48.39651" lon="2.03091">
        <ele>95.6</ele>
        <time>2023-12-14T09:38:33Z</time>
      </trkpt>
      <trkpt lat="48.39645" lon="2.03086">
        <ele>95.6</ele>
        <time>2023-12-14T09:38:34Z</time>
      </trkpt>
      <trkpt lat="48.3964" lon="2.0308">
        <ele>94.6</ele>
        <time>2023-12-14T09:38:35Z</time>
      </trkpt>
      <trkpt lat="48.39634" lon="2.03075">
        <ele>93.2</ele>
        <time>2023-12-14T09:38:36Z</time>
      </trkpt>
      <trkpt lat="48.39627" lon="2.03071">
        <ele>93.2</ele>
        <time>2023-12-14T09:38:37Z</time>
      </trkpt>
      <trkpt lat="48.39621" lon="2.03066">
        <ele>93.2</ele>
        <time>2023-12-14T09:38:38Z</time>
      </trkpt>
      <trkpt lat="48.39615" lon="2.03061">
        <ele>93.2</ele>
        <time>2023-12-14T09:38:39Z</time>
      </trkpt>
      <trkpt lat="48.39608" lon="2.03055">
        <ele>93.4</ele>
        <time>2023-12-14T09:38:40Z</time>
      </trkpt>
      <trkpt lat="48.39602" lon="2.03049">
        <ele>93.4</ele>
        <time>2023-12-14T09:38:41Z</time>
      </trkpt>
      <trkpt lat="48.39596" lon="2.03044">
        <ele>93.4</ele>
        <time>2023-12-14T09:38:42Z</time>
      </trkpt>
      <trkpt lat="48.39591" lon="2.03038">
        <ele>93</ele>
        <time>2023-12-14T09:38:43Z</time>
      </trkpt>
      <trkpt lat="48.39585" lon="2.03032">
        <ele>92.8</ele>
        <time>2023-12-14T09:38:44Z</time>
      </trkpt>
      <trkpt lat="48.3958" lon="2.03026">
        <ele>92.8</ele>
        <time>2023-12-14T09:38:45Z</time>
      </trkpt>
      <trkpt lat="48.39576" lon="2.03018">
        <ele>92.8</ele>
        <time>2023-12-14T09:38:46Z</time>
      </trkpt>
      <trkpt lat="48.39571" lon="2.0301">
        <ele>93.2</ele>
        <time>2023-12-14T09:38:47Z</time>
      </trkpt>
      <trkpt lat="48.39568" lon="2.03002">
        <ele>93.2</ele>
        <time>2023-12-14T09:38:48Z</time>
      </trkpt>
      <trkpt lat="48.39564" lon="2.02994">
        <ele>93.2</ele>
        <time>2023-12-14T09:38:49Z</time>
      </trkpt>
      <trkpt lat="48.39561" lon="2.02986">
        <ele>93.2</ele>
        <time>2023-12-14T09:38:50Z</time>
      </trkpt>
      <trkpt lat="48.39558" lon="2.02978">
        <ele>93.2</ele>
        <time>2023-12-14T09:38:51Z</time>
      </trkpt>
      <trkpt lat="48.39556" lon="2.0297">
        <ele>93.2</ele>
        <time>2023-12-14T09:38:52Z</time>
      </trkpt>
      <trkpt lat="48.39554" lon="2.02963">
        <ele>93.2</ele>
        <time>2023-12-14T09:38:53Z</time>
      </trkpt>
      <trkpt lat="48.39551" lon="2.02956">
        <ele>93.2</ele>
        <time>2023-12-14T09:38:54Z</time>
      </trkpt>
      <trkpt lat="48.39548" lon="2.02948">
        <ele>93.2</ele>
        <time>2023-12-14T09:38:55Z</time>
      </trkpt>
      <trkpt lat="48.39545" lon="2.0294">
        <ele>92.6</ele>
        <time>2023-12-14T09:38:56Z</time>
      </trkpt>
      <trkpt lat="48.39542" lon="2.02931">
        <ele>92.6</ele>
        <time>2023-12-14T09:38:57Z</time>
      </trkpt>
      <trkpt lat="48.39538" lon="2.02923">
        <ele>92.6</ele>
        <time>2023-12-14T09:38:58Z</time>
      </trkpt>
      <trkpt lat="48.39535" lon="2.02914">
        <ele>92.6</ele>
        <time>2023-12-14T09:38:59Z</time>
      </trkpt>
      <trkpt lat="48.39532" lon="2.02906">
        <ele>93</ele>
        <time>2023-12-14T09:39:00Z</time>
      </trkpt>
      <trkpt lat="48.39529" lon="2.02898">
        <ele>93</ele>
        <time>2023-12-14T09:39:01Z</time>
      </trkpt>
      <trkpt lat="48.39526" lon="2.02889">
        <ele>93</ele>
        <time>2023-12-14T09:39:02Z</time>
      </trkpt>
      <trkpt lat="48.39523" lon="2.02881">
        <ele>93</ele>
        <time>2023-12-14T09:39:03Z</time>
      </trkpt>
      <trkpt lat="48.3952" lon="2.02873">
        <ele>93.2</ele>
        <time>2023-12-14T09:39:04Z</time>
      </trkpt>
      <trkpt lat="48.39518" lon="2.02865">
        <ele>93.2</ele>
        <time>2023-12-14T09:39:05Z</time>
      </trkpt>
      <trkpt lat="48.39514" lon="2.02858">
        <ele>93.2</ele>
        <time>2023-12-14T09:39:06Z</time>
      </trkpt>
      <trkpt lat="48.3951" lon="2.0285">
        <ele>93.2</ele>
        <time>2023-12-14T09:39:07Z</time>
      </trkpt>
      <trkpt lat="48.39507" lon="2.02842">
        <ele>92.8</ele>
        <time>2023-12-14T09:39:08Z</time>
      </trkpt>
      <trkpt lat="48.39502" lon="2.02834">
        <ele>92.8</ele>
        <time>2023-12-14T09:39:09Z</time>
      </trkpt>
      <trkpt lat="48.39498" lon="2.02827">
        <ele>92.8</ele>
        <time>2023-12-14T09:39:10Z</time>
      </trkpt>
      <trkpt lat="48.39494" lon="2.02819">
        <ele>93.2</ele>
        <time>2023-12-14T09:39:11Z</time>
      </trkpt>
      <trkpt lat="48.3949" lon="2.02811">
        <ele>93.2</ele>
        <time>2023-12-14T09:39:12Z</time>
      </trkpt>
      <trkpt lat="48.39486" lon="2.02803">
        <ele>93.2</ele>
        <time>2023-12-14T09:39:13Z</time>
      </trkpt>
      <trkpt lat="48.39483" lon="2.02795">
        <ele>93.2</ele>
        <time>2023-12-14T09:39:14Z</time>
      </trkpt>
      <trkpt lat="48.39479" lon="2.02787">
        <ele>93.2</ele>
        <time>2023-12-14T09:39:15Z</time>
      </trkpt>
      <trkpt lat="48.39475" lon="2.02779">
        <ele>93.6</ele>
        <time>2023-12-14T09:39:16Z</time>
      </trkpt>
      <trkpt lat="48.39471" lon="2.02771">
        <ele>93.6</ele>
        <time>2023-12-14T09:39:17Z</time>
      </trkpt>
      <trkpt lat="48.39468" lon="2.02764">
        <ele>93.6</ele>
        <time>2023-12-14T09:39:18Z</time>
      </trkpt>
      <trkpt lat="48.39464" lon="2.02756">
        <ele>93.6</ele>
        <time>2023-12-14T09:39:19Z</time>
      </trkpt>
      <trkpt lat="48.39461" lon="2.02748">
        <ele>93.4</ele>
        <time>2023-12-14T09:39:20Z</time>
      </trkpt>
      <trkpt lat="48.39457" lon="2.02741">
        <ele>93.4</ele>
        <time>2023-12-14T09:39:21Z</time>
      </trkpt>
      <trkpt lat="48.39453" lon="2.02734">
        <ele>93.4</ele>
        <time>2023-12-14T09:39:22Z</time>
      </trkpt>
      <trkpt lat="48.3945" lon="2.02726">
        <ele>93.8</ele>
        <time>2023-12-14T09:39:23Z</time>
      </trkpt>
      <trkpt lat="48.39446" lon="2.02719">
        <ele>93.6</ele>
        <time>2023-12-14T09:39:24Z</time>
      </trkpt>
      <trkpt lat="48.39443" lon="2.02711">
        <ele>93.6</ele>
        <time>2023-12-14T09:39:25Z</time>
      </trkpt>
      <trkpt lat="48.3944" lon="2.02704">
        <ele>93.6</ele>
        <time>2023-12-14T09:39:26Z</time>
      </trkpt>
      <trkpt lat="48.39436" lon="2.02696">
        <ele>94.2</ele>
        <time>2023-12-14T09:39:27Z</time>
      </trkpt>
      <trkpt lat="48.39433" lon="2.02689">
        <ele>94.4</ele>
        <time>2023-12-14T09:39:28Z</time>
      </trkpt>
      <trkpt lat="48.39429" lon="2.02681">
        <ele>94.4</ele>
        <time>2023-12-14T09:39:29Z</time>
      </trkpt>
      <trkpt lat="48.39426" lon="2.02673">
        <ele>94.4</ele>
        <time>2023-12-14T09:39:30Z</time>
      </trkpt>
      <trkpt lat="48.39422" lon="2.02665">
        <ele>94.8</ele>
        <time>2023-12-14T09:39:31Z</time>
      </trkpt>
      <trkpt lat="48.39419" lon="2.02657">
        <ele>95</ele>
        <time>2023-12-14T09:39:32Z</time>
      </trkpt>
      <trkpt lat="48.39415" lon="2.02649">
        <ele>95</ele>
        <time>2023-12-14T09:39:33Z</time>
      </trkpt>
      <trkpt lat="48.39411" lon="2.02642">
        <ele>95</ele>
        <time>2023-12-14T09:39:34Z</time>
      </trkpt>
      <trkpt lat="48.39408" lon="2.02635">
        <ele>95</ele>
        <time>2023-12-14T09:39:35Z</time>
      </trkpt>
      <trkpt lat="48.39405" lon="2.02628">
        <ele>95.8</ele>
        <time>2023-12-14T09:39:36Z</time>
      </trkpt>
      <trkpt lat="48.39402" lon="2.02621">
        <ele>95.8</ele>
        <time>2023-12-14T09:39:37Z</time>
      </trkpt>
      <trkpt lat="48.39398" lon="2.02614">
        <ele>95.8</ele>
        <time>2023-12-14T09:39:38Z</time>
      </trkpt>
      <trkpt lat="48.39395" lon="2.02607">
        <ele>95.8</ele>
        <time>2023-12-14T09:39:39Z</time>
      </trkpt>
      <trkpt lat="48.39392" lon="2.026">
        <ele>96</ele>
        <time>2023-12-14T09:39:40Z</time>
      </trkpt>
      <trkpt lat="48.39389" lon="2.02593">
        <ele>96</ele>
        <time>2023-12-14T09:39:41Z</time>
      </trkpt>
      <trkpt lat="48.39386" lon="2.02587">
        <ele>96</ele>
        <time>2023-12-14T09:39:42Z</time>
      </trkpt>
      <trkpt lat="48.39382" lon="2.02582">
        <ele>97</ele>
        <time>2023-12-14T09:39:43Z</time>
      </trkpt>
      <trkpt lat="48.39379" lon="2.02576">
        <ele>96.8</ele>
        <time>2023-12-14T09:39:44Z</time>
      </trkpt>
      <trkpt lat="48.39375" lon="2.02571">
        <ele>96.8</ele>
        <time>2023-12-14T09:39:45Z</time>
      </trkpt>
      <trkpt lat="48.39371" lon="2.02567">
        <ele>96.8</ele>
        <time>2023-12-14T09:39:46Z</time>
      </trkpt>
      <trkpt lat="48.39366" lon="2.02564">
        <ele>97.2</ele>
        <time>2023-12-14T09:39:47Z</time>
      </trkpt>
      <trkpt lat="48.39362" lon="2.02562">
        <ele>97.8</ele>
        <time>2023-12-14T09:39:48Z</time>
      </trkpt>
      <trkpt lat="48.39357" lon="2.0256">
        <ele>97.8</ele>
        <time>2023-12-14T09:39:49Z</time>
      </trkpt>
      <trkpt lat="48.39353" lon="2.02559">
        <ele>97.8</ele>
        <time>2023-12-14T09:39:50Z</time>
      </trkpt>
      <trkpt lat="48.39348" lon="2.02558">
        <ele>97.8</ele>
        <time>2023-12-14T09:39:51Z</time>
      </trkpt>
      <trkpt lat="48.39343" lon="2.02557">
        <ele>97.8</ele>
        <time>2023-12-14T09:39:52Z</time>
      </trkpt>
      <trkpt lat="48.39339" lon="2.02556">
        <ele>97.8</ele>
        <time>2023-12-14T09:39:53Z</time>
      </trkpt>
      <trkpt lat="48.39334" lon="2.02556">
        <ele>97.8</ele>
        <time>2023-12-14T09:39:54Z</time>
      </trkpt>
      <trkpt lat="48.39329" lon="2.02556">
        <ele>98.4</ele>
        <time>2023-12-14T09:39:55Z</time>
      </trkpt>
      <trkpt lat="48.39325" lon="2.02557">
        <ele>98.8</ele>
        <time>2023-12-14T09:39:56Z</time>
      </trkpt>
      <trkpt lat="48.3932" lon="2.02558">
        <ele>98.8</ele>
        <time>2023-12-14T09:39:57Z</time>
      </trkpt>
      <trkpt lat="48.39316" lon="2.02559">
        <ele>98.8</ele>
        <time>2023-12-14T09:39:58Z</time>
      </trkpt>
      <trkpt lat="48.39311" lon="2.02561">
        <ele>99.8</ele>
        <time>2023-12-14T09:39:59Z</time>
      </trkpt>
      <trkpt lat="48.39307" lon="2.02563">
        <ele>99.8</ele>
        <time>2023-12-14T09:40:00Z</time>
      </trkpt>
      <trkpt lat="48.39302" lon="2.02566">
        <ele>99.8</ele>
        <time>2023-12-14T09:40:01Z</time>
      </trkpt>
      <trkpt lat="48.39298" lon="2.02569">
        <ele>99.8</ele>
        <time>2023-12-14T09:40:02Z</time>
      </trkpt>
      <trkpt lat="48.39294" lon="2.02572">
        <ele>99.8</ele>
        <time>2023-12-14T09:40:03Z</time>
      </trkpt>
      <trkpt lat="48.39289" lon="2.02575">
        <ele>99.4</ele>
        <time>2023-12-14T09:40:04Z</time>
      </trkpt>
      <trkpt lat="48.39285" lon="2.02579">
        <ele>99.4</ele>
        <time>2023-12-14T09:40:05Z</time>
      </trkpt>
      <trkpt lat="48.39282" lon="2.02583">
        <ele>99.4</ele>
        <time>2023-12-14T09:40:06Z</time>
      </trkpt>
      <trkpt lat="48.39278" lon="2.02586">
        <ele>99.6</ele>
        <time>2023-12-14T09:40:07Z</time>
      </trkpt>
      <trkpt lat="48.39274" lon="2.0259">
        <ele>99.2</ele>
        <time>2023-12-14T09:40:08Z</time>
      </trkpt>
      <trkpt lat="48.39271" lon="2.02595">
        <ele>99.2</ele>
        <time>2023-12-14T09:40:09Z</time>
      </trkpt>
      <trkpt lat="48.39267" lon="2.026">
        <ele>99.2</ele>
        <time>2023-12-14T09:40:10Z</time>
      </trkpt>
      <trkpt lat="48.39263" lon="2.02605">
        <ele>98.2</ele>
        <time>2023-12-14T09:40:11Z</time>
      </trkpt>
      <trkpt lat="48.39258" lon="2.02611">
        <ele>97.6</ele>
        <time>2023-12-14T09:40:12Z</time>
      </trkpt>
      <trkpt lat="48.39253" lon="2.02618">
        <ele>97.6</ele>
        <time>2023-12-14T09:40:13Z</time>
      </trkpt>
      <trkpt lat="48.39249" lon="2.02625">
        <ele>97.6</ele>
        <time>2023-12-14T09:40:14Z</time>
      </trkpt>
      <trkpt lat="48.39244" lon="2.02632">
        <ele>96.6</ele>
        <time>2023-12-14T09:40:15Z</time>
      </trkpt>
      <trkpt lat="48.39239" lon="2.02639">
        <ele>95.4</ele>
        <time>2023-12-14T09:40:16Z</time>
      </trkpt>
      <trkpt lat="48.39234" lon="2.02647">
        <ele>95.4</ele>
        <time>2023-12-14T09:40:17Z</time>
      </trkpt>
      <trkpt lat="48.39229" lon="2.02654">
        <ele>95.4</ele>
        <time>2023-12-14T09:40:18Z</time>
      </trkpt>
      <trkpt lat="48.39223" lon="2.02661">
        <ele>95.4</ele>
        <time>2023-12-14T09:40:19Z</time>
      </trkpt>
      <trkpt lat="48.39218" lon="2.02667">
        <ele>94.4</ele>
        <time>2023-12-14T09:40:20Z</time>
      </trkpt>
      <trkpt lat="48.39212" lon="2.02672">
        <ele>94.4</ele>
        <time>2023-12-14T09:40:21Z</time>
      </trkpt>
      <trkpt lat="48.39205" lon="2.02676">
        <ele>94.4</ele>
        <time>2023-12-14T09:40:22Z</time>
      </trkpt>
      <trkpt lat="48.39199" lon="2.02679">
        <ele>95</ele>
        <time>2023-12-14T09:40:23Z</time>
      </trkpt>
      <trkpt lat="48.39193" lon="2.02683">
        <ele>95.2</ele>
        <time>2023-12-14T09:40:24Z</time>
      </trkpt>
      <trkpt lat="48.39188" lon="2.02687">
        <ele>95.2</ele>
        <time>2023-12-14T09:40:25Z</time>
      </trkpt>
      <trkpt lat="48.39182" lon="2.0269">
        <ele>95.2</ele>
        <time>2023-12-14T09:40:26Z</time>
      </trkpt>
      <trkpt lat="48.39177" lon="2.02694">
        <ele>95.2</ele>
        <time>2023-12-14T09:40:27Z</time>
      </trkpt>
      <trkpt lat="48.39173" lon="2.02699">
        <ele>95.6</ele>
        <time>2023-12-14T09:40:28Z</time>
      </trkpt>
      <trkpt lat="48.3917" lon="2.02706">
        <ele>95.6</ele>
        <time>2023-12-14T09:40:29Z</time>
      </trkpt>
      <trkpt lat="48.39169" lon="2.02714">
        <ele>95.6</ele>
        <time>2023-12-14T09:40:30Z</time>
      </trkpt>
      <trkpt lat="48.3917" lon="2.02723">
        <ele>94.8</ele>
        <time>2023-12-14T09:40:31Z</time>
      </trkpt>
      <trkpt lat="48.3917" lon="2.02732">
        <ele>95.2</ele>
        <time>2023-12-14T09:40:32Z</time>
      </trkpt>
      <trkpt lat="48.39171" lon="2.0274">
        <ele>95.2</ele>
        <time>2023-12-14T09:40:33Z</time>
      </trkpt>
      <trkpt lat="48.39172" lon="2.02748">
        <ele>95.2</ele>
        <time>2023-12-14T09:40:34Z</time>
      </trkpt>
      <trkpt lat="48.39174" lon="2.02755">
        <ele>95.2</ele>
        <time>2023-12-14T09:40:35Z</time>
      </trkpt>
      <trkpt lat="48.39176" lon="2.0276">
        <ele>96</ele>
        <time>2023-12-14T09:40:36Z</time>
      </trkpt>
      <trkpt lat="48.39178" lon="2.02765">
        <ele>96</ele>
        <time>2023-12-14T09:40:37Z</time>
      </trkpt>
      <trkpt lat="48.3918" lon="2.02771">
        <ele>96</ele>
        <time>2023-12-14T09:40:38Z</time>
      </trkpt>
      <trkpt lat="48.39182" lon="2.02776">
        <ele>96</ele>
        <time>2023-12-14T09:40:39Z</time>
      </trkpt>
      <trkpt lat="48.39184" lon="2.02782">
        <ele>96.2</ele>
        <time>2023-12-14T09:40:40Z</time>
      </trkpt>
      <trkpt lat="48.39185" lon="2.02788">
        <ele>96.2</ele>
        <time>2023-12-14T09:40:41Z</time>
      </trkpt>
      <trkpt lat="48.39186" lon="2.02793">
        <ele>96.2</ele>
        <time>2023-12-14T09:40:42Z</time>
      </trkpt>
      <trkpt lat="48.39187" lon="2.02799">
        <ele>95.6</ele>
        <time>2023-12-14T09:40:43Z</time>
      </trkpt>
      <trkpt lat="48.39189" lon="2.02804">
        <ele>96</ele>
        <time>2023-12-14T09:40:44Z</time>
      </trkpt>
      <trkpt lat="48.3919" lon="2.02809">
        <ele>96</ele>
        <time>2023-12-14T09:40:45Z</time>
      </trkpt>
      <trkpt lat="48.39191" lon="2.02814">
        <ele>96</ele>
        <time>2023-12-14T09:40:46Z</time>
      </trkpt>
      <trkpt lat="48.39192" lon="2.02819">
        <ele>96</ele>
        <time>2023-12-14T09:40:47Z</time>
      </trkpt>
      <trkpt lat="48.39193" lon="2.02823">
        <ele>96</ele>
        <time>2023-12-14T09:40:48Z</time>
      </trkpt>
      <trkpt lat="48.39194" lon="2.02827">
        <ele>96</ele>
        <time>2023-12-14T09:40:49Z</time>
      </trkpt>
      <trkpt lat="48.39195" lon="2.02831">
        <ele>96</ele>
        <time>2023-12-14T09:40:50Z</time>
      </trkpt>
      <trkpt lat="48.39196" lon="2.02835">
        <ele>96.6</ele>
        <time>2023-12-14T09:40:51Z</time>
      </trkpt>
      <trkpt lat="48.39197" lon="2.02838">
        <ele>96.4</ele>
        <time>2023-12-14T09:40:52Z</time>
      </trkpt>
      <trkpt lat="48.39197" lon="2.02839">
        <ele>96.4</ele>
        <time>2023-12-14T09:40:53Z</time>
      </trkpt>
      <trkpt lat="48.39197" lon="2.02839">
        <ele>96.4</ele>
        <time>2023-12-14T09:40:54Z</time>
      </trkpt>
      <trkpt lat="48.39197" lon="2.02839">
        <ele>96.4</ele>
        <time>2023-12-14T09:40:55Z</time>
      </trkpt>
      <trkpt lat="48.39197" lon="2.02838">
        <ele>95.4</ele>
        <time>2023-12-14T09:47:15Z</time>
      </trkpt>
      <trkpt lat="48.39196" lon="2.02835">
        <ele>95.6</ele>
        <time>2023-12-14T09:47:16Z</time>
      </trkpt>
      <trkpt lat="48.39196" lon="2.02831">
        <ele>95.6</ele>
        <time>2023-12-14T09:47:17Z</time>
      </trkpt>
      <trkpt lat="48.39195" lon="2.02828">
        <ele>95.6</ele>
        <time>2023-12-14T09:47:18Z</time>
      </trkpt>
      <trkpt lat="48.39194" lon="2.02824">
        <ele>95.6</ele>
        <time>2023-12-14T09:47:19Z</time>
      </trkpt>
      <trkpt lat="48.39193" lon="2.0282">
        <ele>95</ele>
        <time>2023-12-14T09:47:20Z</time>
      </trkpt>
      <trkpt lat="48.39192" lon="2.02817">
        <ele>95</ele>
        <time>2023-12-14T09:47:21Z</time>
      </trkpt>
      <trkpt lat="48.39191" lon="2.02813">
        <ele>95</ele>
        <time>2023-12-14T09:47:22Z</time>
      </trkpt>
      <trkpt lat="48.3919" lon="2.02809">
        <ele>95</ele>
        <time>2023-12-14T09:47:23Z</time>
      </trkpt>
      <trkpt lat="48.39189" lon="2.02805">
        <ele>94.8</ele>
        <time>2023-12-14T09:47:24Z</time>
      </trkpt>
      <trkpt lat="48.39188" lon="2.028">
        <ele>94.8</ele>
        <time>2023-12-14T09:47:25Z</time>
      </trkpt>
      <trkpt lat="48.39187" lon="2.02796">
        <ele>94.8</ele>
        <time>2023-12-14T09:47:26Z</time>
      </trkpt>
      <trkpt lat="48.39186" lon="2.02792">
        <ele>94.8</ele>
        <time>2023-12-14T09:47:27Z</time>
      </trkpt>
      <trkpt lat="48.39185" lon="2.02788">
        <ele>95</ele>
        <time>2023-12-14T09:47:28Z</time>
      </trkpt>
      <trkpt lat="48.39183" lon="2.02784">
        <ele>95</ele>
        <time>2023-12-14T09:47:29Z</time>
      </trkpt>
      <trkpt lat="48.39182" lon="2.0278">
        <ele>95</ele>
        <time>2023-12-14T09:47:30Z</time>
      </trkpt>
      <trkpt lat="48.39181" lon="2.02776">
        <ele>95</ele>
        <time>2023-12-14T09:47:31Z</time>
      </trkpt>
      <trkpt lat="48.3918" lon="2.02772">
        <ele>94.8</ele>
        <time>2023-12-14T09:47:32Z</time>
      </trkpt>
      <trkpt lat="48.39178" lon="2.02769">
        <ele>94.8</ele>
        <time>2023-12-14T09:47:33Z</time>
      </trkpt>
      <trkpt lat="48.39178" lon="2.02765">
        <ele>94.8</ele>
        <time>2023-12-14T09:47:34Z</time>
      </trkpt>
      <trkpt lat="48.39177" lon="2.02761">
        <ele>94.6</ele>
        <time>2023-12-14T09:47:35Z</time>
      </trkpt>
      <trkpt lat="48.39176" lon="2.02756">
        <ele>94</ele>
        <time>2023-12-14T09:47:36Z</time>
      </trkpt>
      <trkpt lat="48.39175" lon="2.02751">
        <ele>94</ele>
        <time>2023-12-14T09:47:37Z</time>
      </trkpt>
      <trkpt lat="48.39173" lon="2.02746">
        <ele>94</ele>
        <time>2023-12-14T09:47:38Z</time>
      </trkpt>
      <trkpt lat="48.39173" lon="2.02741">
        <ele>93.6</ele>
        <time>2023-12-14T09:47:39Z</time>
      </trkpt>
      <trkpt lat="48.39172" lon="2.02735">
        <ele>93.4</ele>
        <time>2023-12-14T09:47:40Z</time>
      </trkpt>
      <trkpt lat="48.39172" lon="2.02729">
        <ele>93.4</ele>
        <time>2023-12-14T09:47:41Z</time>
      </trkpt>
      <trkpt lat="48.39172" lon="2.02724">
        <ele>93.4</ele>
        <time>2023-12-14T09:47:42Z</time>
      </trkpt>
      <trkpt lat="48.39172" lon="2.02719">
        <ele>94.4</ele>
        <time>2023-12-14T09:47:43Z</time>
      </trkpt>
      <trkpt lat="48.39172" lon="2.02714">
        <ele>94.6</ele>
        <time>2023-12-14T09:47:44Z</time>
      </trkpt>
      <trkpt lat="48.39173" lon="2.0271">
        <ele>94.6</ele>
        <time>2023-12-14T09:47:45Z</time>
      </trkpt>
      <trkpt lat="48.39174" lon="2.02707">
        <ele>94.6</ele>
        <time>2023-12-14T09:47:46Z</time>
      </trkpt>
      <trkpt lat="48.39176" lon="2.02704">
        <ele>94.6</ele>
        <time>2023-12-14T09:47:47Z</time>
      </trkpt>
      <trkpt lat="48.39178" lon="2.02701">
        <ele>94.2</ele>
        <time>2023-12-14T09:47:48Z</time>
      </trkpt>
      <trkpt lat="48.39181" lon="2.02699">
        <ele>94.2</ele>
        <time>2023-12-14T09:47:49Z</time>
      </trkpt>
      <trkpt lat="48.39184" lon="2.02696">
        <ele>94.2</ele>
        <time>2023-12-14T09:47:50Z</time>
      </trkpt>
      <trkpt lat="48.39186" lon="2.02694">
        <ele>94.2</ele>
        <time>2023-12-14T09:47:51Z</time>
      </trkpt>
      <trkpt lat="48.39189" lon="2.02692">
        <ele>94.4</ele>
        <time>2023-12-14T09:47:52Z</time>
      </trkpt>
      <trkpt lat="48.39192" lon="2.0269">
        <ele>94.4</ele>
        <time>2023-12-14T09:47:53Z</time>
      </trkpt>
      <trkpt lat="48.39195" lon="2.02687">
        <ele>94.4</ele>
        <time>2023-12-14T09:47:54Z</time>
      </trkpt>
      <trkpt lat="48.39198" lon="2.02685">
        <ele>94.4</ele>
        <time>2023-12-14T09:47:55Z</time>
      </trkpt>
      <trkpt lat="48.39201" lon="2.02682">
        <ele>94.2</ele>
        <time>2023-12-14T09:47:56Z</time>
      </trkpt>
      <trkpt lat="48.39205" lon="2.02679">
        <ele>94.2</ele>
        <time>2023-12-14T09:47:57Z</time>
      </trkpt>
      <trkpt lat="48.39208" lon="2.02677">
        <ele>94.2</ele>
        <time>2023-12-14T09:47:58Z</time>
      </trkpt>
      <trkpt lat="48.39211" lon="2.02675">
        <ele>94.2</ele>
        <time>2023-12-14T09:47:59Z</time>
      </trkpt>
      <trkpt lat="48.39213" lon="2.02672">
        <ele>95.2</ele>
        <time>2023-12-14T09:48:00Z</time>
      </trkpt>
      <trkpt lat="48.39216" lon="2.02669">
        <ele>95.2</ele>
        <time>2023-12-14T09:48:01Z</time>
      </trkpt>
      <trkpt lat="48.39219" lon="2.02666">
        <ele>95.2</ele>
        <time>2023-12-14T09:48:02Z</time>
      </trkpt>
      <trkpt lat="48.39222" lon="2.02663">
        <ele>95.6</ele>
        <time>2023-12-14T09:48:03Z</time>
      </trkpt>
      <trkpt lat="48.39225" lon="2.02659">
        <ele>94.6</ele>
        <time>2023-12-14T09:48:04Z</time>
      </trkpt>
      <trkpt lat="48.39227" lon="2.02656">
        <ele>94.6</ele>
        <time>2023-12-14T09:48:05Z</time>
      </trkpt>
      <trkpt lat="48.3923" lon="2.02653">
        <ele>94.6</ele>
        <time>2023-12-14T09:48:06Z</time>
      </trkpt>
      <trkpt lat="48.39233" lon="2.0265">
        <ele>95.6</ele>
        <time>2023-12-14T09:48:07Z</time>
      </trkpt>
      <trkpt lat="48.39235" lon="2.02646">
        <ele>95.8</ele>
        <time>2023-12-14T09:48:08Z</time>
      </trkpt>
      <trkpt lat="48.39238" lon="2.02643">
        <ele>95.8</ele>
        <time>2023-12-14T09:48:09Z</time>
      </trkpt>
      <trkpt lat="48.3924" lon="2.02639">
        <ele>95.8</ele>
        <time>2023-12-14T09:48:10Z</time>
      </trkpt>
      <trkpt lat="48.39243" lon="2.02635">
        <ele>95.8</ele>
        <time>2023-12-14T09:48:11Z</time>
      </trkpt>
      <trkpt lat="48.39245" lon="2.02632">
        <ele>95.6</ele>
        <time>2023-12-14T09:48:12Z</time>
      </trkpt>
      <trkpt lat="48.39247" lon="2.02629">
        <ele>95.6</ele>
        <time>2023-12-14T09:48:13Z</time>
      </trkpt>
      <trkpt lat="48.3925" lon="2.02625">
        <ele>95.6</ele>
        <time>2023-12-14T09:48:14Z</time>
      </trkpt>
      <trkpt lat="48.39252" lon="2.02622">
        <ele>96.2</ele>
        <time>2023-12-14T09:48:15Z</time>
      </trkpt>
      <trkpt lat="48.39255" lon="2.02619">
        <ele>96.2</ele>
        <time>2023-12-14T09:48:16Z</time>
      </trkpt>
      <trkpt lat="48.39257" lon="2.02615">
        <ele>96.2</ele>
        <time>2023-12-14T09:48:17Z</time>
      </trkpt>
      <trkpt lat="48.39258" lon="2.02612">
        <ele>96.2</ele>
        <time>2023-12-14T09:48:18Z</time>
      </trkpt>
      <trkpt lat="48.39259" lon="2.02608">
        <ele>97.2</ele>
        <time>2023-12-14T09:48:19Z</time>
      </trkpt>
      <trkpt lat="48.39258" lon="2.02605">
        <ele>98.8</ele>
        <time>2023-12-14T09:48:20Z</time>
      </trkpt>
      <trkpt lat="48.39257" lon="2.02603">
        <ele>98.8</ele>
        <time>2023-12-14T09:48:21Z</time>
      </trkpt>
      <trkpt lat="48.39255" lon="2.02602">
        <ele>98.8</ele>
        <time>2023-12-14T09:48:22Z</time>
      </trkpt>
      <trkpt lat="48.39252" lon="2.02603">
        <ele>98.8</ele>
        <time>2023-12-14T09:48:23Z</time>
      </trkpt>
      <trkpt lat="48.39249" lon="2.02604">
        <ele>99</ele>
        <time>2023-12-14T09:48:24Z</time>
      </trkpt>
      <trkpt lat="48.39246" lon="2.02604">
        <ele>99</ele>
        <time>2023-12-14T09:48:25Z</time>
      </trkpt>
      <trkpt lat="48.39243" lon="2.02605">
        <ele>99</ele>
        <time>2023-12-14T09:48:26Z</time>
      </trkpt>
      <trkpt lat="48.39239" lon="2.02604">
        <ele>99</ele>
        <time>2023-12-14T09:48:27Z</time>
      </trkpt>
      <trkpt lat="48.39236" lon="2.02604">
        <ele>99.2</ele>
        <time>2023-12-14T09:48:28Z</time>
      </trkpt>
      <trkpt lat="48.39233" lon="2.02603">
        <ele>99.2</ele>
        <time>2023-12-14T09:48:29Z</time>
      </trkpt>
      <trkpt lat="48.3923" lon="2.02603">
        <ele>99.2</ele>
        <time>2023-12-14T09:48:30Z</time>
      </trkpt>
      <trkpt lat="48.39227" lon="2.02603">
        <ele>99.6</ele>
        <time>2023-12-14T09:48:31Z</time>
      </trkpt>
      <trkpt lat="48.39223" lon="2.02603">
        <ele>99.4</ele>
        <time>2023-12-14T09:48:32Z</time>
      </trkpt>
      <trkpt lat="48.3922" lon="2.02602">
        <ele>99.4</ele>
        <time>2023-12-14T09:48:33Z</time>
      </trkpt>
      <trkpt lat="48.39217" lon="2.02602">
        <ele>99.4</ele>
        <time>2023-12-14T09:48:34Z</time>
      </trkpt>
      <trkpt lat="48.39214" lon="2.02602">
        <ele>100</ele>
        <time>2023-12-14T09:48:35Z</time>
      </trkpt>
      <trkpt lat="48.39211" lon="2.02602">
        <ele>100.4</ele>
        <time>2023-12-14T09:48:36Z</time>
      </trkpt>
      <trkpt lat="48.39208" lon="2.02601">
        <ele>100.4</ele>
        <time>2023-12-14T09:48:37Z</time>
      </trkpt>
      <trkpt lat="48.39205" lon="2.02601">
        <ele>100.4</ele>
        <time>2023-12-14T09:48:38Z</time>
      </trkpt>
      <trkpt lat="48.39202" lon="2.02601">
        <ele>100.4</ele>
        <time>2023-12-14T09:48:39Z</time>
      </trkpt>
      <trkpt lat="48.39199" lon="2.02601">
        <ele>100.8</ele>
        <time>2023-12-14T09:48:40Z</time>
      </trkpt>
      <trkpt lat="48.39196" lon="2.02601">
        <ele>100.8</ele>
        <time>2023-12-14T09:48:41Z</time>
      </trkpt>
      <trkpt lat="48.39193" lon="2.026">
        <ele>100.8</ele>
        <time>2023-12-14T09:48:42Z</time>
      </trkpt>
      <trkpt lat="48.3919" lon="2.02601">
        <ele>101.4</ele>
        <time>2023-12-14T09:48:43Z</time>
      </trkpt>
      <trkpt lat="48.39187" lon="2.02601">
        <ele>101.4</ele>
        <time>2023-12-14T09:48:44Z</time>
      </trkpt>
      <trkpt lat="48.39184" lon="2.02603">
        <ele>101.4</ele>
        <time>2023-12-14T09:48:45Z</time>
      </trkpt>
      <trkpt lat="48.39181" lon="2.02604">
        <ele>101.4</ele>
        <time>2023-12-14T09:48:46Z</time>
      </trkpt>
      <trkpt lat="48.39178" lon="2.02605">
        <ele>101.4</ele>
        <time>2023-12-14T09:48:47Z</time>
      </trkpt>
      <trkpt lat="48.39175" lon="2.02606">
        <ele>102.4</ele>
        <time>2023-12-14T09:48:48Z</time>
      </trkpt>
      <trkpt lat="48.39172" lon="2.02607">
        <ele>102.4</ele>
        <time>2023-12-14T09:48:49Z</time>
      </trkpt>
      <trkpt lat="48.3917" lon="2.02608">
        <ele>102.4</ele>
        <time>2023-12-14T09:48:50Z</time>
      </trkpt>
      <trkpt lat="48.39167" lon="2.0261">
        <ele>102.4</ele>
        <time>2023-12-14T09:48:51Z</time>
      </trkpt>
      <trkpt lat="48.39164" lon="2.02612">
        <ele>103</ele>
        <time>2023-12-14T09:48:52Z</time>
      </trkpt>
      <trkpt lat="48.39161" lon="2.02613">
        <ele>103</ele>
        <time>2023-12-14T09:48:53Z</time>
      </trkpt>
      <trkpt lat="48.39158" lon="2.02615">
        <ele>103</ele>
        <time>2023-12-14T09:48:54Z</time>
      </trkpt>
      <trkpt lat="48.39156" lon="2.02616">
        <ele>103</ele>
        <time>2023-12-14T09:48:55Z</time>
      </trkpt>
      <trkpt lat="48.39153" lon="2.02618">
        <ele>103.2</ele>
        <time>2023-12-14T09:48:56Z</time>
      </trkpt>
      <trkpt lat="48.3915" lon="2.0262">
        <ele>103.2</ele>
        <time>2023-12-14T09:48:57Z</time>
      </trkpt>
      <trkpt lat="48.39148" lon="2.02621">
        <ele>103.2</ele>
        <time>2023-12-14T09:48:58Z</time>
      </trkpt>
      <trkpt lat="48.39145" lon="2.02622">
        <ele>104.2</ele>
        <time>2023-12-14T09:48:59Z</time>
      </trkpt>
      <trkpt lat="48.39142" lon="2.02624">
        <ele>104.4</ele>
        <time>2023-12-14T09:49:00Z</time>
      </trkpt>
      <trkpt lat="48.39139" lon="2.02625">
        <ele>104.4</ele>
        <time>2023-12-14T09:49:01Z</time>
      </trkpt>
      <trkpt lat="48.39136" lon="2.02626">
        <ele>104.4</ele>
        <time>2023-12-14T09:49:02Z</time>
      </trkpt>
      <trkpt lat="48.39134" lon="2.02627">
        <ele>104.4</ele>
        <time>2023-12-14T09:49:03Z</time>
      </trkpt>
      <trkpt lat="48.39131" lon="2.02628">
        <ele>105.2</ele>
        <time>2023-12-14T09:49:04Z</time>
      </trkpt>
      <trkpt lat="48.39128" lon="2.02629">
        <ele>105.2</ele>
        <time>2023-12-14T09:49:05Z</time>
      </trkpt>
      <trkpt lat="48.39125" lon="2.0263">
        <ele>105.2</ele>
        <time>2023-12-14T09:49:06Z</time>
      </trkpt>
      <trkpt lat="48.39123" lon="2.0263">
        <ele>105.8</ele>
        <time>2023-12-14T09:49:07Z</time>
      </trkpt>
      <trkpt lat="48.3912" lon="2.02631">
        <ele>106.2</ele>
        <time>2023-12-14T09:49:08Z</time>
      </trkpt>
      <trkpt lat="48.39117" lon="2.02631">
        <ele>106.2</ele>
        <time>2023-12-14T09:49:09Z</time>
      </trkpt>
      <trkpt lat="48.39114" lon="2.02631">
        <ele>106.2</ele>
        <time>2023-12-14T09:49:10Z</time>
      </trkpt>
      <trkpt lat="48.39112" lon="2.02631">
        <ele>106.2</ele>
        <time>2023-12-14T09:49:11Z</time>
      </trkpt>
      <trkpt lat="48.39109" lon="2.02632">
        <ele>106.8</ele>
        <time>2023-12-14T09:49:12Z</time>
      </trkpt>
      <trkpt lat="48.39106" lon="2.02632">
        <ele>106.8</ele>
        <time>2023-12-14T09:49:13Z</time>
      </trkpt>
      <trkpt lat="48.39103" lon="2.02632">
        <ele>106.8</ele>
        <time>2023-12-14T09:49:14Z</time>
      </trkpt>
      <trkpt lat="48.391" lon="2.02631">
        <ele>107.6</ele>
        <time>2023-12-14T09:49:15Z</time>
      </trkpt>
      <trkpt lat="48.39097" lon="2.0263">
        <ele>107.6</ele>
        <time>2023-12-14T09:49:16Z</time>
      </trkpt>
      <trkpt lat="48.39094" lon="2.0263">
        <ele>107.6</ele>
        <time>2023-12-14T09:49:17Z</time>
      </trkpt>
      <trkpt lat="48.39092" lon="2.02629">
        <ele>107.6</ele>
        <time>2023-12-14T09:49:18Z</time>
      </trkpt>
      <trkpt lat="48.39089" lon="2.02629">
        <ele>108</ele>
        <time>2023-12-14T09:49:19Z</time>
      </trkpt>
      <trkpt lat="48.39086" lon="2.02628">
        <ele>108</ele>
        <time>2023-12-14T09:49:20Z</time>
      </trkpt>
      <trkpt lat="48.39083" lon="2.02627">
        <ele>108</ele>
        <time>2023-12-14T09:49:21Z</time>
      </trkpt>
      <trkpt lat="48.39081" lon="2.02626">
        <ele>108</ele>
        <time>2023-12-14T09:49:22Z</time>
      </trkpt>
      <trkpt lat="48.39078" lon="2.02624">
        <ele>108.8</ele>
        <time>2023-12-14T09:49:23Z</time>
      </trkpt>
      <trkpt lat="48.39075" lon="2.02623">
        <ele>109</ele>
        <time>2023-12-14T09:49:24Z</time>
      </trkpt>
      <trkpt lat="48.39072" lon="2.02622">
        <ele>109</ele>
        <time>2023-12-14T09:49:25Z</time>
      </trkpt>
      <trkpt lat="48.39069" lon="2.0262">
        <ele>109</ele>
        <time>2023-12-14T09:49:26Z</time>
      </trkpt>
      <trkpt lat="48.39067" lon="2.02618">
        <ele>109</ele>
        <time>2023-12-14T09:49:27Z</time>
      </trkpt>
      <trkpt lat="48.39064" lon="2.02615">
        <ele>109.4</ele>
        <time>2023-12-14T09:49:28Z</time>
      </trkpt>
      <trkpt lat="48.39061" lon="2.02613">
        <ele>109.4</ele>
        <time>2023-12-14T09:49:29Z</time>
      </trkpt>
      <trkpt lat="48.39058" lon="2.02611">
        <ele>109.4</ele>
        <time>2023-12-14T09:49:30Z</time>
      </trkpt>
      <trkpt lat="48.39056" lon="2.02608">
        <ele>109.8</ele>
        <time>2023-12-14T09:49:31Z</time>
      </trkpt>
      <trkpt lat="48.39053" lon="2.02605">
        <ele>110.2</ele>
        <time>2023-12-14T09:49:32Z</time>
      </trkpt>
      <trkpt lat="48.39051" lon="2.02602">
        <ele>110.2</ele>
        <time>2023-12-14T09:49:33Z</time>
      </trkpt>
      <trkpt lat="48.39049" lon="2.02599">
        <ele>110.2</ele>
        <time>2023-12-14T09:49:34Z</time>
      </trkpt>
      <trkpt lat="48.39047" lon="2.02596">
        <ele>110.8</ele>
        <time>2023-12-14T09:49:35Z</time>
      </trkpt>
      <trkpt lat="48.39045" lon="2.02593">
        <ele>111</ele>
        <time>2023-12-14T09:49:36Z</time>
      </trkpt>
      <trkpt lat="48.39043" lon="2.0259">
        <ele>111</ele>
        <time>2023-12-14T09:49:37Z</time>
      </trkpt>
      <trkpt lat="48.39041" lon="2.02586">
        <ele>111</ele>
        <time>2023-12-14T09:49:38Z</time>
      </trkpt>
      <trkpt lat="48.39039" lon="2.02582">
        <ele>111.8</ele>
        <time>2023-12-14T09:49:39Z</time>
      </trkpt>
      <trkpt lat="48.39037" lon="2.02579">
        <ele>111.8</ele>
        <time>2023-12-14T09:49:40Z</time>
      </trkpt>
      <trkpt lat="48.39035" lon="2.02575">
        <ele>111.8</ele>
        <time>2023-12-14T09:49:41Z</time>
      </trkpt>
      <trkpt lat="48.39033" lon="2.02572">
        <ele>111.8</ele>
        <time>2023-12-14T09:49:42Z</time>
      </trkpt>
      <trkpt lat="48.39032" lon="2.02568">
        <ele>111.8</ele>
        <time>2023-12-14T09:49:43Z</time>
      </trkpt>
      <trkpt lat="48.39029" lon="2.02565">
        <ele>112</ele>
        <time>2023-12-14T09:49:44Z</time>
      </trkpt>
      <trkpt lat="48.39027" lon="2.02561">
        <ele>112</ele>
        <time>2023-12-14T09:49:45Z</time>
      </trkpt>
      <trkpt lat="48.39026" lon="2.02558">
        <ele>112</ele>
        <time>2023-12-14T09:49:46Z</time>
      </trkpt>
      <trkpt lat="48.39023" lon="2.02555">
        <ele>112.6</ele>
        <time>2023-12-14T09:49:47Z</time>
      </trkpt>
      <trkpt lat="48.39022" lon="2.02551">
        <ele>112.8</ele>
        <time>2023-12-14T09:49:48Z</time>
      </trkpt>
      <trkpt lat="48.3902" lon="2.02547">
        <ele>112.8</ele>
        <time>2023-12-14T09:49:49Z</time>
      </trkpt>
      <trkpt lat="48.39017" lon="2.02544">
        <ele>112.8</ele>
        <time>2023-12-14T09:49:50Z</time>
      </trkpt>
      <trkpt lat="48.39015" lon="2.0254">
        <ele>112.8</ele>
        <time>2023-12-14T09:49:51Z</time>
      </trkpt>
      <trkpt lat="48.39013" lon="2.02536">
        <ele>113.6</ele>
        <time>2023-12-14T09:49:52Z</time>
      </trkpt>
      <trkpt lat="48.39012" lon="2.02533">
        <ele>113.6</ele>
        <time>2023-12-14T09:49:53Z</time>
      </trkpt>
      <trkpt lat="48.39009" lon="2.02529">
        <ele>113.6</ele>
        <time>2023-12-14T09:49:54Z</time>
      </trkpt>
      <trkpt lat="48.39007" lon="2.02526">
        <ele>114</ele>
        <time>2023-12-14T09:49:55Z</time>
      </trkpt>
      <trkpt lat="48.39005" lon="2.02522">
        <ele>114.6</ele>
        <time>2023-12-14T09:49:56Z</time>
      </trkpt>
      <trkpt lat="48.39003" lon="2.02518">
        <ele>114.6</ele>
        <time>2023-12-14T09:49:57Z</time>
      </trkpt>
      <trkpt lat="48.39001" lon="2.02515">
        <ele>114.6</ele>
        <time>2023-12-14T09:49:58Z</time>
      </trkpt>
      <trkpt lat="48.38999" lon="2.02511">
        <ele>114.6</ele>
        <time>2023-12-14T09:49:59Z</time>
      </trkpt>
      <trkpt lat="48.38997" lon="2.02507">
        <ele>114.4</ele>
        <time>2023-12-14T09:50:00Z</time>
      </trkpt>
      <trkpt lat="48.38995" lon="2.02503">
        <ele>114.4</ele>
        <time>2023-12-14T09:50:01Z</time>
      </trkpt>
      <trkpt lat="48.38993" lon="2.02499">
        <ele>114.4</ele>
        <time>2023-12-14T09:50:02Z</time>
      </trkpt>
      <trkpt lat="48.38991" lon="2.02495">
        <ele>115</ele>
        <time>2023-12-14T09:50:03Z</time>
      </trkpt>
      <trkpt lat="48.38989" lon="2.02491">
        <ele>114.8</ele>
        <time>2023-12-14T09:50:04Z</time>
      </trkpt>
      <trkpt lat="48.38987" lon="2.02487">
        <ele>114.8</ele>
        <time>2023-12-14T09:50:05Z</time>
      </trkpt>
      <trkpt lat="48.38985" lon="2.02483">
        <ele>114.8</ele>
        <time>2023-12-14T09:50:06Z</time>
      </trkpt>
      <trkpt lat="48.38982" lon="2.02479">
        <ele>115.8</ele>
        <time>2023-12-14T09:50:07Z</time>
      </trkpt>
      <trkpt lat="48.3898" lon="2.02476">
        <ele>115.8</ele>
        <time>2023-12-14T09:50:08Z</time>
      </trkpt>
      <trkpt lat="48.38978" lon="2.02472">
        <ele>115.8</ele>
        <time>2023-12-14T09:50:09Z</time>
      </trkpt>
      <trkpt lat="48.38976" lon="2.02468">
        <ele>115.8</ele>
        <time>2023-12-14T09:50:10Z</time>
      </trkpt>
      <trkpt lat="48.38974" lon="2.02464">
        <ele>115.8</ele>
        <time>2023-12-14T09:50:11Z</time>
      </trkpt>
      <trkpt lat="48.38971" lon="2.0246">
        <ele>116.2</ele>
        <time>2023-12-14T09:50:12Z</time>
      </trkpt>
      <trkpt lat="48.38969" lon="2.02456">
        <ele>116.2</ele>
        <time>2023-12-14T09:50:13Z</time>
      </trkpt>
      <trkpt lat="48.38967" lon="2.02452">
        <ele>116.2</ele>
        <time>2023-12-14T09:50:14Z</time>
      </trkpt>
      <trkpt lat="48.38965" lon="2.02449">
        <ele>117</ele>
        <time>2023-12-14T09:50:15Z</time>
      </trkpt>
      <trkpt lat="48.38963" lon="2.02445">
        <ele>117.2</ele>
        <time>2023-12-14T09:50:16Z</time>
      </trkpt>
      <trkpt lat="48.38961" lon="2.02441">
        <ele>117.2</ele>
        <time>2023-12-14T09:50:17Z</time>
      </trkpt>
      <trkpt lat="48.3896" lon="2.02436">
        <ele>117.2</ele>
        <time>2023-12-14T09:50:18Z</time>
      </trkpt>
      <trkpt lat="48.38958" lon="2.02432">
        <ele>117.2</ele>
        <time>2023-12-14T09:50:19Z</time>
      </trkpt>
      <trkpt lat="48.38956" lon="2.02428">
        <ele>117.6</ele>
        <time>2023-12-14T09:50:20Z</time>
      </trkpt>
      <trkpt lat="48.38953" lon="2.02425">
        <ele>117.6</ele>
        <time>2023-12-14T09:50:21Z</time>
      </trkpt>
      <trkpt lat="48.3895" lon="2.02421">
        <ele>117.6</ele>
        <time>2023-12-14T09:50:22Z</time>
      </trkpt>
      <trkpt lat="48.38948" lon="2.02417">
        <ele>117.6</ele>
        <time>2023-12-14T09:50:23Z</time>
      </trkpt>
      <trkpt lat="48.38945" lon="2.02414">
        <ele>118.6</ele>
        <time>2023-12-14T09:50:24Z</time>
      </trkpt>
      <trkpt lat="48.38942" lon="2.0241">
        <ele>118.6</ele>
        <time>2023-12-14T09:50:25Z</time>
      </trkpt>
      <trkpt lat="48.38939" lon="2.02407">
        <ele>118.6</ele>
        <time>2023-12-14T09:50:26Z</time>
      </trkpt>
      <trkpt lat="48.38936" lon="2.02404">
        <ele>118.6</ele>
        <time>2023-12-14T09:50:27Z</time>
      </trkpt>
      <trkpt lat="48.38934" lon="2.02401">
        <ele>119.2</ele>
        <time>2023-12-14T09:50:28Z</time>
      </trkpt>
      <trkpt lat="48.38931" lon="2.02397">
        <ele>119.2</ele>
        <time>2023-12-14T09:50:29Z</time>
      </trkpt>
      <trkpt lat="48.38928" lon="2.02394">
        <ele>119.2</ele>
        <time>2023-12-14T09:50:30Z</time>
      </trkpt>
      <trkpt lat="48.38925" lon="2.02391">
        <ele>119.2</ele>
        <time>2023-12-14T09:50:31Z</time>
      </trkpt>
      <trkpt lat="48.38921" lon="2.02388">
        <ele>119.8</ele>
        <time>2023-12-14T09:50:32Z</time>
      </trkpt>
      <trkpt lat="48.38918" lon="2.02384">
        <ele>119.8</ele>
        <time>2023-12-14T09:50:33Z</time>
      </trkpt>
      <trkpt lat="48.38916" lon="2.02381">
        <ele>119.8</ele>
        <time>2023-12-14T09:50:34Z</time>
      </trkpt>
      <trkpt lat="48.38913" lon="2.02378">
        <ele>119.8</ele>
        <time>2023-12-14T09:50:35Z</time>
      </trkpt>
      <trkpt lat="48.3891" lon="2.02374">
        <ele>120.8</ele>
        <time>2023-12-14T09:50:36Z</time>
      </trkpt>
      <trkpt lat="48.38907" lon="2.02371">
        <ele>120.8</ele>
        <time>2023-12-14T09:50:37Z</time>
      </trkpt>
      <trkpt lat="48.38904" lon="2.02368">
        <ele>120.8</ele>
        <time>2023-12-14T09:50:38Z</time>
      </trkpt>
      <trkpt lat="48.38901" lon="2.02365">
        <ele>120.8</ele>
        <time>2023-12-14T09:50:39Z</time>
      </trkpt>
      <trkpt lat="48.38898" lon="2.02362">
        <ele>121.2</ele>
        <time>2023-12-14T09:50:40Z</time>
      </trkpt>
      <trkpt lat="48.38895" lon="2.02358">
        <ele>121.2</ele>
        <time>2023-12-14T09:50:41Z</time>
      </trkpt>
      <trkpt lat="48.38892" lon="2.02355">
        <ele>121.2</ele>
        <time>2023-12-14T09:50:42Z</time>
      </trkpt>
      <trkpt lat="48.3889" lon="2.02352">
        <ele>121.2</ele>
        <time>2023-12-14T09:50:43Z</time>
      </trkpt>
      <trkpt lat="48.38887" lon="2.02348">
        <ele>122</ele>
        <time>2023-12-14T09:50:44Z</time>
      </trkpt>
      <trkpt lat="48.38884" lon="2.02345">
        <ele>122</ele>
        <time>2023-12-14T09:50:45Z</time>
      </trkpt>
      <trkpt lat="48.38881" lon="2.02342">
        <ele>122</ele>
        <time>2023-12-14T09:50:46Z</time>
      </trkpt>
      <trkpt lat="48.38878" lon="2.02339">
        <ele>123</ele>
        <time>2023-12-14T09:50:47Z</time>
      </trkpt>
      <trkpt lat="48.38875" lon="2.02336">
        <ele>123</ele>
        <time>2023-12-14T09:50:48Z</time>
      </trkpt>
      <trkpt lat="48.38872" lon="2.02333">
        <ele>123</ele>
        <time>2023-12-14T09:50:49Z</time>
      </trkpt>
      <trkpt lat="48.3887" lon="2.02331">
        <ele>123</ele>
        <time>2023-12-14T09:50:50Z</time>
      </trkpt>
      <trkpt lat="48.38867" lon="2.0233">
        <ele>123.6</ele>
        <time>2023-12-14T09:50:51Z</time>
      </trkpt>
      <trkpt lat="48.38864" lon="2.02328">
        <ele>123.8</ele>
        <time>2023-12-14T09:50:52Z</time>
      </trkpt>
      <trkpt lat="48.38861" lon="2.02325">
        <ele>123.8</ele>
        <time>2023-12-14T09:50:53Z</time>
      </trkpt>
      <trkpt lat="48.38858" lon="2.02322">
        <ele>123.8</ele>
        <time>2023-12-14T09:50:54Z</time>
      </trkpt>
      <trkpt lat="48.38855" lon="2.02319">
        <ele>123.8</ele>
        <time>2023-12-14T09:50:55Z</time>
      </trkpt>
      <trkpt lat="48.38853" lon="2.02316">
        <ele>123.8</ele>
        <time>2023-12-14T09:50:56Z</time>
      </trkpt>
      <trkpt lat="48.3885" lon="2.02312">
        <ele>123.8</ele>
        <time>2023-12-14T09:50:57Z</time>
      </trkpt>
      <trkpt lat="48.38847" lon="2.02309">
        <ele>123.8</ele>
        <time>2023-12-14T09:50:58Z</time>
      </trkpt>
      <trkpt lat="48.38845" lon="2.02306">
        <ele>123.8</ele>
        <time>2023-12-14T09:50:59Z</time>
      </trkpt>
      <trkpt lat="48.38842" lon="2.02303">
        <ele>124.4</ele>
        <time>2023-12-14T09:51:00Z</time>
      </trkpt>
      <trkpt lat="48.38839" lon="2.023">
        <ele>124.4</ele>
        <time>2023-12-14T09:51:01Z</time>
      </trkpt>
      <trkpt lat="48.38837" lon="2.02297">
        <ele>124.4</ele>
        <time>2023-12-14T09:51:02Z</time>
      </trkpt>
      <trkpt lat="48.38834" lon="2.02293">
        <ele>125.2</ele>
        <time>2023-12-14T09:51:03Z</time>
      </trkpt>
      <trkpt lat="48.38831" lon="2.0229">
        <ele>125.2</ele>
        <time>2023-12-14T09:51:04Z</time>
      </trkpt>
      <trkpt lat="48.38828" lon="2.02287">
        <ele>125.2</ele>
        <time>2023-12-14T09:51:05Z</time>
      </trkpt>
      <trkpt lat="48.38825" lon="2.02284">
        <ele>125.2</ele>
        <time>2023-12-14T09:51:06Z</time>
      </trkpt>
      <trkpt lat="48.38821" lon="2.02281">
        <ele>125.2</ele>
        <time>2023-12-14T09:51:07Z</time>
      </trkpt>
      <trkpt lat="48.38818" lon="2.02278">
        <ele>126.4</ele>
        <time>2023-12-14T09:51:08Z</time>
      </trkpt>
      <trkpt lat="48.38815" lon="2.02275">
        <ele>126.4</ele>
        <time>2023-12-14T09:51:09Z</time>
      </trkpt>
      <trkpt lat="48.38812" lon="2.02272">
        <ele>126.4</ele>
        <time>2023-12-14T09:51:10Z</time>
      </trkpt>
      <trkpt lat="48.38809" lon="2.0227">
        <ele>127.2</ele>
        <time>2023-12-14T09:51:11Z</time>
      </trkpt>
      <trkpt lat="48.38805" lon="2.02267">
        <ele>126.8</ele>
        <time>2023-12-14T09:51:12Z</time>
      </trkpt>
      <trkpt lat="48.38802" lon="2.02264">
        <ele>126.8</ele>
        <time>2023-12-14T09:51:13Z</time>
      </trkpt>
      <trkpt lat="48.38798" lon="2.02262">
        <ele>126.8</ele>
        <time>2023-12-14T09:51:14Z</time>
      </trkpt>
      <trkpt lat="48.38794" lon="2.0226">
        <ele>127.2</ele>
        <time>2023-12-14T09:51:15Z</time>
      </trkpt>
      <trkpt lat="48.38791" lon="2.02258">
        <ele>127.4</ele>
        <time>2023-12-14T09:51:16Z</time>
      </trkpt>
      <trkpt lat="48.38787" lon="2.02255">
        <ele>127.4</ele>
        <time>2023-12-14T09:51:17Z</time>
      </trkpt>
      <trkpt lat="48.38783" lon="2.02253">
        <ele>127.4</ele>
        <time>2023-12-14T09:51:18Z</time>
      </trkpt>
      <trkpt lat="48.3878" lon="2.02251">
        <ele>127.4</ele>
        <time>2023-12-14T09:51:19Z</time>
      </trkpt>
      <trkpt lat="48.38776" lon="2.02249">
        <ele>128</ele>
        <time>2023-12-14T09:51:20Z</time>
      </trkpt>
      <trkpt lat="48.38772" lon="2.02247">
        <ele>128</ele>
        <time>2023-12-14T09:51:21Z</time>
      </trkpt>
      <trkpt lat="48.38769" lon="2.02245">
        <ele>128</ele>
        <time>2023-12-14T09:51:22Z</time>
      </trkpt>
      <trkpt lat="48.38765" lon="2.02243">
        <ele>129</ele>
        <time>2023-12-14T09:51:23Z</time>
      </trkpt>
      <trkpt lat="48.38762" lon="2.02241">
        <ele>129.8</ele>
        <time>2023-12-14T09:51:24Z</time>
      </trkpt>
      <trkpt lat="48.38758" lon="2.02239">
        <ele>129.8</ele>
        <time>2023-12-14T09:51:25Z</time>
      </trkpt>
      <trkpt lat="48.38755" lon="2.02236">
        <ele>129.8</ele>
        <time>2023-12-14T09:51:26Z</time>
      </trkpt>
      <trkpt lat="48.38751" lon="2.02234">
        <ele>129.6</ele>
        <time>2023-12-14T09:51:27Z</time>
      </trkpt>
      <trkpt lat="48.38748" lon="2.02232">
        <ele>129.6</ele>
        <time>2023-12-14T09:51:28Z</time>
      </trkpt>
      <trkpt lat="48.38744" lon="2.0223">
        <ele>129.6</ele>
        <time>2023-12-14T09:51:29Z</time>
      </trkpt>
      <trkpt lat="48.3874" lon="2.02228">
        <ele>129.6</ele>
        <time>2023-12-14T09:51:30Z</time>
      </trkpt>
      <trkpt lat="48.38737" lon="2.02226">
        <ele>129.6</ele>
        <time>2023-12-14T09:51:31Z</time>
      </trkpt>
      <trkpt lat="48.38733" lon="2.02224">
        <ele>130.4</ele>
        <time>2023-12-14T09:51:32Z</time>
      </trkpt>
      <trkpt lat="48.3873" lon="2.02222">
        <ele>130.4</ele>
        <time>2023-12-14T09:51:33Z</time>
      </trkpt>
      <trkpt lat="48.38726" lon="2.0222">
        <ele>130.4</ele>
        <time>2023-12-14T09:51:34Z</time>
      </trkpt>
      <trkpt lat="48.38723" lon="2.02218">
        <ele>130.4</ele>
        <time>2023-12-14T09:51:35Z</time>
      </trkpt>
      <trkpt lat="48.38719" lon="2.02216">
        <ele>130.6</ele>
        <time>2023-12-14T09:51:36Z</time>
      </trkpt>
      <trkpt lat="48.38715" lon="2.02214">
        <ele>130.6</ele>
        <time>2023-12-14T09:51:37Z</time>
      </trkpt>
      <trkpt lat="48.38711" lon="2.02212">
        <ele>130.6</ele>
        <time>2023-12-14T09:51:38Z</time>
      </trkpt>
      <trkpt lat="48.38708" lon="2.0221">
        <ele>131.2</ele>
        <time>2023-12-14T09:51:39Z</time>
      </trkpt>
      <trkpt lat="48.38704" lon="2.02208">
        <ele>131.8</ele>
        <time>2023-12-14T09:51:40Z</time>
      </trkpt>
      <trkpt lat="48.387" lon="2.02206">
        <ele>131.8</ele>
        <time>2023-12-14T09:51:41Z</time>
      </trkpt>
      <trkpt lat="48.38697" lon="2.02204">
        <ele>131.8</ele>
        <time>2023-12-14T09:51:42Z</time>
      </trkpt>
      <trkpt lat="48.38693" lon="2.02202">
        <ele>131.8</ele>
        <time>2023-12-14T09:51:43Z</time>
      </trkpt>
      <trkpt lat="48.38689" lon="2.022">
        <ele>133</ele>
        <time>2023-12-14T09:51:44Z</time>
      </trkpt>
      <trkpt lat="48.38685" lon="2.02197">
        <ele>133</ele>
        <time>2023-12-14T09:51:45Z</time>
      </trkpt>
      <trkpt lat="48.38682" lon="2.02195">
        <ele>133</ele>
        <time>2023-12-14T09:51:46Z</time>
      </trkpt>
      <trkpt lat="48.38678" lon="2.02193">
        <ele>132.6</ele>
        <time>2023-12-14T09:51:47Z</time>
      </trkpt>
      <trkpt lat="48.38674" lon="2.02191">
        <ele>133</ele>
        <time>2023-12-14T09:51:48Z</time>
      </trkpt>
      <trkpt lat="48.3867" lon="2.02188">
        <ele>133</ele>
        <time>2023-12-14T09:51:49Z</time>
      </trkpt>
      <trkpt lat="48.38667" lon="2.02184">
        <ele>133</ele>
        <time>2023-12-14T09:51:50Z</time>
      </trkpt>
      <trkpt lat="48.38664" lon="2.02181">
        <ele>133</ele>
        <time>2023-12-14T09:51:51Z</time>
      </trkpt>
      <trkpt lat="48.38661" lon="2.02177">
        <ele>133</ele>
        <time>2023-12-14T09:51:52Z</time>
      </trkpt>
      <trkpt lat="48.38658" lon="2.02173">
        <ele>133</ele>
        <time>2023-12-14T09:51:53Z</time>
      </trkpt>
      <trkpt lat="48.38655" lon="2.02169">
        <ele>133</ele>
        <time>2023-12-14T09:51:54Z</time>
      </trkpt>
      <trkpt lat="48.38653" lon="2.02165">
        <ele>133</ele>
        <time>2023-12-14T09:51:55Z</time>
      </trkpt>
      <trkpt lat="48.38651" lon="2.0216">
        <ele>134</ele>
        <time>2023-12-14T09:51:56Z</time>
      </trkpt>
      <trkpt lat="48.38649" lon="2.02156">
        <ele>134</ele>
        <time>2023-12-14T09:51:57Z</time>
      </trkpt>
      <trkpt lat="48.38647" lon="2.02151">
        <ele>134</ele>
        <time>2023-12-14T09:51:58Z</time>
      </trkpt>
      <trkpt lat="48.38645" lon="2.02147">
        <ele>134</ele>
        <time>2023-12-14T09:51:59Z</time>
      </trkpt>
      <trkpt lat="48.38643" lon="2.02142">
        <ele>133.6</ele>
        <time>2023-12-14T09:52:00Z</time>
      </trkpt>
      <trkpt lat="48.38642" lon="2.02137">
        <ele>133.6</ele>
        <time>2023-12-14T09:52:01Z</time>
      </trkpt>
      <trkpt lat="48.3864" lon="2.02132">
        <ele>133.6</ele>
        <time>2023-12-14T09:52:02Z</time>
      </trkpt>
      <trkpt lat="48.38637" lon="2.02129">
        <ele>134.4</ele>
        <time>2023-12-14T09:52:03Z</time>
      </trkpt>
      <trkpt lat="48.38633" lon="2.02127">
        <ele>134.2</ele>
        <time>2023-12-14T09:52:04Z</time>
      </trkpt>
      <trkpt lat="48.38629" lon="2.02127">
        <ele>134.2</ele>
        <time>2023-12-14T09:52:05Z</time>
      </trkpt>
      <trkpt lat="48.38625" lon="2.02128">
        <ele>134.2</ele>
        <time>2023-12-14T09:52:06Z</time>
      </trkpt>
      <trkpt lat="48.3862" lon="2.02131">
        <ele>133.4</ele>
        <time>2023-12-14T09:52:07Z</time>
      </trkpt>
      <trkpt lat="48.38616" lon="2.02133">
        <ele>133.2</ele>
        <time>2023-12-14T09:52:08Z</time>
      </trkpt>
      <trkpt lat="48.38611" lon="2.02135">
        <ele>133.2</ele>
        <time>2023-12-14T09:52:09Z</time>
      </trkpt>
      <trkpt lat="48.38606" lon="2.02138">
        <ele>133.2</ele>
        <time>2023-12-14T09:52:10Z</time>
      </trkpt>
      <trkpt lat="48.386" lon="2.0214">
        <ele>133.2</ele>
        <time>2023-12-14T09:52:11Z</time>
      </trkpt>
      <trkpt lat="48.38595" lon="2.02143">
        <ele>131.8</ele>
        <time>2023-12-14T09:52:12Z</time>
      </trkpt>
      <trkpt lat="48.38589" lon="2.02145">
        <ele>131.8</ele>
        <time>2023-12-14T09:52:13Z</time>
      </trkpt>
      <trkpt lat="48.38582" lon="2.02148">
        <ele>131.8</ele>
        <time>2023-12-14T09:52:14Z</time>
      </trkpt>
      <trkpt lat="48.38577" lon="2.02151">
        <ele>131</ele>
        <time>2023-12-14T09:52:15Z</time>
      </trkpt>
      <trkpt lat="48.38572" lon="2.02154">
        <ele>130.6</ele>
        <time>2023-12-14T09:52:16Z</time>
      </trkpt>
      <trkpt lat="48.38567" lon="2.02156">
        <ele>130.6</ele>
        <time>2023-12-14T09:52:17Z</time>
      </trkpt>
      <trkpt lat="48.38562" lon="2.02159">
        <ele>130.6</ele>
        <time>2023-12-14T09:52:18Z</time>
      </trkpt>
      <trkpt lat="48.38556" lon="2.02163">
        <ele>129.8</ele>
        <time>2023-12-14T09:52:19Z</time>
      </trkpt>
      <trkpt lat="48.38551" lon="2.02167">
        <ele>128.2</ele>
        <time>2023-12-14T09:52:20Z</time>
      </trkpt>
      <trkpt lat="48.38545" lon="2.0217">
        <ele>128.2</ele>
        <time>2023-12-14T09:52:21Z</time>
      </trkpt>
      <trkpt lat="48.38539" lon="2.02175">
        <ele>128.2</ele>
        <time>2023-12-14T09:52:22Z</time>
      </trkpt>
      <trkpt lat="48.38533" lon="2.0218">
        <ele>127.2</ele>
        <time>2023-12-14T09:52:23Z</time>
      </trkpt>
      <trkpt lat="48.38527" lon="2.02185">
        <ele>126</ele>
        <time>2023-12-14T09:52:24Z</time>
      </trkpt>
      <trkpt lat="48.3852" lon="2.0219">
        <ele>126</ele>
        <time>2023-12-14T09:52:25Z</time>
      </trkpt>
      <trkpt lat="48.38514" lon="2.02195">
        <ele>126</ele>
        <time>2023-12-14T09:52:26Z</time>
      </trkpt>
      <trkpt lat="48.38508" lon="2.02199">
        <ele>126</ele>
        <time>2023-12-14T09:52:27Z</time>
      </trkpt>
      <trkpt lat="48.38501" lon="2.02202">
        <ele>124.2</ele>
        <time>2023-12-14T09:52:28Z</time>
      </trkpt>
      <trkpt lat="48.38495" lon="2.02205">
        <ele>124.2</ele>
        <time>2023-12-14T09:52:29Z</time>
      </trkpt>
      <trkpt lat="48.38488" lon="2.02208">
        <ele>124.2</ele>
        <time>2023-12-14T09:52:30Z</time>
      </trkpt>
      <trkpt lat="48.38482" lon="2.0221">
        <ele>124.2</ele>
        <time>2023-12-14T09:52:31Z</time>
      </trkpt>
      <trkpt lat="48.38476" lon="2.02212">
        <ele>122.8</ele>
        <time>2023-12-14T09:52:32Z</time>
      </trkpt>
      <trkpt lat="48.38469" lon="2.02214">
        <ele>122.8</ele>
        <time>2023-12-14T09:52:33Z</time>
      </trkpt>
      <trkpt lat="48.38463" lon="2.02216">
        <ele>122.8</ele>
        <time>2023-12-14T09:52:34Z</time>
      </trkpt>
      <trkpt lat="48.38456" lon="2.02219">
        <ele>122.8</ele>
        <time>2023-12-14T09:52:35Z</time>
      </trkpt>
      <trkpt lat="48.3845" lon="2.02222">
        <ele>120.8</ele>
        <time>2023-12-14T09:52:36Z</time>
      </trkpt>
      <trkpt lat="48.38443" lon="2.02226">
        <ele>120.8</ele>
        <time>2023-12-14T09:52:37Z</time>
      </trkpt>
      <trkpt lat="48.38437" lon="2.02229">
        <ele>120.8</ele>
        <time>2023-12-14T09:52:38Z</time>
      </trkpt>
      <trkpt lat="48.38431" lon="2.02231">
        <ele>119.8</ele>
        <time>2023-12-14T09:52:39Z</time>
      </trkpt>
      <trkpt lat="48.38426" lon="2.02234">
        <ele>118.2</ele>
        <time>2023-12-14T09:52:40Z</time>
      </trkpt>
      <trkpt lat="48.3842" lon="2.02236">
        <ele>118.2</ele>
        <time>2023-12-14T09:52:41Z</time>
      </trkpt>
      <trkpt lat="48.38415" lon="2.02238">
        <ele>118.2</ele>
        <time>2023-12-14T09:52:42Z</time>
      </trkpt>
      <trkpt lat="48.38409" lon="2.0224">
        <ele>117.2</ele>
        <time>2023-12-14T09:52:43Z</time>
      </trkpt>
      <trkpt lat="48.38404" lon="2.02241">
        <ele>115</ele>
        <time>2023-12-14T09:52:44Z</time>
      </trkpt>
      <trkpt lat="48.38398" lon="2.02244">
        <ele>115</ele>
        <time>2023-12-14T09:52:45Z</time>
      </trkpt>
      <trkpt lat="48.38393" lon="2.02247">
        <ele>115</ele>
        <time>2023-12-14T09:52:46Z</time>
      </trkpt>
      <trkpt lat="48.38388" lon="2.02249">
        <ele>115</ele>
        <time>2023-12-14T09:52:47Z</time>
      </trkpt>
      <trkpt lat="48.38383" lon="2.02252">
        <ele>114</ele>
        <time>2023-12-14T09:52:48Z</time>
      </trkpt>
      <trkpt lat="48.38378" lon="2.02254">
        <ele>114</ele>
        <time>2023-12-14T09:52:49Z</time>
      </trkpt>
      <trkpt lat="48.38374" lon="2.02255">
        <ele>114</ele>
        <time>2023-12-14T09:52:50Z</time>
      </trkpt>
      <trkpt lat="48.3837" lon="2.02257">
        <ele>113</ele>
        <time>2023-12-14T09:52:51Z</time>
      </trkpt>
      <trkpt lat="48.38366" lon="2.0226">
        <ele>111.2</ele>
        <time>2023-12-14T09:52:52Z</time>
      </trkpt>
      <trkpt lat="48.38362" lon="2.02265">
        <ele>111.2</ele>
        <time>2023-12-14T09:52:53Z</time>
      </trkpt>
      <trkpt lat="48.38358" lon="2.02271">
        <ele>111.2</ele>
        <time>2023-12-14T09:52:54Z</time>
      </trkpt>
      <trkpt lat="48.38353" lon="2.02276">
        <ele>110.2</ele>
        <time>2023-12-14T09:52:55Z</time>
      </trkpt>
      <trkpt lat="48.38349" lon="2.02282">
        <ele>109.4</ele>
        <time>2023-12-14T09:52:56Z</time>
      </trkpt>
      <trkpt lat="48.38345" lon="2.02288">
        <ele>109.4</ele>
        <time>2023-12-14T09:52:57Z</time>
      </trkpt>
      <trkpt lat="48.38341" lon="2.02293">
        <ele>109.4</ele>
        <time>2023-12-14T09:52:58Z</time>
      </trkpt>
      <trkpt lat="48.38337" lon="2.02297">
        <ele>108.8</ele>
        <time>2023-12-14T09:52:59Z</time>
      </trkpt>
      <trkpt lat="48.38332" lon="2.023">
        <ele>108</ele>
        <time>2023-12-14T09:53:00Z</time>
      </trkpt>
      <trkpt lat="48.38328" lon="2.02301">
        <ele>108</ele>
        <time>2023-12-14T09:53:01Z</time>
      </trkpt>
      <trkpt lat="48.38322" lon="2.02301">
        <ele>108</ele>
        <time>2023-12-14T09:53:02Z</time>
      </trkpt>
      <trkpt lat="48.38316" lon="2.02301">
        <ele>107</ele>
        <time>2023-12-14T09:53:03Z</time>
      </trkpt>
      <trkpt lat="48.3831" lon="2.023">
        <ele>106.4</ele>
        <time>2023-12-14T09:53:04Z</time>
      </trkpt>
      <trkpt lat="48.38305" lon="2.02297">
        <ele>106.4</ele>
        <time>2023-12-14T09:53:05Z</time>
      </trkpt>
      <trkpt lat="48.38299" lon="2.02295">
        <ele>106.4</ele>
        <time>2023-12-14T09:53:06Z</time>
      </trkpt>
      <trkpt lat="48.38293" lon="2.02292">
        <ele>106</ele>
        <time>2023-12-14T09:53:07Z</time>
      </trkpt>
      <trkpt lat="48.38287" lon="2.02289">
        <ele>105.4</ele>
        <time>2023-12-14T09:53:08Z</time>
      </trkpt>
      <trkpt lat="48.38282" lon="2.02285">
        <ele>105.4</ele>
        <time>2023-12-14T09:53:09Z</time>
      </trkpt>
      <trkpt lat="48.38276" lon="2.0228">
        <ele>105.4</ele>
        <time>2023-12-14T09:53:10Z</time>
      </trkpt>
      <trkpt lat="48.3827" lon="2.02275">
        <ele>105.4</ele>
        <time>2023-12-14T09:53:11Z</time>
      </trkpt>
      <trkpt lat="48.38265" lon="2.0227">
        <ele>105</ele>
        <time>2023-12-14T09:53:12Z</time>
      </trkpt>
      <trkpt lat="48.3826" lon="2.02265">
        <ele>105</ele>
        <time>2023-12-14T09:53:13Z</time>
      </trkpt>
      <trkpt lat="48.38255" lon="2.0226">
        <ele>105</ele>
        <time>2023-12-14T09:53:14Z</time>
      </trkpt>
      <trkpt lat="48.3825" lon="2.02255">
        <ele>104.2</ele>
        <time>2023-12-14T09:53:15Z</time>
      </trkpt>
      <trkpt lat="48.38245" lon="2.02252">
        <ele>104.2</ele>
        <time>2023-12-14T09:53:16Z</time>
      </trkpt>
      <trkpt lat="48.38241" lon="2.0225">
        <ele>104.2</ele>
        <time>2023-12-14T09:53:17Z</time>
      </trkpt>
      <trkpt lat="48.38237" lon="2.0225">
        <ele>104.2</ele>
        <time>2023-12-14T09:53:18Z</time>
      </trkpt>
      <trkpt lat="48.38233" lon="2.02252">
        <ele>104.2</ele>
        <time>2023-12-14T09:53:19Z</time>
      </trkpt>
      <trkpt lat="48.3823" lon="2.02256">
        <ele>103.4</ele>
        <time>2023-12-14T09:53:20Z</time>
      </trkpt>
      <trkpt lat="48.38228" lon="2.02262">
        <ele>103.4</ele>
        <time>2023-12-14T09:53:21Z</time>
      </trkpt>
      <trkpt lat="48.38228" lon="2.02267">
        <ele>103.4</ele>
        <time>2023-12-14T09:53:22Z</time>
      </trkpt>
      <trkpt lat="48.38229" lon="2.02273">
        <ele>103</ele>
        <time>2023-12-14T09:53:23Z</time>
      </trkpt>
      <trkpt lat="48.38229" lon="2.02278">
        <ele>102.4</ele>
        <time>2023-12-14T09:53:24Z</time>
      </trkpt>
      <trkpt lat="48.38228" lon="2.02284">
        <ele>102.4</ele>
        <time>2023-12-14T09:53:25Z</time>
      </trkpt>
      <trkpt lat="48.38227" lon="2.0229">
        <ele>102.4</ele>
        <time>2023-12-14T09:53:26Z</time>
      </trkpt>
      <trkpt lat="48.38226" lon="2.02295">
        <ele>103.4</ele>
        <time>2023-12-14T09:53:27Z</time>
      </trkpt>
      <trkpt lat="48.38225" lon="2.023">
        <ele>103.4</ele>
        <time>2023-12-14T09:53:28Z</time>
      </trkpt>
      <trkpt lat="48.38224" lon="2.02305">
        <ele>103.4</ele>
        <time>2023-12-14T09:53:29Z</time>
      </trkpt>
      <trkpt lat="48.38223" lon="2.0231">
        <ele>103.4</ele>
        <time>2023-12-14T09:53:30Z</time>
      </trkpt>
      <trkpt lat="48.38221" lon="2.02315">
        <ele>103.8</ele>
        <time>2023-12-14T09:53:31Z</time>
      </trkpt>
      <trkpt lat="48.3822" lon="2.02321">
        <ele>103.8</ele>
        <time>2023-12-14T09:53:32Z</time>
      </trkpt>
      <trkpt lat="48.38219" lon="2.02327">
        <ele>103.8</ele>
        <time>2023-12-14T09:53:33Z</time>
      </trkpt>
      <trkpt lat="48.38218" lon="2.02332">
        <ele>103.8</ele>
        <time>2023-12-14T09:53:34Z</time>
      </trkpt>
      <trkpt lat="48.38217" lon="2.02337">
        <ele>104</ele>
        <time>2023-12-14T09:53:35Z</time>
      </trkpt>
      <trkpt lat="48.38215" lon="2.02343">
        <ele>104</ele>
        <time>2023-12-14T09:53:36Z</time>
      </trkpt>
      <trkpt lat="48.38214" lon="2.02348">
        <ele>104</ele>
        <time>2023-12-14T09:53:37Z</time>
      </trkpt>
      <trkpt lat="48.38213" lon="2.02353">
        <ele>104</ele>
        <time>2023-12-14T09:53:38Z</time>
      </trkpt>
      <trkpt lat="48.38212" lon="2.02359">
        <ele>104</ele>
        <time>2023-12-14T09:53:39Z</time>
      </trkpt>
      <trkpt lat="48.3821" lon="2.02364">
        <ele>103.6</ele>
        <time>2023-12-14T09:53:40Z</time>
      </trkpt>
      <trkpt lat="48.38209" lon="2.0237">
        <ele>103.6</ele>
        <time>2023-12-14T09:53:41Z</time>
      </trkpt>
      <trkpt lat="48.38208" lon="2.02376">
        <ele>103.6</ele>
        <time>2023-12-14T09:53:42Z</time>
      </trkpt>
      <trkpt lat="48.38208" lon="2.02381">
        <ele>104.6</ele>
        <time>2023-12-14T09:53:43Z</time>
      </trkpt>
      <trkpt lat="48.38208" lon="2.02387">
        <ele>104.4</ele>
        <time>2023-12-14T09:53:44Z</time>
      </trkpt>
      <trkpt lat="48.38208" lon="2.02391">
        <ele>104.4</ele>
        <time>2023-12-14T09:53:45Z</time>
      </trkpt>
      <trkpt lat="48.38209" lon="2.02397">
        <ele>104.4</ele>
        <time>2023-12-14T09:53:46Z</time>
      </trkpt>
      <trkpt lat="48.38209" lon="2.02402">
        <ele>104.4</ele>
        <time>2023-12-14T09:53:47Z</time>
      </trkpt>
      <trkpt lat="48.3821" lon="2.02406">
        <ele>105.2</ele>
        <time>2023-12-14T09:53:48Z</time>
      </trkpt>
      <trkpt lat="48.38211" lon="2.02411">
        <ele>105.2</ele>
        <time>2023-12-14T09:53:49Z</time>
      </trkpt>
      <trkpt lat="48.38212" lon="2.02415">
        <ele>105.2</ele>
        <time>2023-12-14T09:53:50Z</time>
      </trkpt>
      <trkpt lat="48.38213" lon="2.02419">
        <ele>105.8</ele>
        <time>2023-12-14T09:53:51Z</time>
      </trkpt>
      <trkpt lat="48.38214" lon="2.02423">
        <ele>106.6</ele>
        <time>2023-12-14T09:53:52Z</time>
      </trkpt>
      <trkpt lat="48.38215" lon="2.02427">
        <ele>106.6</ele>
        <time>2023-12-14T09:53:53Z</time>
      </trkpt>
      <trkpt lat="48.38216" lon="2.02432">
        <ele>106.6</ele>
        <time>2023-12-14T09:53:54Z</time>
      </trkpt>
      <trkpt lat="48.38218" lon="2.02436">
        <ele>106.8</ele>
        <time>2023-12-14T09:53:55Z</time>
      </trkpt>
      <trkpt lat="48.38219" lon="2.0244">
        <ele>107</ele>
        <time>2023-12-14T09:53:56Z</time>
      </trkpt>
      <trkpt lat="48.3822" lon="2.02444">
        <ele>107</ele>
        <time>2023-12-14T09:53:57Z</time>
      </trkpt>
      <trkpt lat="48.38222" lon="2.02448">
        <ele>107</ele>
        <time>2023-12-14T09:53:58Z</time>
      </trkpt>
      <trkpt lat="48.38223" lon="2.02452">
        <ele>107</ele>
        <time>2023-12-14T09:53:59Z</time>
      </trkpt>
      <trkpt lat="48.38224" lon="2.02456">
        <ele>107.4</ele>
        <time>2023-12-14T09:54:00Z</time>
      </trkpt>
      <trkpt lat="48.38225" lon="2.0246">
        <ele>107.4</ele>
        <time>2023-12-14T09:54:01Z</time>
      </trkpt>
      <trkpt lat="48.38227" lon="2.02464">
        <ele>107.4</ele>
        <time>2023-12-14T09:54:02Z</time>
      </trkpt>
      <trkpt lat="48.38229" lon="2.02468">
        <ele>108</ele>
        <time>2023-12-14T09:54:03Z</time>
      </trkpt>
      <trkpt lat="48.3823" lon="2.02472">
        <ele>108</ele>
        <time>2023-12-14T09:54:04Z</time>
      </trkpt>
      <trkpt lat="48.38231" lon="2.02476">
        <ele>108</ele>
        <time>2023-12-14T09:54:05Z</time>
      </trkpt>
      <trkpt lat="48.38233" lon="2.02479">
        <ele>108</ele>
        <time>2023-12-14T09:54:06Z</time>
      </trkpt>
      <trkpt lat="48.38235" lon="2.02483">
        <ele>108</ele>
        <time>2023-12-14T09:54:07Z</time>
      </trkpt>
      <trkpt lat="48.38236" lon="2.02487">
        <ele>108.8</ele>
        <time>2023-12-14T09:54:08Z</time>
      </trkpt>
      <trkpt lat="48.38238" lon="2.02491">
        <ele>108.8</ele>
        <time>2023-12-14T09:54:09Z</time>
      </trkpt>
      <trkpt lat="48.3824" lon="2.02495">
        <ele>108.8</ele>
        <time>2023-12-14T09:54:10Z</time>
      </trkpt>
      <trkpt lat="48.38241" lon="2.02498">
        <ele>109.6</ele>
        <time>2023-12-14T09:54:11Z</time>
      </trkpt>
      <trkpt lat="48.38243" lon="2.02501">
        <ele>109.8</ele>
        <time>2023-12-14T09:54:12Z</time>
      </trkpt>
      <trkpt lat="48.38245" lon="2.02504">
        <ele>109.8</ele>
        <time>2023-12-14T09:54:13Z</time>
      </trkpt>
      <trkpt lat="48.38247" lon="2.02507">
        <ele>109.8</ele>
        <time>2023-12-14T09:54:14Z</time>
      </trkpt>
      <trkpt lat="48.38249" lon="2.02511">
        <ele>109.8</ele>
        <time>2023-12-14T09:54:15Z</time>
      </trkpt>
      <trkpt lat="48.3825" lon="2.02514">
        <ele>110.8</ele>
        <time>2023-12-14T09:54:16Z</time>
      </trkpt>
      <trkpt lat="48.38252" lon="2.02518">
        <ele>110.8</ele>
        <time>2023-12-14T09:54:17Z</time>
      </trkpt>
      <trkpt lat="48.38253" lon="2.02521">
        <ele>110.8</ele>
        <time>2023-12-14T09:54:18Z</time>
      </trkpt>
      <trkpt lat="48.38254" lon="2.02525">
        <ele>110.8</ele>
        <time>2023-12-14T09:54:19Z</time>
      </trkpt>
      <trkpt lat="48.38254" lon="2.02529">
        <ele>111.6</ele>
        <time>2023-12-14T09:54:20Z</time>
      </trkpt>
      <trkpt lat="48.38254" lon="2.02533">
        <ele>111.6</ele>
        <time>2023-12-14T09:54:21Z</time>
      </trkpt>
      <trkpt lat="48.38253" lon="2.02535">
        <ele>111.6</ele>
        <time>2023-12-14T09:54:22Z</time>
      </trkpt>
      <trkpt lat="48.38251" lon="2.02536">
        <ele>112</ele>
        <time>2023-12-14T09:54:23Z</time>
      </trkpt>
      <trkpt lat="48.38248" lon="2.02536">
        <ele>112.4</ele>
        <time>2023-12-14T09:54:24Z</time>
      </trkpt>
      <trkpt lat="48.38247" lon="2.02533">
        <ele>112.4</ele>
        <time>2023-12-14T09:54:25Z</time>
      </trkpt>
      <trkpt lat="48.38245" lon="2.0253">
        <ele>112.4</ele>
        <time>2023-12-14T09:54:26Z</time>
      </trkpt>
      <trkpt lat="48.38243" lon="2.02528">
        <ele>113</ele>
        <time>2023-12-14T09:54:27Z</time>
      </trkpt>
      <trkpt lat="48.38241" lon="2.02525">
        <ele>113.2</ele>
        <time>2023-12-14T09:54:28Z</time>
      </trkpt>
      <trkpt lat="48.38239" lon="2.02522">
        <ele>113.2</ele>
        <time>2023-12-14T09:54:29Z</time>
      </trkpt>
      <trkpt lat="48.38238" lon="2.02519">
        <ele>113.2</ele>
        <time>2023-12-14T09:54:30Z</time>
      </trkpt>
      <trkpt lat="48.38236" lon="2.02517">
        <ele>113.2</ele>
        <time>2023-12-14T09:54:31Z</time>
      </trkpt>
      <trkpt lat="48.38234" lon="2.02514">
        <ele>114</ele>
        <time>2023-12-14T09:54:32Z</time>
      </trkpt>
      <trkpt lat="48.38232" lon="2.02512">
        <ele>114</ele>
        <time>2023-12-14T09:54:33Z</time>
      </trkpt>
      <trkpt lat="48.3823" lon="2.02509">
        <ele>114</ele>
        <time>2023-12-14T09:54:34Z</time>
      </trkpt>
      <trkpt lat="48.38228" lon="2.02506">
        <ele>114.4</ele>
        <time>2023-12-14T09:54:35Z</time>
      </trkpt>
      <trkpt lat="48.38225" lon="2.02503">
        <ele>114.4</ele>
        <time>2023-12-14T09:54:36Z</time>
      </trkpt>
      <trkpt lat="48.38223" lon="2.02501">
        <ele>114.4</ele>
        <time>2023-12-14T09:54:37Z</time>
      </trkpt>
      <trkpt lat="48.38221" lon="2.02498">
        <ele>114.4</ele>
        <time>2023-12-14T09:54:38Z</time>
      </trkpt>
      <trkpt lat="48.38219" lon="2.02495">
        <ele>115</ele>
        <time>2023-12-14T09:54:39Z</time>
      </trkpt>
      <trkpt lat="48.38217" lon="2.02492">
        <ele>115.6</ele>
        <time>2023-12-14T09:54:40Z</time>
      </trkpt>
      <trkpt lat="48.38215" lon="2.0249">
        <ele>115.6</ele>
        <time>2023-12-14T09:54:41Z</time>
      </trkpt>
      <trkpt lat="48.38213" lon="2.02487">
        <ele>115.6</ele>
        <time>2023-12-14T09:54:42Z</time>
      </trkpt>
      <trkpt lat="48.38211" lon="2.02484">
        <ele>116.2</ele>
        <time>2023-12-14T09:54:43Z</time>
      </trkpt>
      <trkpt lat="48.38209" lon="2.02481">
        <ele>116.2</ele>
        <time>2023-12-14T09:54:44Z</time>
      </trkpt>
      <trkpt lat="48.38206" lon="2.02478">
        <ele>116.2</ele>
        <time>2023-12-14T09:54:45Z</time>
      </trkpt>
      <trkpt lat="48.38204" lon="2.02476">
        <ele>116.2</ele>
        <time>2023-12-14T09:54:46Z</time>
      </trkpt>
      <trkpt lat="48.38201" lon="2.02473">
        <ele>117.2</ele>
        <time>2023-12-14T09:54:47Z</time>
      </trkpt>
      <trkpt lat="48.38199" lon="2.02471">
        <ele>117.2</ele>
        <time>2023-12-14T09:54:48Z</time>
      </trkpt>
      <trkpt lat="48.38196" lon="2.02469">
        <ele>117.2</ele>
        <time>2023-12-14T09:54:49Z</time>
      </trkpt>
      <trkpt lat="48.38193" lon="2.02467">
        <ele>117.2</ele>
        <time>2023-12-14T09:54:50Z</time>
      </trkpt>
      <trkpt lat="48.3819" lon="2.02465">
        <ele>117.2</ele>
        <time>2023-12-14T09:54:51Z</time>
      </trkpt>
      <trkpt lat="48.38188" lon="2.02464">
        <ele>117.8</ele>
        <time>2023-12-14T09:54:52Z</time>
      </trkpt>
      <trkpt lat="48.38185" lon="2.02463">
        <ele>117.8</ele>
        <time>2023-12-14T09:54:53Z</time>
      </trkpt>
      <trkpt lat="48.38183" lon="2.02462">
        <ele>117.8</ele>
        <time>2023-12-14T09:54:54Z</time>
      </trkpt>
      <trkpt lat="48.3818" lon="2.02461">
        <ele>118.6</ele>
        <time>2023-12-14T09:54:55Z</time>
      </trkpt>
      <trkpt lat="48.38177" lon="2.0246">
        <ele>119</ele>
        <time>2023-12-14T09:54:56Z</time>
      </trkpt>
      <trkpt lat="48.38174" lon="2.0246">
        <ele>119</ele>
        <time>2023-12-14T09:54:57Z</time>
      </trkpt>
      <trkpt lat="48.38171" lon="2.02459">
        <ele>119</ele>
        <time>2023-12-14T09:54:58Z</time>
      </trkpt>
      <trkpt lat="48.38168" lon="2.02459">
        <ele>119.2</ele>
        <time>2023-12-14T09:54:59Z</time>
      </trkpt>
      <trkpt lat="48.38165" lon="2.02459">
        <ele>120</ele>
        <time>2023-12-14T09:55:00Z</time>
      </trkpt>
      <trkpt lat="48.38162" lon="2.02459">
        <ele>120</ele>
        <time>2023-12-14T09:55:01Z</time>
      </trkpt>
      <trkpt lat="48.38159" lon="2.0246">
        <ele>120</ele>
        <time>2023-12-14T09:55:02Z</time>
      </trkpt>
      <trkpt lat="48.38156" lon="2.0246">
        <ele>120</ele>
        <time>2023-12-14T09:55:03Z</time>
      </trkpt>
      <trkpt lat="48.38154" lon="2.02461">
        <ele>120.4</ele>
        <time>2023-12-14T09:55:04Z</time>
      </trkpt>
      <trkpt lat="48.38151" lon="2.02462">
        <ele>120.4</ele>
        <time>2023-12-14T09:55:05Z</time>
      </trkpt>
      <trkpt lat="48.38148" lon="2.02464">
        <ele>120.4</ele>
        <time>2023-12-14T09:55:06Z</time>
      </trkpt>
      <trkpt lat="48.38145" lon="2.02465">
        <ele>121.2</ele>
        <time>2023-12-14T09:55:07Z</time>
      </trkpt>
      <trkpt lat="48.38143" lon="2.02467">
        <ele>121.2</ele>
        <time>2023-12-14T09:55:08Z</time>
      </trkpt>
      <trkpt lat="48.3814" lon="2.02469">
        <ele>121.2</ele>
        <time>2023-12-14T09:55:09Z</time>
      </trkpt>
      <trkpt lat="48.38137" lon="2.02471">
        <ele>121.2</ele>
        <time>2023-12-14T09:55:10Z</time>
      </trkpt>
      <trkpt lat="48.38135" lon="2.02474">
        <ele>122.2</ele>
        <time>2023-12-14T09:55:11Z</time>
      </trkpt>
      <trkpt lat="48.38132" lon="2.02476">
        <ele>122.2</ele>
        <time>2023-12-14T09:55:12Z</time>
      </trkpt>
      <trkpt lat="48.3813" lon="2.02478">
        <ele>122.2</ele>
        <time>2023-12-14T09:55:13Z</time>
      </trkpt>
      <trkpt lat="48.38127" lon="2.0248">
        <ele>122.2</ele>
        <time>2023-12-14T09:55:14Z</time>
      </trkpt>
      <trkpt lat="48.38125" lon="2.02482">
        <ele>123.2</ele>
        <time>2023-12-14T09:55:15Z</time>
      </trkpt>
      <trkpt lat="48.38122" lon="2.02485">
        <ele>123.6</ele>
        <time>2023-12-14T09:55:16Z</time>
      </trkpt>
      <trkpt lat="48.38119" lon="2.02487">
        <ele>123.6</ele>
        <time>2023-12-14T09:55:17Z</time>
      </trkpt>
      <trkpt lat="48.38117" lon="2.02489">
        <ele>123.6</ele>
        <time>2023-12-14T09:55:18Z</time>
      </trkpt>
      <trkpt lat="48.38114" lon="2.02491">
        <ele>124</ele>
        <time>2023-12-14T09:55:19Z</time>
      </trkpt>
      <trkpt lat="48.38112" lon="2.02493">
        <ele>124.6</ele>
        <time>2023-12-14T09:55:20Z</time>
      </trkpt>
      <trkpt lat="48.38109" lon="2.02496">
        <ele>124.6</ele>
        <time>2023-12-14T09:55:21Z</time>
      </trkpt>
      <trkpt lat="48.38107" lon="2.02498">
        <ele>124.6</ele>
        <time>2023-12-14T09:55:22Z</time>
      </trkpt>
      <trkpt lat="48.38104" lon="2.025">
        <ele>125.2</ele>
        <time>2023-12-14T09:55:23Z</time>
      </trkpt>
      <trkpt lat="48.38101" lon="2.02502">
        <ele>125.4</ele>
        <time>2023-12-14T09:55:24Z</time>
      </trkpt>
      <trkpt lat="48.38099" lon="2.02505">
        <ele>125.4</ele>
        <time>2023-12-14T09:55:25Z</time>
      </trkpt>
      <trkpt lat="48.38097" lon="2.02507">
        <ele>125.4</ele>
        <time>2023-12-14T09:55:26Z</time>
      </trkpt>
      <trkpt lat="48.38095" lon="2.02508">
        <ele>126.2</ele>
        <time>2023-12-14T09:55:27Z</time>
      </trkpt>
      <trkpt lat="48.38092" lon="2.0251">
        <ele>126.6</ele>
        <time>2023-12-14T09:55:28Z</time>
      </trkpt>
      <trkpt lat="48.3809" lon="2.02512">
        <ele>126.6</ele>
        <time>2023-12-14T09:55:29Z</time>
      </trkpt>
      <trkpt lat="48.38087" lon="2.02514">
        <ele>126.6</ele>
        <time>2023-12-14T09:55:30Z</time>
      </trkpt>
      <trkpt lat="48.38085" lon="2.02516">
        <ele>126.6</ele>
        <time>2023-12-14T09:55:31Z</time>
      </trkpt>
      <trkpt lat="48.38082" lon="2.02518">
        <ele>127.2</ele>
        <time>2023-12-14T09:55:32Z</time>
      </trkpt>
      <trkpt lat="48.38079" lon="2.02519">
        <ele>127.2</ele>
        <time>2023-12-14T09:55:33Z</time>
      </trkpt>
      <trkpt lat="48.38076" lon="2.02521">
        <ele>127.2</ele>
        <time>2023-12-14T09:55:34Z</time>
      </trkpt>
      <trkpt lat="48.38074" lon="2.02523">
        <ele>127.4</ele>
        <time>2023-12-14T09:55:35Z</time>
      </trkpt>
      <trkpt lat="48.38071" lon="2.02524">
        <ele>127.6</ele>
        <time>2023-12-14T09:55:36Z</time>
      </trkpt>
      <trkpt lat="48.38068" lon="2.02525">
        <ele>127.6</ele>
        <time>2023-12-14T09:55:37Z</time>
      </trkpt>
      <trkpt lat="48.38065" lon="2.02526">
        <ele>127.6</ele>
        <time>2023-12-14T09:55:38Z</time>
      </trkpt>
      <trkpt lat="48.38062" lon="2.02528">
        <ele>128.6</ele>
        <time>2023-12-14T09:55:39Z</time>
      </trkpt>
      <trkpt lat="48.38059" lon="2.02529">
        <ele>128.6</ele>
        <time>2023-12-14T09:55:40Z</time>
      </trkpt>
      <trkpt lat="48.38057" lon="2.02531">
        <ele>128.6</ele>
        <time>2023-12-14T09:55:41Z</time>
      </trkpt>
      <trkpt lat="48.38054" lon="2.02532">
        <ele>128.6</ele>
        <time>2023-12-14T09:55:42Z</time>
      </trkpt>
      <trkpt lat="48.38051" lon="2.02533">
        <ele>129</ele>
        <time>2023-12-14T09:55:43Z</time>
      </trkpt>
      <trkpt lat="48.38048" lon="2.02534">
        <ele>129.4</ele>
        <time>2023-12-14T09:55:44Z</time>
      </trkpt>
      <trkpt lat="48.38045" lon="2.02535">
        <ele>129.4</ele>
        <time>2023-12-14T09:55:45Z</time>
      </trkpt>
      <trkpt lat="48.38042" lon="2.02537">
        <ele>129.4</ele>
        <time>2023-12-14T09:55:46Z</time>
      </trkpt>
      <trkpt lat="48.3804" lon="2.02539">
        <ele>129.6</ele>
        <time>2023-12-14T09:55:47Z</time>
      </trkpt>
      <trkpt lat="48.38037" lon="2.0254">
        <ele>130.2</ele>
        <time>2023-12-14T09:55:48Z</time>
      </trkpt>
      <trkpt lat="48.38034" lon="2.02542">
        <ele>130.2</ele>
        <time>2023-12-14T09:55:49Z</time>
      </trkpt>
      <trkpt lat="48.38031" lon="2.02544">
        <ele>130.2</ele>
        <time>2023-12-14T09:55:50Z</time>
      </trkpt>
      <trkpt lat="48.38028" lon="2.02546">
        <ele>130.2</ele>
        <time>2023-12-14T09:55:51Z</time>
      </trkpt>
      <trkpt lat="48.38025" lon="2.02548">
        <ele>131</ele>
        <time>2023-12-14T09:55:52Z</time>
      </trkpt>
      <trkpt lat="48.38022" lon="2.02549">
        <ele>131</ele>
        <time>2023-12-14T09:55:53Z</time>
      </trkpt>
      <trkpt lat="48.38019" lon="2.02551">
        <ele>131</ele>
        <time>2023-12-14T09:55:54Z</time>
      </trkpt>
      <trkpt lat="48.38016" lon="2.02554">
        <ele>131.8</ele>
        <time>2023-12-14T09:55:55Z</time>
      </trkpt>
      <trkpt lat="48.38013" lon="2.02556">
        <ele>131.8</ele>
        <time>2023-12-14T09:55:56Z</time>
      </trkpt>
      <trkpt lat="48.3801" lon="2.02558">
        <ele>131.8</ele>
        <time>2023-12-14T09:55:57Z</time>
      </trkpt>
      <trkpt lat="48.38007" lon="2.0256">
        <ele>131.8</ele>
        <time>2023-12-14T09:55:58Z</time>
      </trkpt>
      <trkpt lat="48.38004" lon="2.02562">
        <ele>132.6</ele>
        <time>2023-12-14T09:55:59Z</time>
      </trkpt>
      <trkpt lat="48.38001" lon="2.02565">
        <ele>132.2</ele>
        <time>2023-12-14T09:56:00Z</time>
      </trkpt>
      <trkpt lat="48.37998" lon="2.02567">
        <ele>132.2</ele>
        <time>2023-12-14T09:56:01Z</time>
      </trkpt>
      <trkpt lat="48.37995" lon="2.0257">
        <ele>132.2</ele>
        <time>2023-12-14T09:56:02Z</time>
      </trkpt>
      <trkpt lat="48.37992" lon="2.02572">
        <ele>133</ele>
        <time>2023-12-14T09:56:03Z</time>
      </trkpt>
      <trkpt lat="48.37989" lon="2.02575">
        <ele>133.2</ele>
        <time>2023-12-14T09:56:04Z</time>
      </trkpt>
      <trkpt lat="48.37986" lon="2.02578">
        <ele>133.2</ele>
        <time>2023-12-14T09:56:05Z</time>
      </trkpt>
      <trkpt lat="48.37983" lon="2.0258">
        <ele>133.2</ele>
        <time>2023-12-14T09:56:06Z</time>
      </trkpt>
      <trkpt lat="48.3798" lon="2.02583">
        <ele>134</ele>
        <time>2023-12-14T09:56:07Z</time>
      </trkpt>
      <trkpt lat="48.37977" lon="2.02586">
        <ele>134.2</ele>
        <time>2023-12-14T09:56:08Z</time>
      </trkpt>
      <trkpt lat="48.37974" lon="2.02589">
        <ele>134.2</ele>
        <time>2023-12-14T09:56:09Z</time>
      </trkpt>
      <trkpt lat="48.37971" lon="2.02591">
        <ele>134.2</ele>
        <time>2023-12-14T09:56:10Z</time>
      </trkpt>
      <trkpt lat="48.37968" lon="2.02594">
        <ele>134.2</ele>
        <time>2023-12-14T09:56:11Z</time>
      </trkpt>
      <trkpt lat="48.37965" lon="2.02597">
        <ele>134.6</ele>
        <time>2023-12-14T09:56:12Z</time>
      </trkpt>
      <trkpt lat="48.37962" lon="2.026">
        <ele>134.6</ele>
        <time>2023-12-14T09:56:13Z</time>
      </trkpt>
      <trkpt lat="48.37959" lon="2.02604">
        <ele>134.6</ele>
        <time>2023-12-14T09:56:14Z</time>
      </trkpt>
      <trkpt lat="48.37957" lon="2.02607">
        <ele>134.6</ele>
        <time>2023-12-14T09:56:15Z</time>
      </trkpt>
      <trkpt lat="48.37954" lon="2.02611">
        <ele>135.2</ele>
        <time>2023-12-14T09:56:16Z</time>
      </trkpt>
      <trkpt lat="48.37951" lon="2.02615">
        <ele>135.2</ele>
        <time>2023-12-14T09:56:17Z</time>
      </trkpt>
      <trkpt lat="48.37949" lon="2.02619">
        <ele>135.2</ele>
        <time>2023-12-14T09:56:18Z</time>
      </trkpt>
      <trkpt lat="48.37946" lon="2.02623">
        <ele>135.2</ele>
        <time>2023-12-14T09:56:19Z</time>
      </trkpt>
      <trkpt lat="48.37944" lon="2.02627">
        <ele>135.6</ele>
        <time>2023-12-14T09:56:20Z</time>
      </trkpt>
      <trkpt lat="48.37942" lon="2.02632">
        <ele>135.6</ele>
        <time>2023-12-14T09:56:21Z</time>
      </trkpt>
      <trkpt lat="48.37939" lon="2.02636">
        <ele>135.6</ele>
        <time>2023-12-14T09:56:22Z</time>
      </trkpt>
      <trkpt lat="48.37937" lon="2.02641">
        <ele>136</ele>
        <time>2023-12-14T09:56:23Z</time>
      </trkpt>
      <trkpt lat="48.37935" lon="2.02646">
        <ele>136.8</ele>
        <time>2023-12-14T09:56:24Z</time>
      </trkpt>
      <trkpt lat="48.37933" lon="2.02651">
        <ele>136.8</ele>
        <time>2023-12-14T09:56:25Z</time>
      </trkpt>
      <trkpt lat="48.37931" lon="2.02656">
        <ele>136.8</ele>
        <time>2023-12-14T09:56:26Z</time>
      </trkpt>
      <trkpt lat="48.37929" lon="2.02661">
        <ele>136.8</ele>
        <time>2023-12-14T09:56:27Z</time>
      </trkpt>
      <trkpt lat="48.37927" lon="2.02667">
        <ele>137.2</ele>
        <time>2023-12-14T09:56:28Z</time>
      </trkpt>
      <trkpt lat="48.37925" lon="2.02672">
        <ele>137.2</ele>
        <time>2023-12-14T09:56:29Z</time>
      </trkpt>
      <trkpt lat="48.37923" lon="2.02678">
        <ele>137.2</ele>
        <time>2023-12-14T09:56:30Z</time>
      </trkpt>
      <trkpt lat="48.37921" lon="2.02684">
        <ele>137.2</ele>
        <time>2023-12-14T09:56:31Z</time>
      </trkpt>
      <trkpt lat="48.37919" lon="2.02689">
        <ele>136.8</ele>
        <time>2023-12-14T09:56:32Z</time>
      </trkpt>
      <trkpt lat="48.37917" lon="2.02695">
        <ele>136.8</ele>
        <time>2023-12-14T09:56:33Z</time>
      </trkpt>
      <trkpt lat="48.37914" lon="2.02701">
        <ele>136.8</ele>
        <time>2023-12-14T09:56:34Z</time>
      </trkpt>
      <trkpt lat="48.37912" lon="2.02707">
        <ele>136.8</ele>
        <time>2023-12-14T09:56:35Z</time>
      </trkpt>
      <trkpt lat="48.3791" lon="2.02713">
        <ele>136.2</ele>
        <time>2023-12-14T09:56:36Z</time>
      </trkpt>
      <trkpt lat="48.37908" lon="2.02719">
        <ele>136.2</ele>
        <time>2023-12-14T09:56:37Z</time>
      </trkpt>
      <trkpt lat="48.37906" lon="2.02726">
        <ele>136.2</ele>
        <time>2023-12-14T09:56:38Z</time>
      </trkpt>
      <trkpt lat="48.37903" lon="2.02732">
        <ele>136.4</ele>
        <time>2023-12-14T09:56:39Z</time>
      </trkpt>
      <trkpt lat="48.37901" lon="2.02739">
        <ele>136.4</ele>
        <time>2023-12-14T09:56:40Z</time>
      </trkpt>
      <trkpt lat="48.37898" lon="2.02745">
        <ele>136.4</ele>
        <time>2023-12-14T09:56:41Z</time>
      </trkpt>
      <trkpt lat="48.37896" lon="2.02752">
        <ele>136.4</ele>
        <time>2023-12-14T09:56:42Z</time>
      </trkpt>
      <trkpt lat="48.37894" lon="2.02759">
        <ele>137.2</ele>
        <time>2023-12-14T09:56:43Z</time>
      </trkpt>
      <trkpt lat="48.37891" lon="2.02765">
        <ele>136.8</ele>
        <time>2023-12-14T09:56:44Z</time>
      </trkpt>
      <trkpt lat="48.37889" lon="2.02772">
        <ele>136.8</ele>
        <time>2023-12-14T09:56:45Z</time>
      </trkpt>
      <trkpt lat="48.37886" lon="2.02779">
        <ele>136.8</ele>
        <time>2023-12-14T09:56:46Z</time>
      </trkpt>
      <trkpt lat="48.37883" lon="2.02785">
        <ele>137</ele>
        <time>2023-12-14T09:56:47Z</time>
      </trkpt>
      <trkpt lat="48.3788" lon="2.02792">
        <ele>137</ele>
        <time>2023-12-14T09:56:48Z</time>
      </trkpt>
      <trkpt lat="48.37877" lon="2.02799">
        <ele>137</ele>
        <time>2023-12-14T09:56:49Z</time>
      </trkpt>
      <trkpt lat="48.37874" lon="2.02805">
        <ele>137</ele>
        <time>2023-12-14T09:56:50Z</time>
      </trkpt>
      <trkpt lat="48.37871" lon="2.02812">
        <ele>137</ele>
        <time>2023-12-14T09:56:51Z</time>
      </trkpt>
      <trkpt lat="48.37868" lon="2.02819">
        <ele>137.4</ele>
        <time>2023-12-14T09:56:52Z</time>
      </trkpt>
      <trkpt lat="48.37864" lon="2.02825">
        <ele>137.4</ele>
        <time>2023-12-14T09:56:53Z</time>
      </trkpt>
      <trkpt lat="48.37861" lon="2.02832">
        <ele>137.4</ele>
        <time>2023-12-14T09:56:54Z</time>
      </trkpt>
      <trkpt lat="48.37857" lon="2.02838">
        <ele>137.4</ele>
        <time>2023-12-14T09:56:55Z</time>
      </trkpt>
      <trkpt lat="48.37854" lon="2.02844">
        <ele>137.2</ele>
        <time>2023-12-14T09:56:56Z</time>
      </trkpt>
      <trkpt lat="48.3785" lon="2.0285">
        <ele>137.2</ele>
        <time>2023-12-14T09:56:57Z</time>
      </trkpt>
      <trkpt lat="48.37846" lon="2.02856">
        <ele>137.2</ele>
        <time>2023-12-14T09:56:58Z</time>
      </trkpt>
      <trkpt lat="48.37841" lon="2.02861">
        <ele>137.4</ele>
        <time>2023-12-14T09:56:59Z</time>
      </trkpt>
      <trkpt lat="48.37837" lon="2.02866">
        <ele>137.2</ele>
        <time>2023-12-14T09:57:00Z</time>
      </trkpt>
      <trkpt lat="48.37832" lon="2.02871">
        <ele>137.2</ele>
        <time>2023-12-14T09:57:01Z</time>
      </trkpt>
      <trkpt lat="48.37828" lon="2.02876">
        <ele>137.2</ele>
        <time>2023-12-14T09:57:02Z</time>
      </trkpt>
      <trkpt lat="48.37823" lon="2.02881">
        <ele>137.2</ele>
        <time>2023-12-14T09:57:03Z</time>
      </trkpt>
      <trkpt lat="48.37819" lon="2.02886">
        <ele>137.2</ele>
        <time>2023-12-14T09:57:04Z</time>
      </trkpt>
      <trkpt lat="48.37814" lon="2.02891">
        <ele>137.2</ele>
        <time>2023-12-14T09:57:05Z</time>
      </trkpt>
      <trkpt lat="48.37809" lon="2.02895">
        <ele>137.2</ele>
        <time>2023-12-14T09:57:06Z</time>
      </trkpt>
      <trkpt lat="48.37804" lon="2.029">
        <ele>137.8</ele>
        <time>2023-12-14T09:57:07Z</time>
      </trkpt>
      <trkpt lat="48.37799" lon="2.02905">
        <ele>138.4</ele>
        <time>2023-12-14T09:57:08Z</time>
      </trkpt>
      <trkpt lat="48.37795" lon="2.0291">
        <ele>138.4</ele>
        <time>2023-12-14T09:57:09Z</time>
      </trkpt>
      <trkpt lat="48.3779" lon="2.02914">
        <ele>138.4</ele>
        <time>2023-12-14T09:57:10Z</time>
      </trkpt>
      <trkpt lat="48.37785" lon="2.02919">
        <ele>138.4</ele>
        <time>2023-12-14T09:57:11Z</time>
      </trkpt>
      <trkpt lat="48.3778" lon="2.02923">
        <ele>138.2</ele>
        <time>2023-12-14T09:57:12Z</time>
      </trkpt>
      <trkpt lat="48.37776" lon="2.02928">
        <ele>138.2</ele>
        <time>2023-12-14T09:57:13Z</time>
      </trkpt>
      <trkpt lat="48.37771" lon="2.02933">
        <ele>138.2</ele>
        <time>2023-12-14T09:57:14Z</time>
      </trkpt>
      <trkpt lat="48.37766" lon="2.02937">
        <ele>138.6</ele>
        <time>2023-12-14T09:57:15Z</time>
      </trkpt>
      <trkpt lat="48.37761" lon="2.02942">
        <ele>138.4</ele>
        <time>2023-12-14T09:57:16Z</time>
      </trkpt>
      <trkpt lat="48.37756" lon="2.02947">
        <ele>138.4</ele>
        <time>2023-12-14T09:57:17Z</time>
      </trkpt>
      <trkpt lat="48.37751" lon="2.02951">
        <ele>138.4</ele>
        <time>2023-12-14T09:57:18Z</time>
      </trkpt>
      <trkpt lat="48.37746" lon="2.02956">
        <ele>138.4</ele>
        <time>2023-12-14T09:57:19Z</time>
      </trkpt>
      <trkpt lat="48.37741" lon="2.02961">
        <ele>138.6</ele>
        <time>2023-12-14T09:57:20Z</time>
      </trkpt>
      <trkpt lat="48.37736" lon="2.02965">
        <ele>138.6</ele>
        <time>2023-12-14T09:57:21Z</time>
      </trkpt>
      <trkpt lat="48.37731" lon="2.0297">
        <ele>138.6</ele>
        <time>2023-12-14T09:57:22Z</time>
      </trkpt>
      <trkpt lat="48.37727" lon="2.02975">
        <ele>138.8</ele>
        <time>2023-12-14T09:57:23Z</time>
      </trkpt>
      <trkpt lat="48.37722" lon="2.02979">
        <ele>139.2</ele>
        <time>2023-12-14T09:57:24Z</time>
      </trkpt>
      <trkpt lat="48.37716" lon="2.02984">
        <ele>139.2</ele>
        <time>2023-12-14T09:57:25Z</time>
      </trkpt>
      <trkpt lat="48.37711" lon="2.02988">
        <ele>139.2</ele>
        <time>2023-12-14T09:57:26Z</time>
      </trkpt>
      <trkpt lat="48.37706" lon="2.02993">
        <ele>139.6</ele>
        <time>2023-12-14T09:57:27Z</time>
      </trkpt>
      <trkpt lat="48.37701" lon="2.02998">
        <ele>139.4</ele>
        <time>2023-12-14T09:57:28Z</time>
      </trkpt>
      <trkpt lat="48.37696" lon="2.03002">
        <ele>139.4</ele>
        <time>2023-12-14T09:57:29Z</time>
      </trkpt>
      <trkpt lat="48.37691" lon="2.03007">
        <ele>139.4</ele>
        <time>2023-12-14T09:57:30Z</time>
      </trkpt>
      <trkpt lat="48.37685" lon="2.03011">
        <ele>139.4</ele>
        <time>2023-12-14T09:57:31Z</time>
      </trkpt>
      <trkpt lat="48.3768" lon="2.03015">
        <ele>139.6</ele>
        <time>2023-12-14T09:57:32Z</time>
      </trkpt>
      <trkpt lat="48.37674" lon="2.03019">
        <ele>139.6</ele>
        <time>2023-12-14T09:57:33Z</time>
      </trkpt>
      <trkpt lat="48.37669" lon="2.03023">
        <ele>139.6</ele>
        <time>2023-12-14T09:57:34Z</time>
      </trkpt>
      <trkpt lat="48.37663" lon="2.03026">
        <ele>139.6</ele>
        <time>2023-12-14T09:57:35Z</time>
      </trkpt>
      <trkpt lat="48.37658" lon="2.0303">
        <ele>139.2</ele>
        <time>2023-12-14T09:57:36Z</time>
      </trkpt>
      <trkpt lat="48.37652" lon="2.03033">
        <ele>139.2</ele>
        <time>2023-12-14T09:57:37Z</time>
      </trkpt>
      <trkpt lat="48.37647" lon="2.03037">
        <ele>139.2</ele>
        <time>2023-12-14T09:57:38Z</time>
      </trkpt>
      <trkpt lat="48.37641" lon="2.0304">
        <ele>140</ele>
        <time>2023-12-14T09:57:39Z</time>
      </trkpt>
      <trkpt lat="48.37636" lon="2.03044">
        <ele>139.8</ele>
        <time>2023-12-14T09:57:40Z</time>
      </trkpt>
      <trkpt lat="48.3763" lon="2.03047">
        <ele>139.8</ele>
        <time>2023-12-14T09:57:41Z</time>
      </trkpt>
      <trkpt lat="48.37625" lon="2.0305">
        <ele>139.8</ele>
        <time>2023-12-14T09:57:42Z</time>
      </trkpt>
      <trkpt lat="48.37619" lon="2.03054">
        <ele>139.8</ele>
        <time>2023-12-14T09:57:43Z</time>
      </trkpt>
      <trkpt lat="48.37613" lon="2.03057">
        <ele>140.2</ele>
        <time>2023-12-14T09:57:44Z</time>
      </trkpt>
      <trkpt lat="48.37608" lon="2.0306">
        <ele>140.2</ele>
        <time>2023-12-14T09:57:45Z</time>
      </trkpt>
      <trkpt lat="48.37602" lon="2.03063">
        <ele>140.2</ele>
        <time>2023-12-14T09:57:46Z</time>
      </trkpt>
      <trkpt lat="48.37596" lon="2.03067">
        <ele>140.2</ele>
        <time>2023-12-14T09:57:47Z</time>
      </trkpt>
      <trkpt lat="48.3759" lon="2.0307">
        <ele>139.8</ele>
        <time>2023-12-14T09:57:48Z</time>
      </trkpt>
      <trkpt lat="48.37585" lon="2.03073">
        <ele>139.8</ele>
        <time>2023-12-14T09:57:49Z</time>
      </trkpt>
      <trkpt lat="48.37579" lon="2.03077">
        <ele>139.8</ele>
        <time>2023-12-14T09:57:50Z</time>
      </trkpt>
      <trkpt lat="48.37573" lon="2.0308">
        <ele>139.8</ele>
        <time>2023-12-14T09:57:51Z</time>
      </trkpt>
      <trkpt lat="48.37567" lon="2.03083">
        <ele>139.6</ele>
        <time>2023-12-14T09:57:52Z</time>
      </trkpt>
      <trkpt lat="48.37561" lon="2.03087">
        <ele>139.6</ele>
        <time>2023-12-14T09:57:53Z</time>
      </trkpt>
      <trkpt lat="48.37556" lon="2.03091">
        <ele>139.6</ele>
        <time>2023-12-14T09:57:54Z</time>
      </trkpt>
      <trkpt lat="48.3755" lon="2.03094">
        <ele>139.8</ele>
        <time>2023-12-14T09:57:55Z</time>
      </trkpt>
      <trkpt lat="48.37544" lon="2.03097">
        <ele>139.6</ele>
        <time>2023-12-14T09:57:56Z</time>
      </trkpt>
      <trkpt lat="48.37538" lon="2.031">
        <ele>139.6</ele>
        <time>2023-12-14T09:57:57Z</time>
      </trkpt>
      <trkpt lat="48.37532" lon="2.03104">
        <ele>139.6</ele>
        <time>2023-12-14T09:57:58Z</time>
      </trkpt>
      <trkpt lat="48.37526" lon="2.03107">
        <ele>139.6</ele>
        <time>2023-12-14T09:57:59Z</time>
      </trkpt>
      <trkpt lat="48.3752" lon="2.03111">
        <ele>139.6</ele>
        <time>2023-12-14T09:58:00Z</time>
      </trkpt>
      <trkpt lat="48.37515" lon="2.03114">
        <ele>140.2</ele>
        <time>2023-12-14T09:58:01Z</time>
      </trkpt>
      <trkpt lat="48.37509" lon="2.03117">
        <ele>140.2</ele>
        <time>2023-12-14T09:58:02Z</time>
      </trkpt>
      <trkpt lat="48.37503" lon="2.03121">
        <ele>140.2</ele>
        <time>2023-12-14T09:58:03Z</time>
      </trkpt>
      <trkpt lat="48.37497" lon="2.03124">
        <ele>139.6</ele>
        <time>2023-12-14T09:58:04Z</time>
      </trkpt>
      <trkpt lat="48.37491" lon="2.03128">
        <ele>139.6</ele>
        <time>2023-12-14T09:58:05Z</time>
      </trkpt>
      <trkpt lat="48.37485" lon="2.03132">
        <ele>139.6</ele>
        <time>2023-12-14T09:58:06Z</time>
      </trkpt>
      <trkpt lat="48.37479" lon="2.03135">
        <ele>140.6</ele>
        <time>2023-12-14T09:58:07Z</time>
      </trkpt>
      <trkpt lat="48.37473" lon="2.03138">
        <ele>140.6</ele>
        <time>2023-12-14T09:58:08Z</time>
      </trkpt>
      <trkpt lat="48.37467" lon="2.03142">
        <ele>140.6</ele>
        <time>2023-12-14T09:58:09Z</time>
      </trkpt>
      <trkpt lat="48.37461" lon="2.03145">
        <ele>140.6</ele>
        <time>2023-12-14T09:58:10Z</time>
      </trkpt>
      <trkpt lat="48.37455" lon="2.03149">
        <ele>140.6</ele>
        <time>2023-12-14T09:58:11Z</time>
      </trkpt>
      <trkpt lat="48.37449" lon="2.03152">
        <ele>141</ele>
        <time>2023-12-14T09:58:12Z</time>
      </trkpt>
      <trkpt lat="48.37443" lon="2.03156">
        <ele>141</ele>
        <time>2023-12-14T09:58:13Z</time>
      </trkpt>
      <trkpt lat="48.37437" lon="2.03159">
        <ele>141</ele>
        <time>2023-12-14T09:58:14Z</time>
      </trkpt>
      <trkpt lat="48.37431" lon="2.03162">
        <ele>141</ele>
        <time>2023-12-14T09:58:15Z</time>
      </trkpt>
      <trkpt lat="48.37425" lon="2.03166">
        <ele>141.2</ele>
        <time>2023-12-14T09:58:16Z</time>
      </trkpt>
      <trkpt lat="48.3742" lon="2.0317">
        <ele>141.2</ele>
        <time>2023-12-14T09:58:17Z</time>
      </trkpt>
      <trkpt lat="48.37414" lon="2.03174">
        <ele>141.2</ele>
        <time>2023-12-14T09:58:18Z</time>
      </trkpt>
      <trkpt lat="48.37407" lon="2.03178">
        <ele>140.6</ele>
        <time>2023-12-14T09:58:19Z</time>
      </trkpt>
      <trkpt lat="48.37401" lon="2.03183">
        <ele>140.2</ele>
        <time>2023-12-14T09:58:20Z</time>
      </trkpt>
      <trkpt lat="48.37395" lon="2.03187">
        <ele>140.2</ele>
        <time>2023-12-14T09:58:21Z</time>
      </trkpt>
      <trkpt lat="48.37389" lon="2.03191">
        <ele>140.2</ele>
        <time>2023-12-14T09:58:22Z</time>
      </trkpt>
      <trkpt lat="48.37383" lon="2.03196">
        <ele>140.4</ele>
        <time>2023-12-14T09:58:23Z</time>
      </trkpt>
      <trkpt lat="48.37377" lon="2.03201">
        <ele>139.8</ele>
        <time>2023-12-14T09:58:24Z</time>
      </trkpt>
      <trkpt lat="48.3737" lon="2.03206">
        <ele>139.8</ele>
        <time>2023-12-14T09:58:25Z</time>
      </trkpt>
      <trkpt lat="48.37364" lon="2.03211">
        <ele>139.8</ele>
        <time>2023-12-14T09:58:26Z</time>
      </trkpt>
      <trkpt lat="48.37358" lon="2.03216">
        <ele>139.8</ele>
        <time>2023-12-14T09:58:27Z</time>
      </trkpt>
      <trkpt lat="48.37352" lon="2.0322">
        <ele>139.8</ele>
        <time>2023-12-14T09:58:28Z</time>
      </trkpt>
      <trkpt lat="48.37346" lon="2.03225">
        <ele>139.8</ele>
        <time>2023-12-14T09:58:29Z</time>
      </trkpt>
      <trkpt lat="48.37339" lon="2.0323">
        <ele>139.8</ele>
        <time>2023-12-14T09:58:30Z</time>
      </trkpt>
      <trkpt lat="48.37333" lon="2.03235">
        <ele>138.8</ele>
        <time>2023-12-14T09:58:31Z</time>
      </trkpt>
      <trkpt lat="48.37327" lon="2.03241">
        <ele>139.6</ele>
        <time>2023-12-14T09:58:32Z</time>
      </trkpt>
      <trkpt lat="48.3732" lon="2.03246">
        <ele>139.6</ele>
        <time>2023-12-14T09:58:33Z</time>
      </trkpt>
      <trkpt lat="48.37314" lon="2.03251">
        <ele>139.6</ele>
        <time>2023-12-14T09:58:34Z</time>
      </trkpt>
      <trkpt lat="48.37308" lon="2.03256">
        <ele>139.6</ele>
        <time>2023-12-14T09:58:35Z</time>
      </trkpt>
      <trkpt lat="48.37301" lon="2.03262">
        <ele>139.6</ele>
        <time>2023-12-14T09:58:36Z</time>
      </trkpt>
      <trkpt lat="48.37295" lon="2.03267">
        <ele>139.6</ele>
        <time>2023-12-14T09:58:37Z</time>
      </trkpt>
      <trkpt lat="48.37289" lon="2.03272">
        <ele>139.6</ele>
        <time>2023-12-14T09:58:38Z</time>
      </trkpt>
      <trkpt lat="48.37282" lon="2.03277">
        <ele>139</ele>
        <time>2023-12-14T09:58:39Z</time>
      </trkpt>
      <trkpt lat="48.37276" lon="2.03282">
        <ele>139.4</ele>
        <time>2023-12-14T09:58:40Z</time>
      </trkpt>
      <trkpt lat="48.3727" lon="2.03287">
        <ele>139.4</ele>
        <time>2023-12-14T09:58:41Z</time>
      </trkpt>
      <trkpt lat="48.37263" lon="2.03293">
        <ele>139.4</ele>
        <time>2023-12-14T09:58:42Z</time>
      </trkpt>
      <trkpt lat="48.37257" lon="2.03298">
        <ele>139</ele>
        <time>2023-12-14T09:58:43Z</time>
      </trkpt>
      <trkpt lat="48.3725" lon="2.03303">
        <ele>139.2</ele>
        <time>2023-12-14T09:58:44Z</time>
      </trkpt>
      <trkpt lat="48.37243" lon="2.03309">
        <ele>139.2</ele>
        <time>2023-12-14T09:58:45Z</time>
      </trkpt>
      <trkpt lat="48.37237" lon="2.03314">
        <ele>139.2</ele>
        <time>2023-12-14T09:58:46Z</time>
      </trkpt>
      <trkpt lat="48.3723" lon="2.0332">
        <ele>139.2</ele>
        <time>2023-12-14T09:58:47Z</time>
      </trkpt>
      <trkpt lat="48.37224" lon="2.03325">
        <ele>138.6</ele>
        <time>2023-12-14T09:58:48Z</time>
      </trkpt>
      <trkpt lat="48.37217" lon="2.03331">
        <ele>138.6</ele>
        <time>2023-12-14T09:58:49Z</time>
      </trkpt>
      <trkpt lat="48.37211" lon="2.03336">
        <ele>138.6</ele>
        <time>2023-12-14T09:58:50Z</time>
      </trkpt>
      <trkpt lat="48.37204" lon="2.03342">
        <ele>138.6</ele>
        <time>2023-12-14T09:58:51Z</time>
      </trkpt>
      <trkpt lat="48.37197" lon="2.03347">
        <ele>138.2</ele>
        <time>2023-12-14T09:58:52Z</time>
      </trkpt>
      <trkpt lat="48.37191" lon="2.03353">
        <ele>138.2</ele>
        <time>2023-12-14T09:58:53Z</time>
      </trkpt>
      <trkpt lat="48.37184" lon="2.03358">
        <ele>138.2</ele>
        <time>2023-12-14T09:58:54Z</time>
      </trkpt>
      <trkpt lat="48.37177" lon="2.03363">
        <ele>138.2</ele>
        <time>2023-12-14T09:58:55Z</time>
      </trkpt>
      <trkpt lat="48.37171" lon="2.03369">
        <ele>138.4</ele>
        <time>2023-12-14T09:58:56Z</time>
      </trkpt>
      <trkpt lat="48.37164" lon="2.03374">
        <ele>138.4</ele>
        <time>2023-12-14T09:58:57Z</time>
      </trkpt>
      <trkpt lat="48.37157" lon="2.0338">
        <ele>138.4</ele>
        <time>2023-12-14T09:58:58Z</time>
      </trkpt>
      <trkpt lat="48.3715" lon="2.03385">
        <ele>138</ele>
        <time>2023-12-14T09:58:59Z</time>
      </trkpt>
      <trkpt lat="48.37143" lon="2.03391">
        <ele>137.6</ele>
        <time>2023-12-14T09:59:00Z</time>
      </trkpt>
      <trkpt lat="48.37136" lon="2.03396">
        <ele>137.6</ele>
        <time>2023-12-14T09:59:01Z</time>
      </trkpt>
      <trkpt lat="48.3713" lon="2.03402">
        <ele>137.6</ele>
        <time>2023-12-14T09:59:02Z</time>
      </trkpt>
      <trkpt lat="48.37123" lon="2.03407">
        <ele>137.8</ele>
        <time>2023-12-14T09:59:03Z</time>
      </trkpt>
      <trkpt lat="48.37116" lon="2.03412">
        <ele>137.4</ele>
        <time>2023-12-14T09:59:04Z</time>
      </trkpt>
      <trkpt lat="48.37109" lon="2.03417">
        <ele>137.4</ele>
        <time>2023-12-14T09:59:05Z</time>
      </trkpt>
      <trkpt lat="48.37102" lon="2.03422">
        <ele>137.4</ele>
        <time>2023-12-14T09:59:06Z</time>
      </trkpt>
      <trkpt lat="48.37095" lon="2.03427">
        <ele>138.2</ele>
        <time>2023-12-14T09:59:07Z</time>
      </trkpt>
      <trkpt lat="48.37087" lon="2.03432">
        <ele>137.6</ele>
        <time>2023-12-14T09:59:08Z</time>
      </trkpt>
      <trkpt lat="48.3708" lon="2.03437">
        <ele>137.6</ele>
        <time>2023-12-14T09:59:09Z</time>
      </trkpt>
      <trkpt lat="48.37073" lon="2.03441">
        <ele>137.6</ele>
        <time>2023-12-14T09:59:10Z</time>
      </trkpt>
      <trkpt lat="48.37065" lon="2.03446">
        <ele>137.6</ele>
        <time>2023-12-14T09:59:11Z</time>
      </trkpt>
      <trkpt lat="48.37058" lon="2.0345">
        <ele>137.8</ele>
        <time>2023-12-14T09:59:12Z</time>
      </trkpt>
      <trkpt lat="48.37051" lon="2.03454">
        <ele>137.8</ele>
        <time>2023-12-14T09:59:13Z</time>
      </trkpt>
      <trkpt lat="48.37043" lon="2.03459">
        <ele>137.8</ele>
        <time>2023-12-14T09:59:14Z</time>
      </trkpt>
      <trkpt lat="48.37036" lon="2.03463">
        <ele>137.4</ele>
        <time>2023-12-14T09:59:15Z</time>
      </trkpt>
      <trkpt lat="48.37028" lon="2.03466">
        <ele>137.6</ele>
        <time>2023-12-14T09:59:16Z</time>
      </trkpt>
      <trkpt lat="48.37021" lon="2.0347">
        <ele>137.6</ele>
        <time>2023-12-14T09:59:17Z</time>
      </trkpt>
      <trkpt lat="48.37013" lon="2.03473">
        <ele>137.6</ele>
        <time>2023-12-14T09:59:18Z</time>
      </trkpt>
      <trkpt lat="48.37005" lon="2.03476">
        <ele>137.2</ele>
        <time>2023-12-14T09:59:19Z</time>
      </trkpt>
      <trkpt lat="48.36997" lon="2.03479">
        <ele>137.2</ele>
        <time>2023-12-14T09:59:20Z</time>
      </trkpt>
      <trkpt lat="48.3699" lon="2.03482">
        <ele>137.2</ele>
        <time>2023-12-14T09:59:21Z</time>
      </trkpt>
      <trkpt lat="48.36982" lon="2.03486">
        <ele>137.2</ele>
        <time>2023-12-14T09:59:22Z</time>
      </trkpt>
      <trkpt lat="48.36974" lon="2.03489">
        <ele>137</ele>
        <time>2023-12-14T09:59:23Z</time>
      </trkpt>
      <trkpt lat="48.36966" lon="2.03492">
        <ele>136.6</ele>
        <time>2023-12-14T09:59:24Z</time>
      </trkpt>
      <trkpt lat="48.36958" lon="2.03495">
        <ele>136.6</ele>
        <time>2023-12-14T09:59:25Z</time>
      </trkpt>
      <trkpt lat="48.3695" lon="2.03498">
        <ele>136.6</ele>
        <time>2023-12-14T09:59:26Z</time>
      </trkpt>
      <trkpt lat="48.36942" lon="2.035">
        <ele>137</ele>
        <time>2023-12-14T09:59:27Z</time>
      </trkpt>
      <trkpt lat="48.36934" lon="2.03503">
        <ele>137</ele>
        <time>2023-12-14T09:59:28Z</time>
      </trkpt>
      <trkpt lat="48.36926" lon="2.03506">
        <ele>137</ele>
        <time>2023-12-14T09:59:29Z</time>
      </trkpt>
      <trkpt lat="48.36919" lon="2.03509">
        <ele>137</ele>
        <time>2023-12-14T09:59:30Z</time>
      </trkpt>
      <trkpt lat="48.36911" lon="2.03512">
        <ele>136.6</ele>
        <time>2023-12-14T09:59:31Z</time>
      </trkpt>
      <trkpt lat="48.36903" lon="2.03515">
        <ele>136.6</ele>
        <time>2023-12-14T09:59:32Z</time>
      </trkpt>
      <trkpt lat="48.36895" lon="2.03518">
        <ele>136.6</ele>
        <time>2023-12-14T09:59:33Z</time>
      </trkpt>
      <trkpt lat="48.36887" lon="2.03521">
        <ele>136.6</ele>
        <time>2023-12-14T09:59:34Z</time>
      </trkpt>
      <trkpt lat="48.3688" lon="2.03524">
        <ele>136.6</ele>
        <time>2023-12-14T09:59:35Z</time>
      </trkpt>
      <trkpt lat="48.36872" lon="2.03527">
        <ele>137</ele>
        <time>2023-12-14T09:59:36Z</time>
      </trkpt>
      <trkpt lat="48.36865" lon="2.03529">
        <ele>137</ele>
        <time>2023-12-14T09:59:37Z</time>
      </trkpt>
      <trkpt lat="48.36857" lon="2.03532">
        <ele>137</ele>
        <time>2023-12-14T09:59:38Z</time>
      </trkpt>
      <trkpt lat="48.36849" lon="2.03535">
        <ele>137</ele>
        <time>2023-12-14T09:59:39Z</time>
      </trkpt>
      <trkpt lat="48.36842" lon="2.03538">
        <ele>136.6</ele>
        <time>2023-12-14T09:59:40Z</time>
      </trkpt>
      <trkpt lat="48.36834" lon="2.0354">
        <ele>136.6</ele>
        <time>2023-12-14T09:59:41Z</time>
      </trkpt>
      <trkpt lat="48.36827" lon="2.03543">
        <ele>136.6</ele>
        <time>2023-12-14T09:59:42Z</time>
      </trkpt>
      <trkpt lat="48.3682" lon="2.03546">
        <ele>137.4</ele>
        <time>2023-12-14T09:59:43Z</time>
      </trkpt>
      <trkpt lat="48.36812" lon="2.03549">
        <ele>137.2</ele>
        <time>2023-12-14T09:59:44Z</time>
      </trkpt>
      <trkpt lat="48.36805" lon="2.03552">
        <ele>137.2</ele>
        <time>2023-12-14T09:59:45Z</time>
      </trkpt>
      <trkpt lat="48.36797" lon="2.03555">
        <ele>137.2</ele>
        <time>2023-12-14T09:59:46Z</time>
      </trkpt>
      <trkpt lat="48.3679" lon="2.03557">
        <ele>137.2</ele>
        <time>2023-12-14T09:59:47Z</time>
      </trkpt>
      <trkpt lat="48.36783" lon="2.0356">
        <ele>137.6</ele>
        <time>2023-12-14T09:59:48Z</time>
      </trkpt>
      <trkpt lat="48.36775" lon="2.03563">
        <ele>137.6</ele>
        <time>2023-12-14T09:59:49Z</time>
      </trkpt>
      <trkpt lat="48.36768" lon="2.03566">
        <ele>137.6</ele>
        <time>2023-12-14T09:59:50Z</time>
      </trkpt>
      <trkpt lat="48.36761" lon="2.03569">
        <ele>137</ele>
        <time>2023-12-14T09:59:51Z</time>
      </trkpt>
      <trkpt lat="48.36753" lon="2.03571">
        <ele>136.8</ele>
        <time>2023-12-14T09:59:52Z</time>
      </trkpt>
      <trkpt lat="48.36746" lon="2.03574">
        <ele>136.8</ele>
        <time>2023-12-14T09:59:53Z</time>
      </trkpt>
      <trkpt lat="48.36739" lon="2.03577">
        <ele>136.8</ele>
        <time>2023-12-14T09:59:54Z</time>
      </trkpt>
      <trkpt lat="48.36731" lon="2.0358">
        <ele>136.8</ele>
        <time>2023-12-14T09:59:55Z</time>
      </trkpt>
      <trkpt lat="48.36724" lon="2.03582">
        <ele>136.8</ele>
        <time>2023-12-14T09:59:56Z</time>
      </trkpt>
      <trkpt lat="48.36717" lon="2.03585">
        <ele>136.8</ele>
        <time>2023-12-14T09:59:57Z</time>
      </trkpt>
      <trkpt lat="48.36709" lon="2.03588">
        <ele>136.8</ele>
        <time>2023-12-14T09:59:58Z</time>
      </trkpt>
      <trkpt lat="48.36702" lon="2.03591">
        <ele>136.8</ele>
        <time>2023-12-14T09:59:59Z</time>
      </trkpt>
      <trkpt lat="48.36695" lon="2.03594">
        <ele>137.4</ele>
        <time>2023-12-14T10:00:00Z</time>
      </trkpt>
      <trkpt lat="48.36687" lon="2.03597">
        <ele>137.4</ele>
        <time>2023-12-14T10:00:01Z</time>
      </trkpt>
      <trkpt lat="48.3668" lon="2.036">
        <ele>137.4</ele>
        <time>2023-12-14T10:00:02Z</time>
      </trkpt>
      <trkpt lat="48.36672" lon="2.03603">
        <ele>136.4</ele>
        <time>2023-12-14T10:00:03Z</time>
      </trkpt>
      <trkpt lat="48.36665" lon="2.03606">
        <ele>136.6</ele>
        <time>2023-12-14T10:00:04Z</time>
      </trkpt>
      <trkpt lat="48.36657" lon="2.0361">
        <ele>136.6</ele>
        <time>2023-12-14T10:00:05Z</time>
      </trkpt>
      <trkpt lat="48.3665" lon="2.03614">
        <ele>136.6</ele>
        <time>2023-12-14T10:00:06Z</time>
      </trkpt>
      <trkpt lat="48.36643" lon="2.03618">
        <ele>136.4</ele>
        <time>2023-12-14T10:00:07Z</time>
      </trkpt>
      <trkpt lat="48.36635" lon="2.03622">
        <ele>136.2</ele>
        <time>2023-12-14T10:00:08Z</time>
      </trkpt>
      <trkpt lat="48.36628" lon="2.03626">
        <ele>136.2</ele>
        <time>2023-12-14T10:00:09Z</time>
      </trkpt>
      <trkpt lat="48.3662" lon="2.03631">
        <ele>136.2</ele>
        <time>2023-12-14T10:00:10Z</time>
      </trkpt>
      <trkpt lat="48.36613" lon="2.03636">
        <ele>135.8</ele>
        <time>2023-12-14T10:00:11Z</time>
      </trkpt>
      <trkpt lat="48.36606" lon="2.03641">
        <ele>136</ele>
        <time>2023-12-14T10:00:12Z</time>
      </trkpt>
      <trkpt lat="48.36598" lon="2.03646">
        <ele>136</ele>
        <time>2023-12-14T10:00:13Z</time>
      </trkpt>
      <trkpt lat="48.36591" lon="2.03651">
        <ele>136</ele>
        <time>2023-12-14T10:00:14Z</time>
      </trkpt>
      <trkpt lat="48.36583" lon="2.03657">
        <ele>135</ele>
        <time>2023-12-14T10:00:15Z</time>
      </trkpt>
      <trkpt lat="48.36576" lon="2.03662">
        <ele>134.4</ele>
        <time>2023-12-14T10:00:16Z</time>
      </trkpt>
      <trkpt lat="48.36569" lon="2.03668">
        <ele>134.4</ele>
        <time>2023-12-14T10:00:17Z</time>
      </trkpt>
      <trkpt lat="48.36561" lon="2.03673">
        <ele>134.4</ele>
        <time>2023-12-14T10:00:18Z</time>
      </trkpt>
      <trkpt lat="48.36554" lon="2.03679">
        <ele>134.4</ele>
        <time>2023-12-14T10:00:19Z</time>
      </trkpt>
      <trkpt lat="48.36546" lon="2.03684">
        <ele>134.6</ele>
        <time>2023-12-14T10:00:20Z</time>
      </trkpt>
      <trkpt lat="48.36539" lon="2.03689">
        <ele>134.6</ele>
        <time>2023-12-14T10:00:21Z</time>
      </trkpt>
      <trkpt lat="48.36531" lon="2.03695">
        <ele>134.6</ele>
        <time>2023-12-14T10:00:22Z</time>
      </trkpt>
      <trkpt lat="48.36523" lon="2.03701">
        <ele>134.6</ele>
        <time>2023-12-14T10:00:23Z</time>
      </trkpt>
      <trkpt lat="48.36516" lon="2.03706">
        <ele>134.6</ele>
        <time>2023-12-14T10:00:24Z</time>
      </trkpt>
      <trkpt lat="48.36508" lon="2.03712">
        <ele>134.6</ele>
        <time>2023-12-14T10:00:25Z</time>
      </trkpt>
      <trkpt lat="48.36501" lon="2.03718">
        <ele>134.6</ele>
        <time>2023-12-14T10:00:26Z</time>
      </trkpt>
      <trkpt lat="48.36493" lon="2.03723">
        <ele>134.2</ele>
        <time>2023-12-14T10:00:27Z</time>
      </trkpt>
      <trkpt lat="48.36485" lon="2.03729">
        <ele>134.2</ele>
        <time>2023-12-14T10:00:28Z</time>
      </trkpt>
      <trkpt lat="48.36477" lon="2.03735">
        <ele>134.2</ele>
        <time>2023-12-14T10:00:29Z</time>
      </trkpt>
      <trkpt lat="48.3647" lon="2.03741">
        <ele>134.2</ele>
        <time>2023-12-14T10:00:30Z</time>
      </trkpt>
      <trkpt lat="48.36462" lon="2.03746">
        <ele>133.2</ele>
        <time>2023-12-14T10:00:31Z</time>
      </trkpt>
      <trkpt lat="48.36454" lon="2.03752">
        <ele>133.2</ele>
        <time>2023-12-14T10:00:32Z</time>
      </trkpt>
      <trkpt lat="48.36446" lon="2.03758">
        <ele>133.2</ele>
        <time>2023-12-14T10:00:33Z</time>
      </trkpt>
      <trkpt lat="48.36438" lon="2.03763">
        <ele>133.2</ele>
        <time>2023-12-14T10:00:34Z</time>
      </trkpt>
      <trkpt lat="48.36431" lon="2.03769">
        <ele>133.2</ele>
        <time>2023-12-14T10:00:35Z</time>
      </trkpt>
      <trkpt lat="48.36423" lon="2.03775">
        <ele>133.2</ele>
        <time>2023-12-14T10:00:36Z</time>
      </trkpt>
      <trkpt lat="48.36416" lon="2.03781">
        <ele>133.2</ele>
        <time>2023-12-14T10:00:37Z</time>
      </trkpt>
      <trkpt lat="48.36409" lon="2.03787">
        <ele>133.2</ele>
        <time>2023-12-14T10:00:38Z</time>
      </trkpt>
      <trkpt lat="48.36402" lon="2.03794">
        <ele>133.2</ele>
        <time>2023-12-14T10:00:39Z</time>
      </trkpt>
      <trkpt lat="48.36395" lon="2.038">
        <ele>133.6</ele>
        <time>2023-12-14T10:00:40Z</time>
      </trkpt>
      <trkpt lat="48.36388" lon="2.03807">
        <ele>133.6</ele>
        <time>2023-12-14T10:00:41Z</time>
      </trkpt>
      <trkpt lat="48.36381" lon="2.03814">
        <ele>133.6</ele>
        <time>2023-12-14T10:00:42Z</time>
      </trkpt>
      <trkpt lat="48.36375" lon="2.03821">
        <ele>134</ele>
        <time>2023-12-14T10:00:43Z</time>
      </trkpt>
      <trkpt lat="48.36369" lon="2.03828">
        <ele>134.6</ele>
        <time>2023-12-14T10:00:44Z</time>
      </trkpt>
      <trkpt lat="48.36362" lon="2.03834">
        <ele>134.6</ele>
        <time>2023-12-14T10:00:45Z</time>
      </trkpt>
      <trkpt lat="48.36356" lon="2.03841">
        <ele>134.6</ele>
        <time>2023-12-14T10:00:46Z</time>
      </trkpt>
      <trkpt lat="48.3635" lon="2.03848">
        <ele>134.2</ele>
        <time>2023-12-14T10:00:47Z</time>
      </trkpt>
      <trkpt lat="48.36344" lon="2.03855">
        <ele>134.6</ele>
        <time>2023-12-14T10:00:48Z</time>
      </trkpt>
      <trkpt lat="48.36338" lon="2.03863">
        <ele>134.6</ele>
        <time>2023-12-14T10:00:49Z</time>
      </trkpt>
      <trkpt lat="48.36332" lon="2.03869">
        <ele>134.6</ele>
        <time>2023-12-14T10:00:50Z</time>
      </trkpt>
      <trkpt lat="48.36326" lon="2.03877">
        <ele>134.6</ele>
        <time>2023-12-14T10:00:51Z</time>
      </trkpt>
      <trkpt lat="48.36321" lon="2.03884">
        <ele>135.2</ele>
        <time>2023-12-14T10:00:52Z</time>
      </trkpt>
      <trkpt lat="48.36315" lon="2.03891">
        <ele>135.2</ele>
        <time>2023-12-14T10:00:53Z</time>
      </trkpt>
      <trkpt lat="48.36309" lon="2.03898">
        <ele>135.2</ele>
        <time>2023-12-14T10:00:54Z</time>
      </trkpt>
      <trkpt lat="48.36303" lon="2.03905">
        <ele>135.2</ele>
        <time>2023-12-14T10:00:55Z</time>
      </trkpt>
      <trkpt lat="48.36297" lon="2.03912">
        <ele>135.2</ele>
        <time>2023-12-14T10:00:56Z</time>
      </trkpt>
      <trkpt lat="48.36292" lon="2.03919">
        <ele>135.2</ele>
        <time>2023-12-14T10:00:57Z</time>
      </trkpt>
      <trkpt lat="48.36286" lon="2.03926">
        <ele>135.2</ele>
        <time>2023-12-14T10:00:58Z</time>
      </trkpt>
      <trkpt lat="48.3628" lon="2.03933">
        <ele>134.8</ele>
        <time>2023-12-14T10:00:59Z</time>
      </trkpt>
      <trkpt lat="48.36275" lon="2.0394">
        <ele>134.4</ele>
        <time>2023-12-14T10:01:00Z</time>
      </trkpt>
      <trkpt lat="48.36269" lon="2.03947">
        <ele>134.4</ele>
        <time>2023-12-14T10:01:01Z</time>
      </trkpt>
      <trkpt lat="48.36263" lon="2.03954">
        <ele>134.4</ele>
        <time>2023-12-14T10:01:02Z</time>
      </trkpt>
      <trkpt lat="48.36258" lon="2.03961">
        <ele>134.4</ele>
        <time>2023-12-14T10:01:03Z</time>
      </trkpt>
      <trkpt lat="48.36252" lon="2.03968">
        <ele>135</ele>
        <time>2023-12-14T10:01:04Z</time>
      </trkpt>
      <trkpt lat="48.36246" lon="2.03975">
        <ele>135</ele>
        <time>2023-12-14T10:01:05Z</time>
      </trkpt>
      <trkpt lat="48.36241" lon="2.03982">
        <ele>135</ele>
        <time>2023-12-14T10:01:06Z</time>
      </trkpt>
      <trkpt lat="48.36235" lon="2.03989">
        <ele>135</ele>
        <time>2023-12-14T10:01:07Z</time>
      </trkpt>
      <trkpt lat="48.36229" lon="2.03996">
        <ele>135</ele>
        <time>2023-12-14T10:01:08Z</time>
      </trkpt>
      <trkpt lat="48.36223" lon="2.04003">
        <ele>135</ele>
        <time>2023-12-14T10:01:09Z</time>
      </trkpt>
      <trkpt lat="48.36218" lon="2.0401">
        <ele>135</ele>
        <time>2023-12-14T10:01:10Z</time>
      </trkpt>
      <trkpt lat="48.36212" lon="2.04017">
        <ele>135</ele>
        <time>2023-12-14T10:01:11Z</time>
      </trkpt>
      <trkpt lat="48.36206" lon="2.04023">
        <ele>135</ele>
        <time>2023-12-14T10:01:12Z</time>
      </trkpt>
      <trkpt lat="48.36201" lon="2.0403">
        <ele>135</ele>
        <time>2023-12-14T10:01:13Z</time>
      </trkpt>
      <trkpt lat="48.36196" lon="2.04037">
        <ele>135</ele>
        <time>2023-12-14T10:01:14Z</time>
      </trkpt>
      <trkpt lat="48.3619" lon="2.04043">
        <ele>135.2</ele>
        <time>2023-12-14T10:01:15Z</time>
      </trkpt>
      <trkpt lat="48.36185" lon="2.04049">
        <ele>135.2</ele>
        <time>2023-12-14T10:01:16Z</time>
      </trkpt>
      <trkpt lat="48.3618" lon="2.04056">
        <ele>135.2</ele>
        <time>2023-12-14T10:01:17Z</time>
      </trkpt>
      <trkpt lat="48.36175" lon="2.04062">
        <ele>135.2</ele>
        <time>2023-12-14T10:01:18Z</time>
      </trkpt>
      <trkpt lat="48.3617" lon="2.04068">
        <ele>135.2</ele>
        <time>2023-12-14T10:01:19Z</time>
      </trkpt>
      <trkpt lat="48.36165" lon="2.04074">
        <ele>136</ele>
        <time>2023-12-14T10:01:20Z</time>
      </trkpt>
      <trkpt lat="48.3616" lon="2.04079">
        <ele>136</ele>
        <time>2023-12-14T10:01:21Z</time>
      </trkpt>
      <trkpt lat="48.36156" lon="2.04085">
        <ele>136</ele>
        <time>2023-12-14T10:01:22Z</time>
      </trkpt>
      <trkpt lat="48.36151" lon="2.0409">
        <ele>136</ele>
        <time>2023-12-14T10:01:23Z</time>
      </trkpt>
      <trkpt lat="48.36146" lon="2.04095">
        <ele>135.2</ele>
        <time>2023-12-14T10:01:24Z</time>
      </trkpt>
      <trkpt lat="48.36141" lon="2.04101">
        <ele>135.2</ele>
        <time>2023-12-14T10:01:25Z</time>
      </trkpt>
      <trkpt lat="48.36137" lon="2.04107">
        <ele>135.2</ele>
        <time>2023-12-14T10:01:26Z</time>
      </trkpt>
      <trkpt lat="48.36133" lon="2.04112">
        <ele>135</ele>
        <time>2023-12-14T10:01:27Z</time>
      </trkpt>
      <trkpt lat="48.36128" lon="2.04118">
        <ele>135</ele>
        <time>2023-12-14T10:01:28Z</time>
      </trkpt>
      <trkpt lat="48.36123" lon="2.04124">
        <ele>135</ele>
        <time>2023-12-14T10:01:29Z</time>
      </trkpt>
      <trkpt lat="48.36118" lon="2.0413">
        <ele>135</ele>
        <time>2023-12-14T10:01:30Z</time>
      </trkpt>
      <trkpt lat="48.36113" lon="2.04136">
        <ele>135</ele>
        <time>2023-12-14T10:01:31Z</time>
      </trkpt>
      <trkpt lat="48.36108" lon="2.04142">
        <ele>134.2</ele>
        <time>2023-12-14T10:01:32Z</time>
      </trkpt>
      <trkpt lat="48.36103" lon="2.04148">
        <ele>134.2</ele>
        <time>2023-12-14T10:01:33Z</time>
      </trkpt>
      <trkpt lat="48.36098" lon="2.04154">
        <ele>134.2</ele>
        <time>2023-12-14T10:01:34Z</time>
      </trkpt>
      <trkpt lat="48.36093" lon="2.0416">
        <ele>133.2</ele>
        <time>2023-12-14T10:01:35Z</time>
      </trkpt>
      <trkpt lat="48.36088" lon="2.04167">
        <ele>133</ele>
        <time>2023-12-14T10:01:36Z</time>
      </trkpt>
      <trkpt lat="48.36083" lon="2.04173">
        <ele>133</ele>
        <time>2023-12-14T10:01:37Z</time>
      </trkpt>
      <trkpt lat="48.36078" lon="2.0418">
        <ele>133</ele>
        <time>2023-12-14T10:01:38Z</time>
      </trkpt>
      <trkpt lat="48.36073" lon="2.04187">
        <ele>132.6</ele>
        <time>2023-12-14T10:01:39Z</time>
      </trkpt>
      <trkpt lat="48.36068" lon="2.04194">
        <ele>132.4</ele>
        <time>2023-12-14T10:01:40Z</time>
      </trkpt>
      <trkpt lat="48.36063" lon="2.04201">
        <ele>132.4</ele>
        <time>2023-12-14T10:01:41Z</time>
      </trkpt>
      <trkpt lat="48.36058" lon="2.04209">
        <ele>132.4</ele>
        <time>2023-12-14T10:01:42Z</time>
      </trkpt>
      <trkpt lat="48.36053" lon="2.04216">
        <ele>132.4</ele>
        <time>2023-12-14T10:01:43Z</time>
      </trkpt>
      <trkpt lat="48.36048" lon="2.04224">
        <ele>131.6</ele>
        <time>2023-12-14T10:01:44Z</time>
      </trkpt>
      <trkpt lat="48.36043" lon="2.04233">
        <ele>131.6</ele>
        <time>2023-12-14T10:01:45Z</time>
      </trkpt>
      <trkpt lat="48.36037" lon="2.04241">
        <ele>131.6</ele>
        <time>2023-12-14T10:01:46Z</time>
      </trkpt>
      <trkpt lat="48.36032" lon="2.0425">
        <ele>131</ele>
        <time>2023-12-14T10:01:47Z</time>
      </trkpt>
      <trkpt lat="48.36027" lon="2.04259">
        <ele>131</ele>
        <time>2023-12-14T10:01:48Z</time>
      </trkpt>
      <trkpt lat="48.36021" lon="2.04268">
        <ele>131</ele>
        <time>2023-12-14T10:01:49Z</time>
      </trkpt>
      <trkpt lat="48.36016" lon="2.04277">
        <ele>131</ele>
        <time>2023-12-14T10:01:50Z</time>
      </trkpt>
      <trkpt lat="48.3601" lon="2.04286">
        <ele>130</ele>
        <time>2023-12-14T10:01:51Z</time>
      </trkpt>
      <trkpt lat="48.36005" lon="2.04296">
        <ele>130.2</ele>
        <time>2023-12-14T10:01:52Z</time>
      </trkpt>
      <trkpt lat="48.35999" lon="2.04305">
        <ele>130.2</ele>
        <time>2023-12-14T10:01:53Z</time>
      </trkpt>
      <trkpt lat="48.35993" lon="2.04315">
        <ele>130.2</ele>
        <time>2023-12-14T10:01:54Z</time>
      </trkpt>
      <trkpt lat="48.35988" lon="2.04324">
        <ele>129.8</ele>
        <time>2023-12-14T10:01:55Z</time>
      </trkpt>
      <trkpt lat="48.35982" lon="2.04334">
        <ele>129.6</ele>
        <time>2023-12-14T10:01:56Z</time>
      </trkpt>
      <trkpt lat="48.35976" lon="2.04344">
        <ele>129.6</ele>
        <time>2023-12-14T10:01:57Z</time>
      </trkpt>
      <trkpt lat="48.3597" lon="2.04353">
        <ele>129.6</ele>
        <time>2023-12-14T10:01:58Z</time>
      </trkpt>
      <trkpt lat="48.35965" lon="2.04363">
        <ele>128.6</ele>
        <time>2023-12-14T10:01:59Z</time>
      </trkpt>
      <trkpt lat="48.35959" lon="2.04373">
        <ele>128</ele>
        <time>2023-12-14T10:02:00Z</time>
      </trkpt>
      <trkpt lat="48.35953" lon="2.04383">
        <ele>128</ele>
        <time>2023-12-14T10:02:01Z</time>
      </trkpt>
      <trkpt lat="48.35948" lon="2.04392">
        <ele>128</ele>
        <time>2023-12-14T10:02:02Z</time>
      </trkpt>
      <trkpt lat="48.35943" lon="2.044">
        <ele>129</ele>
        <time>2023-12-14T10:02:03Z</time>
      </trkpt>
      <trkpt lat="48.35939" lon="2.04404">
        <ele>129.4</ele>
        <time>2023-12-14T10:02:04Z</time>
      </trkpt>
      <trkpt lat="48.35935" lon="2.04405">
        <ele>129.4</ele>
        <time>2023-12-14T10:02:05Z</time>
      </trkpt>
      <trkpt lat="48.35931" lon="2.04405">
        <ele>129.4</ele>
        <time>2023-12-14T10:02:06Z</time>
      </trkpt>
      <trkpt lat="48.35928" lon="2.04402">
        <ele>129.6</ele>
        <time>2023-12-14T10:02:07Z</time>
      </trkpt>
      <trkpt lat="48.35924" lon="2.04399">
        <ele>130</ele>
        <time>2023-12-14T10:02:08Z</time>
      </trkpt>
      <trkpt lat="48.35921" lon="2.04395">
        <ele>130</ele>
        <time>2023-12-14T10:02:09Z</time>
      </trkpt>
      <trkpt lat="48.35918" lon="2.04391">
        <ele>130</ele>
        <time>2023-12-14T10:02:10Z</time>
      </trkpt>
      <trkpt lat="48.35914" lon="2.04387">
        <ele>129.8</ele>
        <time>2023-12-14T10:02:11Z</time>
      </trkpt>
      <trkpt lat="48.35911" lon="2.04383">
        <ele>129.4</ele>
        <time>2023-12-14T10:02:12Z</time>
      </trkpt>
      <trkpt lat="48.35907" lon="2.04379">
        <ele>129.4</ele>
        <time>2023-12-14T10:02:13Z</time>
      </trkpt>
      <trkpt lat="48.35903" lon="2.04374">
        <ele>129.4</ele>
        <time>2023-12-14T10:02:14Z</time>
      </trkpt>
      <trkpt lat="48.35899" lon="2.0437">
        <ele>129.4</ele>
        <time>2023-12-14T10:02:15Z</time>
      </trkpt>
      <trkpt lat="48.35895" lon="2.04366">
        <ele>129.6</ele>
        <time>2023-12-14T10:02:16Z</time>
      </trkpt>
      <trkpt lat="48.35891" lon="2.04361">
        <ele>129.6</ele>
        <time>2023-12-14T10:02:17Z</time>
      </trkpt>
      <trkpt lat="48.35887" lon="2.04357">
        <ele>129.6</ele>
        <time>2023-12-14T10:02:18Z</time>
      </trkpt>
      <trkpt lat="48.35883" lon="2.04352">
        <ele>129.6</ele>
        <time>2023-12-14T10:02:19Z</time>
      </trkpt>
      <trkpt lat="48.35879" lon="2.04347">
        <ele>130.2</ele>
        <time>2023-12-14T10:02:20Z</time>
      </trkpt>
      <trkpt lat="48.35875" lon="2.04343">
        <ele>130.2</ele>
        <time>2023-12-14T10:02:21Z</time>
      </trkpt>
      <trkpt lat="48.35871" lon="2.04338">
        <ele>130.2</ele>
        <time>2023-12-14T10:02:22Z</time>
      </trkpt>
      <trkpt lat="48.35866" lon="2.04334">
        <ele>129.6</ele>
        <time>2023-12-14T10:02:23Z</time>
      </trkpt>
      <trkpt lat="48.35862" lon="2.04329">
        <ele>130</ele>
        <time>2023-12-14T10:02:24Z</time>
      </trkpt>
      <trkpt lat="48.35858" lon="2.04324">
        <ele>130</ele>
        <time>2023-12-14T10:02:25Z</time>
      </trkpt>
      <trkpt lat="48.35853" lon="2.04319">
        <ele>130</ele>
        <time>2023-12-14T10:02:26Z</time>
      </trkpt>
      <trkpt lat="48.35849" lon="2.04314">
        <ele>130</ele>
        <time>2023-12-14T10:02:27Z</time>
      </trkpt>
      <trkpt lat="48.35845" lon="2.0431">
        <ele>130.2</ele>
        <time>2023-12-14T10:02:28Z</time>
      </trkpt>
      <trkpt lat="48.3584" lon="2.04305">
        <ele>130.2</ele>
        <time>2023-12-14T10:02:29Z</time>
      </trkpt>
      <trkpt lat="48.35836" lon="2.043">
        <ele>130.2</ele>
        <time>2023-12-14T10:02:30Z</time>
      </trkpt>
      <trkpt lat="48.35832" lon="2.04295">
        <ele>130.4</ele>
        <time>2023-12-14T10:02:31Z</time>
      </trkpt>
      <trkpt lat="48.35827" lon="2.0429">
        <ele>130.6</ele>
        <time>2023-12-14T10:02:32Z</time>
      </trkpt>
      <trkpt lat="48.35823" lon="2.04286">
        <ele>130.6</ele>
        <time>2023-12-14T10:02:33Z</time>
      </trkpt>
      <trkpt lat="48.35818" lon="2.04281">
        <ele>130.6</ele>
        <time>2023-12-14T10:02:34Z</time>
      </trkpt>
      <trkpt lat="48.35814" lon="2.04276">
        <ele>130.6</ele>
        <time>2023-12-14T10:02:35Z</time>
      </trkpt>
      <trkpt lat="48.35809" lon="2.04271">
        <ele>130.8</ele>
        <time>2023-12-14T10:02:36Z</time>
      </trkpt>
      <trkpt lat="48.35805" lon="2.04266">
        <ele>130.8</ele>
        <time>2023-12-14T10:02:37Z</time>
      </trkpt>
      <trkpt lat="48.358" lon="2.04262">
        <ele>130.8</ele>
        <time>2023-12-14T10:02:38Z</time>
      </trkpt>
      <trkpt lat="48.35796" lon="2.04257">
        <ele>131.4</ele>
        <time>2023-12-14T10:02:39Z</time>
      </trkpt>
      <trkpt lat="48.35791" lon="2.04252">
        <ele>131.4</ele>
        <time>2023-12-14T10:02:40Z</time>
      </trkpt>
      <trkpt lat="48.35786" lon="2.04247">
        <ele>131.4</ele>
        <time>2023-12-14T10:02:41Z</time>
      </trkpt>
      <trkpt lat="48.35782" lon="2.04242">
        <ele>131.4</ele>
        <time>2023-12-14T10:02:42Z</time>
      </trkpt>
      <trkpt lat="48.35777" lon="2.04238">
        <ele>131.4</ele>
        <time>2023-12-14T10:02:43Z</time>
      </trkpt>
      <trkpt lat="48.35772" lon="2.04234">
        <ele>131.8</ele>
        <time>2023-12-14T10:02:44Z</time>
      </trkpt>
      <trkpt lat="48.35767" lon="2.04229">
        <ele>131.8</ele>
        <time>2023-12-14T10:02:45Z</time>
      </trkpt>
      <trkpt lat="48.35761" lon="2.04225">
        <ele>131.8</ele>
        <time>2023-12-14T10:02:46Z</time>
      </trkpt>
      <trkpt lat="48.35756" lon="2.04222">
        <ele>131.4</ele>
        <time>2023-12-14T10:02:47Z</time>
      </trkpt>
      <trkpt lat="48.35751" lon="2.04218">
        <ele>132</ele>
        <time>2023-12-14T10:02:48Z</time>
      </trkpt>
      <trkpt lat="48.35745" lon="2.04215">
        <ele>132</ele>
        <time>2023-12-14T10:02:49Z</time>
      </trkpt>
      <trkpt lat="48.3574" lon="2.04212">
        <ele>132</ele>
        <time>2023-12-14T10:02:50Z</time>
      </trkpt>
      <trkpt lat="48.35734" lon="2.0421">
        <ele>132</ele>
        <time>2023-12-14T10:02:51Z</time>
      </trkpt>
      <trkpt lat="48.35729" lon="2.04207">
        <ele>132.2</ele>
        <time>2023-12-14T10:02:52Z</time>
      </trkpt>
      <trkpt lat="48.35723" lon="2.04205">
        <ele>132.2</ele>
        <time>2023-12-14T10:02:53Z</time>
      </trkpt>
      <trkpt lat="48.35717" lon="2.04204">
        <ele>132.2</ele>
        <time>2023-12-14T10:02:54Z</time>
      </trkpt>
      <trkpt lat="48.35711" lon="2.04203">
        <ele>133</ele>
        <time>2023-12-14T10:02:55Z</time>
      </trkpt>
      <trkpt lat="48.35705" lon="2.04202">
        <ele>132.8</ele>
        <time>2023-12-14T10:02:56Z</time>
      </trkpt>
      <trkpt lat="48.35699" lon="2.04202">
        <ele>132.8</ele>
        <time>2023-12-14T10:02:57Z</time>
      </trkpt>
      <trkpt lat="48.35693" lon="2.04201">
        <ele>132.8</ele>
        <time>2023-12-14T10:02:58Z</time>
      </trkpt>
      <trkpt lat="48.35687" lon="2.04201">
        <ele>132.8</ele>
        <time>2023-12-14T10:02:59Z</time>
      </trkpt>
      <trkpt lat="48.35681" lon="2.04201">
        <ele>133.2</ele>
        <time>2023-12-14T10:03:00Z</time>
      </trkpt>
      <trkpt lat="48.35675" lon="2.042">
        <ele>133.2</ele>
        <time>2023-12-14T10:03:01Z</time>
      </trkpt>
      <trkpt lat="48.35669" lon="2.042">
        <ele>133.2</ele>
        <time>2023-12-14T10:03:02Z</time>
      </trkpt>
      <trkpt lat="48.35663" lon="2.042">
        <ele>133.2</ele>
        <time>2023-12-14T10:03:03Z</time>
      </trkpt>
      <trkpt lat="48.35657" lon="2.042">
        <ele>133.6</ele>
        <time>2023-12-14T10:03:04Z</time>
      </trkpt>
      <trkpt lat="48.3565" lon="2.042">
        <ele>133.6</ele>
        <time>2023-12-14T10:03:05Z</time>
      </trkpt>
      <trkpt lat="48.35644" lon="2.042">
        <ele>133.6</ele>
        <time>2023-12-14T10:03:06Z</time>
      </trkpt>
      <trkpt lat="48.35638" lon="2.042">
        <ele>133.6</ele>
        <time>2023-12-14T10:03:07Z</time>
      </trkpt>
      <trkpt lat="48.35631" lon="2.042">
        <ele>133.2</ele>
        <time>2023-12-14T10:03:08Z</time>
      </trkpt>
      <trkpt lat="48.35625" lon="2.04199">
        <ele>133.2</ele>
        <time>2023-12-14T10:03:09Z</time>
      </trkpt>
      <trkpt lat="48.35619" lon="2.04199">
        <ele>133.2</ele>
        <time>2023-12-14T10:03:10Z</time>
      </trkpt>
      <trkpt lat="48.35613" lon="2.04199">
        <ele>133.2</ele>
        <time>2023-12-14T10:03:11Z</time>
      </trkpt>
      <trkpt lat="48.35606" lon="2.04198">
        <ele>134</ele>
        <time>2023-12-14T10:03:12Z</time>
      </trkpt>
      <trkpt lat="48.356" lon="2.04199">
        <ele>134</ele>
        <time>2023-12-14T10:03:13Z</time>
      </trkpt>
      <trkpt lat="48.35593" lon="2.04198">
        <ele>134</ele>
        <time>2023-12-14T10:03:14Z</time>
      </trkpt>
      <trkpt lat="48.35587" lon="2.04198">
        <ele>134</ele>
        <time>2023-12-14T10:03:15Z</time>
      </trkpt>
      <trkpt lat="48.3558" lon="2.04198">
        <ele>134</ele>
        <time>2023-12-14T10:03:16Z</time>
      </trkpt>
      <trkpt lat="48.35574" lon="2.04197">
        <ele>134</ele>
        <time>2023-12-14T10:03:17Z</time>
      </trkpt>
      <trkpt lat="48.35567" lon="2.04197">
        <ele>134</ele>
        <time>2023-12-14T10:03:18Z</time>
      </trkpt>
      <trkpt lat="48.35561" lon="2.04197">
        <ele>134</ele>
        <time>2023-12-14T10:03:19Z</time>
      </trkpt>
      <trkpt lat="48.35554" lon="2.04197">
        <ele>134.2</ele>
        <time>2023-12-14T10:03:20Z</time>
      </trkpt>
      <trkpt lat="48.35548" lon="2.04197">
        <ele>134.2</ele>
        <time>2023-12-14T10:03:21Z</time>
      </trkpt>
      <trkpt lat="48.35541" lon="2.04197">
        <ele>134.2</ele>
        <time>2023-12-14T10:03:22Z</time>
      </trkpt>
      <trkpt lat="48.35535" lon="2.04196">
        <ele>134.2</ele>
        <time>2023-12-14T10:03:23Z</time>
      </trkpt>
      <trkpt lat="48.35528" lon="2.04196">
        <ele>134.6</ele>
        <time>2023-12-14T10:03:24Z</time>
      </trkpt>
      <trkpt lat="48.35521" lon="2.04196">
        <ele>134.6</ele>
        <time>2023-12-14T10:03:25Z</time>
      </trkpt>
      <trkpt lat="48.35515" lon="2.04196">
        <ele>134.6</ele>
        <time>2023-12-14T10:03:26Z</time>
      </trkpt>
      <trkpt lat="48.35508" lon="2.04196">
        <ele>134.6</ele>
        <time>2023-12-14T10:03:27Z</time>
      </trkpt>
      <trkpt lat="48.35502" lon="2.04196">
        <ele>135.6</ele>
        <time>2023-12-14T10:03:28Z</time>
      </trkpt>
      <trkpt lat="48.35495" lon="2.04196">
        <ele>135.6</ele>
        <time>2023-12-14T10:03:29Z</time>
      </trkpt>
      <trkpt lat="48.35489" lon="2.04196">
        <ele>135.6</ele>
        <time>2023-12-14T10:03:30Z</time>
      </trkpt>
      <trkpt lat="48.35482" lon="2.04195">
        <ele>135.6</ele>
        <time>2023-12-14T10:03:31Z</time>
      </trkpt>
      <trkpt lat="48.35476" lon="2.04195">
        <ele>135.4</ele>
        <time>2023-12-14T10:03:32Z</time>
      </trkpt>
      <trkpt lat="48.35469" lon="2.04195">
        <ele>135.4</ele>
        <time>2023-12-14T10:03:33Z</time>
      </trkpt>
      <trkpt lat="48.35463" lon="2.04195">
        <ele>135.4</ele>
        <time>2023-12-14T10:03:34Z</time>
      </trkpt>
      <trkpt lat="48.35456" lon="2.04195">
        <ele>135.6</ele>
        <time>2023-12-14T10:03:35Z</time>
      </trkpt>
      <trkpt lat="48.3545" lon="2.04195">
        <ele>136</ele>
        <time>2023-12-14T10:03:36Z</time>
      </trkpt>
      <trkpt lat="48.35443" lon="2.04195">
        <ele>136</ele>
        <time>2023-12-14T10:03:37Z</time>
      </trkpt>
      <trkpt lat="48.35437" lon="2.04194">
        <ele>136</ele>
        <time>2023-12-14T10:03:38Z</time>
      </trkpt>
      <trkpt lat="48.3543" lon="2.04194">
        <ele>136</ele>
        <time>2023-12-14T10:03:39Z</time>
      </trkpt>
      <trkpt lat="48.35424" lon="2.04194">
        <ele>136.2</ele>
        <time>2023-12-14T10:03:40Z</time>
      </trkpt>
      <trkpt lat="48.35417" lon="2.04194">
        <ele>136.2</ele>
        <time>2023-12-14T10:03:41Z</time>
      </trkpt>
      <trkpt lat="48.35411" lon="2.04194">
        <ele>136.2</ele>
        <time>2023-12-14T10:03:42Z</time>
      </trkpt>
      <trkpt lat="48.35404" lon="2.04194">
        <ele>136</ele>
        <time>2023-12-14T10:03:43Z</time>
      </trkpt>
      <trkpt lat="48.35398" lon="2.04193">
        <ele>136.2</ele>
        <time>2023-12-14T10:03:44Z</time>
      </trkpt>
      <trkpt lat="48.35392" lon="2.04192">
        <ele>136.2</ele>
        <time>2023-12-14T10:03:45Z</time>
      </trkpt>
      <trkpt lat="48.35385" lon="2.04192">
        <ele>136.2</ele>
        <time>2023-12-14T10:03:46Z</time>
      </trkpt>
      <trkpt lat="48.35379" lon="2.0419">
        <ele>136.2</ele>
        <time>2023-12-14T10:03:47Z</time>
      </trkpt>
      <trkpt lat="48.35373" lon="2.04189">
        <ele>136.8</ele>
        <time>2023-12-14T10:03:48Z</time>
      </trkpt>
      <trkpt lat="48.35366" lon="2.04188">
        <ele>136.8</ele>
        <time>2023-12-14T10:03:49Z</time>
      </trkpt>
      <trkpt lat="48.3536" lon="2.04186">
        <ele>136.8</ele>
        <time>2023-12-14T10:03:50Z</time>
      </trkpt>
      <trkpt lat="48.35354" lon="2.04184">
        <ele>136.8</ele>
        <time>2023-12-14T10:03:51Z</time>
      </trkpt>
      <trkpt lat="48.35348" lon="2.04182">
        <ele>137</ele>
        <time>2023-12-14T10:03:52Z</time>
      </trkpt>
      <trkpt lat="48.35342" lon="2.0418">
        <ele>137</ele>
        <time>2023-12-14T10:03:53Z</time>
      </trkpt>
      <trkpt lat="48.35336" lon="2.04178">
        <ele>137</ele>
        <time>2023-12-14T10:03:54Z</time>
      </trkpt>
      <trkpt lat="48.3533" lon="2.04176">
        <ele>137</ele>
        <time>2023-12-14T10:03:55Z</time>
      </trkpt>
      <trkpt lat="48.35324" lon="2.04173">
        <ele>136.6</ele>
        <time>2023-12-14T10:03:56Z</time>
      </trkpt>
      <trkpt lat="48.35318" lon="2.04169">
        <ele>136.6</ele>
        <time>2023-12-14T10:03:57Z</time>
      </trkpt>
      <trkpt lat="48.35313" lon="2.04166">
        <ele>136.6</ele>
        <time>2023-12-14T10:03:58Z</time>
      </trkpt>
      <trkpt lat="48.35307" lon="2.04163">
        <ele>136.6</ele>
        <time>2023-12-14T10:03:59Z</time>
      </trkpt>
      <trkpt lat="48.35301" lon="2.0416">
        <ele>137.2</ele>
        <time>2023-12-14T10:04:00Z</time>
      </trkpt>
      <trkpt lat="48.35295" lon="2.04157">
        <ele>137.2</ele>
        <time>2023-12-14T10:04:01Z</time>
      </trkpt>
      <trkpt lat="48.35289" lon="2.04153">
        <ele>137.2</ele>
        <time>2023-12-14T10:04:02Z</time>
      </trkpt>
      <trkpt lat="48.35284" lon="2.0415">
        <ele>137.2</ele>
        <time>2023-12-14T10:04:03Z</time>
      </trkpt>
      <trkpt lat="48.35278" lon="2.04147">
        <ele>137.4</ele>
        <time>2023-12-14T10:04:04Z</time>
      </trkpt>
      <trkpt lat="48.35272" lon="2.04144">
        <ele>137.4</ele>
        <time>2023-12-14T10:04:05Z</time>
      </trkpt>
      <trkpt lat="48.35266" lon="2.04141">
        <ele>137.4</ele>
        <time>2023-12-14T10:04:06Z</time>
      </trkpt>
      <trkpt lat="48.35261" lon="2.04138">
        <ele>137.4</ele>
        <time>2023-12-14T10:04:07Z</time>
      </trkpt>
      <trkpt lat="48.35255" lon="2.04135">
        <ele>137.6</ele>
        <time>2023-12-14T10:04:08Z</time>
      </trkpt>
      <trkpt lat="48.35249" lon="2.04132">
        <ele>137.6</ele>
        <time>2023-12-14T10:04:09Z</time>
      </trkpt>
      <trkpt lat="48.35243" lon="2.04129">
        <ele>137.6</ele>
        <time>2023-12-14T10:04:10Z</time>
      </trkpt>
      <trkpt lat="48.35237" lon="2.04126">
        <ele>137.6</ele>
        <time>2023-12-14T10:04:11Z</time>
      </trkpt>
      <trkpt lat="48.35232" lon="2.04123">
        <ele>138</ele>
        <time>2023-12-14T10:04:12Z</time>
      </trkpt>
      <trkpt lat="48.35226" lon="2.04121">
        <ele>138</ele>
        <time>2023-12-14T10:04:13Z</time>
      </trkpt>
      <trkpt lat="48.3522" lon="2.04118">
        <ele>138</ele>
        <time>2023-12-14T10:04:14Z</time>
      </trkpt>
      <trkpt lat="48.35214" lon="2.04115">
        <ele>139</ele>
        <time>2023-12-14T10:04:15Z</time>
      </trkpt>
      <trkpt lat="48.35208" lon="2.04113">
        <ele>138.6</ele>
        <time>2023-12-14T10:04:16Z</time>
      </trkpt>
      <trkpt lat="48.35202" lon="2.04111">
        <ele>138.6</ele>
        <time>2023-12-14T10:04:17Z</time>
      </trkpt>
      <trkpt lat="48.35196" lon="2.04109">
        <ele>138.6</ele>
        <time>2023-12-14T10:04:18Z</time>
      </trkpt>
      <trkpt lat="48.3519" lon="2.04107">
        <ele>138.6</ele>
        <time>2023-12-14T10:04:19Z</time>
      </trkpt>
      <trkpt lat="48.35184" lon="2.04105">
        <ele>139.2</ele>
        <time>2023-12-14T10:04:20Z</time>
      </trkpt>
      <trkpt lat="48.35178" lon="2.04103">
        <ele>139.2</ele>
        <time>2023-12-14T10:04:21Z</time>
      </trkpt>
      <trkpt lat="48.35172" lon="2.04101">
        <ele>139.2</ele>
        <time>2023-12-14T10:04:22Z</time>
      </trkpt>
      <trkpt lat="48.35165" lon="2.041">
        <ele>139.2</ele>
        <time>2023-12-14T10:04:23Z</time>
      </trkpt>
      <trkpt lat="48.35159" lon="2.04098">
        <ele>138.6</ele>
        <time>2023-12-14T10:04:24Z</time>
      </trkpt>
      <trkpt lat="48.35152" lon="2.04097">
        <ele>138.6</ele>
        <time>2023-12-14T10:04:25Z</time>
      </trkpt>
      <trkpt lat="48.35146" lon="2.04095">
        <ele>138.6</ele>
        <time>2023-12-14T10:04:26Z</time>
      </trkpt>
      <trkpt lat="48.35139" lon="2.04094">
        <ele>138.8</ele>
        <time>2023-12-14T10:04:27Z</time>
      </trkpt>
      <trkpt lat="48.35133" lon="2.04093">
        <ele>139</ele>
        <time>2023-12-14T10:04:28Z</time>
      </trkpt>
      <trkpt lat="48.35126" lon="2.04092">
        <ele>139</ele>
        <time>2023-12-14T10:04:29Z</time>
      </trkpt>
      <trkpt lat="48.35119" lon="2.04091">
        <ele>139</ele>
        <time>2023-12-14T10:04:30Z</time>
      </trkpt>
      <trkpt lat="48.35112" lon="2.0409">
        <ele>139</ele>
        <time>2023-12-14T10:04:31Z</time>
      </trkpt>
      <trkpt lat="48.35105" lon="2.0409">
        <ele>138.6</ele>
        <time>2023-12-14T10:04:32Z</time>
      </trkpt>
      <trkpt lat="48.35098" lon="2.04089">
        <ele>138.6</ele>
        <time>2023-12-14T10:04:33Z</time>
      </trkpt>
      <trkpt lat="48.35091" lon="2.04089">
        <ele>138.6</ele>
        <time>2023-12-14T10:04:34Z</time>
      </trkpt>
      <trkpt lat="48.35084" lon="2.04088">
        <ele>138.6</ele>
        <time>2023-12-14T10:04:35Z</time>
      </trkpt>
      <trkpt lat="48.35078" lon="2.04087">
        <ele>138</ele>
        <time>2023-12-14T10:04:36Z</time>
      </trkpt>
      <trkpt lat="48.35071" lon="2.04087">
        <ele>138</ele>
        <time>2023-12-14T10:04:37Z</time>
      </trkpt>
      <trkpt lat="48.35064" lon="2.04086">
        <ele>138</ele>
        <time>2023-12-14T10:04:38Z</time>
      </trkpt>
      <trkpt lat="48.35057" lon="2.04086">
        <ele>137</ele>
        <time>2023-12-14T10:04:39Z</time>
      </trkpt>
      <trkpt lat="48.3505" lon="2.04086">
        <ele>136.8</ele>
        <time>2023-12-14T10:04:40Z</time>
      </trkpt>
      <trkpt lat="48.35043" lon="2.04086">
        <ele>136.8</ele>
        <time>2023-12-14T10:04:41Z</time>
      </trkpt>
      <trkpt lat="48.35037" lon="2.04085">
        <ele>136.8</ele>
        <time>2023-12-14T10:04:42Z</time>
      </trkpt>
      <trkpt lat="48.3503" lon="2.04085">
        <ele>136.8</ele>
        <time>2023-12-14T10:04:43Z</time>
      </trkpt>
      <trkpt lat="48.35023" lon="2.04084">
        <ele>136.8</ele>
        <time>2023-12-14T10:04:44Z</time>
      </trkpt>
      <trkpt lat="48.35016" lon="2.04084">
        <ele>136.8</ele>
        <time>2023-12-14T10:04:45Z</time>
      </trkpt>
      <trkpt lat="48.35009" lon="2.04083">
        <ele>136.8</ele>
        <time>2023-12-14T10:04:46Z</time>
      </trkpt>
      <trkpt lat="48.35001" lon="2.04083">
        <ele>135.8</ele>
        <time>2023-12-14T10:04:47Z</time>
      </trkpt>
      <trkpt lat="48.34994" lon="2.04082">
        <ele>136.2</ele>
        <time>2023-12-14T10:04:48Z</time>
      </trkpt>
      <trkpt lat="48.34987" lon="2.04081">
        <ele>136.2</ele>
        <time>2023-12-14T10:04:49Z</time>
      </trkpt>
      <trkpt lat="48.3498" lon="2.04081">
        <ele>136.2</ele>
        <time>2023-12-14T10:04:50Z</time>
      </trkpt>
      <trkpt lat="48.34973" lon="2.04081">
        <ele>136.2</ele>
        <time>2023-12-14T10:04:51Z</time>
      </trkpt>
      <trkpt lat="48.34966" lon="2.0408">
        <ele>135.8</ele>
        <time>2023-12-14T10:04:52Z</time>
      </trkpt>
      <trkpt lat="48.34958" lon="2.04079">
        <ele>135.8</ele>
        <time>2023-12-14T10:04:53Z</time>
      </trkpt>
      <trkpt lat="48.34951" lon="2.04079">
        <ele>135.8</ele>
        <time>2023-12-14T10:04:54Z</time>
      </trkpt>
      <trkpt lat="48.34944" lon="2.04079">
        <ele>135.4</ele>
        <time>2023-12-14T10:04:55Z</time>
      </trkpt>
      <trkpt lat="48.34936" lon="2.04079">
        <ele>135</ele>
        <time>2023-12-14T10:04:56Z</time>
      </trkpt>
      <trkpt lat="48.34929" lon="2.04078">
        <ele>135</ele>
        <time>2023-12-14T10:04:57Z</time>
      </trkpt>
      <trkpt lat="48.34922" lon="2.04078">
        <ele>135</ele>
        <time>2023-12-14T10:04:58Z</time>
      </trkpt>
      <trkpt lat="48.34914" lon="2.04078">
        <ele>134.6</ele>
        <time>2023-12-14T10:04:59Z</time>
      </trkpt>
      <trkpt lat="48.34906" lon="2.04078">
        <ele>134.4</ele>
        <time>2023-12-14T10:05:00Z</time>
      </trkpt>
      <trkpt lat="48.34899" lon="2.04077">
        <ele>134.4</ele>
        <time>2023-12-14T10:05:01Z</time>
      </trkpt>
      <trkpt lat="48.34891" lon="2.04077">
        <ele>134.4</ele>
        <time>2023-12-14T10:05:02Z</time>
      </trkpt>
      <trkpt lat="48.34884" lon="2.04077">
        <ele>133.8</ele>
        <time>2023-12-14T10:05:03Z</time>
      </trkpt>
      <trkpt lat="48.34876" lon="2.04078">
        <ele>133.6</ele>
        <time>2023-12-14T10:05:04Z</time>
      </trkpt>
      <trkpt lat="48.34868" lon="2.04078">
        <ele>133.6</ele>
        <time>2023-12-14T10:05:05Z</time>
      </trkpt>
      <trkpt lat="48.3486" lon="2.04077">
        <ele>133.6</ele>
        <time>2023-12-14T10:05:06Z</time>
      </trkpt>
      <trkpt lat="48.34853" lon="2.04076">
        <ele>133.6</ele>
        <time>2023-12-14T10:05:07Z</time>
      </trkpt>
      <trkpt lat="48.34845" lon="2.04074">
        <ele>133.6</ele>
        <time>2023-12-14T10:05:08Z</time>
      </trkpt>
      <trkpt lat="48.34838" lon="2.04071">
        <ele>133.6</ele>
        <time>2023-12-14T10:05:09Z</time>
      </trkpt>
      <trkpt lat="48.34832" lon="2.04067">
        <ele>133.6</ele>
        <time>2023-12-14T10:05:10Z</time>
      </trkpt>
      <trkpt lat="48.34825" lon="2.04063">
        <ele>132.6</ele>
        <time>2023-12-14T10:05:11Z</time>
      </trkpt>
      <trkpt lat="48.34819" lon="2.04058">
        <ele>133.6</ele>
        <time>2023-12-14T10:05:12Z</time>
      </trkpt>
      <trkpt lat="48.34812" lon="2.04055">
        <ele>133.6</ele>
        <time>2023-12-14T10:05:13Z</time>
      </trkpt>
      <trkpt lat="48.34806" lon="2.04051">
        <ele>133.6</ele>
        <time>2023-12-14T10:05:14Z</time>
      </trkpt>
      <trkpt lat="48.348" lon="2.04048">
        <ele>133.6</ele>
        <time>2023-12-14T10:05:15Z</time>
      </trkpt>
      <trkpt lat="48.34793" lon="2.04044">
        <ele>133.6</ele>
        <time>2023-12-14T10:05:16Z</time>
      </trkpt>
      <trkpt lat="48.34787" lon="2.04041">
        <ele>133.6</ele>
        <time>2023-12-14T10:05:17Z</time>
      </trkpt>
      <trkpt lat="48.3478" lon="2.04037">
        <ele>133.6</ele>
        <time>2023-12-14T10:05:18Z</time>
      </trkpt>
      <trkpt lat="48.34774" lon="2.04034">
        <ele>133.6</ele>
        <time>2023-12-14T10:05:19Z</time>
      </trkpt>
      <trkpt lat="48.34767" lon="2.04031">
        <ele>133.8</ele>
        <time>2023-12-14T10:05:20Z</time>
      </trkpt>
      <trkpt lat="48.3476" lon="2.04027">
        <ele>133.8</ele>
        <time>2023-12-14T10:05:21Z</time>
      </trkpt>
      <trkpt lat="48.34754" lon="2.04024">
        <ele>133.8</ele>
        <time>2023-12-14T10:05:22Z</time>
      </trkpt>
      <trkpt lat="48.34747" lon="2.04021">
        <ele>132.8</ele>
        <time>2023-12-14T10:05:23Z</time>
      </trkpt>
      <trkpt lat="48.3474" lon="2.04017">
        <ele>133</ele>
        <time>2023-12-14T10:05:24Z</time>
      </trkpt>
      <trkpt lat="48.34733" lon="2.04012">
        <ele>133</ele>
        <time>2023-12-14T10:05:25Z</time>
      </trkpt>
      <trkpt lat="48.34727" lon="2.04006">
        <ele>133</ele>
        <time>2023-12-14T10:05:26Z</time>
      </trkpt>
      <trkpt lat="48.34722" lon="2.03999">
        <ele>132.4</ele>
        <time>2023-12-14T10:05:27Z</time>
      </trkpt>
      <trkpt lat="48.34717" lon="2.03991">
        <ele>133.8</ele>
        <time>2023-12-14T10:05:28Z</time>
      </trkpt>
      <trkpt lat="48.34714" lon="2.03981">
        <ele>133.8</ele>
        <time>2023-12-14T10:05:29Z</time>
      </trkpt>
      <trkpt lat="48.34712" lon="2.03971">
        <ele>133.8</ele>
        <time>2023-12-14T10:05:30Z</time>
      </trkpt>
      <trkpt lat="48.34711" lon="2.0396">
        <ele>132.8</ele>
        <time>2023-12-14T10:05:31Z</time>
      </trkpt>
      <trkpt lat="48.34712" lon="2.0395">
        <ele>130.2</ele>
        <time>2023-12-14T10:05:32Z</time>
      </trkpt>
      <trkpt lat="48.34713" lon="2.03941">
        <ele>130.2</ele>
        <time>2023-12-14T10:05:33Z</time>
      </trkpt>
      <trkpt lat="48.34715" lon="2.03932">
        <ele>130.2</ele>
        <time>2023-12-14T10:05:34Z</time>
      </trkpt>
      <trkpt lat="48.34717" lon="2.03924">
        <ele>131.2</ele>
        <time>2023-12-14T10:05:35Z</time>
      </trkpt>
      <trkpt lat="48.34719" lon="2.03916">
        <ele>131</ele>
        <time>2023-12-14T10:05:36Z</time>
      </trkpt>
      <trkpt lat="48.3472" lon="2.03908">
        <ele>131</ele>
        <time>2023-12-14T10:05:37Z</time>
      </trkpt>
      <trkpt lat="48.34719" lon="2.03901">
        <ele>131</ele>
        <time>2023-12-14T10:05:38Z</time>
      </trkpt>
      <trkpt lat="48.34716" lon="2.03894">
        <ele>132</ele>
        <time>2023-12-14T10:05:39Z</time>
      </trkpt>
      <trkpt lat="48.34713" lon="2.0389">
        <ele>135.2</ele>
        <time>2023-12-14T10:05:40Z</time>
      </trkpt>
      <trkpt lat="48.3471" lon="2.03889">
        <ele>135.2</ele>
        <time>2023-12-14T10:05:41Z</time>
      </trkpt>
      <trkpt lat="48.34706" lon="2.03889">
        <ele>135.2</ele>
        <time>2023-12-14T10:05:42Z</time>
      </trkpt>
      <trkpt lat="48.34703" lon="2.03891">
        <ele>135.2</ele>
        <time>2023-12-14T10:05:43Z</time>
      </trkpt>
      <trkpt lat="48.34701" lon="2.03894">
        <ele>135.8</ele>
        <time>2023-12-14T10:05:44Z</time>
      </trkpt>
      <trkpt lat="48.34699" lon="2.03899">
        <ele>135.8</ele>
        <time>2023-12-14T10:05:45Z</time>
      </trkpt>
      <trkpt lat="48.34699" lon="2.03905">
        <ele>135.8</ele>
        <time>2023-12-14T10:05:46Z</time>
      </trkpt>
      <trkpt lat="48.34699" lon="2.03911">
        <ele>136.6</ele>
        <time>2023-12-14T10:05:47Z</time>
      </trkpt>
      <trkpt lat="48.34699" lon="2.03917">
        <ele>136.8</ele>
        <time>2023-12-14T10:05:48Z</time>
      </trkpt>
      <trkpt lat="48.34699" lon="2.03922">
        <ele>136.8</ele>
        <time>2023-12-14T10:05:49Z</time>
      </trkpt>
      <trkpt lat="48.34698" lon="2.03928">
        <ele>136.8</ele>
        <time>2023-12-14T10:05:50Z</time>
      </trkpt>
      <trkpt lat="48.34698" lon="2.03934">
        <ele>137.8</ele>
        <time>2023-12-14T10:05:51Z</time>
      </trkpt>
      <trkpt lat="48.34697" lon="2.0394">
        <ele>138.4</ele>
        <time>2023-12-14T10:05:52Z</time>
      </trkpt>
      <trkpt lat="48.34696" lon="2.03945">
        <ele>138.4</ele>
        <time>2023-12-14T10:05:53Z</time>
      </trkpt>
      <trkpt lat="48.34695" lon="2.03951">
        <ele>138.4</ele>
        <time>2023-12-14T10:05:54Z</time>
      </trkpt>
      <trkpt lat="48.34694" lon="2.03956">
        <ele>139.4</ele>
        <time>2023-12-14T10:05:55Z</time>
      </trkpt>
      <trkpt lat="48.34693" lon="2.03962">
        <ele>140</ele>
        <time>2023-12-14T10:05:56Z</time>
      </trkpt>
      <trkpt lat="48.34692" lon="2.03968">
        <ele>140</ele>
        <time>2023-12-14T10:05:57Z</time>
      </trkpt>
      <trkpt lat="48.34691" lon="2.03974">
        <ele>140</ele>
        <time>2023-12-14T10:05:58Z</time>
      </trkpt>
      <trkpt lat="48.34689" lon="2.0398">
        <ele>141</ele>
        <time>2023-12-14T10:05:59Z</time>
      </trkpt>
      <trkpt lat="48.34688" lon="2.03987">
        <ele>141</ele>
        <time>2023-12-14T10:06:00Z</time>
      </trkpt>
      <trkpt lat="48.34688" lon="2.03994">
        <ele>141</ele>
        <time>2023-12-14T10:06:01Z</time>
      </trkpt>
      <trkpt lat="48.34686" lon="2.04001">
        <ele>141</ele>
        <time>2023-12-14T10:06:02Z</time>
      </trkpt>
      <trkpt lat="48.34685" lon="2.04008">
        <ele>140.4</ele>
        <time>2023-12-14T10:06:03Z</time>
      </trkpt>
      <trkpt lat="48.34683" lon="2.04015">
        <ele>141</ele>
        <time>2023-12-14T10:06:04Z</time>
      </trkpt>
      <trkpt lat="48.34681" lon="2.04022">
        <ele>141</ele>
        <time>2023-12-14T10:06:05Z</time>
      </trkpt>
      <trkpt lat="48.3468" lon="2.04029">
        <ele>141</ele>
        <time>2023-12-14T10:06:06Z</time>
      </trkpt>
      <trkpt lat="48.34678" lon="2.04037">
        <ele>141</ele>
        <time>2023-12-14T10:06:07Z</time>
      </trkpt>
      <trkpt lat="48.34677" lon="2.04044">
        <ele>140.6</ele>
        <time>2023-12-14T10:06:08Z</time>
      </trkpt>
      <trkpt lat="48.34675" lon="2.04052">
        <ele>140.6</ele>
        <time>2023-12-14T10:06:09Z</time>
      </trkpt>
      <trkpt lat="48.34673" lon="2.0406">
        <ele>140.6</ele>
        <time>2023-12-14T10:06:10Z</time>
      </trkpt>
      <trkpt lat="48.34671" lon="2.04069">
        <ele>139.6</ele>
        <time>2023-12-14T10:06:11Z</time>
      </trkpt>
      <trkpt lat="48.34669" lon="2.04078">
        <ele>137.6</ele>
        <time>2023-12-14T10:06:12Z</time>
      </trkpt>
      <trkpt lat="48.34666" lon="2.04087">
        <ele>137.6</ele>
        <time>2023-12-14T10:06:13Z</time>
      </trkpt>
      <trkpt lat="48.34661" lon="2.04096">
        <ele>137.6</ele>
        <time>2023-12-14T10:06:14Z</time>
      </trkpt>
      <trkpt lat="48.34656" lon="2.04105">
        <ele>136.6</ele>
        <time>2023-12-14T10:06:15Z</time>
      </trkpt>
      <trkpt lat="48.3465" lon="2.04113">
        <ele>134</ele>
        <time>2023-12-14T10:06:16Z</time>
      </trkpt>
      <trkpt lat="48.34642" lon="2.0412">
        <ele>134</ele>
        <time>2023-12-14T10:06:17Z</time>
      </trkpt>
      <trkpt lat="48.34634" lon="2.04127">
        <ele>134</ele>
        <time>2023-12-14T10:06:18Z</time>
      </trkpt>
      <trkpt lat="48.34627" lon="2.04133">
        <ele>133.2</ele>
        <time>2023-12-14T10:06:19Z</time>
      </trkpt>
      <trkpt lat="48.3462" lon="2.04137">
        <ele>134.6</ele>
        <time>2023-12-14T10:06:20Z</time>
      </trkpt>
      <trkpt lat="48.34614" lon="2.04141">
        <ele>134.6</ele>
        <time>2023-12-14T10:06:21Z</time>
      </trkpt>
      <trkpt lat="48.3461" lon="2.04144">
        <ele>134.6</ele>
        <time>2023-12-14T10:06:22Z</time>
      </trkpt>
      <trkpt lat="48.34607" lon="2.04145">
        <ele>135.2</ele>
        <time>2023-12-14T10:06:23Z</time>
      </trkpt>
      <trkpt lat="48.34605" lon="2.04146">
        <ele>135.2</ele>
        <time>2023-12-14T10:06:24Z</time>
      </trkpt>
      <trkpt lat="48.34603" lon="2.04145">
        <ele>135.2</ele>
        <time>2023-12-14T10:06:25Z</time>
      </trkpt>
      <trkpt lat="48.34601" lon="2.04144">
        <ele>135.2</ele>
        <time>2023-12-14T10:06:26Z</time>
      </trkpt>
      <trkpt lat="48.34599" lon="2.04144">
        <ele>135.2</ele>
        <time>2023-12-14T10:06:27Z</time>
      </trkpt>
      <trkpt lat="48.34597" lon="2.04144">
        <ele>135.2</ele>
        <time>2023-12-14T10:06:28Z</time>
      </trkpt>
      <trkpt lat="48.34596" lon="2.04145">
        <ele>135.2</ele>
        <time>2023-12-14T10:06:29Z</time>
      </trkpt>
      <trkpt lat="48.34595" lon="2.04147">
        <ele>135.2</ele>
        <time>2023-12-14T10:06:30Z</time>
      </trkpt>
      <trkpt lat="48.34594" lon="2.0415">
        <ele>135.2</ele>
        <time>2023-12-14T10:06:31Z</time>
      </trkpt>
      <trkpt lat="48.34595" lon="2.04152">
        <ele>134.6</ele>
        <time>2023-12-14T10:06:32Z</time>
      </trkpt>
      <trkpt lat="48.34597" lon="2.04154">
        <ele>134.6</ele>
        <time>2023-12-14T10:06:33Z</time>
      </trkpt>
      <trkpt lat="48.34599" lon="2.04157">
        <ele>134.6</ele>
        <time>2023-12-14T10:06:34Z</time>
      </trkpt>
      <trkpt lat="48.34602" lon="2.0416">
        <ele>134.6</ele>
        <time>2023-12-14T10:06:35Z</time>
      </trkpt>
      <trkpt lat="48.34603" lon="2.04164">
        <ele>134</ele>
        <time>2023-12-14T10:06:36Z</time>
      </trkpt>
      <trkpt lat="48.34605" lon="2.04168">
        <ele>134</ele>
        <time>2023-12-14T10:06:37Z</time>
      </trkpt>
      <trkpt lat="48.34607" lon="2.04172">
        <ele>134</ele>
        <time>2023-12-14T10:06:38Z</time>
      </trkpt>
      <trkpt lat="48.34608" lon="2.04177">
        <ele>133</ele>
        <time>2023-12-14T10:06:39Z</time>
      </trkpt>
      <trkpt lat="48.3461" lon="2.04182">
        <ele>132</ele>
        <time>2023-12-14T10:06:40Z</time>
      </trkpt>
      <trkpt lat="48.34611" lon="2.04187">
        <ele>132</ele>
        <time>2023-12-14T10:06:41Z</time>
      </trkpt>
      <trkpt lat="48.34613" lon="2.04193">
        <ele>132</ele>
        <time>2023-12-14T10:06:42Z</time>
      </trkpt>
      <trkpt lat="48.34614" lon="2.04199">
        <ele>133</ele>
        <time>2023-12-14T10:06:43Z</time>
      </trkpt>
      <trkpt lat="48.34616" lon="2.04204">
        <ele>132.4</ele>
        <time>2023-12-14T10:06:44Z</time>
      </trkpt>
      <trkpt lat="48.34618" lon="2.0421">
        <ele>132.4</ele>
        <time>2023-12-14T10:06:45Z</time>
      </trkpt>
      <trkpt lat="48.3462" lon="2.04216">
        <ele>132.4</ele>
        <time>2023-12-14T10:06:46Z</time>
      </trkpt>
      <trkpt lat="48.34621" lon="2.04223">
        <ele>133.4</ele>
        <time>2023-12-14T10:06:47Z</time>
      </trkpt>
      <trkpt lat="48.34623" lon="2.04229">
        <ele>134</ele>
        <time>2023-12-14T10:06:48Z</time>
      </trkpt>
      <trkpt lat="48.34624" lon="2.04236">
        <ele>134</ele>
        <time>2023-12-14T10:06:49Z</time>
      </trkpt>
      <trkpt lat="48.34625" lon="2.04243">
        <ele>134</ele>
        <time>2023-12-14T10:06:50Z</time>
      </trkpt>
      <trkpt lat="48.34626" lon="2.0425">
        <ele>135</ele>
        <time>2023-12-14T10:06:51Z</time>
      </trkpt>
      <trkpt lat="48.34627" lon="2.04258">
        <ele>135.8</ele>
        <time>2023-12-14T10:06:52Z</time>
      </trkpt>
      <trkpt lat="48.34628" lon="2.04264">
        <ele>135.8</ele>
        <time>2023-12-14T10:06:53Z</time>
      </trkpt>
      <trkpt lat="48.34628" lon="2.04272">
        <ele>135.8</ele>
        <time>2023-12-14T10:06:54Z</time>
      </trkpt>
      <trkpt lat="48.34628" lon="2.04279">
        <ele>136.2</ele>
        <time>2023-12-14T10:06:55Z</time>
      </trkpt>
      <trkpt lat="48.34629" lon="2.04286">
        <ele>136.6</ele>
        <time>2023-12-14T10:06:56Z</time>
      </trkpt>
      <trkpt lat="48.34629" lon="2.04294">
        <ele>136.6</ele>
        <time>2023-12-14T10:06:57Z</time>
      </trkpt>
      <trkpt lat="48.3463" lon="2.04302">
        <ele>136.6</ele>
        <time>2023-12-14T10:06:58Z</time>
      </trkpt>
      <trkpt lat="48.3463" lon="2.0431">
        <ele>136.4</ele>
        <time>2023-12-14T10:06:59Z</time>
      </trkpt>
      <trkpt lat="48.34631" lon="2.04318">
        <ele>136.2</ele>
        <time>2023-12-14T10:07:00Z</time>
      </trkpt>
      <trkpt lat="48.34631" lon="2.04326">
        <ele>136.2</ele>
        <time>2023-12-14T10:07:01Z</time>
      </trkpt>
      <trkpt lat="48.34632" lon="2.04334">
        <ele>136.2</ele>
        <time>2023-12-14T10:07:02Z</time>
      </trkpt>
      <trkpt lat="48.34633" lon="2.04342">
        <ele>136.2</ele>
        <time>2023-12-14T10:07:03Z</time>
      </trkpt>
      <trkpt lat="48.34635" lon="2.04351">
        <ele>136.2</ele>
        <time>2023-12-14T10:07:04Z</time>
      </trkpt>
      <trkpt lat="48.34636" lon="2.04359">
        <ele>136.2</ele>
        <time>2023-12-14T10:07:05Z</time>
      </trkpt>
      <trkpt lat="48.34637" lon="2.04368">
        <ele>136.2</ele>
        <time>2023-12-14T10:07:06Z</time>
      </trkpt>
      <trkpt lat="48.34639" lon="2.04376">
        <ele>135.6</ele>
        <time>2023-12-14T10:07:07Z</time>
      </trkpt>
      <trkpt lat="48.3464" lon="2.04385">
        <ele>135.4</ele>
        <time>2023-12-14T10:07:08Z</time>
      </trkpt>
      <trkpt lat="48.34642" lon="2.04394">
        <ele>135.4</ele>
        <time>2023-12-14T10:07:09Z</time>
      </trkpt>
      <trkpt lat="48.34644" lon="2.04404">
        <ele>135.4</ele>
        <time>2023-12-14T10:07:10Z</time>
      </trkpt>
      <trkpt lat="48.34646" lon="2.04413">
        <ele>134.4</ele>
        <time>2023-12-14T10:07:11Z</time>
      </trkpt>
      <trkpt lat="48.34649" lon="2.04421">
        <ele>132.8</ele>
        <time>2023-12-14T10:07:12Z</time>
      </trkpt>
      <trkpt lat="48.34652" lon="2.0443">
        <ele>132.8</ele>
        <time>2023-12-14T10:07:13Z</time>
      </trkpt>
      <trkpt lat="48.34655" lon="2.04439">
        <ele>132.8</ele>
        <time>2023-12-14T10:07:14Z</time>
      </trkpt>
      <trkpt lat="48.34658" lon="2.04448">
        <ele>132.8</ele>
        <time>2023-12-14T10:07:15Z</time>
      </trkpt>
      <trkpt lat="48.34661" lon="2.04458">
        <ele>133</ele>
        <time>2023-12-14T10:07:16Z</time>
      </trkpt>
      <trkpt lat="48.34663" lon="2.04467">
        <ele>133</ele>
        <time>2023-12-14T10:07:17Z</time>
      </trkpt>
      <trkpt lat="48.34665" lon="2.04476">
        <ele>133</ele>
        <time>2023-12-14T10:07:18Z</time>
      </trkpt>
      <trkpt lat="48.34667" lon="2.04485">
        <ele>134</ele>
        <time>2023-12-14T10:07:19Z</time>
      </trkpt>
      <trkpt lat="48.34669" lon="2.04494">
        <ele>134</ele>
        <time>2023-12-14T10:07:20Z</time>
      </trkpt>
      <trkpt lat="48.3467" lon="2.04503">
        <ele>134</ele>
        <time>2023-12-14T10:07:21Z</time>
      </trkpt>
      <trkpt lat="48.34671" lon="2.04512">
        <ele>134</ele>
        <time>2023-12-14T10:07:22Z</time>
      </trkpt>
      <trkpt lat="48.34672" lon="2.04522">
        <ele>133.8</ele>
        <time>2023-12-14T10:07:23Z</time>
      </trkpt>
      <trkpt lat="48.34673" lon="2.04531">
        <ele>134.4</ele>
        <time>2023-12-14T10:07:24Z</time>
      </trkpt>
      <trkpt lat="48.34674" lon="2.0454">
        <ele>134.4</ele>
        <time>2023-12-14T10:07:25Z</time>
      </trkpt>
      <trkpt lat="48.34675" lon="2.0455">
        <ele>134.4</ele>
        <time>2023-12-14T10:07:26Z</time>
      </trkpt>
      <trkpt lat="48.34677" lon="2.04559">
        <ele>133.4</ele>
        <time>2023-12-14T10:07:27Z</time>
      </trkpt>
      <trkpt lat="48.34678" lon="2.04568">
        <ele>133.4</ele>
        <time>2023-12-14T10:07:28Z</time>
      </trkpt>
      <trkpt lat="48.34679" lon="2.04577">
        <ele>133.4</ele>
        <time>2023-12-14T10:07:29Z</time>
      </trkpt>
      <trkpt lat="48.34681" lon="2.04587">
        <ele>133.4</ele>
        <time>2023-12-14T10:07:30Z</time>
      </trkpt>
      <trkpt lat="48.34682" lon="2.04597">
        <ele>133.4</ele>
        <time>2023-12-14T10:07:31Z</time>
      </trkpt>
      <trkpt lat="48.34683" lon="2.04607">
        <ele>132.4</ele>
        <time>2023-12-14T10:07:32Z</time>
      </trkpt>
      <trkpt lat="48.34685" lon="2.04617">
        <ele>132.4</ele>
        <time>2023-12-14T10:07:33Z</time>
      </trkpt>
      <trkpt lat="48.34686" lon="2.04626">
        <ele>132.4</ele>
        <time>2023-12-14T10:07:34Z</time>
      </trkpt>
      <trkpt lat="48.34688" lon="2.04636">
        <ele>132.4</ele>
        <time>2023-12-14T10:07:35Z</time>
      </trkpt>
      <trkpt lat="48.34691" lon="2.04645">
        <ele>132.6</ele>
        <time>2023-12-14T10:07:36Z</time>
      </trkpt>
      <trkpt lat="48.34693" lon="2.04654">
        <ele>132.6</ele>
        <time>2023-12-14T10:07:37Z</time>
      </trkpt>
      <trkpt lat="48.34692" lon="2.04664">
        <ele>132.6</ele>
        <time>2023-12-14T10:07:38Z</time>
      </trkpt>
      <trkpt lat="48.3469" lon="2.04674">
        <ele>132.8</ele>
        <time>2023-12-14T10:07:39Z</time>
      </trkpt>
      <trkpt lat="48.34689" lon="2.04682">
        <ele>133.2</ele>
        <time>2023-12-14T10:07:40Z</time>
      </trkpt>
      <trkpt lat="48.34689" lon="2.04692">
        <ele>133.2</ele>
        <time>2023-12-14T10:07:41Z</time>
      </trkpt>
      <trkpt lat="48.3469" lon="2.04702">
        <ele>133.2</ele>
        <time>2023-12-14T10:07:42Z</time>
      </trkpt>
      <trkpt lat="48.3469" lon="2.04713">
        <ele>133.2</ele>
        <time>2023-12-14T10:07:43Z</time>
      </trkpt>
      <trkpt lat="48.34691" lon="2.04722">
        <ele>133.6</ele>
        <time>2023-12-14T10:07:44Z</time>
      </trkpt>
      <trkpt lat="48.34692" lon="2.04732">
        <ele>133.6</ele>
        <time>2023-12-14T10:07:45Z</time>
      </trkpt>
      <trkpt lat="48.34692" lon="2.04742">
        <ele>133.6</ele>
        <time>2023-12-14T10:07:46Z</time>
      </trkpt>
      <trkpt lat="48.34693" lon="2.04752">
        <ele>133</ele>
        <time>2023-12-14T10:07:47Z</time>
      </trkpt>
      <trkpt lat="48.34694" lon="2.04762">
        <ele>133</ele>
        <time>2023-12-14T10:07:48Z</time>
      </trkpt>
      <trkpt lat="48.34694" lon="2.04772">
        <ele>133</ele>
        <time>2023-12-14T10:07:49Z</time>
      </trkpt>
      <trkpt lat="48.34695" lon="2.04782">
        <ele>133</ele>
        <time>2023-12-14T10:07:50Z</time>
      </trkpt>
      <trkpt lat="48.34695" lon="2.04792">
        <ele>133.4</ele>
        <time>2023-12-14T10:07:51Z</time>
      </trkpt>
      <trkpt lat="48.34696" lon="2.04802">
        <ele>133.6</ele>
        <time>2023-12-14T10:07:52Z</time>
      </trkpt>
      <trkpt lat="48.34696" lon="2.04812">
        <ele>133.6</ele>
        <time>2023-12-14T10:07:53Z</time>
      </trkpt>
      <trkpt lat="48.34697" lon="2.04822">
        <ele>133.6</ele>
        <time>2023-12-14T10:07:54Z</time>
      </trkpt>
      <trkpt lat="48.34698" lon="2.04832">
        <ele>133.2</ele>
        <time>2023-12-14T10:07:55Z</time>
      </trkpt>
      <trkpt lat="48.34699" lon="2.04841">
        <ele>133.2</ele>
        <time>2023-12-14T10:07:56Z</time>
      </trkpt>
      <trkpt lat="48.347" lon="2.04851">
        <ele>133.2</ele>
        <time>2023-12-14T10:07:57Z</time>
      </trkpt>
      <trkpt lat="48.34701" lon="2.0486">
        <ele>133.2</ele>
        <time>2023-12-14T10:07:58Z</time>
      </trkpt>
      <trkpt lat="48.34701" lon="2.0487">
        <ele>133.2</ele>
        <time>2023-12-14T10:07:59Z</time>
      </trkpt>
      <trkpt lat="48.34702" lon="2.04879">
        <ele>133.2</ele>
        <time>2023-12-14T10:08:00Z</time>
      </trkpt>
      <trkpt lat="48.34703" lon="2.04889">
        <ele>133.2</ele>
        <time>2023-12-14T10:08:01Z</time>
      </trkpt>
      <trkpt lat="48.34703" lon="2.04899">
        <ele>133.2</ele>
        <time>2023-12-14T10:08:02Z</time>
      </trkpt>
      <trkpt lat="48.34704" lon="2.04909">
        <ele>133.2</ele>
        <time>2023-12-14T10:08:03Z</time>
      </trkpt>
      <trkpt lat="48.34704" lon="2.04918">
        <ele>132.4</ele>
        <time>2023-12-14T10:08:04Z</time>
      </trkpt>
      <trkpt lat="48.34705" lon="2.04928">
        <ele>132.4</ele>
        <time>2023-12-14T10:08:05Z</time>
      </trkpt>
      <trkpt lat="48.34706" lon="2.04938">
        <ele>132.4</ele>
        <time>2023-12-14T10:08:06Z</time>
      </trkpt>
      <trkpt lat="48.34706" lon="2.04948">
        <ele>132.4</ele>
        <time>2023-12-14T10:08:07Z</time>
      </trkpt>
      <trkpt lat="48.34707" lon="2.04958">
        <ele>132.8</ele>
        <time>2023-12-14T10:08:08Z</time>
      </trkpt>
      <trkpt lat="48.34708" lon="2.04968">
        <ele>132.8</ele>
        <time>2023-12-14T10:08:09Z</time>
      </trkpt>
      <trkpt lat="48.34709" lon="2.04978">
        <ele>132.8</ele>
        <time>2023-12-14T10:08:10Z</time>
      </trkpt>
      <trkpt lat="48.3471" lon="2.04989">
        <ele>132.6</ele>
        <time>2023-12-14T10:08:11Z</time>
      </trkpt>
      <trkpt lat="48.3471" lon="2.04999">
        <ele>132.2</ele>
        <time>2023-12-14T10:08:12Z</time>
      </trkpt>
      <trkpt lat="48.34711" lon="2.0501">
        <ele>132.2</ele>
        <time>2023-12-14T10:08:13Z</time>
      </trkpt>
      <trkpt lat="48.34712" lon="2.05021">
        <ele>132.2</ele>
        <time>2023-12-14T10:08:14Z</time>
      </trkpt>
      <trkpt lat="48.34713" lon="2.05031">
        <ele>132.8</ele>
        <time>2023-12-14T10:08:15Z</time>
      </trkpt>
      <trkpt lat="48.34714" lon="2.05042">
        <ele>132.6</ele>
        <time>2023-12-14T10:08:16Z</time>
      </trkpt>
      <trkpt lat="48.34715" lon="2.05052">
        <ele>132.6</ele>
        <time>2023-12-14T10:08:17Z</time>
      </trkpt>
      <trkpt lat="48.34715" lon="2.05062">
        <ele>132.6</ele>
        <time>2023-12-14T10:08:18Z</time>
      </trkpt>
      <trkpt lat="48.34716" lon="2.05072">
        <ele>133.2</ele>
        <time>2023-12-14T10:08:19Z</time>
      </trkpt>
      <trkpt lat="48.34716" lon="2.05082">
        <ele>133.2</ele>
        <time>2023-12-14T10:08:20Z</time>
      </trkpt>
      <trkpt lat="48.34716" lon="2.05092">
        <ele>133.2</ele>
        <time>2023-12-14T10:08:21Z</time>
      </trkpt>
      <trkpt lat="48.34715" lon="2.05101">
        <ele>133.2</ele>
        <time>2023-12-14T10:08:22Z</time>
      </trkpt>
      <trkpt lat="48.34713" lon="2.0511">
        <ele>133.4</ele>
        <time>2023-12-14T10:08:23Z</time>
      </trkpt>
      <trkpt lat="48.3471" lon="2.05119">
        <ele>133</ele>
        <time>2023-12-14T10:08:24Z</time>
      </trkpt>
      <trkpt lat="48.34706" lon="2.05126">
        <ele>133</ele>
        <time>2023-12-14T10:08:25Z</time>
      </trkpt>
      <trkpt lat="48.34701" lon="2.05133">
        <ele>133</ele>
        <time>2023-12-14T10:08:26Z</time>
      </trkpt>
      <trkpt lat="48.34696" lon="2.05139">
        <ele>132.6</ele>
        <time>2023-12-14T10:08:27Z</time>
      </trkpt>
      <trkpt lat="48.3469" lon="2.05145">
        <ele>132.4</ele>
        <time>2023-12-14T10:08:28Z</time>
      </trkpt>
      <trkpt lat="48.34684" lon="2.05151">
        <ele>132.4</ele>
        <time>2023-12-14T10:08:29Z</time>
      </trkpt>
      <trkpt lat="48.34678" lon="2.05157">
        <ele>132.4</ele>
        <time>2023-12-14T10:08:30Z</time>
      </trkpt>
      <trkpt lat="48.34672" lon="2.05163">
        <ele>131.8</ele>
        <time>2023-12-14T10:08:31Z</time>
      </trkpt>
      <trkpt lat="48.34665" lon="2.05168">
        <ele>131.6</ele>
        <time>2023-12-14T10:08:32Z</time>
      </trkpt>
      <trkpt lat="48.34659" lon="2.05174">
        <ele>131.6</ele>
        <time>2023-12-14T10:08:33Z</time>
      </trkpt>
      <trkpt lat="48.34652" lon="2.0518">
        <ele>131.6</ele>
        <time>2023-12-14T10:08:34Z</time>
      </trkpt>
      <trkpt lat="48.34646" lon="2.05186">
        <ele>132</ele>
        <time>2023-12-14T10:08:35Z</time>
      </trkpt>
      <trkpt lat="48.34639" lon="2.05192">
        <ele>131.4</ele>
        <time>2023-12-14T10:08:36Z</time>
      </trkpt>
      <trkpt lat="48.34633" lon="2.05198">
        <ele>131.4</ele>
        <time>2023-12-14T10:08:37Z</time>
      </trkpt>
      <trkpt lat="48.34626" lon="2.05204">
        <ele>131.4</ele>
        <time>2023-12-14T10:08:38Z</time>
      </trkpt>
      <trkpt lat="48.3462" lon="2.0521">
        <ele>131.4</ele>
        <time>2023-12-14T10:08:39Z</time>
      </trkpt>
      <trkpt lat="48.34613" lon="2.05216">
        <ele>131.2</ele>
        <time>2023-12-14T10:08:40Z</time>
      </trkpt>
      <trkpt lat="48.34607" lon="2.05222">
        <ele>131.2</ele>
        <time>2023-12-14T10:08:41Z</time>
      </trkpt>
      <trkpt lat="48.346" lon="2.05229">
        <ele>131.2</ele>
        <time>2023-12-14T10:08:42Z</time>
      </trkpt>
      <trkpt lat="48.34593" lon="2.05235">
        <ele>130.8</ele>
        <time>2023-12-14T10:08:43Z</time>
      </trkpt>
      <trkpt lat="48.34586" lon="2.05241">
        <ele>130.4</ele>
        <time>2023-12-14T10:08:44Z</time>
      </trkpt>
      <trkpt lat="48.3458" lon="2.05248">
        <ele>130.4</ele>
        <time>2023-12-14T10:08:45Z</time>
      </trkpt>
      <trkpt lat="48.34573" lon="2.05254">
        <ele>130.4</ele>
        <time>2023-12-14T10:08:46Z</time>
      </trkpt>
      <trkpt lat="48.34566" lon="2.0526">
        <ele>130.4</ele>
        <time>2023-12-14T10:08:47Z</time>
      </trkpt>
      <trkpt lat="48.34559" lon="2.05266">
        <ele>130.6</ele>
        <time>2023-12-14T10:08:48Z</time>
      </trkpt>
      <trkpt lat="48.34552" lon="2.05273">
        <ele>130.6</ele>
        <time>2023-12-14T10:08:49Z</time>
      </trkpt>
      <trkpt lat="48.34545" lon="2.05279">
        <ele>130.6</ele>
        <time>2023-12-14T10:08:50Z</time>
      </trkpt>
      <trkpt lat="48.34538" lon="2.05286">
        <ele>130.2</ele>
        <time>2023-12-14T10:08:51Z</time>
      </trkpt>
      <trkpt lat="48.34532" lon="2.05292">
        <ele>129.6</ele>
        <time>2023-12-14T10:08:52Z</time>
      </trkpt>
      <trkpt lat="48.34525" lon="2.05299">
        <ele>129.6</ele>
        <time>2023-12-14T10:08:53Z</time>
      </trkpt>
      <trkpt lat="48.34518" lon="2.05305">
        <ele>129.6</ele>
        <time>2023-12-14T10:08:54Z</time>
      </trkpt>
      <trkpt lat="48.34511" lon="2.05311">
        <ele>129.6</ele>
        <time>2023-12-14T10:08:55Z</time>
      </trkpt>
      <trkpt lat="48.34504" lon="2.05318">
        <ele>130</ele>
        <time>2023-12-14T10:08:56Z</time>
      </trkpt>
      <trkpt lat="48.34497" lon="2.05324">
        <ele>130</ele>
        <time>2023-12-14T10:08:57Z</time>
      </trkpt>
      <trkpt lat="48.3449" lon="2.05331">
        <ele>130</ele>
        <time>2023-12-14T10:08:58Z</time>
      </trkpt>
      <trkpt lat="48.34483" lon="2.05338">
        <ele>129.8</ele>
        <time>2023-12-14T10:08:59Z</time>
      </trkpt>
      <trkpt lat="48.34476" lon="2.05344">
        <ele>129.4</ele>
        <time>2023-12-14T10:09:00Z</time>
      </trkpt>
      <trkpt lat="48.34468" lon="2.05352">
        <ele>129.4</ele>
        <time>2023-12-14T10:09:01Z</time>
      </trkpt>
      <trkpt lat="48.34461" lon="2.05358">
        <ele>129.4</ele>
        <time>2023-12-14T10:09:02Z</time>
      </trkpt>
      <trkpt lat="48.34454" lon="2.05365">
        <ele>128.4</ele>
        <time>2023-12-14T10:09:03Z</time>
      </trkpt>
      <trkpt lat="48.34446" lon="2.05372">
        <ele>128.6</ele>
        <time>2023-12-14T10:09:04Z</time>
      </trkpt>
      <trkpt lat="48.34439" lon="2.05379">
        <ele>128.6</ele>
        <time>2023-12-14T10:09:05Z</time>
      </trkpt>
      <trkpt lat="48.34432" lon="2.05386">
        <ele>128.6</ele>
        <time>2023-12-14T10:09:06Z</time>
      </trkpt>
      <trkpt lat="48.34424" lon="2.05393">
        <ele>128</ele>
        <time>2023-12-14T10:09:07Z</time>
      </trkpt>
      <trkpt lat="48.34416" lon="2.054">
        <ele>127.4</ele>
        <time>2023-12-14T10:09:08Z</time>
      </trkpt>
      <trkpt lat="48.34409" lon="2.05407">
        <ele>127.4</ele>
        <time>2023-12-14T10:09:09Z</time>
      </trkpt>
      <trkpt lat="48.34401" lon="2.05414">
        <ele>127.4</ele>
        <time>2023-12-14T10:09:10Z</time>
      </trkpt>
      <trkpt lat="48.34394" lon="2.05421">
        <ele>127.4</ele>
        <time>2023-12-14T10:09:11Z</time>
      </trkpt>
      <trkpt lat="48.34386" lon="2.05428">
        <ele>126.6</ele>
        <time>2023-12-14T10:09:12Z</time>
      </trkpt>
      <trkpt lat="48.34378" lon="2.05435">
        <ele>126.6</ele>
        <time>2023-12-14T10:09:13Z</time>
      </trkpt>
      <trkpt lat="48.34371" lon="2.05442">
        <ele>126.6</ele>
        <time>2023-12-14T10:09:14Z</time>
      </trkpt>
      <trkpt lat="48.34363" lon="2.05449">
        <ele>126.2</ele>
        <time>2023-12-14T10:09:15Z</time>
      </trkpt>
      <trkpt lat="48.34356" lon="2.05457">
        <ele>126.2</ele>
        <time>2023-12-14T10:09:16Z</time>
      </trkpt>
      <trkpt lat="48.34348" lon="2.05463">
        <ele>126.2</ele>
        <time>2023-12-14T10:09:17Z</time>
      </trkpt>
      <trkpt lat="48.3434" lon="2.0547">
        <ele>126.2</ele>
        <time>2023-12-14T10:09:18Z</time>
      </trkpt>
      <trkpt lat="48.34333" lon="2.05478">
        <ele>125.2</ele>
        <time>2023-12-14T10:09:19Z</time>
      </trkpt>
      <trkpt lat="48.34325" lon="2.05485">
        <ele>125.2</ele>
        <time>2023-12-14T10:09:20Z</time>
      </trkpt>
      <trkpt lat="48.34317" lon="2.05492">
        <ele>125.2</ele>
        <time>2023-12-14T10:09:21Z</time>
      </trkpt>
      <trkpt lat="48.3431" lon="2.05498">
        <ele>125.2</ele>
        <time>2023-12-14T10:09:22Z</time>
      </trkpt>
      <trkpt lat="48.34302" lon="2.05505">
        <ele>125.2</ele>
        <time>2023-12-14T10:09:23Z</time>
      </trkpt>
      <trkpt lat="48.34295" lon="2.05513">
        <ele>125</ele>
        <time>2023-12-14T10:09:24Z</time>
      </trkpt>
      <trkpt lat="48.34287" lon="2.05519">
        <ele>125</ele>
        <time>2023-12-14T10:09:25Z</time>
      </trkpt>
      <trkpt lat="48.3428" lon="2.05526">
        <ele>125</ele>
        <time>2023-12-14T10:09:26Z</time>
      </trkpt>
      <trkpt lat="48.34272" lon="2.05533">
        <ele>124</ele>
        <time>2023-12-14T10:09:27Z</time>
      </trkpt>
      <trkpt lat="48.34265" lon="2.05541">
        <ele>122.6</ele>
        <time>2023-12-14T10:09:28Z</time>
      </trkpt>
      <trkpt lat="48.34257" lon="2.05548">
        <ele>122.6</ele>
        <time>2023-12-14T10:09:29Z</time>
      </trkpt>
      <trkpt lat="48.34249" lon="2.05555">
        <ele>122.6</ele>
        <time>2023-12-14T10:09:30Z</time>
      </trkpt>
      <trkpt lat="48.34241" lon="2.05563">
        <ele>122.6</ele>
        <time>2023-12-14T10:09:31Z</time>
      </trkpt>
      <trkpt lat="48.34233" lon="2.0557">
        <ele>121.6</ele>
        <time>2023-12-14T10:09:32Z</time>
      </trkpt>
      <trkpt lat="48.34225" lon="2.05578">
        <ele>121.6</ele>
        <time>2023-12-14T10:09:33Z</time>
      </trkpt>
      <trkpt lat="48.34217" lon="2.05586">
        <ele>121.6</ele>
        <time>2023-12-14T10:09:34Z</time>
      </trkpt>
      <trkpt lat="48.34209" lon="2.05594">
        <ele>120.6</ele>
        <time>2023-12-14T10:09:35Z</time>
      </trkpt>
      <trkpt lat="48.342" lon="2.05601">
        <ele>119.6</ele>
        <time>2023-12-14T10:09:36Z</time>
      </trkpt>
      <trkpt lat="48.34192" lon="2.05609">
        <ele>119.6</ele>
        <time>2023-12-14T10:09:37Z</time>
      </trkpt>
      <trkpt lat="48.34184" lon="2.05618">
        <ele>119.6</ele>
        <time>2023-12-14T10:09:38Z</time>
      </trkpt>
      <trkpt lat="48.34175" lon="2.05626">
        <ele>119.6</ele>
        <time>2023-12-14T10:09:39Z</time>
      </trkpt>
      <trkpt lat="48.34166" lon="2.05633">
        <ele>119</ele>
        <time>2023-12-14T10:09:40Z</time>
      </trkpt>
      <trkpt lat="48.34157" lon="2.05641">
        <ele>119</ele>
        <time>2023-12-14T10:09:41Z</time>
      </trkpt>
      <trkpt lat="48.34149" lon="2.05649">
        <ele>119</ele>
        <time>2023-12-14T10:09:42Z</time>
      </trkpt>
      <trkpt lat="48.3414" lon="2.05657">
        <ele>118</ele>
        <time>2023-12-14T10:09:43Z</time>
      </trkpt>
      <trkpt lat="48.34131" lon="2.05666">
        <ele>116.4</ele>
        <time>2023-12-14T10:09:44Z</time>
      </trkpt>
      <trkpt lat="48.34122" lon="2.05674">
        <ele>116.4</ele>
        <time>2023-12-14T10:09:45Z</time>
      </trkpt>
      <trkpt lat="48.34114" lon="2.05682">
        <ele>116.4</ele>
        <time>2023-12-14T10:09:46Z</time>
      </trkpt>
      <trkpt lat="48.34105" lon="2.05691">
        <ele>115.4</ele>
        <time>2023-12-14T10:09:47Z</time>
      </trkpt>
      <trkpt lat="48.34096" lon="2.05699">
        <ele>114.8</ele>
        <time>2023-12-14T10:09:48Z</time>
      </trkpt>
      <trkpt lat="48.34087" lon="2.05707">
        <ele>114.8</ele>
        <time>2023-12-14T10:09:49Z</time>
      </trkpt>
      <trkpt lat="48.34078" lon="2.05716">
        <ele>114.8</ele>
        <time>2023-12-14T10:09:50Z</time>
      </trkpt>
      <trkpt lat="48.34069" lon="2.05724">
        <ele>113.8</ele>
        <time>2023-12-14T10:09:51Z</time>
      </trkpt>
      <trkpt lat="48.3406" lon="2.05732">
        <ele>113.2</ele>
        <time>2023-12-14T10:09:52Z</time>
      </trkpt>
      <trkpt lat="48.34051" lon="2.05741">
        <ele>113.2</ele>
        <time>2023-12-14T10:09:53Z</time>
      </trkpt>
      <trkpt lat="48.34042" lon="2.05749">
        <ele>113.2</ele>
        <time>2023-12-14T10:09:54Z</time>
      </trkpt>
      <trkpt lat="48.34033" lon="2.05757">
        <ele>113.2</ele>
        <time>2023-12-14T10:09:55Z</time>
      </trkpt>
      <trkpt lat="48.34025" lon="2.05764">
        <ele>114.4</ele>
        <time>2023-12-14T10:09:56Z</time>
      </trkpt>
      <trkpt lat="48.34017" lon="2.05771">
        <ele>114.4</ele>
        <time>2023-12-14T10:09:57Z</time>
      </trkpt>
      <trkpt lat="48.3401" lon="2.05778">
        <ele>114.4</ele>
        <time>2023-12-14T10:09:58Z</time>
      </trkpt>
      <trkpt lat="48.34003" lon="2.05784">
        <ele>115.4</ele>
        <time>2023-12-14T10:09:59Z</time>
      </trkpt>
      <trkpt lat="48.33996" lon="2.0579">
        <ele>117.4</ele>
        <time>2023-12-14T10:10:00Z</time>
      </trkpt>
      <trkpt lat="48.3399" lon="2.05796">
        <ele>117.4</ele>
        <time>2023-12-14T10:10:01Z</time>
      </trkpt>
      <trkpt lat="48.33984" lon="2.05801">
        <ele>117.4</ele>
        <time>2023-12-14T10:10:02Z</time>
      </trkpt>
      <trkpt lat="48.33978" lon="2.05807">
        <ele>118.4</ele>
        <time>2023-12-14T10:10:03Z</time>
      </trkpt>
      <trkpt lat="48.33971" lon="2.05813">
        <ele>118.8</ele>
        <time>2023-12-14T10:10:04Z</time>
      </trkpt>
      <trkpt lat="48.33965" lon="2.05818">
        <ele>118.8</ele>
        <time>2023-12-14T10:10:05Z</time>
      </trkpt>
      <trkpt lat="48.3396" lon="2.05823">
        <ele>118.8</ele>
        <time>2023-12-14T10:10:06Z</time>
      </trkpt>
      <trkpt lat="48.33954" lon="2.05828">
        <ele>118.8</ele>
        <time>2023-12-14T10:10:07Z</time>
      </trkpt>
      <trkpt lat="48.33948" lon="2.05833">
        <ele>120</ele>
        <time>2023-12-14T10:10:08Z</time>
      </trkpt>
      <trkpt lat="48.33943" lon="2.05838">
        <ele>120</ele>
        <time>2023-12-14T10:10:09Z</time>
      </trkpt>
      <trkpt lat="48.33937" lon="2.05843">
        <ele>120</ele>
        <time>2023-12-14T10:10:10Z</time>
      </trkpt>
      <trkpt lat="48.33932" lon="2.05848">
        <ele>120.8</ele>
        <time>2023-12-14T10:10:11Z</time>
      </trkpt>
      <trkpt lat="48.33927" lon="2.05853">
        <ele>122</ele>
        <time>2023-12-14T10:10:12Z</time>
      </trkpt>
      <trkpt lat="48.33921" lon="2.05857">
        <ele>122</ele>
        <time>2023-12-14T10:10:13Z</time>
      </trkpt>
      <trkpt lat="48.33916" lon="2.05862">
        <ele>122</ele>
        <time>2023-12-14T10:10:14Z</time>
      </trkpt>
      <trkpt lat="48.33911" lon="2.05866">
        <ele>122</ele>
        <time>2023-12-14T10:10:15Z</time>
      </trkpt>
      <trkpt lat="48.33906" lon="2.05871">
        <ele>121.8</ele>
        <time>2023-12-14T10:10:16Z</time>
      </trkpt>
      <trkpt lat="48.33901" lon="2.05875">
        <ele>121.8</ele>
        <time>2023-12-14T10:10:17Z</time>
      </trkpt>
      <trkpt lat="48.33896" lon="2.0588">
        <ele>121.8</ele>
        <time>2023-12-14T10:10:18Z</time>
      </trkpt>
      <trkpt lat="48.33891" lon="2.05884">
        <ele>122.8</ele>
        <time>2023-12-14T10:10:19Z</time>
      </trkpt>
      <trkpt lat="48.33886" lon="2.05888">
        <ele>124</ele>
        <time>2023-12-14T10:10:20Z</time>
      </trkpt>
      <trkpt lat="48.33881" lon="2.05893">
        <ele>124</ele>
        <time>2023-12-14T10:10:21Z</time>
      </trkpt>
      <trkpt lat="48.33877" lon="2.05897">
        <ele>124</ele>
        <time>2023-12-14T10:10:22Z</time>
      </trkpt>
      <trkpt lat="48.33871" lon="2.05902">
        <ele>124</ele>
        <time>2023-12-14T10:10:23Z</time>
      </trkpt>
      <trkpt lat="48.33867" lon="2.05907">
        <ele>123.6</ele>
        <time>2023-12-14T10:10:24Z</time>
      </trkpt>
      <trkpt lat="48.33862" lon="2.05911">
        <ele>123.6</ele>
        <time>2023-12-14T10:10:25Z</time>
      </trkpt>
      <trkpt lat="48.33857" lon="2.05916">
        <ele>123.6</ele>
        <time>2023-12-14T10:10:26Z</time>
      </trkpt>
      <trkpt lat="48.33852" lon="2.0592">
        <ele>124.4</ele>
        <time>2023-12-14T10:10:27Z</time>
      </trkpt>
      <trkpt lat="48.33848" lon="2.05925">
        <ele>124.2</ele>
        <time>2023-12-14T10:10:28Z</time>
      </trkpt>
      <trkpt lat="48.33843" lon="2.05929">
        <ele>124.2</ele>
        <time>2023-12-14T10:10:29Z</time>
      </trkpt>
      <trkpt lat="48.33838" lon="2.05934">
        <ele>124.2</ele>
        <time>2023-12-14T10:10:30Z</time>
      </trkpt>
      <trkpt lat="48.33832" lon="2.05939">
        <ele>124.8</ele>
        <time>2023-12-14T10:10:31Z</time>
      </trkpt>
      <trkpt lat="48.33827" lon="2.05943">
        <ele>125.2</ele>
        <time>2023-12-14T10:10:32Z</time>
      </trkpt>
      <trkpt lat="48.33822" lon="2.05947">
        <ele>125.2</ele>
        <time>2023-12-14T10:10:33Z</time>
      </trkpt>
      <trkpt lat="48.33817" lon="2.05951">
        <ele>125.2</ele>
        <time>2023-12-14T10:10:34Z</time>
      </trkpt>
      <trkpt lat="48.33811" lon="2.05956">
        <ele>125.2</ele>
        <time>2023-12-14T10:10:35Z</time>
      </trkpt>
      <trkpt lat="48.33806" lon="2.05961">
        <ele>126.2</ele>
        <time>2023-12-14T10:10:36Z</time>
      </trkpt>
      <trkpt lat="48.33801" lon="2.05967">
        <ele>126.2</ele>
        <time>2023-12-14T10:10:37Z</time>
      </trkpt>
      <trkpt lat="48.33795" lon="2.05972">
        <ele>126.2</ele>
        <time>2023-12-14T10:10:38Z</time>
      </trkpt>
      <trkpt lat="48.3379" lon="2.05976">
        <ele>126.2</ele>
        <time>2023-12-14T10:10:39Z</time>
      </trkpt>
      <trkpt lat="48.33785" lon="2.05981">
        <ele>126.6</ele>
        <time>2023-12-14T10:10:40Z</time>
      </trkpt>
      <trkpt lat="48.33779" lon="2.05986">
        <ele>126.6</ele>
        <time>2023-12-14T10:10:41Z</time>
      </trkpt>
      <trkpt lat="48.33774" lon="2.05991">
        <ele>126.6</ele>
        <time>2023-12-14T10:10:42Z</time>
      </trkpt>
      <trkpt lat="48.33768" lon="2.05997">
        <ele>125.8</ele>
        <time>2023-12-14T10:10:43Z</time>
      </trkpt>
      <trkpt lat="48.33762" lon="2.06002">
        <ele>125.6</ele>
        <time>2023-12-14T10:10:44Z</time>
      </trkpt>
      <trkpt lat="48.33757" lon="2.06007">
        <ele>125.6</ele>
        <time>2023-12-14T10:10:45Z</time>
      </trkpt>
      <trkpt lat="48.33751" lon="2.06012">
        <ele>125.6</ele>
        <time>2023-12-14T10:10:46Z</time>
      </trkpt>
      <trkpt lat="48.33746" lon="2.06018">
        <ele>125.2</ele>
        <time>2023-12-14T10:10:47Z</time>
      </trkpt>
      <trkpt lat="48.33741" lon="2.06022">
        <ele>125.2</ele>
        <time>2023-12-14T10:10:48Z</time>
      </trkpt>
      <trkpt lat="48.33735" lon="2.06027">
        <ele>125.2</ele>
        <time>2023-12-14T10:10:49Z</time>
      </trkpt>
      <trkpt lat="48.3373" lon="2.06032">
        <ele>125.2</ele>
        <time>2023-12-14T10:10:50Z</time>
      </trkpt>
      <trkpt lat="48.33724" lon="2.06037">
        <ele>124.8</ele>
        <time>2023-12-14T10:10:51Z</time>
      </trkpt>
      <trkpt lat="48.33719" lon="2.06042">
        <ele>124.6</ele>
        <time>2023-12-14T10:10:52Z</time>
      </trkpt>
      <trkpt lat="48.33713" lon="2.06047">
        <ele>124.6</ele>
        <time>2023-12-14T10:10:53Z</time>
      </trkpt>
      <trkpt lat="48.33707" lon="2.06052">
        <ele>124.6</ele>
        <time>2023-12-14T10:10:54Z</time>
      </trkpt>
      <trkpt lat="48.33701" lon="2.06057">
        <ele>125.2</ele>
        <time>2023-12-14T10:10:55Z</time>
      </trkpt>
      <trkpt lat="48.33696" lon="2.06063">
        <ele>125</ele>
        <time>2023-12-14T10:10:56Z</time>
      </trkpt>
      <trkpt lat="48.3369" lon="2.06069">
        <ele>125</ele>
        <time>2023-12-14T10:10:57Z</time>
      </trkpt>
      <trkpt lat="48.33684" lon="2.06075">
        <ele>125</ele>
        <time>2023-12-14T10:10:58Z</time>
      </trkpt>
      <trkpt lat="48.33678" lon="2.06082">
        <ele>125</ele>
        <time>2023-12-14T10:10:59Z</time>
      </trkpt>
      <trkpt lat="48.33671" lon="2.06088">
        <ele>124.8</ele>
        <time>2023-12-14T10:11:00Z</time>
      </trkpt>
      <trkpt lat="48.33665" lon="2.06094">
        <ele>124.8</ele>
        <time>2023-12-14T10:11:01Z</time>
      </trkpt>
      <trkpt lat="48.33659" lon="2.061">
        <ele>124.8</ele>
        <time>2023-12-14T10:11:02Z</time>
      </trkpt>
      <trkpt lat="48.33652" lon="2.06107">
        <ele>123.8</ele>
        <time>2023-12-14T10:11:03Z</time>
      </trkpt>
      <trkpt lat="48.33646" lon="2.06113">
        <ele>124</ele>
        <time>2023-12-14T10:11:04Z</time>
      </trkpt>
      <trkpt lat="48.33639" lon="2.06119">
        <ele>124</ele>
        <time>2023-12-14T10:11:05Z</time>
      </trkpt>
      <trkpt lat="48.33633" lon="2.06126">
        <ele>124</ele>
        <time>2023-12-14T10:11:06Z</time>
      </trkpt>
      <trkpt lat="48.33627" lon="2.06132">
        <ele>123.6</ele>
        <time>2023-12-14T10:11:07Z</time>
      </trkpt>
      <trkpt lat="48.3362" lon="2.06137">
        <ele>123.8</ele>
        <time>2023-12-14T10:11:08Z</time>
      </trkpt>
      <trkpt lat="48.33614" lon="2.06143">
        <ele>123.8</ele>
        <time>2023-12-14T10:11:09Z</time>
      </trkpt>
      <trkpt lat="48.33608" lon="2.06149">
        <ele>123.8</ele>
        <time>2023-12-14T10:11:10Z</time>
      </trkpt>
      <trkpt lat="48.33602" lon="2.06155">
        <ele>123.8</ele>
        <time>2023-12-14T10:11:11Z</time>
      </trkpt>
      <trkpt lat="48.33596" lon="2.06161">
        <ele>124</ele>
        <time>2023-12-14T10:11:12Z</time>
      </trkpt>
      <trkpt lat="48.3359" lon="2.06166">
        <ele>124</ele>
        <time>2023-12-14T10:11:13Z</time>
      </trkpt>
      <trkpt lat="48.33584" lon="2.06172">
        <ele>124</ele>
        <time>2023-12-14T10:11:14Z</time>
      </trkpt>
      <trkpt lat="48.33578" lon="2.06177">
        <ele>125</ele>
        <time>2023-12-14T10:11:15Z</time>
      </trkpt>
      <trkpt lat="48.33572" lon="2.06183">
        <ele>125</ele>
        <time>2023-12-14T10:11:16Z</time>
      </trkpt>
      <trkpt lat="48.33566" lon="2.06189">
        <ele>125</ele>
        <time>2023-12-14T10:11:17Z</time>
      </trkpt>
      <trkpt lat="48.3356" lon="2.06195">
        <ele>125</ele>
        <time>2023-12-14T10:11:18Z</time>
      </trkpt>
      <trkpt lat="48.33554" lon="2.06199">
        <ele>125</ele>
        <time>2023-12-14T10:11:19Z</time>
      </trkpt>
      <trkpt lat="48.33548" lon="2.06205">
        <ele>126</ele>
        <time>2023-12-14T10:11:20Z</time>
      </trkpt>
      <trkpt lat="48.33543" lon="2.0621">
        <ele>126</ele>
        <time>2023-12-14T10:11:21Z</time>
      </trkpt>
      <trkpt lat="48.33537" lon="2.06216">
        <ele>126</ele>
        <time>2023-12-14T10:11:22Z</time>
      </trkpt>
      <trkpt lat="48.33531" lon="2.06222">
        <ele>126.4</ele>
        <time>2023-12-14T10:11:23Z</time>
      </trkpt>
      <trkpt lat="48.33525" lon="2.06227">
        <ele>126.6</ele>
        <time>2023-12-14T10:11:24Z</time>
      </trkpt>
      <trkpt lat="48.33519" lon="2.06233">
        <ele>126.6</ele>
        <time>2023-12-14T10:11:25Z</time>
      </trkpt>
      <trkpt lat="48.33513" lon="2.06238">
        <ele>126.6</ele>
        <time>2023-12-14T10:11:26Z</time>
      </trkpt>
      <trkpt lat="48.33507" lon="2.06244">
        <ele>126.6</ele>
        <time>2023-12-14T10:11:27Z</time>
      </trkpt>
      <trkpt lat="48.33501" lon="2.06249">
        <ele>126.8</ele>
        <time>2023-12-14T10:11:28Z</time>
      </trkpt>
      <trkpt lat="48.33495" lon="2.06255">
        <ele>126.8</ele>
        <time>2023-12-14T10:11:29Z</time>
      </trkpt>
      <trkpt lat="48.33489" lon="2.06261">
        <ele>126.8</ele>
        <time>2023-12-14T10:11:30Z</time>
      </trkpt>
      <trkpt lat="48.33483" lon="2.06267">
        <ele>126.8</ele>
        <time>2023-12-14T10:11:31Z</time>
      </trkpt>
      <trkpt lat="48.33477" lon="2.06273">
        <ele>127</ele>
        <time>2023-12-14T10:11:32Z</time>
      </trkpt>
      <trkpt lat="48.33471" lon="2.06278">
        <ele>127</ele>
        <time>2023-12-14T10:11:33Z</time>
      </trkpt>
      <trkpt lat="48.33465" lon="2.06284">
        <ele>127</ele>
        <time>2023-12-14T10:11:34Z</time>
      </trkpt>
      <trkpt lat="48.33459" lon="2.06289">
        <ele>128</ele>
        <time>2023-12-14T10:11:35Z</time>
      </trkpt>
      <trkpt lat="48.33453" lon="2.06294">
        <ele>127.6</ele>
        <time>2023-12-14T10:11:36Z</time>
      </trkpt>
      <trkpt lat="48.33447" lon="2.063">
        <ele>127.6</ele>
        <time>2023-12-14T10:11:37Z</time>
      </trkpt>
      <trkpt lat="48.33441" lon="2.06306">
        <ele>127.6</ele>
        <time>2023-12-14T10:11:38Z</time>
      </trkpt>
      <trkpt lat="48.33436" lon="2.06311">
        <ele>127.6</ele>
        <time>2023-12-14T10:11:39Z</time>
      </trkpt>
      <trkpt lat="48.33429" lon="2.06316">
        <ele>128.8</ele>
        <time>2023-12-14T10:11:40Z</time>
      </trkpt>
      <trkpt lat="48.33423" lon="2.06322">
        <ele>128.8</ele>
        <time>2023-12-14T10:11:41Z</time>
      </trkpt>
      <trkpt lat="48.33417" lon="2.06328">
        <ele>128.8</ele>
        <time>2023-12-14T10:11:42Z</time>
      </trkpt>
      <trkpt lat="48.33411" lon="2.06333">
        <ele>128.8</ele>
        <time>2023-12-14T10:11:43Z</time>
      </trkpt>
      <trkpt lat="48.33405" lon="2.06339">
        <ele>128.6</ele>
        <time>2023-12-14T10:11:44Z</time>
      </trkpt>
      <trkpt lat="48.33399" lon="2.06345">
        <ele>128.6</ele>
        <time>2023-12-14T10:11:45Z</time>
      </trkpt>
      <trkpt lat="48.33393" lon="2.0635">
        <ele>128.6</ele>
        <time>2023-12-14T10:11:46Z</time>
      </trkpt>
      <trkpt lat="48.33387" lon="2.06356">
        <ele>128.6</ele>
        <time>2023-12-14T10:11:47Z</time>
      </trkpt>
      <trkpt lat="48.33381" lon="2.06362">
        <ele>129.2</ele>
        <time>2023-12-14T10:11:48Z</time>
      </trkpt>
      <trkpt lat="48.33375" lon="2.06367">
        <ele>129.2</ele>
        <time>2023-12-14T10:11:49Z</time>
      </trkpt>
      <trkpt lat="48.33369" lon="2.06373">
        <ele>129.2</ele>
        <time>2023-12-14T10:11:50Z</time>
      </trkpt>
      <trkpt lat="48.33363" lon="2.06378">
        <ele>129.2</ele>
        <time>2023-12-14T10:11:51Z</time>
      </trkpt>
      <trkpt lat="48.33358" lon="2.06383">
        <ele>128.6</ele>
        <time>2023-12-14T10:11:52Z</time>
      </trkpt>
      <trkpt lat="48.33352" lon="2.06389">
        <ele>128.6</ele>
        <time>2023-12-14T10:11:53Z</time>
      </trkpt>
      <trkpt lat="48.33345" lon="2.06394">
        <ele>128.6</ele>
        <time>2023-12-14T10:11:54Z</time>
      </trkpt>
      <trkpt lat="48.33339" lon="2.06399">
        <ele>129.2</ele>
        <time>2023-12-14T10:11:55Z</time>
      </trkpt>
      <trkpt lat="48.33333" lon="2.06405">
        <ele>129</ele>
        <time>2023-12-14T10:11:56Z</time>
      </trkpt>
      <trkpt lat="48.33327" lon="2.0641">
        <ele>129</ele>
        <time>2023-12-14T10:11:57Z</time>
      </trkpt>
      <trkpt lat="48.33321" lon="2.06416">
        <ele>129</ele>
        <time>2023-12-14T10:11:58Z</time>
      </trkpt>
      <trkpt lat="48.33315" lon="2.06421">
        <ele>129</ele>
        <time>2023-12-14T10:11:59Z</time>
      </trkpt>
      <trkpt lat="48.33309" lon="2.06427">
        <ele>129</ele>
        <time>2023-12-14T10:12:00Z</time>
      </trkpt>
      <trkpt lat="48.33302" lon="2.06433">
        <ele>129</ele>
        <time>2023-12-14T10:12:01Z</time>
      </trkpt>
      <trkpt lat="48.33296" lon="2.0644">
        <ele>129</ele>
        <time>2023-12-14T10:12:02Z</time>
      </trkpt>
      <trkpt lat="48.33289" lon="2.06446">
        <ele>129</ele>
        <time>2023-12-14T10:12:03Z</time>
      </trkpt>
      <trkpt lat="48.33283" lon="2.06452">
        <ele>128.2</ele>
        <time>2023-12-14T10:12:04Z</time>
      </trkpt>
      <trkpt lat="48.33276" lon="2.06458">
        <ele>128.2</ele>
        <time>2023-12-14T10:12:05Z</time>
      </trkpt>
      <trkpt lat="48.33269" lon="2.06464">
        <ele>128.2</ele>
        <time>2023-12-14T10:12:06Z</time>
      </trkpt>
      <trkpt lat="48.33263" lon="2.06471">
        <ele>127.6</ele>
        <time>2023-12-14T10:12:07Z</time>
      </trkpt>
      <trkpt lat="48.33256" lon="2.06477">
        <ele>128.2</ele>
        <time>2023-12-14T10:12:08Z</time>
      </trkpt>
      <trkpt lat="48.33249" lon="2.06484">
        <ele>128.2</ele>
        <time>2023-12-14T10:12:09Z</time>
      </trkpt>
      <trkpt lat="48.33242" lon="2.0649">
        <ele>128.2</ele>
        <time>2023-12-14T10:12:10Z</time>
      </trkpt>
      <trkpt lat="48.33236" lon="2.06496">
        <ele>128.2</ele>
        <time>2023-12-14T10:12:11Z</time>
      </trkpt>
      <trkpt lat="48.33228" lon="2.06502">
        <ele>127.6</ele>
        <time>2023-12-14T10:12:12Z</time>
      </trkpt>
      <trkpt lat="48.33221" lon="2.06509">
        <ele>127.6</ele>
        <time>2023-12-14T10:12:13Z</time>
      </trkpt>
      <trkpt lat="48.33214" lon="2.06516">
        <ele>127.6</ele>
        <time>2023-12-14T10:12:14Z</time>
      </trkpt>
      <trkpt lat="48.33207" lon="2.06523">
        <ele>126.6</ele>
        <time>2023-12-14T10:12:15Z</time>
      </trkpt>
      <trkpt lat="48.332" lon="2.06531">
        <ele>126.6</ele>
        <time>2023-12-14T10:12:16Z</time>
      </trkpt>
      <trkpt lat="48.33193" lon="2.06538">
        <ele>126.6</ele>
        <time>2023-12-14T10:12:17Z</time>
      </trkpt>
      <trkpt lat="48.33185" lon="2.06545">
        <ele>126.6</ele>
        <time>2023-12-14T10:12:18Z</time>
      </trkpt>
      <trkpt lat="48.33178" lon="2.06552">
        <ele>126.2</ele>
        <time>2023-12-14T10:12:19Z</time>
      </trkpt>
      <trkpt lat="48.3317" lon="2.06559">
        <ele>126.6</ele>
        <time>2023-12-14T10:12:20Z</time>
      </trkpt>
      <trkpt lat="48.33163" lon="2.06565">
        <ele>126.6</ele>
        <time>2023-12-14T10:12:21Z</time>
      </trkpt>
      <trkpt lat="48.33155" lon="2.06572">
        <ele>126.6</ele>
        <time>2023-12-14T10:12:22Z</time>
      </trkpt>
      <trkpt lat="48.33148" lon="2.0658">
        <ele>125.6</ele>
        <time>2023-12-14T10:12:23Z</time>
      </trkpt>
      <trkpt lat="48.3314" lon="2.06586">
        <ele>124.4</ele>
        <time>2023-12-14T10:12:24Z</time>
      </trkpt>
      <trkpt lat="48.33133" lon="2.06593">
        <ele>124.4</ele>
        <time>2023-12-14T10:12:25Z</time>
      </trkpt>
      <trkpt lat="48.33125" lon="2.066">
        <ele>124.4</ele>
        <time>2023-12-14T10:12:26Z</time>
      </trkpt>
      <trkpt lat="48.33118" lon="2.06607">
        <ele>124.4</ele>
        <time>2023-12-14T10:12:27Z</time>
      </trkpt>
      <trkpt lat="48.33111" lon="2.06614">
        <ele>124</ele>
        <time>2023-12-14T10:12:28Z</time>
      </trkpt>
      <trkpt lat="48.33103" lon="2.06621">
        <ele>124</ele>
        <time>2023-12-14T10:12:29Z</time>
      </trkpt>
      <trkpt lat="48.33096" lon="2.06627">
        <ele>124</ele>
        <time>2023-12-14T10:12:30Z</time>
      </trkpt>
      <trkpt lat="48.33089" lon="2.06634">
        <ele>124</ele>
        <time>2023-12-14T10:12:31Z</time>
      </trkpt>
      <trkpt lat="48.33082" lon="2.06641">
        <ele>124.6</ele>
        <time>2023-12-14T10:12:32Z</time>
      </trkpt>
      <trkpt lat="48.33075" lon="2.06647">
        <ele>124.6</ele>
        <time>2023-12-14T10:12:33Z</time>
      </trkpt>
      <trkpt lat="48.33068" lon="2.06654">
        <ele>124.6</ele>
        <time>2023-12-14T10:12:34Z</time>
      </trkpt>
      <trkpt lat="48.33061" lon="2.0666">
        <ele>124.6</ele>
        <time>2023-12-14T10:12:35Z</time>
      </trkpt>
      <trkpt lat="48.33054" lon="2.06667">
        <ele>124.6</ele>
        <time>2023-12-14T10:12:36Z</time>
      </trkpt>
      <trkpt lat="48.33047" lon="2.06674">
        <ele>124.6</ele>
        <time>2023-12-14T10:12:37Z</time>
      </trkpt>
      <trkpt lat="48.3304" lon="2.0668">
        <ele>124.6</ele>
        <time>2023-12-14T10:12:38Z</time>
      </trkpt>
      <trkpt lat="48.33034" lon="2.06687">
        <ele>124.6</ele>
        <time>2023-12-14T10:12:39Z</time>
      </trkpt>
      <trkpt lat="48.33027" lon="2.06693">
        <ele>124.8</ele>
        <time>2023-12-14T10:12:40Z</time>
      </trkpt>
      <trkpt lat="48.3302" lon="2.067">
        <ele>124.8</ele>
        <time>2023-12-14T10:12:41Z</time>
      </trkpt>
      <trkpt lat="48.33013" lon="2.06706">
        <ele>124.8</ele>
        <time>2023-12-14T10:12:42Z</time>
      </trkpt>
      <trkpt lat="48.33006" lon="2.06713">
        <ele>124.8</ele>
        <time>2023-12-14T10:12:43Z</time>
      </trkpt>
      <trkpt lat="48.32999" lon="2.06719">
        <ele>125.2</ele>
        <time>2023-12-14T10:12:44Z</time>
      </trkpt>
      <trkpt lat="48.32992" lon="2.06725">
        <ele>125.2</ele>
        <time>2023-12-14T10:12:45Z</time>
      </trkpt>
      <trkpt lat="48.32985" lon="2.06732">
        <ele>125.2</ele>
        <time>2023-12-14T10:12:46Z</time>
      </trkpt>
      <trkpt lat="48.32978" lon="2.06738">
        <ele>125.2</ele>
        <time>2023-12-14T10:12:47Z</time>
      </trkpt>
      <trkpt lat="48.32971" lon="2.06744">
        <ele>124.2</ele>
        <time>2023-12-14T10:12:48Z</time>
      </trkpt>
      <trkpt lat="48.32965" lon="2.06751">
        <ele>124.2</ele>
        <time>2023-12-14T10:12:49Z</time>
      </trkpt>
      <trkpt lat="48.32958" lon="2.06757">
        <ele>124.2</ele>
        <time>2023-12-14T10:12:50Z</time>
      </trkpt>
      <trkpt lat="48.32951" lon="2.06764">
        <ele>123.2</ele>
        <time>2023-12-14T10:12:51Z</time>
      </trkpt>
      <trkpt lat="48.32944" lon="2.06771">
        <ele>123.2</ele>
        <time>2023-12-14T10:12:52Z</time>
      </trkpt>
      <trkpt lat="48.32936" lon="2.06777">
        <ele>123.2</ele>
        <time>2023-12-14T10:12:53Z</time>
      </trkpt>
      <trkpt lat="48.32929" lon="2.06784">
        <ele>123.2</ele>
        <time>2023-12-14T10:12:54Z</time>
      </trkpt>
      <trkpt lat="48.32922" lon="2.0679">
        <ele>122.2</ele>
        <time>2023-12-14T10:12:55Z</time>
      </trkpt>
      <trkpt lat="48.32915" lon="2.06797">
        <ele>121.8</ele>
        <time>2023-12-14T10:12:56Z</time>
      </trkpt>
      <trkpt lat="48.32909" lon="2.06803">
        <ele>121.8</ele>
        <time>2023-12-14T10:12:57Z</time>
      </trkpt>
      <trkpt lat="48.32901" lon="2.0681">
        <ele>121.8</ele>
        <time>2023-12-14T10:12:58Z</time>
      </trkpt>
      <trkpt lat="48.32894" lon="2.06816">
        <ele>122</ele>
        <time>2023-12-14T10:12:59Z</time>
      </trkpt>
      <trkpt lat="48.32887" lon="2.06822">
        <ele>121.4</ele>
        <time>2023-12-14T10:13:00Z</time>
      </trkpt>
      <trkpt lat="48.32881" lon="2.06828">
        <ele>121.4</ele>
        <time>2023-12-14T10:13:01Z</time>
      </trkpt>
      <trkpt lat="48.32874" lon="2.06835">
        <ele>121.4</ele>
        <time>2023-12-14T10:13:02Z</time>
      </trkpt>
      <trkpt lat="48.32867" lon="2.06842">
        <ele>120.4</ele>
        <time>2023-12-14T10:13:03Z</time>
      </trkpt>
      <trkpt lat="48.3286" lon="2.06849">
        <ele>119.2</ele>
        <time>2023-12-14T10:13:04Z</time>
      </trkpt>
      <trkpt lat="48.32853" lon="2.06856">
        <ele>119.2</ele>
        <time>2023-12-14T10:13:05Z</time>
      </trkpt>
      <trkpt lat="48.32845" lon="2.06863">
        <ele>119.2</ele>
        <time>2023-12-14T10:13:06Z</time>
      </trkpt>
      <trkpt lat="48.32838" lon="2.0687">
        <ele>120.2</ele>
        <time>2023-12-14T10:13:07Z</time>
      </trkpt>
      <trkpt lat="48.32831" lon="2.06876">
        <ele>120.8</ele>
        <time>2023-12-14T10:13:08Z</time>
      </trkpt>
      <trkpt lat="48.32824" lon="2.06883">
        <ele>120.8</ele>
        <time>2023-12-14T10:13:09Z</time>
      </trkpt>
      <trkpt lat="48.32817" lon="2.0689">
        <ele>120.8</ele>
        <time>2023-12-14T10:13:10Z</time>
      </trkpt>
      <trkpt lat="48.3281" lon="2.06897">
        <ele>121.4</ele>
        <time>2023-12-14T10:13:11Z</time>
      </trkpt>
      <trkpt lat="48.32802" lon="2.06904">
        <ele>121.2</ele>
        <time>2023-12-14T10:13:12Z</time>
      </trkpt>
      <trkpt lat="48.32795" lon="2.06911">
        <ele>121.2</ele>
        <time>2023-12-14T10:13:13Z</time>
      </trkpt>
      <trkpt lat="48.32788" lon="2.06918">
        <ele>121.2</ele>
        <time>2023-12-14T10:13:14Z</time>
      </trkpt>
      <trkpt lat="48.3278" lon="2.06925">
        <ele>121.2</ele>
        <time>2023-12-14T10:13:15Z</time>
      </trkpt>
      <trkpt lat="48.32773" lon="2.06932">
        <ele>121</ele>
        <time>2023-12-14T10:13:16Z</time>
      </trkpt>
      <trkpt lat="48.32766" lon="2.06939">
        <ele>121</ele>
        <time>2023-12-14T10:13:17Z</time>
      </trkpt>
      <trkpt lat="48.32759" lon="2.06946">
        <ele>121</ele>
        <time>2023-12-14T10:13:18Z</time>
      </trkpt>
      <trkpt lat="48.32751" lon="2.06953">
        <ele>120.6</ele>
        <time>2023-12-14T10:13:19Z</time>
      </trkpt>
      <trkpt lat="48.32744" lon="2.06959">
        <ele>120.8</ele>
        <time>2023-12-14T10:13:20Z</time>
      </trkpt>
      <trkpt lat="48.32737" lon="2.06966">
        <ele>120.8</ele>
        <time>2023-12-14T10:13:21Z</time>
      </trkpt>
      <trkpt lat="48.3273" lon="2.06973">
        <ele>120.8</ele>
        <time>2023-12-14T10:13:22Z</time>
      </trkpt>
      <trkpt lat="48.32723" lon="2.0698">
        <ele>120.8</ele>
        <time>2023-12-14T10:13:23Z</time>
      </trkpt>
      <trkpt lat="48.32715" lon="2.06987">
        <ele>121.2</ele>
        <time>2023-12-14T10:13:24Z</time>
      </trkpt>
      <trkpt lat="48.32709" lon="2.06993">
        <ele>121.2</ele>
        <time>2023-12-14T10:13:25Z</time>
      </trkpt>
      <trkpt lat="48.32702" lon="2.06999">
        <ele>121.2</ele>
        <time>2023-12-14T10:13:26Z</time>
      </trkpt>
      <trkpt lat="48.32695" lon="2.07005">
        <ele>121.2</ele>
        <time>2023-12-14T10:13:27Z</time>
      </trkpt>
      <trkpt lat="48.32689" lon="2.0701">
        <ele>122.4</ele>
        <time>2023-12-14T10:13:28Z</time>
      </trkpt>
      <trkpt lat="48.32683" lon="2.07016">
        <ele>122.4</ele>
        <time>2023-12-14T10:13:29Z</time>
      </trkpt>
      <trkpt lat="48.32676" lon="2.07021">
        <ele>122.4</ele>
        <time>2023-12-14T10:13:30Z</time>
      </trkpt>
      <trkpt lat="48.3267" lon="2.07027">
        <ele>122.4</ele>
        <time>2023-12-14T10:13:31Z</time>
      </trkpt>
      <trkpt lat="48.32664" lon="2.07032">
        <ele>122</ele>
        <time>2023-12-14T10:13:32Z</time>
      </trkpt>
      <trkpt lat="48.32658" lon="2.07039">
        <ele>122</ele>
        <time>2023-12-14T10:13:33Z</time>
      </trkpt>
      <trkpt lat="48.32651" lon="2.07044">
        <ele>122</ele>
        <time>2023-12-14T10:13:34Z</time>
      </trkpt>
      <trkpt lat="48.32645" lon="2.0705">
        <ele>123</ele>
        <time>2023-12-14T10:13:35Z</time>
      </trkpt>
      <trkpt lat="48.32639" lon="2.07056">
        <ele>123.2</ele>
        <time>2023-12-14T10:13:36Z</time>
      </trkpt>
      <trkpt lat="48.32633" lon="2.07062">
        <ele>123.2</ele>
        <time>2023-12-14T10:13:37Z</time>
      </trkpt>
      <trkpt lat="48.32626" lon="2.07068">
        <ele>123.2</ele>
        <time>2023-12-14T10:13:38Z</time>
      </trkpt>
      <trkpt lat="48.3262" lon="2.07074">
        <ele>123.6</ele>
        <time>2023-12-14T10:13:39Z</time>
      </trkpt>
      <trkpt lat="48.32613" lon="2.0708">
        <ele>123.6</ele>
        <time>2023-12-14T10:13:40Z</time>
      </trkpt>
      <trkpt lat="48.32606" lon="2.07087">
        <ele>123.6</ele>
        <time>2023-12-14T10:13:41Z</time>
      </trkpt>
      <trkpt lat="48.326" lon="2.07093">
        <ele>123.6</ele>
        <time>2023-12-14T10:13:42Z</time>
      </trkpt>
      <trkpt lat="48.32593" lon="2.07099">
        <ele>123.4</ele>
        <time>2023-12-14T10:13:43Z</time>
      </trkpt>
      <trkpt lat="48.32587" lon="2.07105">
        <ele>123.2</ele>
        <time>2023-12-14T10:13:44Z</time>
      </trkpt>
      <trkpt lat="48.3258" lon="2.07111">
        <ele>123.2</ele>
        <time>2023-12-14T10:13:45Z</time>
      </trkpt>
      <trkpt lat="48.32573" lon="2.07117">
        <ele>123.2</ele>
        <time>2023-12-14T10:13:46Z</time>
      </trkpt>
      <trkpt lat="48.32567" lon="2.07124">
        <ele>123.2</ele>
        <time>2023-12-14T10:13:47Z</time>
      </trkpt>
      <trkpt lat="48.3256" lon="2.0713">
        <ele>123.6</ele>
        <time>2023-12-14T10:13:48Z</time>
      </trkpt>
      <trkpt lat="48.32553" lon="2.07137">
        <ele>123.6</ele>
        <time>2023-12-14T10:13:49Z</time>
      </trkpt>
      <trkpt lat="48.32546" lon="2.07143">
        <ele>123.6</ele>
        <time>2023-12-14T10:13:50Z</time>
      </trkpt>
      <trkpt lat="48.32539" lon="2.07149">
        <ele>122.8</ele>
        <time>2023-12-14T10:13:51Z</time>
      </trkpt>
      <trkpt lat="48.32532" lon="2.07157">
        <ele>122.6</ele>
        <time>2023-12-14T10:13:52Z</time>
      </trkpt>
      <trkpt lat="48.32525" lon="2.07164">
        <ele>122.6</ele>
        <time>2023-12-14T10:13:53Z</time>
      </trkpt>
      <trkpt lat="48.32518" lon="2.07171">
        <ele>122.6</ele>
        <time>2023-12-14T10:13:54Z</time>
      </trkpt>
      <trkpt lat="48.3251" lon="2.07178">
        <ele>121.8</ele>
        <time>2023-12-14T10:13:55Z</time>
      </trkpt>
      <trkpt lat="48.32502" lon="2.07186">
        <ele>121.4</ele>
        <time>2023-12-14T10:13:56Z</time>
      </trkpt>
      <trkpt lat="48.32495" lon="2.07193">
        <ele>121.4</ele>
        <time>2023-12-14T10:13:57Z</time>
      </trkpt>
      <trkpt lat="48.32487" lon="2.072">
        <ele>121.4</ele>
        <time>2023-12-14T10:13:58Z</time>
      </trkpt>
      <trkpt lat="48.32479" lon="2.07207">
        <ele>121</ele>
        <time>2023-12-14T10:13:59Z</time>
      </trkpt>
      <trkpt lat="48.32472" lon="2.07215">
        <ele>120.8</ele>
        <time>2023-12-14T10:14:00Z</time>
      </trkpt>
      <trkpt lat="48.32464" lon="2.07222">
        <ele>120.8</ele>
        <time>2023-12-14T10:14:01Z</time>
      </trkpt>
      <trkpt lat="48.32456" lon="2.07229">
        <ele>120.8</ele>
        <time>2023-12-14T10:14:02Z</time>
      </trkpt>
      <trkpt lat="48.32449" lon="2.07237">
        <ele>119.8</ele>
        <time>2023-12-14T10:14:03Z</time>
      </trkpt>
      <trkpt lat="48.32441" lon="2.07244">
        <ele>118.2</ele>
        <time>2023-12-14T10:14:04Z</time>
      </trkpt>
      <trkpt lat="48.32433" lon="2.07251">
        <ele>118.2</ele>
        <time>2023-12-14T10:14:05Z</time>
      </trkpt>
      <trkpt lat="48.32425" lon="2.07258">
        <ele>118.2</ele>
        <time>2023-12-14T10:14:06Z</time>
      </trkpt>
      <trkpt lat="48.32418" lon="2.07266">
        <ele>118.2</ele>
        <time>2023-12-14T10:14:07Z</time>
      </trkpt>
      <trkpt lat="48.3241" lon="2.07274">
        <ele>117.6</ele>
        <time>2023-12-14T10:14:08Z</time>
      </trkpt>
      <trkpt lat="48.32403" lon="2.07281">
        <ele>117.6</ele>
        <time>2023-12-14T10:14:09Z</time>
      </trkpt>
      <trkpt lat="48.32395" lon="2.07288">
        <ele>117.6</ele>
        <time>2023-12-14T10:14:10Z</time>
      </trkpt>
      <trkpt lat="48.32387" lon="2.07295">
        <ele>117.6</ele>
        <time>2023-12-14T10:14:11Z</time>
      </trkpt>
      <trkpt lat="48.3238" lon="2.07303">
        <ele>117.2</ele>
        <time>2023-12-14T10:14:12Z</time>
      </trkpt>
      <trkpt lat="48.32372" lon="2.0731">
        <ele>117.2</ele>
        <time>2023-12-14T10:14:13Z</time>
      </trkpt>
      <trkpt lat="48.32364" lon="2.07317">
        <ele>117.2</ele>
        <time>2023-12-14T10:14:14Z</time>
      </trkpt>
      <trkpt lat="48.32357" lon="2.07325">
        <ele>117.4</ele>
        <time>2023-12-14T10:14:15Z</time>
      </trkpt>
      <trkpt lat="48.32349" lon="2.07332">
        <ele>118.2</ele>
        <time>2023-12-14T10:14:16Z</time>
      </trkpt>
      <trkpt lat="48.32341" lon="2.07339">
        <ele>118.2</ele>
        <time>2023-12-14T10:14:17Z</time>
      </trkpt>
      <trkpt lat="48.32334" lon="2.07345">
        <ele>118.2</ele>
        <time>2023-12-14T10:14:18Z</time>
      </trkpt>
      <trkpt lat="48.32327" lon="2.07351">
        <ele>119.2</ele>
        <time>2023-12-14T10:14:19Z</time>
      </trkpt>
      <trkpt lat="48.3232" lon="2.07358">
        <ele>120</ele>
        <time>2023-12-14T10:14:20Z</time>
      </trkpt>
      <trkpt lat="48.32313" lon="2.07365">
        <ele>120</ele>
        <time>2023-12-14T10:14:21Z</time>
      </trkpt>
      <trkpt lat="48.32306" lon="2.07371">
        <ele>120</ele>
        <time>2023-12-14T10:14:22Z</time>
      </trkpt>
      <trkpt lat="48.323" lon="2.07377">
        <ele>120</ele>
        <time>2023-12-14T10:14:23Z</time>
      </trkpt>
      <trkpt lat="48.32294" lon="2.07383">
        <ele>121</ele>
        <time>2023-12-14T10:14:24Z</time>
      </trkpt>
      <trkpt lat="48.32288" lon="2.07388">
        <ele>121</ele>
        <time>2023-12-14T10:14:25Z</time>
      </trkpt>
      <trkpt lat="48.32282" lon="2.07394">
        <ele>121</ele>
        <time>2023-12-14T10:14:26Z</time>
      </trkpt>
      <trkpt lat="48.32276" lon="2.074">
        <ele>121</ele>
        <time>2023-12-14T10:14:27Z</time>
      </trkpt>
      <trkpt lat="48.3227" lon="2.07405">
        <ele>121.6</ele>
        <time>2023-12-14T10:14:28Z</time>
      </trkpt>
      <trkpt lat="48.32264" lon="2.07411">
        <ele>121.6</ele>
        <time>2023-12-14T10:14:29Z</time>
      </trkpt>
      <trkpt lat="48.32258" lon="2.07417">
        <ele>121.6</ele>
        <time>2023-12-14T10:14:30Z</time>
      </trkpt>
      <trkpt lat="48.32252" lon="2.07422">
        <ele>121.8</ele>
        <time>2023-12-14T10:14:31Z</time>
      </trkpt>
      <trkpt lat="48.32246" lon="2.07428">
        <ele>122</ele>
        <time>2023-12-14T10:14:32Z</time>
      </trkpt>
      <trkpt lat="48.3224" lon="2.07433">
        <ele>122</ele>
        <time>2023-12-14T10:14:33Z</time>
      </trkpt>
      <trkpt lat="48.32234" lon="2.07439">
        <ele>122</ele>
        <time>2023-12-14T10:14:34Z</time>
      </trkpt>
      <trkpt lat="48.32228" lon="2.07445">
        <ele>122</ele>
        <time>2023-12-14T10:14:35Z</time>
      </trkpt>
      <trkpt lat="48.32222" lon="2.0745">
        <ele>122</ele>
        <time>2023-12-14T10:14:36Z</time>
      </trkpt>
      <trkpt lat="48.32216" lon="2.07456">
        <ele>122</ele>
        <time>2023-12-14T10:14:37Z</time>
      </trkpt>
      <trkpt lat="48.32209" lon="2.07461">
        <ele>122</ele>
        <time>2023-12-14T10:14:38Z</time>
      </trkpt>
      <trkpt lat="48.32203" lon="2.07467">
        <ele>122</ele>
        <time>2023-12-14T10:14:39Z</time>
      </trkpt>
      <trkpt lat="48.32197" lon="2.07473">
        <ele>122.2</ele>
        <time>2023-12-14T10:14:40Z</time>
      </trkpt>
      <trkpt lat="48.3219" lon="2.07479">
        <ele>122.2</ele>
        <time>2023-12-14T10:14:41Z</time>
      </trkpt>
      <trkpt lat="48.32184" lon="2.07485">
        <ele>122.2</ele>
        <time>2023-12-14T10:14:42Z</time>
      </trkpt>
      <trkpt lat="48.32178" lon="2.07492">
        <ele>121.2</ele>
        <time>2023-12-14T10:14:43Z</time>
      </trkpt>
      <trkpt lat="48.32172" lon="2.07499">
        <ele>120.6</ele>
        <time>2023-12-14T10:14:44Z</time>
      </trkpt>
      <trkpt lat="48.32166" lon="2.07507">
        <ele>120.6</ele>
        <time>2023-12-14T10:14:45Z</time>
      </trkpt>
      <trkpt lat="48.3216" lon="2.07515">
        <ele>120.6</ele>
        <time>2023-12-14T10:14:46Z</time>
      </trkpt>
      <trkpt lat="48.32155" lon="2.07523">
        <ele>120.6</ele>
        <time>2023-12-14T10:14:47Z</time>
      </trkpt>
      <trkpt lat="48.32149" lon="2.07532">
        <ele>121.2</ele>
        <time>2023-12-14T10:14:48Z</time>
      </trkpt>
      <trkpt lat="48.32144" lon="2.07542">
        <ele>121.2</ele>
        <time>2023-12-14T10:14:49Z</time>
      </trkpt>
      <trkpt lat="48.32139" lon="2.07551">
        <ele>121.2</ele>
        <time>2023-12-14T10:14:50Z</time>
      </trkpt>
      <trkpt lat="48.32135" lon="2.07561">
        <ele>120.2</ele>
        <time>2023-12-14T10:14:51Z</time>
      </trkpt>
      <trkpt lat="48.32131" lon="2.07572">
        <ele>119.2</ele>
        <time>2023-12-14T10:14:52Z</time>
      </trkpt>
      <trkpt lat="48.32127" lon="2.07583">
        <ele>119.2</ele>
        <time>2023-12-14T10:14:53Z</time>
      </trkpt>
      <trkpt lat="48.32123" lon="2.07594">
        <ele>119.2</ele>
        <time>2023-12-14T10:14:54Z</time>
      </trkpt>
      <trkpt lat="48.3212" lon="2.07605">
        <ele>119.2</ele>
        <time>2023-12-14T10:14:55Z</time>
      </trkpt>
      <trkpt lat="48.32117" lon="2.07617">
        <ele>118.8</ele>
        <time>2023-12-14T10:14:56Z</time>
      </trkpt>
      <trkpt lat="48.32114" lon="2.07629">
        <ele>118.8</ele>
        <time>2023-12-14T10:14:57Z</time>
      </trkpt>
      <trkpt lat="48.32112" lon="2.07641">
        <ele>118.8</ele>
        <time>2023-12-14T10:14:58Z</time>
      </trkpt>
      <trkpt lat="48.3211" lon="2.07654">
        <ele>117.8</ele>
        <time>2023-12-14T10:14:59Z</time>
      </trkpt>
      <trkpt lat="48.32108" lon="2.07666">
        <ele>117.6</ele>
        <time>2023-12-14T10:15:00Z</time>
      </trkpt>
      <trkpt lat="48.32106" lon="2.07679">
        <ele>117.6</ele>
        <time>2023-12-14T10:15:01Z</time>
      </trkpt>
      <trkpt lat="48.32104" lon="2.07692">
        <ele>117.6</ele>
        <time>2023-12-14T10:15:02Z</time>
      </trkpt>
      <trkpt lat="48.32103" lon="2.07705">
        <ele>116.6</ele>
        <time>2023-12-14T10:15:03Z</time>
      </trkpt>
      <trkpt lat="48.32101" lon="2.07718">
        <ele>114.6</ele>
        <time>2023-12-14T10:15:04Z</time>
      </trkpt>
      <trkpt lat="48.321" lon="2.07731">
        <ele>114.6</ele>
        <time>2023-12-14T10:15:05Z</time>
      </trkpt>
      <trkpt lat="48.32099" lon="2.07744">
        <ele>114.6</ele>
        <time>2023-12-14T10:15:06Z</time>
      </trkpt>
      <trkpt lat="48.32097" lon="2.07758">
        <ele>114.6</ele>
        <time>2023-12-14T10:15:07Z</time>
      </trkpt>
      <trkpt lat="48.32096" lon="2.07771">
        <ele>113.8</ele>
        <time>2023-12-14T10:15:08Z</time>
      </trkpt>
      <trkpt lat="48.32095" lon="2.07785">
        <ele>113.8</ele>
        <time>2023-12-14T10:15:09Z</time>
      </trkpt>
      <trkpt lat="48.32094" lon="2.07798">
        <ele>113.8</ele>
        <time>2023-12-14T10:15:10Z</time>
      </trkpt>
      <trkpt lat="48.32093" lon="2.07812">
        <ele>113.8</ele>
        <time>2023-12-14T10:15:11Z</time>
      </trkpt>
      <trkpt lat="48.32091" lon="2.07825">
        <ele>113.2</ele>
        <time>2023-12-14T10:15:12Z</time>
      </trkpt>
      <trkpt lat="48.3209" lon="2.07839">
        <ele>113.2</ele>
        <time>2023-12-14T10:15:13Z</time>
      </trkpt>
      <trkpt lat="48.32089" lon="2.07853">
        <ele>113.2</ele>
        <time>2023-12-14T10:15:14Z</time>
      </trkpt>
      <trkpt lat="48.32087" lon="2.07867">
        <ele>113.2</ele>
        <time>2023-12-14T10:15:15Z</time>
      </trkpt>
      <trkpt lat="48.32086" lon="2.07881">
        <ele>111</ele>
        <time>2023-12-14T10:15:16Z</time>
      </trkpt>
      <trkpt lat="48.32085" lon="2.07896">
        <ele>111</ele>
        <time>2023-12-14T10:15:17Z</time>
      </trkpt>
      <trkpt lat="48.32084" lon="2.0791">
        <ele>111</ele>
        <time>2023-12-14T10:15:18Z</time>
      </trkpt>
      <trkpt lat="48.32082" lon="2.07924">
        <ele>110</ele>
        <time>2023-12-14T10:15:19Z</time>
      </trkpt>
      <trkpt lat="48.32081" lon="2.07938">
        <ele>109.6</ele>
        <time>2023-12-14T10:15:20Z</time>
      </trkpt>
      <trkpt lat="48.32079" lon="2.07952">
        <ele>109.6</ele>
        <time>2023-12-14T10:15:21Z</time>
      </trkpt>
      <trkpt lat="48.32077" lon="2.07967">
        <ele>109.6</ele>
        <time>2023-12-14T10:15:22Z</time>
      </trkpt>
      <trkpt lat="48.32076" lon="2.07982">
        <ele>108.6</ele>
        <time>2023-12-14T10:15:23Z</time>
      </trkpt>
      <trkpt lat="48.32074" lon="2.07996">
        <ele>105.8</ele>
        <time>2023-12-14T10:15:24Z</time>
      </trkpt>
      <trkpt lat="48.32073" lon="2.08011">
        <ele>105.8</ele>
        <time>2023-12-14T10:15:25Z</time>
      </trkpt>
      <trkpt lat="48.32071" lon="2.08026">
        <ele>105.8</ele>
        <time>2023-12-14T10:15:26Z</time>
      </trkpt>
      <trkpt lat="48.3207" lon="2.0804">
        <ele>104.8</ele>
        <time>2023-12-14T10:15:27Z</time>
      </trkpt>
      <trkpt lat="48.32069" lon="2.08055">
        <ele>103.8</ele>
        <time>2023-12-14T10:15:28Z</time>
      </trkpt>
      <trkpt lat="48.32067" lon="2.08069">
        <ele>103.8</ele>
        <time>2023-12-14T10:15:29Z</time>
      </trkpt>
      <trkpt lat="48.32066" lon="2.08083">
        <ele>103.8</ele>
        <time>2023-12-14T10:15:30Z</time>
      </trkpt>
      <trkpt lat="48.32065" lon="2.08096">
        <ele>103.8</ele>
        <time>2023-12-14T10:15:31Z</time>
      </trkpt>
      <trkpt lat="48.32063" lon="2.08109">
        <ele>104.2</ele>
        <time>2023-12-14T10:15:32Z</time>
      </trkpt>
      <trkpt lat="48.32062" lon="2.08121">
        <ele>104.2</ele>
        <time>2023-12-14T10:15:33Z</time>
      </trkpt>
      <trkpt lat="48.32061" lon="2.08133">
        <ele>104.2</ele>
        <time>2023-12-14T10:15:34Z</time>
      </trkpt>
      <trkpt lat="48.3206" lon="2.08145">
        <ele>104.8</ele>
        <time>2023-12-14T10:15:35Z</time>
      </trkpt>
      <trkpt lat="48.32059" lon="2.08156">
        <ele>105</ele>
        <time>2023-12-14T10:15:36Z</time>
      </trkpt>
      <trkpt lat="48.32058" lon="2.08168">
        <ele>105</ele>
        <time>2023-12-14T10:15:37Z</time>
      </trkpt>
      <trkpt lat="48.32057" lon="2.08179">
        <ele>105</ele>
        <time>2023-12-14T10:15:38Z</time>
      </trkpt>
      <trkpt lat="48.32056" lon="2.08191">
        <ele>105</ele>
        <time>2023-12-14T10:15:39Z</time>
      </trkpt>
      <trkpt lat="48.32055" lon="2.08202">
        <ele>105.6</ele>
        <time>2023-12-14T10:15:40Z</time>
      </trkpt>
      <trkpt lat="48.32054" lon="2.08214">
        <ele>105.6</ele>
        <time>2023-12-14T10:15:41Z</time>
      </trkpt>
      <trkpt lat="48.32053" lon="2.08226">
        <ele>105.6</ele>
        <time>2023-12-14T10:15:42Z</time>
      </trkpt>
      <trkpt lat="48.32051" lon="2.08238">
        <ele>105</ele>
        <time>2023-12-14T10:15:43Z</time>
      </trkpt>
      <trkpt lat="48.3205" lon="2.0825">
        <ele>104</ele>
        <time>2023-12-14T10:15:44Z</time>
      </trkpt>
      <trkpt lat="48.32048" lon="2.08262">
        <ele>104</ele>
        <time>2023-12-14T10:15:45Z</time>
      </trkpt>
      <trkpt lat="48.32047" lon="2.08273">
        <ele>104</ele>
        <time>2023-12-14T10:15:46Z</time>
      </trkpt>
      <trkpt lat="48.32046" lon="2.08285">
        <ele>104</ele>
        <time>2023-12-14T10:15:47Z</time>
      </trkpt>
      <trkpt lat="48.32044" lon="2.08297">
        <ele>103.8</ele>
        <time>2023-12-14T10:15:48Z</time>
      </trkpt>
      <trkpt lat="48.32043" lon="2.08309">
        <ele>103.8</ele>
        <time>2023-12-14T10:15:49Z</time>
      </trkpt>
      <trkpt lat="48.32042" lon="2.08321">
        <ele>103.8</ele>
        <time>2023-12-14T10:15:50Z</time>
      </trkpt>
      <trkpt lat="48.32041" lon="2.08333">
        <ele>102.8</ele>
        <time>2023-12-14T10:15:51Z</time>
      </trkpt>
      <trkpt lat="48.3204" lon="2.08345">
        <ele>100.4</ele>
        <time>2023-12-14T10:15:52Z</time>
      </trkpt>
      <trkpt lat="48.32039" lon="2.08357">
        <ele>100.4</ele>
        <time>2023-12-14T10:15:53Z</time>
      </trkpt>
      <trkpt lat="48.32037" lon="2.0837">
        <ele>100.4</ele>
        <time>2023-12-14T10:15:54Z</time>
      </trkpt>
      <trkpt lat="48.32036" lon="2.08383">
        <ele>99.4</ele>
        <time>2023-12-14T10:15:55Z</time>
      </trkpt>
      <trkpt lat="48.32034" lon="2.08396">
        <ele>97</ele>
        <time>2023-12-14T10:15:56Z</time>
      </trkpt>
      <trkpt lat="48.32032" lon="2.0841">
        <ele>97</ele>
        <time>2023-12-14T10:15:57Z</time>
      </trkpt>
      <trkpt lat="48.32032" lon="2.08423">
        <ele>97</ele>
        <time>2023-12-14T10:15:58Z</time>
      </trkpt>
      <trkpt lat="48.3203" lon="2.08436">
        <ele>96</ele>
        <time>2023-12-14T10:15:59Z</time>
      </trkpt>
      <trkpt lat="48.32029" lon="2.08449">
        <ele>95.8</ele>
        <time>2023-12-14T10:16:00Z</time>
      </trkpt>
      <trkpt lat="48.32028" lon="2.08462">
        <ele>95.8</ele>
        <time>2023-12-14T10:16:01Z</time>
      </trkpt>
      <trkpt lat="48.32027" lon="2.08472">
        <ele>95.8</ele>
        <time>2023-12-14T10:16:02Z</time>
      </trkpt>
      <trkpt lat="48.32026" lon="2.08482">
        <ele>95.8</ele>
        <time>2023-12-14T10:16:03Z</time>
      </trkpt>
      <trkpt lat="48.32023" lon="2.08491">
        <ele>95.6</ele>
        <time>2023-12-14T10:16:04Z</time>
      </trkpt>
      <trkpt lat="48.32019" lon="2.08498">
        <ele>95.6</ele>
        <time>2023-12-14T10:16:05Z</time>
      </trkpt>
      <trkpt lat="48.32014" lon="2.08504">
        <ele>95.6</ele>
        <time>2023-12-14T10:16:06Z</time>
      </trkpt>
      <trkpt lat="48.32009" lon="2.08507">
        <ele>94.6</ele>
        <time>2023-12-14T10:16:07Z</time>
      </trkpt>
      <trkpt lat="48.32003" lon="2.08509">
        <ele>92.6</ele>
        <time>2023-12-14T10:16:08Z</time>
      </trkpt>
      <trkpt lat="48.31997" lon="2.08511">
        <ele>92.6</ele>
        <time>2023-12-14T10:16:09Z</time>
      </trkpt>
      <trkpt lat="48.3199" lon="2.08513">
        <ele>92.6</ele>
        <time>2023-12-14T10:16:10Z</time>
      </trkpt>
      <trkpt lat="48.31983" lon="2.08515">
        <ele>91.6</ele>
        <time>2023-12-14T10:16:11Z</time>
      </trkpt>
      <trkpt lat="48.31976" lon="2.08518">
        <ele>89.6</ele>
        <time>2023-12-14T10:16:12Z</time>
      </trkpt>
      <trkpt lat="48.31968" lon="2.08521">
        <ele>89.6</ele>
        <time>2023-12-14T10:16:13Z</time>
      </trkpt>
      <trkpt lat="48.3196" lon="2.08523">
        <ele>89.6</ele>
        <time>2023-12-14T10:16:14Z</time>
      </trkpt>
      <trkpt lat="48.31952" lon="2.08525">
        <ele>89.6</ele>
        <time>2023-12-14T10:16:15Z</time>
      </trkpt>
      <trkpt lat="48.31943" lon="2.08527">
        <ele>87.2</ele>
        <time>2023-12-14T10:16:16Z</time>
      </trkpt>
      <trkpt lat="48.31934" lon="2.08529">
        <ele>87.2</ele>
        <time>2023-12-14T10:16:17Z</time>
      </trkpt>
      <trkpt lat="48.31925" lon="2.08531">
        <ele>87.2</ele>
        <time>2023-12-14T10:16:18Z</time>
      </trkpt>
      <trkpt lat="48.31916" lon="2.08532">
        <ele>86.2</ele>
        <time>2023-12-14T10:16:19Z</time>
      </trkpt>
      <trkpt lat="48.31908" lon="2.08533">
        <ele>85.8</ele>
        <time>2023-12-14T10:16:20Z</time>
      </trkpt>
      <trkpt lat="48.31899" lon="2.08534">
        <ele>85.8</ele>
        <time>2023-12-14T10:16:21Z</time>
      </trkpt>
      <trkpt lat="48.31892" lon="2.08534">
        <ele>85.8</ele>
        <time>2023-12-14T10:16:22Z</time>
      </trkpt>
      <trkpt lat="48.31884" lon="2.08534">
        <ele>85</ele>
        <time>2023-12-14T10:16:23Z</time>
      </trkpt>
      <trkpt lat="48.31878" lon="2.08534">
        <ele>85</ele>
        <time>2023-12-14T10:16:24Z</time>
      </trkpt>
      <trkpt lat="48.31872" lon="2.08534">
        <ele>85</ele>
        <time>2023-12-14T10:16:25Z</time>
      </trkpt>
      <trkpt lat="48.31867" lon="2.08537">
        <ele>85</ele>
        <time>2023-12-14T10:16:26Z</time>
      </trkpt>
      <trkpt lat="48.31864" lon="2.08543">
        <ele>85.4</ele>
        <time>2023-12-14T10:16:27Z</time>
      </trkpt>
      <trkpt lat="48.31861" lon="2.0855">
        <ele>84.4</ele>
        <time>2023-12-14T10:16:28Z</time>
      </trkpt>
      <trkpt lat="48.31861" lon="2.08559">
        <ele>84.4</ele>
        <time>2023-12-14T10:16:29Z</time>
      </trkpt>
      <trkpt lat="48.31862" lon="2.08568">
        <ele>84.4</ele>
        <time>2023-12-14T10:16:30Z</time>
      </trkpt>
      <trkpt lat="48.31863" lon="2.08578">
        <ele>84.4</ele>
        <time>2023-12-14T10:16:31Z</time>
      </trkpt>
      <trkpt lat="48.31864" lon="2.08588">
        <ele>83.2</ele>
        <time>2023-12-14T10:16:32Z</time>
      </trkpt>
      <trkpt lat="48.31865" lon="2.08598">
        <ele>83.2</ele>
        <time>2023-12-14T10:16:33Z</time>
      </trkpt>
      <trkpt lat="48.31867" lon="2.08608">
        <ele>83.2</ele>
        <time>2023-12-14T10:16:34Z</time>
      </trkpt>
      <trkpt lat="48.31868" lon="2.08617">
        <ele>82.2</ele>
        <time>2023-12-14T10:16:35Z</time>
      </trkpt>
      <trkpt lat="48.31869" lon="2.08627">
        <ele>82</ele>
        <time>2023-12-14T10:16:36Z</time>
      </trkpt>
      <trkpt lat="48.31869" lon="2.08637">
        <ele>82</ele>
        <time>2023-12-14T10:16:37Z</time>
      </trkpt>
      <trkpt lat="48.31871" lon="2.08646">
        <ele>82</ele>
        <time>2023-12-14T10:16:38Z</time>
      </trkpt>
      <trkpt lat="48.31872" lon="2.08656">
        <ele>81.2</ele>
        <time>2023-12-14T10:16:39Z</time>
      </trkpt>
      <trkpt lat="48.31872" lon="2.08665">
        <ele>81.6</ele>
        <time>2023-12-14T10:16:40Z</time>
      </trkpt>
      <trkpt lat="48.31873" lon="2.08674">
        <ele>81.6</ele>
        <time>2023-12-14T10:16:41Z</time>
      </trkpt>
      <trkpt lat="48.31872" lon="2.08683">
        <ele>81.6</ele>
        <time>2023-12-14T10:16:42Z</time>
      </trkpt>
      <trkpt lat="48.31872" lon="2.08692">
        <ele>81.2</ele>
        <time>2023-12-14T10:16:43Z</time>
      </trkpt>
      <trkpt lat="48.31871" lon="2.08701">
        <ele>81.6</ele>
        <time>2023-12-14T10:16:44Z</time>
      </trkpt>
      <trkpt lat="48.3187" lon="2.08709">
        <ele>81.6</ele>
        <time>2023-12-14T10:16:45Z</time>
      </trkpt>
      <trkpt lat="48.31868" lon="2.08717">
        <ele>81.6</ele>
        <time>2023-12-14T10:16:46Z</time>
      </trkpt>
      <trkpt lat="48.31866" lon="2.08725">
        <ele>81.6</ele>
        <time>2023-12-14T10:16:47Z</time>
      </trkpt>
      <trkpt lat="48.31864" lon="2.08733">
        <ele>82.2</ele>
        <time>2023-12-14T10:16:48Z</time>
      </trkpt>
      <trkpt lat="48.31862" lon="2.08741">
        <ele>82.2</ele>
        <time>2023-12-14T10:16:49Z</time>
      </trkpt>
      <trkpt lat="48.3186" lon="2.08748">
        <ele>82.2</ele>
        <time>2023-12-14T10:16:50Z</time>
      </trkpt>
      <trkpt lat="48.31858" lon="2.08756">
        <ele>81.8</ele>
        <time>2023-12-14T10:16:51Z</time>
      </trkpt>
      <trkpt lat="48.31855" lon="2.08764">
        <ele>82.2</ele>
        <time>2023-12-14T10:16:52Z</time>
      </trkpt>
      <trkpt lat="48.31853" lon="2.08772">
        <ele>82.2</ele>
        <time>2023-12-14T10:16:53Z</time>
      </trkpt>
      <trkpt lat="48.31851" lon="2.08781">
        <ele>82.2</ele>
        <time>2023-12-14T10:16:54Z</time>
      </trkpt>
      <trkpt lat="48.31849" lon="2.08789">
        <ele>81.4</ele>
        <time>2023-12-14T10:16:55Z</time>
      </trkpt>
      <trkpt lat="48.31847" lon="2.08798">
        <ele>81.6</ele>
        <time>2023-12-14T10:16:56Z</time>
      </trkpt>
      <trkpt lat="48.31846" lon="2.08807">
        <ele>81.6</ele>
        <time>2023-12-14T10:16:57Z</time>
      </trkpt>
      <trkpt lat="48.31845" lon="2.08816">
        <ele>81.6</ele>
        <time>2023-12-14T10:16:58Z</time>
      </trkpt>
      <trkpt lat="48.31843" lon="2.08825">
        <ele>81.6</ele>
        <time>2023-12-14T10:16:59Z</time>
      </trkpt>
      <trkpt lat="48.31842" lon="2.08834">
        <ele>81</ele>
        <time>2023-12-14T10:17:00Z</time>
      </trkpt>
      <trkpt lat="48.31841" lon="2.08844">
        <ele>81</ele>
        <time>2023-12-14T10:17:01Z</time>
      </trkpt>
      <trkpt lat="48.31841" lon="2.08854">
        <ele>81</ele>
        <time>2023-12-14T10:17:02Z</time>
      </trkpt>
      <trkpt lat="48.3184" lon="2.08863">
        <ele>81</ele>
        <time>2023-12-14T10:17:03Z</time>
      </trkpt>
      <trkpt lat="48.31838" lon="2.08872">
        <ele>80.6</ele>
        <time>2023-12-14T10:17:04Z</time>
      </trkpt>
      <trkpt lat="48.31837" lon="2.08882">
        <ele>80.6</ele>
        <time>2023-12-14T10:17:05Z</time>
      </trkpt>
      <trkpt lat="48.31836" lon="2.08892">
        <ele>80.6</ele>
        <time>2023-12-14T10:17:06Z</time>
      </trkpt>
      <trkpt lat="48.31835" lon="2.08901">
        <ele>80.6</ele>
        <time>2023-12-14T10:17:07Z</time>
      </trkpt>
      <trkpt lat="48.31834" lon="2.08911">
        <ele>79.2</ele>
        <time>2023-12-14T10:17:08Z</time>
      </trkpt>
      <trkpt lat="48.31833" lon="2.08921">
        <ele>79.2</ele>
        <time>2023-12-14T10:17:09Z</time>
      </trkpt>
      <trkpt lat="48.31833" lon="2.08931">
        <ele>79.2</ele>
        <time>2023-12-14T10:17:10Z</time>
      </trkpt>
      <trkpt lat="48.31832" lon="2.08941">
        <ele>79.2</ele>
        <time>2023-12-14T10:17:11Z</time>
      </trkpt>
      <trkpt lat="48.31831" lon="2.08951">
        <ele>79</ele>
        <time>2023-12-14T10:17:12Z</time>
      </trkpt>
      <trkpt lat="48.3183" lon="2.0896">
        <ele>79</ele>
        <time>2023-12-14T10:17:13Z</time>
      </trkpt>
      <trkpt lat="48.3183" lon="2.0897">
        <ele>79</ele>
        <time>2023-12-14T10:17:14Z</time>
      </trkpt>
      <trkpt lat="48.3183" lon="2.0898">
        <ele>79.8</ele>
        <time>2023-12-14T10:17:15Z</time>
      </trkpt>
      <trkpt lat="48.3183" lon="2.08989">
        <ele>80</ele>
        <time>2023-12-14T10:17:16Z</time>
      </trkpt>
      <trkpt lat="48.31831" lon="2.08998">
        <ele>80</ele>
        <time>2023-12-14T10:17:17Z</time>
      </trkpt>
      <trkpt lat="48.31832" lon="2.09007">
        <ele>80</ele>
        <time>2023-12-14T10:17:18Z</time>
      </trkpt>
      <trkpt lat="48.31833" lon="2.09016">
        <ele>80</ele>
        <time>2023-12-14T10:17:19Z</time>
      </trkpt>
      <trkpt lat="48.31835" lon="2.09025">
        <ele>80.4</ele>
        <time>2023-12-14T10:17:20Z</time>
      </trkpt>
      <trkpt lat="48.31836" lon="2.09033">
        <ele>80.4</ele>
        <time>2023-12-14T10:17:21Z</time>
      </trkpt>
      <trkpt lat="48.31837" lon="2.09041">
        <ele>80.4</ele>
        <time>2023-12-14T10:17:22Z</time>
      </trkpt>
      <trkpt lat="48.31838" lon="2.09049">
        <ele>81</ele>
        <time>2023-12-14T10:17:23Z</time>
      </trkpt>
      <trkpt lat="48.31838" lon="2.09054">
        <ele>80.8</ele>
        <time>2023-12-14T10:17:24Z</time>
      </trkpt>
      <trkpt lat="48.31838" lon="2.09059">
        <ele>80.8</ele>
        <time>2023-12-14T10:17:25Z</time>
      </trkpt>
      <trkpt lat="48.31836" lon="2.09065">
        <ele>80.8</ele>
        <time>2023-12-14T10:17:26Z</time>
      </trkpt>
      <trkpt lat="48.31834" lon="2.09072">
        <ele>79.8</ele>
        <time>2023-12-14T10:17:27Z</time>
      </trkpt>
      <trkpt lat="48.31831" lon="2.09078">
        <ele>78.6</ele>
        <time>2023-12-14T10:17:28Z</time>
      </trkpt>
      <trkpt lat="48.31829" lon="2.09086">
        <ele>78.6</ele>
        <time>2023-12-14T10:17:29Z</time>
      </trkpt>
      <trkpt lat="48.31827" lon="2.09093">
        <ele>78.6</ele>
        <time>2023-12-14T10:17:30Z</time>
      </trkpt>
      <trkpt lat="48.31824" lon="2.091">
        <ele>77.6</ele>
        <time>2023-12-14T10:17:31Z</time>
      </trkpt>
      <trkpt lat="48.31821" lon="2.09107">
        <ele>76.8</ele>
        <time>2023-12-14T10:17:32Z</time>
      </trkpt>
      <trkpt lat="48.31817" lon="2.09113">
        <ele>76.8</ele>
        <time>2023-12-14T10:17:33Z</time>
      </trkpt>
      <trkpt lat="48.31815" lon="2.09122">
        <ele>76.8</ele>
        <time>2023-12-14T10:17:34Z</time>
      </trkpt>
      <trkpt lat="48.31812" lon="2.0913">
        <ele>76.8</ele>
        <time>2023-12-14T10:17:35Z</time>
      </trkpt>
      <trkpt lat="48.3181" lon="2.09138">
        <ele>76.6</ele>
        <time>2023-12-14T10:17:36Z</time>
      </trkpt>
      <trkpt lat="48.31807" lon="2.09146">
        <ele>76.6</ele>
        <time>2023-12-14T10:17:37Z</time>
      </trkpt>
      <trkpt lat="48.31805" lon="2.09155">
        <ele>76.6</ele>
        <time>2023-12-14T10:17:38Z</time>
      </trkpt>
      <trkpt lat="48.31802" lon="2.09163">
        <ele>77</ele>
        <time>2023-12-14T10:17:39Z</time>
      </trkpt>
      <trkpt lat="48.318" lon="2.09171">
        <ele>77.2</ele>
        <time>2023-12-14T10:17:40Z</time>
      </trkpt>
      <trkpt lat="48.31797" lon="2.09179">
        <ele>77.2</ele>
        <time>2023-12-14T10:17:41Z</time>
      </trkpt>
      <trkpt lat="48.31795" lon="2.09187">
        <ele>77.2</ele>
        <time>2023-12-14T10:17:42Z</time>
      </trkpt>
      <trkpt lat="48.31793" lon="2.09195">
        <ele>77.2</ele>
        <time>2023-12-14T10:17:43Z</time>
      </trkpt>
      <trkpt lat="48.3179" lon="2.09203">
        <ele>76.2</ele>
        <time>2023-12-14T10:17:44Z</time>
      </trkpt>
      <trkpt lat="48.31788" lon="2.09211">
        <ele>76.2</ele>
        <time>2023-12-14T10:17:45Z</time>
      </trkpt>
      <trkpt lat="48.31785" lon="2.0922">
        <ele>76.2</ele>
        <time>2023-12-14T10:17:46Z</time>
      </trkpt>
      <trkpt lat="48.31782" lon="2.09228">
        <ele>76.2</ele>
        <time>2023-12-14T10:17:47Z</time>
      </trkpt>
      <trkpt lat="48.31779" lon="2.09236">
        <ele>77</ele>
        <time>2023-12-14T10:17:48Z</time>
      </trkpt>
      <trkpt lat="48.31777" lon="2.09245">
        <ele>77</ele>
        <time>2023-12-14T10:17:49Z</time>
      </trkpt>
      <trkpt lat="48.31774" lon="2.09253">
        <ele>77</ele>
        <time>2023-12-14T10:17:50Z</time>
      </trkpt>
      <trkpt lat="48.31772" lon="2.09262">
        <ele>77</ele>
        <time>2023-12-14T10:17:51Z</time>
      </trkpt>
      <trkpt lat="48.31769" lon="2.09269">
        <ele>76.8</ele>
        <time>2023-12-14T10:17:52Z</time>
      </trkpt>
      <trkpt lat="48.31766" lon="2.09277">
        <ele>76.8</ele>
        <time>2023-12-14T10:17:53Z</time>
      </trkpt>
      <trkpt lat="48.31763" lon="2.09285">
        <ele>76.8</ele>
        <time>2023-12-14T10:17:54Z</time>
      </trkpt>
      <trkpt lat="48.3176" lon="2.09291">
        <ele>76.8</ele>
        <time>2023-12-14T10:17:55Z</time>
      </trkpt>
      <trkpt lat="48.31758" lon="2.09298">
        <ele>77.8</ele>
        <time>2023-12-14T10:17:56Z</time>
      </trkpt>
      <trkpt lat="48.31755" lon="2.09304">
        <ele>77.8</ele>
        <time>2023-12-14T10:17:57Z</time>
      </trkpt>
      <trkpt lat="48.31752" lon="2.0931">
        <ele>77.8</ele>
        <time>2023-12-14T10:17:58Z</time>
      </trkpt>
      <trkpt lat="48.3175" lon="2.09315">
        <ele>78.2</ele>
        <time>2023-12-14T10:17:59Z</time>
      </trkpt>
      <trkpt lat="48.31748" lon="2.0932">
        <ele>78.2</ele>
        <time>2023-12-14T10:18:00Z</time>
      </trkpt>
      <trkpt lat="48.31745" lon="2.09324">
        <ele>78.2</ele>
        <time>2023-12-14T10:18:01Z</time>
      </trkpt>
      <trkpt lat="48.31744" lon="2.09329">
        <ele>78.2</ele>
        <time>2023-12-14T10:18:02Z</time>
      </trkpt>
      <trkpt lat="48.31742" lon="2.09333">
        <ele>78.8</ele>
        <time>2023-12-14T10:18:03Z</time>
      </trkpt>
      <trkpt lat="48.31741" lon="2.09335">
        <ele>79.4</ele>
        <time>2023-12-14T10:18:04Z</time>
      </trkpt>
      <trkpt lat="48.31741" lon="2.09336">
        <ele>79.4</ele>
        <time>2023-12-14T10:18:05Z</time>
      </trkpt>
      <trkpt lat="48.3174" lon="2.09338">
        <ele>79.4</ele>
        <time>2023-12-14T10:18:06Z</time>
      </trkpt>
      <trkpt lat="48.31739" lon="2.09338">
        <ele>79.4</ele>
        <time>2023-12-14T10:18:07Z</time>
      </trkpt>
      <trkpt lat="48.31739" lon="2.09338">
        <ele>79.8</ele>
        <time>2023-12-14T10:18:08Z</time>
      </trkpt>
      <trkpt lat="48.31739" lon="2.09338">
        <ele>79.8</ele>
        <time>2023-12-14T10:18:09Z</time>
      </trkpt>
      <trkpt lat="48.31733" lon="2.09365">
        <ele>79.6</ele>
        <time>2023-12-14T10:19:11Z</time>
      </trkpt>
      <trkpt lat="48.31732" lon="2.09367">
        <ele>79.4</ele>
        <time>2023-12-14T10:19:12Z</time>
      </trkpt>
      <trkpt lat="48.31731" lon="2.09371">
        <ele>79.4</ele>
        <time>2023-12-14T10:19:13Z</time>
      </trkpt>
      <trkpt lat="48.3173" lon="2.09374">
        <ele>79.4</ele>
        <time>2023-12-14T10:19:14Z</time>
      </trkpt>
      <trkpt lat="48.31729" lon="2.09378">
        <ele>78.6</ele>
        <time>2023-12-14T10:19:15Z</time>
      </trkpt>
      <trkpt lat="48.31729" lon="2.09381">
        <ele>78.6</ele>
        <time>2023-12-14T10:19:16Z</time>
      </trkpt>
      <trkpt lat="48.31728" lon="2.09385">
        <ele>78.6</ele>
        <time>2023-12-14T10:19:17Z</time>
      </trkpt>
      <trkpt lat="48.31727" lon="2.09389">
        <ele>78.6</ele>
        <time>2023-12-14T10:19:18Z</time>
      </trkpt>
      <trkpt lat="48.31726" lon="2.09393">
        <ele>78.8</ele>
        <time>2023-12-14T10:19:19Z</time>
      </trkpt>
      <trkpt lat="48.31725" lon="2.09398">
        <ele>78.8</ele>
        <time>2023-12-14T10:19:20Z</time>
      </trkpt>
      <trkpt lat="48.31724" lon="2.09403">
        <ele>78.8</ele>
        <time>2023-12-14T10:19:21Z</time>
      </trkpt>
      <trkpt lat="48.31723" lon="2.09408">
        <ele>78.8</ele>
        <time>2023-12-14T10:19:22Z</time>
      </trkpt>
      <trkpt lat="48.31722" lon="2.09413">
        <ele>78.4</ele>
        <time>2023-12-14T10:19:23Z</time>
      </trkpt>
      <trkpt lat="48.3172" lon="2.09418">
        <ele>79</ele>
        <time>2023-12-14T10:19:24Z</time>
      </trkpt>
      <trkpt lat="48.31719" lon="2.09423">
        <ele>79</ele>
        <time>2023-12-14T10:19:25Z</time>
      </trkpt>
      <trkpt lat="48.31718" lon="2.09428">
        <ele>79</ele>
        <time>2023-12-14T10:19:26Z</time>
      </trkpt>
      <trkpt lat="48.31716" lon="2.09434">
        <ele>78.6</ele>
        <time>2023-12-14T10:19:27Z</time>
      </trkpt>
      <trkpt lat="48.31715" lon="2.09439">
        <ele>78.4</ele>
        <time>2023-12-14T10:19:28Z</time>
      </trkpt>
      <trkpt lat="48.31714" lon="2.09445">
        <ele>78.4</ele>
        <time>2023-12-14T10:19:29Z</time>
      </trkpt>
      <trkpt lat="48.31713" lon="2.09451">
        <ele>78.4</ele>
        <time>2023-12-14T10:19:30Z</time>
      </trkpt>
      <trkpt lat="48.31711" lon="2.09457">
        <ele>78.4</ele>
        <time>2023-12-14T10:19:31Z</time>
      </trkpt>
      <trkpt lat="48.3171" lon="2.09463">
        <ele>78.4</ele>
        <time>2023-12-14T10:19:32Z</time>
      </trkpt>
      <trkpt lat="48.31709" lon="2.0947">
        <ele>78.4</ele>
        <time>2023-12-14T10:19:33Z</time>
      </trkpt>
      <trkpt lat="48.31708" lon="2.09476">
        <ele>78.4</ele>
        <time>2023-12-14T10:19:34Z</time>
      </trkpt>
      <trkpt lat="48.31707" lon="2.09481">
        <ele>79</ele>
        <time>2023-12-14T10:19:35Z</time>
      </trkpt>
      <trkpt lat="48.31706" lon="2.09487">
        <ele>79.6</ele>
        <time>2023-12-14T10:19:36Z</time>
      </trkpt>
      <trkpt lat="48.31706" lon="2.09493">
        <ele>79.6</ele>
        <time>2023-12-14T10:19:37Z</time>
      </trkpt>
      <trkpt lat="48.31705" lon="2.09499">
        <ele>79.6</ele>
        <time>2023-12-14T10:19:38Z</time>
      </trkpt>
      <trkpt lat="48.31705" lon="2.09505">
        <ele>80</ele>
        <time>2023-12-14T10:19:39Z</time>
      </trkpt>
      <trkpt lat="48.31704" lon="2.09511">
        <ele>80.6</ele>
        <time>2023-12-14T10:19:40Z</time>
      </trkpt>
      <trkpt lat="48.31704" lon="2.09517">
        <ele>80.6</ele>
        <time>2023-12-14T10:19:41Z</time>
      </trkpt>
      <trkpt lat="48.31703" lon="2.09523">
        <ele>80.6</ele>
        <time>2023-12-14T10:19:42Z</time>
      </trkpt>
      <trkpt lat="48.31702" lon="2.09529">
        <ele>81</ele>
        <time>2023-12-14T10:19:43Z</time>
      </trkpt>
      <trkpt lat="48.31702" lon="2.09534">
        <ele>81.4</ele>
        <time>2023-12-14T10:19:44Z</time>
      </trkpt>
      <trkpt lat="48.31701" lon="2.0954">
        <ele>81.4</ele>
        <time>2023-12-14T10:19:45Z</time>
      </trkpt>
      <trkpt lat="48.317" lon="2.09545">
        <ele>81.4</ele>
        <time>2023-12-14T10:19:46Z</time>
      </trkpt>
      <trkpt lat="48.317" lon="2.09551">
        <ele>81.4</ele>
        <time>2023-12-14T10:19:47Z</time>
      </trkpt>
      <trkpt lat="48.317" lon="2.09556">
        <ele>82.2</ele>
        <time>2023-12-14T10:19:48Z</time>
      </trkpt>
      <trkpt lat="48.31699" lon="2.09562">
        <ele>82.2</ele>
        <time>2023-12-14T10:19:49Z</time>
      </trkpt>
      <trkpt lat="48.31699" lon="2.09567">
        <ele>82.2</ele>
        <time>2023-12-14T10:19:50Z</time>
      </trkpt>
      <trkpt lat="48.317" lon="2.09573">
        <ele>82.8</ele>
        <time>2023-12-14T10:19:51Z</time>
      </trkpt>
      <trkpt lat="48.317" lon="2.09579">
        <ele>82.6</ele>
        <time>2023-12-14T10:19:52Z</time>
      </trkpt>
      <trkpt lat="48.31699" lon="2.09585">
        <ele>82.6</ele>
        <time>2023-12-14T10:19:53Z</time>
      </trkpt>
      <trkpt lat="48.31699" lon="2.09589">
        <ele>82.6</ele>
        <time>2023-12-14T10:19:54Z</time>
      </trkpt>
      <trkpt lat="48.31699" lon="2.09596">
        <ele>83.2</ele>
        <time>2023-12-14T10:19:55Z</time>
      </trkpt>
      <trkpt lat="48.31699" lon="2.09603">
        <ele>83.4</ele>
        <time>2023-12-14T10:19:56Z</time>
      </trkpt>
      <trkpt lat="48.317" lon="2.09609">
        <ele>83.4</ele>
        <time>2023-12-14T10:19:57Z</time>
      </trkpt>
      <trkpt lat="48.317" lon="2.09615">
        <ele>83.4</ele>
        <time>2023-12-14T10:19:58Z</time>
      </trkpt>
      <trkpt lat="48.31699" lon="2.0962">
        <ele>83.4</ele>
        <time>2023-12-14T10:19:59Z</time>
      </trkpt>
      <trkpt lat="48.31699" lon="2.09627">
        <ele>83.4</ele>
        <time>2023-12-14T10:20:00Z</time>
      </trkpt>
      <trkpt lat="48.31699" lon="2.09633">
        <ele>83.4</ele>
        <time>2023-12-14T10:20:01Z</time>
      </trkpt>
      <trkpt lat="48.31699" lon="2.09639">
        <ele>83.4</ele>
        <time>2023-12-14T10:20:02Z</time>
      </trkpt>
      <trkpt lat="48.31699" lon="2.09645">
        <ele>84</ele>
        <time>2023-12-14T10:20:03Z</time>
      </trkpt>
      <trkpt lat="48.31698" lon="2.09652">
        <ele>83.8</ele>
        <time>2023-12-14T10:20:04Z</time>
      </trkpt>
      <trkpt lat="48.31698" lon="2.09658">
        <ele>83.8</ele>
        <time>2023-12-14T10:20:05Z</time>
      </trkpt>
      <trkpt lat="48.31698" lon="2.09665">
        <ele>83.8</ele>
        <time>2023-12-14T10:20:06Z</time>
      </trkpt>
      <trkpt lat="48.31697" lon="2.09671">
        <ele>84.4</ele>
        <time>2023-12-14T10:20:07Z</time>
      </trkpt>
      <trkpt lat="48.31697" lon="2.09678">
        <ele>84.6</ele>
        <time>2023-12-14T10:20:08Z</time>
      </trkpt>
      <trkpt lat="48.31696" lon="2.09684">
        <ele>84.6</ele>
        <time>2023-12-14T10:20:09Z</time>
      </trkpt>
      <trkpt lat="48.31696" lon="2.0969">
        <ele>84.6</ele>
        <time>2023-12-14T10:20:10Z</time>
      </trkpt>
      <trkpt lat="48.31696" lon="2.09697">
        <ele>85.4</ele>
        <time>2023-12-14T10:20:11Z</time>
      </trkpt>
      <trkpt lat="48.31696" lon="2.09703">
        <ele>85.8</ele>
        <time>2023-12-14T10:20:12Z</time>
      </trkpt>
      <trkpt lat="48.31696" lon="2.0971">
        <ele>85.8</ele>
        <time>2023-12-14T10:20:13Z</time>
      </trkpt>
      <trkpt lat="48.31697" lon="2.09716">
        <ele>85.8</ele>
        <time>2023-12-14T10:20:14Z</time>
      </trkpt>
      <trkpt lat="48.31697" lon="2.09723">
        <ele>86</ele>
        <time>2023-12-14T10:20:15Z</time>
      </trkpt>
      <trkpt lat="48.31699" lon="2.09729">
        <ele>86.6</ele>
        <time>2023-12-14T10:20:16Z</time>
      </trkpt>
      <trkpt lat="48.317" lon="2.09734">
        <ele>86.6</ele>
        <time>2023-12-14T10:20:17Z</time>
      </trkpt>
      <trkpt lat="48.31702" lon="2.0974">
        <ele>86.6</ele>
        <time>2023-12-14T10:20:18Z</time>
      </trkpt>
      <trkpt lat="48.31705" lon="2.09745">
        <ele>86.6</ele>
        <time>2023-12-14T10:20:19Z</time>
      </trkpt>
      <trkpt lat="48.31707" lon="2.0975">
        <ele>86.8</ele>
        <time>2023-12-14T10:20:20Z</time>
      </trkpt>
      <trkpt lat="48.3171" lon="2.09754">
        <ele>86.8</ele>
        <time>2023-12-14T10:20:21Z</time>
      </trkpt>
      <trkpt lat="48.31713" lon="2.09758">
        <ele>86.8</ele>
        <time>2023-12-14T10:20:22Z</time>
      </trkpt>
      <trkpt lat="48.31717" lon="2.09763">
        <ele>86.8</ele>
        <time>2023-12-14T10:20:23Z</time>
      </trkpt>
      <trkpt lat="48.3172" lon="2.09766">
        <ele>87.8</ele>
        <time>2023-12-14T10:20:24Z</time>
      </trkpt>
      <trkpt lat="48.31723" lon="2.09769">
        <ele>87.8</ele>
        <time>2023-12-14T10:20:25Z</time>
      </trkpt>
      <trkpt lat="48.31726" lon="2.09773">
        <ele>87.8</ele>
        <time>2023-12-14T10:20:26Z</time>
      </trkpt>
      <trkpt lat="48.31729" lon="2.09776">
        <ele>87.8</ele>
        <time>2023-12-14T10:20:27Z</time>
      </trkpt>
      <trkpt lat="48.31732" lon="2.0978">
        <ele>88.4</ele>
        <time>2023-12-14T10:20:28Z</time>
      </trkpt>
      <trkpt lat="48.31735" lon="2.09784">
        <ele>88.4</ele>
        <time>2023-12-14T10:20:29Z</time>
      </trkpt>
      <trkpt lat="48.31737" lon="2.09789">
        <ele>88.4</ele>
        <time>2023-12-14T10:20:30Z</time>
      </trkpt>
      <trkpt lat="48.31739" lon="2.09794">
        <ele>89.2</ele>
        <time>2023-12-14T10:20:31Z</time>
      </trkpt>
      <trkpt lat="48.31741" lon="2.09799">
        <ele>89.4</ele>
        <time>2023-12-14T10:20:32Z</time>
      </trkpt>
      <trkpt lat="48.31742" lon="2.09805">
        <ele>89.4</ele>
        <time>2023-12-14T10:20:33Z</time>
      </trkpt>
      <trkpt lat="48.31743" lon="2.0981">
        <ele>89.4</ele>
        <time>2023-12-14T10:20:34Z</time>
      </trkpt>
      <trkpt lat="48.31744" lon="2.09816">
        <ele>89.4</ele>
        <time>2023-12-14T10:20:35Z</time>
      </trkpt>
      <trkpt lat="48.31745" lon="2.09821">
        <ele>89.8</ele>
        <time>2023-12-14T10:20:36Z</time>
      </trkpt>
      <trkpt lat="48.31745" lon="2.09826">
        <ele>89.8</ele>
        <time>2023-12-14T10:20:37Z</time>
      </trkpt>
      <trkpt lat="48.31746" lon="2.09831">
        <ele>89.8</ele>
        <time>2023-12-14T10:20:38Z</time>
      </trkpt>
      <trkpt lat="48.31747" lon="2.09836">
        <ele>90.8</ele>
        <time>2023-12-14T10:20:39Z</time>
      </trkpt>
      <trkpt lat="48.31748" lon="2.09842">
        <ele>91.6</ele>
        <time>2023-12-14T10:20:40Z</time>
      </trkpt>
      <trkpt lat="48.31749" lon="2.09847">
        <ele>91.6</ele>
        <time>2023-12-14T10:20:41Z</time>
      </trkpt>
      <trkpt lat="48.31751" lon="2.09853">
        <ele>91.6</ele>
        <time>2023-12-14T10:20:42Z</time>
      </trkpt>
      <trkpt lat="48.31752" lon="2.09858">
        <ele>91.6</ele>
        <time>2023-12-14T10:20:43Z</time>
      </trkpt>
      <trkpt lat="48.31754" lon="2.09863">
        <ele>92</ele>
        <time>2023-12-14T10:20:44Z</time>
      </trkpt>
      <trkpt lat="48.31755" lon="2.09868">
        <ele>92</ele>
        <time>2023-12-14T10:20:45Z</time>
      </trkpt>
      <trkpt lat="48.31756" lon="2.09873">
        <ele>92</ele>
        <time>2023-12-14T10:20:46Z</time>
      </trkpt>
      <trkpt lat="48.31758" lon="2.09879">
        <ele>92.2</ele>
        <time>2023-12-14T10:20:47Z</time>
      </trkpt>
      <trkpt lat="48.3176" lon="2.09884">
        <ele>92.2</ele>
        <time>2023-12-14T10:20:48Z</time>
      </trkpt>
      <trkpt lat="48.31762" lon="2.09889">
        <ele>92.2</ele>
        <time>2023-12-14T10:20:49Z</time>
      </trkpt>
      <trkpt lat="48.31764" lon="2.09894">
        <ele>92.2</ele>
        <time>2023-12-14T10:20:50Z</time>
      </trkpt>
      <trkpt lat="48.31766" lon="2.09899">
        <ele>93.2</ele>
        <time>2023-12-14T10:20:51Z</time>
      </trkpt>
      <trkpt lat="48.31768" lon="2.09903">
        <ele>92.2</ele>
        <time>2023-12-14T10:20:52Z</time>
      </trkpt>
      <trkpt lat="48.31771" lon="2.09907">
        <ele>92.2</ele>
        <time>2023-12-14T10:20:53Z</time>
      </trkpt>
      <trkpt lat="48.31774" lon="2.09911">
        <ele>92.2</ele>
        <time>2023-12-14T10:20:54Z</time>
      </trkpt>
      <trkpt lat="48.31777" lon="2.09915">
        <ele>93</ele>
        <time>2023-12-14T10:20:55Z</time>
      </trkpt>
      <trkpt lat="48.31779" lon="2.09917">
        <ele>93.2</ele>
        <time>2023-12-14T10:20:56Z</time>
      </trkpt>
      <trkpt lat="48.31781" lon="2.09921">
        <ele>93.2</ele>
        <time>2023-12-14T10:20:57Z</time>
      </trkpt>
      <trkpt lat="48.31785" lon="2.09925">
        <ele>93.2</ele>
        <time>2023-12-14T10:20:58Z</time>
      </trkpt>
      <trkpt lat="48.31788" lon="2.09929">
        <ele>93.2</ele>
        <time>2023-12-14T10:20:59Z</time>
      </trkpt>
      <trkpt lat="48.31791" lon="2.09932">
        <ele>93.2</ele>
        <time>2023-12-14T10:21:00Z</time>
      </trkpt>
      <trkpt lat="48.31795" lon="2.09936">
        <ele>93.2</ele>
        <time>2023-12-14T10:21:01Z</time>
      </trkpt>
      <trkpt lat="48.31798" lon="2.0994">
        <ele>93.2</ele>
        <time>2023-12-14T10:21:02Z</time>
      </trkpt>
      <trkpt lat="48.31802" lon="2.09943">
        <ele>93.2</ele>
        <time>2023-12-14T10:21:03Z</time>
      </trkpt>
      <trkpt lat="48.31806" lon="2.09947">
        <ele>93.4</ele>
        <time>2023-12-14T10:21:04Z</time>
      </trkpt>
      <trkpt lat="48.31808" lon="2.0995">
        <ele>93.4</ele>
        <time>2023-12-14T10:21:05Z</time>
      </trkpt>
      <trkpt lat="48.31812" lon="2.09953">
        <ele>93.4</ele>
        <time>2023-12-14T10:21:06Z</time>
      </trkpt>
      <trkpt lat="48.31815" lon="2.09957">
        <ele>93.4</ele>
        <time>2023-12-14T10:21:07Z</time>
      </trkpt>
      <trkpt lat="48.31818" lon="2.0996">
        <ele>92.8</ele>
        <time>2023-12-14T10:21:08Z</time>
      </trkpt>
      <trkpt lat="48.31822" lon="2.09964">
        <ele>92.8</ele>
        <time>2023-12-14T10:21:09Z</time>
      </trkpt>
      <trkpt lat="48.31825" lon="2.09968">
        <ele>92.8</ele>
        <time>2023-12-14T10:21:10Z</time>
      </trkpt>
      <trkpt lat="48.31829" lon="2.09971">
        <ele>92.8</ele>
        <time>2023-12-14T10:21:11Z</time>
      </trkpt>
      <trkpt lat="48.31832" lon="2.09975">
        <ele>93.2</ele>
        <time>2023-12-14T10:21:12Z</time>
      </trkpt>
      <trkpt lat="48.31836" lon="2.09979">
        <ele>93.2</ele>
        <time>2023-12-14T10:21:13Z</time>
      </trkpt>
      <trkpt lat="48.3184" lon="2.09982">
        <ele>93.2</ele>
        <time>2023-12-14T10:21:14Z</time>
      </trkpt>
      <trkpt lat="48.31844" lon="2.09985">
        <ele>93.2</ele>
        <time>2023-12-14T10:21:15Z</time>
      </trkpt>
      <trkpt lat="48.31846" lon="2.09988">
        <ele>93.8</ele>
        <time>2023-12-14T10:21:16Z</time>
      </trkpt>
      <trkpt lat="48.31849" lon="2.0999">
        <ele>93.8</ele>
        <time>2023-12-14T10:21:17Z</time>
      </trkpt>
      <trkpt lat="48.31852" lon="2.09993">
        <ele>93.8</ele>
        <time>2023-12-14T10:21:18Z</time>
      </trkpt>
      <trkpt lat="48.31855" lon="2.09996">
        <ele>94.6</ele>
        <time>2023-12-14T10:21:19Z</time>
      </trkpt>
      <trkpt lat="48.31859" lon="2.09999">
        <ele>94.6</ele>
        <time>2023-12-14T10:21:20Z</time>
      </trkpt>
      <trkpt lat="48.31862" lon="2.10002">
        <ele>94.6</ele>
        <time>2023-12-14T10:21:21Z</time>
      </trkpt>
      <trkpt lat="48.31867" lon="2.10005">
        <ele>94.6</ele>
        <time>2023-12-14T10:21:22Z</time>
      </trkpt>
      <trkpt lat="48.31871" lon="2.10008">
        <ele>94.6</ele>
        <time>2023-12-14T10:21:23Z</time>
      </trkpt>
      <trkpt lat="48.31875" lon="2.10012">
        <ele>96</ele>
        <time>2023-12-14T10:21:24Z</time>
      </trkpt>
      <trkpt lat="48.31879" lon="2.10015">
        <ele>96</ele>
        <time>2023-12-14T10:21:25Z</time>
      </trkpt>
      <trkpt lat="48.31882" lon="2.10018">
        <ele>96</ele>
        <time>2023-12-14T10:21:26Z</time>
      </trkpt>
      <trkpt lat="48.31883" lon="2.10019">
        <ele>96.6</ele>
        <time>2023-12-14T10:21:27Z</time>
      </trkpt>
      <trkpt lat="48.31886" lon="2.10021">
        <ele>96.8</ele>
        <time>2023-12-14T10:21:28Z</time>
      </trkpt>
      <trkpt lat="48.3189" lon="2.10024">
        <ele>96.8</ele>
        <time>2023-12-14T10:21:29Z</time>
      </trkpt>
      <trkpt lat="48.31893" lon="2.10026">
        <ele>96.8</ele>
        <time>2023-12-14T10:21:30Z</time>
      </trkpt>
      <trkpt lat="48.31897" lon="2.10027">
        <ele>96.8</ele>
        <time>2023-12-14T10:21:31Z</time>
      </trkpt>
      <trkpt lat="48.31902" lon="2.1003">
        <ele>97</ele>
        <time>2023-12-14T10:21:32Z</time>
      </trkpt>
      <trkpt lat="48.31908" lon="2.10033">
        <ele>97</ele>
        <time>2023-12-14T10:21:33Z</time>
      </trkpt>
      <trkpt lat="48.31913" lon="2.10034">
        <ele>97</ele>
        <time>2023-12-14T10:21:34Z</time>
      </trkpt>
      <trkpt lat="48.31919" lon="2.10036">
        <ele>97.6</ele>
        <time>2023-12-14T10:21:35Z</time>
      </trkpt>
      <trkpt lat="48.31924" lon="2.10038">
        <ele>98</ele>
        <time>2023-12-14T10:21:36Z</time>
      </trkpt>
      <trkpt lat="48.3193" lon="2.10039">
        <ele>98</ele>
        <time>2023-12-14T10:21:37Z</time>
      </trkpt>
      <trkpt lat="48.31935" lon="2.10041">
        <ele>98</ele>
        <time>2023-12-14T10:21:38Z</time>
      </trkpt>
      <trkpt lat="48.3194" lon="2.10042">
        <ele>97.6</ele>
        <time>2023-12-14T10:21:39Z</time>
      </trkpt>
      <trkpt lat="48.31945" lon="2.10044">
        <ele>97.2</ele>
        <time>2023-12-14T10:21:40Z</time>
      </trkpt>
      <trkpt lat="48.3195" lon="2.10046">
        <ele>97.2</ele>
        <time>2023-12-14T10:21:41Z</time>
      </trkpt>
      <trkpt lat="48.31956" lon="2.10047">
        <ele>97.2</ele>
        <time>2023-12-14T10:21:42Z</time>
      </trkpt>
      <trkpt lat="48.31961" lon="2.10048">
        <ele>97.2</ele>
        <time>2023-12-14T10:21:43Z</time>
      </trkpt>
      <trkpt lat="48.31965" lon="2.1005">
        <ele>97.8</ele>
        <time>2023-12-14T10:21:44Z</time>
      </trkpt>
      <trkpt lat="48.3197" lon="2.10051">
        <ele>97.8</ele>
        <time>2023-12-14T10:21:45Z</time>
      </trkpt>
      <trkpt lat="48.31975" lon="2.10053">
        <ele>97.8</ele>
        <time>2023-12-14T10:21:46Z</time>
      </trkpt>
      <trkpt lat="48.3198" lon="2.10054">
        <ele>98</ele>
        <time>2023-12-14T10:21:47Z</time>
      </trkpt>
      <trkpt lat="48.31985" lon="2.10054">
        <ele>97.8</ele>
        <time>2023-12-14T10:21:48Z</time>
      </trkpt>
      <trkpt lat="48.3199" lon="2.10055">
        <ele>97.8</ele>
        <time>2023-12-14T10:21:49Z</time>
      </trkpt>
      <trkpt lat="48.31994" lon="2.10056">
        <ele>97.8</ele>
        <time>2023-12-14T10:21:50Z</time>
      </trkpt>
      <trkpt lat="48.31999" lon="2.10057">
        <ele>97.8</ele>
        <time>2023-12-14T10:21:51Z</time>
      </trkpt>
      <trkpt lat="48.32004" lon="2.10057">
        <ele>99</ele>
        <time>2023-12-14T10:21:52Z</time>
      </trkpt>
      <trkpt lat="48.32009" lon="2.10058">
        <ele>99</ele>
        <time>2023-12-14T10:21:53Z</time>
      </trkpt>
      <trkpt lat="48.32014" lon="2.10059">
        <ele>99</ele>
        <time>2023-12-14T10:21:54Z</time>
      </trkpt>
      <trkpt lat="48.32018" lon="2.10059">
        <ele>100</ele>
        <time>2023-12-14T10:21:55Z</time>
      </trkpt>
      <trkpt lat="48.32023" lon="2.1006">
        <ele>101.6</ele>
        <time>2023-12-14T10:21:56Z</time>
      </trkpt>
      <trkpt lat="48.32028" lon="2.1006">
        <ele>101.6</ele>
        <time>2023-12-14T10:21:57Z</time>
      </trkpt>
      <trkpt lat="48.32032" lon="2.1006">
        <ele>101.6</ele>
        <time>2023-12-14T10:21:58Z</time>
      </trkpt>
      <trkpt lat="48.32036" lon="2.1006">
        <ele>101.6</ele>
        <time>2023-12-14T10:21:59Z</time>
      </trkpt>
      <trkpt lat="48.32041" lon="2.1006">
        <ele>100.4</ele>
        <time>2023-12-14T10:22:00Z</time>
      </trkpt>
      <trkpt lat="48.32045" lon="2.1006">
        <ele>100.4</ele>
        <time>2023-12-14T10:22:01Z</time>
      </trkpt>
      <trkpt lat="48.32049" lon="2.1006">
        <ele>100.4</ele>
        <time>2023-12-14T10:22:02Z</time>
      </trkpt>
      <trkpt lat="48.32053" lon="2.1006">
        <ele>101.4</ele>
        <time>2023-12-14T10:22:03Z</time>
      </trkpt>
      <trkpt lat="48.32058" lon="2.10059">
        <ele>101.4</ele>
        <time>2023-12-14T10:22:04Z</time>
      </trkpt>
      <trkpt lat="48.32062" lon="2.10059">
        <ele>101.4</ele>
        <time>2023-12-14T10:22:05Z</time>
      </trkpt>
      <trkpt lat="48.32067" lon="2.10059">
        <ele>101.4</ele>
        <time>2023-12-14T10:22:06Z</time>
      </trkpt>
      <trkpt lat="48.32071" lon="2.10058">
        <ele>101.4</ele>
        <time>2023-12-14T10:22:07Z</time>
      </trkpt>
      <trkpt lat="48.32076" lon="2.10058">
        <ele>101</ele>
        <time>2023-12-14T10:22:08Z</time>
      </trkpt>
      <trkpt lat="48.3208" lon="2.10057">
        <ele>101</ele>
        <time>2023-12-14T10:22:09Z</time>
      </trkpt>
      <trkpt lat="48.32085" lon="2.10056">
        <ele>101</ele>
        <time>2023-12-14T10:22:10Z</time>
      </trkpt>
      <trkpt lat="48.32089" lon="2.10056">
        <ele>101.4</ele>
        <time>2023-12-14T10:22:11Z</time>
      </trkpt>
      <trkpt lat="48.32093" lon="2.10055">
        <ele>102.4</ele>
        <time>2023-12-14T10:22:12Z</time>
      </trkpt>
      <trkpt lat="48.32098" lon="2.10054">
        <ele>102.4</ele>
        <time>2023-12-14T10:22:13Z</time>
      </trkpt>
      <trkpt lat="48.32102" lon="2.10054">
        <ele>102.4</ele>
        <time>2023-12-14T10:22:14Z</time>
      </trkpt>
      <trkpt lat="48.32106" lon="2.10053">
        <ele>102.4</ele>
        <time>2023-12-14T10:22:15Z</time>
      </trkpt>
      <trkpt lat="48.3211" lon="2.10051">
        <ele>102.6</ele>
        <time>2023-12-14T10:22:16Z</time>
      </trkpt>
      <trkpt lat="48.32115" lon="2.1005">
        <ele>102.6</ele>
        <time>2023-12-14T10:22:17Z</time>
      </trkpt>
      <trkpt lat="48.32119" lon="2.10049">
        <ele>102.6</ele>
        <time>2023-12-14T10:22:18Z</time>
      </trkpt>
      <trkpt lat="48.32124" lon="2.10048">
        <ele>102.6</ele>
        <time>2023-12-14T10:22:19Z</time>
      </trkpt>
      <trkpt lat="48.32129" lon="2.10046">
        <ele>102.6</ele>
        <time>2023-12-14T10:22:20Z</time>
      </trkpt>
      <trkpt lat="48.32133" lon="2.10045">
        <ele>102.6</ele>
        <time>2023-12-14T10:22:21Z</time>
      </trkpt>
      <trkpt lat="48.32138" lon="2.10044">
        <ele>102.6</ele>
        <time>2023-12-14T10:22:22Z</time>
      </trkpt>
      <trkpt lat="48.32142" lon="2.10043">
        <ele>102.6</ele>
        <time>2023-12-14T10:22:23Z</time>
      </trkpt>
      <trkpt lat="48.32146" lon="2.10041">
        <ele>103</ele>
        <time>2023-12-14T10:22:24Z</time>
      </trkpt>
      <trkpt lat="48.3215" lon="2.10039">
        <ele>103</ele>
        <time>2023-12-14T10:22:25Z</time>
      </trkpt>
      <trkpt lat="48.32154" lon="2.10037">
        <ele>103</ele>
        <time>2023-12-14T10:22:26Z</time>
      </trkpt>
      <trkpt lat="48.32159" lon="2.10035">
        <ele>104</ele>
        <time>2023-12-14T10:22:27Z</time>
      </trkpt>
      <trkpt lat="48.32163" lon="2.10033">
        <ele>104.4</ele>
        <time>2023-12-14T10:22:28Z</time>
      </trkpt>
      <trkpt lat="48.32167" lon="2.10031">
        <ele>104.4</ele>
        <time>2023-12-14T10:22:29Z</time>
      </trkpt>
      <trkpt lat="48.32171" lon="2.10029">
        <ele>104.4</ele>
        <time>2023-12-14T10:22:30Z</time>
      </trkpt>
      <trkpt lat="48.32175" lon="2.10027">
        <ele>104.4</ele>
        <time>2023-12-14T10:22:31Z</time>
      </trkpt>
      <trkpt lat="48.32179" lon="2.10024">
        <ele>104.2</ele>
        <time>2023-12-14T10:22:32Z</time>
      </trkpt>
      <trkpt lat="48.32183" lon="2.10022">
        <ele>104.2</ele>
        <time>2023-12-14T10:22:33Z</time>
      </trkpt>
      <trkpt lat="48.32187" lon="2.1002">
        <ele>104.2</ele>
        <time>2023-12-14T10:22:34Z</time>
      </trkpt>
      <trkpt lat="48.32191" lon="2.10017">
        <ele>105</ele>
        <time>2023-12-14T10:22:35Z</time>
      </trkpt>
      <trkpt lat="48.32195" lon="2.10014">
        <ele>104.8</ele>
        <time>2023-12-14T10:22:36Z</time>
      </trkpt>
      <trkpt lat="48.322" lon="2.10012">
        <ele>104.8</ele>
        <time>2023-12-14T10:22:37Z</time>
      </trkpt>
      <trkpt lat="48.32204" lon="2.10009">
        <ele>104.8</ele>
        <time>2023-12-14T10:22:38Z</time>
      </trkpt>
      <trkpt lat="48.32209" lon="2.10007">
        <ele>104.8</ele>
        <time>2023-12-14T10:22:39Z</time>
      </trkpt>
      <trkpt lat="48.32213" lon="2.10005">
        <ele>105</ele>
        <time>2023-12-14T10:22:40Z</time>
      </trkpt>
      <trkpt lat="48.32218" lon="2.10004">
        <ele>105</ele>
        <time>2023-12-14T10:22:41Z</time>
      </trkpt>
      <trkpt lat="48.32222" lon="2.10003">
        <ele>105</ele>
        <time>2023-12-14T10:22:42Z</time>
      </trkpt>
      <trkpt lat="48.32227" lon="2.10002">
        <ele>105</ele>
        <time>2023-12-14T10:22:43Z</time>
      </trkpt>
      <trkpt lat="48.32231" lon="2.10001">
        <ele>104.4</ele>
        <time>2023-12-14T10:22:44Z</time>
      </trkpt>
      <trkpt lat="48.32236" lon="2.10001">
        <ele>104.4</ele>
        <time>2023-12-14T10:22:45Z</time>
      </trkpt>
      <trkpt lat="48.3224" lon="2.10001">
        <ele>104.4</ele>
        <time>2023-12-14T10:22:46Z</time>
      </trkpt>
      <trkpt lat="48.32245" lon="2.10001">
        <ele>104.6</ele>
        <time>2023-12-14T10:22:47Z</time>
      </trkpt>
      <trkpt lat="48.32249" lon="2.10003">
        <ele>104.8</ele>
        <time>2023-12-14T10:22:48Z</time>
      </trkpt>
      <trkpt lat="48.32253" lon="2.10003">
        <ele>104.8</ele>
        <time>2023-12-14T10:22:49Z</time>
      </trkpt>
      <trkpt lat="48.32257" lon="2.10005">
        <ele>104.8</ele>
        <time>2023-12-14T10:22:50Z</time>
      </trkpt>
      <trkpt lat="48.32261" lon="2.10007">
        <ele>104.8</ele>
        <time>2023-12-14T10:22:51Z</time>
      </trkpt>
      <trkpt lat="48.32265" lon="2.10009">
        <ele>105.8</ele>
        <time>2023-12-14T10:22:52Z</time>
      </trkpt>
      <trkpt lat="48.32269" lon="2.10012">
        <ele>105.8</ele>
        <time>2023-12-14T10:22:53Z</time>
      </trkpt>
      <trkpt lat="48.32273" lon="2.10015">
        <ele>105.8</ele>
        <time>2023-12-14T10:22:54Z</time>
      </trkpt>
      <trkpt lat="48.32278" lon="2.10018">
        <ele>105.8</ele>
        <time>2023-12-14T10:22:55Z</time>
      </trkpt>
      <trkpt lat="48.32282" lon="2.10021">
        <ele>106.4</ele>
        <time>2023-12-14T10:22:56Z</time>
      </trkpt>
      <trkpt lat="48.32286" lon="2.10025">
        <ele>106.4</ele>
        <time>2023-12-14T10:22:57Z</time>
      </trkpt>
      <trkpt lat="48.3229" lon="2.1003">
        <ele>106.4</ele>
        <time>2023-12-14T10:22:58Z</time>
      </trkpt>
      <trkpt lat="48.32293" lon="2.10034">
        <ele>106.6</ele>
        <time>2023-12-14T10:22:59Z</time>
      </trkpt>
      <trkpt lat="48.32297" lon="2.10039">
        <ele>106.4</ele>
        <time>2023-12-14T10:23:00Z</time>
      </trkpt>
      <trkpt lat="48.32301" lon="2.10044">
        <ele>106.4</ele>
        <time>2023-12-14T10:23:01Z</time>
      </trkpt>
      <trkpt lat="48.32304" lon="2.10049">
        <ele>106.4</ele>
        <time>2023-12-14T10:23:02Z</time>
      </trkpt>
      <trkpt lat="48.32307" lon="2.10055">
        <ele>107.4</ele>
        <time>2023-12-14T10:23:03Z</time>
      </trkpt>
      <trkpt lat="48.3231" lon="2.1006">
        <ele>108.2</ele>
        <time>2023-12-14T10:23:04Z</time>
      </trkpt>
      <trkpt lat="48.32313" lon="2.10067">
        <ele>108.2</ele>
        <time>2023-12-14T10:23:05Z</time>
      </trkpt>
      <trkpt lat="48.32316" lon="2.10073">
        <ele>108.2</ele>
        <time>2023-12-14T10:23:06Z</time>
      </trkpt>
      <trkpt lat="48.32318" lon="2.1008">
        <ele>108.2</ele>
        <time>2023-12-14T10:23:07Z</time>
      </trkpt>
      <trkpt lat="48.32321" lon="2.10086">
        <ele>107.2</ele>
        <time>2023-12-14T10:23:08Z</time>
      </trkpt>
      <trkpt lat="48.32323" lon="2.10093">
        <ele>107.2</ele>
        <time>2023-12-14T10:23:09Z</time>
      </trkpt>
      <trkpt lat="48.32324" lon="2.101">
        <ele>107.2</ele>
        <time>2023-12-14T10:23:10Z</time>
      </trkpt>
      <trkpt lat="48.32326" lon="2.10107">
        <ele>108.2</ele>
        <time>2023-12-14T10:23:11Z</time>
      </trkpt>
      <trkpt lat="48.32328" lon="2.10113">
        <ele>108.2</ele>
        <time>2023-12-14T10:23:12Z</time>
      </trkpt>
      <trkpt lat="48.32329" lon="2.1012">
        <ele>108.2</ele>
        <time>2023-12-14T10:23:13Z</time>
      </trkpt>
      <trkpt lat="48.3233" lon="2.10127">
        <ele>108.2</ele>
        <time>2023-12-14T10:23:14Z</time>
      </trkpt>
      <trkpt lat="48.32332" lon="2.10134">
        <ele>108.8</ele>
        <time>2023-12-14T10:23:15Z</time>
      </trkpt>
      <trkpt lat="48.32333" lon="2.10141">
        <ele>109.4</ele>
        <time>2023-12-14T10:23:16Z</time>
      </trkpt>
      <trkpt lat="48.32335" lon="2.10147">
        <ele>109.4</ele>
        <time>2023-12-14T10:23:17Z</time>
      </trkpt>
      <trkpt lat="48.32336" lon="2.10154">
        <ele>109.4</ele>
        <time>2023-12-14T10:23:18Z</time>
      </trkpt>
      <trkpt lat="48.32338" lon="2.10161">
        <ele>109.4</ele>
        <time>2023-12-14T10:23:19Z</time>
      </trkpt>
      <trkpt lat="48.32339" lon="2.10167">
        <ele>109.4</ele>
        <time>2023-12-14T10:23:20Z</time>
      </trkpt>
      <trkpt lat="48.32341" lon="2.10174">
        <ele>109.4</ele>
        <time>2023-12-14T10:23:21Z</time>
      </trkpt>
      <trkpt lat="48.32342" lon="2.1018">
        <ele>109.4</ele>
        <time>2023-12-14T10:23:22Z</time>
      </trkpt>
      <trkpt lat="48.32344" lon="2.10187">
        <ele>110</ele>
        <time>2023-12-14T10:23:23Z</time>
      </trkpt>
      <trkpt lat="48.32345" lon="2.10194">
        <ele>110.2</ele>
        <time>2023-12-14T10:23:24Z</time>
      </trkpt>
      <trkpt lat="48.32347" lon="2.102">
        <ele>110.2</ele>
        <time>2023-12-14T10:23:25Z</time>
      </trkpt>
      <trkpt lat="48.32348" lon="2.10207">
        <ele>110.2</ele>
        <time>2023-12-14T10:23:26Z</time>
      </trkpt>
      <trkpt lat="48.32349" lon="2.10214">
        <ele>110.8</ele>
        <time>2023-12-14T10:23:27Z</time>
      </trkpt>
      <trkpt lat="48.32351" lon="2.1022">
        <ele>110.6</ele>
        <time>2023-12-14T10:23:28Z</time>
      </trkpt>
      <trkpt lat="48.32352" lon="2.10227">
        <ele>110.6</ele>
        <time>2023-12-14T10:23:29Z</time>
      </trkpt>
      <trkpt lat="48.32353" lon="2.10233">
        <ele>110.6</ele>
        <time>2023-12-14T10:23:30Z</time>
      </trkpt>
      <trkpt lat="48.32355" lon="2.1024">
        <ele>110.6</ele>
        <time>2023-12-14T10:23:31Z</time>
      </trkpt>
      <trkpt lat="48.32357" lon="2.10247">
        <ele>111</ele>
        <time>2023-12-14T10:23:32Z</time>
      </trkpt>
      <trkpt lat="48.32358" lon="2.10253">
        <ele>111</ele>
        <time>2023-12-14T10:23:33Z</time>
      </trkpt>
      <trkpt lat="48.3236" lon="2.1026">
        <ele>111</ele>
        <time>2023-12-14T10:23:34Z</time>
      </trkpt>
      <trkpt lat="48.32362" lon="2.10266">
        <ele>112</ele>
        <time>2023-12-14T10:23:35Z</time>
      </trkpt>
      <trkpt lat="48.32364" lon="2.10273">
        <ele>112.4</ele>
        <time>2023-12-14T10:23:36Z</time>
      </trkpt>
      <trkpt lat="48.32366" lon="2.10279">
        <ele>112.4</ele>
        <time>2023-12-14T10:23:37Z</time>
      </trkpt>
      <trkpt lat="48.32368" lon="2.10285">
        <ele>112.4</ele>
        <time>2023-12-14T10:23:38Z</time>
      </trkpt>
      <trkpt lat="48.3237" lon="2.10292">
        <ele>112.4</ele>
        <time>2023-12-14T10:23:39Z</time>
      </trkpt>
      <trkpt lat="48.32372" lon="2.10298">
        <ele>113.2</ele>
        <time>2023-12-14T10:23:40Z</time>
      </trkpt>
      <trkpt lat="48.32375" lon="2.10305">
        <ele>113.2</ele>
        <time>2023-12-14T10:23:41Z</time>
      </trkpt>
      <trkpt lat="48.32378" lon="2.10311">
        <ele>113.2</ele>
        <time>2023-12-14T10:23:42Z</time>
      </trkpt>
      <trkpt lat="48.32381" lon="2.10317">
        <ele>113.2</ele>
        <time>2023-12-14T10:23:43Z</time>
      </trkpt>
      <trkpt lat="48.32384" lon="2.10323">
        <ele>112.2</ele>
        <time>2023-12-14T10:23:44Z</time>
      </trkpt>
      <trkpt lat="48.32387" lon="2.10327">
        <ele>112.2</ele>
        <time>2023-12-14T10:23:45Z</time>
      </trkpt>
      <trkpt lat="48.32391" lon="2.10331">
        <ele>112.2</ele>
        <time>2023-12-14T10:23:46Z</time>
      </trkpt>
      <trkpt lat="48.32395" lon="2.10335">
        <ele>112.4</ele>
        <time>2023-12-14T10:23:47Z</time>
      </trkpt>
      <trkpt lat="48.324" lon="2.10338">
        <ele>112.6</ele>
        <time>2023-12-14T10:23:48Z</time>
      </trkpt>
      <trkpt lat="48.32404" lon="2.1034">
        <ele>112.6</ele>
        <time>2023-12-14T10:23:49Z</time>
      </trkpt>
      <trkpt lat="48.32409" lon="2.10343">
        <ele>112.6</ele>
        <time>2023-12-14T10:23:50Z</time>
      </trkpt>
      <trkpt lat="48.32414" lon="2.10345">
        <ele>112.8</ele>
        <time>2023-12-14T10:23:51Z</time>
      </trkpt>
      <trkpt lat="48.32419" lon="2.10348">
        <ele>113.4</ele>
        <time>2023-12-14T10:23:52Z</time>
      </trkpt>
      <trkpt lat="48.32423" lon="2.1035">
        <ele>113.4</ele>
        <time>2023-12-14T10:23:53Z</time>
      </trkpt>
      <trkpt lat="48.32428" lon="2.10352">
        <ele>113.4</ele>
        <time>2023-12-14T10:23:54Z</time>
      </trkpt>
      <trkpt lat="48.32433" lon="2.10354">
        <ele>113.4</ele>
        <time>2023-12-14T10:23:55Z</time>
      </trkpt>
      <trkpt lat="48.32438" lon="2.10357">
        <ele>113.4</ele>
        <time>2023-12-14T10:23:56Z</time>
      </trkpt>
      <trkpt lat="48.32442" lon="2.1036">
        <ele>113.4</ele>
        <time>2023-12-14T10:23:57Z</time>
      </trkpt>
      <trkpt lat="48.32447" lon="2.10363">
        <ele>113.4</ele>
        <time>2023-12-14T10:23:58Z</time>
      </trkpt>
      <trkpt lat="48.32451" lon="2.10368">
        <ele>113.4</ele>
        <time>2023-12-14T10:23:59Z</time>
      </trkpt>
      <trkpt lat="48.32454" lon="2.10373">
        <ele>113.8</ele>
        <time>2023-12-14T10:24:00Z</time>
      </trkpt>
      <trkpt lat="48.32457" lon="2.1038">
        <ele>113.8</ele>
        <time>2023-12-14T10:24:01Z</time>
      </trkpt>
      <trkpt lat="48.32458" lon="2.10387">
        <ele>113.8</ele>
        <time>2023-12-14T10:24:02Z</time>
      </trkpt>
      <trkpt lat="48.32459" lon="2.10394">
        <ele>114.4</ele>
        <time>2023-12-14T10:24:03Z</time>
      </trkpt>
      <trkpt lat="48.3246" lon="2.10401">
        <ele>115</ele>
        <time>2023-12-14T10:24:04Z</time>
      </trkpt>
      <trkpt lat="48.32459" lon="2.10408">
        <ele>115</ele>
        <time>2023-12-14T10:24:05Z</time>
      </trkpt>
      <trkpt lat="48.32458" lon="2.10415">
        <ele>115</ele>
        <time>2023-12-14T10:24:06Z</time>
      </trkpt>
      <trkpt lat="48.32457" lon="2.10422">
        <ele>116</ele>
        <time>2023-12-14T10:24:07Z</time>
      </trkpt>
      <trkpt lat="48.32457" lon="2.10429">
        <ele>116.2</ele>
        <time>2023-12-14T10:24:08Z</time>
      </trkpt>
      <trkpt lat="48.32456" lon="2.10436">
        <ele>116.2</ele>
        <time>2023-12-14T10:24:09Z</time>
      </trkpt>
      <trkpt lat="48.32457" lon="2.10444">
        <ele>116.2</ele>
        <time>2023-12-14T10:24:10Z</time>
      </trkpt>
      <trkpt lat="48.32458" lon="2.10452">
        <ele>116.2</ele>
        <time>2023-12-14T10:24:11Z</time>
      </trkpt>
      <trkpt lat="48.3246" lon="2.10459">
        <ele>115.6</ele>
        <time>2023-12-14T10:24:12Z</time>
      </trkpt>
      <trkpt lat="48.32463" lon="2.10465">
        <ele>115.6</ele>
        <time>2023-12-14T10:24:13Z</time>
      </trkpt>
      <trkpt lat="48.32467" lon="2.10471">
        <ele>115.6</ele>
        <time>2023-12-14T10:24:14Z</time>
      </trkpt>
      <trkpt lat="48.32471" lon="2.10476">
        <ele>116.2</ele>
        <time>2023-12-14T10:24:15Z</time>
      </trkpt>
      <trkpt lat="48.32475" lon="2.10481">
        <ele>116.2</ele>
        <time>2023-12-14T10:24:16Z</time>
      </trkpt>
      <trkpt lat="48.3248" lon="2.10485">
        <ele>116.2</ele>
        <time>2023-12-14T10:24:17Z</time>
      </trkpt>
      <trkpt lat="48.32484" lon="2.10488">
        <ele>116.2</ele>
        <time>2023-12-14T10:24:18Z</time>
      </trkpt>
      <trkpt lat="48.32489" lon="2.10491">
        <ele>116.2</ele>
        <time>2023-12-14T10:24:19Z</time>
      </trkpt>
      <trkpt lat="48.32493" lon="2.10494">
        <ele>116.2</ele>
        <time>2023-12-14T10:24:20Z</time>
      </trkpt>
      <trkpt lat="48.32498" lon="2.10497">
        <ele>116.2</ele>
        <time>2023-12-14T10:24:21Z</time>
      </trkpt>
      <trkpt lat="48.32502" lon="2.105">
        <ele>116.2</ele>
        <time>2023-12-14T10:24:22Z</time>
      </trkpt>
      <trkpt lat="48.32507" lon="2.10503">
        <ele>116.2</ele>
        <time>2023-12-14T10:24:23Z</time>
      </trkpt>
      <trkpt lat="48.32511" lon="2.10506">
        <ele>117.4</ele>
        <time>2023-12-14T10:24:24Z</time>
      </trkpt>
      <trkpt lat="48.32515" lon="2.10509">
        <ele>117.4</ele>
        <time>2023-12-14T10:24:25Z</time>
      </trkpt>
      <trkpt lat="48.32519" lon="2.10513">
        <ele>117.4</ele>
        <time>2023-12-14T10:24:26Z</time>
      </trkpt>
      <trkpt lat="48.32523" lon="2.10517">
        <ele>117.4</ele>
        <time>2023-12-14T10:24:27Z</time>
      </trkpt>
      <trkpt lat="48.32527" lon="2.10522">
        <ele>117.4</ele>
        <time>2023-12-14T10:24:28Z</time>
      </trkpt>
      <trkpt lat="48.32531" lon="2.10527">
        <ele>117.4</ele>
        <time>2023-12-14T10:24:29Z</time>
      </trkpt>
      <trkpt lat="48.32534" lon="2.10532">
        <ele>117.4</ele>
        <time>2023-12-14T10:24:30Z</time>
      </trkpt>
      <trkpt lat="48.32537" lon="2.10538">
        <ele>118.4</ele>
        <time>2023-12-14T10:24:31Z</time>
      </trkpt>
      <trkpt lat="48.3254" lon="2.10544">
        <ele>118.6</ele>
        <time>2023-12-14T10:24:32Z</time>
      </trkpt>
      <trkpt lat="48.32542" lon="2.1055">
        <ele>118.6</ele>
        <time>2023-12-14T10:24:33Z</time>
      </trkpt>
      <trkpt lat="48.32544" lon="2.10557">
        <ele>118.6</ele>
        <time>2023-12-14T10:24:34Z</time>
      </trkpt>
      <trkpt lat="48.32546" lon="2.10563">
        <ele>118.6</ele>
        <time>2023-12-14T10:24:35Z</time>
      </trkpt>
      <trkpt lat="48.32548" lon="2.1057">
        <ele>119.2</ele>
        <time>2023-12-14T10:24:36Z</time>
      </trkpt>
      <trkpt lat="48.3255" lon="2.10576">
        <ele>119.2</ele>
        <time>2023-12-14T10:24:37Z</time>
      </trkpt>
      <trkpt lat="48.32551" lon="2.10583">
        <ele>119.2</ele>
        <time>2023-12-14T10:24:38Z</time>
      </trkpt>
      <trkpt lat="48.32553" lon="2.1059">
        <ele>119.2</ele>
        <time>2023-12-14T10:24:39Z</time>
      </trkpt>
      <trkpt lat="48.32555" lon="2.10596">
        <ele>119.4</ele>
        <time>2023-12-14T10:24:40Z</time>
      </trkpt>
      <trkpt lat="48.32557" lon="2.10603">
        <ele>119.4</ele>
        <time>2023-12-14T10:24:41Z</time>
      </trkpt>
      <trkpt lat="48.32558" lon="2.1061">
        <ele>119.4</ele>
        <time>2023-12-14T10:24:42Z</time>
      </trkpt>
      <trkpt lat="48.3256" lon="2.10617">
        <ele>120.4</ele>
        <time>2023-12-14T10:24:43Z</time>
      </trkpt>
      <trkpt lat="48.32562" lon="2.10623">
        <ele>120.4</ele>
        <time>2023-12-14T10:24:44Z</time>
      </trkpt>
      <trkpt lat="48.32563" lon="2.1063">
        <ele>120.4</ele>
        <time>2023-12-14T10:24:45Z</time>
      </trkpt>
      <trkpt lat="48.32565" lon="2.10637">
        <ele>120.4</ele>
        <time>2023-12-14T10:24:46Z</time>
      </trkpt>
      <trkpt lat="48.32566" lon="2.10643">
        <ele>121.2</ele>
        <time>2023-12-14T10:24:47Z</time>
      </trkpt>
      <trkpt lat="48.32568" lon="2.1065">
        <ele>121.6</ele>
        <time>2023-12-14T10:24:48Z</time>
      </trkpt>
      <trkpt lat="48.3257" lon="2.10656">
        <ele>121.6</ele>
        <time>2023-12-14T10:24:49Z</time>
      </trkpt>
      <trkpt lat="48.32571" lon="2.10663">
        <ele>121.6</ele>
        <time>2023-12-14T10:24:50Z</time>
      </trkpt>
      <trkpt lat="48.32573" lon="2.1067">
        <ele>122.2</ele>
        <time>2023-12-14T10:24:51Z</time>
      </trkpt>
      <trkpt lat="48.32574" lon="2.10676">
        <ele>121.8</ele>
        <time>2023-12-14T10:24:52Z</time>
      </trkpt>
      <trkpt lat="48.32576" lon="2.10683">
        <ele>121.8</ele>
        <time>2023-12-14T10:24:53Z</time>
      </trkpt>
      <trkpt lat="48.32577" lon="2.1069">
        <ele>121.8</ele>
        <time>2023-12-14T10:24:54Z</time>
      </trkpt>
      <trkpt lat="48.32578" lon="2.10696">
        <ele>122.6</ele>
        <time>2023-12-14T10:24:55Z</time>
      </trkpt>
      <trkpt lat="48.3258" lon="2.10703">
        <ele>123.2</ele>
        <time>2023-12-14T10:24:56Z</time>
      </trkpt>
      <trkpt lat="48.32581" lon="2.10709">
        <ele>123.2</ele>
        <time>2023-12-14T10:24:57Z</time>
      </trkpt>
      <trkpt lat="48.32582" lon="2.10716">
        <ele>123.2</ele>
        <time>2023-12-14T10:24:58Z</time>
      </trkpt>
      <trkpt lat="48.32584" lon="2.10723">
        <ele>123.2</ele>
        <time>2023-12-14T10:24:59Z</time>
      </trkpt>
      <trkpt lat="48.32585" lon="2.10729">
        <ele>122.6</ele>
        <time>2023-12-14T10:25:00Z</time>
      </trkpt>
      <trkpt lat="48.32586" lon="2.10736">
        <ele>122.6</ele>
        <time>2023-12-14T10:25:01Z</time>
      </trkpt>
      <trkpt lat="48.32587" lon="2.10743">
        <ele>122.6</ele>
        <time>2023-12-14T10:25:02Z</time>
      </trkpt>
      <trkpt lat="48.32588" lon="2.1075">
        <ele>123.6</ele>
        <time>2023-12-14T10:25:03Z</time>
      </trkpt>
      <trkpt lat="48.3259" lon="2.10757">
        <ele>124</ele>
        <time>2023-12-14T10:25:04Z</time>
      </trkpt>
      <trkpt lat="48.32591" lon="2.10764">
        <ele>124</ele>
        <time>2023-12-14T10:25:05Z</time>
      </trkpt>
      <trkpt lat="48.32592" lon="2.1077">
        <ele>124</ele>
        <time>2023-12-14T10:25:06Z</time>
      </trkpt>
      <trkpt lat="48.32594" lon="2.10777">
        <ele>124.4</ele>
        <time>2023-12-14T10:25:07Z</time>
      </trkpt>
      <trkpt lat="48.32595" lon="2.10785">
        <ele>124.8</ele>
        <time>2023-12-14T10:25:08Z</time>
      </trkpt>
      <trkpt lat="48.32596" lon="2.10791">
        <ele>124.8</ele>
        <time>2023-12-14T10:25:09Z</time>
      </trkpt>
      <trkpt lat="48.32598" lon="2.10799">
        <ele>124.8</ele>
        <time>2023-12-14T10:25:10Z</time>
      </trkpt>
      <trkpt lat="48.32599" lon="2.10806">
        <ele>124.8</ele>
        <time>2023-12-14T10:25:11Z</time>
      </trkpt>
      <trkpt lat="48.32601" lon="2.10813">
        <ele>125.4</ele>
        <time>2023-12-14T10:25:12Z</time>
      </trkpt>
      <trkpt lat="48.32602" lon="2.1082">
        <ele>125.4</ele>
        <time>2023-12-14T10:25:13Z</time>
      </trkpt>
      <trkpt lat="48.32604" lon="2.10827">
        <ele>125.4</ele>
        <time>2023-12-14T10:25:14Z</time>
      </trkpt>
      <trkpt lat="48.32606" lon="2.10834">
        <ele>125.4</ele>
        <time>2023-12-14T10:25:15Z</time>
      </trkpt>
      <trkpt lat="48.32608" lon="2.10841">
        <ele>125.4</ele>
        <time>2023-12-14T10:25:16Z</time>
      </trkpt>
      <trkpt lat="48.3261" lon="2.10848">
        <ele>125.4</ele>
        <time>2023-12-14T10:25:17Z</time>
      </trkpt>
      <trkpt lat="48.32612" lon="2.10855">
        <ele>125.4</ele>
        <time>2023-12-14T10:25:18Z</time>
      </trkpt>
      <trkpt lat="48.32614" lon="2.10862">
        <ele>125.4</ele>
        <time>2023-12-14T10:25:19Z</time>
      </trkpt>
      <trkpt lat="48.32616" lon="2.10869">
        <ele>125.4</ele>
        <time>2023-12-14T10:25:20Z</time>
      </trkpt>
      <trkpt lat="48.32618" lon="2.10876">
        <ele>125.4</ele>
        <time>2023-12-14T10:25:21Z</time>
      </trkpt>
      <trkpt lat="48.3262" lon="2.10883">
        <ele>125.4</ele>
        <time>2023-12-14T10:25:22Z</time>
      </trkpt>
      <trkpt lat="48.32623" lon="2.1089">
        <ele>125.4</ele>
        <time>2023-12-14T10:25:23Z</time>
      </trkpt>
      <trkpt lat="48.32625" lon="2.10897">
        <ele>126</ele>
        <time>2023-12-14T10:25:24Z</time>
      </trkpt>
      <trkpt lat="48.32627" lon="2.10904">
        <ele>126</ele>
        <time>2023-12-14T10:25:25Z</time>
      </trkpt>
      <trkpt lat="48.3263" lon="2.10911">
        <ele>126</ele>
        <time>2023-12-14T10:25:26Z</time>
      </trkpt>
      <trkpt lat="48.32632" lon="2.10918">
        <ele>126.6</ele>
        <time>2023-12-14T10:25:27Z</time>
      </trkpt>
      <trkpt lat="48.32635" lon="2.10926">
        <ele>126.2</ele>
        <time>2023-12-14T10:25:28Z</time>
      </trkpt>
      <trkpt lat="48.32638" lon="2.10933">
        <ele>126.2</ele>
        <time>2023-12-14T10:25:29Z</time>
      </trkpt>
      <trkpt lat="48.3264" lon="2.1094">
        <ele>126.2</ele>
        <time>2023-12-14T10:25:30Z</time>
      </trkpt>
      <trkpt lat="48.32643" lon="2.10946">
        <ele>126.4</ele>
        <time>2023-12-14T10:25:31Z</time>
      </trkpt>
      <trkpt lat="48.32646" lon="2.10953">
        <ele>126.8</ele>
        <time>2023-12-14T10:25:32Z</time>
      </trkpt>
      <trkpt lat="48.32648" lon="2.1096">
        <ele>126.8</ele>
        <time>2023-12-14T10:25:33Z</time>
      </trkpt>
      <trkpt lat="48.32651" lon="2.10967">
        <ele>126.8</ele>
        <time>2023-12-14T10:25:34Z</time>
      </trkpt>
      <trkpt lat="48.32654" lon="2.10974">
        <ele>126.8</ele>
        <time>2023-12-14T10:25:35Z</time>
      </trkpt>
      <trkpt lat="48.32657" lon="2.1098">
        <ele>127.2</ele>
        <time>2023-12-14T10:25:36Z</time>
      </trkpt>
      <trkpt lat="48.3266" lon="2.10987">
        <ele>127.2</ele>
        <time>2023-12-14T10:25:37Z</time>
      </trkpt>
      <trkpt lat="48.32663" lon="2.10994">
        <ele>127.2</ele>
        <time>2023-12-14T10:25:38Z</time>
      </trkpt>
      <trkpt lat="48.32665" lon="2.11">
        <ele>128</ele>
        <time>2023-12-14T10:25:39Z</time>
      </trkpt>
      <trkpt lat="48.32668" lon="2.11007">
        <ele>128.2</ele>
        <time>2023-12-14T10:25:40Z</time>
      </trkpt>
      <trkpt lat="48.32671" lon="2.11014">
        <ele>128.2</ele>
        <time>2023-12-14T10:25:41Z</time>
      </trkpt>
      <trkpt lat="48.32675" lon="2.11021">
        <ele>128.2</ele>
        <time>2023-12-14T10:25:42Z</time>
      </trkpt>
      <trkpt lat="48.32678" lon="2.11027">
        <ele>128.2</ele>
        <time>2023-12-14T10:25:43Z</time>
      </trkpt>
      <trkpt lat="48.32681" lon="2.11034">
        <ele>127.2</ele>
        <time>2023-12-14T10:25:44Z</time>
      </trkpt>
      <trkpt lat="48.32685" lon="2.11041">
        <ele>127.2</ele>
        <time>2023-12-14T10:25:45Z</time>
      </trkpt>
      <trkpt lat="48.32688" lon="2.11048">
        <ele>127.2</ele>
        <time>2023-12-14T10:25:46Z</time>
      </trkpt>
      <trkpt lat="48.32691" lon="2.11055">
        <ele>127.6</ele>
        <time>2023-12-14T10:25:47Z</time>
      </trkpt>
      <trkpt lat="48.32695" lon="2.11061">
        <ele>127.4</ele>
        <time>2023-12-14T10:25:48Z</time>
      </trkpt>
      <trkpt lat="48.32698" lon="2.11068">
        <ele>127.4</ele>
        <time>2023-12-14T10:25:49Z</time>
      </trkpt>
      <trkpt lat="48.32701" lon="2.11075">
        <ele>127.4</ele>
        <time>2023-12-14T10:25:50Z</time>
      </trkpt>
      <trkpt lat="48.32704" lon="2.11082">
        <ele>128</ele>
        <time>2023-12-14T10:25:51Z</time>
      </trkpt>
      <trkpt lat="48.32708" lon="2.11088">
        <ele>128</ele>
        <time>2023-12-14T10:25:52Z</time>
      </trkpt>
      <trkpt lat="48.32711" lon="2.11095">
        <ele>128</ele>
        <time>2023-12-14T10:25:53Z</time>
      </trkpt>
      <trkpt lat="48.32714" lon="2.11102">
        <ele>128</ele>
        <time>2023-12-14T10:25:54Z</time>
      </trkpt>
      <trkpt lat="48.32717" lon="2.11108">
        <ele>128.4</ele>
        <time>2023-12-14T10:25:55Z</time>
      </trkpt>
      <trkpt lat="48.32721" lon="2.11115">
        <ele>128.6</ele>
        <time>2023-12-14T10:25:56Z</time>
      </trkpt>
      <trkpt lat="48.32724" lon="2.11121">
        <ele>128.6</ele>
        <time>2023-12-14T10:25:57Z</time>
      </trkpt>
      <trkpt lat="48.32727" lon="2.11128">
        <ele>128.6</ele>
        <time>2023-12-14T10:25:58Z</time>
      </trkpt>
      <trkpt lat="48.3273" lon="2.11135">
        <ele>128.4</ele>
        <time>2023-12-14T10:25:59Z</time>
      </trkpt>
      <trkpt lat="48.32734" lon="2.11141">
        <ele>128</ele>
        <time>2023-12-14T10:26:00Z</time>
      </trkpt>
      <trkpt lat="48.32738" lon="2.11148">
        <ele>128</ele>
        <time>2023-12-14T10:26:01Z</time>
      </trkpt>
      <trkpt lat="48.32741" lon="2.11156">
        <ele>128</ele>
        <time>2023-12-14T10:26:02Z</time>
      </trkpt>
      <trkpt lat="48.32745" lon="2.11163">
        <ele>128</ele>
        <time>2023-12-14T10:26:03Z</time>
      </trkpt>
      <trkpt lat="48.32749" lon="2.1117">
        <ele>126.8</ele>
        <time>2023-12-14T10:26:04Z</time>
      </trkpt>
      <trkpt lat="48.32752" lon="2.11178">
        <ele>126.8</ele>
        <time>2023-12-14T10:26:05Z</time>
      </trkpt>
      <trkpt lat="48.32756" lon="2.11185">
        <ele>126.8</ele>
        <time>2023-12-14T10:26:06Z</time>
      </trkpt>
      <trkpt lat="48.3276" lon="2.11193">
        <ele>126.8</ele>
        <time>2023-12-14T10:26:07Z</time>
      </trkpt>
      <trkpt lat="48.32764" lon="2.112">
        <ele>127</ele>
        <time>2023-12-14T10:26:08Z</time>
      </trkpt>
      <trkpt lat="48.32768" lon="2.11208">
        <ele>127</ele>
        <time>2023-12-14T10:26:09Z</time>
      </trkpt>
      <trkpt lat="48.32771" lon="2.11216">
        <ele>127</ele>
        <time>2023-12-14T10:26:10Z</time>
      </trkpt>
      <trkpt lat="48.32775" lon="2.11223">
        <ele>126</ele>
        <time>2023-12-14T10:26:11Z</time>
      </trkpt>
      <trkpt lat="48.32779" lon="2.11231">
        <ele>126</ele>
        <time>2023-12-14T10:26:12Z</time>
      </trkpt>
      <trkpt lat="48.32783" lon="2.11239">
        <ele>126</ele>
        <time>2023-12-14T10:26:13Z</time>
      </trkpt>
      <trkpt lat="48.32787" lon="2.11247">
        <ele>126</ele>
        <time>2023-12-14T10:26:14Z</time>
      </trkpt>
      <trkpt lat="48.32791" lon="2.11255">
        <ele>125</ele>
        <time>2023-12-14T10:26:15Z</time>
      </trkpt>
      <trkpt lat="48.32795" lon="2.11263">
        <ele>124.6</ele>
        <time>2023-12-14T10:26:16Z</time>
      </trkpt>
      <trkpt lat="48.32799" lon="2.1127">
        <ele>124.6</ele>
        <time>2023-12-14T10:26:17Z</time>
      </trkpt>
      <trkpt lat="48.32803" lon="2.11278">
        <ele>124.6</ele>
        <time>2023-12-14T10:26:18Z</time>
      </trkpt>
      <trkpt lat="48.32807" lon="2.11286">
        <ele>124.6</ele>
        <time>2023-12-14T10:26:19Z</time>
      </trkpt>
      <trkpt lat="48.32811" lon="2.11294">
        <ele>125.6</ele>
        <time>2023-12-14T10:26:20Z</time>
      </trkpt>
      <trkpt lat="48.32815" lon="2.11302">
        <ele>125.6</ele>
        <time>2023-12-14T10:26:21Z</time>
      </trkpt>
      <trkpt lat="48.32819" lon="2.1131">
        <ele>125.6</ele>
        <time>2023-12-14T10:26:22Z</time>
      </trkpt>
      <trkpt lat="48.32823" lon="2.11318">
        <ele>124.8</ele>
        <time>2023-12-14T10:26:23Z</time>
      </trkpt>
      <trkpt lat="48.32827" lon="2.11325">
        <ele>125.2</ele>
        <time>2023-12-14T10:26:24Z</time>
      </trkpt>
      <trkpt lat="48.32831" lon="2.11333">
        <ele>125.2</ele>
        <time>2023-12-14T10:26:25Z</time>
      </trkpt>
      <trkpt lat="48.32834" lon="2.11341">
        <ele>125.2</ele>
        <time>2023-12-14T10:26:26Z</time>
      </trkpt>
      <trkpt lat="48.32838" lon="2.11349">
        <ele>124.6</ele>
        <time>2023-12-14T10:26:27Z</time>
      </trkpt>
      <trkpt lat="48.32842" lon="2.11356">
        <ele>124.8</ele>
        <time>2023-12-14T10:26:28Z</time>
      </trkpt>
      <trkpt lat="48.32846" lon="2.11364">
        <ele>124.8</ele>
        <time>2023-12-14T10:26:29Z</time>
      </trkpt>
      <trkpt lat="48.3285" lon="2.11372">
        <ele>124.8</ele>
        <time>2023-12-14T10:26:30Z</time>
      </trkpt>
      <trkpt lat="48.32853" lon="2.11379">
        <ele>124.8</ele>
        <time>2023-12-14T10:26:31Z</time>
      </trkpt>
      <trkpt lat="48.32857" lon="2.11386">
        <ele>125.8</ele>
        <time>2023-12-14T10:26:32Z</time>
      </trkpt>
      <trkpt lat="48.32861" lon="2.11394">
        <ele>125.8</ele>
        <time>2023-12-14T10:26:33Z</time>
      </trkpt>
      <trkpt lat="48.32865" lon="2.11401">
        <ele>125.8</ele>
        <time>2023-12-14T10:26:34Z</time>
      </trkpt>
      <trkpt lat="48.32869" lon="2.11409">
        <ele>126.2</ele>
        <time>2023-12-14T10:26:35Z</time>
      </trkpt>
      <trkpt lat="48.32872" lon="2.11416">
        <ele>126.6</ele>
        <time>2023-12-14T10:26:36Z</time>
      </trkpt>
      <trkpt lat="48.32876" lon="2.11424">
        <ele>126.6</ele>
        <time>2023-12-14T10:26:37Z</time>
      </trkpt>
      <trkpt lat="48.3288" lon="2.11431">
        <ele>126.6</ele>
        <time>2023-12-14T10:26:38Z</time>
      </trkpt>
      <trkpt lat="48.32884" lon="2.11439">
        <ele>127</ele>
        <time>2023-12-14T10:26:39Z</time>
      </trkpt>
      <trkpt lat="48.32888" lon="2.11447">
        <ele>126.4</ele>
        <time>2023-12-14T10:26:40Z</time>
      </trkpt>
      <trkpt lat="48.32892" lon="2.11454">
        <ele>126.4</ele>
        <time>2023-12-14T10:26:41Z</time>
      </trkpt>
      <trkpt lat="48.32896" lon="2.11462">
        <ele>126.4</ele>
        <time>2023-12-14T10:26:42Z</time>
      </trkpt>
      <trkpt lat="48.32899" lon="2.11469">
        <ele>127</ele>
        <time>2023-12-14T10:26:43Z</time>
      </trkpt>
      <trkpt lat="48.32903" lon="2.11477">
        <ele>126.4</ele>
        <time>2023-12-14T10:26:44Z</time>
      </trkpt>
      <trkpt lat="48.32907" lon="2.11484">
        <ele>126.4</ele>
        <time>2023-12-14T10:26:45Z</time>
      </trkpt>
      <trkpt lat="48.32911" lon="2.11492">
        <ele>126.4</ele>
        <time>2023-12-14T10:26:46Z</time>
      </trkpt>
      <trkpt lat="48.32914" lon="2.11499">
        <ele>126.6</ele>
        <time>2023-12-14T10:26:47Z</time>
      </trkpt>
      <trkpt lat="48.32918" lon="2.11507">
        <ele>127</ele>
        <time>2023-12-14T10:26:48Z</time>
      </trkpt>
      <trkpt lat="48.32922" lon="2.11514">
        <ele>127</ele>
        <time>2023-12-14T10:26:49Z</time>
      </trkpt>
      <trkpt lat="48.32925" lon="2.11521">
        <ele>127</ele>
        <time>2023-12-14T10:26:50Z</time>
      </trkpt>
      <trkpt lat="48.32929" lon="2.11529">
        <ele>127.2</ele>
        <time>2023-12-14T10:26:51Z</time>
      </trkpt>
      <trkpt lat="48.32933" lon="2.11536">
        <ele>127.8</ele>
        <time>2023-12-14T10:26:52Z</time>
      </trkpt>
      <trkpt lat="48.32936" lon="2.11543">
        <ele>127.8</ele>
        <time>2023-12-14T10:26:53Z</time>
      </trkpt>
      <trkpt lat="48.3294" lon="2.1155">
        <ele>127.8</ele>
        <time>2023-12-14T10:26:54Z</time>
      </trkpt>
      <trkpt lat="48.32944" lon="2.11558">
        <ele>127</ele>
        <time>2023-12-14T10:26:55Z</time>
      </trkpt>
      <trkpt lat="48.32947" lon="2.11565">
        <ele>127.2</ele>
        <time>2023-12-14T10:26:56Z</time>
      </trkpt>
      <trkpt lat="48.32951" lon="2.11573">
        <ele>127.2</ele>
        <time>2023-12-14T10:26:57Z</time>
      </trkpt>
      <trkpt lat="48.32955" lon="2.1158">
        <ele>127.2</ele>
        <time>2023-12-14T10:26:58Z</time>
      </trkpt>
      <trkpt lat="48.32958" lon="2.11587">
        <ele>127.2</ele>
        <time>2023-12-14T10:26:59Z</time>
      </trkpt>
      <trkpt lat="48.32962" lon="2.11595">
        <ele>127.8</ele>
        <time>2023-12-14T10:27:00Z</time>
      </trkpt>
      <trkpt lat="48.32966" lon="2.11602">
        <ele>127.8</ele>
        <time>2023-12-14T10:27:01Z</time>
      </trkpt>
      <trkpt lat="48.3297" lon="2.11609">
        <ele>127.8</ele>
        <time>2023-12-14T10:27:02Z</time>
      </trkpt>
      <trkpt lat="48.32973" lon="2.11617">
        <ele>127.8</ele>
        <time>2023-12-14T10:27:03Z</time>
      </trkpt>
      <trkpt lat="48.32977" lon="2.11624">
        <ele>128</ele>
        <time>2023-12-14T10:27:04Z</time>
      </trkpt>
      <trkpt lat="48.32981" lon="2.11632">
        <ele>128</ele>
        <time>2023-12-14T10:27:05Z</time>
      </trkpt>
      <trkpt lat="48.32985" lon="2.11639">
        <ele>128</ele>
        <time>2023-12-14T10:27:06Z</time>
      </trkpt>
      <trkpt lat="48.32989" lon="2.11647">
        <ele>127</ele>
        <time>2023-12-14T10:27:07Z</time>
      </trkpt>
      <trkpt lat="48.32992" lon="2.11654">
        <ele>127.4</ele>
        <time>2023-12-14T10:27:08Z</time>
      </trkpt>
      <trkpt lat="48.32996" lon="2.11662">
        <ele>127.4</ele>
        <time>2023-12-14T10:27:09Z</time>
      </trkpt>
      <trkpt lat="48.33" lon="2.11669">
        <ele>127.4</ele>
        <time>2023-12-14T10:27:10Z</time>
      </trkpt>
      <trkpt lat="48.33004" lon="2.11677">
        <ele>127.4</ele>
        <time>2023-12-14T10:27:11Z</time>
      </trkpt>
      <trkpt lat="48.33007" lon="2.11684">
        <ele>127.8</ele>
        <time>2023-12-14T10:27:12Z</time>
      </trkpt>
      <trkpt lat="48.33011" lon="2.11691">
        <ele>127.8</ele>
        <time>2023-12-14T10:27:13Z</time>
      </trkpt>
      <trkpt lat="48.33015" lon="2.11699">
        <ele>127.8</ele>
        <time>2023-12-14T10:27:14Z</time>
      </trkpt>
      <trkpt lat="48.33019" lon="2.11707">
        <ele>127</ele>
        <time>2023-12-14T10:27:15Z</time>
      </trkpt>
      <trkpt lat="48.33023" lon="2.11714">
        <ele>127.6</ele>
        <time>2023-12-14T10:27:16Z</time>
      </trkpt>
      <trkpt lat="48.33027" lon="2.11722">
        <ele>127.6</ele>
        <time>2023-12-14T10:27:17Z</time>
      </trkpt>
      <trkpt lat="48.3303" lon="2.11729">
        <ele>127.6</ele>
        <time>2023-12-14T10:27:18Z</time>
      </trkpt>
      <trkpt lat="48.33034" lon="2.11737">
        <ele>127.6</ele>
        <time>2023-12-14T10:27:19Z</time>
      </trkpt>
      <trkpt lat="48.33038" lon="2.11745">
        <ele>127.2</ele>
        <time>2023-12-14T10:27:20Z</time>
      </trkpt>
      <trkpt lat="48.33042" lon="2.11753">
        <ele>127.2</ele>
        <time>2023-12-14T10:27:21Z</time>
      </trkpt>
      <trkpt lat="48.33046" lon="2.1176">
        <ele>127.2</ele>
        <time>2023-12-14T10:27:22Z</time>
      </trkpt>
      <trkpt lat="48.3305" lon="2.11768">
        <ele>127.2</ele>
        <time>2023-12-14T10:27:23Z</time>
      </trkpt>
      <trkpt lat="48.33054" lon="2.11775">
        <ele>127.4</ele>
        <time>2023-12-14T10:27:24Z</time>
      </trkpt>
      <trkpt lat="48.33057" lon="2.11783">
        <ele>127.4</ele>
        <time>2023-12-14T10:27:25Z</time>
      </trkpt>
      <trkpt lat="48.33061" lon="2.1179">
        <ele>127.4</ele>
        <time>2023-12-14T10:27:26Z</time>
      </trkpt>
      <trkpt lat="48.33065" lon="2.11798">
        <ele>128.2</ele>
        <time>2023-12-14T10:27:27Z</time>
      </trkpt>
      <trkpt lat="48.33069" lon="2.11806">
        <ele>128.4</ele>
        <time>2023-12-14T10:27:28Z</time>
      </trkpt>
      <trkpt lat="48.33073" lon="2.11813">
        <ele>128.4</ele>
        <time>2023-12-14T10:27:29Z</time>
      </trkpt>
      <trkpt lat="48.33076" lon="2.11821">
        <ele>128.4</ele>
        <time>2023-12-14T10:27:30Z</time>
      </trkpt>
      <trkpt lat="48.3308" lon="2.11829">
        <ele>127.4</ele>
        <time>2023-12-14T10:27:31Z</time>
      </trkpt>
      <trkpt lat="48.33084" lon="2.11836">
        <ele>127.4</ele>
        <time>2023-12-14T10:27:32Z</time>
      </trkpt>
      <trkpt lat="48.33088" lon="2.11844">
        <ele>127.4</ele>
        <time>2023-12-14T10:27:33Z</time>
      </trkpt>
      <trkpt lat="48.33092" lon="2.11851">
        <ele>127.4</ele>
        <time>2023-12-14T10:27:34Z</time>
      </trkpt>
      <trkpt lat="48.33096" lon="2.11859">
        <ele>127.4</ele>
        <time>2023-12-14T10:27:35Z</time>
      </trkpt>
      <trkpt lat="48.33099" lon="2.11866">
        <ele>128</ele>
        <time>2023-12-14T10:27:36Z</time>
      </trkpt>
      <trkpt lat="48.33103" lon="2.11874">
        <ele>128</ele>
        <time>2023-12-14T10:27:37Z</time>
      </trkpt>
      <trkpt lat="48.33107" lon="2.11881">
        <ele>128</ele>
        <time>2023-12-14T10:27:38Z</time>
      </trkpt>
      <trkpt lat="48.33111" lon="2.11889">
        <ele>128</ele>
        <time>2023-12-14T10:27:39Z</time>
      </trkpt>
      <trkpt lat="48.33114" lon="2.11896">
        <ele>128</ele>
        <time>2023-12-14T10:27:40Z</time>
      </trkpt>
      <trkpt lat="48.33118" lon="2.11904">
        <ele>128</ele>
        <time>2023-12-14T10:27:41Z</time>
      </trkpt>
      <trkpt lat="48.33122" lon="2.11911">
        <ele>128</ele>
        <time>2023-12-14T10:27:42Z</time>
      </trkpt>
      <trkpt lat="48.33126" lon="2.11919">
        <ele>128</ele>
        <time>2023-12-14T10:27:43Z</time>
      </trkpt>
      <trkpt lat="48.33129" lon="2.11926">
        <ele>127.8</ele>
        <time>2023-12-14T10:27:44Z</time>
      </trkpt>
      <trkpt lat="48.33133" lon="2.11934">
        <ele>127.8</ele>
        <time>2023-12-14T10:27:45Z</time>
      </trkpt>
      <trkpt lat="48.33137" lon="2.11941">
        <ele>127.8</ele>
        <time>2023-12-14T10:27:46Z</time>
      </trkpt>
      <trkpt lat="48.3314" lon="2.11948">
        <ele>128.2</ele>
        <time>2023-12-14T10:27:47Z</time>
      </trkpt>
      <trkpt lat="48.33144" lon="2.11956">
        <ele>128.2</ele>
        <time>2023-12-14T10:27:48Z</time>
      </trkpt>
      <trkpt lat="48.33148" lon="2.11963">
        <ele>128.2</ele>
        <time>2023-12-14T10:27:49Z</time>
      </trkpt>
      <trkpt lat="48.33151" lon="2.1197">
        <ele>128.2</ele>
        <time>2023-12-14T10:27:50Z</time>
      </trkpt>
      <trkpt lat="48.33155" lon="2.11977">
        <ele>128.6</ele>
        <time>2023-12-14T10:27:51Z</time>
      </trkpt>
      <trkpt lat="48.33159" lon="2.11984">
        <ele>128.8</ele>
        <time>2023-12-14T10:27:52Z</time>
      </trkpt>
      <trkpt lat="48.33163" lon="2.11992">
        <ele>128.8</ele>
        <time>2023-12-14T10:27:53Z</time>
      </trkpt>
      <trkpt lat="48.33166" lon="2.11999">
        <ele>128.8</ele>
        <time>2023-12-14T10:27:54Z</time>
      </trkpt>
      <trkpt lat="48.3317" lon="2.12006">
        <ele>128.8</ele>
        <time>2023-12-14T10:27:55Z</time>
      </trkpt>
      <trkpt lat="48.33174" lon="2.12014">
        <ele>129.2</ele>
        <time>2023-12-14T10:27:56Z</time>
      </trkpt>
      <trkpt lat="48.33177" lon="2.12021">
        <ele>129.2</ele>
        <time>2023-12-14T10:27:57Z</time>
      </trkpt>
      <trkpt lat="48.33181" lon="2.12028">
        <ele>129.2</ele>
        <time>2023-12-14T10:27:58Z</time>
      </trkpt>
      <trkpt lat="48.33184" lon="2.12036">
        <ele>129.2</ele>
        <time>2023-12-14T10:27:59Z</time>
      </trkpt>
      <trkpt lat="48.33188" lon="2.12043">
        <ele>128.8</ele>
        <time>2023-12-14T10:28:00Z</time>
      </trkpt>
      <trkpt lat="48.33192" lon="2.1205">
        <ele>128.8</ele>
        <time>2023-12-14T10:28:01Z</time>
      </trkpt>
      <trkpt lat="48.33195" lon="2.12058">
        <ele>128.8</ele>
        <time>2023-12-14T10:28:02Z</time>
      </trkpt>
      <trkpt lat="48.33199" lon="2.12065">
        <ele>128.8</ele>
        <time>2023-12-14T10:28:03Z</time>
      </trkpt>
      <trkpt lat="48.33202" lon="2.12072">
        <ele>128.6</ele>
        <time>2023-12-14T10:28:04Z</time>
      </trkpt>
      <trkpt lat="48.33206" lon="2.12079">
        <ele>128.6</ele>
        <time>2023-12-14T10:28:05Z</time>
      </trkpt>
      <trkpt lat="48.33209" lon="2.12086">
        <ele>128.6</ele>
        <time>2023-12-14T10:28:06Z</time>
      </trkpt>
      <trkpt lat="48.33213" lon="2.12093">
        <ele>129.2</ele>
        <time>2023-12-14T10:28:07Z</time>
      </trkpt>
      <trkpt lat="48.33216" lon="2.121">
        <ele>129.8</ele>
        <time>2023-12-14T10:28:08Z</time>
      </trkpt>
      <trkpt lat="48.3322" lon="2.12107">
        <ele>129.8</ele>
        <time>2023-12-14T10:28:09Z</time>
      </trkpt>
      <trkpt lat="48.33224" lon="2.12114">
        <ele>129.8</ele>
        <time>2023-12-14T10:28:10Z</time>
      </trkpt>
      <trkpt lat="48.33227" lon="2.12121">
        <ele>128.8</ele>
        <time>2023-12-14T10:28:11Z</time>
      </trkpt>
      <trkpt lat="48.33231" lon="2.12128">
        <ele>128.6</ele>
        <time>2023-12-14T10:28:12Z</time>
      </trkpt>
      <trkpt lat="48.33234" lon="2.12135">
        <ele>128.6</ele>
        <time>2023-12-14T10:28:13Z</time>
      </trkpt>
      <trkpt lat="48.33238" lon="2.12142">
        <ele>128.6</ele>
        <time>2023-12-14T10:28:14Z</time>
      </trkpt>
      <trkpt lat="48.33241" lon="2.1215">
        <ele>128.6</ele>
        <time>2023-12-14T10:28:15Z</time>
      </trkpt>
      <trkpt lat="48.33245" lon="2.12157">
        <ele>128.4</ele>
        <time>2023-12-14T10:28:16Z</time>
      </trkpt>
      <trkpt lat="48.33249" lon="2.12164">
        <ele>128.4</ele>
        <time>2023-12-14T10:28:17Z</time>
      </trkpt>
      <trkpt lat="48.33252" lon="2.12171">
        <ele>128.4</ele>
        <time>2023-12-14T10:28:18Z</time>
      </trkpt>
      <trkpt lat="48.33254" lon="2.12178">
        <ele>129.4</ele>
        <time>2023-12-14T10:28:19Z</time>
      </trkpt>
      <trkpt lat="48.33256" lon="2.12186">
        <ele>130</ele>
        <time>2023-12-14T10:28:20Z</time>
      </trkpt>
      <trkpt lat="48.33258" lon="2.12194">
        <ele>130</ele>
        <time>2023-12-14T10:28:21Z</time>
      </trkpt>
      <trkpt lat="48.33261" lon="2.12201">
        <ele>130</ele>
        <time>2023-12-14T10:28:22Z</time>
      </trkpt>
      <trkpt lat="48.33264" lon="2.12207">
        <ele>130</ele>
        <time>2023-12-14T10:28:23Z</time>
      </trkpt>
      <trkpt lat="48.33268" lon="2.12211">
        <ele>128.6</ele>
        <time>2023-12-14T10:28:24Z</time>
      </trkpt>
      <trkpt lat="48.33273" lon="2.12214">
        <ele>128.6</ele>
        <time>2023-12-14T10:28:25Z</time>
      </trkpt>
      <trkpt lat="48.33278" lon="2.12215">
        <ele>128.6</ele>
        <time>2023-12-14T10:28:26Z</time>
      </trkpt>
      <trkpt lat="48.33283" lon="2.12217">
        <ele>128.2</ele>
        <time>2023-12-14T10:28:27Z</time>
      </trkpt>
      <trkpt lat="48.33288" lon="2.12219">
        <ele>128.2</ele>
        <time>2023-12-14T10:28:28Z</time>
      </trkpt>
      <trkpt lat="48.33293" lon="2.12221">
        <ele>128.2</ele>
        <time>2023-12-14T10:28:29Z</time>
      </trkpt>
      <trkpt lat="48.33298" lon="2.12223">
        <ele>128.2</ele>
        <time>2023-12-14T10:28:30Z</time>
      </trkpt>
      <trkpt lat="48.33303" lon="2.12225">
        <ele>128.2</ele>
        <time>2023-12-14T10:28:31Z</time>
      </trkpt>
      <trkpt lat="48.33308" lon="2.12228">
        <ele>127.8</ele>
        <time>2023-12-14T10:28:32Z</time>
      </trkpt>
      <trkpt lat="48.33314" lon="2.1223">
        <ele>127.8</ele>
        <time>2023-12-14T10:28:33Z</time>
      </trkpt>
      <trkpt lat="48.33319" lon="2.12233">
        <ele>127.8</ele>
        <time>2023-12-14T10:28:34Z</time>
      </trkpt>
      <trkpt lat="48.33324" lon="2.12235">
        <ele>128</ele>
        <time>2023-12-14T10:28:35Z</time>
      </trkpt>
      <trkpt lat="48.33329" lon="2.12238">
        <ele>128.6</ele>
        <time>2023-12-14T10:28:36Z</time>
      </trkpt>
      <trkpt lat="48.33334" lon="2.1224">
        <ele>128.6</ele>
        <time>2023-12-14T10:28:37Z</time>
      </trkpt>
      <trkpt lat="48.3334" lon="2.12243">
        <ele>128.6</ele>
        <time>2023-12-14T10:28:38Z</time>
      </trkpt>
      <trkpt lat="48.33345" lon="2.12245">
        <ele>127.8</ele>
        <time>2023-12-14T10:28:39Z</time>
      </trkpt>
      <trkpt lat="48.3335" lon="2.12248">
        <ele>127.6</ele>
        <time>2023-12-14T10:28:40Z</time>
      </trkpt>
      <trkpt lat="48.33356" lon="2.1225">
        <ele>127.6</ele>
        <time>2023-12-14T10:28:41Z</time>
      </trkpt>
      <trkpt lat="48.33361" lon="2.12253">
        <ele>127.6</ele>
        <time>2023-12-14T10:28:42Z</time>
      </trkpt>
      <trkpt lat="48.33367" lon="2.12255">
        <ele>127.6</ele>
        <time>2023-12-14T10:28:43Z</time>
      </trkpt>
      <trkpt lat="48.33372" lon="2.12258">
        <ele>127.2</ele>
        <time>2023-12-14T10:28:44Z</time>
      </trkpt>
      <trkpt lat="48.33377" lon="2.12261">
        <ele>127.2</ele>
        <time>2023-12-14T10:28:45Z</time>
      </trkpt>
      <trkpt lat="48.33383" lon="2.12264">
        <ele>127.2</ele>
        <time>2023-12-14T10:28:46Z</time>
      </trkpt>
      <trkpt lat="48.33389" lon="2.12266">
        <ele>127.2</ele>
        <time>2023-12-14T10:28:47Z</time>
      </trkpt>
      <trkpt lat="48.33394" lon="2.12268">
        <ele>128.2</ele>
        <time>2023-12-14T10:28:48Z</time>
      </trkpt>
      <trkpt lat="48.334" lon="2.1227">
        <ele>128.2</ele>
        <time>2023-12-14T10:28:49Z</time>
      </trkpt>
      <trkpt lat="48.33405" lon="2.12272">
        <ele>128.2</ele>
        <time>2023-12-14T10:28:50Z</time>
      </trkpt>
      <trkpt lat="48.33411" lon="2.12274">
        <ele>127.2</ele>
        <time>2023-12-14T10:28:51Z</time>
      </trkpt>
      <trkpt lat="48.33416" lon="2.12276">
        <ele>127.4</ele>
        <time>2023-12-14T10:28:52Z</time>
      </trkpt>
      <trkpt lat="48.33422" lon="2.12277">
        <ele>127.4</ele>
        <time>2023-12-14T10:28:53Z</time>
      </trkpt>
      <trkpt lat="48.33428" lon="2.12277">
        <ele>127.4</ele>
        <time>2023-12-14T10:28:54Z</time>
      </trkpt>
      <trkpt lat="48.33433" lon="2.1228">
        <ele>127.4</ele>
        <time>2023-12-14T10:28:55Z</time>
      </trkpt>
      <trkpt lat="48.33438" lon="2.12284">
        <ele>129</ele>
        <time>2023-12-14T10:28:56Z</time>
      </trkpt>
      <trkpt lat="48.33442" lon="2.1229">
        <ele>129</ele>
        <time>2023-12-14T10:28:57Z</time>
      </trkpt>
      <trkpt lat="48.33447" lon="2.12295">
        <ele>129</ele>
        <time>2023-12-14T10:28:58Z</time>
      </trkpt>
      <trkpt lat="48.33452" lon="2.12299">
        <ele>128</ele>
        <time>2023-12-14T10:28:59Z</time>
      </trkpt>
      <trkpt lat="48.33457" lon="2.12302">
        <ele>127.6</ele>
        <time>2023-12-14T10:29:00Z</time>
      </trkpt>
      <trkpt lat="48.33463" lon="2.12305">
        <ele>127.6</ele>
        <time>2023-12-14T10:29:01Z</time>
      </trkpt>
      <trkpt lat="48.33469" lon="2.12308">
        <ele>127.6</ele>
        <time>2023-12-14T10:29:02Z</time>
      </trkpt>
      <trkpt lat="48.33474" lon="2.12311">
        <ele>127.6</ele>
        <time>2023-12-14T10:29:03Z</time>
      </trkpt>
      <trkpt lat="48.3348" lon="2.12313">
        <ele>126.8</ele>
        <time>2023-12-14T10:29:04Z</time>
      </trkpt>
      <trkpt lat="48.33486" lon="2.12316">
        <ele>126.8</ele>
        <time>2023-12-14T10:29:05Z</time>
      </trkpt>
      <trkpt lat="48.33491" lon="2.12319">
        <ele>126.8</ele>
        <time>2023-12-14T10:29:06Z</time>
      </trkpt>
      <trkpt lat="48.33496" lon="2.12321">
        <ele>127.2</ele>
        <time>2023-12-14T10:29:07Z</time>
      </trkpt>
      <trkpt lat="48.33502" lon="2.12324">
        <ele>127</ele>
        <time>2023-12-14T10:29:08Z</time>
      </trkpt>
      <trkpt lat="48.33507" lon="2.12327">
        <ele>127</ele>
        <time>2023-12-14T10:29:09Z</time>
      </trkpt>
      <trkpt lat="48.33513" lon="2.12329">
        <ele>127</ele>
        <time>2023-12-14T10:29:10Z</time>
      </trkpt>
      <trkpt lat="48.33518" lon="2.12332">
        <ele>126.8</ele>
        <time>2023-12-14T10:29:11Z</time>
      </trkpt>
      <trkpt lat="48.33524" lon="2.12335">
        <ele>126.2</ele>
        <time>2023-12-14T10:29:12Z</time>
      </trkpt>
      <trkpt lat="48.33529" lon="2.12337">
        <ele>126.2</ele>
        <time>2023-12-14T10:29:13Z</time>
      </trkpt>
      <trkpt lat="48.33535" lon="2.1234">
        <ele>126.2</ele>
        <time>2023-12-14T10:29:14Z</time>
      </trkpt>
      <trkpt lat="48.3354" lon="2.12343">
        <ele>126.2</ele>
        <time>2023-12-14T10:29:15Z</time>
      </trkpt>
      <trkpt lat="48.33546" lon="2.12346">
        <ele>127</ele>
        <time>2023-12-14T10:29:16Z</time>
      </trkpt>
      <trkpt lat="48.33551" lon="2.12349">
        <ele>127</ele>
        <time>2023-12-14T10:29:17Z</time>
      </trkpt>
      <trkpt lat="48.33557" lon="2.12352">
        <ele>127</ele>
        <time>2023-12-14T10:29:18Z</time>
      </trkpt>
      <trkpt lat="48.33562" lon="2.12356">
        <ele>126.8</ele>
        <time>2023-12-14T10:29:19Z</time>
      </trkpt>
      <trkpt lat="48.33568" lon="2.12361">
        <ele>127</ele>
        <time>2023-12-14T10:29:20Z</time>
      </trkpt>
      <trkpt lat="48.33573" lon="2.12365">
        <ele>127</ele>
        <time>2023-12-14T10:29:21Z</time>
      </trkpt>
      <trkpt lat="48.33578" lon="2.12371">
        <ele>127</ele>
        <time>2023-12-14T10:29:22Z</time>
      </trkpt>
      <trkpt lat="48.33583" lon="2.12377">
        <ele>127</ele>
        <time>2023-12-14T10:29:23Z</time>
      </trkpt>
      <trkpt lat="48.33588" lon="2.12383">
        <ele>127</ele>
        <time>2023-12-14T10:29:24Z</time>
      </trkpt>
      <trkpt lat="48.33593" lon="2.1239">
        <ele>127</ele>
        <time>2023-12-14T10:29:25Z</time>
      </trkpt>
      <trkpt lat="48.33598" lon="2.12397">
        <ele>127</ele>
        <time>2023-12-14T10:29:26Z</time>
      </trkpt>
      <trkpt lat="48.33603" lon="2.12405">
        <ele>126.2</ele>
        <time>2023-12-14T10:29:27Z</time>
      </trkpt>
      <trkpt lat="48.33608" lon="2.12412">
        <ele>125.8</ele>
        <time>2023-12-14T10:29:28Z</time>
      </trkpt>
      <trkpt lat="48.33613" lon="2.1242">
        <ele>125.8</ele>
        <time>2023-12-14T10:29:29Z</time>
      </trkpt>
      <trkpt lat="48.33618" lon="2.12428">
        <ele>125.8</ele>
        <time>2023-12-14T10:29:30Z</time>
      </trkpt>
      <trkpt lat="48.33623" lon="2.12435">
        <ele>125.4</ele>
        <time>2023-12-14T10:29:31Z</time>
      </trkpt>
      <trkpt lat="48.33628" lon="2.12443">
        <ele>125.6</ele>
        <time>2023-12-14T10:29:32Z</time>
      </trkpt>
      <trkpt lat="48.33633" lon="2.1245">
        <ele>125.6</ele>
        <time>2023-12-14T10:29:33Z</time>
      </trkpt>
      <trkpt lat="48.33639" lon="2.12458">
        <ele>125.6</ele>
        <time>2023-12-14T10:29:34Z</time>
      </trkpt>
      <trkpt lat="48.33644" lon="2.12466">
        <ele>124.8</ele>
        <time>2023-12-14T10:29:35Z</time>
      </trkpt>
      <trkpt lat="48.33649" lon="2.12474">
        <ele>124.4</ele>
        <time>2023-12-14T10:29:36Z</time>
      </trkpt>
      <trkpt lat="48.33654" lon="2.12481">
        <ele>124.4</ele>
        <time>2023-12-14T10:29:37Z</time>
      </trkpt>
      <trkpt lat="48.3366" lon="2.12488">
        <ele>124.4</ele>
        <time>2023-12-14T10:29:38Z</time>
      </trkpt>
      <trkpt lat="48.33665" lon="2.12496">
        <ele>124.4</ele>
        <time>2023-12-14T10:29:39Z</time>
      </trkpt>
      <trkpt lat="48.3367" lon="2.12503">
        <ele>125.2</ele>
        <time>2023-12-14T10:29:40Z</time>
      </trkpt>
      <trkpt lat="48.33675" lon="2.12509">
        <ele>125.2</ele>
        <time>2023-12-14T10:29:41Z</time>
      </trkpt>
      <trkpt lat="48.3368" lon="2.12516">
        <ele>125.2</ele>
        <time>2023-12-14T10:29:42Z</time>
      </trkpt>
      <trkpt lat="48.33685" lon="2.12523">
        <ele>126.2</ele>
        <time>2023-12-14T10:29:43Z</time>
      </trkpt>
      <trkpt lat="48.3369" lon="2.1253">
        <ele>125.2</ele>
        <time>2023-12-14T10:29:44Z</time>
      </trkpt>
      <trkpt lat="48.33695" lon="2.12536">
        <ele>125.2</ele>
        <time>2023-12-14T10:29:45Z</time>
      </trkpt>
      <trkpt lat="48.337" lon="2.12543">
        <ele>125.2</ele>
        <time>2023-12-14T10:29:46Z</time>
      </trkpt>
      <trkpt lat="48.33706" lon="2.1255">
        <ele>125.2</ele>
        <time>2023-12-14T10:29:47Z</time>
      </trkpt>
      <trkpt lat="48.33711" lon="2.12557">
        <ele>126.2</ele>
        <time>2023-12-14T10:29:48Z</time>
      </trkpt>
      <trkpt lat="48.33716" lon="2.12563">
        <ele>126.2</ele>
        <time>2023-12-14T10:29:49Z</time>
      </trkpt>
      <trkpt lat="48.33721" lon="2.1257">
        <ele>126.2</ele>
        <time>2023-12-14T10:29:50Z</time>
      </trkpt>
      <trkpt lat="48.33727" lon="2.12577">
        <ele>125.2</ele>
        <time>2023-12-14T10:29:51Z</time>
      </trkpt>
      <trkpt lat="48.33732" lon="2.12584">
        <ele>124.6</ele>
        <time>2023-12-14T10:29:52Z</time>
      </trkpt>
      <trkpt lat="48.33737" lon="2.1259">
        <ele>124.6</ele>
        <time>2023-12-14T10:29:53Z</time>
      </trkpt>
      <trkpt lat="48.33742" lon="2.12597">
        <ele>124.6</ele>
        <time>2023-12-14T10:29:54Z</time>
      </trkpt>
      <trkpt lat="48.33747" lon="2.12604">
        <ele>124.6</ele>
        <time>2023-12-14T10:29:55Z</time>
      </trkpt>
      <trkpt lat="48.33753" lon="2.1261">
        <ele>125</ele>
        <time>2023-12-14T10:29:56Z</time>
      </trkpt>
      <trkpt lat="48.33758" lon="2.12616">
        <ele>125</ele>
        <time>2023-12-14T10:29:57Z</time>
      </trkpt>
      <trkpt lat="48.33763" lon="2.12623">
        <ele>125</ele>
        <time>2023-12-14T10:29:58Z</time>
      </trkpt>
      <trkpt lat="48.33768" lon="2.1263">
        <ele>125.4</ele>
        <time>2023-12-14T10:29:59Z</time>
      </trkpt>
      <trkpt lat="48.33773" lon="2.12636">
        <ele>126.2</ele>
        <time>2023-12-14T10:30:00Z</time>
      </trkpt>
      <trkpt lat="48.33778" lon="2.12642">
        <ele>126.2</ele>
        <time>2023-12-14T10:30:01Z</time>
      </trkpt>
      <trkpt lat="48.33783" lon="2.12649">
        <ele>126.2</ele>
        <time>2023-12-14T10:30:02Z</time>
      </trkpt>
      <trkpt lat="48.33788" lon="2.12655">
        <ele>125.8</ele>
        <time>2023-12-14T10:30:03Z</time>
      </trkpt>
      <trkpt lat="48.33793" lon="2.12661">
        <ele>126.4</ele>
        <time>2023-12-14T10:30:04Z</time>
      </trkpt>
      <trkpt lat="48.33798" lon="2.12668">
        <ele>126.4</ele>
        <time>2023-12-14T10:30:05Z</time>
      </trkpt>
      <trkpt lat="48.33803" lon="2.12674">
        <ele>126.4</ele>
        <time>2023-12-14T10:30:06Z</time>
      </trkpt>
      <trkpt lat="48.33808" lon="2.1268">
        <ele>126.4</ele>
        <time>2023-12-14T10:30:07Z</time>
      </trkpt>
      <trkpt lat="48.33814" lon="2.12686">
        <ele>126.2</ele>
        <time>2023-12-14T10:30:08Z</time>
      </trkpt>
      <trkpt lat="48.33819" lon="2.12692">
        <ele>126.2</ele>
        <time>2023-12-14T10:30:09Z</time>
      </trkpt>
      <trkpt lat="48.33824" lon="2.12697">
        <ele>126.2</ele>
        <time>2023-12-14T10:30:10Z</time>
      </trkpt>
      <trkpt lat="48.33829" lon="2.12703">
        <ele>126.2</ele>
        <time>2023-12-14T10:30:11Z</time>
      </trkpt>
      <trkpt lat="48.33834" lon="2.12708">
        <ele>126.6</ele>
        <time>2023-12-14T10:30:12Z</time>
      </trkpt>
      <trkpt lat="48.33839" lon="2.12714">
        <ele>126.6</ele>
        <time>2023-12-14T10:30:13Z</time>
      </trkpt>
      <trkpt lat="48.33844" lon="2.12719">
        <ele>126.6</ele>
        <time>2023-12-14T10:30:14Z</time>
      </trkpt>
      <trkpt lat="48.33849" lon="2.12724">
        <ele>126.6</ele>
        <time>2023-12-14T10:30:15Z</time>
      </trkpt>
      <trkpt lat="48.33854" lon="2.12729">
        <ele>126.4</ele>
        <time>2023-12-14T10:30:16Z</time>
      </trkpt>
      <trkpt lat="48.33859" lon="2.12734">
        <ele>126.4</ele>
        <time>2023-12-14T10:30:17Z</time>
      </trkpt>
      <trkpt lat="48.33865" lon="2.12739">
        <ele>126.4</ele>
        <time>2023-12-14T10:30:18Z</time>
      </trkpt>
      <trkpt lat="48.3387" lon="2.12744">
        <ele>126.2</ele>
        <time>2023-12-14T10:30:19Z</time>
      </trkpt>
      <trkpt lat="48.33875" lon="2.12749">
        <ele>126.2</ele>
        <time>2023-12-14T10:30:20Z</time>
      </trkpt>
      <trkpt lat="48.3388" lon="2.12753">
        <ele>126.2</ele>
        <time>2023-12-14T10:30:21Z</time>
      </trkpt>
      <trkpt lat="48.33886" lon="2.12757">
        <ele>126.2</ele>
        <time>2023-12-14T10:30:22Z</time>
      </trkpt>
      <trkpt lat="48.33891" lon="2.12762">
        <ele>126.2</ele>
        <time>2023-12-14T10:30:23Z</time>
      </trkpt>
      <trkpt lat="48.33896" lon="2.12766">
        <ele>126.6</ele>
        <time>2023-12-14T10:30:24Z</time>
      </trkpt>
      <trkpt lat="48.33902" lon="2.12771">
        <ele>126.6</ele>
        <time>2023-12-14T10:30:25Z</time>
      </trkpt>
      <trkpt lat="48.33908" lon="2.12775">
        <ele>126.6</ele>
        <time>2023-12-14T10:30:26Z</time>
      </trkpt>
      <trkpt lat="48.33913" lon="2.12779">
        <ele>126.6</ele>
        <time>2023-12-14T10:30:27Z</time>
      </trkpt>
      <trkpt lat="48.33919" lon="2.12784">
        <ele>126.4</ele>
        <time>2023-12-14T10:30:28Z</time>
      </trkpt>
      <trkpt lat="48.33924" lon="2.12789">
        <ele>126.4</ele>
        <time>2023-12-14T10:30:29Z</time>
      </trkpt>
      <trkpt lat="48.3393" lon="2.12793">
        <ele>126.4</ele>
        <time>2023-12-14T10:30:30Z</time>
      </trkpt>
      <trkpt lat="48.33935" lon="2.12797">
        <ele>126.6</ele>
        <time>2023-12-14T10:30:31Z</time>
      </trkpt>
      <trkpt lat="48.33941" lon="2.12801">
        <ele>126.6</ele>
        <time>2023-12-14T10:30:32Z</time>
      </trkpt>
      <trkpt lat="48.33946" lon="2.12806">
        <ele>126.6</ele>
        <time>2023-12-14T10:30:33Z</time>
      </trkpt>
      <trkpt lat="48.33952" lon="2.1281">
        <ele>126.6</ele>
        <time>2023-12-14T10:30:34Z</time>
      </trkpt>
      <trkpt lat="48.33957" lon="2.12814">
        <ele>126.8</ele>
        <time>2023-12-14T10:30:35Z</time>
      </trkpt>
      <trkpt lat="48.33963" lon="2.12819">
        <ele>126.6</ele>
        <time>2023-12-14T10:30:36Z</time>
      </trkpt>
      <trkpt lat="48.33969" lon="2.12823">
        <ele>126.6</ele>
        <time>2023-12-14T10:30:37Z</time>
      </trkpt>
      <trkpt lat="48.33974" lon="2.12828">
        <ele>126.6</ele>
        <time>2023-12-14T10:30:38Z</time>
      </trkpt>
      <trkpt lat="48.3398" lon="2.12832">
        <ele>126.6</ele>
        <time>2023-12-14T10:30:39Z</time>
      </trkpt>
      <trkpt lat="48.33985" lon="2.12836">
        <ele>126.6</ele>
        <time>2023-12-14T10:30:40Z</time>
      </trkpt>
      <trkpt lat="48.33991" lon="2.12841">
        <ele>126.6</ele>
        <time>2023-12-14T10:30:41Z</time>
      </trkpt>
      <trkpt lat="48.33997" lon="2.12845">
        <ele>126.6</ele>
        <time>2023-12-14T10:30:42Z</time>
      </trkpt>
      <trkpt lat="48.34002" lon="2.12849">
        <ele>127.2</ele>
        <time>2023-12-14T10:30:43Z</time>
      </trkpt>
      <trkpt lat="48.34008" lon="2.12854">
        <ele>127.2</ele>
        <time>2023-12-14T10:30:44Z</time>
      </trkpt>
      <trkpt lat="48.34013" lon="2.12858">
        <ele>127.2</ele>
        <time>2023-12-14T10:30:45Z</time>
      </trkpt>
      <trkpt lat="48.34019" lon="2.12862">
        <ele>127.2</ele>
        <time>2023-12-14T10:30:46Z</time>
      </trkpt>
      <trkpt lat="48.34024" lon="2.12866">
        <ele>127.4</ele>
        <time>2023-12-14T10:30:47Z</time>
      </trkpt>
      <trkpt lat="48.3403" lon="2.12871">
        <ele>128.2</ele>
        <time>2023-12-14T10:30:48Z</time>
      </trkpt>
      <trkpt lat="48.34035" lon="2.12875">
        <ele>128.2</ele>
        <time>2023-12-14T10:30:49Z</time>
      </trkpt>
      <trkpt lat="48.34041" lon="2.12879">
        <ele>128.2</ele>
        <time>2023-12-14T10:30:50Z</time>
      </trkpt>
      <trkpt lat="48.34046" lon="2.12883">
        <ele>127.2</ele>
        <time>2023-12-14T10:30:51Z</time>
      </trkpt>
      <trkpt lat="48.34052" lon="2.12887">
        <ele>127.6</ele>
        <time>2023-12-14T10:30:52Z</time>
      </trkpt>
      <trkpt lat="48.34057" lon="2.12892">
        <ele>127.6</ele>
        <time>2023-12-14T10:30:53Z</time>
      </trkpt>
      <trkpt lat="48.34062" lon="2.12896">
        <ele>127.6</ele>
        <time>2023-12-14T10:30:54Z</time>
      </trkpt>
      <trkpt lat="48.34067" lon="2.12899">
        <ele>127.6</ele>
        <time>2023-12-14T10:30:55Z</time>
      </trkpt>
      <trkpt lat="48.34072" lon="2.12903">
        <ele>128.6</ele>
        <time>2023-12-14T10:30:56Z</time>
      </trkpt>
      <trkpt lat="48.34077" lon="2.12907">
        <ele>128.6</ele>
        <time>2023-12-14T10:30:57Z</time>
      </trkpt>
      <trkpt lat="48.34083" lon="2.12912">
        <ele>128.6</ele>
        <time>2023-12-14T10:30:58Z</time>
      </trkpt>
      <trkpt lat="48.34088" lon="2.12916">
        <ele>128.2</ele>
        <time>2023-12-14T10:30:59Z</time>
      </trkpt>
      <trkpt lat="48.34093" lon="2.1292">
        <ele>128.6</ele>
        <time>2023-12-14T10:31:00Z</time>
      </trkpt>
      <trkpt lat="48.34099" lon="2.12924">
        <ele>128.6</ele>
        <time>2023-12-14T10:31:01Z</time>
      </trkpt>
      <trkpt lat="48.34104" lon="2.12928">
        <ele>128.6</ele>
        <time>2023-12-14T10:31:02Z</time>
      </trkpt>
      <trkpt lat="48.34109" lon="2.12932">
        <ele>128.6</ele>
        <time>2023-12-14T10:31:03Z</time>
      </trkpt>
      <trkpt lat="48.34114" lon="2.12937">
        <ele>128.6</ele>
        <time>2023-12-14T10:31:04Z</time>
      </trkpt>
      <trkpt lat="48.34119" lon="2.12941">
        <ele>128.6</ele>
        <time>2023-12-14T10:31:05Z</time>
      </trkpt>
      <trkpt lat="48.34125" lon="2.12945">
        <ele>128.6</ele>
        <time>2023-12-14T10:31:06Z</time>
      </trkpt>
      <trkpt lat="48.3413" lon="2.12949">
        <ele>128.6</ele>
        <time>2023-12-14T10:31:07Z</time>
      </trkpt>
      <trkpt lat="48.34135" lon="2.12953">
        <ele>129.4</ele>
        <time>2023-12-14T10:31:08Z</time>
      </trkpt>
      <trkpt lat="48.34139" lon="2.12957">
        <ele>129.4</ele>
        <time>2023-12-14T10:31:09Z</time>
      </trkpt>
      <trkpt lat="48.34144" lon="2.12962">
        <ele>129.4</ele>
        <time>2023-12-14T10:31:10Z</time>
      </trkpt>
      <trkpt lat="48.3415" lon="2.12966">
        <ele>129.2</ele>
        <time>2023-12-14T10:31:11Z</time>
      </trkpt>
      <trkpt lat="48.34155" lon="2.12971">
        <ele>127.4</ele>
        <time>2023-12-14T10:31:12Z</time>
      </trkpt>
      <trkpt lat="48.3416" lon="2.12975">
        <ele>127.4</ele>
        <time>2023-12-14T10:31:13Z</time>
      </trkpt>
      <trkpt lat="48.34165" lon="2.1298">
        <ele>127.4</ele>
        <time>2023-12-14T10:31:14Z</time>
      </trkpt>
      <trkpt lat="48.3417" lon="2.12985">
        <ele>127.4</ele>
        <time>2023-12-14T10:31:15Z</time>
      </trkpt>
      <trkpt lat="48.34175" lon="2.1299">
        <ele>128</ele>
        <time>2023-12-14T10:31:16Z</time>
      </trkpt>
      <trkpt lat="48.3418" lon="2.12995">
        <ele>128</ele>
        <time>2023-12-14T10:31:17Z</time>
      </trkpt>
      <trkpt lat="48.34185" lon="2.13">
        <ele>128</ele>
        <time>2023-12-14T10:31:18Z</time>
      </trkpt>
      <trkpt lat="48.3419" lon="2.13006">
        <ele>128</ele>
        <time>2023-12-14T10:31:19Z</time>
      </trkpt>
      <trkpt lat="48.34195" lon="2.13011">
        <ele>127.8</ele>
        <time>2023-12-14T10:31:20Z</time>
      </trkpt>
      <trkpt lat="48.342" lon="2.13016">
        <ele>127.8</ele>
        <time>2023-12-14T10:31:21Z</time>
      </trkpt>
      <trkpt lat="48.34205" lon="2.13022">
        <ele>127.8</ele>
        <time>2023-12-14T10:31:22Z</time>
      </trkpt>
      <trkpt lat="48.3421" lon="2.13027">
        <ele>128.6</ele>
        <time>2023-12-14T10:31:23Z</time>
      </trkpt>
      <trkpt lat="48.34215" lon="2.13033">
        <ele>128.6</ele>
        <time>2023-12-14T10:31:24Z</time>
      </trkpt>
      <trkpt lat="48.3422" lon="2.13038">
        <ele>128.6</ele>
        <time>2023-12-14T10:31:25Z</time>
      </trkpt>
      <trkpt lat="48.34225" lon="2.13044">
        <ele>128.6</ele>
        <time>2023-12-14T10:31:26Z</time>
      </trkpt>
      <trkpt lat="48.34229" lon="2.1305">
        <ele>129.2</ele>
        <time>2023-12-14T10:31:27Z</time>
      </trkpt>
      <trkpt lat="48.34234" lon="2.13055">
        <ele>128.6</ele>
        <time>2023-12-14T10:31:28Z</time>
      </trkpt>
      <trkpt lat="48.34239" lon="2.13061">
        <ele>128.6</ele>
        <time>2023-12-14T10:31:29Z</time>
      </trkpt>
      <trkpt lat="48.34244" lon="2.13066">
        <ele>128.6</ele>
        <time>2023-12-14T10:31:30Z</time>
      </trkpt>
      <trkpt lat="48.34249" lon="2.13072">
        <ele>128.6</ele>
        <time>2023-12-14T10:31:31Z</time>
      </trkpt>
      <trkpt lat="48.34253" lon="2.13078">
        <ele>129</ele>
        <time>2023-12-14T10:31:32Z</time>
      </trkpt>
      <trkpt lat="48.34258" lon="2.13083">
        <ele>129</ele>
        <time>2023-12-14T10:31:33Z</time>
      </trkpt>
      <trkpt lat="48.34263" lon="2.13089">
        <ele>129</ele>
        <time>2023-12-14T10:31:34Z</time>
      </trkpt>
      <trkpt lat="48.34267" lon="2.13095">
        <ele>129.2</ele>
        <time>2023-12-14T10:31:35Z</time>
      </trkpt>
      <trkpt lat="48.34272" lon="2.13101">
        <ele>129.2</ele>
        <time>2023-12-14T10:31:36Z</time>
      </trkpt>
      <trkpt lat="48.34276" lon="2.13107">
        <ele>129.2</ele>
        <time>2023-12-14T10:31:37Z</time>
      </trkpt>
      <trkpt lat="48.34281" lon="2.13114">
        <ele>129.2</ele>
        <time>2023-12-14T10:31:38Z</time>
      </trkpt>
      <trkpt lat="48.34285" lon="2.1312">
        <ele>129.2</ele>
        <time>2023-12-14T10:31:39Z</time>
      </trkpt>
      <trkpt lat="48.34289" lon="2.13126">
        <ele>129.6</ele>
        <time>2023-12-14T10:31:40Z</time>
      </trkpt>
      <trkpt lat="48.34294" lon="2.13132">
        <ele>129.6</ele>
        <time>2023-12-14T10:31:41Z</time>
      </trkpt>
      <trkpt lat="48.34298" lon="2.13139">
        <ele>129.6</ele>
        <time>2023-12-14T10:31:42Z</time>
      </trkpt>
      <trkpt lat="48.34302" lon="2.13145">
        <ele>129.6</ele>
        <time>2023-12-14T10:31:43Z</time>
      </trkpt>
      <trkpt lat="48.34306" lon="2.13152">
        <ele>129.6</ele>
        <time>2023-12-14T10:31:44Z</time>
      </trkpt>
      <trkpt lat="48.34311" lon="2.13158">
        <ele>129.6</ele>
        <time>2023-12-14T10:31:45Z</time>
      </trkpt>
      <trkpt lat="48.34315" lon="2.13165">
        <ele>129.6</ele>
        <time>2023-12-14T10:31:46Z</time>
      </trkpt>
      <trkpt lat="48.34319" lon="2.13171">
        <ele>129.4</ele>
        <time>2023-12-14T10:31:47Z</time>
      </trkpt>
      <trkpt lat="48.34324" lon="2.13178">
        <ele>129.4</ele>
        <time>2023-12-14T10:31:48Z</time>
      </trkpt>
      <trkpt lat="48.34328" lon="2.13184">
        <ele>129.4</ele>
        <time>2023-12-14T10:31:49Z</time>
      </trkpt>
      <trkpt lat="48.34332" lon="2.13191">
        <ele>129.4</ele>
        <time>2023-12-14T10:31:50Z</time>
      </trkpt>
      <trkpt lat="48.34337" lon="2.13198">
        <ele>129.4</ele>
        <time>2023-12-14T10:31:51Z</time>
      </trkpt>
      <trkpt lat="48.34341" lon="2.13204">
        <ele>129.4</ele>
        <time>2023-12-14T10:31:52Z</time>
      </trkpt>
      <trkpt lat="48.34346" lon="2.13211">
        <ele>129.4</ele>
        <time>2023-12-14T10:31:53Z</time>
      </trkpt>
      <trkpt lat="48.3435" lon="2.13218">
        <ele>129.4</ele>
        <time>2023-12-14T10:31:54Z</time>
      </trkpt>
      <trkpt lat="48.34355" lon="2.13225">
        <ele>129.4</ele>
        <time>2023-12-14T10:31:55Z</time>
      </trkpt>
      <trkpt lat="48.34359" lon="2.13232">
        <ele>129.6</ele>
        <time>2023-12-14T10:31:56Z</time>
      </trkpt>
      <trkpt lat="48.34364" lon="2.13239">
        <ele>129.6</ele>
        <time>2023-12-14T10:31:57Z</time>
      </trkpt>
      <trkpt lat="48.34368" lon="2.13246">
        <ele>129.6</ele>
        <time>2023-12-14T10:31:58Z</time>
      </trkpt>
      <trkpt lat="48.34373" lon="2.13253">
        <ele>129</ele>
        <time>2023-12-14T10:31:59Z</time>
      </trkpt>
      <trkpt lat="48.34377" lon="2.1326">
        <ele>128.6</ele>
        <time>2023-12-14T10:32:00Z</time>
      </trkpt>
      <trkpt lat="48.34382" lon="2.13268">
        <ele>128.6</ele>
        <time>2023-12-14T10:32:01Z</time>
      </trkpt>
      <trkpt lat="48.34386" lon="2.13275">
        <ele>128.6</ele>
        <time>2023-12-14T10:32:02Z</time>
      </trkpt>
      <trkpt lat="48.3439" lon="2.13283">
        <ele>128.2</ele>
        <time>2023-12-14T10:32:03Z</time>
      </trkpt>
      <trkpt lat="48.34395" lon="2.1329">
        <ele>128.6</ele>
        <time>2023-12-14T10:32:04Z</time>
      </trkpt>
      <trkpt lat="48.34399" lon="2.13298">
        <ele>128.6</ele>
        <time>2023-12-14T10:32:05Z</time>
      </trkpt>
      <trkpt lat="48.34403" lon="2.13305">
        <ele>128.6</ele>
        <time>2023-12-14T10:32:06Z</time>
      </trkpt>
      <trkpt lat="48.34407" lon="2.13313">
        <ele>128.6</ele>
        <time>2023-12-14T10:32:07Z</time>
      </trkpt>
      <trkpt lat="48.34411" lon="2.13321">
        <ele>128.8</ele>
        <time>2023-12-14T10:32:08Z</time>
      </trkpt>
      <trkpt lat="48.34415" lon="2.13329">
        <ele>128.8</ele>
        <time>2023-12-14T10:32:09Z</time>
      </trkpt>
      <trkpt lat="48.34419" lon="2.13337">
        <ele>128.8</ele>
        <time>2023-12-14T10:32:10Z</time>
      </trkpt>
      <trkpt lat="48.34423" lon="2.13345">
        <ele>128.8</ele>
        <time>2023-12-14T10:32:11Z</time>
      </trkpt>
      <trkpt lat="48.34427" lon="2.13353">
        <ele>129</ele>
        <time>2023-12-14T10:32:12Z</time>
      </trkpt>
      <trkpt lat="48.34431" lon="2.13361">
        <ele>129</ele>
        <time>2023-12-14T10:32:13Z</time>
      </trkpt>
      <trkpt lat="48.34435" lon="2.13368">
        <ele>129</ele>
        <time>2023-12-14T10:32:14Z</time>
      </trkpt>
      <trkpt lat="48.34439" lon="2.13376">
        <ele>128.6</ele>
        <time>2023-12-14T10:32:15Z</time>
      </trkpt>
      <trkpt lat="48.34443" lon="2.13384">
        <ele>128.8</ele>
        <time>2023-12-14T10:32:16Z</time>
      </trkpt>
      <trkpt lat="48.34447" lon="2.13392">
        <ele>128.8</ele>
        <time>2023-12-14T10:32:17Z</time>
      </trkpt>
      <trkpt lat="48.34451" lon="2.134">
        <ele>128.8</ele>
        <time>2023-12-14T10:32:18Z</time>
      </trkpt>
      <trkpt lat="48.34455" lon="2.13407">
        <ele>128.4</ele>
        <time>2023-12-14T10:32:19Z</time>
      </trkpt>
      <trkpt lat="48.34459" lon="2.13415">
        <ele>128.8</ele>
        <time>2023-12-14T10:32:20Z</time>
      </trkpt>
      <trkpt lat="48.34463" lon="2.13422">
        <ele>128.8</ele>
        <time>2023-12-14T10:32:21Z</time>
      </trkpt>
      <trkpt lat="48.34467" lon="2.1343">
        <ele>128.8</ele>
        <time>2023-12-14T10:32:22Z</time>
      </trkpt>
      <trkpt lat="48.34471" lon="2.13437">
        <ele>128.8</ele>
        <time>2023-12-14T10:32:23Z</time>
      </trkpt>
      <trkpt lat="48.34475" lon="2.13445">
        <ele>128.8</ele>
        <time>2023-12-14T10:32:24Z</time>
      </trkpt>
      <trkpt lat="48.34479" lon="2.13453">
        <ele>128.8</ele>
        <time>2023-12-14T10:32:25Z</time>
      </trkpt>
      <trkpt lat="48.34483" lon="2.13461">
        <ele>128.8</ele>
        <time>2023-12-14T10:32:26Z</time>
      </trkpt>
      <trkpt lat="48.34487" lon="2.13469">
        <ele>128.8</ele>
        <time>2023-12-14T10:32:27Z</time>
      </trkpt>
      <trkpt lat="48.34491" lon="2.13476">
        <ele>129</ele>
        <time>2023-12-14T10:32:28Z</time>
      </trkpt>
      <trkpt lat="48.34495" lon="2.13484">
        <ele>129</ele>
        <time>2023-12-14T10:32:29Z</time>
      </trkpt>
      <trkpt lat="48.345" lon="2.13492">
        <ele>129</ele>
        <time>2023-12-14T10:32:30Z</time>
      </trkpt>
      <trkpt lat="48.34504" lon="2.135">
        <ele>128.6</ele>
        <time>2023-12-14T10:32:31Z</time>
      </trkpt>
      <trkpt lat="48.34508" lon="2.13508">
        <ele>128.8</ele>
        <time>2023-12-14T10:32:32Z</time>
      </trkpt>
      <trkpt lat="48.34513" lon="2.13515">
        <ele>128.8</ele>
        <time>2023-12-14T10:32:33Z</time>
      </trkpt>
      <trkpt lat="48.34517" lon="2.13523">
        <ele>128.8</ele>
        <time>2023-12-14T10:32:34Z</time>
      </trkpt>
      <trkpt lat="48.34522" lon="2.1353">
        <ele>128.8</ele>
        <time>2023-12-14T10:32:35Z</time>
      </trkpt>
      <trkpt lat="48.34526" lon="2.13538">
        <ele>128.6</ele>
        <time>2023-12-14T10:32:36Z</time>
      </trkpt>
      <trkpt lat="48.34531" lon="2.13545">
        <ele>128.6</ele>
        <time>2023-12-14T10:32:37Z</time>
      </trkpt>
      <trkpt lat="48.34535" lon="2.13553">
        <ele>128.6</ele>
        <time>2023-12-14T10:32:38Z</time>
      </trkpt>
      <trkpt lat="48.34539" lon="2.1356">
        <ele>127.6</ele>
        <time>2023-12-14T10:32:39Z</time>
      </trkpt>
      <trkpt lat="48.34544" lon="2.13567">
        <ele>127.4</ele>
        <time>2023-12-14T10:32:40Z</time>
      </trkpt>
      <trkpt lat="48.34549" lon="2.13575">
        <ele>127.4</ele>
        <time>2023-12-14T10:32:41Z</time>
      </trkpt>
      <trkpt lat="48.34553" lon="2.13582">
        <ele>127.4</ele>
        <time>2023-12-14T10:32:42Z</time>
      </trkpt>
      <trkpt lat="48.34557" lon="2.13589">
        <ele>128</ele>
        <time>2023-12-14T10:32:43Z</time>
      </trkpt>
      <trkpt lat="48.34562" lon="2.13597">
        <ele>128.8</ele>
        <time>2023-12-14T10:32:44Z</time>
      </trkpt>
      <trkpt lat="48.34566" lon="2.13604">
        <ele>128.8</ele>
        <time>2023-12-14T10:32:45Z</time>
      </trkpt>
      <trkpt lat="48.34571" lon="2.13611">
        <ele>128.8</ele>
        <time>2023-12-14T10:32:46Z</time>
      </trkpt>
      <trkpt lat="48.34576" lon="2.13619">
        <ele>128.8</ele>
        <time>2023-12-14T10:32:47Z</time>
      </trkpt>
      <trkpt lat="48.34581" lon="2.13626">
        <ele>129</ele>
        <time>2023-12-14T10:32:48Z</time>
      </trkpt>
      <trkpt lat="48.34585" lon="2.13634">
        <ele>129</ele>
        <time>2023-12-14T10:32:49Z</time>
      </trkpt>
      <trkpt lat="48.3459" lon="2.13641">
        <ele>129</ele>
        <time>2023-12-14T10:32:50Z</time>
      </trkpt>
      <trkpt lat="48.34595" lon="2.13649">
        <ele>129</ele>
        <time>2023-12-14T10:32:51Z</time>
      </trkpt>
      <trkpt lat="48.346" lon="2.13656">
        <ele>129.4</ele>
        <time>2023-12-14T10:32:52Z</time>
      </trkpt>
      <trkpt lat="48.34605" lon="2.13663">
        <ele>129.4</ele>
        <time>2023-12-14T10:32:53Z</time>
      </trkpt>
      <trkpt lat="48.34611" lon="2.1367">
        <ele>129.4</ele>
        <time>2023-12-14T10:32:54Z</time>
      </trkpt>
      <trkpt lat="48.34616" lon="2.13677">
        <ele>128.4</ele>
        <time>2023-12-14T10:32:55Z</time>
      </trkpt>
      <trkpt lat="48.34621" lon="2.13684">
        <ele>128</ele>
        <time>2023-12-14T10:32:56Z</time>
      </trkpt>
      <trkpt lat="48.34627" lon="2.1369">
        <ele>128</ele>
        <time>2023-12-14T10:32:57Z</time>
      </trkpt>
      <trkpt lat="48.34632" lon="2.13697">
        <ele>128</ele>
        <time>2023-12-14T10:32:58Z</time>
      </trkpt>
      <trkpt lat="48.34637" lon="2.13703">
        <ele>128</ele>
        <time>2023-12-14T10:32:59Z</time>
      </trkpt>
      <trkpt lat="48.34643" lon="2.1371">
        <ele>128.2</ele>
        <time>2023-12-14T10:33:00Z</time>
      </trkpt>
      <trkpt lat="48.34648" lon="2.13716">
        <ele>128.2</ele>
        <time>2023-12-14T10:33:01Z</time>
      </trkpt>
      <trkpt lat="48.34654" lon="2.13722">
        <ele>128.2</ele>
        <time>2023-12-14T10:33:02Z</time>
      </trkpt>
      <trkpt lat="48.34659" lon="2.13728">
        <ele>127.2</ele>
        <time>2023-12-14T10:33:03Z</time>
      </trkpt>
      <trkpt lat="48.34665" lon="2.13734">
        <ele>125.8</ele>
        <time>2023-12-14T10:33:04Z</time>
      </trkpt>
      <trkpt lat="48.3467" lon="2.1374">
        <ele>125.8</ele>
        <time>2023-12-14T10:33:05Z</time>
      </trkpt>
      <trkpt lat="48.34676" lon="2.13747">
        <ele>125.8</ele>
        <time>2023-12-14T10:33:06Z</time>
      </trkpt>
      <trkpt lat="48.34681" lon="2.13753">
        <ele>126</ele>
        <time>2023-12-14T10:33:07Z</time>
      </trkpt>
      <trkpt lat="48.34687" lon="2.13759">
        <ele>126</ele>
        <time>2023-12-14T10:33:08Z</time>
      </trkpt>
      <trkpt lat="48.34692" lon="2.13765">
        <ele>126</ele>
        <time>2023-12-14T10:33:09Z</time>
      </trkpt>
      <trkpt lat="48.34698" lon="2.13771">
        <ele>126</ele>
        <time>2023-12-14T10:33:10Z</time>
      </trkpt>
      <trkpt lat="48.34703" lon="2.13777">
        <ele>126</ele>
        <time>2023-12-14T10:33:11Z</time>
      </trkpt>
      <trkpt lat="48.34709" lon="2.13783">
        <ele>125.8</ele>
        <time>2023-12-14T10:33:12Z</time>
      </trkpt>
      <trkpt lat="48.34715" lon="2.13789">
        <ele>125.8</ele>
        <time>2023-12-14T10:33:13Z</time>
      </trkpt>
      <trkpt lat="48.34721" lon="2.13795">
        <ele>125.8</ele>
        <time>2023-12-14T10:33:14Z</time>
      </trkpt>
      <trkpt lat="48.34727" lon="2.13801">
        <ele>125.8</ele>
        <time>2023-12-14T10:33:15Z</time>
      </trkpt>
      <trkpt lat="48.34732" lon="2.13808">
        <ele>124.6</ele>
        <time>2023-12-14T10:33:16Z</time>
      </trkpt>
      <trkpt lat="48.34738" lon="2.13814">
        <ele>124.6</ele>
        <time>2023-12-14T10:33:17Z</time>
      </trkpt>
      <trkpt lat="48.34745" lon="2.1382">
        <ele>124.6</ele>
        <time>2023-12-14T10:33:18Z</time>
      </trkpt>
      <trkpt lat="48.34751" lon="2.13826">
        <ele>124.6</ele>
        <time>2023-12-14T10:33:19Z</time>
      </trkpt>
      <trkpt lat="48.34757" lon="2.13832">
        <ele>124.6</ele>
        <time>2023-12-14T10:33:20Z</time>
      </trkpt>
      <trkpt lat="48.34763" lon="2.13838">
        <ele>124.6</ele>
        <time>2023-12-14T10:33:21Z</time>
      </trkpt>
      <trkpt lat="48.34769" lon="2.13844">
        <ele>124.6</ele>
        <time>2023-12-14T10:33:22Z</time>
      </trkpt>
      <trkpt lat="48.34775" lon="2.1385">
        <ele>123.6</ele>
        <time>2023-12-14T10:33:23Z</time>
      </trkpt>
      <trkpt lat="48.34782" lon="2.13856">
        <ele>123.2</ele>
        <time>2023-12-14T10:33:24Z</time>
      </trkpt>
      <trkpt lat="48.34788" lon="2.13862">
        <ele>123.2</ele>
        <time>2023-12-14T10:33:25Z</time>
      </trkpt>
      <trkpt lat="48.34794" lon="2.13868">
        <ele>123.2</ele>
        <time>2023-12-14T10:33:26Z</time>
      </trkpt>
      <trkpt lat="48.34801" lon="2.13874">
        <ele>122.6</ele>
        <time>2023-12-14T10:33:27Z</time>
      </trkpt>
      <trkpt lat="48.34807" lon="2.13879">
        <ele>122.2</ele>
        <time>2023-12-14T10:33:28Z</time>
      </trkpt>
      <trkpt lat="48.34813" lon="2.13885">
        <ele>122.2</ele>
        <time>2023-12-14T10:33:29Z</time>
      </trkpt>
      <trkpt lat="48.3482" lon="2.1389">
        <ele>122.2</ele>
        <time>2023-12-14T10:33:30Z</time>
      </trkpt>
      <trkpt lat="48.34826" lon="2.13895">
        <ele>121.8</ele>
        <time>2023-12-14T10:33:31Z</time>
      </trkpt>
      <trkpt lat="48.34833" lon="2.13901">
        <ele>121.4</ele>
        <time>2023-12-14T10:33:32Z</time>
      </trkpt>
      <trkpt lat="48.34839" lon="2.13906">
        <ele>121.4</ele>
        <time>2023-12-14T10:33:33Z</time>
      </trkpt>
      <trkpt lat="48.34846" lon="2.13912">
        <ele>121.4</ele>
        <time>2023-12-14T10:33:34Z</time>
      </trkpt>
      <trkpt lat="48.34852" lon="2.13917">
        <ele>120.8</ele>
        <time>2023-12-14T10:33:35Z</time>
      </trkpt>
      <trkpt lat="48.34859" lon="2.13923">
        <ele>120.6</ele>
        <time>2023-12-14T10:33:36Z</time>
      </trkpt>
      <trkpt lat="48.34865" lon="2.13928">
        <ele>120.6</ele>
        <time>2023-12-14T10:33:37Z</time>
      </trkpt>
      <trkpt lat="48.34872" lon="2.13934">
        <ele>120.6</ele>
        <time>2023-12-14T10:33:38Z</time>
      </trkpt>
      <trkpt lat="48.34878" lon="2.1394">
        <ele>119.6</ele>
        <time>2023-12-14T10:33:39Z</time>
      </trkpt>
      <trkpt lat="48.34885" lon="2.13945">
        <ele>119.2</ele>
        <time>2023-12-14T10:33:40Z</time>
      </trkpt>
      <trkpt lat="48.34891" lon="2.13951">
        <ele>119.2</ele>
        <time>2023-12-14T10:33:41Z</time>
      </trkpt>
      <trkpt lat="48.34898" lon="2.13957">
        <ele>119.2</ele>
        <time>2023-12-14T10:33:42Z</time>
      </trkpt>
      <trkpt lat="48.34905" lon="2.13964">
        <ele>119.2</ele>
        <time>2023-12-14T10:33:43Z</time>
      </trkpt>
      <trkpt lat="48.34911" lon="2.1397">
        <ele>117.4</ele>
        <time>2023-12-14T10:33:44Z</time>
      </trkpt>
      <trkpt lat="48.34918" lon="2.13976">
        <ele>117.4</ele>
        <time>2023-12-14T10:33:45Z</time>
      </trkpt>
      <trkpt lat="48.34925" lon="2.13982">
        <ele>117.4</ele>
        <time>2023-12-14T10:33:46Z</time>
      </trkpt>
      <trkpt lat="48.34932" lon="2.13988">
        <ele>117.4</ele>
        <time>2023-12-14T10:33:47Z</time>
      </trkpt>
      <trkpt lat="48.34938" lon="2.13994">
        <ele>116.8</ele>
        <time>2023-12-14T10:33:48Z</time>
      </trkpt>
      <trkpt lat="48.34945" lon="2.14">
        <ele>116.8</ele>
        <time>2023-12-14T10:33:49Z</time>
      </trkpt>
      <trkpt lat="48.34952" lon="2.14006">
        <ele>116.8</ele>
        <time>2023-12-14T10:33:50Z</time>
      </trkpt>
      <trkpt lat="48.34959" lon="2.14012">
        <ele>116.8</ele>
        <time>2023-12-14T10:33:51Z</time>
      </trkpt>
      <trkpt lat="48.34966" lon="2.14018">
        <ele>114.8</ele>
        <time>2023-12-14T10:33:52Z</time>
      </trkpt>
      <trkpt lat="48.34973" lon="2.14024">
        <ele>114.8</ele>
        <time>2023-12-14T10:33:53Z</time>
      </trkpt>
      <trkpt lat="48.3498" lon="2.14031">
        <ele>114.8</ele>
        <time>2023-12-14T10:33:54Z</time>
      </trkpt>
      <trkpt lat="48.34987" lon="2.14037">
        <ele>115.4</ele>
        <time>2023-12-14T10:33:55Z</time>
      </trkpt>
      <trkpt lat="48.34994" lon="2.14043">
        <ele>114.8</ele>
        <time>2023-12-14T10:33:56Z</time>
      </trkpt>
      <trkpt lat="48.35" lon="2.14051">
        <ele>114.8</ele>
        <time>2023-12-14T10:33:57Z</time>
      </trkpt>
      <trkpt lat="48.35007" lon="2.14059">
        <ele>114.8</ele>
        <time>2023-12-14T10:33:58Z</time>
      </trkpt>
      <trkpt lat="48.35013" lon="2.14068">
        <ele>114</ele>
        <time>2023-12-14T10:33:59Z</time>
      </trkpt>
      <trkpt lat="48.35019" lon="2.14077">
        <ele>113.6</ele>
        <time>2023-12-14T10:34:00Z</time>
      </trkpt>
      <trkpt lat="48.35025" lon="2.14086">
        <ele>113.6</ele>
        <time>2023-12-14T10:34:01Z</time>
      </trkpt>
      <trkpt lat="48.3503" lon="2.14096">
        <ele>113.6</ele>
        <time>2023-12-14T10:34:02Z</time>
      </trkpt>
      <trkpt lat="48.35036" lon="2.14106">
        <ele>113.6</ele>
        <time>2023-12-14T10:34:03Z</time>
      </trkpt>
      <trkpt lat="48.35041" lon="2.14117">
        <ele>111.2</ele>
        <time>2023-12-14T10:34:04Z</time>
      </trkpt>
      <trkpt lat="48.35046" lon="2.14127">
        <ele>111.2</ele>
        <time>2023-12-14T10:34:05Z</time>
      </trkpt>
      <trkpt lat="48.35052" lon="2.14138">
        <ele>111.2</ele>
        <time>2023-12-14T10:34:06Z</time>
      </trkpt>
      <trkpt lat="48.35057" lon="2.14148">
        <ele>111.2</ele>
        <time>2023-12-14T10:34:07Z</time>
      </trkpt>
      <trkpt lat="48.35063" lon="2.14159">
        <ele>109.2</ele>
        <time>2023-12-14T10:34:08Z</time>
      </trkpt>
      <trkpt lat="48.35068" lon="2.1417">
        <ele>109.2</ele>
        <time>2023-12-14T10:34:09Z</time>
      </trkpt>
      <trkpt lat="48.35074" lon="2.14182">
        <ele>109.2</ele>
        <time>2023-12-14T10:34:10Z</time>
      </trkpt>
      <trkpt lat="48.35079" lon="2.14193">
        <ele>108.2</ele>
        <time>2023-12-14T10:34:11Z</time>
      </trkpt>
      <trkpt lat="48.35084" lon="2.14205">
        <ele>106.2</ele>
        <time>2023-12-14T10:34:12Z</time>
      </trkpt>
      <trkpt lat="48.35089" lon="2.14216">
        <ele>106.2</ele>
        <time>2023-12-14T10:34:13Z</time>
      </trkpt>
      <trkpt lat="48.35095" lon="2.14227">
        <ele>106.2</ele>
        <time>2023-12-14T10:34:14Z</time>
      </trkpt>
      <trkpt lat="48.35101" lon="2.14237">
        <ele>105.2</ele>
        <time>2023-12-14T10:34:15Z</time>
      </trkpt>
      <trkpt lat="48.35108" lon="2.14247">
        <ele>103.6</ele>
        <time>2023-12-14T10:34:16Z</time>
      </trkpt>
      <trkpt lat="48.35115" lon="2.14257">
        <ele>103.6</ele>
        <time>2023-12-14T10:34:17Z</time>
      </trkpt>
      <trkpt lat="48.35122" lon="2.14266">
        <ele>103.6</ele>
        <time>2023-12-14T10:34:18Z</time>
      </trkpt>
      <trkpt lat="48.35128" lon="2.14275">
        <ele>102.6</ele>
        <time>2023-12-14T10:34:19Z</time>
      </trkpt>
      <trkpt lat="48.35136" lon="2.14284">
        <ele>99.6</ele>
        <time>2023-12-14T10:34:20Z</time>
      </trkpt>
      <trkpt lat="48.35144" lon="2.14293">
        <ele>99.6</ele>
        <time>2023-12-14T10:34:21Z</time>
      </trkpt>
      <trkpt lat="48.35152" lon="2.14303">
        <ele>99.6</ele>
        <time>2023-12-14T10:34:22Z</time>
      </trkpt>
      <trkpt lat="48.35159" lon="2.14312">
        <ele>99</ele>
        <time>2023-12-14T10:34:23Z</time>
      </trkpt>
      <trkpt lat="48.35167" lon="2.14321">
        <ele>99</ele>
        <time>2023-12-14T10:34:24Z</time>
      </trkpt>
      <trkpt lat="48.35174" lon="2.1433">
        <ele>99</ele>
        <time>2023-12-14T10:34:25Z</time>
      </trkpt>
      <trkpt lat="48.35181" lon="2.1434">
        <ele>99</ele>
        <time>2023-12-14T10:34:26Z</time>
      </trkpt>
      <trkpt lat="48.35189" lon="2.14351">
        <ele>98</ele>
        <time>2023-12-14T10:34:27Z</time>
      </trkpt>
      <trkpt lat="48.35196" lon="2.14361">
        <ele>95.8</ele>
        <time>2023-12-14T10:34:28Z</time>
      </trkpt>
      <trkpt lat="48.35203" lon="2.14372">
        <ele>95.8</ele>
        <time>2023-12-14T10:34:29Z</time>
      </trkpt>
      <trkpt lat="48.35211" lon="2.14384">
        <ele>95.8</ele>
        <time>2023-12-14T10:34:30Z</time>
      </trkpt>
      <trkpt lat="48.35217" lon="2.14397">
        <ele>94.8</ele>
        <time>2023-12-14T10:34:31Z</time>
      </trkpt>
      <trkpt lat="48.35223" lon="2.1441">
        <ele>93.4</ele>
        <time>2023-12-14T10:34:32Z</time>
      </trkpt>
      <trkpt lat="48.35228" lon="2.14423">
        <ele>93.4</ele>
        <time>2023-12-14T10:34:33Z</time>
      </trkpt>
      <trkpt lat="48.35233" lon="2.14437">
        <ele>93.4</ele>
        <time>2023-12-14T10:34:34Z</time>
      </trkpt>
      <trkpt lat="48.35238" lon="2.14452">
        <ele>92.4</ele>
        <time>2023-12-14T10:34:35Z</time>
      </trkpt>
      <trkpt lat="48.35243" lon="2.14466">
        <ele>90.6</ele>
        <time>2023-12-14T10:34:36Z</time>
      </trkpt>
      <trkpt lat="48.35248" lon="2.14481">
        <ele>90.6</ele>
        <time>2023-12-14T10:34:37Z</time>
      </trkpt>
      <trkpt lat="48.35254" lon="2.14496">
        <ele>90.6</ele>
        <time>2023-12-14T10:34:38Z</time>
      </trkpt>
      <trkpt lat="48.35259" lon="2.14511">
        <ele>89.6</ele>
        <time>2023-12-14T10:34:39Z</time>
      </trkpt>
      <trkpt lat="48.35265" lon="2.14526">
        <ele>87</ele>
        <time>2023-12-14T10:34:40Z</time>
      </trkpt>
      <trkpt lat="48.3527" lon="2.14541">
        <ele>87</ele>
        <time>2023-12-14T10:34:41Z</time>
      </trkpt>
      <trkpt lat="48.35276" lon="2.14556">
        <ele>87</ele>
        <time>2023-12-14T10:34:42Z</time>
      </trkpt>
      <trkpt lat="48.35282" lon="2.14571">
        <ele>86</ele>
        <time>2023-12-14T10:34:43Z</time>
      </trkpt>
      <trkpt lat="48.35287" lon="2.14586">
        <ele>83.2</ele>
        <time>2023-12-14T10:34:44Z</time>
      </trkpt>
      <trkpt lat="48.35293" lon="2.14601">
        <ele>83.2</ele>
        <time>2023-12-14T10:34:45Z</time>
      </trkpt>
      <trkpt lat="48.35299" lon="2.14617">
        <ele>83.2</ele>
        <time>2023-12-14T10:34:46Z</time>
      </trkpt>
      <trkpt lat="48.35305" lon="2.14631">
        <ele>82.2</ele>
        <time>2023-12-14T10:34:47Z</time>
      </trkpt>
      <trkpt lat="48.35311" lon="2.14646">
        <ele>81</ele>
        <time>2023-12-14T10:34:48Z</time>
      </trkpt>
      <trkpt lat="48.35317" lon="2.14661">
        <ele>81</ele>
        <time>2023-12-14T10:34:49Z</time>
      </trkpt>
      <trkpt lat="48.35323" lon="2.14675">
        <ele>81</ele>
        <time>2023-12-14T10:34:50Z</time>
      </trkpt>
      <trkpt lat="48.3533" lon="2.14689">
        <ele>80</ele>
        <time>2023-12-14T10:34:51Z</time>
      </trkpt>
      <trkpt lat="48.35337" lon="2.14702">
        <ele>77.6</ele>
        <time>2023-12-14T10:34:52Z</time>
      </trkpt>
      <trkpt lat="48.35345" lon="2.14715">
        <ele>77.6</ele>
        <time>2023-12-14T10:34:53Z</time>
      </trkpt>
      <trkpt lat="48.35353" lon="2.14727">
        <ele>77.6</ele>
        <time>2023-12-14T10:34:54Z</time>
      </trkpt>
      <trkpt lat="48.35362" lon="2.14738">
        <ele>76.6</ele>
        <time>2023-12-14T10:34:55Z</time>
      </trkpt>
      <trkpt lat="48.35371" lon="2.14748">
        <ele>73.8</ele>
        <time>2023-12-14T10:34:56Z</time>
      </trkpt>
      <trkpt lat="48.3538" lon="2.14757">
        <ele>73.8</ele>
        <time>2023-12-14T10:34:57Z</time>
      </trkpt>
      <trkpt lat="48.3539" lon="2.14766">
        <ele>73.8</ele>
        <time>2023-12-14T10:34:58Z</time>
      </trkpt>
      <trkpt lat="48.354" lon="2.14774">
        <ele>73.8</ele>
        <time>2023-12-14T10:34:59Z</time>
      </trkpt>
      <trkpt lat="48.3541" lon="2.14782">
        <ele>71.4</ele>
        <time>2023-12-14T10:35:00Z</time>
      </trkpt>
      <trkpt lat="48.3542" lon="2.1479">
        <ele>71.4</ele>
        <time>2023-12-14T10:35:01Z</time>
      </trkpt>
      <trkpt lat="48.3543" lon="2.14798">
        <ele>71.4</ele>
        <time>2023-12-14T10:35:02Z</time>
      </trkpt>
      <trkpt lat="48.3544" lon="2.14806">
        <ele>71.4</ele>
        <time>2023-12-14T10:35:03Z</time>
      </trkpt>
      <trkpt lat="48.3545" lon="2.14814">
        <ele>69.8</ele>
        <time>2023-12-14T10:35:04Z</time>
      </trkpt>
      <trkpt lat="48.3546" lon="2.14822">
        <ele>69.8</ele>
        <time>2023-12-14T10:35:05Z</time>
      </trkpt>
      <trkpt lat="48.35469" lon="2.14831">
        <ele>69.8</ele>
        <time>2023-12-14T10:35:06Z</time>
      </trkpt>
      <trkpt lat="48.35478" lon="2.14841">
        <ele>69.8</ele>
        <time>2023-12-14T10:35:07Z</time>
      </trkpt>
      <trkpt lat="48.35485" lon="2.14853">
        <ele>67.2</ele>
        <time>2023-12-14T10:35:08Z</time>
      </trkpt>
      <trkpt lat="48.3549" lon="2.14867">
        <ele>67.2</ele>
        <time>2023-12-14T10:35:09Z</time>
      </trkpt>
      <trkpt lat="48.35493" lon="2.14882">
        <ele>67.2</ele>
        <time>2023-12-14T10:35:10Z</time>
      </trkpt>
      <trkpt lat="48.35496" lon="2.14897">
        <ele>67.2</ele>
        <time>2023-12-14T10:35:11Z</time>
      </trkpt>
      <trkpt lat="48.35496" lon="2.14912">
        <ele>68</ele>
        <time>2023-12-14T10:35:12Z</time>
      </trkpt>
      <trkpt lat="48.35495" lon="2.14926">
        <ele>68</ele>
        <time>2023-12-14T10:35:13Z</time>
      </trkpt>
      <trkpt lat="48.35493" lon="2.1494">
        <ele>68</ele>
        <time>2023-12-14T10:35:14Z</time>
      </trkpt>
      <trkpt lat="48.3549" lon="2.14954">
        <ele>67.8</ele>
        <time>2023-12-14T10:35:15Z</time>
      </trkpt>
      <trkpt lat="48.35487" lon="2.14967">
        <ele>67.6</ele>
        <time>2023-12-14T10:35:16Z</time>
      </trkpt>
      <trkpt lat="48.35484" lon="2.1498">
        <ele>67.6</ele>
        <time>2023-12-14T10:35:17Z</time>
      </trkpt>
      <trkpt lat="48.35481" lon="2.14992">
        <ele>67.6</ele>
        <time>2023-12-14T10:35:18Z</time>
      </trkpt>
      <trkpt lat="48.35479" lon="2.15005">
        <ele>67.6</ele>
        <time>2023-12-14T10:35:19Z</time>
      </trkpt>
      <trkpt lat="48.35476" lon="2.15017">
        <ele>67.8</ele>
        <time>2023-12-14T10:35:20Z</time>
      </trkpt>
      <trkpt lat="48.35473" lon="2.15028">
        <ele>67.8</ele>
        <time>2023-12-14T10:35:21Z</time>
      </trkpt>
      <trkpt lat="48.3547" lon="2.15039">
        <ele>67.8</ele>
        <time>2023-12-14T10:35:22Z</time>
      </trkpt>
      <trkpt lat="48.35467" lon="2.1505">
        <ele>67.6</ele>
        <time>2023-12-14T10:35:23Z</time>
      </trkpt>
      <trkpt lat="48.35464" lon="2.1506">
        <ele>67.2</ele>
        <time>2023-12-14T10:35:24Z</time>
      </trkpt>
      <trkpt lat="48.35461" lon="2.1507">
        <ele>67.2</ele>
        <time>2023-12-14T10:35:25Z</time>
      </trkpt>
      <trkpt lat="48.35457" lon="2.1508">
        <ele>67.2</ele>
        <time>2023-12-14T10:35:26Z</time>
      </trkpt>
      <trkpt lat="48.35453" lon="2.1509">
        <ele>67.2</ele>
        <time>2023-12-14T10:35:27Z</time>
      </trkpt>
      <trkpt lat="48.3545" lon="2.15099">
        <ele>67.8</ele>
        <time>2023-12-14T10:35:28Z</time>
      </trkpt>
      <trkpt lat="48.35448" lon="2.1511">
        <ele>67.8</ele>
        <time>2023-12-14T10:35:29Z</time>
      </trkpt>
      <trkpt lat="48.35448" lon="2.15121">
        <ele>67.8</ele>
        <time>2023-12-14T10:35:30Z</time>
      </trkpt>
      <trkpt lat="48.3545" lon="2.15131">
        <ele>67.2</ele>
        <time>2023-12-14T10:35:31Z</time>
      </trkpt>
      <trkpt lat="48.35453" lon="2.1514">
        <ele>67</ele>
        <time>2023-12-14T10:35:32Z</time>
      </trkpt>
      <trkpt lat="48.35457" lon="2.15149">
        <ele>67</ele>
        <time>2023-12-14T10:35:33Z</time>
      </trkpt>
      <trkpt lat="48.35463" lon="2.15155">
        <ele>67</ele>
        <time>2023-12-14T10:35:34Z</time>
      </trkpt>
      <trkpt lat="48.35469" lon="2.15159">
        <ele>66.2</ele>
        <time>2023-12-14T10:35:35Z</time>
      </trkpt>
      <trkpt lat="48.35475" lon="2.15162">
        <ele>66.4</ele>
        <time>2023-12-14T10:35:36Z</time>
      </trkpt>
      <trkpt lat="48.35481" lon="2.15163">
        <ele>66.4</ele>
        <time>2023-12-14T10:35:37Z</time>
      </trkpt>
      <trkpt lat="48.35487" lon="2.15163">
        <ele>66.4</ele>
        <time>2023-12-14T10:35:38Z</time>
      </trkpt>
      <trkpt lat="48.35493" lon="2.15164">
        <ele>66.4</ele>
        <time>2023-12-14T10:35:39Z</time>
      </trkpt>
      <trkpt lat="48.35498" lon="2.15167">
        <ele>66.2</ele>
        <time>2023-12-14T10:35:40Z</time>
      </trkpt>
      <trkpt lat="48.35503" lon="2.1517">
        <ele>66.2</ele>
        <time>2023-12-14T10:35:41Z</time>
      </trkpt>
      <trkpt lat="48.35508" lon="2.15173">
        <ele>66.2</ele>
        <time>2023-12-14T10:35:42Z</time>
      </trkpt>
      <trkpt lat="48.35514" lon="2.15176">
        <ele>66.2</ele>
        <time>2023-12-14T10:35:43Z</time>
      </trkpt>
      <trkpt lat="48.35519" lon="2.15178">
        <ele>66</ele>
        <time>2023-12-14T10:35:44Z</time>
      </trkpt>
      <trkpt lat="48.35524" lon="2.1518">
        <ele>66</ele>
        <time>2023-12-14T10:35:45Z</time>
      </trkpt>
      <trkpt lat="48.35528" lon="2.15182">
        <ele>66</ele>
        <time>2023-12-14T10:35:46Z</time>
      </trkpt>
      <trkpt lat="48.35532" lon="2.15184">
        <ele>66</ele>
        <time>2023-12-14T10:35:47Z</time>
      </trkpt>
      <trkpt lat="48.35536" lon="2.15186">
        <ele>65.8</ele>
        <time>2023-12-14T10:35:48Z</time>
      </trkpt>
      <trkpt lat="48.35538" lon="2.15188">
        <ele>65.8</ele>
        <time>2023-12-14T10:35:49Z</time>
      </trkpt>
      <trkpt lat="48.35543" lon="2.1519">
        <ele>65.8</ele>
        <time>2023-12-14T10:35:50Z</time>
      </trkpt>
      <trkpt lat="48.35546" lon="2.15193">
        <ele>65.4</ele>
        <time>2023-12-14T10:35:51Z</time>
      </trkpt>
      <trkpt lat="48.35551" lon="2.15196">
        <ele>65</ele>
        <time>2023-12-14T10:35:52Z</time>
      </trkpt>
      <trkpt lat="48.35556" lon="2.15198">
        <ele>65</ele>
        <time>2023-12-14T10:35:53Z</time>
      </trkpt>
      <trkpt lat="48.35559" lon="2.152">
        <ele>65</ele>
        <time>2023-12-14T10:35:54Z</time>
      </trkpt>
      <trkpt lat="48.35564" lon="2.15201">
        <ele>64.6</ele>
        <time>2023-12-14T10:35:55Z</time>
      </trkpt>
      <trkpt lat="48.35567" lon="2.15203">
        <ele>65</ele>
        <time>2023-12-14T10:35:56Z</time>
      </trkpt>
      <trkpt lat="48.35572" lon="2.15205">
        <ele>65</ele>
        <time>2023-12-14T10:35:57Z</time>
      </trkpt>
      <trkpt lat="48.35577" lon="2.15206">
        <ele>65</ele>
        <time>2023-12-14T10:35:58Z</time>
      </trkpt>
      <trkpt lat="48.35582" lon="2.15207">
        <ele>65.8</ele>
        <time>2023-12-14T10:35:59Z</time>
      </trkpt>
      <trkpt lat="48.35589" lon="2.15209">
        <ele>65.8</ele>
        <time>2023-12-14T10:36:00Z</time>
      </trkpt>
      <trkpt lat="48.35595" lon="2.1521">
        <ele>65.8</ele>
        <time>2023-12-14T10:36:01Z</time>
      </trkpt>
      <trkpt lat="48.35602" lon="2.15212">
        <ele>65.8</ele>
        <time>2023-12-14T10:36:02Z</time>
      </trkpt>
      <trkpt lat="48.35608" lon="2.15216">
        <ele>66.4</ele>
        <time>2023-12-14T10:36:03Z</time>
      </trkpt>
      <trkpt lat="48.35614" lon="2.1522">
        <ele>67</ele>
        <time>2023-12-14T10:36:04Z</time>
      </trkpt>
      <trkpt lat="48.35619" lon="2.15224">
        <ele>67</ele>
        <time>2023-12-14T10:36:05Z</time>
      </trkpt>
      <trkpt lat="48.35624" lon="2.15229">
        <ele>67</ele>
        <time>2023-12-14T10:36:06Z</time>
      </trkpt>
      <trkpt lat="48.35628" lon="2.15235">
        <ele>67</ele>
        <time>2023-12-14T10:36:07Z</time>
      </trkpt>
      <trkpt lat="48.35632" lon="2.15241">
        <ele>67.2</ele>
        <time>2023-12-14T10:36:08Z</time>
      </trkpt>
      <trkpt lat="48.35635" lon="2.15247">
        <ele>67.2</ele>
        <time>2023-12-14T10:36:09Z</time>
      </trkpt>
      <trkpt lat="48.35637" lon="2.15254">
        <ele>67.2</ele>
        <time>2023-12-14T10:36:10Z</time>
      </trkpt>
      <trkpt lat="48.3564" lon="2.1526">
        <ele>67.2</ele>
        <time>2023-12-14T10:36:11Z</time>
      </trkpt>
      <trkpt lat="48.35642" lon="2.15267">
        <ele>68.8</ele>
        <time>2023-12-14T10:36:12Z</time>
      </trkpt>
      <trkpt lat="48.35644" lon="2.15273">
        <ele>68.8</ele>
        <time>2023-12-14T10:36:13Z</time>
      </trkpt>
      <trkpt lat="48.35646" lon="2.1528">
        <ele>68.8</ele>
        <time>2023-12-14T10:36:14Z</time>
      </trkpt>
      <trkpt lat="48.35648" lon="2.15286">
        <ele>68.8</ele>
        <time>2023-12-14T10:36:15Z</time>
      </trkpt>
      <trkpt lat="48.3565" lon="2.15292">
        <ele>68.8</ele>
        <time>2023-12-14T10:36:16Z</time>
      </trkpt>
      <trkpt lat="48.35652" lon="2.15299">
        <ele>68.8</ele>
        <time>2023-12-14T10:36:17Z</time>
      </trkpt>
      <trkpt lat="48.35654" lon="2.15305">
        <ele>68.8</ele>
        <time>2023-12-14T10:36:18Z</time>
      </trkpt>
      <trkpt lat="48.35656" lon="2.15311">
        <ele>68.8</ele>
        <time>2023-12-14T10:36:19Z</time>
      </trkpt>
      <trkpt lat="48.35659" lon="2.15318">
        <ele>69.8</ele>
        <time>2023-12-14T10:36:20Z</time>
      </trkpt>
      <trkpt lat="48.35661" lon="2.15324">
        <ele>69.8</ele>
        <time>2023-12-14T10:36:21Z</time>
      </trkpt>
      <trkpt lat="48.35663" lon="2.1533">
        <ele>69.8</ele>
        <time>2023-12-14T10:36:22Z</time>
      </trkpt>
      <trkpt lat="48.35666" lon="2.15336">
        <ele>69.8</ele>
        <time>2023-12-14T10:36:23Z</time>
      </trkpt>
      <trkpt lat="48.35668" lon="2.15342">
        <ele>70.4</ele>
        <time>2023-12-14T10:36:24Z</time>
      </trkpt>
      <trkpt lat="48.3567" lon="2.15348">
        <ele>70.4</ele>
        <time>2023-12-14T10:36:25Z</time>
      </trkpt>
      <trkpt lat="48.35673" lon="2.15354">
        <ele>70.4</ele>
        <time>2023-12-14T10:36:26Z</time>
      </trkpt>
      <trkpt lat="48.35675" lon="2.1536">
        <ele>71.4</ele>
        <time>2023-12-14T10:36:27Z</time>
      </trkpt>
      <trkpt lat="48.35677" lon="2.15365">
        <ele>71.6</ele>
        <time>2023-12-14T10:36:28Z</time>
      </trkpt>
      <trkpt lat="48.35679" lon="2.15369">
        <ele>71.6</ele>
        <time>2023-12-14T10:36:29Z</time>
      </trkpt>
      <trkpt lat="48.3568" lon="2.15373">
        <ele>71.6</ele>
        <time>2023-12-14T10:36:30Z</time>
      </trkpt>
      <trkpt lat="48.35682" lon="2.15377">
        <ele>72.4</ele>
        <time>2023-12-14T10:36:31Z</time>
      </trkpt>
      <trkpt lat="48.35683" lon="2.1538">
        <ele>71.8</ele>
        <time>2023-12-14T10:36:32Z</time>
      </trkpt>
      <trkpt lat="48.35685" lon="2.15384">
        <ele>71.8</ele>
        <time>2023-12-14T10:36:33Z</time>
      </trkpt>
      <trkpt lat="48.35686" lon="2.15388">
        <ele>71.8</ele>
        <time>2023-12-14T10:36:34Z</time>
      </trkpt>
      <trkpt lat="48.35688" lon="2.15392">
        <ele>72.4</ele>
        <time>2023-12-14T10:36:35Z</time>
      </trkpt>
      <trkpt lat="48.35688" lon="2.15395">
        <ele>72.6</ele>
        <time>2023-12-14T10:36:36Z</time>
      </trkpt>
      <trkpt lat="48.35688" lon="2.15398">
        <ele>72.6</ele>
        <time>2023-12-14T10:36:37Z</time>
      </trkpt>
      <trkpt lat="48.35687" lon="2.15401">
        <ele>72.6</ele>
        <time>2023-12-14T10:36:38Z</time>
      </trkpt>
      <trkpt lat="48.35686" lon="2.15403">
        <ele>72.2</ele>
        <time>2023-12-14T10:36:39Z</time>
      </trkpt>
      <trkpt lat="48.35686" lon="2.15405">
        <ele>72.4</ele>
        <time>2023-12-14T10:36:40Z</time>
      </trkpt>
      <trkpt lat="48.35685" lon="2.15407">
        <ele>72.4</ele>
        <time>2023-12-14T10:36:41Z</time>
      </trkpt>
      <trkpt lat="48.35683" lon="2.15408">
        <ele>72.4</ele>
        <time>2023-12-14T10:36:42Z</time>
      </trkpt>
      <trkpt lat="48.35681" lon="2.15409">
        <ele>72.2</ele>
        <time>2023-12-14T10:36:43Z</time>
      </trkpt>
      <trkpt lat="48.3568" lon="2.15409">
        <ele>72.4</ele>
        <time>2023-12-14T10:36:44Z</time>
      </trkpt>
      <trkpt lat="48.35678" lon="2.1541">
        <ele>72.4</ele>
        <time>2023-12-14T10:36:45Z</time>
      </trkpt>
      <trkpt lat="48.35676" lon="2.15411">
        <ele>72.4</ele>
        <time>2023-12-14T10:36:46Z</time>
      </trkpt>
      <trkpt lat="48.35675" lon="2.15413">
        <ele>72.4</ele>
        <time>2023-12-14T10:36:47Z</time>
      </trkpt>
      <trkpt lat="48.35675" lon="2.15415">
        <ele>72.2</ele>
        <time>2023-12-14T10:36:48Z</time>
      </trkpt>
      <trkpt lat="48.35676" lon="2.15415">
        <ele>72.2</ele>
        <time>2023-12-14T10:36:49Z</time>
      </trkpt>
      <trkpt lat="48.35678" lon="2.15414">
        <ele>72.2</ele>
        <time>2023-12-14T10:36:50Z</time>
      </trkpt>
      <trkpt lat="48.3568" lon="2.15412">
        <ele>72.4</ele>
        <time>2023-12-14T10:36:51Z</time>
      </trkpt>
      <trkpt lat="48.35682" lon="2.1541">
        <ele>72.8</ele>
        <time>2023-12-14T10:36:52Z</time>
      </trkpt>
      <trkpt lat="48.35684" lon="2.15407">
        <ele>72.8</ele>
        <time>2023-12-14T10:36:53Z</time>
      </trkpt>
      <trkpt lat="48.35686" lon="2.15405">
        <ele>72.8</ele>
        <time>2023-12-14T10:36:54Z</time>
      </trkpt>
      <trkpt lat="48.35689" lon="2.15404">
        <ele>72</ele>
        <time>2023-12-14T10:36:55Z</time>
      </trkpt>
      <trkpt lat="48.35692" lon="2.15404">
        <ele>72.2</ele>
        <time>2023-12-14T10:36:56Z</time>
      </trkpt>
      <trkpt lat="48.35695" lon="2.15406">
        <ele>72.2</ele>
        <time>2023-12-14T10:36:57Z</time>
      </trkpt>
      <trkpt lat="48.35697" lon="2.15408">
        <ele>72.2</ele>
        <time>2023-12-14T10:36:58Z</time>
      </trkpt>
      <trkpt lat="48.35699" lon="2.15411">
        <ele>72.6</ele>
        <time>2023-12-14T10:36:59Z</time>
      </trkpt>
      <trkpt lat="48.35701" lon="2.15415">
        <ele>72.8</ele>
        <time>2023-12-14T10:37:00Z</time>
      </trkpt>
      <trkpt lat="48.35703" lon="2.15419">
        <ele>72.8</ele>
        <time>2023-12-14T10:37:01Z</time>
      </trkpt>
      <trkpt lat="48.35705" lon="2.15422">
        <ele>72.8</ele>
        <time>2023-12-14T10:37:02Z</time>
      </trkpt>
      <trkpt lat="48.35707" lon="2.15426">
        <ele>72.8</ele>
        <time>2023-12-14T10:37:03Z</time>
      </trkpt>
      <trkpt lat="48.35709" lon="2.15429">
        <ele>73.2</ele>
        <time>2023-12-14T10:37:04Z</time>
      </trkpt>
      <trkpt lat="48.3571" lon="2.15433">
        <ele>73.2</ele>
        <time>2023-12-14T10:37:05Z</time>
      </trkpt>
      <trkpt lat="48.35712" lon="2.15435">
        <ele>73.2</ele>
        <time>2023-12-14T10:37:06Z</time>
      </trkpt>
      <trkpt lat="48.35713" lon="2.15436">
        <ele>73.4</ele>
        <time>2023-12-14T10:37:07Z</time>
      </trkpt>
      <trkpt lat="48.35714" lon="2.15435">
        <ele>73.8</ele>
        <time>2023-12-14T10:37:08Z</time>
      </trkpt>
      <trkpt lat="48.35716" lon="2.15433">
        <ele>73.8</ele>
        <time>2023-12-14T10:37:09Z</time>
      </trkpt>
      <trkpt lat="48.35716" lon="2.15432">
        <ele>73.8</ele>
        <time>2023-12-14T10:37:10Z</time>
      </trkpt>
      <trkpt lat="48.35715" lon="2.15429">
        <ele>72.8</ele>
        <time>2023-12-14T10:37:11Z</time>
      </trkpt>
      <trkpt lat="48.35713" lon="2.15426">
        <ele>72.6</ele>
        <time>2023-12-14T10:37:12Z</time>
      </trkpt>
      <trkpt lat="48.35711" lon="2.15422">
        <ele>72.6</ele>
        <time>2023-12-14T10:37:13Z</time>
      </trkpt>
      <trkpt lat="48.35708" lon="2.15419">
        <ele>72.6</ele>
        <time>2023-12-14T10:37:14Z</time>
      </trkpt>
      <trkpt lat="48.35706" lon="2.15415">
        <ele>72</ele>
        <time>2023-12-14T10:37:15Z</time>
      </trkpt>
      <trkpt lat="48.35703" lon="2.1541">
        <ele>71.6</ele>
        <time>2023-12-14T10:37:16Z</time>
      </trkpt>
      <trkpt lat="48.357" lon="2.15405">
        <ele>71.6</ele>
        <time>2023-12-14T10:37:17Z</time>
      </trkpt>
      <trkpt lat="48.35697" lon="2.154">
        <ele>71.6</ele>
        <time>2023-12-14T10:37:18Z</time>
      </trkpt>
      <trkpt lat="48.35697" lon="2.15393">
        <ele>71.6</ele>
        <time>2023-12-14T10:37:19Z</time>
      </trkpt>
      <trkpt lat="48.35699" lon="2.15387">
        <ele>70.4</ele>
        <time>2023-12-14T10:37:20Z</time>
      </trkpt>
      <trkpt lat="48.35702" lon="2.15382">
        <ele>70.4</ele>
        <time>2023-12-14T10:37:21Z</time>
      </trkpt>
      <trkpt lat="48.35704" lon="2.15378">
        <ele>70.4</ele>
        <time>2023-12-14T10:37:22Z</time>
      </trkpt>
      <trkpt lat="48.35707" lon="2.15373">
        <ele>71.4</ele>
        <time>2023-12-14T10:37:23Z</time>
      </trkpt>
      <trkpt lat="48.3571" lon="2.15369">
        <ele>72</ele>
        <time>2023-12-14T10:37:24Z</time>
      </trkpt>
      <trkpt lat="48.35713" lon="2.15365">
        <ele>72</ele>
        <time>2023-12-14T10:37:25Z</time>
      </trkpt>
      <trkpt lat="48.35716" lon="2.15361">
        <ele>72</ele>
        <time>2023-12-14T10:37:26Z</time>
      </trkpt>
      <trkpt lat="48.35718" lon="2.15357">
        <ele>72</ele>
        <time>2023-12-14T10:37:27Z</time>
      </trkpt>
      <trkpt lat="48.35721" lon="2.15353">
        <ele>72.2</ele>
        <time>2023-12-14T10:37:28Z</time>
      </trkpt>
      <trkpt lat="48.35723" lon="2.15349">
        <ele>72.2</ele>
        <time>2023-12-14T10:37:29Z</time>
      </trkpt>
      <trkpt lat="48.35726" lon="2.15346">
        <ele>72.2</ele>
        <time>2023-12-14T10:37:30Z</time>
      </trkpt>
      <trkpt lat="48.35728" lon="2.15342">
        <ele>73</ele>
        <time>2023-12-14T10:37:31Z</time>
      </trkpt>
      <trkpt lat="48.35731" lon="2.15338">
        <ele>73.4</ele>
        <time>2023-12-14T10:37:32Z</time>
      </trkpt>
      <trkpt lat="48.35734" lon="2.15334">
        <ele>73.4</ele>
        <time>2023-12-14T10:37:33Z</time>
      </trkpt>
      <trkpt lat="48.35736" lon="2.1533">
        <ele>73.4</ele>
        <time>2023-12-14T10:37:34Z</time>
      </trkpt>
      <trkpt lat="48.35739" lon="2.15326">
        <ele>74.4</ele>
        <time>2023-12-14T10:37:35Z</time>
      </trkpt>
      <trkpt lat="48.35741" lon="2.15322">
        <ele>74.6</ele>
        <time>2023-12-14T10:37:36Z</time>
      </trkpt>
      <trkpt lat="48.35744" lon="2.15318">
        <ele>74.6</ele>
        <time>2023-12-14T10:37:37Z</time>
      </trkpt>
      <trkpt lat="48.35746" lon="2.15315">
        <ele>74.6</ele>
        <time>2023-12-14T10:37:38Z</time>
      </trkpt>
      <trkpt lat="48.35749" lon="2.15311">
        <ele>74.6</ele>
        <time>2023-12-14T10:37:39Z</time>
      </trkpt>
      <trkpt lat="48.35752" lon="2.15307">
        <ele>75.2</ele>
        <time>2023-12-14T10:37:40Z</time>
      </trkpt>
      <trkpt lat="48.35754" lon="2.15303">
        <ele>75.2</ele>
        <time>2023-12-14T10:37:41Z</time>
      </trkpt>
      <trkpt lat="48.35757" lon="2.15299">
        <ele>75.2</ele>
        <time>2023-12-14T10:37:42Z</time>
      </trkpt>
      <trkpt lat="48.3576" lon="2.15295">
        <ele>74.8</ele>
        <time>2023-12-14T10:37:43Z</time>
      </trkpt>
      <trkpt lat="48.35763" lon="2.15291">
        <ele>75</ele>
        <time>2023-12-14T10:37:44Z</time>
      </trkpt>
      <trkpt lat="48.35766" lon="2.15287">
        <ele>75</ele>
        <time>2023-12-14T10:37:45Z</time>
      </trkpt>
      <trkpt lat="48.35769" lon="2.15283">
        <ele>75</ele>
        <time>2023-12-14T10:37:46Z</time>
      </trkpt>
      <trkpt lat="48.35772" lon="2.15279">
        <ele>75.2</ele>
        <time>2023-12-14T10:37:47Z</time>
      </trkpt>
      <trkpt lat="48.35776" lon="2.15275">
        <ele>74.8</ele>
        <time>2023-12-14T10:37:48Z</time>
      </trkpt>
      <trkpt lat="48.35779" lon="2.15271">
        <ele>74.8</ele>
        <time>2023-12-14T10:37:49Z</time>
      </trkpt>
      <trkpt lat="48.35782" lon="2.15268">
        <ele>74.8</ele>
        <time>2023-12-14T10:37:50Z</time>
      </trkpt>
      <trkpt lat="48.35785" lon="2.15263">
        <ele>75.4</ele>
        <time>2023-12-14T10:37:51Z</time>
      </trkpt>
      <trkpt lat="48.35788" lon="2.1526">
        <ele>75</ele>
        <time>2023-12-14T10:37:52Z</time>
      </trkpt>
      <trkpt lat="48.35792" lon="2.15256">
        <ele>75</ele>
        <time>2023-12-14T10:37:53Z</time>
      </trkpt>
      <trkpt lat="48.35795" lon="2.15252">
        <ele>75</ele>
        <time>2023-12-14T10:37:54Z</time>
      </trkpt>
      <trkpt lat="48.35799" lon="2.15248">
        <ele>75.2</ele>
        <time>2023-12-14T10:37:55Z</time>
      </trkpt>
      <trkpt lat="48.35802" lon="2.15245">
        <ele>75.4</ele>
        <time>2023-12-14T10:37:56Z</time>
      </trkpt>
      <trkpt lat="48.35806" lon="2.15242">
        <ele>75.4</ele>
        <time>2023-12-14T10:37:57Z</time>
      </trkpt>
      <trkpt lat="48.3581" lon="2.15239">
        <ele>75.4</ele>
        <time>2023-12-14T10:37:58Z</time>
      </trkpt>
      <trkpt lat="48.35814" lon="2.15236">
        <ele>76</ele>
        <time>2023-12-14T10:37:59Z</time>
      </trkpt>
      <trkpt lat="48.35817" lon="2.15234">
        <ele>76.2</ele>
        <time>2023-12-14T10:38:00Z</time>
      </trkpt>
      <trkpt lat="48.35821" lon="2.15231">
        <ele>76.2</ele>
        <time>2023-12-14T10:38:01Z</time>
      </trkpt>
      <trkpt lat="48.35824" lon="2.15228">
        <ele>76.2</ele>
        <time>2023-12-14T10:38:02Z</time>
      </trkpt>
      <trkpt lat="48.35827" lon="2.15225">
        <ele>77.2</ele>
        <time>2023-12-14T10:38:03Z</time>
      </trkpt>
      <trkpt lat="48.3583" lon="2.15224">
        <ele>77.2</ele>
        <time>2023-12-14T10:38:04Z</time>
      </trkpt>
      <trkpt lat="48.35832" lon="2.15221">
        <ele>77.2</ele>
        <time>2023-12-14T10:38:05Z</time>
      </trkpt>
      <trkpt lat="48.35835" lon="2.15219">
        <ele>77.2</ele>
        <time>2023-12-14T10:38:06Z</time>
      </trkpt>
      <trkpt lat="48.35838" lon="2.15217">
        <ele>77.2</ele>
        <time>2023-12-14T10:38:07Z</time>
      </trkpt>
      <trkpt lat="48.35842" lon="2.15215">
        <ele>77.8</ele>
        <time>2023-12-14T10:38:08Z</time>
      </trkpt>
      <trkpt lat="48.35846" lon="2.15212">
        <ele>77.8</ele>
        <time>2023-12-14T10:38:09Z</time>
      </trkpt>
      <trkpt lat="48.35849" lon="2.15209">
        <ele>77.8</ele>
        <time>2023-12-14T10:38:10Z</time>
      </trkpt>
      <trkpt lat="48.35852" lon="2.15206">
        <ele>76.8</ele>
        <time>2023-12-14T10:38:11Z</time>
      </trkpt>
      <trkpt lat="48.35855" lon="2.15203">
        <ele>76.4</ele>
        <time>2023-12-14T10:38:12Z</time>
      </trkpt>
      <trkpt lat="48.35859" lon="2.15201">
        <ele>76.4</ele>
        <time>2023-12-14T10:38:13Z</time>
      </trkpt>
      <trkpt lat="48.35862" lon="2.15198">
        <ele>76.4</ele>
        <time>2023-12-14T10:38:14Z</time>
      </trkpt>
      <trkpt lat="48.35866" lon="2.15195">
        <ele>76</ele>
        <time>2023-12-14T10:38:15Z</time>
      </trkpt>
      <trkpt lat="48.3587" lon="2.15191">
        <ele>76.4</ele>
        <time>2023-12-14T10:38:16Z</time>
      </trkpt>
      <trkpt lat="48.35873" lon="2.15187">
        <ele>76.4</ele>
        <time>2023-12-14T10:38:17Z</time>
      </trkpt>
      <trkpt lat="48.35877" lon="2.15183">
        <ele>76.4</ele>
        <time>2023-12-14T10:38:18Z</time>
      </trkpt>
      <trkpt lat="48.35881" lon="2.15179">
        <ele>75.4</ele>
        <time>2023-12-14T10:38:19Z</time>
      </trkpt>
      <trkpt lat="48.35886" lon="2.15174">
        <ele>74.2</ele>
        <time>2023-12-14T10:38:20Z</time>
      </trkpt>
      <trkpt lat="48.3589" lon="2.15169">
        <ele>74.2</ele>
        <time>2023-12-14T10:38:21Z</time>
      </trkpt>
      <trkpt lat="48.35894" lon="2.15163">
        <ele>74.2</ele>
        <time>2023-12-14T10:38:22Z</time>
      </trkpt>
      <trkpt lat="48.35898" lon="2.15157">
        <ele>75</ele>
        <time>2023-12-14T10:38:23Z</time>
      </trkpt>
      <trkpt lat="48.35902" lon="2.15151">
        <ele>75</ele>
        <time>2023-12-14T10:38:24Z</time>
      </trkpt>
      <trkpt lat="48.35906" lon="2.15147">
        <ele>75</ele>
        <time>2023-12-14T10:38:25Z</time>
      </trkpt>
      <trkpt lat="48.35909" lon="2.15139">
        <ele>75</ele>
        <time>2023-12-14T10:38:26Z</time>
      </trkpt>
      <trkpt lat="48.35913" lon="2.15133">
        <ele>75</ele>
        <time>2023-12-14T10:38:27Z</time>
      </trkpt>
      <trkpt lat="48.35917" lon="2.15127">
        <ele>75.2</ele>
        <time>2023-12-14T10:38:28Z</time>
      </trkpt>
      <trkpt lat="48.35921" lon="2.15121">
        <ele>75.2</ele>
        <time>2023-12-14T10:38:29Z</time>
      </trkpt>
      <trkpt lat="48.35925" lon="2.15116">
        <ele>75.2</ele>
        <time>2023-12-14T10:38:30Z</time>
      </trkpt>
      <trkpt lat="48.35929" lon="2.15111">
        <ele>74.2</ele>
        <time>2023-12-14T10:38:31Z</time>
      </trkpt>
      <trkpt lat="48.35933" lon="2.15105">
        <ele>73.8</ele>
        <time>2023-12-14T10:38:32Z</time>
      </trkpt>
      <trkpt lat="48.35937" lon="2.15099">
        <ele>73.8</ele>
        <time>2023-12-14T10:38:33Z</time>
      </trkpt>
      <trkpt lat="48.35941" lon="2.15092">
        <ele>73.8</ele>
        <time>2023-12-14T10:38:34Z</time>
      </trkpt>
      <trkpt lat="48.35945" lon="2.15086">
        <ele>73.8</ele>
        <time>2023-12-14T10:38:35Z</time>
      </trkpt>
      <trkpt lat="48.35949" lon="2.15081">
        <ele>72</ele>
        <time>2023-12-14T10:38:36Z</time>
      </trkpt>
      <trkpt lat="48.35953" lon="2.15074">
        <ele>72</ele>
        <time>2023-12-14T10:38:37Z</time>
      </trkpt>
      <trkpt lat="48.35957" lon="2.15067">
        <ele>72</ele>
        <time>2023-12-14T10:38:38Z</time>
      </trkpt>
      <trkpt lat="48.35961" lon="2.1506">
        <ele>72</ele>
        <time>2023-12-14T10:38:39Z</time>
      </trkpt>
      <trkpt lat="48.35966" lon="2.15054">
        <ele>71.2</ele>
        <time>2023-12-14T10:38:40Z</time>
      </trkpt>
      <trkpt lat="48.35971" lon="2.15049">
        <ele>71.2</ele>
        <time>2023-12-14T10:38:41Z</time>
      </trkpt>
      <trkpt lat="48.35975" lon="2.15044">
        <ele>71.2</ele>
        <time>2023-12-14T10:38:42Z</time>
      </trkpt>
      <trkpt lat="48.3598" lon="2.15037">
        <ele>71.2</ele>
        <time>2023-12-14T10:38:43Z</time>
      </trkpt>
      <trkpt lat="48.35984" lon="2.15032">
        <ele>71.8</ele>
        <time>2023-12-14T10:38:44Z</time>
      </trkpt>
      <trkpt lat="48.35989" lon="2.15026">
        <ele>71.8</ele>
        <time>2023-12-14T10:38:45Z</time>
      </trkpt>
      <trkpt lat="48.35994" lon="2.15021">
        <ele>71.8</ele>
        <time>2023-12-14T10:38:46Z</time>
      </trkpt>
      <trkpt lat="48.35999" lon="2.15017">
        <ele>72</ele>
        <time>2023-12-14T10:38:47Z</time>
      </trkpt>
      <trkpt lat="48.36004" lon="2.15012">
        <ele>72.8</ele>
        <time>2023-12-14T10:38:48Z</time>
      </trkpt>
      <trkpt lat="48.36008" lon="2.15008">
        <ele>72.8</ele>
        <time>2023-12-14T10:38:49Z</time>
      </trkpt>
      <trkpt lat="48.36012" lon="2.15003">
        <ele>72.8</ele>
        <time>2023-12-14T10:38:50Z</time>
      </trkpt>
      <trkpt lat="48.36016" lon="2.14998">
        <ele>73.8</ele>
        <time>2023-12-14T10:38:51Z</time>
      </trkpt>
      <trkpt lat="48.3602" lon="2.14994">
        <ele>73.6</ele>
        <time>2023-12-14T10:38:52Z</time>
      </trkpt>
      <trkpt lat="48.36024" lon="2.14988">
        <ele>73.6</ele>
        <time>2023-12-14T10:38:53Z</time>
      </trkpt>
      <trkpt lat="48.36028" lon="2.14984">
        <ele>73.6</ele>
        <time>2023-12-14T10:38:54Z</time>
      </trkpt>
      <trkpt lat="48.36031" lon="2.14978">
        <ele>73.4</ele>
        <time>2023-12-14T10:38:55Z</time>
      </trkpt>
      <trkpt lat="48.36035" lon="2.14972">
        <ele>73.2</ele>
        <time>2023-12-14T10:38:56Z</time>
      </trkpt>
      <trkpt lat="48.36039" lon="2.14965">
        <ele>73.2</ele>
        <time>2023-12-14T10:38:57Z</time>
      </trkpt>
      <trkpt lat="48.36043" lon="2.14959">
        <ele>73.2</ele>
        <time>2023-12-14T10:38:58Z</time>
      </trkpt>
      <trkpt lat="48.36047" lon="2.14953">
        <ele>73.2</ele>
        <time>2023-12-14T10:38:59Z</time>
      </trkpt>
      <trkpt lat="48.36051" lon="2.14946">
        <ele>72.2</ele>
        <time>2023-12-14T10:39:00Z</time>
      </trkpt>
      <trkpt lat="48.36055" lon="2.14939">
        <ele>72.2</ele>
        <time>2023-12-14T10:39:01Z</time>
      </trkpt>
      <trkpt lat="48.36059" lon="2.14933">
        <ele>72.2</ele>
        <time>2023-12-14T10:39:02Z</time>
      </trkpt>
      <trkpt lat="48.36064" lon="2.14926">
        <ele>71.4</ele>
        <time>2023-12-14T10:39:03Z</time>
      </trkpt>
      <trkpt lat="48.36068" lon="2.14919">
        <ele>71.4</ele>
        <time>2023-12-14T10:39:04Z</time>
      </trkpt>
      <trkpt lat="48.36073" lon="2.14913">
        <ele>71.4</ele>
        <time>2023-12-14T10:39:05Z</time>
      </trkpt>
      <trkpt lat="48.36078" lon="2.14907">
        <ele>71.4</ele>
        <time>2023-12-14T10:39:06Z</time>
      </trkpt>
      <trkpt lat="48.36083" lon="2.14902">
        <ele>71.4</ele>
        <time>2023-12-14T10:39:07Z</time>
      </trkpt>
      <trkpt lat="48.36087" lon="2.14897">
        <ele>71.8</ele>
        <time>2023-12-14T10:39:08Z</time>
      </trkpt>
      <trkpt lat="48.36092" lon="2.14892">
        <ele>71.8</ele>
        <time>2023-12-14T10:39:09Z</time>
      </trkpt>
      <trkpt lat="48.36096" lon="2.14887">
        <ele>71.8</ele>
        <time>2023-12-14T10:39:10Z</time>
      </trkpt>
      <trkpt lat="48.36101" lon="2.14883">
        <ele>72.8</ele>
        <time>2023-12-14T10:39:11Z</time>
      </trkpt>
      <trkpt lat="48.36105" lon="2.14879">
        <ele>73.2</ele>
        <time>2023-12-14T10:39:12Z</time>
      </trkpt>
      <trkpt lat="48.3611" lon="2.14874">
        <ele>73.2</ele>
        <time>2023-12-14T10:39:13Z</time>
      </trkpt>
      <trkpt lat="48.36114" lon="2.1487">
        <ele>73.2</ele>
        <time>2023-12-14T10:39:14Z</time>
      </trkpt>
      <trkpt lat="48.36119" lon="2.14866">
        <ele>73.2</ele>
        <time>2023-12-14T10:39:15Z</time>
      </trkpt>
      <trkpt lat="48.36123" lon="2.14862">
        <ele>73.8</ele>
        <time>2023-12-14T10:39:16Z</time>
      </trkpt>
      <trkpt lat="48.36128" lon="2.14859">
        <ele>73.8</ele>
        <time>2023-12-14T10:39:17Z</time>
      </trkpt>
      <trkpt lat="48.36133" lon="2.14855">
        <ele>73.8</ele>
        <time>2023-12-14T10:39:18Z</time>
      </trkpt>
      <trkpt lat="48.36138" lon="2.1485">
        <ele>72.8</ele>
        <time>2023-12-14T10:39:19Z</time>
      </trkpt>
      <trkpt lat="48.36143" lon="2.14845">
        <ele>71.8</ele>
        <time>2023-12-14T10:39:20Z</time>
      </trkpt>
      <trkpt lat="48.36148" lon="2.14841">
        <ele>71.8</ele>
        <time>2023-12-14T10:39:21Z</time>
      </trkpt>
      <trkpt lat="48.36153" lon="2.14836">
        <ele>71.8</ele>
        <time>2023-12-14T10:39:22Z</time>
      </trkpt>
      <trkpt lat="48.36158" lon="2.14832">
        <ele>71.8</ele>
        <time>2023-12-14T10:39:23Z</time>
      </trkpt>
      <trkpt lat="48.36163" lon="2.14827">
        <ele>72.4</ele>
        <time>2023-12-14T10:39:24Z</time>
      </trkpt>
      <trkpt lat="48.36168" lon="2.14822">
        <ele>72.4</ele>
        <time>2023-12-14T10:39:25Z</time>
      </trkpt>
      <trkpt lat="48.36173" lon="2.14818">
        <ele>72.4</ele>
        <time>2023-12-14T10:39:26Z</time>
      </trkpt>
      <trkpt lat="48.36178" lon="2.14813">
        <ele>72.4</ele>
        <time>2023-12-14T10:39:27Z</time>
      </trkpt>
      <trkpt lat="48.36183" lon="2.14808">
        <ele>71.8</ele>
        <time>2023-12-14T10:39:28Z</time>
      </trkpt>
      <trkpt lat="48.36188" lon="2.14804">
        <ele>71.8</ele>
        <time>2023-12-14T10:39:29Z</time>
      </trkpt>
      <trkpt lat="48.36193" lon="2.148">
        <ele>71.8</ele>
        <time>2023-12-14T10:39:30Z</time>
      </trkpt>
      <trkpt lat="48.36198" lon="2.14796">
        <ele>71.8</ele>
        <time>2023-12-14T10:39:31Z</time>
      </trkpt>
      <trkpt lat="48.36203" lon="2.14791">
        <ele>71.6</ele>
        <time>2023-12-14T10:39:32Z</time>
      </trkpt>
      <trkpt lat="48.36208" lon="2.14787">
        <ele>71.6</ele>
        <time>2023-12-14T10:39:33Z</time>
      </trkpt>
      <trkpt lat="48.36213" lon="2.14785">
        <ele>71.6</ele>
        <time>2023-12-14T10:39:34Z</time>
      </trkpt>
      <trkpt lat="48.36218" lon="2.14782">
        <ele>72.6</ele>
        <time>2023-12-14T10:39:35Z</time>
      </trkpt>
      <trkpt lat="48.36223" lon="2.14779">
        <ele>73.2</ele>
        <time>2023-12-14T10:39:36Z</time>
      </trkpt>
      <trkpt lat="48.36228" lon="2.14777">
        <ele>73.2</ele>
        <time>2023-12-14T10:39:37Z</time>
      </trkpt>
      <trkpt lat="48.36233" lon="2.14775">
        <ele>73.2</ele>
        <time>2023-12-14T10:39:38Z</time>
      </trkpt>
      <trkpt lat="48.36238" lon="2.14772">
        <ele>73.2</ele>
        <time>2023-12-14T10:39:39Z</time>
      </trkpt>
      <trkpt lat="48.36243" lon="2.14769">
        <ele>73.8</ele>
        <time>2023-12-14T10:39:40Z</time>
      </trkpt>
      <trkpt lat="48.36248" lon="2.14766">
        <ele>73.8</ele>
        <time>2023-12-14T10:39:41Z</time>
      </trkpt>
      <trkpt lat="48.36252" lon="2.14763">
        <ele>73.8</ele>
        <time>2023-12-14T10:39:42Z</time>
      </trkpt>
      <trkpt lat="48.36257" lon="2.1476">
        <ele>73.2</ele>
        <time>2023-12-14T10:39:43Z</time>
      </trkpt>
      <trkpt lat="48.36262" lon="2.14757">
        <ele>72.6</ele>
        <time>2023-12-14T10:39:44Z</time>
      </trkpt>
      <trkpt lat="48.36267" lon="2.14754">
        <ele>72.6</ele>
        <time>2023-12-14T10:39:45Z</time>
      </trkpt>
      <trkpt lat="48.36272" lon="2.14752">
        <ele>72.6</ele>
        <time>2023-12-14T10:39:46Z</time>
      </trkpt>
      <trkpt lat="48.36276" lon="2.14751">
        <ele>72.6</ele>
        <time>2023-12-14T10:39:47Z</time>
      </trkpt>
      <trkpt lat="48.36281" lon="2.1475">
        <ele>73.8</ele>
        <time>2023-12-14T10:39:48Z</time>
      </trkpt>
      <trkpt lat="48.36286" lon="2.14748">
        <ele>73.8</ele>
        <time>2023-12-14T10:39:49Z</time>
      </trkpt>
      <trkpt lat="48.36291" lon="2.14747">
        <ele>73.8</ele>
        <time>2023-12-14T10:39:50Z</time>
      </trkpt>
      <trkpt lat="48.36296" lon="2.14746">
        <ele>73.8</ele>
        <time>2023-12-14T10:39:51Z</time>
      </trkpt>
      <trkpt lat="48.36301" lon="2.14745">
        <ele>74</ele>
        <time>2023-12-14T10:39:52Z</time>
      </trkpt>
      <trkpt lat="48.36305" lon="2.14742">
        <ele>74</ele>
        <time>2023-12-14T10:39:53Z</time>
      </trkpt>
      <trkpt lat="48.3631" lon="2.1474">
        <ele>74</ele>
        <time>2023-12-14T10:39:54Z</time>
      </trkpt>
      <trkpt lat="48.36315" lon="2.14737">
        <ele>74.8</ele>
        <time>2023-12-14T10:39:55Z</time>
      </trkpt>
      <trkpt lat="48.3632" lon="2.14734">
        <ele>74.6</ele>
        <time>2023-12-14T10:39:56Z</time>
      </trkpt>
      <trkpt lat="48.36325" lon="2.14732">
        <ele>74.6</ele>
        <time>2023-12-14T10:39:57Z</time>
      </trkpt>
      <trkpt lat="48.3633" lon="2.14729">
        <ele>74.6</ele>
        <time>2023-12-14T10:39:58Z</time>
      </trkpt>
      <trkpt lat="48.36335" lon="2.14727">
        <ele>73.6</ele>
        <time>2023-12-14T10:39:59Z</time>
      </trkpt>
      <trkpt lat="48.36341" lon="2.14724">
        <ele>73.2</ele>
        <time>2023-12-14T10:40:00Z</time>
      </trkpt>
      <trkpt lat="48.36346" lon="2.14722">
        <ele>73.2</ele>
        <time>2023-12-14T10:40:01Z</time>
      </trkpt>
      <trkpt lat="48.36352" lon="2.1472">
        <ele>73.2</ele>
        <time>2023-12-14T10:40:02Z</time>
      </trkpt>
      <trkpt lat="48.36358" lon="2.14718">
        <ele>72.2</ele>
        <time>2023-12-14T10:40:03Z</time>
      </trkpt>
      <trkpt lat="48.36364" lon="2.14715">
        <ele>70.8</ele>
        <time>2023-12-14T10:40:04Z</time>
      </trkpt>
      <trkpt lat="48.3637" lon="2.14713">
        <ele>70.8</ele>
        <time>2023-12-14T10:40:05Z</time>
      </trkpt>
      <trkpt lat="48.36376" lon="2.14711">
        <ele>70.8</ele>
        <time>2023-12-14T10:40:06Z</time>
      </trkpt>
      <trkpt lat="48.36382" lon="2.14709">
        <ele>70.8</ele>
        <time>2023-12-14T10:40:07Z</time>
      </trkpt>
      <trkpt lat="48.36388" lon="2.14707">
        <ele>71.6</ele>
        <time>2023-12-14T10:40:08Z</time>
      </trkpt>
      <trkpt lat="48.36395" lon="2.14705">
        <ele>71.6</ele>
        <time>2023-12-14T10:40:09Z</time>
      </trkpt>
      <trkpt lat="48.36402" lon="2.14702">
        <ele>71.6</ele>
        <time>2023-12-14T10:40:10Z</time>
      </trkpt>
      <trkpt lat="48.36409" lon="2.14701">
        <ele>70.6</ele>
        <time>2023-12-14T10:40:11Z</time>
      </trkpt>
      <trkpt lat="48.36416" lon="2.14698">
        <ele>68.2</ele>
        <time>2023-12-14T10:40:12Z</time>
      </trkpt>
      <trkpt lat="48.36422" lon="2.14693">
        <ele>68.2</ele>
        <time>2023-12-14T10:40:13Z</time>
      </trkpt>
      <trkpt lat="48.36429" lon="2.14689">
        <ele>68.2</ele>
        <time>2023-12-14T10:40:14Z</time>
      </trkpt>
      <trkpt lat="48.36436" lon="2.14687">
        <ele>67.2</ele>
        <time>2023-12-14T10:40:15Z</time>
      </trkpt>
      <trkpt lat="48.36444" lon="2.14686">
        <ele>65.6</ele>
        <time>2023-12-14T10:40:16Z</time>
      </trkpt>
      <trkpt lat="48.36451" lon="2.14686">
        <ele>65.6</ele>
        <time>2023-12-14T10:40:17Z</time>
      </trkpt>
      <trkpt lat="48.36459" lon="2.14688">
        <ele>65.6</ele>
        <time>2023-12-14T10:40:18Z</time>
      </trkpt>
      <trkpt lat="48.36466" lon="2.14689">
        <ele>66.4</ele>
        <time>2023-12-14T10:40:19Z</time>
      </trkpt>
      <trkpt lat="48.36473" lon="2.14691">
        <ele>66.4</ele>
        <time>2023-12-14T10:40:20Z</time>
      </trkpt>
      <trkpt lat="48.3648" lon="2.14693">
        <ele>66.4</ele>
        <time>2023-12-14T10:40:21Z</time>
      </trkpt>
      <trkpt lat="48.36487" lon="2.14696">
        <ele>66.4</ele>
        <time>2023-12-14T10:40:22Z</time>
      </trkpt>
      <trkpt lat="48.36493" lon="2.14697">
        <ele>65.4</ele>
        <time>2023-12-14T10:40:23Z</time>
      </trkpt>
      <trkpt lat="48.36501" lon="2.14699">
        <ele>65.2</ele>
        <time>2023-12-14T10:40:24Z</time>
      </trkpt>
      <trkpt lat="48.36507" lon="2.14703">
        <ele>65.2</ele>
        <time>2023-12-14T10:40:25Z</time>
      </trkpt>
      <trkpt lat="48.36512" lon="2.14706">
        <ele>65.2</ele>
        <time>2023-12-14T10:40:26Z</time>
      </trkpt>
      <trkpt lat="48.36518" lon="2.14708">
        <ele>64.2</ele>
        <time>2023-12-14T10:40:27Z</time>
      </trkpt>
      <trkpt lat="48.36524" lon="2.1471">
        <ele>63.4</ele>
        <time>2023-12-14T10:40:28Z</time>
      </trkpt>
      <trkpt lat="48.36529" lon="2.14712">
        <ele>63.4</ele>
        <time>2023-12-14T10:40:29Z</time>
      </trkpt>
      <trkpt lat="48.36536" lon="2.14716">
        <ele>63.4</ele>
        <time>2023-12-14T10:40:30Z</time>
      </trkpt>
      <trkpt lat="48.36543" lon="2.14719">
        <ele>63.4</ele>
        <time>2023-12-14T10:40:31Z</time>
      </trkpt>
      <trkpt lat="48.3655" lon="2.14723">
        <ele>63</ele>
        <time>2023-12-14T10:40:32Z</time>
      </trkpt>
      <trkpt lat="48.36555" lon="2.14725">
        <ele>63</ele>
        <time>2023-12-14T10:40:33Z</time>
      </trkpt>
      <trkpt lat="48.36561" lon="2.14729">
        <ele>63</ele>
        <time>2023-12-14T10:40:34Z</time>
      </trkpt>
      <trkpt lat="48.36568" lon="2.14734">
        <ele>63</ele>
        <time>2023-12-14T10:40:35Z</time>
      </trkpt>
      <trkpt lat="48.36574" lon="2.14738">
        <ele>63.6</ele>
        <time>2023-12-14T10:40:36Z</time>
      </trkpt>
      <trkpt lat="48.36579" lon="2.14742">
        <ele>63.6</ele>
        <time>2023-12-14T10:40:37Z</time>
      </trkpt>
      <trkpt lat="48.36584" lon="2.14746">
        <ele>63.6</ele>
        <time>2023-12-14T10:40:38Z</time>
      </trkpt>
      <trkpt lat="48.36587" lon="2.1475">
        <ele>63.8</ele>
        <time>2023-12-14T10:40:39Z</time>
      </trkpt>
      <trkpt lat="48.36593" lon="2.14755">
        <ele>63.2</ele>
        <time>2023-12-14T10:40:40Z</time>
      </trkpt>
      <trkpt lat="48.36599" lon="2.14759">
        <ele>63.2</ele>
        <time>2023-12-14T10:40:41Z</time>
      </trkpt>
      <trkpt lat="48.36605" lon="2.14764">
        <ele>63.2</ele>
        <time>2023-12-14T10:40:42Z</time>
      </trkpt>
      <trkpt lat="48.3661" lon="2.14769">
        <ele>64.2</ele>
        <time>2023-12-14T10:40:43Z</time>
      </trkpt>
      <trkpt lat="48.36613" lon="2.14773">
        <ele>64.4</ele>
        <time>2023-12-14T10:40:44Z</time>
      </trkpt>
      <trkpt lat="48.36619" lon="2.14778">
        <ele>64.4</ele>
        <time>2023-12-14T10:40:45Z</time>
      </trkpt>
      <trkpt lat="48.36626" lon="2.14783">
        <ele>64.4</ele>
        <time>2023-12-14T10:40:46Z</time>
      </trkpt>
      <trkpt lat="48.36633" lon="2.14788">
        <ele>64.6</ele>
        <time>2023-12-14T10:40:47Z</time>
      </trkpt>
      <trkpt lat="48.36639" lon="2.14793">
        <ele>64.4</ele>
        <time>2023-12-14T10:40:48Z</time>
      </trkpt>
      <trkpt lat="48.36646" lon="2.14798">
        <ele>64.4</ele>
        <time>2023-12-14T10:40:49Z</time>
      </trkpt>
      <trkpt lat="48.36652" lon="2.14803">
        <ele>64.4</ele>
        <time>2023-12-14T10:40:50Z</time>
      </trkpt>
      <trkpt lat="48.36659" lon="2.14808">
        <ele>63.4</ele>
        <time>2023-12-14T10:40:51Z</time>
      </trkpt>
      <trkpt lat="48.36665" lon="2.14813">
        <ele>63.2</ele>
        <time>2023-12-14T10:40:52Z</time>
      </trkpt>
      <trkpt lat="48.36671" lon="2.14818">
        <ele>63.2</ele>
        <time>2023-12-14T10:40:53Z</time>
      </trkpt>
      <trkpt lat="48.36678" lon="2.14823">
        <ele>63.2</ele>
        <time>2023-12-14T10:40:54Z</time>
      </trkpt>
      <trkpt lat="48.36684" lon="2.14828">
        <ele>63.2</ele>
        <time>2023-12-14T10:40:55Z</time>
      </trkpt>
      <trkpt lat="48.3669" lon="2.14833">
        <ele>62.6</ele>
        <time>2023-12-14T10:40:56Z</time>
      </trkpt>
      <trkpt lat="48.36696" lon="2.14838">
        <ele>62.6</ele>
        <time>2023-12-14T10:40:57Z</time>
      </trkpt>
      <trkpt lat="48.36703" lon="2.14843">
        <ele>62.6</ele>
        <time>2023-12-14T10:40:58Z</time>
      </trkpt>
      <trkpt lat="48.36708" lon="2.14848">
        <ele>62.6</ele>
        <time>2023-12-14T10:40:59Z</time>
      </trkpt>
      <trkpt lat="48.36714" lon="2.14853">
        <ele>63.6</ele>
        <time>2023-12-14T10:41:00Z</time>
      </trkpt>
      <trkpt lat="48.3672" lon="2.14859">
        <ele>63.6</ele>
        <time>2023-12-14T10:41:01Z</time>
      </trkpt>
      <trkpt lat="48.36726" lon="2.14863">
        <ele>63.6</ele>
        <time>2023-12-14T10:41:02Z</time>
      </trkpt>
      <trkpt lat="48.36731" lon="2.14868">
        <ele>62.8</ele>
        <time>2023-12-14T10:41:03Z</time>
      </trkpt>
      <trkpt lat="48.36737" lon="2.14873">
        <ele>63</ele>
        <time>2023-12-14T10:41:04Z</time>
      </trkpt>
      <trkpt lat="48.36743" lon="2.14879">
        <ele>63</ele>
        <time>2023-12-14T10:41:05Z</time>
      </trkpt>
      <trkpt lat="48.36748" lon="2.14884">
        <ele>63</ele>
        <time>2023-12-14T10:41:06Z</time>
      </trkpt>
      <trkpt lat="48.36754" lon="2.14889">
        <ele>63</ele>
        <time>2023-12-14T10:41:07Z</time>
      </trkpt>
      <trkpt lat="48.36759" lon="2.14894">
        <ele>64</ele>
        <time>2023-12-14T10:41:08Z</time>
      </trkpt>
      <trkpt lat="48.36765" lon="2.14899">
        <ele>64</ele>
        <time>2023-12-14T10:41:09Z</time>
      </trkpt>
      <trkpt lat="48.3677" lon="2.14904">
        <ele>64</ele>
        <time>2023-12-14T10:41:10Z</time>
      </trkpt>
      <trkpt lat="48.36776" lon="2.14909">
        <ele>64.2</ele>
        <time>2023-12-14T10:41:11Z</time>
      </trkpt>
      <trkpt lat="48.36781" lon="2.14914">
        <ele>64.4</ele>
        <time>2023-12-14T10:41:12Z</time>
      </trkpt>
      <trkpt lat="48.36787" lon="2.14918">
        <ele>64.4</ele>
        <time>2023-12-14T10:41:13Z</time>
      </trkpt>
      <trkpt lat="48.36792" lon="2.14923">
        <ele>64.4</ele>
        <time>2023-12-14T10:41:14Z</time>
      </trkpt>
      <trkpt lat="48.36798" lon="2.14927">
        <ele>64.4</ele>
        <time>2023-12-14T10:41:15Z</time>
      </trkpt>
      <trkpt lat="48.36804" lon="2.14932">
        <ele>63.6</ele>
        <time>2023-12-14T10:41:16Z</time>
      </trkpt>
      <trkpt lat="48.36809" lon="2.14937">
        <ele>63.6</ele>
        <time>2023-12-14T10:41:17Z</time>
      </trkpt>
      <trkpt lat="48.36814" lon="2.14942">
        <ele>63.6</ele>
        <time>2023-12-14T10:41:18Z</time>
      </trkpt>
      <trkpt lat="48.3682" lon="2.14946">
        <ele>63.6</ele>
        <time>2023-12-14T10:41:19Z</time>
      </trkpt>
      <trkpt lat="48.36825" lon="2.1495">
        <ele>64</ele>
        <time>2023-12-14T10:41:20Z</time>
      </trkpt>
      <trkpt lat="48.3683" lon="2.14955">
        <ele>64</ele>
        <time>2023-12-14T10:41:21Z</time>
      </trkpt>
      <trkpt lat="48.36834" lon="2.1496">
        <ele>64</ele>
        <time>2023-12-14T10:41:22Z</time>
      </trkpt>
      <trkpt lat="48.36839" lon="2.14964">
        <ele>64</ele>
        <time>2023-12-14T10:41:23Z</time>
      </trkpt>
      <trkpt lat="48.36843" lon="2.14968">
        <ele>64.6</ele>
        <time>2023-12-14T10:41:24Z</time>
      </trkpt>
      <trkpt lat="48.36848" lon="2.14972">
        <ele>64.6</ele>
        <time>2023-12-14T10:41:25Z</time>
      </trkpt>
      <trkpt lat="48.36853" lon="2.14977">
        <ele>64.6</ele>
        <time>2023-12-14T10:41:26Z</time>
      </trkpt>
      <trkpt lat="48.36857" lon="2.14982">
        <ele>64.2</ele>
        <time>2023-12-14T10:41:27Z</time>
      </trkpt>
      <trkpt lat="48.36861" lon="2.14986">
        <ele>65</ele>
        <time>2023-12-14T10:41:28Z</time>
      </trkpt>
      <trkpt lat="48.36865" lon="2.1499">
        <ele>65</ele>
        <time>2023-12-14T10:41:29Z</time>
      </trkpt>
      <trkpt lat="48.36869" lon="2.14994">
        <ele>65</ele>
        <time>2023-12-14T10:41:30Z</time>
      </trkpt>
      <trkpt lat="48.36874" lon="2.14998">
        <ele>65.2</ele>
        <time>2023-12-14T10:41:31Z</time>
      </trkpt>
      <trkpt lat="48.36879" lon="2.15003">
        <ele>66</ele>
        <time>2023-12-14T10:41:32Z</time>
      </trkpt>
      <trkpt lat="48.36884" lon="2.15007">
        <ele>66</ele>
        <time>2023-12-14T10:41:33Z</time>
      </trkpt>
      <trkpt lat="48.3689" lon="2.15011">
        <ele>66</ele>
        <time>2023-12-14T10:41:34Z</time>
      </trkpt>
      <trkpt lat="48.36895" lon="2.15015">
        <ele>65.4</ele>
        <time>2023-12-14T10:41:35Z</time>
      </trkpt>
      <trkpt lat="48.369" lon="2.15019">
        <ele>66</ele>
        <time>2023-12-14T10:41:36Z</time>
      </trkpt>
      <trkpt lat="48.36906" lon="2.15024">
        <ele>66</ele>
        <time>2023-12-14T10:41:37Z</time>
      </trkpt>
      <trkpt lat="48.3691" lon="2.15028">
        <ele>66</ele>
        <time>2023-12-14T10:41:38Z</time>
      </trkpt>
      <trkpt lat="48.36914" lon="2.15032">
        <ele>65</ele>
        <time>2023-12-14T10:41:39Z</time>
      </trkpt>
      <trkpt lat="48.3692" lon="2.15037">
        <ele>65</ele>
        <time>2023-12-14T10:41:40Z</time>
      </trkpt>
      <trkpt lat="48.36925" lon="2.15041">
        <ele>65</ele>
        <time>2023-12-14T10:41:41Z</time>
      </trkpt>
      <trkpt lat="48.3693" lon="2.15046">
        <ele>65</ele>
        <time>2023-12-14T10:41:42Z</time>
      </trkpt>
      <trkpt lat="48.36935" lon="2.1505">
        <ele>65</ele>
        <time>2023-12-14T10:41:43Z</time>
      </trkpt>
      <trkpt lat="48.3694" lon="2.15054">
        <ele>66.4</ele>
        <time>2023-12-14T10:41:44Z</time>
      </trkpt>
      <trkpt lat="48.36945" lon="2.15058">
        <ele>66.4</ele>
        <time>2023-12-14T10:41:45Z</time>
      </trkpt>
      <trkpt lat="48.3695" lon="2.15062">
        <ele>66.4</ele>
        <time>2023-12-14T10:41:46Z</time>
      </trkpt>
      <trkpt lat="48.36956" lon="2.15067">
        <ele>66.4</ele>
        <time>2023-12-14T10:41:47Z</time>
      </trkpt>
      <trkpt lat="48.36961" lon="2.15071">
        <ele>66.2</ele>
        <time>2023-12-14T10:41:48Z</time>
      </trkpt>
      <trkpt lat="48.36966" lon="2.15076">
        <ele>66.2</ele>
        <time>2023-12-14T10:41:49Z</time>
      </trkpt>
      <trkpt lat="48.36971" lon="2.1508">
        <ele>66.2</ele>
        <time>2023-12-14T10:41:50Z</time>
      </trkpt>
      <trkpt lat="48.36976" lon="2.15083">
        <ele>65.2</ele>
        <time>2023-12-14T10:41:51Z</time>
      </trkpt>
      <trkpt lat="48.36981" lon="2.15087">
        <ele>66.4</ele>
        <time>2023-12-14T10:41:52Z</time>
      </trkpt>
      <trkpt lat="48.36986" lon="2.15091">
        <ele>66.4</ele>
        <time>2023-12-14T10:41:53Z</time>
      </trkpt>
      <trkpt lat="48.36991" lon="2.15094">
        <ele>66.4</ele>
        <time>2023-12-14T10:41:54Z</time>
      </trkpt>
      <trkpt lat="48.36996" lon="2.15098">
        <ele>66.4</ele>
        <time>2023-12-14T10:41:55Z</time>
      </trkpt>
      <trkpt lat="48.37001" lon="2.15102">
        <ele>67.2</ele>
        <time>2023-12-14T10:41:56Z</time>
      </trkpt>
      <trkpt lat="48.37006" lon="2.15106">
        <ele>67.2</ele>
        <time>2023-12-14T10:41:57Z</time>
      </trkpt>
      <trkpt lat="48.37011" lon="2.15109">
        <ele>67.2</ele>
        <time>2023-12-14T10:41:58Z</time>
      </trkpt>
      <trkpt lat="48.37016" lon="2.15113">
        <ele>68.2</ele>
        <time>2023-12-14T10:41:59Z</time>
      </trkpt>
      <trkpt lat="48.37021" lon="2.15117">
        <ele>68.4</ele>
        <time>2023-12-14T10:42:00Z</time>
      </trkpt>
      <trkpt lat="48.37026" lon="2.15121">
        <ele>68.4</ele>
        <time>2023-12-14T10:42:01Z</time>
      </trkpt>
      <trkpt lat="48.37031" lon="2.15125">
        <ele>68.4</ele>
        <time>2023-12-14T10:42:02Z</time>
      </trkpt>
      <trkpt lat="48.37036" lon="2.15129">
        <ele>67.4</ele>
        <time>2023-12-14T10:42:03Z</time>
      </trkpt>
      <trkpt lat="48.37041" lon="2.15133">
        <ele>67.4</ele>
        <time>2023-12-14T10:42:04Z</time>
      </trkpt>
      <trkpt lat="48.37046" lon="2.15137">
        <ele>67.4</ele>
        <time>2023-12-14T10:42:05Z</time>
      </trkpt>
      <trkpt lat="48.37051" lon="2.15141">
        <ele>67.4</ele>
        <time>2023-12-14T10:42:06Z</time>
      </trkpt>
      <trkpt lat="48.37056" lon="2.15145">
        <ele>67</ele>
        <time>2023-12-14T10:42:07Z</time>
      </trkpt>
      <trkpt lat="48.3706" lon="2.15148">
        <ele>66.8</ele>
        <time>2023-12-14T10:42:08Z</time>
      </trkpt>
      <trkpt lat="48.37065" lon="2.15152">
        <ele>66.8</ele>
        <time>2023-12-14T10:42:09Z</time>
      </trkpt>
      <trkpt lat="48.3707" lon="2.15156">
        <ele>66.8</ele>
        <time>2023-12-14T10:42:10Z</time>
      </trkpt>
      <trkpt lat="48.37075" lon="2.15159">
        <ele>66.8</ele>
        <time>2023-12-14T10:42:11Z</time>
      </trkpt>
      <trkpt lat="48.3708" lon="2.15163">
        <ele>67.6</ele>
        <time>2023-12-14T10:42:12Z</time>
      </trkpt>
      <trkpt lat="48.37085" lon="2.15167">
        <ele>67.6</ele>
        <time>2023-12-14T10:42:13Z</time>
      </trkpt>
      <trkpt lat="48.3709" lon="2.1517">
        <ele>67.6</ele>
        <time>2023-12-14T10:42:14Z</time>
      </trkpt>
      <trkpt lat="48.37094" lon="2.15174">
        <ele>67.6</ele>
        <time>2023-12-14T10:42:15Z</time>
      </trkpt>
      <trkpt lat="48.37099" lon="2.15178">
        <ele>67.4</ele>
        <time>2023-12-14T10:42:16Z</time>
      </trkpt>
      <trkpt lat="48.37104" lon="2.15181">
        <ele>67.4</ele>
        <time>2023-12-14T10:42:17Z</time>
      </trkpt>
      <trkpt lat="48.37109" lon="2.15185">
        <ele>67.4</ele>
        <time>2023-12-14T10:42:18Z</time>
      </trkpt>
      <trkpt lat="48.37114" lon="2.15189">
        <ele>66.8</ele>
        <time>2023-12-14T10:42:19Z</time>
      </trkpt>
      <trkpt lat="48.37119" lon="2.15192">
        <ele>67.4</ele>
        <time>2023-12-14T10:42:20Z</time>
      </trkpt>
      <trkpt lat="48.37124" lon="2.15196">
        <ele>67.4</ele>
        <time>2023-12-14T10:42:21Z</time>
      </trkpt>
      <trkpt lat="48.37129" lon="2.152">
        <ele>67.4</ele>
        <time>2023-12-14T10:42:22Z</time>
      </trkpt>
      <trkpt lat="48.37134" lon="2.15203">
        <ele>68.4</ele>
        <time>2023-12-14T10:42:23Z</time>
      </trkpt>
      <trkpt lat="48.37139" lon="2.15207">
        <ele>67.6</ele>
        <time>2023-12-14T10:42:24Z</time>
      </trkpt>
      <trkpt lat="48.37144" lon="2.1521">
        <ele>67.6</ele>
        <time>2023-12-14T10:42:25Z</time>
      </trkpt>
      <trkpt lat="48.37149" lon="2.15214">
        <ele>67.6</ele>
        <time>2023-12-14T10:42:26Z</time>
      </trkpt>
      <trkpt lat="48.37153" lon="2.15217">
        <ele>67.6</ele>
        <time>2023-12-14T10:42:27Z</time>
      </trkpt>
      <trkpt lat="48.37158" lon="2.15221">
        <ele>68.8</ele>
        <time>2023-12-14T10:42:28Z</time>
      </trkpt>
      <trkpt lat="48.37162" lon="2.15224">
        <ele>68.8</ele>
        <time>2023-12-14T10:42:29Z</time>
      </trkpt>
      <trkpt lat="48.37167" lon="2.15227">
        <ele>68.8</ele>
        <time>2023-12-14T10:42:30Z</time>
      </trkpt>
      <trkpt lat="48.37171" lon="2.15231">
        <ele>68.8</ele>
        <time>2023-12-14T10:42:31Z</time>
      </trkpt>
      <trkpt lat="48.37176" lon="2.15234">
        <ele>69.4</ele>
        <time>2023-12-14T10:42:32Z</time>
      </trkpt>
      <trkpt lat="48.37181" lon="2.15237">
        <ele>69.4</ele>
        <time>2023-12-14T10:42:33Z</time>
      </trkpt>
      <trkpt lat="48.37185" lon="2.1524">
        <ele>69.4</ele>
        <time>2023-12-14T10:42:34Z</time>
      </trkpt>
      <trkpt lat="48.3719" lon="2.15243">
        <ele>69.4</ele>
        <time>2023-12-14T10:42:35Z</time>
      </trkpt>
      <trkpt lat="48.37195" lon="2.15246">
        <ele>68.6</ele>
        <time>2023-12-14T10:42:36Z</time>
      </trkpt>
      <trkpt lat="48.37199" lon="2.1525">
        <ele>68.6</ele>
        <time>2023-12-14T10:42:37Z</time>
      </trkpt>
      <trkpt lat="48.37204" lon="2.15253">
        <ele>68.6</ele>
        <time>2023-12-14T10:42:38Z</time>
      </trkpt>
      <trkpt lat="48.37209" lon="2.15256">
        <ele>68.6</ele>
        <time>2023-12-14T10:42:39Z</time>
      </trkpt>
      <trkpt lat="48.37213" lon="2.15261">
        <ele>68.4</ele>
        <time>2023-12-14T10:42:40Z</time>
      </trkpt>
      <trkpt lat="48.37217" lon="2.15265">
        <ele>68.4</ele>
        <time>2023-12-14T10:42:41Z</time>
      </trkpt>
      <trkpt lat="48.37222" lon="2.15268">
        <ele>68.4</ele>
        <time>2023-12-14T10:42:42Z</time>
      </trkpt>
      <trkpt lat="48.37227" lon="2.15271">
        <ele>69.4</ele>
        <time>2023-12-14T10:42:43Z</time>
      </trkpt>
      <trkpt lat="48.37232" lon="2.15273">
        <ele>70.6</ele>
        <time>2023-12-14T10:42:44Z</time>
      </trkpt>
      <trkpt lat="48.37236" lon="2.15277">
        <ele>70.6</ele>
        <time>2023-12-14T10:42:45Z</time>
      </trkpt>
      <trkpt lat="48.37241" lon="2.1528">
        <ele>70.6</ele>
        <time>2023-12-14T10:42:46Z</time>
      </trkpt>
      <trkpt lat="48.37246" lon="2.15283">
        <ele>71</ele>
        <time>2023-12-14T10:42:47Z</time>
      </trkpt>
      <trkpt lat="48.3725" lon="2.15287">
        <ele>69.8</ele>
        <time>2023-12-14T10:42:48Z</time>
      </trkpt>
      <trkpt lat="48.37255" lon="2.1529">
        <ele>69.8</ele>
        <time>2023-12-14T10:42:49Z</time>
      </trkpt>
      <trkpt lat="48.37259" lon="2.15295">
        <ele>69.8</ele>
        <time>2023-12-14T10:42:50Z</time>
      </trkpt>
      <trkpt lat="48.37264" lon="2.15299">
        <ele>70.8</ele>
        <time>2023-12-14T10:42:51Z</time>
      </trkpt>
      <trkpt lat="48.37268" lon="2.15303">
        <ele>71.4</ele>
        <time>2023-12-14T10:42:52Z</time>
      </trkpt>
      <trkpt lat="48.37273" lon="2.15306">
        <ele>71.4</ele>
        <time>2023-12-14T10:42:53Z</time>
      </trkpt>
      <trkpt lat="48.37278" lon="2.15308">
        <ele>71.4</ele>
        <time>2023-12-14T10:42:54Z</time>
      </trkpt>
      <trkpt lat="48.37283" lon="2.15311">
        <ele>71.4</ele>
        <time>2023-12-14T10:42:55Z</time>
      </trkpt>
      <trkpt lat="48.37287" lon="2.15314">
        <ele>71</ele>
        <time>2023-12-14T10:42:56Z</time>
      </trkpt>
      <trkpt lat="48.37292" lon="2.15318">
        <ele>71</ele>
        <time>2023-12-14T10:42:57Z</time>
      </trkpt>
      <trkpt lat="48.37296" lon="2.15322">
        <ele>71</ele>
        <time>2023-12-14T10:42:58Z</time>
      </trkpt>
      <trkpt lat="48.373" lon="2.15326">
        <ele>72</ele>
        <time>2023-12-14T10:42:59Z</time>
      </trkpt>
      <trkpt lat="48.37305" lon="2.1533">
        <ele>71.8</ele>
        <time>2023-12-14T10:43:00Z</time>
      </trkpt>
      <trkpt lat="48.3731" lon="2.15333">
        <ele>71.8</ele>
        <time>2023-12-14T10:43:01Z</time>
      </trkpt>
      <trkpt lat="48.37315" lon="2.15336">
        <ele>71.8</ele>
        <time>2023-12-14T10:43:02Z</time>
      </trkpt>
      <trkpt lat="48.37319" lon="2.1534">
        <ele>70.8</ele>
        <time>2023-12-14T10:43:03Z</time>
      </trkpt>
      <trkpt lat="48.37324" lon="2.15344">
        <ele>70.8</ele>
        <time>2023-12-14T10:43:04Z</time>
      </trkpt>
      <trkpt lat="48.37328" lon="2.15348">
        <ele>70.8</ele>
        <time>2023-12-14T10:43:05Z</time>
      </trkpt>
      <trkpt lat="48.37332" lon="2.15351">
        <ele>70.8</ele>
        <time>2023-12-14T10:43:06Z</time>
      </trkpt>
      <trkpt lat="48.37336" lon="2.15356">
        <ele>71</ele>
        <time>2023-12-14T10:43:07Z</time>
      </trkpt>
      <trkpt lat="48.3734" lon="2.15359">
        <ele>71.4</ele>
        <time>2023-12-14T10:43:08Z</time>
      </trkpt>
      <trkpt lat="48.37344" lon="2.15363">
        <ele>71.4</ele>
        <time>2023-12-14T10:43:09Z</time>
      </trkpt>
      <trkpt lat="48.37349" lon="2.15366">
        <ele>71.4</ele>
        <time>2023-12-14T10:43:10Z</time>
      </trkpt>
      <trkpt lat="48.37354" lon="2.1537">
        <ele>71.4</ele>
        <time>2023-12-14T10:43:11Z</time>
      </trkpt>
      <trkpt lat="48.37358" lon="2.15373">
        <ele>70.8</ele>
        <time>2023-12-14T10:43:12Z</time>
      </trkpt>
      <trkpt lat="48.37362" lon="2.15376">
        <ele>70.8</ele>
        <time>2023-12-14T10:43:13Z</time>
      </trkpt>
      <trkpt lat="48.37367" lon="2.1538">
        <ele>70.8</ele>
        <time>2023-12-14T10:43:14Z</time>
      </trkpt>
      <trkpt lat="48.37371" lon="2.15383">
        <ele>71.8</ele>
        <time>2023-12-14T10:43:15Z</time>
      </trkpt>
      <trkpt lat="48.37374" lon="2.15386">
        <ele>72.8</ele>
        <time>2023-12-14T10:43:16Z</time>
      </trkpt>
      <trkpt lat="48.37378" lon="2.15389">
        <ele>72.8</ele>
        <time>2023-12-14T10:43:17Z</time>
      </trkpt>
      <trkpt lat="48.37382" lon="2.15392">
        <ele>72.8</ele>
        <time>2023-12-14T10:43:18Z</time>
      </trkpt>
      <trkpt lat="48.37387" lon="2.15395">
        <ele>72.8</ele>
        <time>2023-12-14T10:43:19Z</time>
      </trkpt>
      <trkpt lat="48.37391" lon="2.15398">
        <ele>73.4</ele>
        <time>2023-12-14T10:43:20Z</time>
      </trkpt>
      <trkpt lat="48.37394" lon="2.15401">
        <ele>73.4</ele>
        <time>2023-12-14T10:43:21Z</time>
      </trkpt>
      <trkpt lat="48.37398" lon="2.15404">
        <ele>73.4</ele>
        <time>2023-12-14T10:43:22Z</time>
      </trkpt>
      <trkpt lat="48.37402" lon="2.15407">
        <ele>74</ele>
        <time>2023-12-14T10:43:23Z</time>
      </trkpt>
      <trkpt lat="48.37407" lon="2.1541">
        <ele>74</ele>
        <time>2023-12-14T10:43:24Z</time>
      </trkpt>
      <trkpt lat="48.37411" lon="2.15413">
        <ele>74</ele>
        <time>2023-12-14T10:43:25Z</time>
      </trkpt>
      <trkpt lat="48.37416" lon="2.15416">
        <ele>74</ele>
        <time>2023-12-14T10:43:26Z</time>
      </trkpt>
      <trkpt lat="48.3742" lon="2.15419">
        <ele>75</ele>
        <time>2023-12-14T10:43:27Z</time>
      </trkpt>
      <trkpt lat="48.37424" lon="2.15422">
        <ele>76</ele>
        <time>2023-12-14T10:43:28Z</time>
      </trkpt>
      <trkpt lat="48.37427" lon="2.15425">
        <ele>76</ele>
        <time>2023-12-14T10:43:29Z</time>
      </trkpt>
      <trkpt lat="48.37431" lon="2.15428">
        <ele>76</ele>
        <time>2023-12-14T10:43:30Z</time>
      </trkpt>
      <trkpt lat="48.37433" lon="2.15431">
        <ele>77</ele>
        <time>2023-12-14T10:43:31Z</time>
      </trkpt>
      <trkpt lat="48.37436" lon="2.15433">
        <ele>77.4</ele>
        <time>2023-12-14T10:43:32Z</time>
      </trkpt>
      <trkpt lat="48.3744" lon="2.15435">
        <ele>77.4</ele>
        <time>2023-12-14T10:43:33Z</time>
      </trkpt>
      <trkpt lat="48.37443" lon="2.15436">
        <ele>77.4</ele>
        <time>2023-12-14T10:43:34Z</time>
      </trkpt>
      <trkpt lat="48.37447" lon="2.15437">
        <ele>76.4</ele>
        <time>2023-12-14T10:43:35Z</time>
      </trkpt>
      <trkpt lat="48.37451" lon="2.15438">
        <ele>76.2</ele>
        <time>2023-12-14T10:43:36Z</time>
      </trkpt>
      <trkpt lat="48.37454" lon="2.1544">
        <ele>76.2</ele>
        <time>2023-12-14T10:43:37Z</time>
      </trkpt>
      <trkpt lat="48.37459" lon="2.15441">
        <ele>76.2</ele>
        <time>2023-12-14T10:43:38Z</time>
      </trkpt>
      <trkpt lat="48.37463" lon="2.15442">
        <ele>75.4</ele>
        <time>2023-12-14T10:43:39Z</time>
      </trkpt>
      <trkpt lat="48.37467" lon="2.15443">
        <ele>75.6</ele>
        <time>2023-12-14T10:43:40Z</time>
      </trkpt>
      <trkpt lat="48.37471" lon="2.15445">
        <ele>75.6</ele>
        <time>2023-12-14T10:43:41Z</time>
      </trkpt>
      <trkpt lat="48.37475" lon="2.15447">
        <ele>75.6</ele>
        <time>2023-12-14T10:43:42Z</time>
      </trkpt>
      <trkpt lat="48.37479" lon="2.15449">
        <ele>75.4</ele>
        <time>2023-12-14T10:43:43Z</time>
      </trkpt>
      <trkpt lat="48.37484" lon="2.1545">
        <ele>74.6</ele>
        <time>2023-12-14T10:43:44Z</time>
      </trkpt>
      <trkpt lat="48.37489" lon="2.15452">
        <ele>74.6</ele>
        <time>2023-12-14T10:43:45Z</time>
      </trkpt>
      <trkpt lat="48.37494" lon="2.15455">
        <ele>74.6</ele>
        <time>2023-12-14T10:43:46Z</time>
      </trkpt>
      <trkpt lat="48.37499" lon="2.15457">
        <ele>73.6</ele>
        <time>2023-12-14T10:43:47Z</time>
      </trkpt>
      <trkpt lat="48.37504" lon="2.15461">
        <ele>73.2</ele>
        <time>2023-12-14T10:43:48Z</time>
      </trkpt>
      <trkpt lat="48.3751" lon="2.15464">
        <ele>73.2</ele>
        <time>2023-12-14T10:43:49Z</time>
      </trkpt>
      <trkpt lat="48.37516" lon="2.15468">
        <ele>73.2</ele>
        <time>2023-12-14T10:43:50Z</time>
      </trkpt>
      <trkpt lat="48.37521" lon="2.15471">
        <ele>73.2</ele>
        <time>2023-12-14T10:43:51Z</time>
      </trkpt>
      <trkpt lat="48.37526" lon="2.15475">
        <ele>73.6</ele>
        <time>2023-12-14T10:43:52Z</time>
      </trkpt>
      <trkpt lat="48.3753" lon="2.15478">
        <ele>73.6</ele>
        <time>2023-12-14T10:43:53Z</time>
      </trkpt>
      <trkpt lat="48.37533" lon="2.1548">
        <ele>73.6</ele>
        <time>2023-12-14T10:43:54Z</time>
      </trkpt>
      <trkpt lat="48.37534" lon="2.15481">
        <ele>73.6</ele>
        <time>2023-12-14T10:43:55Z</time>
      </trkpt>
      <trkpt lat="48.37537" lon="2.15483">
        <ele>73.2</ele>
        <time>2023-12-14T10:43:56Z</time>
      </trkpt>
      <trkpt lat="48.3754" lon="2.15483">
        <ele>73.2</ele>
        <time>2023-12-14T10:43:57Z</time>
      </trkpt>
      <trkpt lat="48.37543" lon="2.15481">
        <ele>73.2</ele>
        <time>2023-12-14T10:43:58Z</time>
      </trkpt>
      <trkpt lat="48.37546" lon="2.15478">
        <ele>73.2</ele>
        <time>2023-12-14T10:43:59Z</time>
      </trkpt>
      <trkpt lat="48.37549" lon="2.15474">
        <ele>72.6</ele>
        <time>2023-12-14T10:44:00Z</time>
      </trkpt>
      <trkpt lat="48.37552" lon="2.1547">
        <ele>72.6</ele>
        <time>2023-12-14T10:44:01Z</time>
      </trkpt>
      <trkpt lat="48.37555" lon="2.15466">
        <ele>72.6</ele>
        <time>2023-12-14T10:44:02Z</time>
      </trkpt>
      <trkpt lat="48.37558" lon="2.15462">
        <ele>72.6</ele>
        <time>2023-12-14T10:44:03Z</time>
      </trkpt>
      <trkpt lat="48.37561" lon="2.15458">
        <ele>72.2</ele>
        <time>2023-12-14T10:44:04Z</time>
      </trkpt>
      <trkpt lat="48.37565" lon="2.15454">
        <ele>72.2</ele>
        <time>2023-12-14T10:44:05Z</time>
      </trkpt>
      <trkpt lat="48.37568" lon="2.15449">
        <ele>72.2</ele>
        <time>2023-12-14T10:44:06Z</time>
      </trkpt>
      <trkpt lat="48.37571" lon="2.15445">
        <ele>72.2</ele>
        <time>2023-12-14T10:44:07Z</time>
      </trkpt>
      <trkpt lat="48.37574" lon="2.15441">
        <ele>72.4</ele>
        <time>2023-12-14T10:44:08Z</time>
      </trkpt>
      <trkpt lat="48.37578" lon="2.15436">
        <ele>72.4</ele>
        <time>2023-12-14T10:44:09Z</time>
      </trkpt>
      <trkpt lat="48.37581" lon="2.15432">
        <ele>72.4</ele>
        <time>2023-12-14T10:44:10Z</time>
      </trkpt>
      <trkpt lat="48.37584" lon="2.15427">
        <ele>73.4</ele>
        <time>2023-12-14T10:44:11Z</time>
      </trkpt>
      <trkpt lat="48.37588" lon="2.15422">
        <ele>72.6</ele>
        <time>2023-12-14T10:44:12Z</time>
      </trkpt>
      <trkpt lat="48.37591" lon="2.15418">
        <ele>72.6</ele>
        <time>2023-12-14T10:44:13Z</time>
      </trkpt>
      <trkpt lat="48.37594" lon="2.15413">
        <ele>72.6</ele>
        <time>2023-12-14T10:44:14Z</time>
      </trkpt>
      <trkpt lat="48.37598" lon="2.15408">
        <ele>73.6</ele>
        <time>2023-12-14T10:44:15Z</time>
      </trkpt>
      <trkpt lat="48.37601" lon="2.15403">
        <ele>74</ele>
        <time>2023-12-14T10:44:16Z</time>
      </trkpt>
      <trkpt lat="48.37604" lon="2.15398">
        <ele>74</ele>
        <time>2023-12-14T10:44:17Z</time>
      </trkpt>
      <trkpt lat="48.37608" lon="2.15394">
        <ele>74</ele>
        <time>2023-12-14T10:44:18Z</time>
      </trkpt>
      <trkpt lat="48.37611" lon="2.1539">
        <ele>74</ele>
        <time>2023-12-14T10:44:19Z</time>
      </trkpt>
      <trkpt lat="48.37615" lon="2.15385">
        <ele>74</ele>
        <time>2023-12-14T10:44:20Z</time>
      </trkpt>
      <trkpt lat="48.37618" lon="2.15381">
        <ele>74</ele>
        <time>2023-12-14T10:44:21Z</time>
      </trkpt>
      <trkpt lat="48.37621" lon="2.15376">
        <ele>74</ele>
        <time>2023-12-14T10:44:22Z</time>
      </trkpt>
      <trkpt lat="48.37625" lon="2.15372">
        <ele>74.6</ele>
        <time>2023-12-14T10:44:23Z</time>
      </trkpt>
      <trkpt lat="48.37628" lon="2.15369">
        <ele>74.2</ele>
        <time>2023-12-14T10:44:24Z</time>
      </trkpt>
      <trkpt lat="48.37631" lon="2.15367">
        <ele>74.2</ele>
        <time>2023-12-14T10:44:25Z</time>
      </trkpt>
      <trkpt lat="48.37634" lon="2.15365">
        <ele>74.2</ele>
        <time>2023-12-14T10:44:26Z</time>
      </trkpt>
      <trkpt lat="48.37636" lon="2.15362">
        <ele>75.2</ele>
        <time>2023-12-14T10:44:27Z</time>
      </trkpt>
      <trkpt lat="48.37635" lon="2.1536">
        <ele>76.2</ele>
        <time>2023-12-14T10:44:28Z</time>
      </trkpt>
      <trkpt lat="48.37634" lon="2.1536">
        <ele>76.2</ele>
        <time>2023-12-14T10:44:29Z</time>
      </trkpt>
      <trkpt lat="48.37632" lon="2.15361">
        <ele>76.2</ele>
        <time>2023-12-14T10:44:30Z</time>
      </trkpt>
      <trkpt lat="48.37631" lon="2.15363">
        <ele>75.8</ele>
        <time>2023-12-14T10:44:31Z</time>
      </trkpt>
      <trkpt lat="48.37629" lon="2.15365">
        <ele>76</ele>
        <time>2023-12-14T10:44:32Z</time>
      </trkpt>
      <trkpt lat="48.37628" lon="2.15367">
        <ele>76</ele>
        <time>2023-12-14T10:44:33Z</time>
      </trkpt>
      <trkpt lat="48.37626" lon="2.1537">
        <ele>76</ele>
        <time>2023-12-14T10:44:34Z</time>
      </trkpt>
      <trkpt lat="48.37624" lon="2.15372">
        <ele>75.8</ele>
        <time>2023-12-14T10:44:35Z</time>
      </trkpt>
      <trkpt lat="48.37622" lon="2.15375">
        <ele>75.6</ele>
        <time>2023-12-14T10:44:36Z</time>
      </trkpt>
      <trkpt lat="48.3762" lon="2.15377">
        <ele>75.6</ele>
        <time>2023-12-14T10:44:37Z</time>
      </trkpt>
      <trkpt lat="48.37618" lon="2.15379">
        <ele>75.6</ele>
        <time>2023-12-14T10:44:38Z</time>
      </trkpt>
      <trkpt lat="48.37617" lon="2.1538">
        <ele>75.6</ele>
        <time>2023-12-14T10:44:39Z</time>
      </trkpt>
      <trkpt lat="48.37617" lon="2.1538">
        <ele>75.6</ele>
        <time>2023-12-14T10:44:40Z</time>
      </trkpt>
      <trkpt lat="48.37617" lon="2.1538">
        <ele>75.6</ele>
        <time>2023-12-14T10:44:41Z</time>
      </trkpt>
      <trkpt lat="48.37617" lon="2.15375">
        <ele>74.6</ele>
        <time>2023-12-14T10:44:51Z</time>
      </trkpt>
      <trkpt lat="48.37617" lon="2.15373">
        <ele>74.2</ele>
        <time>2023-12-14T10:44:52Z</time>
      </trkpt>
      <trkpt lat="48.37618" lon="2.15372">
        <ele>74.2</ele>
        <time>2023-12-14T10:44:53Z</time>
      </trkpt>
      <trkpt lat="48.37618" lon="2.15372">
        <ele>74.2</ele>
        <time>2023-12-14T10:44:54Z</time>
      </trkpt>
      <trkpt lat="48.37618" lon="2.15372">
        <ele>74.4</ele>
        <time>2023-12-14T10:44:55Z</time>
      </trkpt>
      <trkpt lat="48.37622" lon="2.15359">
        <ele>73.4</ele>
        <time>2023-12-14T10:45:08Z</time>
      </trkpt>
      <trkpt lat="48.37624" lon="2.15356">
        <ele>73.4</ele>
        <time>2023-12-14T10:45:09Z</time>
      </trkpt>
      <trkpt lat="48.37626" lon="2.15354">
        <ele>73.4</ele>
        <time>2023-12-14T10:45:10Z</time>
      </trkpt>
      <trkpt lat="48.37628" lon="2.15351">
        <ele>73.4</ele>
        <time>2023-12-14T10:45:11Z</time>
      </trkpt>
      <trkpt lat="48.37631" lon="2.15349">
        <ele>73</ele>
        <time>2023-12-14T10:45:12Z</time>
      </trkpt>
      <trkpt lat="48.37635" lon="2.15346">
        <ele>73</ele>
        <time>2023-12-14T10:45:13Z</time>
      </trkpt>
      <trkpt lat="48.37638" lon="2.15344">
        <ele>73</ele>
        <time>2023-12-14T10:45:14Z</time>
      </trkpt>
      <trkpt lat="48.37642" lon="2.15342">
        <ele>72.8</ele>
        <time>2023-12-14T10:45:15Z</time>
      </trkpt>
      <trkpt lat="48.37647" lon="2.15341">
        <ele>71.6</ele>
        <time>2023-12-14T10:45:16Z</time>
      </trkpt>
      <trkpt lat="48.37651" lon="2.1534">
        <ele>71.6</ele>
        <time>2023-12-14T10:45:17Z</time>
      </trkpt>
      <trkpt lat="48.37655" lon="2.15338">
        <ele>71.6</ele>
        <time>2023-12-14T10:45:18Z</time>
      </trkpt>
      <trkpt lat="48.3766" lon="2.15336">
        <ele>71.6</ele>
        <time>2023-12-14T10:45:19Z</time>
      </trkpt>
      <trkpt lat="48.37664" lon="2.15334">
        <ele>71.4</ele>
        <time>2023-12-14T10:45:20Z</time>
      </trkpt>
      <trkpt lat="48.37668" lon="2.1533">
        <ele>71.4</ele>
        <time>2023-12-14T10:45:21Z</time>
      </trkpt>
      <trkpt lat="48.37672" lon="2.15326">
        <ele>71.4</ele>
        <time>2023-12-14T10:45:22Z</time>
      </trkpt>
      <trkpt lat="48.37675" lon="2.15321">
        <ele>71.2</ele>
        <time>2023-12-14T10:45:23Z</time>
      </trkpt>
      <trkpt lat="48.37677" lon="2.15317">
        <ele>70.8</ele>
        <time>2023-12-14T10:45:24Z</time>
      </trkpt>
      <trkpt lat="48.37678" lon="2.15313">
        <ele>70.8</ele>
        <time>2023-12-14T10:45:25Z</time>
      </trkpt>
      <trkpt lat="48.37679" lon="2.1531">
        <ele>70.8</ele>
        <time>2023-12-14T10:45:26Z</time>
      </trkpt>
      <trkpt lat="48.37679" lon="2.15306">
        <ele>70.4</ele>
        <time>2023-12-14T10:45:27Z</time>
      </trkpt>
      <trkpt lat="48.3768" lon="2.15303">
        <ele>69.8</ele>
        <time>2023-12-14T10:45:28Z</time>
      </trkpt>
      <trkpt lat="48.3768" lon="2.153">
        <ele>69.8</ele>
        <time>2023-12-14T10:45:29Z</time>
      </trkpt>
      <trkpt lat="48.3768" lon="2.15298">
        <ele>69.8</ele>
        <time>2023-12-14T10:45:30Z</time>
      </trkpt>
      <trkpt lat="48.3768" lon="2.15296">
        <ele>69.2</ele>
        <time>2023-12-14T10:45:31Z</time>
      </trkpt>
      <trkpt lat="48.3768" lon="2.15294">
        <ele>69.6</ele>
        <time>2023-12-14T10:45:32Z</time>
      </trkpt>
      <trkpt lat="48.3768" lon="2.15293">
        <ele>69.6</ele>
        <time>2023-12-14T10:45:33Z</time>
      </trkpt>
      <trkpt lat="48.37681" lon="2.15291">
        <ele>69.6</ele>
        <time>2023-12-14T10:45:34Z</time>
      </trkpt>
      <trkpt lat="48.37681" lon="2.15289">
        <ele>69.2</ele>
        <time>2023-12-14T10:45:35Z</time>
      </trkpt>
      <trkpt lat="48.37681" lon="2.15285">
        <ele>68</ele>
        <time>2023-12-14T10:45:36Z</time>
      </trkpt>
      <trkpt lat="48.37682" lon="2.15281">
        <ele>68</ele>
        <time>2023-12-14T10:45:37Z</time>
      </trkpt>
      <trkpt lat="48.37681" lon="2.15275">
        <ele>68</ele>
        <time>2023-12-14T10:45:38Z</time>
      </trkpt>
      <trkpt lat="48.37681" lon="2.15268">
        <ele>67</ele>
        <time>2023-12-14T10:45:39Z</time>
      </trkpt>
      <trkpt lat="48.37681" lon="2.15261">
        <ele>63.2</ele>
        <time>2023-12-14T10:45:40Z</time>
      </trkpt>
      <trkpt lat="48.37681" lon="2.15252">
        <ele>63.2</ele>
        <time>2023-12-14T10:45:41Z</time>
      </trkpt>
      <trkpt lat="48.37682" lon="2.15243">
        <ele>63.2</ele>
        <time>2023-12-14T10:45:42Z</time>
      </trkpt>
      <trkpt lat="48.37681" lon="2.15233">
        <ele>63.2</ele>
        <time>2023-12-14T10:45:43Z</time>
      </trkpt>
      <trkpt lat="48.37682" lon="2.15223">
        <ele>62.6</ele>
        <time>2023-12-14T10:45:44Z</time>
      </trkpt>
      <trkpt lat="48.37683" lon="2.15212">
        <ele>62.6</ele>
        <time>2023-12-14T10:45:45Z</time>
      </trkpt>
      <trkpt lat="48.37683" lon="2.15202">
        <ele>62.6</ele>
        <time>2023-12-14T10:45:46Z</time>
      </trkpt>
      <trkpt lat="48.37684" lon="2.15191">
        <ele>61.6</ele>
        <time>2023-12-14T10:45:47Z</time>
      </trkpt>
      <trkpt lat="48.37685" lon="2.1518">
        <ele>60.4</ele>
        <time>2023-12-14T10:45:48Z</time>
      </trkpt>
      <trkpt lat="48.37686" lon="2.15169">
        <ele>60.4</ele>
        <time>2023-12-14T10:45:49Z</time>
      </trkpt>
      <trkpt lat="48.37688" lon="2.15158">
        <ele>60.4</ele>
        <time>2023-12-14T10:45:50Z</time>
      </trkpt>
      <trkpt lat="48.37691" lon="2.15148">
        <ele>60.4</ele>
        <time>2023-12-14T10:45:51Z</time>
      </trkpt>
      <trkpt lat="48.37695" lon="2.15138">
        <ele>60</ele>
        <time>2023-12-14T10:45:52Z</time>
      </trkpt>
      <trkpt lat="48.37699" lon="2.1513">
        <ele>60</ele>
        <time>2023-12-14T10:45:53Z</time>
      </trkpt>
      <trkpt lat="48.37703" lon="2.15122">
        <ele>60</ele>
        <time>2023-12-14T10:45:54Z</time>
      </trkpt>
      <trkpt lat="48.37708" lon="2.15115">
        <ele>60.4</ele>
        <time>2023-12-14T10:45:55Z</time>
      </trkpt>
      <trkpt lat="48.37712" lon="2.15108">
        <ele>60.4</ele>
        <time>2023-12-14T10:45:56Z</time>
      </trkpt>
      <trkpt lat="48.37717" lon="2.15101">
        <ele>60.4</ele>
        <time>2023-12-14T10:45:57Z</time>
      </trkpt>
      <trkpt lat="48.37722" lon="2.15095">
        <ele>60.4</ele>
        <time>2023-12-14T10:45:58Z</time>
      </trkpt>
      <trkpt lat="48.37727" lon="2.15089">
        <ele>60.4</ele>
        <time>2023-12-14T10:45:59Z</time>
      </trkpt>
      <trkpt lat="48.37731" lon="2.15082">
        <ele>60.4</ele>
        <time>2023-12-14T10:46:00Z</time>
      </trkpt>
      <trkpt lat="48.37736" lon="2.15076">
        <ele>60.4</ele>
        <time>2023-12-14T10:46:01Z</time>
      </trkpt>
      <trkpt lat="48.3774" lon="2.15069">
        <ele>60.4</ele>
        <time>2023-12-14T10:46:02Z</time>
      </trkpt>
      <trkpt lat="48.37744" lon="2.15061">
        <ele>61.2</ele>
        <time>2023-12-14T10:46:03Z</time>
      </trkpt>
      <trkpt lat="48.37746" lon="2.15053">
        <ele>60.8</ele>
        <time>2023-12-14T10:46:04Z</time>
      </trkpt>
      <trkpt lat="48.37749" lon="2.15045">
        <ele>60.8</ele>
        <time>2023-12-14T10:46:05Z</time>
      </trkpt>
      <trkpt lat="48.37751" lon="2.15037">
        <ele>60.8</ele>
        <time>2023-12-14T10:46:06Z</time>
      </trkpt>
      <trkpt lat="48.37753" lon="2.15028">
        <ele>61.4</ele>
        <time>2023-12-14T10:46:07Z</time>
      </trkpt>
      <trkpt lat="48.37754" lon="2.15019">
        <ele>61.4</ele>
        <time>2023-12-14T10:46:08Z</time>
      </trkpt>
      <trkpt lat="48.37755" lon="2.1501">
        <ele>61.4</ele>
        <time>2023-12-14T10:46:09Z</time>
      </trkpt>
      <trkpt lat="48.37757" lon="2.15001">
        <ele>61.4</ele>
        <time>2023-12-14T10:46:10Z</time>
      </trkpt>
      <trkpt lat="48.37757" lon="2.14992">
        <ele>61.4</ele>
        <time>2023-12-14T10:46:11Z</time>
      </trkpt>
      <trkpt lat="48.37757" lon="2.14983">
        <ele>61.8</ele>
        <time>2023-12-14T10:46:12Z</time>
      </trkpt>
      <trkpt lat="48.37757" lon="2.14975">
        <ele>61.8</ele>
        <time>2023-12-14T10:46:13Z</time>
      </trkpt>
      <trkpt lat="48.37756" lon="2.14967">
        <ele>61.8</ele>
        <time>2023-12-14T10:46:14Z</time>
      </trkpt>
      <trkpt lat="48.37756" lon="2.14958">
        <ele>61.8</ele>
        <time>2023-12-14T10:46:15Z</time>
      </trkpt>
      <trkpt lat="48.37755" lon="2.1495">
        <ele>62</ele>
        <time>2023-12-14T10:46:16Z</time>
      </trkpt>
      <trkpt lat="48.37754" lon="2.14941">
        <ele>62</ele>
        <time>2023-12-14T10:46:17Z</time>
      </trkpt>
      <trkpt lat="48.37754" lon="2.14932">
        <ele>62</ele>
        <time>2023-12-14T10:46:18Z</time>
      </trkpt>
      <trkpt lat="48.37754" lon="2.14924">
        <ele>62.8</ele>
        <time>2023-12-14T10:46:19Z</time>
      </trkpt>
      <trkpt lat="48.37754" lon="2.14916">
        <ele>62.6</ele>
        <time>2023-12-14T10:46:20Z</time>
      </trkpt>
      <trkpt lat="48.37754" lon="2.14909">
        <ele>62.6</ele>
        <time>2023-12-14T10:46:21Z</time>
      </trkpt>
      <trkpt lat="48.37754" lon="2.14901">
        <ele>62.6</ele>
        <time>2023-12-14T10:46:22Z</time>
      </trkpt>
      <trkpt lat="48.37755" lon="2.14892">
        <ele>63</ele>
        <time>2023-12-14T10:46:23Z</time>
      </trkpt>
      <trkpt lat="48.37755" lon="2.14884">
        <ele>62.2</ele>
        <time>2023-12-14T10:46:24Z</time>
      </trkpt>
      <trkpt lat="48.37756" lon="2.14876">
        <ele>62.2</ele>
        <time>2023-12-14T10:46:25Z</time>
      </trkpt>
      <trkpt lat="48.37757" lon="2.14868">
        <ele>62.2</ele>
        <time>2023-12-14T10:46:26Z</time>
      </trkpt>
      <trkpt lat="48.37758" lon="2.14859">
        <ele>63.2</ele>
        <time>2023-12-14T10:46:27Z</time>
      </trkpt>
      <trkpt lat="48.37759" lon="2.14851">
        <ele>62.2</ele>
        <time>2023-12-14T10:46:28Z</time>
      </trkpt>
      <trkpt lat="48.37759" lon="2.14843">
        <ele>62.2</ele>
        <time>2023-12-14T10:46:29Z</time>
      </trkpt>
      <trkpt lat="48.3776" lon="2.14835">
        <ele>62.2</ele>
        <time>2023-12-14T10:46:30Z</time>
      </trkpt>
      <trkpt lat="48.37761" lon="2.14827">
        <ele>62.6</ele>
        <time>2023-12-14T10:46:31Z</time>
      </trkpt>
      <trkpt lat="48.37762" lon="2.1482">
        <ele>62.8</ele>
        <time>2023-12-14T10:46:32Z</time>
      </trkpt>
      <trkpt lat="48.37763" lon="2.14812">
        <ele>62.8</ele>
        <time>2023-12-14T10:46:33Z</time>
      </trkpt>
      <trkpt lat="48.37765" lon="2.14805">
        <ele>62.8</ele>
        <time>2023-12-14T10:46:34Z</time>
      </trkpt>
      <trkpt lat="48.37768" lon="2.14799">
        <ele>62.8</ele>
        <time>2023-12-14T10:46:35Z</time>
      </trkpt>
      <trkpt lat="48.37771" lon="2.14794">
        <ele>63.8</ele>
        <time>2023-12-14T10:46:36Z</time>
      </trkpt>
      <trkpt lat="48.37775" lon="2.1479">
        <ele>63.8</ele>
        <time>2023-12-14T10:46:37Z</time>
      </trkpt>
      <trkpt lat="48.37778" lon="2.14786">
        <ele>63.8</ele>
        <time>2023-12-14T10:46:38Z</time>
      </trkpt>
      <trkpt lat="48.37782" lon="2.14783">
        <ele>63.8</ele>
        <time>2023-12-14T10:46:39Z</time>
      </trkpt>
      <trkpt lat="48.37786" lon="2.14779">
        <ele>64.8</ele>
        <time>2023-12-14T10:46:40Z</time>
      </trkpt>
      <trkpt lat="48.3779" lon="2.14776">
        <ele>64.8</ele>
        <time>2023-12-14T10:46:41Z</time>
      </trkpt>
      <trkpt lat="48.37793" lon="2.14772">
        <ele>64.8</ele>
        <time>2023-12-14T10:46:42Z</time>
      </trkpt>
      <trkpt lat="48.37797" lon="2.14769">
        <ele>64.4</ele>
        <time>2023-12-14T10:46:43Z</time>
      </trkpt>
      <trkpt lat="48.37801" lon="2.14765">
        <ele>64.4</ele>
        <time>2023-12-14T10:46:44Z</time>
      </trkpt>
      <trkpt lat="48.37804" lon="2.14763">
        <ele>64.4</ele>
        <time>2023-12-14T10:46:45Z</time>
      </trkpt>
      <trkpt lat="48.37808" lon="2.1476">
        <ele>64.4</ele>
        <time>2023-12-14T10:46:46Z</time>
      </trkpt>
      <trkpt lat="48.37812" lon="2.14757">
        <ele>65</ele>
        <time>2023-12-14T10:46:47Z</time>
      </trkpt>
      <trkpt lat="48.37815" lon="2.14753">
        <ele>65.6</ele>
        <time>2023-12-14T10:46:48Z</time>
      </trkpt>
      <trkpt lat="48.37818" lon="2.14748">
        <ele>65.6</ele>
        <time>2023-12-14T10:46:49Z</time>
      </trkpt>
      <trkpt lat="48.3782" lon="2.14744">
        <ele>65.6</ele>
        <time>2023-12-14T10:46:50Z</time>
      </trkpt>
      <trkpt lat="48.37822" lon="2.14738">
        <ele>65.6</ele>
        <time>2023-12-14T10:46:51Z</time>
      </trkpt>
      <trkpt lat="48.37822" lon="2.14732">
        <ele>67</ele>
        <time>2023-12-14T10:46:52Z</time>
      </trkpt>
      <trkpt lat="48.37821" lon="2.14727">
        <ele>67</ele>
        <time>2023-12-14T10:46:53Z</time>
      </trkpt>
      <trkpt lat="48.3782" lon="2.14721">
        <ele>67</ele>
        <time>2023-12-14T10:46:54Z</time>
      </trkpt>
      <trkpt lat="48.3782" lon="2.14715">
        <ele>68</ele>
        <time>2023-12-14T10:46:55Z</time>
      </trkpt>
      <trkpt lat="48.37819" lon="2.14708">
        <ele>67.4</ele>
        <time>2023-12-14T10:46:56Z</time>
      </trkpt>
      <trkpt lat="48.37818" lon="2.14701">
        <ele>67.4</ele>
        <time>2023-12-14T10:46:57Z</time>
      </trkpt>
      <trkpt lat="48.37818" lon="2.14695">
        <ele>67.4</ele>
        <time>2023-12-14T10:46:58Z</time>
      </trkpt>
      <trkpt lat="48.37817" lon="2.14688">
        <ele>68.4</ele>
        <time>2023-12-14T10:46:59Z</time>
      </trkpt>
      <trkpt lat="48.37816" lon="2.14681">
        <ele>69.2</ele>
        <time>2023-12-14T10:47:00Z</time>
      </trkpt>
      <trkpt lat="48.37815" lon="2.14675">
        <ele>69.2</ele>
        <time>2023-12-14T10:47:01Z</time>
      </trkpt>
      <trkpt lat="48.37814" lon="2.14668">
        <ele>69.2</ele>
        <time>2023-12-14T10:47:02Z</time>
      </trkpt>
      <trkpt lat="48.37813" lon="2.14661">
        <ele>69.2</ele>
        <time>2023-12-14T10:47:03Z</time>
      </trkpt>
      <trkpt lat="48.37812" lon="2.14655">
        <ele>70.8</ele>
        <time>2023-12-14T10:47:04Z</time>
      </trkpt>
      <trkpt lat="48.37811" lon="2.14648">
        <ele>70.8</ele>
        <time>2023-12-14T10:47:05Z</time>
      </trkpt>
      <trkpt lat="48.3781" lon="2.14642">
        <ele>70.8</ele>
        <time>2023-12-14T10:47:06Z</time>
      </trkpt>
      <trkpt lat="48.37809" lon="2.14637">
        <ele>70.8</ele>
        <time>2023-12-14T10:47:07Z</time>
      </trkpt>
      <trkpt lat="48.37808" lon="2.14631">
        <ele>70.8</ele>
        <time>2023-12-14T10:47:08Z</time>
      </trkpt>
      <trkpt lat="48.37807" lon="2.14626">
        <ele>70.8</ele>
        <time>2023-12-14T10:47:09Z</time>
      </trkpt>
      <trkpt lat="48.37806" lon="2.1462">
        <ele>70.8</ele>
        <time>2023-12-14T10:47:10Z</time>
      </trkpt>
      <trkpt lat="48.37805" lon="2.14614">
        <ele>71.6</ele>
        <time>2023-12-14T10:47:11Z</time>
      </trkpt>
      <trkpt lat="48.37805" lon="2.14609">
        <ele>71.6</ele>
        <time>2023-12-14T10:47:12Z</time>
      </trkpt>
      <trkpt lat="48.37804" lon="2.14604">
        <ele>71.6</ele>
        <time>2023-12-14T10:47:13Z</time>
      </trkpt>
      <trkpt lat="48.37803" lon="2.14599">
        <ele>71.6</ele>
        <time>2023-12-14T10:47:14Z</time>
      </trkpt>
      <trkpt lat="48.37803" lon="2.14593">
        <ele>72.4</ele>
        <time>2023-12-14T10:47:15Z</time>
      </trkpt>
      <trkpt lat="48.37802" lon="2.14588">
        <ele>72</ele>
        <time>2023-12-14T10:47:16Z</time>
      </trkpt>
      <trkpt lat="48.37801" lon="2.14582">
        <ele>72</ele>
        <time>2023-12-14T10:47:17Z</time>
      </trkpt>
      <trkpt lat="48.378" lon="2.14577">
        <ele>72</ele>
        <time>2023-12-14T10:47:18Z</time>
      </trkpt>
      <trkpt lat="48.37799" lon="2.14572">
        <ele>73</ele>
        <time>2023-12-14T10:47:19Z</time>
      </trkpt>
      <trkpt lat="48.378" lon="2.14567">
        <ele>73.6</ele>
        <time>2023-12-14T10:47:20Z</time>
      </trkpt>
      <trkpt lat="48.37802" lon="2.14563">
        <ele>73.6</ele>
        <time>2023-12-14T10:47:21Z</time>
      </trkpt>
      <trkpt lat="48.37806" lon="2.14561">
        <ele>73.6</ele>
        <time>2023-12-14T10:47:22Z</time>
      </trkpt>
      <trkpt lat="48.37809" lon="2.14557">
        <ele>73.6</ele>
        <time>2023-12-14T10:47:23Z</time>
      </trkpt>
      <trkpt lat="48.37813" lon="2.14554">
        <ele>74.4</ele>
        <time>2023-12-14T10:47:24Z</time>
      </trkpt>
      <trkpt lat="48.37816" lon="2.14551">
        <ele>74.4</ele>
        <time>2023-12-14T10:47:25Z</time>
      </trkpt>
      <trkpt lat="48.37819" lon="2.14548">
        <ele>74.4</ele>
        <time>2023-12-14T10:47:26Z</time>
      </trkpt>
      <trkpt lat="48.37823" lon="2.14544">
        <ele>74.4</ele>
        <time>2023-12-14T10:47:27Z</time>
      </trkpt>
      <trkpt lat="48.37826" lon="2.14541">
        <ele>73.8</ele>
        <time>2023-12-14T10:47:28Z</time>
      </trkpt>
      <trkpt lat="48.3783" lon="2.14537">
        <ele>73.8</ele>
        <time>2023-12-14T10:47:29Z</time>
      </trkpt>
      <trkpt lat="48.37833" lon="2.14533">
        <ele>73.8</ele>
        <time>2023-12-14T10:47:30Z</time>
      </trkpt>
      <trkpt lat="48.37837" lon="2.14529">
        <ele>74</ele>
        <time>2023-12-14T10:47:31Z</time>
      </trkpt>
      <trkpt lat="48.3784" lon="2.14526">
        <ele>73</ele>
        <time>2023-12-14T10:47:32Z</time>
      </trkpt>
      <trkpt lat="48.37843" lon="2.14522">
        <ele>73</ele>
        <time>2023-12-14T10:47:33Z</time>
      </trkpt>
      <trkpt lat="48.37847" lon="2.14518">
        <ele>73</ele>
        <time>2023-12-14T10:47:34Z</time>
      </trkpt>
      <trkpt lat="48.3785" lon="2.14515">
        <ele>73.8</ele>
        <time>2023-12-14T10:47:35Z</time>
      </trkpt>
      <trkpt lat="48.37853" lon="2.14511">
        <ele>74.2</ele>
        <time>2023-12-14T10:47:36Z</time>
      </trkpt>
      <trkpt lat="48.37857" lon="2.14507">
        <ele>74.2</ele>
        <time>2023-12-14T10:47:37Z</time>
      </trkpt>
      <trkpt lat="48.37861" lon="2.14504">
        <ele>74.2</ele>
        <time>2023-12-14T10:47:38Z</time>
      </trkpt>
      <trkpt lat="48.37864" lon="2.145">
        <ele>74.2</ele>
        <time>2023-12-14T10:47:39Z</time>
      </trkpt>
      <trkpt lat="48.37867" lon="2.14496">
        <ele>74.2</ele>
        <time>2023-12-14T10:47:40Z</time>
      </trkpt>
      <trkpt lat="48.37871" lon="2.14492">
        <ele>74.2</ele>
        <time>2023-12-14T10:47:41Z</time>
      </trkpt>
      <trkpt lat="48.37873" lon="2.14489">
        <ele>74.2</ele>
        <time>2023-12-14T10:47:42Z</time>
      </trkpt>
      <trkpt lat="48.37876" lon="2.14485">
        <ele>74.2</ele>
        <time>2023-12-14T10:47:43Z</time>
      </trkpt>
      <trkpt lat="48.3788" lon="2.14481">
        <ele>74.6</ele>
        <time>2023-12-14T10:47:44Z</time>
      </trkpt>
      <trkpt lat="48.37883" lon="2.14478">
        <ele>74.6</ele>
        <time>2023-12-14T10:47:45Z</time>
      </trkpt>
      <trkpt lat="48.37887" lon="2.14474">
        <ele>74.6</ele>
        <time>2023-12-14T10:47:46Z</time>
      </trkpt>
      <trkpt lat="48.3789" lon="2.1447">
        <ele>74.6</ele>
        <time>2023-12-14T10:47:47Z</time>
      </trkpt>
      <trkpt lat="48.37892" lon="2.14467">
        <ele>74.4</ele>
        <time>2023-12-14T10:47:48Z</time>
      </trkpt>
      <trkpt lat="48.37896" lon="2.14463">
        <ele>74.4</ele>
        <time>2023-12-14T10:47:49Z</time>
      </trkpt>
      <trkpt lat="48.37899" lon="2.1446">
        <ele>74.4</ele>
        <time>2023-12-14T10:47:50Z</time>
      </trkpt>
      <trkpt lat="48.37903" lon="2.14456">
        <ele>74.6</ele>
        <time>2023-12-14T10:47:51Z</time>
      </trkpt>
      <trkpt lat="48.37906" lon="2.14453">
        <ele>74.2</ele>
        <time>2023-12-14T10:47:52Z</time>
      </trkpt>
      <trkpt lat="48.3791" lon="2.14449">
        <ele>74.2</ele>
        <time>2023-12-14T10:47:53Z</time>
      </trkpt>
      <trkpt lat="48.37914" lon="2.14446">
        <ele>74.2</ele>
        <time>2023-12-14T10:47:54Z</time>
      </trkpt>
      <trkpt lat="48.37918" lon="2.14443">
        <ele>74.2</ele>
        <time>2023-12-14T10:47:55Z</time>
      </trkpt>
      <trkpt lat="48.37922" lon="2.14439">
        <ele>74.2</ele>
        <time>2023-12-14T10:47:56Z</time>
      </trkpt>
      <trkpt lat="48.37926" lon="2.14436">
        <ele>74.2</ele>
        <time>2023-12-14T10:47:57Z</time>
      </trkpt>
      <trkpt lat="48.37929" lon="2.14433">
        <ele>74.2</ele>
        <time>2023-12-14T10:47:58Z</time>
      </trkpt>
      <trkpt lat="48.37933" lon="2.14429">
        <ele>75.2</ele>
        <time>2023-12-14T10:47:59Z</time>
      </trkpt>
      <trkpt lat="48.37936" lon="2.14425">
        <ele>75.6</ele>
        <time>2023-12-14T10:48:00Z</time>
      </trkpt>
      <trkpt lat="48.37939" lon="2.14421">
        <ele>75.6</ele>
        <time>2023-12-14T10:48:01Z</time>
      </trkpt>
      <trkpt lat="48.37943" lon="2.14418">
        <ele>75.6</ele>
        <time>2023-12-14T10:48:02Z</time>
      </trkpt>
      <trkpt lat="48.37947" lon="2.14414">
        <ele>75.6</ele>
        <time>2023-12-14T10:48:03Z</time>
      </trkpt>
      <trkpt lat="48.3795" lon="2.1441">
        <ele>75.6</ele>
        <time>2023-12-14T10:48:04Z</time>
      </trkpt>
      <trkpt lat="48.37954" lon="2.14407">
        <ele>75.6</ele>
        <time>2023-12-14T10:48:05Z</time>
      </trkpt>
      <trkpt lat="48.37959" lon="2.14403">
        <ele>75.6</ele>
        <time>2023-12-14T10:48:06Z</time>
      </trkpt>
      <trkpt lat="48.37963" lon="2.14399">
        <ele>75.6</ele>
        <time>2023-12-14T10:48:07Z</time>
      </trkpt>
      <trkpt lat="48.37968" lon="2.14396">
        <ele>76.2</ele>
        <time>2023-12-14T10:48:08Z</time>
      </trkpt>
      <trkpt lat="48.37973" lon="2.14392">
        <ele>76.2</ele>
        <time>2023-12-14T10:48:09Z</time>
      </trkpt>
      <trkpt lat="48.37977" lon="2.14388">
        <ele>76.2</ele>
        <time>2023-12-14T10:48:10Z</time>
      </trkpt>
      <trkpt lat="48.37982" lon="2.14384">
        <ele>76</ele>
        <time>2023-12-14T10:48:11Z</time>
      </trkpt>
      <trkpt lat="48.37986" lon="2.14381">
        <ele>75.6</ele>
        <time>2023-12-14T10:48:12Z</time>
      </trkpt>
      <trkpt lat="48.37991" lon="2.14377">
        <ele>75.6</ele>
        <time>2023-12-14T10:48:13Z</time>
      </trkpt>
      <trkpt lat="48.37995" lon="2.14373">
        <ele>75.6</ele>
        <time>2023-12-14T10:48:14Z</time>
      </trkpt>
      <trkpt lat="48.38" lon="2.1437">
        <ele>75.6</ele>
        <time>2023-12-14T10:48:15Z</time>
      </trkpt>
      <trkpt lat="48.38004" lon="2.14366">
        <ele>75</ele>
        <time>2023-12-14T10:48:16Z</time>
      </trkpt>
      <trkpt lat="48.38009" lon="2.14362">
        <ele>75</ele>
        <time>2023-12-14T10:48:17Z</time>
      </trkpt>
      <trkpt lat="48.38013" lon="2.14358">
        <ele>75</ele>
        <time>2023-12-14T10:48:18Z</time>
      </trkpt>
      <trkpt lat="48.38017" lon="2.14355">
        <ele>75.2</ele>
        <time>2023-12-14T10:48:19Z</time>
      </trkpt>
      <trkpt lat="48.38022" lon="2.1435">
        <ele>75.6</ele>
        <time>2023-12-14T10:48:20Z</time>
      </trkpt>
      <trkpt lat="48.38026" lon="2.14345">
        <ele>75.6</ele>
        <time>2023-12-14T10:48:21Z</time>
      </trkpt>
      <trkpt lat="48.38031" lon="2.14341">
        <ele>75.6</ele>
        <time>2023-12-14T10:48:22Z</time>
      </trkpt>
      <trkpt lat="48.38035" lon="2.14336">
        <ele>75.2</ele>
        <time>2023-12-14T10:48:23Z</time>
      </trkpt>
      <trkpt lat="48.3804" lon="2.14331">
        <ele>74.6</ele>
        <time>2023-12-14T10:48:24Z</time>
      </trkpt>
      <trkpt lat="48.38045" lon="2.14327">
        <ele>74.6</ele>
        <time>2023-12-14T10:48:25Z</time>
      </trkpt>
      <trkpt lat="48.3805" lon="2.14322">
        <ele>74.6</ele>
        <time>2023-12-14T10:48:26Z</time>
      </trkpt>
      <trkpt lat="48.38055" lon="2.14318">
        <ele>74.6</ele>
        <time>2023-12-14T10:48:27Z</time>
      </trkpt>
      <trkpt lat="48.3806" lon="2.14315">
        <ele>74.4</ele>
        <time>2023-12-14T10:48:28Z</time>
      </trkpt>
      <trkpt lat="48.38064" lon="2.1431">
        <ele>74.4</ele>
        <time>2023-12-14T10:48:29Z</time>
      </trkpt>
      <trkpt lat="48.38069" lon="2.14304">
        <ele>74.4</ele>
        <time>2023-12-14T10:48:30Z</time>
      </trkpt>
      <trkpt lat="48.38074" lon="2.14298">
        <ele>74.4</ele>
        <time>2023-12-14T10:48:31Z</time>
      </trkpt>
      <trkpt lat="48.38078" lon="2.14293">
        <ele>73.8</ele>
        <time>2023-12-14T10:48:32Z</time>
      </trkpt>
      <trkpt lat="48.38083" lon="2.14287">
        <ele>73.8</ele>
        <time>2023-12-14T10:48:33Z</time>
      </trkpt>
      <trkpt lat="48.38088" lon="2.14282">
        <ele>73.8</ele>
        <time>2023-12-14T10:48:34Z</time>
      </trkpt>
      <trkpt lat="48.38093" lon="2.14276">
        <ele>73.4</ele>
        <time>2023-12-14T10:48:35Z</time>
      </trkpt>
      <trkpt lat="48.38097" lon="2.14271">
        <ele>73.2</ele>
        <time>2023-12-14T10:48:36Z</time>
      </trkpt>
      <trkpt lat="48.38103" lon="2.14265">
        <ele>73.2</ele>
        <time>2023-12-14T10:48:37Z</time>
      </trkpt>
      <trkpt lat="48.38107" lon="2.1426">
        <ele>73.2</ele>
        <time>2023-12-14T10:48:38Z</time>
      </trkpt>
      <trkpt lat="48.38113" lon="2.14254">
        <ele>73.8</ele>
        <time>2023-12-14T10:48:39Z</time>
      </trkpt>
      <trkpt lat="48.38118" lon="2.14249">
        <ele>73.4</ele>
        <time>2023-12-14T10:48:40Z</time>
      </trkpt>
      <trkpt lat="48.38123" lon="2.14243">
        <ele>73.4</ele>
        <time>2023-12-14T10:48:41Z</time>
      </trkpt>
      <trkpt lat="48.38129" lon="2.14238">
        <ele>73.4</ele>
        <time>2023-12-14T10:48:42Z</time>
      </trkpt>
      <trkpt lat="48.38134" lon="2.14232">
        <ele>73.4</ele>
        <time>2023-12-14T10:48:43Z</time>
      </trkpt>
      <trkpt lat="48.3814" lon="2.14226">
        <ele>72.4</ele>
        <time>2023-12-14T10:48:44Z</time>
      </trkpt>
      <trkpt lat="48.38146" lon="2.14221">
        <ele>72.4</ele>
        <time>2023-12-14T10:48:45Z</time>
      </trkpt>
      <trkpt lat="48.38152" lon="2.14215">
        <ele>72.4</ele>
        <time>2023-12-14T10:48:46Z</time>
      </trkpt>
      <trkpt lat="48.38158" lon="2.14209">
        <ele>72.6</ele>
        <time>2023-12-14T10:48:47Z</time>
      </trkpt>
      <trkpt lat="48.38164" lon="2.14203">
        <ele>72.2</ele>
        <time>2023-12-14T10:48:48Z</time>
      </trkpt>
      <trkpt lat="48.38169" lon="2.14197">
        <ele>72.2</ele>
        <time>2023-12-14T10:48:49Z</time>
      </trkpt>
      <trkpt lat="48.38175" lon="2.14192">
        <ele>72.2</ele>
        <time>2023-12-14T10:48:50Z</time>
      </trkpt>
      <trkpt lat="48.38181" lon="2.14186">
        <ele>72.2</ele>
        <time>2023-12-14T10:48:51Z</time>
      </trkpt>
      <trkpt lat="48.38188" lon="2.1418">
        <ele>71</ele>
        <time>2023-12-14T10:48:52Z</time>
      </trkpt>
      <trkpt lat="48.38194" lon="2.14175">
        <ele>71</ele>
        <time>2023-12-14T10:48:53Z</time>
      </trkpt>
      <trkpt lat="48.382" lon="2.1417">
        <ele>71</ele>
        <time>2023-12-14T10:48:54Z</time>
      </trkpt>
      <trkpt lat="48.38206" lon="2.14164">
        <ele>70.4</ele>
        <time>2023-12-14T10:48:55Z</time>
      </trkpt>
      <trkpt lat="48.38213" lon="2.14159">
        <ele>70.8</ele>
        <time>2023-12-14T10:48:56Z</time>
      </trkpt>
      <trkpt lat="48.38219" lon="2.14154">
        <ele>70.8</ele>
        <time>2023-12-14T10:48:57Z</time>
      </trkpt>
      <trkpt lat="48.38225" lon="2.14148">
        <ele>70.8</ele>
        <time>2023-12-14T10:48:58Z</time>
      </trkpt>
      <trkpt lat="48.38231" lon="2.14143">
        <ele>70.4</ele>
        <time>2023-12-14T10:48:59Z</time>
      </trkpt>
      <trkpt lat="48.38238" lon="2.14138">
        <ele>70.8</ele>
        <time>2023-12-14T10:49:00Z</time>
      </trkpt>
      <trkpt lat="48.38244" lon="2.14131">
        <ele>70.8</ele>
        <time>2023-12-14T10:49:01Z</time>
      </trkpt>
      <trkpt lat="48.38251" lon="2.14125">
        <ele>70.8</ele>
        <time>2023-12-14T10:49:02Z</time>
      </trkpt>
      <trkpt lat="48.38258" lon="2.14119">
        <ele>69.8</ele>
        <time>2023-12-14T10:49:03Z</time>
      </trkpt>
      <trkpt lat="48.38264" lon="2.14113">
        <ele>68.4</ele>
        <time>2023-12-14T10:49:04Z</time>
      </trkpt>
      <trkpt lat="48.38271" lon="2.14108">
        <ele>68.4</ele>
        <time>2023-12-14T10:49:05Z</time>
      </trkpt>
      <trkpt lat="48.38278" lon="2.14102">
        <ele>68.4</ele>
        <time>2023-12-14T10:49:06Z</time>
      </trkpt>
      <trkpt lat="48.38285" lon="2.14097">
        <ele>68.4</ele>
        <time>2023-12-14T10:49:07Z</time>
      </trkpt>
      <trkpt lat="48.38292" lon="2.14092">
        <ele>67.4</ele>
        <time>2023-12-14T10:49:08Z</time>
      </trkpt>
      <trkpt lat="48.383" lon="2.14087">
        <ele>67.4</ele>
        <time>2023-12-14T10:49:09Z</time>
      </trkpt>
      <trkpt lat="48.38307" lon="2.14082">
        <ele>67.4</ele>
        <time>2023-12-14T10:49:10Z</time>
      </trkpt>
      <trkpt lat="48.38314" lon="2.14077">
        <ele>67.4</ele>
        <time>2023-12-14T10:49:11Z</time>
      </trkpt>
      <trkpt lat="48.38322" lon="2.14072">
        <ele>67.4</ele>
        <time>2023-12-14T10:49:12Z</time>
      </trkpt>
      <trkpt lat="48.38329" lon="2.14067">
        <ele>67.4</ele>
        <time>2023-12-14T10:49:13Z</time>
      </trkpt>
      <trkpt lat="48.38337" lon="2.14062">
        <ele>67.4</ele>
        <time>2023-12-14T10:49:14Z</time>
      </trkpt>
      <trkpt lat="48.38345" lon="2.14057">
        <ele>67.4</ele>
        <time>2023-12-14T10:49:15Z</time>
      </trkpt>
      <trkpt lat="48.38353" lon="2.14052">
        <ele>65.2</ele>
        <time>2023-12-14T10:49:16Z</time>
      </trkpt>
      <trkpt lat="48.38361" lon="2.14047">
        <ele>65.2</ele>
        <time>2023-12-14T10:49:17Z</time>
      </trkpt>
      <trkpt lat="48.38369" lon="2.14043">
        <ele>65.2</ele>
        <time>2023-12-14T10:49:18Z</time>
      </trkpt>
      <trkpt lat="48.38378" lon="2.14039">
        <ele>64.4</ele>
        <time>2023-12-14T10:49:19Z</time>
      </trkpt>
      <trkpt lat="48.38386" lon="2.14036">
        <ele>64</ele>
        <time>2023-12-14T10:49:20Z</time>
      </trkpt>
      <trkpt lat="48.38394" lon="2.14033">
        <ele>64</ele>
        <time>2023-12-14T10:49:21Z</time>
      </trkpt>
      <trkpt lat="48.38403" lon="2.14031">
        <ele>64</ele>
        <time>2023-12-14T10:49:22Z</time>
      </trkpt>
      <trkpt lat="48.38411" lon="2.14028">
        <ele>63.4</ele>
        <time>2023-12-14T10:49:23Z</time>
      </trkpt>
      <trkpt lat="48.38419" lon="2.14026">
        <ele>63.2</ele>
        <time>2023-12-14T10:49:24Z</time>
      </trkpt>
      <trkpt lat="48.38427" lon="2.14025">
        <ele>63.2</ele>
        <time>2023-12-14T10:49:25Z</time>
      </trkpt>
      <trkpt lat="48.38435" lon="2.14023">
        <ele>63.2</ele>
        <time>2023-12-14T10:49:26Z</time>
      </trkpt>
      <trkpt lat="48.38443" lon="2.14021">
        <ele>63.2</ele>
        <time>2023-12-14T10:49:27Z</time>
      </trkpt>
      <trkpt lat="48.38452" lon="2.14019">
        <ele>62.4</ele>
        <time>2023-12-14T10:49:28Z</time>
      </trkpt>
      <trkpt lat="48.3846" lon="2.14016">
        <ele>62.4</ele>
        <time>2023-12-14T10:49:29Z</time>
      </trkpt>
      <trkpt lat="48.38468" lon="2.14012">
        <ele>62.4</ele>
        <time>2023-12-14T10:49:30Z</time>
      </trkpt>
      <trkpt lat="48.38476" lon="2.14008">
        <ele>62.2</ele>
        <time>2023-12-14T10:49:31Z</time>
      </trkpt>
      <trkpt lat="48.38484" lon="2.14003">
        <ele>62.2</ele>
        <time>2023-12-14T10:49:32Z</time>
      </trkpt>
      <trkpt lat="48.38491" lon="2.13998">
        <ele>62.2</ele>
        <time>2023-12-14T10:49:33Z</time>
      </trkpt>
      <trkpt lat="48.38499" lon="2.13994">
        <ele>62.2</ele>
        <time>2023-12-14T10:49:34Z</time>
      </trkpt>
      <trkpt lat="48.38507" lon="2.1399">
        <ele>61.6</ele>
        <time>2023-12-14T10:49:35Z</time>
      </trkpt>
      <trkpt lat="48.38515" lon="2.13986">
        <ele>61</ele>
        <time>2023-12-14T10:49:36Z</time>
      </trkpt>
      <trkpt lat="48.38523" lon="2.13983">
        <ele>61</ele>
        <time>2023-12-14T10:49:37Z</time>
      </trkpt>
      <trkpt lat="48.3853" lon="2.13981">
        <ele>61</ele>
        <time>2023-12-14T10:49:38Z</time>
      </trkpt>
      <trkpt lat="48.38537" lon="2.13977">
        <ele>61</ele>
        <time>2023-12-14T10:49:39Z</time>
      </trkpt>
      <trkpt lat="48.38543" lon="2.13973">
        <ele>61.4</ele>
        <time>2023-12-14T10:49:40Z</time>
      </trkpt>
      <trkpt lat="48.3855" lon="2.1397">
        <ele>61.4</ele>
        <time>2023-12-14T10:49:41Z</time>
      </trkpt>
      <trkpt lat="48.38556" lon="2.13966">
        <ele>61.4</ele>
        <time>2023-12-14T10:49:42Z</time>
      </trkpt>
      <trkpt lat="48.38564" lon="2.13963">
        <ele>61.4</ele>
        <time>2023-12-14T10:49:43Z</time>
      </trkpt>
      <trkpt lat="48.38571" lon="2.1396">
        <ele>62</ele>
        <time>2023-12-14T10:49:44Z</time>
      </trkpt>
      <trkpt lat="48.38576" lon="2.13957">
        <ele>62</ele>
        <time>2023-12-14T10:49:45Z</time>
      </trkpt>
      <trkpt lat="48.38583" lon="2.13956">
        <ele>62</ele>
        <time>2023-12-14T10:49:46Z</time>
      </trkpt>
      <trkpt lat="48.3859" lon="2.13952">
        <ele>62.4</ele>
        <time>2023-12-14T10:49:47Z</time>
      </trkpt>
      <trkpt lat="48.38597" lon="2.1395">
        <ele>62.4</ele>
        <time>2023-12-14T10:49:48Z</time>
      </trkpt>
      <trkpt lat="48.38603" lon="2.13948">
        <ele>62.4</ele>
        <time>2023-12-14T10:49:49Z</time>
      </trkpt>
      <trkpt lat="48.3861" lon="2.13945">
        <ele>62.4</ele>
        <time>2023-12-14T10:49:50Z</time>
      </trkpt>
      <trkpt lat="48.38616" lon="2.13942">
        <ele>62.4</ele>
        <time>2023-12-14T10:49:51Z</time>
      </trkpt>
      <trkpt lat="48.38623" lon="2.13939">
        <ele>62.2</ele>
        <time>2023-12-14T10:49:52Z</time>
      </trkpt>
      <trkpt lat="48.38632" lon="2.13937">
        <ele>62.2</ele>
        <time>2023-12-14T10:49:53Z</time>
      </trkpt>
      <trkpt lat="48.3864" lon="2.13935">
        <ele>62.2</ele>
        <time>2023-12-14T10:49:54Z</time>
      </trkpt>
      <trkpt lat="48.38648" lon="2.13934">
        <ele>62.2</ele>
        <time>2023-12-14T10:49:55Z</time>
      </trkpt>
      <trkpt lat="48.38656" lon="2.13932">
        <ele>61.6</ele>
        <time>2023-12-14T10:49:56Z</time>
      </trkpt>
      <trkpt lat="48.38664" lon="2.13931">
        <ele>61.6</ele>
        <time>2023-12-14T10:49:57Z</time>
      </trkpt>
      <trkpt lat="48.38671" lon="2.13929">
        <ele>61.6</ele>
        <time>2023-12-14T10:49:58Z</time>
      </trkpt>
      <trkpt lat="48.38678" lon="2.13928">
        <ele>62.2</ele>
        <time>2023-12-14T10:49:59Z</time>
      </trkpt>
      <trkpt lat="48.38685" lon="2.13926">
        <ele>61.4</ele>
        <time>2023-12-14T10:50:00Z</time>
      </trkpt>
      <trkpt lat="48.38693" lon="2.13925">
        <ele>61.4</ele>
        <time>2023-12-14T10:50:01Z</time>
      </trkpt>
      <trkpt lat="48.387" lon="2.13924">
        <ele>61.4</ele>
        <time>2023-12-14T10:50:02Z</time>
      </trkpt>
      <trkpt lat="48.38708" lon="2.13923">
        <ele>60.4</ele>
        <time>2023-12-14T10:50:03Z</time>
      </trkpt>
      <trkpt lat="48.38715" lon="2.13923">
        <ele>60.8</ele>
        <time>2023-12-14T10:50:04Z</time>
      </trkpt>
      <trkpt lat="48.38723" lon="2.13922">
        <ele>60.8</ele>
        <time>2023-12-14T10:50:05Z</time>
      </trkpt>
      <trkpt lat="48.3873" lon="2.13922">
        <ele>60.8</ele>
        <time>2023-12-14T10:50:06Z</time>
      </trkpt>
      <trkpt lat="48.38738" lon="2.13923">
        <ele>60.8</ele>
        <time>2023-12-14T10:50:07Z</time>
      </trkpt>
      <trkpt lat="48.38746" lon="2.13923">
        <ele>59.2</ele>
        <time>2023-12-14T10:50:08Z</time>
      </trkpt>
      <trkpt lat="48.38754" lon="2.13925">
        <ele>59.2</ele>
        <time>2023-12-14T10:50:09Z</time>
      </trkpt>
      <trkpt lat="48.38762" lon="2.13925">
        <ele>59.2</ele>
        <time>2023-12-14T10:50:10Z</time>
      </trkpt>
      <trkpt lat="48.3877" lon="2.13926">
        <ele>59.2</ele>
        <time>2023-12-14T10:50:11Z</time>
      </trkpt>
      <trkpt lat="48.38777" lon="2.13927">
        <ele>59.4</ele>
        <time>2023-12-14T10:50:12Z</time>
      </trkpt>
      <trkpt lat="48.38784" lon="2.13928">
        <ele>59.4</ele>
        <time>2023-12-14T10:50:13Z</time>
      </trkpt>
      <trkpt lat="48.3879" lon="2.13929">
        <ele>59.4</ele>
        <time>2023-12-14T10:50:14Z</time>
      </trkpt>
      <trkpt lat="48.38797" lon="2.1393">
        <ele>60.2</ele>
        <time>2023-12-14T10:50:15Z</time>
      </trkpt>
      <trkpt lat="48.38804" lon="2.13931">
        <ele>59</ele>
        <time>2023-12-14T10:50:16Z</time>
      </trkpt>
      <trkpt lat="48.38811" lon="2.13932">
        <ele>59</ele>
        <time>2023-12-14T10:50:17Z</time>
      </trkpt>
      <trkpt lat="48.38818" lon="2.13933">
        <ele>59</ele>
        <time>2023-12-14T10:50:18Z</time>
      </trkpt>
      <trkpt lat="48.38825" lon="2.13934">
        <ele>60</ele>
        <time>2023-12-14T10:50:19Z</time>
      </trkpt>
      <trkpt lat="48.38831" lon="2.13935">
        <ele>60.8</ele>
        <time>2023-12-14T10:50:20Z</time>
      </trkpt>
      <trkpt lat="48.38838" lon="2.13937">
        <ele>60.8</ele>
        <time>2023-12-14T10:50:21Z</time>
      </trkpt>
      <trkpt lat="48.38846" lon="2.13938">
        <ele>60.8</ele>
        <time>2023-12-14T10:50:22Z</time>
      </trkpt>
      <trkpt lat="48.38853" lon="2.1394">
        <ele>60.8</ele>
        <time>2023-12-14T10:50:23Z</time>
      </trkpt>
      <trkpt lat="48.38859" lon="2.13941">
        <ele>60.8</ele>
        <time>2023-12-14T10:50:24Z</time>
      </trkpt>
      <trkpt lat="48.38865" lon="2.13942">
        <ele>60.8</ele>
        <time>2023-12-14T10:50:25Z</time>
      </trkpt>
      <trkpt lat="48.3887" lon="2.13943">
        <ele>60.8</ele>
        <time>2023-12-14T10:50:26Z</time>
      </trkpt>
      <trkpt lat="48.38877" lon="2.13944">
        <ele>61.2</ele>
        <time>2023-12-14T10:50:27Z</time>
      </trkpt>
      <trkpt lat="48.38883" lon="2.13946">
        <ele>60.8</ele>
        <time>2023-12-14T10:50:28Z</time>
      </trkpt>
      <trkpt lat="48.38889" lon="2.13947">
        <ele>60.8</ele>
        <time>2023-12-14T10:50:29Z</time>
      </trkpt>
      <trkpt lat="48.38895" lon="2.13948">
        <ele>60.8</ele>
        <time>2023-12-14T10:50:30Z</time>
      </trkpt>
      <trkpt lat="48.38901" lon="2.13949">
        <ele>60.8</ele>
        <time>2023-12-14T10:50:31Z</time>
      </trkpt>
      <trkpt lat="48.38907" lon="2.1395">
        <ele>60.6</ele>
        <time>2023-12-14T10:50:32Z</time>
      </trkpt>
      <trkpt lat="48.38914" lon="2.13952">
        <ele>60.6</ele>
        <time>2023-12-14T10:50:33Z</time>
      </trkpt>
      <trkpt lat="48.38921" lon="2.13953">
        <ele>60.6</ele>
        <time>2023-12-14T10:50:34Z</time>
      </trkpt>
      <trkpt lat="48.38927" lon="2.13954">
        <ele>59.6</ele>
        <time>2023-12-14T10:50:35Z</time>
      </trkpt>
      <trkpt lat="48.38932" lon="2.13956">
        <ele>60</ele>
        <time>2023-12-14T10:50:36Z</time>
      </trkpt>
      <trkpt lat="48.38938" lon="2.13957">
        <ele>60</ele>
        <time>2023-12-14T10:50:37Z</time>
      </trkpt>
      <trkpt lat="48.38945" lon="2.13959">
        <ele>60</ele>
        <time>2023-12-14T10:50:38Z</time>
      </trkpt>
      <trkpt lat="48.38951" lon="2.13961">
        <ele>59.8</ele>
        <time>2023-12-14T10:50:39Z</time>
      </trkpt>
      <trkpt lat="48.38958" lon="2.13964">
        <ele>59.4</ele>
        <time>2023-12-14T10:50:40Z</time>
      </trkpt>
      <trkpt lat="48.38965" lon="2.13967">
        <ele>59.4</ele>
        <time>2023-12-14T10:50:41Z</time>
      </trkpt>
      <trkpt lat="48.38973" lon="2.1397">
        <ele>59.4</ele>
        <time>2023-12-14T10:50:42Z</time>
      </trkpt>
      <trkpt lat="48.38978" lon="2.13973">
        <ele>60</ele>
        <time>2023-12-14T10:50:43Z</time>
      </trkpt>
      <trkpt lat="48.38985" lon="2.13976">
        <ele>60</ele>
        <time>2023-12-14T10:50:44Z</time>
      </trkpt>
      <trkpt lat="48.38992" lon="2.1398">
        <ele>60</ele>
        <time>2023-12-14T10:50:45Z</time>
      </trkpt>
      <trkpt lat="48.38999" lon="2.13984">
        <ele>60</ele>
        <time>2023-12-14T10:50:46Z</time>
      </trkpt>
      <trkpt lat="48.39005" lon="2.13987">
        <ele>59.6</ele>
        <time>2023-12-14T10:50:47Z</time>
      </trkpt>
      <trkpt lat="48.39012" lon="2.13992">
        <ele>59.8</ele>
        <time>2023-12-14T10:50:48Z</time>
      </trkpt>
      <trkpt lat="48.39019" lon="2.13996">
        <ele>59.8</ele>
        <time>2023-12-14T10:50:49Z</time>
      </trkpt>
      <trkpt lat="48.39026" lon="2.14001">
        <ele>59.8</ele>
        <time>2023-12-14T10:50:50Z</time>
      </trkpt>
      <trkpt lat="48.39034" lon="2.14006">
        <ele>59.8</ele>
        <time>2023-12-14T10:50:51Z</time>
      </trkpt>
      <trkpt lat="48.39042" lon="2.14011">
        <ele>59.4</ele>
        <time>2023-12-14T10:50:52Z</time>
      </trkpt>
      <trkpt lat="48.39049" lon="2.14015">
        <ele>59.4</ele>
        <time>2023-12-14T10:50:53Z</time>
      </trkpt>
      <trkpt lat="48.39056" lon="2.1402">
        <ele>59.4</ele>
        <time>2023-12-14T10:50:54Z</time>
      </trkpt>
      <trkpt lat="48.39063" lon="2.14025">
        <ele>58.8</ele>
        <time>2023-12-14T10:50:55Z</time>
      </trkpt>
      <trkpt lat="48.3907" lon="2.14029">
        <ele>58.4</ele>
        <time>2023-12-14T10:50:56Z</time>
      </trkpt>
      <trkpt lat="48.39077" lon="2.14034">
        <ele>58.4</ele>
        <time>2023-12-14T10:50:57Z</time>
      </trkpt>
      <trkpt lat="48.39084" lon="2.14039">
        <ele>58.4</ele>
        <time>2023-12-14T10:50:58Z</time>
      </trkpt>
      <trkpt lat="48.39091" lon="2.14043">
        <ele>59</ele>
        <time>2023-12-14T10:50:59Z</time>
      </trkpt>
      <trkpt lat="48.39097" lon="2.14047">
        <ele>59</ele>
        <time>2023-12-14T10:51:00Z</time>
      </trkpt>
      <trkpt lat="48.39104" lon="2.14052">
        <ele>59</ele>
        <time>2023-12-14T10:51:01Z</time>
      </trkpt>
      <trkpt lat="48.3911" lon="2.14056">
        <ele>59</ele>
        <time>2023-12-14T10:51:02Z</time>
      </trkpt>
      <trkpt lat="48.39117" lon="2.14061">
        <ele>59.2</ele>
        <time>2023-12-14T10:51:03Z</time>
      </trkpt>
      <trkpt lat="48.39124" lon="2.14065">
        <ele>59.8</ele>
        <time>2023-12-14T10:51:04Z</time>
      </trkpt>
      <trkpt lat="48.3913" lon="2.14069">
        <ele>59.8</ele>
        <time>2023-12-14T10:51:05Z</time>
      </trkpt>
      <trkpt lat="48.39136" lon="2.14074">
        <ele>59.8</ele>
        <time>2023-12-14T10:51:06Z</time>
      </trkpt>
      <trkpt lat="48.39143" lon="2.14078">
        <ele>60.4</ele>
        <time>2023-12-14T10:51:07Z</time>
      </trkpt>
      <trkpt lat="48.39149" lon="2.14083">
        <ele>60.2</ele>
        <time>2023-12-14T10:51:08Z</time>
      </trkpt>
      <trkpt lat="48.39155" lon="2.14087">
        <ele>60.2</ele>
        <time>2023-12-14T10:51:09Z</time>
      </trkpt>
      <trkpt lat="48.39161" lon="2.14091">
        <ele>60.2</ele>
        <time>2023-12-14T10:51:10Z</time>
      </trkpt>
      <trkpt lat="48.39166" lon="2.14095">
        <ele>59.2</ele>
        <time>2023-12-14T10:51:11Z</time>
      </trkpt>
      <trkpt lat="48.39172" lon="2.14099">
        <ele>59.2</ele>
        <time>2023-12-14T10:51:12Z</time>
      </trkpt>
      <trkpt lat="48.39178" lon="2.14104">
        <ele>59.2</ele>
        <time>2023-12-14T10:51:13Z</time>
      </trkpt>
      <trkpt lat="48.39185" lon="2.14109">
        <ele>59.2</ele>
        <time>2023-12-14T10:51:14Z</time>
      </trkpt>
      <trkpt lat="48.39191" lon="2.14113">
        <ele>59.2</ele>
        <time>2023-12-14T10:51:15Z</time>
      </trkpt>
      <trkpt lat="48.39196" lon="2.14117">
        <ele>58.6</ele>
        <time>2023-12-14T10:51:16Z</time>
      </trkpt>
      <trkpt lat="48.39202" lon="2.14121">
        <ele>58.6</ele>
        <time>2023-12-14T10:51:17Z</time>
      </trkpt>
      <trkpt lat="48.39208" lon="2.14125">
        <ele>58.6</ele>
        <time>2023-12-14T10:51:18Z</time>
      </trkpt>
      <trkpt lat="48.39212" lon="2.14129">
        <ele>58</ele>
        <time>2023-12-14T10:51:19Z</time>
      </trkpt>
      <trkpt lat="48.39217" lon="2.14133">
        <ele>57.6</ele>
        <time>2023-12-14T10:51:20Z</time>
      </trkpt>
      <trkpt lat="48.39223" lon="2.14137">
        <ele>57.6</ele>
        <time>2023-12-14T10:51:21Z</time>
      </trkpt>
      <trkpt lat="48.39228" lon="2.14141">
        <ele>57.6</ele>
        <time>2023-12-14T10:51:22Z</time>
      </trkpt>
      <trkpt lat="48.39234" lon="2.14145">
        <ele>58.6</ele>
        <time>2023-12-14T10:51:23Z</time>
      </trkpt>
      <trkpt lat="48.39239" lon="2.14149">
        <ele>60.6</ele>
        <time>2023-12-14T10:51:24Z</time>
      </trkpt>
      <trkpt lat="48.39245" lon="2.14153">
        <ele>60.6</ele>
        <time>2023-12-14T10:51:25Z</time>
      </trkpt>
      <trkpt lat="48.3925" lon="2.14157">
        <ele>60.6</ele>
        <time>2023-12-14T10:51:26Z</time>
      </trkpt>
      <trkpt lat="48.39257" lon="2.14161">
        <ele>60.6</ele>
        <time>2023-12-14T10:51:27Z</time>
      </trkpt>
      <trkpt lat="48.39262" lon="2.14165">
        <ele>60.6</ele>
        <time>2023-12-14T10:51:28Z</time>
      </trkpt>
      <trkpt lat="48.39268" lon="2.14169">
        <ele>60.6</ele>
        <time>2023-12-14T10:51:29Z</time>
      </trkpt>
      <trkpt lat="48.39274" lon="2.14173">
        <ele>60.6</ele>
        <time>2023-12-14T10:51:30Z</time>
      </trkpt>
      <trkpt lat="48.39279" lon="2.14177">
        <ele>60.6</ele>
        <time>2023-12-14T10:51:31Z</time>
      </trkpt>
      <trkpt lat="48.39285" lon="2.14181">
        <ele>60.8</ele>
        <time>2023-12-14T10:51:32Z</time>
      </trkpt>
      <trkpt lat="48.39291" lon="2.14185">
        <ele>60.8</ele>
        <time>2023-12-14T10:51:33Z</time>
      </trkpt>
      <trkpt lat="48.39297" lon="2.14189">
        <ele>60.8</ele>
        <time>2023-12-14T10:51:34Z</time>
      </trkpt>
      <trkpt lat="48.39302" lon="2.14193">
        <ele>61</ele>
        <time>2023-12-14T10:51:35Z</time>
      </trkpt>
      <trkpt lat="48.39308" lon="2.14197">
        <ele>61.2</ele>
        <time>2023-12-14T10:51:36Z</time>
      </trkpt>
      <trkpt lat="48.39314" lon="2.14202">
        <ele>61.2</ele>
        <time>2023-12-14T10:51:37Z</time>
      </trkpt>
      <trkpt lat="48.39319" lon="2.14206">
        <ele>61.2</ele>
        <time>2023-12-14T10:51:38Z</time>
      </trkpt>
      <trkpt lat="48.39325" lon="2.1421">
        <ele>60.8</ele>
        <time>2023-12-14T10:51:39Z</time>
      </trkpt>
      <trkpt lat="48.39331" lon="2.14214">
        <ele>60.6</ele>
        <time>2023-12-14T10:51:40Z</time>
      </trkpt>
      <trkpt lat="48.39337" lon="2.14219">
        <ele>60.6</ele>
        <time>2023-12-14T10:51:41Z</time>
      </trkpt>
      <trkpt lat="48.39342" lon="2.14223">
        <ele>60.6</ele>
        <time>2023-12-14T10:51:42Z</time>
      </trkpt>
      <trkpt lat="48.39348" lon="2.14228">
        <ele>59.8</ele>
        <time>2023-12-14T10:51:43Z</time>
      </trkpt>
      <trkpt lat="48.39354" lon="2.14232">
        <ele>59.2</ele>
        <time>2023-12-14T10:51:44Z</time>
      </trkpt>
      <trkpt lat="48.3936" lon="2.14237">
        <ele>59.2</ele>
        <time>2023-12-14T10:51:45Z</time>
      </trkpt>
      <trkpt lat="48.39366" lon="2.14242">
        <ele>59.2</ele>
        <time>2023-12-14T10:51:46Z</time>
      </trkpt>
      <trkpt lat="48.39371" lon="2.14247">
        <ele>59.2</ele>
        <time>2023-12-14T10:51:47Z</time>
      </trkpt>
      <trkpt lat="48.39377" lon="2.14252">
        <ele>59</ele>
        <time>2023-12-14T10:51:48Z</time>
      </trkpt>
      <trkpt lat="48.39382" lon="2.14257">
        <ele>59</ele>
        <time>2023-12-14T10:51:49Z</time>
      </trkpt>
      <trkpt lat="48.39388" lon="2.14261">
        <ele>59</ele>
        <time>2023-12-14T10:51:50Z</time>
      </trkpt>
      <trkpt lat="48.39393" lon="2.14266">
        <ele>59</ele>
        <time>2023-12-14T10:51:51Z</time>
      </trkpt>
      <trkpt lat="48.39398" lon="2.14271">
        <ele>59.8</ele>
        <time>2023-12-14T10:51:52Z</time>
      </trkpt>
      <trkpt lat="48.39404" lon="2.14275">
        <ele>59.8</ele>
        <time>2023-12-14T10:51:53Z</time>
      </trkpt>
      <trkpt lat="48.39409" lon="2.1428">
        <ele>59.8</ele>
        <time>2023-12-14T10:51:54Z</time>
      </trkpt>
      <trkpt lat="48.39414" lon="2.14285">
        <ele>59.2</ele>
        <time>2023-12-14T10:51:55Z</time>
      </trkpt>
      <trkpt lat="48.39419" lon="2.14289">
        <ele>58.6</ele>
        <time>2023-12-14T10:51:56Z</time>
      </trkpt>
      <trkpt lat="48.39425" lon="2.14294">
        <ele>58.6</ele>
        <time>2023-12-14T10:51:57Z</time>
      </trkpt>
      <trkpt lat="48.3943" lon="2.14299">
        <ele>58.6</ele>
        <time>2023-12-14T10:51:58Z</time>
      </trkpt>
      <trkpt lat="48.39436" lon="2.14304">
        <ele>58.4</ele>
        <time>2023-12-14T10:51:59Z</time>
      </trkpt>
      <trkpt lat="48.39442" lon="2.14309">
        <ele>58.4</ele>
        <time>2023-12-14T10:52:00Z</time>
      </trkpt>
      <trkpt lat="48.39446" lon="2.14313">
        <ele>58.4</ele>
        <time>2023-12-14T10:52:01Z</time>
      </trkpt>
      <trkpt lat="48.39452" lon="2.14318">
        <ele>58.4</ele>
        <time>2023-12-14T10:52:02Z</time>
      </trkpt>
      <trkpt lat="48.39457" lon="2.14323">
        <ele>58.2</ele>
        <time>2023-12-14T10:52:03Z</time>
      </trkpt>
      <trkpt lat="48.39462" lon="2.14328">
        <ele>58.4</ele>
        <time>2023-12-14T10:52:04Z</time>
      </trkpt>
      <trkpt lat="48.39467" lon="2.14332">
        <ele>58.4</ele>
        <time>2023-12-14T10:52:05Z</time>
      </trkpt>
      <trkpt lat="48.39474" lon="2.14336">
        <ele>58.4</ele>
        <time>2023-12-14T10:52:06Z</time>
      </trkpt>
      <trkpt lat="48.39479" lon="2.1434">
        <ele>58.4</ele>
        <time>2023-12-14T10:52:07Z</time>
      </trkpt>
      <trkpt lat="48.39485" lon="2.14344">
        <ele>59</ele>
        <time>2023-12-14T10:52:08Z</time>
      </trkpt>
      <trkpt lat="48.39492" lon="2.14347">
        <ele>59</ele>
        <time>2023-12-14T10:52:09Z</time>
      </trkpt>
      <trkpt lat="48.39499" lon="2.14351">
        <ele>59</ele>
        <time>2023-12-14T10:52:10Z</time>
      </trkpt>
      <trkpt lat="48.39507" lon="2.14354">
        <ele>59</ele>
        <time>2023-12-14T10:52:11Z</time>
      </trkpt>
      <trkpt lat="48.39514" lon="2.14358">
        <ele>58.4</ele>
        <time>2023-12-14T10:52:12Z</time>
      </trkpt>
      <trkpt lat="48.39521" lon="2.14361">
        <ele>58.4</ele>
        <time>2023-12-14T10:52:13Z</time>
      </trkpt>
      <trkpt lat="48.39528" lon="2.14365">
        <ele>58.4</ele>
        <time>2023-12-14T10:52:14Z</time>
      </trkpt>
      <trkpt lat="48.39535" lon="2.14368">
        <ele>58.4</ele>
        <time>2023-12-14T10:52:15Z</time>
      </trkpt>
      <trkpt lat="48.39542" lon="2.1437">
        <ele>57.6</ele>
        <time>2023-12-14T10:52:16Z</time>
      </trkpt>
      <trkpt lat="48.3955" lon="2.14373">
        <ele>57.6</ele>
        <time>2023-12-14T10:52:17Z</time>
      </trkpt>
      <trkpt lat="48.39557" lon="2.14376">
        <ele>57.6</ele>
        <time>2023-12-14T10:52:18Z</time>
      </trkpt>
      <trkpt lat="48.39564" lon="2.14379">
        <ele>57.6</ele>
        <time>2023-12-14T10:52:19Z</time>
      </trkpt>
      <trkpt lat="48.39571" lon="2.14381">
        <ele>58.4</ele>
        <time>2023-12-14T10:52:20Z</time>
      </trkpt>
      <trkpt lat="48.39579" lon="2.14382">
        <ele>58.4</ele>
        <time>2023-12-14T10:52:21Z</time>
      </trkpt>
      <trkpt lat="48.39584" lon="2.14385">
        <ele>58.4</ele>
        <time>2023-12-14T10:52:22Z</time>
      </trkpt>
      <trkpt lat="48.3959" lon="2.14387">
        <ele>58.4</ele>
        <time>2023-12-14T10:52:23Z</time>
      </trkpt>
      <trkpt lat="48.39597" lon="2.14389">
        <ele>57.4</ele>
        <time>2023-12-14T10:52:24Z</time>
      </trkpt>
      <trkpt lat="48.39604" lon="2.14391">
        <ele>57.4</ele>
        <time>2023-12-14T10:52:25Z</time>
      </trkpt>
      <trkpt lat="48.39612" lon="2.14392">
        <ele>57.4</ele>
        <time>2023-12-14T10:52:26Z</time>
      </trkpt>
      <trkpt lat="48.39619" lon="2.14393">
        <ele>57.4</ele>
        <time>2023-12-14T10:52:27Z</time>
      </trkpt>
      <trkpt lat="48.39625" lon="2.14394">
        <ele>59.2</ele>
        <time>2023-12-14T10:52:28Z</time>
      </trkpt>
      <trkpt lat="48.39631" lon="2.14395">
        <ele>59.2</ele>
        <time>2023-12-14T10:52:29Z</time>
      </trkpt>
      <trkpt lat="48.39638" lon="2.14395">
        <ele>59.2</ele>
        <time>2023-12-14T10:52:30Z</time>
      </trkpt>
      <trkpt lat="48.39645" lon="2.14396">
        <ele>59.2</ele>
        <time>2023-12-14T10:52:31Z</time>
      </trkpt>
      <trkpt lat="48.39652" lon="2.14397">
        <ele>58.4</ele>
        <time>2023-12-14T10:52:32Z</time>
      </trkpt>
      <trkpt lat="48.39659" lon="2.14398">
        <ele>58.4</ele>
        <time>2023-12-14T10:52:33Z</time>
      </trkpt>
      <trkpt lat="48.39665" lon="2.14398">
        <ele>58.4</ele>
        <time>2023-12-14T10:52:34Z</time>
      </trkpt>
      <trkpt lat="48.3967" lon="2.14397">
        <ele>59.2</ele>
        <time>2023-12-14T10:52:35Z</time>
      </trkpt>
      <trkpt lat="48.39676" lon="2.14397">
        <ele>59.2</ele>
        <time>2023-12-14T10:52:36Z</time>
      </trkpt>
      <trkpt lat="48.39681" lon="2.14397">
        <ele>59.2</ele>
        <time>2023-12-14T10:52:37Z</time>
      </trkpt>
      <trkpt lat="48.39687" lon="2.14397">
        <ele>59.2</ele>
        <time>2023-12-14T10:52:38Z</time>
      </trkpt>
      <trkpt lat="48.39692" lon="2.14396">
        <ele>59.2</ele>
        <time>2023-12-14T10:52:39Z</time>
      </trkpt>
      <trkpt lat="48.39698" lon="2.14395">
        <ele>60</ele>
        <time>2023-12-14T10:52:40Z</time>
      </trkpt>
      <trkpt lat="48.39704" lon="2.14394">
        <ele>60</ele>
        <time>2023-12-14T10:52:41Z</time>
      </trkpt>
      <trkpt lat="48.39708" lon="2.14393">
        <ele>60</ele>
        <time>2023-12-14T10:52:42Z</time>
      </trkpt>
      <trkpt lat="48.39713" lon="2.14391">
        <ele>60.4</ele>
        <time>2023-12-14T10:52:43Z</time>
      </trkpt>
      <trkpt lat="48.39718" lon="2.1439">
        <ele>60.8</ele>
        <time>2023-12-14T10:52:44Z</time>
      </trkpt>
      <trkpt lat="48.39723" lon="2.14388">
        <ele>60.8</ele>
        <time>2023-12-14T10:52:45Z</time>
      </trkpt>
      <trkpt lat="48.39728" lon="2.14386">
        <ele>60.8</ele>
        <time>2023-12-14T10:52:46Z</time>
      </trkpt>
      <trkpt lat="48.39734" lon="2.14385">
        <ele>60.8</ele>
        <time>2023-12-14T10:52:47Z</time>
      </trkpt>
      <trkpt lat="48.39739" lon="2.14384">
        <ele>61.8</ele>
        <time>2023-12-14T10:52:48Z</time>
      </trkpt>
      <trkpt lat="48.39744" lon="2.14382">
        <ele>61.8</ele>
        <time>2023-12-14T10:52:49Z</time>
      </trkpt>
      <trkpt lat="48.3975" lon="2.1438">
        <ele>61.8</ele>
        <time>2023-12-14T10:52:50Z</time>
      </trkpt>
      <trkpt lat="48.39756" lon="2.14378">
        <ele>62.4</ele>
        <time>2023-12-14T10:52:51Z</time>
      </trkpt>
      <trkpt lat="48.39763" lon="2.14377">
        <ele>62.4</ele>
        <time>2023-12-14T10:52:52Z</time>
      </trkpt>
      <trkpt lat="48.39769" lon="2.14375">
        <ele>62.4</ele>
        <time>2023-12-14T10:52:53Z</time>
      </trkpt>
      <trkpt lat="48.39774" lon="2.14373">
        <ele>62.4</ele>
        <time>2023-12-14T10:52:54Z</time>
      </trkpt>
      <trkpt lat="48.3978" lon="2.14371">
        <ele>62.4</ele>
        <time>2023-12-14T10:52:55Z</time>
      </trkpt>
      <trkpt lat="48.39785" lon="2.14368">
        <ele>63.2</ele>
        <time>2023-12-14T10:52:56Z</time>
      </trkpt>
      <trkpt lat="48.3979" lon="2.14366">
        <ele>63.2</ele>
        <time>2023-12-14T10:52:57Z</time>
      </trkpt>
      <trkpt lat="48.39795" lon="2.14364">
        <ele>63.2</ele>
        <time>2023-12-14T10:52:58Z</time>
      </trkpt>
      <trkpt lat="48.39801" lon="2.14362">
        <ele>63.2</ele>
        <time>2023-12-14T10:52:59Z</time>
      </trkpt>
      <trkpt lat="48.39806" lon="2.14359">
        <ele>63.4</ele>
        <time>2023-12-14T10:53:00Z</time>
      </trkpt>
      <trkpt lat="48.39811" lon="2.14357">
        <ele>63.4</ele>
        <time>2023-12-14T10:53:01Z</time>
      </trkpt>
      <trkpt lat="48.39817" lon="2.14354">
        <ele>63.4</ele>
        <time>2023-12-14T10:53:02Z</time>
      </trkpt>
      <trkpt lat="48.39822" lon="2.14353">
        <ele>63.4</ele>
        <time>2023-12-14T10:53:03Z</time>
      </trkpt>
      <trkpt lat="48.39828" lon="2.1435">
        <ele>63.8</ele>
        <time>2023-12-14T10:53:04Z</time>
      </trkpt>
      <trkpt lat="48.39835" lon="2.14349">
        <ele>63.8</ele>
        <time>2023-12-14T10:53:05Z</time>
      </trkpt>
      <trkpt lat="48.39841" lon="2.14347">
        <ele>63.8</ele>
        <time>2023-12-14T10:53:06Z</time>
      </trkpt>
      <trkpt lat="48.39847" lon="2.14346">
        <ele>64.6</ele>
        <time>2023-12-14T10:53:07Z</time>
      </trkpt>
      <trkpt lat="48.39853" lon="2.14343">
        <ele>64.6</ele>
        <time>2023-12-14T10:53:08Z</time>
      </trkpt>
      <trkpt lat="48.39859" lon="2.14342">
        <ele>64.6</ele>
        <time>2023-12-14T10:53:09Z</time>
      </trkpt>
      <trkpt lat="48.39865" lon="2.1434">
        <ele>64.6</ele>
        <time>2023-12-14T10:53:10Z</time>
      </trkpt>
      <trkpt lat="48.39871" lon="2.14338">
        <ele>65</ele>
        <time>2023-12-14T10:53:11Z</time>
      </trkpt>
      <trkpt lat="48.39877" lon="2.14336">
        <ele>65</ele>
        <time>2023-12-14T10:53:12Z</time>
      </trkpt>
      <trkpt lat="48.39883" lon="2.14334">
        <ele>65</ele>
        <time>2023-12-14T10:53:13Z</time>
      </trkpt>
      <trkpt lat="48.39889" lon="2.14332">
        <ele>65</ele>
        <time>2023-12-14T10:53:14Z</time>
      </trkpt>
      <trkpt lat="48.39895" lon="2.1433">
        <ele>65</ele>
        <time>2023-12-14T10:53:15Z</time>
      </trkpt>
      <trkpt lat="48.39901" lon="2.14327">
        <ele>65.6</ele>
        <time>2023-12-14T10:53:16Z</time>
      </trkpt>
      <trkpt lat="48.39907" lon="2.14325">
        <ele>65.6</ele>
        <time>2023-12-14T10:53:17Z</time>
      </trkpt>
      <trkpt lat="48.39913" lon="2.14323">
        <ele>65.6</ele>
        <time>2023-12-14T10:53:18Z</time>
      </trkpt>
      <trkpt lat="48.39919" lon="2.14321">
        <ele>66.2</ele>
        <time>2023-12-14T10:53:19Z</time>
      </trkpt>
      <trkpt lat="48.39924" lon="2.14319">
        <ele>65</ele>
        <time>2023-12-14T10:53:20Z</time>
      </trkpt>
      <trkpt lat="48.3993" lon="2.14316">
        <ele>65</ele>
        <time>2023-12-14T10:53:21Z</time>
      </trkpt>
      <trkpt lat="48.39936" lon="2.14314">
        <ele>65</ele>
        <time>2023-12-14T10:53:22Z</time>
      </trkpt>
      <trkpt lat="48.39942" lon="2.14311">
        <ele>65.4</ele>
        <time>2023-12-14T10:53:23Z</time>
      </trkpt>
      <trkpt lat="48.39947" lon="2.14309">
        <ele>66</ele>
        <time>2023-12-14T10:53:24Z</time>
      </trkpt>
      <trkpt lat="48.39953" lon="2.14307">
        <ele>66</ele>
        <time>2023-12-14T10:53:25Z</time>
      </trkpt>
      <trkpt lat="48.39958" lon="2.14305">
        <ele>66</ele>
        <time>2023-12-14T10:53:26Z</time>
      </trkpt>
      <trkpt lat="48.39964" lon="2.14303">
        <ele>67</ele>
        <time>2023-12-14T10:53:27Z</time>
      </trkpt>
      <trkpt lat="48.3997" lon="2.143">
        <ele>68</ele>
        <time>2023-12-14T10:53:28Z</time>
      </trkpt>
      <trkpt lat="48.39975" lon="2.14298">
        <ele>68</ele>
        <time>2023-12-14T10:53:29Z</time>
      </trkpt>
      <trkpt lat="48.3998" lon="2.14296">
        <ele>68</ele>
        <time>2023-12-14T10:53:30Z</time>
      </trkpt>
      <trkpt lat="48.39986" lon="2.14294">
        <ele>68</ele>
        <time>2023-12-14T10:53:31Z</time>
      </trkpt>
      <trkpt lat="48.39991" lon="2.14291">
        <ele>67.8</ele>
        <time>2023-12-14T10:53:32Z</time>
      </trkpt>
      <trkpt lat="48.39996" lon="2.14289">
        <ele>67.8</ele>
        <time>2023-12-14T10:53:33Z</time>
      </trkpt>
      <trkpt lat="48.40002" lon="2.14287">
        <ele>67.8</ele>
        <time>2023-12-14T10:53:34Z</time>
      </trkpt>
      <trkpt lat="48.40007" lon="2.14285">
        <ele>68.4</ele>
        <time>2023-12-14T10:53:35Z</time>
      </trkpt>
      <trkpt lat="48.40013" lon="2.14283">
        <ele>68.2</ele>
        <time>2023-12-14T10:53:36Z</time>
      </trkpt>
      <trkpt lat="48.40018" lon="2.14281">
        <ele>68.2</ele>
        <time>2023-12-14T10:53:37Z</time>
      </trkpt>
      <trkpt lat="48.40023" lon="2.14278">
        <ele>68.2</ele>
        <time>2023-12-14T10:53:38Z</time>
      </trkpt>
      <trkpt lat="48.40029" lon="2.14276">
        <ele>68.2</ele>
        <time>2023-12-14T10:53:39Z</time>
      </trkpt>
      <trkpt lat="48.40034" lon="2.14273">
        <ele>68.6</ele>
        <time>2023-12-14T10:53:40Z</time>
      </trkpt>
      <trkpt lat="48.40039" lon="2.14271">
        <ele>68.6</ele>
        <time>2023-12-14T10:53:41Z</time>
      </trkpt>
      <trkpt lat="48.40044" lon="2.14268">
        <ele>68.6</ele>
        <time>2023-12-14T10:53:42Z</time>
      </trkpt>
      <trkpt lat="48.40049" lon="2.14264">
        <ele>69.6</ele>
        <time>2023-12-14T10:53:43Z</time>
      </trkpt>
      <trkpt lat="48.40054" lon="2.14261">
        <ele>70.6</ele>
        <time>2023-12-14T10:53:44Z</time>
      </trkpt>
      <trkpt lat="48.40058" lon="2.14257">
        <ele>70.6</ele>
        <time>2023-12-14T10:53:45Z</time>
      </trkpt>
      <trkpt lat="48.40063" lon="2.14253">
        <ele>70.6</ele>
        <time>2023-12-14T10:53:46Z</time>
      </trkpt>
      <trkpt lat="48.40068" lon="2.14249">
        <ele>70.8</ele>
        <time>2023-12-14T10:53:47Z</time>
      </trkpt>
      <trkpt lat="48.40073" lon="2.14245">
        <ele>70.8</ele>
        <time>2023-12-14T10:53:48Z</time>
      </trkpt>
      <trkpt lat="48.40077" lon="2.14241">
        <ele>70.8</ele>
        <time>2023-12-14T10:53:49Z</time>
      </trkpt>
      <trkpt lat="48.40082" lon="2.14236">
        <ele>70.8</ele>
        <time>2023-12-14T10:53:50Z</time>
      </trkpt>
      <trkpt lat="48.40086" lon="2.14232">
        <ele>70.4</ele>
        <time>2023-12-14T10:53:51Z</time>
      </trkpt>
      <trkpt lat="48.40091" lon="2.14227">
        <ele>70.4</ele>
        <time>2023-12-14T10:53:52Z</time>
      </trkpt>
      <trkpt lat="48.40096" lon="2.14222">
        <ele>70.4</ele>
        <time>2023-12-14T10:53:53Z</time>
      </trkpt>
      <trkpt lat="48.401" lon="2.14218">
        <ele>70.4</ele>
        <time>2023-12-14T10:53:54Z</time>
      </trkpt>
      <trkpt lat="48.40105" lon="2.14213">
        <ele>69.8</ele>
        <time>2023-12-14T10:53:55Z</time>
      </trkpt>
      <trkpt lat="48.4011" lon="2.14208">
        <ele>70.4</ele>
        <time>2023-12-14T10:53:56Z</time>
      </trkpt>
      <trkpt lat="48.40114" lon="2.14203">
        <ele>70.4</ele>
        <time>2023-12-14T10:53:57Z</time>
      </trkpt>
      <trkpt lat="48.40119" lon="2.14198">
        <ele>70.4</ele>
        <time>2023-12-14T10:53:58Z</time>
      </trkpt>
      <trkpt lat="48.40124" lon="2.14193">
        <ele>70.4</ele>
        <time>2023-12-14T10:53:59Z</time>
      </trkpt>
      <trkpt lat="48.40128" lon="2.14188">
        <ele>70.4</ele>
        <time>2023-12-14T10:54:00Z</time>
      </trkpt>
      <trkpt lat="48.40133" lon="2.14184">
        <ele>70.4</ele>
        <time>2023-12-14T10:54:01Z</time>
      </trkpt>
      <trkpt lat="48.40138" lon="2.14179">
        <ele>70.4</ele>
        <time>2023-12-14T10:54:02Z</time>
      </trkpt>
      <trkpt lat="48.40143" lon="2.14174">
        <ele>70.4</ele>
        <time>2023-12-14T10:54:03Z</time>
      </trkpt>
      <trkpt lat="48.40148" lon="2.1417">
        <ele>69.8</ele>
        <time>2023-12-14T10:54:04Z</time>
      </trkpt>
      <trkpt lat="48.40153" lon="2.14166">
        <ele>69.8</ele>
        <time>2023-12-14T10:54:05Z</time>
      </trkpt>
      <trkpt lat="48.40158" lon="2.14161">
        <ele>69.8</ele>
        <time>2023-12-14T10:54:06Z</time>
      </trkpt>
      <trkpt lat="48.40163" lon="2.14155">
        <ele>70.4</ele>
        <time>2023-12-14T10:54:07Z</time>
      </trkpt>
      <trkpt lat="48.40167" lon="2.14149">
        <ele>70.8</ele>
        <time>2023-12-14T10:54:08Z</time>
      </trkpt>
      <trkpt lat="48.40172" lon="2.14143">
        <ele>70.8</ele>
        <time>2023-12-14T10:54:09Z</time>
      </trkpt>
      <trkpt lat="48.40177" lon="2.14137">
        <ele>70.8</ele>
        <time>2023-12-14T10:54:10Z</time>
      </trkpt>
      <trkpt lat="48.40182" lon="2.14132">
        <ele>70.8</ele>
        <time>2023-12-14T10:54:11Z</time>
      </trkpt>
      <trkpt lat="48.40186" lon="2.14126">
        <ele>70.6</ele>
        <time>2023-12-14T10:54:12Z</time>
      </trkpt>
      <trkpt lat="48.40192" lon="2.14121">
        <ele>70.6</ele>
        <time>2023-12-14T10:54:13Z</time>
      </trkpt>
      <trkpt lat="48.40197" lon="2.14115">
        <ele>70.6</ele>
        <time>2023-12-14T10:54:14Z</time>
      </trkpt>
      <trkpt lat="48.40202" lon="2.14111">
        <ele>71.6</ele>
        <time>2023-12-14T10:54:15Z</time>
      </trkpt>
      <trkpt lat="48.40208" lon="2.14107">
        <ele>72.2</ele>
        <time>2023-12-14T10:54:16Z</time>
      </trkpt>
      <trkpt lat="48.40213" lon="2.14103">
        <ele>72.2</ele>
        <time>2023-12-14T10:54:17Z</time>
      </trkpt>
      <trkpt lat="48.40219" lon="2.141">
        <ele>72.2</ele>
        <time>2023-12-14T10:54:18Z</time>
      </trkpt>
      <trkpt lat="48.40225" lon="2.14097">
        <ele>72.2</ele>
        <time>2023-12-14T10:54:19Z</time>
      </trkpt>
      <trkpt lat="48.40231" lon="2.14095">
        <ele>73</ele>
        <time>2023-12-14T10:54:20Z</time>
      </trkpt>
      <trkpt lat="48.40237" lon="2.14093">
        <ele>73</ele>
        <time>2023-12-14T10:54:21Z</time>
      </trkpt>
      <trkpt lat="48.40242" lon="2.1409">
        <ele>73</ele>
        <time>2023-12-14T10:54:22Z</time>
      </trkpt>
      <trkpt lat="48.40248" lon="2.14089">
        <ele>73</ele>
        <time>2023-12-14T10:54:23Z</time>
      </trkpt>
      <trkpt lat="48.40254" lon="2.14088">
        <ele>72.2</ele>
        <time>2023-12-14T10:54:24Z</time>
      </trkpt>
      <trkpt lat="48.4026" lon="2.14088">
        <ele>72.2</ele>
        <time>2023-12-14T10:54:25Z</time>
      </trkpt>
      <trkpt lat="48.40265" lon="2.14086">
        <ele>72.2</ele>
        <time>2023-12-14T10:54:26Z</time>
      </trkpt>
      <trkpt lat="48.40271" lon="2.14083">
        <ele>72.2</ele>
        <time>2023-12-14T10:54:27Z</time>
      </trkpt>
      <trkpt lat="48.40276" lon="2.1408">
        <ele>72.4</ele>
        <time>2023-12-14T10:54:28Z</time>
      </trkpt>
      <trkpt lat="48.40281" lon="2.14077">
        <ele>72.4</ele>
        <time>2023-12-14T10:54:29Z</time>
      </trkpt>
      <trkpt lat="48.40287" lon="2.14075">
        <ele>72.4</ele>
        <time>2023-12-14T10:54:30Z</time>
      </trkpt>
      <trkpt lat="48.40293" lon="2.14073">
        <ele>72.8</ele>
        <time>2023-12-14T10:54:31Z</time>
      </trkpt>
      <trkpt lat="48.40298" lon="2.14071">
        <ele>71.8</ele>
        <time>2023-12-14T10:54:32Z</time>
      </trkpt>
      <trkpt lat="48.40304" lon="2.1407">
        <ele>71.8</ele>
        <time>2023-12-14T10:54:33Z</time>
      </trkpt>
      <trkpt lat="48.4031" lon="2.1407">
        <ele>71.8</ele>
        <time>2023-12-14T10:54:34Z</time>
      </trkpt>
      <trkpt lat="48.40315" lon="2.1407">
        <ele>72.4</ele>
        <time>2023-12-14T10:54:35Z</time>
      </trkpt>
      <trkpt lat="48.40321" lon="2.14069">
        <ele>72.4</ele>
        <time>2023-12-14T10:54:36Z</time>
      </trkpt>
      <trkpt lat="48.40326" lon="2.14069">
        <ele>72.4</ele>
        <time>2023-12-14T10:54:37Z</time>
      </trkpt>
      <trkpt lat="48.40332" lon="2.14069">
        <ele>72.4</ele>
        <time>2023-12-14T10:54:38Z</time>
      </trkpt>
      <trkpt lat="48.40338" lon="2.14069">
        <ele>73.4</ele>
        <time>2023-12-14T10:54:39Z</time>
      </trkpt>
      <trkpt lat="48.40344" lon="2.14069">
        <ele>73.4</ele>
        <time>2023-12-14T10:54:40Z</time>
      </trkpt>
      <trkpt lat="48.4035" lon="2.14069">
        <ele>73.4</ele>
        <time>2023-12-14T10:54:41Z</time>
      </trkpt>
      <trkpt lat="48.40356" lon="2.14069">
        <ele>73.4</ele>
        <time>2023-12-14T10:54:42Z</time>
      </trkpt>
      <trkpt lat="48.40362" lon="2.14069">
        <ele>72.6</ele>
        <time>2023-12-14T10:54:43Z</time>
      </trkpt>
      <trkpt lat="48.40368" lon="2.14069">
        <ele>73.4</ele>
        <time>2023-12-14T10:54:44Z</time>
      </trkpt>
      <trkpt lat="48.40374" lon="2.1407">
        <ele>73.4</ele>
        <time>2023-12-14T10:54:45Z</time>
      </trkpt>
      <trkpt lat="48.40381" lon="2.1407">
        <ele>73.4</ele>
        <time>2023-12-14T10:54:46Z</time>
      </trkpt>
      <trkpt lat="48.40387" lon="2.1407">
        <ele>73.8</ele>
        <time>2023-12-14T10:54:47Z</time>
      </trkpt>
      <trkpt lat="48.40393" lon="2.1407">
        <ele>73.8</ele>
        <time>2023-12-14T10:54:48Z</time>
      </trkpt>
      <trkpt lat="48.40399" lon="2.14071">
        <ele>73.8</ele>
        <time>2023-12-14T10:54:49Z</time>
      </trkpt>
      <trkpt lat="48.40405" lon="2.14071">
        <ele>73.8</ele>
        <time>2023-12-14T10:54:50Z</time>
      </trkpt>
      <trkpt lat="48.40412" lon="2.1407">
        <ele>72.8</ele>
        <time>2023-12-14T10:54:51Z</time>
      </trkpt>
      <trkpt lat="48.40418" lon="2.14071">
        <ele>71.6</ele>
        <time>2023-12-14T10:54:52Z</time>
      </trkpt>
      <trkpt lat="48.40424" lon="2.14071">
        <ele>71.6</ele>
        <time>2023-12-14T10:54:53Z</time>
      </trkpt>
      <trkpt lat="48.40431" lon="2.14071">
        <ele>71.6</ele>
        <time>2023-12-14T10:54:54Z</time>
      </trkpt>
      <trkpt lat="48.40437" lon="2.14072">
        <ele>71.8</ele>
        <time>2023-12-14T10:54:55Z</time>
      </trkpt>
      <trkpt lat="48.40443" lon="2.14072">
        <ele>71.6</ele>
        <time>2023-12-14T10:54:56Z</time>
      </trkpt>
      <trkpt lat="48.4045" lon="2.14073">
        <ele>71.6</ele>
        <time>2023-12-14T10:54:57Z</time>
      </trkpt>
      <trkpt lat="48.40457" lon="2.14074">
        <ele>71.6</ele>
        <time>2023-12-14T10:54:58Z</time>
      </trkpt>
      <trkpt lat="48.40463" lon="2.14075">
        <ele>71.6</ele>
        <time>2023-12-14T10:54:59Z</time>
      </trkpt>
      <trkpt lat="48.4047" lon="2.14076">
        <ele>71.4</ele>
        <time>2023-12-14T10:55:00Z</time>
      </trkpt>
      <trkpt lat="48.40476" lon="2.14079">
        <ele>71.4</ele>
        <time>2023-12-14T10:55:01Z</time>
      </trkpt>
      <trkpt lat="48.40483" lon="2.14081">
        <ele>71.4</ele>
        <time>2023-12-14T10:55:02Z</time>
      </trkpt>
      <trkpt lat="48.40489" lon="2.14084">
        <ele>70.8</ele>
        <time>2023-12-14T10:55:03Z</time>
      </trkpt>
      <trkpt lat="48.40495" lon="2.14086">
        <ele>71</ele>
        <time>2023-12-14T10:55:04Z</time>
      </trkpt>
      <trkpt lat="48.40502" lon="2.1409">
        <ele>71</ele>
        <time>2023-12-14T10:55:05Z</time>
      </trkpt>
      <trkpt lat="48.40509" lon="2.14093">
        <ele>71</ele>
        <time>2023-12-14T10:55:06Z</time>
      </trkpt>
      <trkpt lat="48.40515" lon="2.14097">
        <ele>71</ele>
        <time>2023-12-14T10:55:07Z</time>
      </trkpt>
      <trkpt lat="48.40522" lon="2.141">
        <ele>70.6</ele>
        <time>2023-12-14T10:55:08Z</time>
      </trkpt>
      <trkpt lat="48.40529" lon="2.14104">
        <ele>70.6</ele>
        <time>2023-12-14T10:55:09Z</time>
      </trkpt>
      <trkpt lat="48.40535" lon="2.14108">
        <ele>70.6</ele>
        <time>2023-12-14T10:55:10Z</time>
      </trkpt>
      <trkpt lat="48.40542" lon="2.14112">
        <ele>70.6</ele>
        <time>2023-12-14T10:55:11Z</time>
      </trkpt>
      <trkpt lat="48.40549" lon="2.14115">
        <ele>70.2</ele>
        <time>2023-12-14T10:55:12Z</time>
      </trkpt>
      <trkpt lat="48.40555" lon="2.14119">
        <ele>70.2</ele>
        <time>2023-12-14T10:55:13Z</time>
      </trkpt>
      <trkpt lat="48.40562" lon="2.14122">
        <ele>70.2</ele>
        <time>2023-12-14T10:55:14Z</time>
      </trkpt>
      <trkpt lat="48.40569" lon="2.14126">
        <ele>70.2</ele>
        <time>2023-12-14T10:55:15Z</time>
      </trkpt>
      <trkpt lat="48.40576" lon="2.1413">
        <ele>69.4</ele>
        <time>2023-12-14T10:55:16Z</time>
      </trkpt>
      <trkpt lat="48.40582" lon="2.14134">
        <ele>69.4</ele>
        <time>2023-12-14T10:55:17Z</time>
      </trkpt>
      <trkpt lat="48.40589" lon="2.14138">
        <ele>69.4</ele>
        <time>2023-12-14T10:55:18Z</time>
      </trkpt>
      <trkpt lat="48.40596" lon="2.14142">
        <ele>69.4</ele>
        <time>2023-12-14T10:55:19Z</time>
      </trkpt>
      <trkpt lat="48.40603" lon="2.14146">
        <ele>68.6</ele>
        <time>2023-12-14T10:55:20Z</time>
      </trkpt>
      <trkpt lat="48.4061" lon="2.1415">
        <ele>68.6</ele>
        <time>2023-12-14T10:55:21Z</time>
      </trkpt>
      <trkpt lat="48.40616" lon="2.14154">
        <ele>68.6</ele>
        <time>2023-12-14T10:55:22Z</time>
      </trkpt>
      <trkpt lat="48.40623" lon="2.14158">
        <ele>68.8</ele>
        <time>2023-12-14T10:55:23Z</time>
      </trkpt>
      <trkpt lat="48.4063" lon="2.14162">
        <ele>68.8</ele>
        <time>2023-12-14T10:55:24Z</time>
      </trkpt>
      <trkpt lat="48.40637" lon="2.14166">
        <ele>68.8</ele>
        <time>2023-12-14T10:55:25Z</time>
      </trkpt>
      <trkpt lat="48.40644" lon="2.1417">
        <ele>68.8</ele>
        <time>2023-12-14T10:55:26Z</time>
      </trkpt>
      <trkpt lat="48.40651" lon="2.14174">
        <ele>68.4</ele>
        <time>2023-12-14T10:55:27Z</time>
      </trkpt>
      <trkpt lat="48.40658" lon="2.14178">
        <ele>68</ele>
        <time>2023-12-14T10:55:28Z</time>
      </trkpt>
      <trkpt lat="48.40666" lon="2.14181">
        <ele>68</ele>
        <time>2023-12-14T10:55:29Z</time>
      </trkpt>
      <trkpt lat="48.40673" lon="2.14184">
        <ele>68</ele>
        <time>2023-12-14T10:55:30Z</time>
      </trkpt>
      <trkpt lat="48.40681" lon="2.14187">
        <ele>67.8</ele>
        <time>2023-12-14T10:55:31Z</time>
      </trkpt>
      <trkpt lat="48.40688" lon="2.14189">
        <ele>67.2</ele>
        <time>2023-12-14T10:55:32Z</time>
      </trkpt>
      <trkpt lat="48.40696" lon="2.14191">
        <ele>67.2</ele>
        <time>2023-12-14T10:55:33Z</time>
      </trkpt>
      <trkpt lat="48.40703" lon="2.14194">
        <ele>67.2</ele>
        <time>2023-12-14T10:55:34Z</time>
      </trkpt>
      <trkpt lat="48.40711" lon="2.14196">
        <ele>67.2</ele>
        <time>2023-12-14T10:55:35Z</time>
      </trkpt>
      <trkpt lat="48.40718" lon="2.14198">
        <ele>67.2</ele>
        <time>2023-12-14T10:55:36Z</time>
      </trkpt>
      <trkpt lat="48.40726" lon="2.14199">
        <ele>67.2</ele>
        <time>2023-12-14T10:55:37Z</time>
      </trkpt>
      <trkpt lat="48.40734" lon="2.14201">
        <ele>67.2</ele>
        <time>2023-12-14T10:55:38Z</time>
      </trkpt>
      <trkpt lat="48.40741" lon="2.14202">
        <ele>67</ele>
        <time>2023-12-14T10:55:39Z</time>
      </trkpt>
      <trkpt lat="48.40748" lon="2.14204">
        <ele>66.6</ele>
        <time>2023-12-14T10:55:40Z</time>
      </trkpt>
      <trkpt lat="48.40756" lon="2.14206">
        <ele>66.6</ele>
        <time>2023-12-14T10:55:41Z</time>
      </trkpt>
      <trkpt lat="48.40763" lon="2.14207">
        <ele>66.6</ele>
        <time>2023-12-14T10:55:42Z</time>
      </trkpt>
      <trkpt lat="48.40771" lon="2.14209">
        <ele>66.6</ele>
        <time>2023-12-14T10:55:43Z</time>
      </trkpt>
      <trkpt lat="48.40778" lon="2.14211">
        <ele>66.6</ele>
        <time>2023-12-14T10:55:44Z</time>
      </trkpt>
      <trkpt lat="48.40785" lon="2.14212">
        <ele>66.6</ele>
        <time>2023-12-14T10:55:45Z</time>
      </trkpt>
      <trkpt lat="48.40792" lon="2.14214">
        <ele>66.6</ele>
        <time>2023-12-14T10:55:46Z</time>
      </trkpt>
      <trkpt lat="48.40799" lon="2.14216">
        <ele>66</ele>
        <time>2023-12-14T10:55:47Z</time>
      </trkpt>
      <trkpt lat="48.40806" lon="2.14217">
        <ele>66.4</ele>
        <time>2023-12-14T10:55:48Z</time>
      </trkpt>
      <trkpt lat="48.40813" lon="2.1422">
        <ele>66.4</ele>
        <time>2023-12-14T10:55:49Z</time>
      </trkpt>
      <trkpt lat="48.40819" lon="2.14221">
        <ele>66.4</ele>
        <time>2023-12-14T10:55:50Z</time>
      </trkpt>
      <trkpt lat="48.40826" lon="2.14223">
        <ele>66.4</ele>
        <time>2023-12-14T10:55:51Z</time>
      </trkpt>
      <trkpt lat="48.40833" lon="2.14225">
        <ele>66.2</ele>
        <time>2023-12-14T10:55:52Z</time>
      </trkpt>
      <trkpt lat="48.4084" lon="2.14227">
        <ele>66.2</ele>
        <time>2023-12-14T10:55:53Z</time>
      </trkpt>
      <trkpt lat="48.40846" lon="2.14229">
        <ele>66.2</ele>
        <time>2023-12-14T10:55:54Z</time>
      </trkpt>
      <trkpt lat="48.40854" lon="2.14231">
        <ele>67</ele>
        <time>2023-12-14T10:55:55Z</time>
      </trkpt>
      <trkpt lat="48.40861" lon="2.14234">
        <ele>66.4</ele>
        <time>2023-12-14T10:55:56Z</time>
      </trkpt>
      <trkpt lat="48.40868" lon="2.14237">
        <ele>66.4</ele>
        <time>2023-12-14T10:55:57Z</time>
      </trkpt>
      <trkpt lat="48.40874" lon="2.1424">
        <ele>66.4</ele>
        <time>2023-12-14T10:55:58Z</time>
      </trkpt>
      <trkpt lat="48.40881" lon="2.14243">
        <ele>65.8</ele>
        <time>2023-12-14T10:55:59Z</time>
      </trkpt>
      <trkpt lat="48.40888" lon="2.14247">
        <ele>66.2</ele>
        <time>2023-12-14T10:56:00Z</time>
      </trkpt>
      <trkpt lat="48.40895" lon="2.14251">
        <ele>66.2</ele>
        <time>2023-12-14T10:56:01Z</time>
      </trkpt>
      <trkpt lat="48.40902" lon="2.14255">
        <ele>66.2</ele>
        <time>2023-12-14T10:56:02Z</time>
      </trkpt>
      <trkpt lat="48.40908" lon="2.14259">
        <ele>65.2</ele>
        <time>2023-12-14T10:56:03Z</time>
      </trkpt>
      <trkpt lat="48.40915" lon="2.14263">
        <ele>64.6</ele>
        <time>2023-12-14T10:56:04Z</time>
      </trkpt>
      <trkpt lat="48.40922" lon="2.14267">
        <ele>64.6</ele>
        <time>2023-12-14T10:56:05Z</time>
      </trkpt>
      <trkpt lat="48.40929" lon="2.14272">
        <ele>64.6</ele>
        <time>2023-12-14T10:56:06Z</time>
      </trkpt>
      <trkpt lat="48.40936" lon="2.14276">
        <ele>65</ele>
        <time>2023-12-14T10:56:07Z</time>
      </trkpt>
      <trkpt lat="48.40942" lon="2.14281">
        <ele>64.6</ele>
        <time>2023-12-14T10:56:08Z</time>
      </trkpt>
      <trkpt lat="48.40949" lon="2.14285">
        <ele>64.6</ele>
        <time>2023-12-14T10:56:09Z</time>
      </trkpt>
      <trkpt lat="48.40956" lon="2.1429">
        <ele>64.6</ele>
        <time>2023-12-14T10:56:10Z</time>
      </trkpt>
      <trkpt lat="48.40962" lon="2.14294">
        <ele>64.6</ele>
        <time>2023-12-14T10:56:11Z</time>
      </trkpt>
      <trkpt lat="48.40968" lon="2.14298">
        <ele>64.6</ele>
        <time>2023-12-14T10:56:12Z</time>
      </trkpt>
      <trkpt lat="48.40975" lon="2.14303">
        <ele>64.6</ele>
        <time>2023-12-14T10:56:13Z</time>
      </trkpt>
      <trkpt lat="48.40981" lon="2.14307">
        <ele>64.6</ele>
        <time>2023-12-14T10:56:14Z</time>
      </trkpt>
      <trkpt lat="48.40988" lon="2.14312">
        <ele>64.6</ele>
        <time>2023-12-14T10:56:15Z</time>
      </trkpt>
      <trkpt lat="48.40995" lon="2.14316">
        <ele>64.6</ele>
        <time>2023-12-14T10:56:16Z</time>
      </trkpt>
      <trkpt lat="48.41002" lon="2.14321">
        <ele>64.6</ele>
        <time>2023-12-14T10:56:17Z</time>
      </trkpt>
      <trkpt lat="48.41009" lon="2.14325">
        <ele>64.6</ele>
        <time>2023-12-14T10:56:18Z</time>
      </trkpt>
      <trkpt lat="48.41016" lon="2.14329">
        <ele>63.6</ele>
        <time>2023-12-14T10:56:19Z</time>
      </trkpt>
      <trkpt lat="48.41022" lon="2.14334">
        <ele>63.2</ele>
        <time>2023-12-14T10:56:20Z</time>
      </trkpt>
      <trkpt lat="48.4103" lon="2.14338">
        <ele>63.2</ele>
        <time>2023-12-14T10:56:21Z</time>
      </trkpt>
      <trkpt lat="48.41037" lon="2.14343">
        <ele>63.2</ele>
        <time>2023-12-14T10:56:22Z</time>
      </trkpt>
      <trkpt lat="48.41044" lon="2.14347">
        <ele>63.2</ele>
        <time>2023-12-14T10:56:23Z</time>
      </trkpt>
      <trkpt lat="48.41051" lon="2.14351">
        <ele>62.2</ele>
        <time>2023-12-14T10:56:24Z</time>
      </trkpt>
      <trkpt lat="48.41058" lon="2.14356">
        <ele>62.2</ele>
        <time>2023-12-14T10:56:25Z</time>
      </trkpt>
      <trkpt lat="48.41065" lon="2.1436">
        <ele>62.2</ele>
        <time>2023-12-14T10:56:26Z</time>
      </trkpt>
      <trkpt lat="48.41073" lon="2.14364">
        <ele>62.2</ele>
        <time>2023-12-14T10:56:27Z</time>
      </trkpt>
      <trkpt lat="48.4108" lon="2.14368">
        <ele>62.2</ele>
        <time>2023-12-14T10:56:28Z</time>
      </trkpt>
      <trkpt lat="48.41087" lon="2.14372">
        <ele>62.2</ele>
        <time>2023-12-14T10:56:29Z</time>
      </trkpt>
      <trkpt lat="48.41095" lon="2.14376">
        <ele>62.2</ele>
        <time>2023-12-14T10:56:30Z</time>
      </trkpt>
      <trkpt lat="48.41102" lon="2.14379">
        <ele>61.2</ele>
        <time>2023-12-14T10:56:31Z</time>
      </trkpt>
      <trkpt lat="48.4111" lon="2.14382">
        <ele>61.6</ele>
        <time>2023-12-14T10:56:32Z</time>
      </trkpt>
      <trkpt lat="48.41117" lon="2.14385">
        <ele>61.6</ele>
        <time>2023-12-14T10:56:33Z</time>
      </trkpt>
      <trkpt lat="48.41125" lon="2.14388">
        <ele>61.6</ele>
        <time>2023-12-14T10:56:34Z</time>
      </trkpt>
      <trkpt lat="48.41133" lon="2.14391">
        <ele>60.6</ele>
        <time>2023-12-14T10:56:35Z</time>
      </trkpt>
      <trkpt lat="48.4114" lon="2.14394">
        <ele>58.8</ele>
        <time>2023-12-14T10:56:36Z</time>
      </trkpt>
      <trkpt lat="48.41148" lon="2.14397">
        <ele>58.8</ele>
        <time>2023-12-14T10:56:37Z</time>
      </trkpt>
      <trkpt lat="48.41155" lon="2.144">
        <ele>58.8</ele>
        <time>2023-12-14T10:56:38Z</time>
      </trkpt>
      <trkpt lat="48.41162" lon="2.14403">
        <ele>59.8</ele>
        <time>2023-12-14T10:56:39Z</time>
      </trkpt>
      <trkpt lat="48.4117" lon="2.14407">
        <ele>59.8</ele>
        <time>2023-12-14T10:56:40Z</time>
      </trkpt>
      <trkpt lat="48.41178" lon="2.1441">
        <ele>59.8</ele>
        <time>2023-12-14T10:56:41Z</time>
      </trkpt>
      <trkpt lat="48.41185" lon="2.14413">
        <ele>59.8</ele>
        <time>2023-12-14T10:56:42Z</time>
      </trkpt>
      <trkpt lat="48.41192" lon="2.14416">
        <ele>60.8</ele>
        <time>2023-12-14T10:56:43Z</time>
      </trkpt>
      <trkpt lat="48.41199" lon="2.14419">
        <ele>61</ele>
        <time>2023-12-14T10:56:44Z</time>
      </trkpt>
      <trkpt lat="48.41206" lon="2.14422">
        <ele>61</ele>
        <time>2023-12-14T10:56:45Z</time>
      </trkpt>
      <trkpt lat="48.41213" lon="2.14425">
        <ele>61</ele>
        <time>2023-12-14T10:56:46Z</time>
      </trkpt>
      <trkpt lat="48.41219" lon="2.14428">
        <ele>61.4</ele>
        <time>2023-12-14T10:56:47Z</time>
      </trkpt>
      <trkpt lat="48.41225" lon="2.14431">
        <ele>61.2</ele>
        <time>2023-12-14T10:56:48Z</time>
      </trkpt>
      <trkpt lat="48.41231" lon="2.14435">
        <ele>61.2</ele>
        <time>2023-12-14T10:56:49Z</time>
      </trkpt>
      <trkpt lat="48.41237" lon="2.14438">
        <ele>61.2</ele>
        <time>2023-12-14T10:56:50Z</time>
      </trkpt>
      <trkpt lat="48.41243" lon="2.14442">
        <ele>61.8</ele>
        <time>2023-12-14T10:56:51Z</time>
      </trkpt>
      <trkpt lat="48.41249" lon="2.14446">
        <ele>62.2</ele>
        <time>2023-12-14T10:56:52Z</time>
      </trkpt>
      <trkpt lat="48.41254" lon="2.14451">
        <ele>62.2</ele>
        <time>2023-12-14T10:56:53Z</time>
      </trkpt>
      <trkpt lat="48.4126" lon="2.14456">
        <ele>62.2</ele>
        <time>2023-12-14T10:56:54Z</time>
      </trkpt>
      <trkpt lat="48.41265" lon="2.14461">
        <ele>62.2</ele>
        <time>2023-12-14T10:56:55Z</time>
      </trkpt>
      <trkpt lat="48.4127" lon="2.14467">
        <ele>61.4</ele>
        <time>2023-12-14T10:56:56Z</time>
      </trkpt>
      <trkpt lat="48.41275" lon="2.14472">
        <ele>61.4</ele>
        <time>2023-12-14T10:56:57Z</time>
      </trkpt>
      <trkpt lat="48.4128" lon="2.14478">
        <ele>61.4</ele>
        <time>2023-12-14T10:56:58Z</time>
      </trkpt>
      <trkpt lat="48.41284" lon="2.14485">
        <ele>62.4</ele>
        <time>2023-12-14T10:56:59Z</time>
      </trkpt>
      <trkpt lat="48.41289" lon="2.14492">
        <ele>62.6</ele>
        <time>2023-12-14T10:57:00Z</time>
      </trkpt>
      <trkpt lat="48.41293" lon="2.14499">
        <ele>62.6</ele>
        <time>2023-12-14T10:57:01Z</time>
      </trkpt>
      <trkpt lat="48.41298" lon="2.14507">
        <ele>62.6</ele>
        <time>2023-12-14T10:57:02Z</time>
      </trkpt>
      <trkpt lat="48.41302" lon="2.14515">
        <ele>62.4</ele>
        <time>2023-12-14T10:57:03Z</time>
      </trkpt>
      <trkpt lat="48.41306" lon="2.14523">
        <ele>62</ele>
        <time>2023-12-14T10:57:04Z</time>
      </trkpt>
      <trkpt lat="48.4131" lon="2.14532">
        <ele>62</ele>
        <time>2023-12-14T10:57:05Z</time>
      </trkpt>
      <trkpt lat="48.41314" lon="2.14541">
        <ele>62</ele>
        <time>2023-12-14T10:57:06Z</time>
      </trkpt>
      <trkpt lat="48.41318" lon="2.14549">
        <ele>62</ele>
        <time>2023-12-14T10:57:07Z</time>
      </trkpt>
      <trkpt lat="48.41322" lon="2.14558">
        <ele>61.2</ele>
        <time>2023-12-14T10:57:08Z</time>
      </trkpt>
      <trkpt lat="48.41326" lon="2.14567">
        <ele>61.2</ele>
        <time>2023-12-14T10:57:09Z</time>
      </trkpt>
      <trkpt lat="48.4133" lon="2.14576">
        <ele>61.2</ele>
        <time>2023-12-14T10:57:10Z</time>
      </trkpt>
      <trkpt lat="48.41335" lon="2.14585">
        <ele>60.4</ele>
        <time>2023-12-14T10:57:11Z</time>
      </trkpt>
      <trkpt lat="48.41339" lon="2.14595">
        <ele>59</ele>
        <time>2023-12-14T10:57:12Z</time>
      </trkpt>
      <trkpt lat="48.41344" lon="2.14604">
        <ele>59</ele>
        <time>2023-12-14T10:57:13Z</time>
      </trkpt>
      <trkpt lat="48.41349" lon="2.14613">
        <ele>59</ele>
        <time>2023-12-14T10:57:14Z</time>
      </trkpt>
      <trkpt lat="48.41355" lon="2.14622">
        <ele>58.4</ele>
        <time>2023-12-14T10:57:15Z</time>
      </trkpt>
      <trkpt lat="48.4136" lon="2.1463">
        <ele>59.4</ele>
        <time>2023-12-14T10:57:16Z</time>
      </trkpt>
      <trkpt lat="48.41366" lon="2.14639">
        <ele>59.4</ele>
        <time>2023-12-14T10:57:17Z</time>
      </trkpt>
      <trkpt lat="48.41373" lon="2.14646">
        <ele>59.4</ele>
        <time>2023-12-14T10:57:18Z</time>
      </trkpt>
      <trkpt lat="48.4138" lon="2.14654">
        <ele>58.4</ele>
        <time>2023-12-14T10:57:19Z</time>
      </trkpt>
      <trkpt lat="48.41387" lon="2.14661">
        <ele>57.8</ele>
        <time>2023-12-14T10:57:20Z</time>
      </trkpt>
      <trkpt lat="48.41394" lon="2.14667">
        <ele>57.8</ele>
        <time>2023-12-14T10:57:21Z</time>
      </trkpt>
      <trkpt lat="48.41401" lon="2.14673">
        <ele>57.8</ele>
        <time>2023-12-14T10:57:22Z</time>
      </trkpt>
      <trkpt lat="48.41409" lon="2.14678">
        <ele>57.8</ele>
        <time>2023-12-14T10:57:23Z</time>
      </trkpt>
      <trkpt lat="48.41416" lon="2.14684">
        <ele>57.4</ele>
        <time>2023-12-14T10:57:24Z</time>
      </trkpt>
      <trkpt lat="48.41424" lon="2.14689">
        <ele>57.4</ele>
        <time>2023-12-14T10:57:25Z</time>
      </trkpt>
      <trkpt lat="48.41431" lon="2.14694">
        <ele>57.4</ele>
        <time>2023-12-14T10:57:26Z</time>
      </trkpt>
      <trkpt lat="48.41439" lon="2.14699">
        <ele>57.4</ele>
        <time>2023-12-14T10:57:27Z</time>
      </trkpt>
      <trkpt lat="48.41446" lon="2.14703">
        <ele>56.6</ele>
        <time>2023-12-14T10:57:28Z</time>
      </trkpt>
      <trkpt lat="48.41453" lon="2.14708">
        <ele>56.6</ele>
        <time>2023-12-14T10:57:29Z</time>
      </trkpt>
      <trkpt lat="48.4146" lon="2.14713">
        <ele>56.6</ele>
        <time>2023-12-14T10:57:30Z</time>
      </trkpt>
      <trkpt lat="48.41467" lon="2.14719">
        <ele>57.4</ele>
        <time>2023-12-14T10:57:31Z</time>
      </trkpt>
      <trkpt lat="48.41474" lon="2.14724">
        <ele>57.2</ele>
        <time>2023-12-14T10:57:32Z</time>
      </trkpt>
      <trkpt lat="48.41481" lon="2.14729">
        <ele>57.2</ele>
        <time>2023-12-14T10:57:33Z</time>
      </trkpt>
      <trkpt lat="48.41488" lon="2.14734">
        <ele>57.2</ele>
        <time>2023-12-14T10:57:34Z</time>
      </trkpt>
      <trkpt lat="48.41495" lon="2.1474">
        <ele>57.4</ele>
        <time>2023-12-14T10:57:35Z</time>
      </trkpt>
      <trkpt lat="48.41502" lon="2.14745">
        <ele>57</ele>
        <time>2023-12-14T10:57:36Z</time>
      </trkpt>
      <trkpt lat="48.41508" lon="2.14751">
        <ele>57</ele>
        <time>2023-12-14T10:57:37Z</time>
      </trkpt>
      <trkpt lat="48.41515" lon="2.14756">
        <ele>57</ele>
        <time>2023-12-14T10:57:38Z</time>
      </trkpt>
      <trkpt lat="48.41521" lon="2.14761">
        <ele>57</ele>
        <time>2023-12-14T10:57:39Z</time>
      </trkpt>
      <trkpt lat="48.41528" lon="2.14766">
        <ele>56.4</ele>
        <time>2023-12-14T10:57:40Z</time>
      </trkpt>
      <trkpt lat="48.41533" lon="2.14771">
        <ele>56.4</ele>
        <time>2023-12-14T10:57:41Z</time>
      </trkpt>
      <trkpt lat="48.41537" lon="2.14775">
        <ele>56.4</ele>
        <time>2023-12-14T10:57:42Z</time>
      </trkpt>
      <trkpt lat="48.41545" lon="2.1478">
        <ele>56.2</ele>
        <time>2023-12-14T10:57:43Z</time>
      </trkpt>
      <trkpt lat="48.41551" lon="2.14784">
        <ele>57</ele>
        <time>2023-12-14T10:57:44Z</time>
      </trkpt>
      <trkpt lat="48.41556" lon="2.14788">
        <ele>57</ele>
        <time>2023-12-14T10:57:45Z</time>
      </trkpt>
      <trkpt lat="48.41563" lon="2.14791">
        <ele>57</ele>
        <time>2023-12-14T10:57:46Z</time>
      </trkpt>
      <trkpt lat="48.41569" lon="2.14793">
        <ele>58</ele>
        <time>2023-12-14T10:57:47Z</time>
      </trkpt>
      <trkpt lat="48.41575" lon="2.14796">
        <ele>58.2</ele>
        <time>2023-12-14T10:57:48Z</time>
      </trkpt>
      <trkpt lat="48.41582" lon="2.148">
        <ele>58.2</ele>
        <time>2023-12-14T10:57:49Z</time>
      </trkpt>
      <trkpt lat="48.41589" lon="2.14803">
        <ele>58.2</ele>
        <time>2023-12-14T10:57:50Z</time>
      </trkpt>
      <trkpt lat="48.41595" lon="2.14805">
        <ele>58.2</ele>
        <time>2023-12-14T10:57:51Z</time>
      </trkpt>
      <trkpt lat="48.41602" lon="2.14807">
        <ele>59</ele>
        <time>2023-12-14T10:57:52Z</time>
      </trkpt>
      <trkpt lat="48.41608" lon="2.14809">
        <ele>59</ele>
        <time>2023-12-14T10:57:53Z</time>
      </trkpt>
      <trkpt lat="48.41614" lon="2.1481">
        <ele>59</ele>
        <time>2023-12-14T10:57:54Z</time>
      </trkpt>
      <trkpt lat="48.41621" lon="2.14812">
        <ele>58.2</ele>
        <time>2023-12-14T10:57:55Z</time>
      </trkpt>
      <trkpt lat="48.41627" lon="2.14813">
        <ele>57.4</ele>
        <time>2023-12-14T10:57:56Z</time>
      </trkpt>
      <trkpt lat="48.41634" lon="2.14814">
        <ele>57.4</ele>
        <time>2023-12-14T10:57:57Z</time>
      </trkpt>
      <trkpt lat="48.41641" lon="2.14815">
        <ele>57.4</ele>
        <time>2023-12-14T10:57:58Z</time>
      </trkpt>
      <trkpt lat="48.41647" lon="2.14815">
        <ele>57.4</ele>
        <time>2023-12-14T10:57:59Z</time>
      </trkpt>
      <trkpt lat="48.41653" lon="2.14816">
        <ele>57.8</ele>
        <time>2023-12-14T10:58:00Z</time>
      </trkpt>
      <trkpt lat="48.4166" lon="2.14816">
        <ele>57.8</ele>
        <time>2023-12-14T10:58:01Z</time>
      </trkpt>
      <trkpt lat="48.41667" lon="2.14817">
        <ele>57.8</ele>
        <time>2023-12-14T10:58:02Z</time>
      </trkpt>
      <trkpt lat="48.41674" lon="2.14818">
        <ele>56.8</ele>
        <time>2023-12-14T10:58:03Z</time>
      </trkpt>
      <trkpt lat="48.41681" lon="2.14818">
        <ele>57.2</ele>
        <time>2023-12-14T10:58:04Z</time>
      </trkpt>
      <trkpt lat="48.41688" lon="2.14819">
        <ele>57.2</ele>
        <time>2023-12-14T10:58:05Z</time>
      </trkpt>
      <trkpt lat="48.41695" lon="2.1482">
        <ele>57.2</ele>
        <time>2023-12-14T10:58:06Z</time>
      </trkpt>
      <trkpt lat="48.41702" lon="2.1482">
        <ele>57.2</ele>
        <time>2023-12-14T10:58:07Z</time>
      </trkpt>
      <trkpt lat="48.41709" lon="2.1482">
        <ele>56.6</ele>
        <time>2023-12-14T10:58:08Z</time>
      </trkpt>
      <trkpt lat="48.41716" lon="2.14821">
        <ele>56.6</ele>
        <time>2023-12-14T10:58:09Z</time>
      </trkpt>
      <trkpt lat="48.41722" lon="2.14822">
        <ele>56.6</ele>
        <time>2023-12-14T10:58:10Z</time>
      </trkpt>
      <trkpt lat="48.41729" lon="2.14824">
        <ele>57.2</ele>
        <time>2023-12-14T10:58:11Z</time>
      </trkpt>
      <trkpt lat="48.41735" lon="2.14825">
        <ele>57.8</ele>
        <time>2023-12-14T10:58:12Z</time>
      </trkpt>
      <trkpt lat="48.41741" lon="2.14827">
        <ele>57.8</ele>
        <time>2023-12-14T10:58:13Z</time>
      </trkpt>
      <trkpt lat="48.41746" lon="2.1483">
        <ele>57.8</ele>
        <time>2023-12-14T10:58:14Z</time>
      </trkpt>
      <trkpt lat="48.41751" lon="2.14833">
        <ele>57.4</ele>
        <time>2023-12-14T10:58:15Z</time>
      </trkpt>
      <trkpt lat="48.41756" lon="2.14836">
        <ele>58</ele>
        <time>2023-12-14T10:58:16Z</time>
      </trkpt>
      <trkpt lat="48.41761" lon="2.1484">
        <ele>58</ele>
        <time>2023-12-14T10:58:17Z</time>
      </trkpt>
      <trkpt lat="48.41765" lon="2.14844">
        <ele>58</ele>
        <time>2023-12-14T10:58:18Z</time>
      </trkpt>
      <trkpt lat="48.4177" lon="2.14847">
        <ele>57.8</ele>
        <time>2023-12-14T10:58:19Z</time>
      </trkpt>
      <trkpt lat="48.41775" lon="2.14848">
        <ele>57.8</ele>
        <time>2023-12-14T10:58:20Z</time>
      </trkpt>
      <trkpt lat="48.41779" lon="2.14845">
        <ele>57.8</ele>
        <time>2023-12-14T10:58:21Z</time>
      </trkpt>
      <trkpt lat="48.41783" lon="2.14841">
        <ele>57.8</ele>
        <time>2023-12-14T10:58:22Z</time>
      </trkpt>
      <trkpt lat="48.41787" lon="2.14836">
        <ele>57.2</ele>
        <time>2023-12-14T10:58:23Z</time>
      </trkpt>
      <trkpt lat="48.4179" lon="2.1483">
        <ele>57.8</ele>
        <time>2023-12-14T10:58:24Z</time>
      </trkpt>
      <trkpt lat="48.41794" lon="2.14826">
        <ele>57.8</ele>
        <time>2023-12-14T10:58:25Z</time>
      </trkpt>
      <trkpt lat="48.41798" lon="2.14822">
        <ele>57.8</ele>
        <time>2023-12-14T10:58:26Z</time>
      </trkpt>
      <trkpt lat="48.41803" lon="2.14819">
        <ele>57.8</ele>
        <time>2023-12-14T10:58:27Z</time>
      </trkpt>
      <trkpt lat="48.41808" lon="2.14816">
        <ele>58.4</ele>
        <time>2023-12-14T10:58:28Z</time>
      </trkpt>
      <trkpt lat="48.41813" lon="2.14814">
        <ele>58.4</ele>
        <time>2023-12-14T10:58:29Z</time>
      </trkpt>
      <trkpt lat="48.41818" lon="2.14812">
        <ele>58.4</ele>
        <time>2023-12-14T10:58:30Z</time>
      </trkpt>
      <trkpt lat="48.41823" lon="2.14811">
        <ele>57.6</ele>
        <time>2023-12-14T10:58:31Z</time>
      </trkpt>
      <trkpt lat="48.41828" lon="2.1481">
        <ele>58</ele>
        <time>2023-12-14T10:58:32Z</time>
      </trkpt>
      <trkpt lat="48.41834" lon="2.14809">
        <ele>58</ele>
        <time>2023-12-14T10:58:33Z</time>
      </trkpt>
      <trkpt lat="48.41839" lon="2.14808">
        <ele>58</ele>
        <time>2023-12-14T10:58:34Z</time>
      </trkpt>
      <trkpt lat="48.41844" lon="2.14807">
        <ele>58</ele>
        <time>2023-12-14T10:58:35Z</time>
      </trkpt>
      <trkpt lat="48.41849" lon="2.14805">
        <ele>57.2</ele>
        <time>2023-12-14T10:58:36Z</time>
      </trkpt>
      <trkpt lat="48.41854" lon="2.14803">
        <ele>57.2</ele>
        <time>2023-12-14T10:58:37Z</time>
      </trkpt>
      <trkpt lat="48.41859" lon="2.148">
        <ele>57.2</ele>
        <time>2023-12-14T10:58:38Z</time>
      </trkpt>
      <trkpt lat="48.41865" lon="2.14798">
        <ele>58.2</ele>
        <time>2023-12-14T10:58:39Z</time>
      </trkpt>
      <trkpt lat="48.4187" lon="2.14796">
        <ele>59.2</ele>
        <time>2023-12-14T10:58:40Z</time>
      </trkpt>
      <trkpt lat="48.41875" lon="2.14795">
        <ele>59.2</ele>
        <time>2023-12-14T10:58:41Z</time>
      </trkpt>
      <trkpt lat="48.4188" lon="2.14794">
        <ele>59.2</ele>
        <time>2023-12-14T10:58:42Z</time>
      </trkpt>
      <trkpt lat="48.41884" lon="2.14792">
        <ele>59.2</ele>
        <time>2023-12-14T10:58:43Z</time>
      </trkpt>
      <trkpt lat="48.4189" lon="2.14791">
        <ele>59.4</ele>
        <time>2023-12-14T10:58:44Z</time>
      </trkpt>
      <trkpt lat="48.41895" lon="2.1479">
        <ele>59.4</ele>
        <time>2023-12-14T10:58:45Z</time>
      </trkpt>
      <trkpt lat="48.419" lon="2.1479">
        <ele>59.4</ele>
        <time>2023-12-14T10:58:46Z</time>
      </trkpt>
      <trkpt lat="48.41906" lon="2.14789">
        <ele>59.4</ele>
        <time>2023-12-14T10:58:47Z</time>
      </trkpt>
      <trkpt lat="48.41911" lon="2.14787">
        <ele>59.4</ele>
        <time>2023-12-14T10:58:48Z</time>
      </trkpt>
      <trkpt lat="48.41916" lon="2.14786">
        <ele>59.4</ele>
        <time>2023-12-14T10:58:49Z</time>
      </trkpt>
      <trkpt lat="48.41921" lon="2.14785">
        <ele>59.4</ele>
        <time>2023-12-14T10:58:50Z</time>
      </trkpt>
      <trkpt lat="48.41926" lon="2.14783">
        <ele>59.6</ele>
        <time>2023-12-14T10:58:51Z</time>
      </trkpt>
      <trkpt lat="48.4193" lon="2.14782">
        <ele>59.8</ele>
        <time>2023-12-14T10:58:52Z</time>
      </trkpt>
      <trkpt lat="48.41935" lon="2.1478">
        <ele>59.8</ele>
        <time>2023-12-14T10:58:53Z</time>
      </trkpt>
      <trkpt lat="48.4194" lon="2.14779">
        <ele>59.8</ele>
        <time>2023-12-14T10:58:54Z</time>
      </trkpt>
      <trkpt lat="48.41944" lon="2.14777">
        <ele>60.8</ele>
        <time>2023-12-14T10:58:55Z</time>
      </trkpt>
      <trkpt lat="48.41949" lon="2.14776">
        <ele>61.4</ele>
        <time>2023-12-14T10:58:56Z</time>
      </trkpt>
      <trkpt lat="48.41953" lon="2.14774">
        <ele>61.4</ele>
        <time>2023-12-14T10:58:57Z</time>
      </trkpt>
      <trkpt lat="48.41957" lon="2.14773">
        <ele>61.4</ele>
        <time>2023-12-14T10:58:58Z</time>
      </trkpt>
      <trkpt lat="48.41961" lon="2.14772">
        <ele>60.6</ele>
        <time>2023-12-14T10:58:59Z</time>
      </trkpt>
      <trkpt lat="48.41966" lon="2.14771">
        <ele>60.2</ele>
        <time>2023-12-14T10:59:00Z</time>
      </trkpt>
      <trkpt lat="48.41971" lon="2.1477">
        <ele>60.2</ele>
        <time>2023-12-14T10:59:01Z</time>
      </trkpt>
      <trkpt lat="48.41976" lon="2.14769">
        <ele>60.2</ele>
        <time>2023-12-14T10:59:02Z</time>
      </trkpt>
      <trkpt lat="48.4198" lon="2.14768">
        <ele>61.2</ele>
        <time>2023-12-14T10:59:03Z</time>
      </trkpt>
      <trkpt lat="48.41985" lon="2.14767">
        <ele>62</ele>
        <time>2023-12-14T10:59:04Z</time>
      </trkpt>
      <trkpt lat="48.4199" lon="2.14766">
        <ele>62</ele>
        <time>2023-12-14T10:59:05Z</time>
      </trkpt>
      <trkpt lat="48.41995" lon="2.14765">
        <ele>62</ele>
        <time>2023-12-14T10:59:06Z</time>
      </trkpt>
      <trkpt lat="48.42" lon="2.14764">
        <ele>62.4</ele>
        <time>2023-12-14T10:59:07Z</time>
      </trkpt>
      <trkpt lat="48.42004" lon="2.14762">
        <ele>62.6</ele>
        <time>2023-12-14T10:59:08Z</time>
      </trkpt>
      <trkpt lat="48.42009" lon="2.14761">
        <ele>62.6</ele>
        <time>2023-12-14T10:59:09Z</time>
      </trkpt>
      <trkpt lat="48.42014" lon="2.1476">
        <ele>62.6</ele>
        <time>2023-12-14T10:59:10Z</time>
      </trkpt>
      <trkpt lat="48.42019" lon="2.14759">
        <ele>62.6</ele>
        <time>2023-12-14T10:59:11Z</time>
      </trkpt>
      <trkpt lat="48.42024" lon="2.14758">
        <ele>62.4</ele>
        <time>2023-12-14T10:59:12Z</time>
      </trkpt>
      <trkpt lat="48.42029" lon="2.14757">
        <ele>62.4</ele>
        <time>2023-12-14T10:59:13Z</time>
      </trkpt>
      <trkpt lat="48.42033" lon="2.14755">
        <ele>62.4</ele>
        <time>2023-12-14T10:59:14Z</time>
      </trkpt>
      <trkpt lat="48.42038" lon="2.14754">
        <ele>62.4</ele>
        <time>2023-12-14T10:59:15Z</time>
      </trkpt>
      <trkpt lat="48.42043" lon="2.14752">
        <ele>62.8</ele>
        <time>2023-12-14T10:59:16Z</time>
      </trkpt>
      <trkpt lat="48.42047" lon="2.14751">
        <ele>62.8</ele>
        <time>2023-12-14T10:59:17Z</time>
      </trkpt>
      <trkpt lat="48.42052" lon="2.14749">
        <ele>62.8</ele>
        <time>2023-12-14T10:59:18Z</time>
      </trkpt>
      <trkpt lat="48.42056" lon="2.14747">
        <ele>62.8</ele>
        <time>2023-12-14T10:59:19Z</time>
      </trkpt>
      <trkpt lat="48.42061" lon="2.14746">
        <ele>64.4</ele>
        <time>2023-12-14T10:59:20Z</time>
      </trkpt>
      <trkpt lat="48.42066" lon="2.14744">
        <ele>64.4</ele>
        <time>2023-12-14T10:59:21Z</time>
      </trkpt>
      <trkpt lat="48.42071" lon="2.14743">
        <ele>64.4</ele>
        <time>2023-12-14T10:59:22Z</time>
      </trkpt>
      <trkpt lat="48.42076" lon="2.14742">
        <ele>64.4</ele>
        <time>2023-12-14T10:59:23Z</time>
      </trkpt>
      <trkpt lat="48.4208" lon="2.1474">
        <ele>63.8</ele>
        <time>2023-12-14T10:59:24Z</time>
      </trkpt>
      <trkpt lat="48.42085" lon="2.14739">
        <ele>63.8</ele>
        <time>2023-12-14T10:59:25Z</time>
      </trkpt>
      <trkpt lat="48.4209" lon="2.14737">
        <ele>63.8</ele>
        <time>2023-12-14T10:59:26Z</time>
      </trkpt>
      <trkpt lat="48.42095" lon="2.14736">
        <ele>64</ele>
        <time>2023-12-14T10:59:27Z</time>
      </trkpt>
      <trkpt lat="48.421" lon="2.14734">
        <ele>64</ele>
        <time>2023-12-14T10:59:28Z</time>
      </trkpt>
      <trkpt lat="48.42104" lon="2.14733">
        <ele>64</ele>
        <time>2023-12-14T10:59:29Z</time>
      </trkpt>
      <trkpt lat="48.42109" lon="2.14731">
        <ele>64</ele>
        <time>2023-12-14T10:59:30Z</time>
      </trkpt>
      <trkpt lat="48.42114" lon="2.1473">
        <ele>65</ele>
        <time>2023-12-14T10:59:31Z</time>
      </trkpt>
      <trkpt lat="48.42118" lon="2.14728">
        <ele>65</ele>
        <time>2023-12-14T10:59:32Z</time>
      </trkpt>
      <trkpt lat="48.42123" lon="2.14727">
        <ele>65</ele>
        <time>2023-12-14T10:59:33Z</time>
      </trkpt>
      <trkpt lat="48.42127" lon="2.14725">
        <ele>65</ele>
        <time>2023-12-14T10:59:34Z</time>
      </trkpt>
      <trkpt lat="48.42132" lon="2.14723">
        <ele>65.2</ele>
        <time>2023-12-14T10:59:35Z</time>
      </trkpt>
      <trkpt lat="48.42136" lon="2.14721">
        <ele>65.4</ele>
        <time>2023-12-14T10:59:36Z</time>
      </trkpt>
      <trkpt lat="48.42141" lon="2.14719">
        <ele>65.4</ele>
        <time>2023-12-14T10:59:37Z</time>
      </trkpt>
      <trkpt lat="48.42146" lon="2.14717">
        <ele>65.4</ele>
        <time>2023-12-14T10:59:38Z</time>
      </trkpt>
      <trkpt lat="48.4215" lon="2.14715">
        <ele>65.4</ele>
        <time>2023-12-14T10:59:39Z</time>
      </trkpt>
      <trkpt lat="48.42154" lon="2.14712">
        <ele>66.4</ele>
        <time>2023-12-14T10:59:40Z</time>
      </trkpt>
      <trkpt lat="48.42158" lon="2.1471">
        <ele>66.4</ele>
        <time>2023-12-14T10:59:41Z</time>
      </trkpt>
      <trkpt lat="48.42162" lon="2.14708">
        <ele>66.4</ele>
        <time>2023-12-14T10:59:42Z</time>
      </trkpt>
      <trkpt lat="48.42167" lon="2.14705">
        <ele>66.8</ele>
        <time>2023-12-14T10:59:43Z</time>
      </trkpt>
      <trkpt lat="48.42171" lon="2.14703">
        <ele>67</ele>
        <time>2023-12-14T10:59:44Z</time>
      </trkpt>
      <trkpt lat="48.42175" lon="2.147">
        <ele>67</ele>
        <time>2023-12-14T10:59:45Z</time>
      </trkpt>
      <trkpt lat="48.42179" lon="2.14699">
        <ele>67</ele>
        <time>2023-12-14T10:59:46Z</time>
      </trkpt>
      <trkpt lat="48.42183" lon="2.14697">
        <ele>67</ele>
        <time>2023-12-14T10:59:47Z</time>
      </trkpt>
      <trkpt lat="48.42187" lon="2.14695">
        <ele>68.2</ele>
        <time>2023-12-14T10:59:48Z</time>
      </trkpt>
      <trkpt lat="48.42191" lon="2.14694">
        <ele>68.2</ele>
        <time>2023-12-14T10:59:49Z</time>
      </trkpt>
      <trkpt lat="48.42194" lon="2.14692">
        <ele>68.2</ele>
        <time>2023-12-14T10:59:50Z</time>
      </trkpt>
      <trkpt lat="48.42197" lon="2.1469">
        <ele>68.2</ele>
        <time>2023-12-14T10:59:51Z</time>
      </trkpt>
      <trkpt lat="48.42201" lon="2.14689">
        <ele>67.6</ele>
        <time>2023-12-14T10:59:52Z</time>
      </trkpt>
      <trkpt lat="48.42203" lon="2.14688">
        <ele>67.6</ele>
        <time>2023-12-14T10:59:53Z</time>
      </trkpt>
      <trkpt lat="48.42206" lon="2.14687">
        <ele>67.6</ele>
        <time>2023-12-14T10:59:54Z</time>
      </trkpt>
      <trkpt lat="48.42209" lon="2.14685">
        <ele>67.6</ele>
        <time>2023-12-14T10:59:55Z</time>
      </trkpt>
      <trkpt lat="48.42213" lon="2.14684">
        <ele>67.2</ele>
        <time>2023-12-14T10:59:56Z</time>
      </trkpt>
      <trkpt lat="48.42216" lon="2.14683">
        <ele>67.2</ele>
        <time>2023-12-14T10:59:57Z</time>
      </trkpt>
      <trkpt lat="48.4222" lon="2.14682">
        <ele>67.2</ele>
        <time>2023-12-14T10:59:58Z</time>
      </trkpt>
      <trkpt lat="48.42223" lon="2.14681">
        <ele>66.6</ele>
        <time>2023-12-14T10:59:59Z</time>
      </trkpt>
      <trkpt lat="48.42227" lon="2.14681">
        <ele>66.4</ele>
        <time>2023-12-14T11:00:00Z</time>
      </trkpt>
      <trkpt lat="48.42231" lon="2.14681">
        <ele>66.4</ele>
        <time>2023-12-14T11:00:01Z</time>
      </trkpt>
      <trkpt lat="48.42235" lon="2.14681">
        <ele>66.4</ele>
        <time>2023-12-14T11:00:02Z</time>
      </trkpt>
      <trkpt lat="48.4224" lon="2.1468">
        <ele>66.4</ele>
        <time>2023-12-14T11:00:03Z</time>
      </trkpt>
      <trkpt lat="48.42244" lon="2.14679">
        <ele>65.6</ele>
        <time>2023-12-14T11:00:04Z</time>
      </trkpt>
      <trkpt lat="48.42249" lon="2.14679">
        <ele>65.6</ele>
        <time>2023-12-14T11:00:05Z</time>
      </trkpt>
      <trkpt lat="48.42253" lon="2.1468">
        <ele>65.6</ele>
        <time>2023-12-14T11:00:06Z</time>
      </trkpt>
      <trkpt lat="48.42258" lon="2.14681">
        <ele>64.6</ele>
        <time>2023-12-14T11:00:07Z</time>
      </trkpt>
      <trkpt lat="48.42262" lon="2.14681">
        <ele>64.6</ele>
        <time>2023-12-14T11:00:08Z</time>
      </trkpt>
      <trkpt lat="48.42266" lon="2.14682">
        <ele>64.6</ele>
        <time>2023-12-14T11:00:09Z</time>
      </trkpt>
      <trkpt lat="48.4227" lon="2.14683">
        <ele>64.6</ele>
        <time>2023-12-14T11:00:10Z</time>
      </trkpt>
      <trkpt lat="48.42274" lon="2.14682">
        <ele>64.6</ele>
        <time>2023-12-14T11:00:11Z</time>
      </trkpt>
      <trkpt lat="48.42278" lon="2.1468">
        <ele>64.2</ele>
        <time>2023-12-14T11:00:12Z</time>
      </trkpt>
      <trkpt lat="48.42281" lon="2.14677">
        <ele>64.2</ele>
        <time>2023-12-14T11:00:13Z</time>
      </trkpt>
      <trkpt lat="48.42285" lon="2.14674">
        <ele>64.2</ele>
        <time>2023-12-14T11:00:14Z</time>
      </trkpt>
      <trkpt lat="48.4229" lon="2.14671">
        <ele>63.2</ele>
        <time>2023-12-14T11:00:15Z</time>
      </trkpt>
      <trkpt lat="48.42294" lon="2.14669">
        <ele>62.8</ele>
        <time>2023-12-14T11:00:16Z</time>
      </trkpt>
      <trkpt lat="48.42299" lon="2.14667">
        <ele>62.8</ele>
        <time>2023-12-14T11:00:17Z</time>
      </trkpt>
      <trkpt lat="48.42304" lon="2.14664">
        <ele>62.8</ele>
        <time>2023-12-14T11:00:18Z</time>
      </trkpt>
      <trkpt lat="48.42308" lon="2.14662">
        <ele>62.2</ele>
        <time>2023-12-14T11:00:19Z</time>
      </trkpt>
      <trkpt lat="48.42313" lon="2.1466">
        <ele>62.4</ele>
        <time>2023-12-14T11:00:20Z</time>
      </trkpt>
      <trkpt lat="48.42316" lon="2.14657">
        <ele>62.4</ele>
        <time>2023-12-14T11:00:21Z</time>
      </trkpt>
      <trkpt lat="48.42318" lon="2.14652">
        <ele>62.4</ele>
        <time>2023-12-14T11:00:22Z</time>
      </trkpt>
      <trkpt lat="48.42318" lon="2.14646">
        <ele>62.4</ele>
        <time>2023-12-14T11:00:23Z</time>
      </trkpt>
      <trkpt lat="48.42319" lon="2.1464">
        <ele>62.6</ele>
        <time>2023-12-14T11:00:24Z</time>
      </trkpt>
      <trkpt lat="48.4232" lon="2.14633">
        <ele>62.6</ele>
        <time>2023-12-14T11:00:25Z</time>
      </trkpt>
      <trkpt lat="48.42321" lon="2.14627">
        <ele>62.6</ele>
        <time>2023-12-14T11:00:26Z</time>
      </trkpt>
      <trkpt lat="48.42322" lon="2.14621">
        <ele>61.8</ele>
        <time>2023-12-14T11:00:27Z</time>
      </trkpt>
      <trkpt lat="48.42323" lon="2.14614">
        <ele>62</ele>
        <time>2023-12-14T11:00:28Z</time>
      </trkpt>
      <trkpt lat="48.42324" lon="2.14608">
        <ele>62</ele>
        <time>2023-12-14T11:00:29Z</time>
      </trkpt>
      <trkpt lat="48.42326" lon="2.14601">
        <ele>62</ele>
        <time>2023-12-14T11:00:30Z</time>
      </trkpt>
      <trkpt lat="48.42328" lon="2.14595">
        <ele>62</ele>
        <time>2023-12-14T11:00:31Z</time>
      </trkpt>
      <trkpt lat="48.42329" lon="2.14589">
        <ele>62.4</ele>
        <time>2023-12-14T11:00:32Z</time>
      </trkpt>
      <trkpt lat="48.42329" lon="2.14582">
        <ele>62.4</ele>
        <time>2023-12-14T11:00:33Z</time>
      </trkpt>
      <trkpt lat="48.42331" lon="2.14577">
        <ele>62.4</ele>
        <time>2023-12-14T11:00:34Z</time>
      </trkpt>
      <trkpt lat="48.42333" lon="2.14571">
        <ele>62.4</ele>
        <time>2023-12-14T11:00:35Z</time>
      </trkpt>
      <trkpt lat="48.42335" lon="2.14564">
        <ele>62.2</ele>
        <time>2023-12-14T11:00:36Z</time>
      </trkpt>
      <trkpt lat="48.42337" lon="2.14557">
        <ele>62.2</ele>
        <time>2023-12-14T11:00:37Z</time>
      </trkpt>
      <trkpt lat="48.42339" lon="2.14551">
        <ele>62.2</ele>
        <time>2023-12-14T11:00:38Z</time>
      </trkpt>
      <trkpt lat="48.42341" lon="2.14544">
        <ele>62.2</ele>
        <time>2023-12-14T11:00:39Z</time>
      </trkpt>
      <trkpt lat="48.42343" lon="2.14538">
        <ele>63</ele>
        <time>2023-12-14T11:00:40Z</time>
      </trkpt>
      <trkpt lat="48.42346" lon="2.14531">
        <ele>63</ele>
        <time>2023-12-14T11:00:41Z</time>
      </trkpt>
      <trkpt lat="48.42348" lon="2.14525">
        <ele>63</ele>
        <time>2023-12-14T11:00:42Z</time>
      </trkpt>
      <trkpt lat="48.42351" lon="2.14519">
        <ele>62.6</ele>
        <time>2023-12-14T11:00:43Z</time>
      </trkpt>
      <trkpt lat="48.42353" lon="2.14513">
        <ele>63.2</ele>
        <time>2023-12-14T11:00:44Z</time>
      </trkpt>
      <trkpt lat="48.42356" lon="2.14507">
        <ele>63.2</ele>
        <time>2023-12-14T11:00:45Z</time>
      </trkpt>
      <trkpt lat="48.42358" lon="2.145">
        <ele>63.2</ele>
        <time>2023-12-14T11:00:46Z</time>
      </trkpt>
      <trkpt lat="48.4236" lon="2.14494">
        <ele>62.8</ele>
        <time>2023-12-14T11:00:47Z</time>
      </trkpt>
      <trkpt lat="48.42363" lon="2.14488">
        <ele>63</ele>
        <time>2023-12-14T11:00:48Z</time>
      </trkpt>
      <trkpt lat="48.42365" lon="2.14482">
        <ele>63</ele>
        <time>2023-12-14T11:00:49Z</time>
      </trkpt>
      <trkpt lat="48.42368" lon="2.14475">
        <ele>63</ele>
        <time>2023-12-14T11:00:50Z</time>
      </trkpt>
      <trkpt lat="48.4237" lon="2.14469">
        <ele>62</ele>
        <time>2023-12-14T11:00:51Z</time>
      </trkpt>
      <trkpt lat="48.42373" lon="2.14462">
        <ele>62.2</ele>
        <time>2023-12-14T11:00:52Z</time>
      </trkpt>
      <trkpt lat="48.42375" lon="2.14456">
        <ele>62.2</ele>
        <time>2023-12-14T11:00:53Z</time>
      </trkpt>
      <trkpt lat="48.42377" lon="2.14449">
        <ele>62.2</ele>
        <time>2023-12-14T11:00:54Z</time>
      </trkpt>
      <trkpt lat="48.42378" lon="2.14442">
        <ele>62.2</ele>
        <time>2023-12-14T11:00:55Z</time>
      </trkpt>
      <trkpt lat="48.4238" lon="2.14435">
        <ele>62</ele>
        <time>2023-12-14T11:00:56Z</time>
      </trkpt>
      <trkpt lat="48.42382" lon="2.14428">
        <ele>62</ele>
        <time>2023-12-14T11:00:57Z</time>
      </trkpt>
      <trkpt lat="48.42383" lon="2.14422">
        <ele>62</ele>
        <time>2023-12-14T11:00:58Z</time>
      </trkpt>
      <trkpt lat="48.42384" lon="2.14415">
        <ele>62.2</ele>
        <time>2023-12-14T11:00:59Z</time>
      </trkpt>
      <trkpt lat="48.42385" lon="2.14407">
        <ele>62.6</ele>
        <time>2023-12-14T11:01:00Z</time>
      </trkpt>
      <trkpt lat="48.42386" lon="2.144">
        <ele>62.6</ele>
        <time>2023-12-14T11:01:01Z</time>
      </trkpt>
      <trkpt lat="48.42387" lon="2.14392">
        <ele>62.6</ele>
        <time>2023-12-14T11:01:02Z</time>
      </trkpt>
      <trkpt lat="48.42388" lon="2.14385">
        <ele>62.6</ele>
        <time>2023-12-14T11:01:03Z</time>
      </trkpt>
      <trkpt lat="48.42388" lon="2.14377">
        <ele>63</ele>
        <time>2023-12-14T11:01:04Z</time>
      </trkpt>
      <trkpt lat="48.42388" lon="2.1437">
        <ele>63</ele>
        <time>2023-12-14T11:01:05Z</time>
      </trkpt>
      <trkpt lat="48.42389" lon="2.14363">
        <ele>63</ele>
        <time>2023-12-14T11:01:06Z</time>
      </trkpt>
      <trkpt lat="48.42389" lon="2.14355">
        <ele>62.2</ele>
        <time>2023-12-14T11:01:07Z</time>
      </trkpt>
      <trkpt lat="48.42389" lon="2.14348">
        <ele>62.6</ele>
        <time>2023-12-14T11:01:08Z</time>
      </trkpt>
      <trkpt lat="48.4239" lon="2.14341">
        <ele>62.6</ele>
        <time>2023-12-14T11:01:09Z</time>
      </trkpt>
      <trkpt lat="48.4239" lon="2.14334">
        <ele>62.6</ele>
        <time>2023-12-14T11:01:10Z</time>
      </trkpt>
      <trkpt lat="48.42391" lon="2.14327">
        <ele>62.4</ele>
        <time>2023-12-14T11:01:11Z</time>
      </trkpt>
      <trkpt lat="48.42391" lon="2.1432">
        <ele>62</ele>
        <time>2023-12-14T11:01:12Z</time>
      </trkpt>
      <trkpt lat="48.42391" lon="2.14313">
        <ele>62</ele>
        <time>2023-12-14T11:01:13Z</time>
      </trkpt>
      <trkpt lat="48.42391" lon="2.14306">
        <ele>62</ele>
        <time>2023-12-14T11:01:14Z</time>
      </trkpt>
      <trkpt lat="48.42392" lon="2.14299">
        <ele>62</ele>
        <time>2023-12-14T11:01:15Z</time>
      </trkpt>
      <trkpt lat="48.42392" lon="2.14292">
        <ele>62</ele>
        <time>2023-12-14T11:01:16Z</time>
      </trkpt>
      <trkpt lat="48.42393" lon="2.14285">
        <ele>62</ele>
        <time>2023-12-14T11:01:17Z</time>
      </trkpt>
      <trkpt lat="48.42393" lon="2.14278">
        <ele>62</ele>
        <time>2023-12-14T11:01:18Z</time>
      </trkpt>
      <trkpt lat="48.42394" lon="2.14271">
        <ele>62</ele>
        <time>2023-12-14T11:01:19Z</time>
      </trkpt>
      <trkpt lat="48.42395" lon="2.14264">
        <ele>62.4</ele>
        <time>2023-12-14T11:01:20Z</time>
      </trkpt>
      <trkpt lat="48.42396" lon="2.14257">
        <ele>62.4</ele>
        <time>2023-12-14T11:01:21Z</time>
      </trkpt>
      <trkpt lat="48.42397" lon="2.1425">
        <ele>62.4</ele>
        <time>2023-12-14T11:01:22Z</time>
      </trkpt>
      <trkpt lat="48.42398" lon="2.14243">
        <ele>62.4</ele>
        <time>2023-12-14T11:01:23Z</time>
      </trkpt>
      <trkpt lat="48.42399" lon="2.14236">
        <ele>63</ele>
        <time>2023-12-14T11:01:24Z</time>
      </trkpt>
      <trkpt lat="48.42401" lon="2.14229">
        <ele>63</ele>
        <time>2023-12-14T11:01:25Z</time>
      </trkpt>
      <trkpt lat="48.42402" lon="2.14221">
        <ele>63</ele>
        <time>2023-12-14T11:01:26Z</time>
      </trkpt>
      <trkpt lat="48.42403" lon="2.14214">
        <ele>63</ele>
        <time>2023-12-14T11:01:27Z</time>
      </trkpt>
      <trkpt lat="48.42404" lon="2.14207">
        <ele>63.2</ele>
        <time>2023-12-14T11:01:28Z</time>
      </trkpt>
      <trkpt lat="48.42406" lon="2.142">
        <ele>63.2</ele>
        <time>2023-12-14T11:01:29Z</time>
      </trkpt>
      <trkpt lat="48.42407" lon="2.14193">
        <ele>63.2</ele>
        <time>2023-12-14T11:01:30Z</time>
      </trkpt>
      <trkpt lat="48.42408" lon="2.14186">
        <ele>64.2</ele>
        <time>2023-12-14T11:01:31Z</time>
      </trkpt>
      <trkpt lat="48.4241" lon="2.14179">
        <ele>63.6</ele>
        <time>2023-12-14T11:01:32Z</time>
      </trkpt>
      <trkpt lat="48.42411" lon="2.14172">
        <ele>63.6</ele>
        <time>2023-12-14T11:01:33Z</time>
      </trkpt>
      <trkpt lat="48.42412" lon="2.14165">
        <ele>63.6</ele>
        <time>2023-12-14T11:01:34Z</time>
      </trkpt>
      <trkpt lat="48.42414" lon="2.1416">
        <ele>63.6</ele>
        <time>2023-12-14T11:01:35Z</time>
      </trkpt>
      <trkpt lat="48.42416" lon="2.14154">
        <ele>63</ele>
        <time>2023-12-14T11:01:36Z</time>
      </trkpt>
      <trkpt lat="48.42416" lon="2.14147">
        <ele>63</ele>
        <time>2023-12-14T11:01:37Z</time>
      </trkpt>
      <trkpt lat="48.42416" lon="2.14144">
        <ele>63</ele>
        <time>2023-12-14T11:01:38Z</time>
      </trkpt>
      <trkpt lat="48.42417" lon="2.1414">
        <ele>64</ele>
        <time>2023-12-14T11:01:39Z</time>
      </trkpt>
      <trkpt lat="48.42418" lon="2.14137">
        <ele>64.4</ele>
        <time>2023-12-14T11:01:40Z</time>
      </trkpt>
      <trkpt lat="48.42419" lon="2.14134">
        <ele>64.4</ele>
        <time>2023-12-14T11:01:41Z</time>
      </trkpt>
      <trkpt lat="48.42419" lon="2.14129">
        <ele>64.4</ele>
        <time>2023-12-14T11:01:42Z</time>
      </trkpt>
      <trkpt lat="48.4242" lon="2.14125">
        <ele>63.8</ele>
        <time>2023-12-14T11:01:43Z</time>
      </trkpt>
      <trkpt lat="48.42421" lon="2.1412">
        <ele>63.8</ele>
        <time>2023-12-14T11:01:44Z</time>
      </trkpt>
      <trkpt lat="48.42422" lon="2.14115">
        <ele>63.8</ele>
        <time>2023-12-14T11:01:45Z</time>
      </trkpt>
      <trkpt lat="48.42422" lon="2.1411">
        <ele>63.8</ele>
        <time>2023-12-14T11:01:46Z</time>
      </trkpt>
      <trkpt lat="48.42423" lon="2.14105">
        <ele>63.8</ele>
        <time>2023-12-14T11:01:47Z</time>
      </trkpt>
      <trkpt lat="48.42424" lon="2.141">
        <ele>63.8</ele>
        <time>2023-12-14T11:01:48Z</time>
      </trkpt>
      <trkpt lat="48.42425" lon="2.14096">
        <ele>63.8</ele>
        <time>2023-12-14T11:01:49Z</time>
      </trkpt>
      <trkpt lat="48.42427" lon="2.14091">
        <ele>63.8</ele>
        <time>2023-12-14T11:01:50Z</time>
      </trkpt>
      <trkpt lat="48.42428" lon="2.14085">
        <ele>64.4</ele>
        <time>2023-12-14T11:01:51Z</time>
      </trkpt>
      <trkpt lat="48.42429" lon="2.14079">
        <ele>64.6</ele>
        <time>2023-12-14T11:01:52Z</time>
      </trkpt>
      <trkpt lat="48.4243" lon="2.14072">
        <ele>64.6</ele>
        <time>2023-12-14T11:01:53Z</time>
      </trkpt>
      <trkpt lat="48.4243" lon="2.14066">
        <ele>64.6</ele>
        <time>2023-12-14T11:01:54Z</time>
      </trkpt>
      <trkpt lat="48.42431" lon="2.1406">
        <ele>63.6</ele>
        <time>2023-12-14T11:01:55Z</time>
      </trkpt>
      <trkpt lat="48.42433" lon="2.14054">
        <ele>64.2</ele>
        <time>2023-12-14T11:01:56Z</time>
      </trkpt>
      <trkpt lat="48.42434" lon="2.14048">
        <ele>64.2</ele>
        <time>2023-12-14T11:01:57Z</time>
      </trkpt>
      <trkpt lat="48.42435" lon="2.14042">
        <ele>64.2</ele>
        <time>2023-12-14T11:01:58Z</time>
      </trkpt>
      <trkpt lat="48.42436" lon="2.14036">
        <ele>65</ele>
        <time>2023-12-14T11:01:59Z</time>
      </trkpt>
      <trkpt lat="48.42437" lon="2.1403">
        <ele>65</ele>
        <time>2023-12-14T11:02:00Z</time>
      </trkpt>
      <trkpt lat="48.42437" lon="2.14024">
        <ele>65</ele>
        <time>2023-12-14T11:02:01Z</time>
      </trkpt>
      <trkpt lat="48.42438" lon="2.14018">
        <ele>65</ele>
        <time>2023-12-14T11:02:02Z</time>
      </trkpt>
      <trkpt lat="48.42438" lon="2.14011">
        <ele>65.8</ele>
        <time>2023-12-14T11:02:03Z</time>
      </trkpt>
      <trkpt lat="48.42437" lon="2.14005">
        <ele>66</ele>
        <time>2023-12-14T11:02:04Z</time>
      </trkpt>
      <trkpt lat="48.42437" lon="2.13999">
        <ele>66</ele>
        <time>2023-12-14T11:02:05Z</time>
      </trkpt>
      <trkpt lat="48.42436" lon="2.13993">
        <ele>66</ele>
        <time>2023-12-14T11:02:06Z</time>
      </trkpt>
      <trkpt lat="48.42436" lon="2.13986">
        <ele>66</ele>
        <time>2023-12-14T11:02:07Z</time>
      </trkpt>
      <trkpt lat="48.42435" lon="2.1398">
        <ele>67</ele>
        <time>2023-12-14T11:02:08Z</time>
      </trkpt>
      <trkpt lat="48.42435" lon="2.13974">
        <ele>67</ele>
        <time>2023-12-14T11:02:09Z</time>
      </trkpt>
      <trkpt lat="48.42434" lon="2.13968">
        <ele>67</ele>
        <time>2023-12-14T11:02:10Z</time>
      </trkpt>
      <trkpt lat="48.42433" lon="2.13962">
        <ele>67</ele>
        <time>2023-12-14T11:02:11Z</time>
      </trkpt>
      <trkpt lat="48.42432" lon="2.13955">
        <ele>66.4</ele>
        <time>2023-12-14T11:02:12Z</time>
      </trkpt>
      <trkpt lat="48.42432" lon="2.13949">
        <ele>66.4</ele>
        <time>2023-12-14T11:02:13Z</time>
      </trkpt>
      <trkpt lat="48.42431" lon="2.13943">
        <ele>66.4</ele>
        <time>2023-12-14T11:02:14Z</time>
      </trkpt>
      <trkpt lat="48.42431" lon="2.13936">
        <ele>66.8</ele>
        <time>2023-12-14T11:02:15Z</time>
      </trkpt>
      <trkpt lat="48.4243" lon="2.1393">
        <ele>67</ele>
        <time>2023-12-14T11:02:16Z</time>
      </trkpt>
      <trkpt lat="48.42429" lon="2.13924">
        <ele>67</ele>
        <time>2023-12-14T11:02:17Z</time>
      </trkpt>
      <trkpt lat="48.42429" lon="2.13918">
        <ele>67</ele>
        <time>2023-12-14T11:02:18Z</time>
      </trkpt>
      <trkpt lat="48.42428" lon="2.13911">
        <ele>67</ele>
        <time>2023-12-14T11:02:19Z</time>
      </trkpt>
      <trkpt lat="48.42427" lon="2.13905">
        <ele>66.4</ele>
        <time>2023-12-14T11:02:20Z</time>
      </trkpt>
      <trkpt lat="48.42427" lon="2.13899">
        <ele>66.4</ele>
        <time>2023-12-14T11:02:21Z</time>
      </trkpt>
      <trkpt lat="48.42426" lon="2.13892">
        <ele>66.4</ele>
        <time>2023-12-14T11:02:22Z</time>
      </trkpt>
      <trkpt lat="48.42426" lon="2.13885">
        <ele>67.4</ele>
        <time>2023-12-14T11:02:23Z</time>
      </trkpt>
      <trkpt lat="48.42425" lon="2.13879">
        <ele>67</ele>
        <time>2023-12-14T11:02:24Z</time>
      </trkpt>
      <trkpt lat="48.42424" lon="2.13872">
        <ele>67</ele>
        <time>2023-12-14T11:02:25Z</time>
      </trkpt>
      <trkpt lat="48.42424" lon="2.13865">
        <ele>67</ele>
        <time>2023-12-14T11:02:26Z</time>
      </trkpt>
      <trkpt lat="48.42424" lon="2.13858">
        <ele>67</ele>
        <time>2023-12-14T11:02:27Z</time>
      </trkpt>
      <trkpt lat="48.42423" lon="2.13852">
        <ele>67.8</ele>
        <time>2023-12-14T11:02:28Z</time>
      </trkpt>
      <trkpt lat="48.42423" lon="2.13845">
        <ele>67.8</ele>
        <time>2023-12-14T11:02:29Z</time>
      </trkpt>
      <trkpt lat="48.42423" lon="2.13838">
        <ele>67.8</ele>
        <time>2023-12-14T11:02:30Z</time>
      </trkpt>
      <trkpt lat="48.42423" lon="2.13831">
        <ele>67.8</ele>
        <time>2023-12-14T11:02:31Z</time>
      </trkpt>
      <trkpt lat="48.42423" lon="2.13824">
        <ele>69.4</ele>
        <time>2023-12-14T11:02:32Z</time>
      </trkpt>
      <trkpt lat="48.42424" lon="2.13819">
        <ele>69.4</ele>
        <time>2023-12-14T11:02:33Z</time>
      </trkpt>
      <trkpt lat="48.42426" lon="2.13813">
        <ele>69.4</ele>
        <time>2023-12-14T11:02:34Z</time>
      </trkpt>
      <trkpt lat="48.42427" lon="2.13807">
        <ele>68.4</ele>
        <time>2023-12-14T11:02:35Z</time>
      </trkpt>
      <trkpt lat="48.42429" lon="2.13802">
        <ele>67.8</ele>
        <time>2023-12-14T11:02:36Z</time>
      </trkpt>
      <trkpt lat="48.4243" lon="2.13797">
        <ele>67.8</ele>
        <time>2023-12-14T11:02:37Z</time>
      </trkpt>
      <trkpt lat="48.42432" lon="2.13794">
        <ele>67.8</ele>
        <time>2023-12-14T11:02:38Z</time>
      </trkpt>
      <trkpt lat="48.42434" lon="2.13789">
        <ele>67.8</ele>
        <time>2023-12-14T11:02:39Z</time>
      </trkpt>
      <trkpt lat="48.42435" lon="2.13783">
        <ele>67.6</ele>
        <time>2023-12-14T11:02:40Z</time>
      </trkpt>
      <trkpt lat="48.42436" lon="2.13778">
        <ele>67.6</ele>
        <time>2023-12-14T11:02:41Z</time>
      </trkpt>
      <trkpt lat="48.42437" lon="2.13773">
        <ele>67.6</ele>
        <time>2023-12-14T11:02:42Z</time>
      </trkpt>
      <trkpt lat="48.42438" lon="2.13767">
        <ele>68</ele>
        <time>2023-12-14T11:02:43Z</time>
      </trkpt>
      <trkpt lat="48.42439" lon="2.13762">
        <ele>68</ele>
        <time>2023-12-14T11:02:44Z</time>
      </trkpt>
      <trkpt lat="48.42441" lon="2.13757">
        <ele>68</ele>
        <time>2023-12-14T11:02:45Z</time>
      </trkpt>
      <trkpt lat="48.42441" lon="2.13751">
        <ele>68</ele>
        <time>2023-12-14T11:02:46Z</time>
      </trkpt>
      <trkpt lat="48.4244" lon="2.13746">
        <ele>68.8</ele>
        <time>2023-12-14T11:02:47Z</time>
      </trkpt>
      <trkpt lat="48.42438" lon="2.13741">
        <ele>69</ele>
        <time>2023-12-14T11:02:48Z</time>
      </trkpt>
      <trkpt lat="48.42434" lon="2.13736">
        <ele>69</ele>
        <time>2023-12-14T11:02:49Z</time>
      </trkpt>
      <trkpt lat="48.42431" lon="2.13731">
        <ele>69</ele>
        <time>2023-12-14T11:02:50Z</time>
      </trkpt>
      <trkpt lat="48.42427" lon="2.13727">
        <ele>68.6</ele>
        <time>2023-12-14T11:02:51Z</time>
      </trkpt>
      <trkpt lat="48.42423" lon="2.13723">
        <ele>69</ele>
        <time>2023-12-14T11:02:52Z</time>
      </trkpt>
      <trkpt lat="48.42419" lon="2.13718">
        <ele>69</ele>
        <time>2023-12-14T11:02:53Z</time>
      </trkpt>
      <trkpt lat="48.42415" lon="2.13714">
        <ele>69</ele>
        <time>2023-12-14T11:02:54Z</time>
      </trkpt>
      <trkpt lat="48.42412" lon="2.1371">
        <ele>70</ele>
        <time>2023-12-14T11:02:55Z</time>
      </trkpt>
      <trkpt lat="48.42408" lon="2.13705">
        <ele>69.8</ele>
        <time>2023-12-14T11:02:56Z</time>
      </trkpt>
      <trkpt lat="48.42405" lon="2.137">
        <ele>69.8</ele>
        <time>2023-12-14T11:02:57Z</time>
      </trkpt>
      <trkpt lat="48.42403" lon="2.13695">
        <ele>69.8</ele>
        <time>2023-12-14T11:02:58Z</time>
      </trkpt>
      <trkpt lat="48.42401" lon="2.1369">
        <ele>70.6</ele>
        <time>2023-12-14T11:02:59Z</time>
      </trkpt>
      <trkpt lat="48.42399" lon="2.13685">
        <ele>71</ele>
        <time>2023-12-14T11:03:00Z</time>
      </trkpt>
      <trkpt lat="48.42398" lon="2.13679">
        <ele>71</ele>
        <time>2023-12-14T11:03:01Z</time>
      </trkpt>
      <trkpt lat="48.42397" lon="2.13674">
        <ele>71</ele>
        <time>2023-12-14T11:03:02Z</time>
      </trkpt>
      <trkpt lat="48.42397" lon="2.13668">
        <ele>71</ele>
        <time>2023-12-14T11:03:03Z</time>
      </trkpt>
      <trkpt lat="48.42397" lon="2.13663">
        <ele>70.8</ele>
        <time>2023-12-14T11:03:04Z</time>
      </trkpt>
      <trkpt lat="48.42397" lon="2.13657">
        <ele>70.8</ele>
        <time>2023-12-14T11:03:05Z</time>
      </trkpt>
      <trkpt lat="48.42397" lon="2.13652">
        <ele>70.8</ele>
        <time>2023-12-14T11:03:06Z</time>
      </trkpt>
      <trkpt lat="48.42397" lon="2.13646">
        <ele>70.8</ele>
        <time>2023-12-14T11:03:07Z</time>
      </trkpt>
      <trkpt lat="48.42397" lon="2.1364">
        <ele>71</ele>
        <time>2023-12-14T11:03:08Z</time>
      </trkpt>
      <trkpt lat="48.42397" lon="2.13634">
        <ele>71</ele>
        <time>2023-12-14T11:03:09Z</time>
      </trkpt>
      <trkpt lat="48.42397" lon="2.13628">
        <ele>71</ele>
        <time>2023-12-14T11:03:10Z</time>
      </trkpt>
      <trkpt lat="48.42397" lon="2.13622">
        <ele>71</ele>
        <time>2023-12-14T11:03:11Z</time>
      </trkpt>
      <trkpt lat="48.42396" lon="2.13617">
        <ele>72.2</ele>
        <time>2023-12-14T11:03:12Z</time>
      </trkpt>
      <trkpt lat="48.42396" lon="2.13611">
        <ele>72.2</ele>
        <time>2023-12-14T11:03:13Z</time>
      </trkpt>
      <trkpt lat="48.42396" lon="2.13605">
        <ele>72.2</ele>
        <time>2023-12-14T11:03:14Z</time>
      </trkpt>
      <trkpt lat="48.42396" lon="2.13599">
        <ele>72.2</ele>
        <time>2023-12-14T11:03:15Z</time>
      </trkpt>
      <trkpt lat="48.42396" lon="2.13593">
        <ele>72.8</ele>
        <time>2023-12-14T11:03:16Z</time>
      </trkpt>
      <trkpt lat="48.42396" lon="2.13587">
        <ele>72.8</ele>
        <time>2023-12-14T11:03:17Z</time>
      </trkpt>
      <trkpt lat="48.42395" lon="2.13581">
        <ele>72.8</ele>
        <time>2023-12-14T11:03:18Z</time>
      </trkpt>
      <trkpt lat="48.42395" lon="2.13575">
        <ele>72.8</ele>
        <time>2023-12-14T11:03:19Z</time>
      </trkpt>
      <trkpt lat="48.42395" lon="2.13569">
        <ele>73.8</ele>
        <time>2023-12-14T11:03:20Z</time>
      </trkpt>
      <trkpt lat="48.42394" lon="2.13563">
        <ele>73.8</ele>
        <time>2023-12-14T11:03:21Z</time>
      </trkpt>
      <trkpt lat="48.42394" lon="2.13557">
        <ele>73.8</ele>
        <time>2023-12-14T11:03:22Z</time>
      </trkpt>
      <trkpt lat="48.42394" lon="2.13551">
        <ele>72.8</ele>
        <time>2023-12-14T11:03:23Z</time>
      </trkpt>
      <trkpt lat="48.42393" lon="2.13546">
        <ele>74</ele>
        <time>2023-12-14T11:03:24Z</time>
      </trkpt>
      <trkpt lat="48.42393" lon="2.1354">
        <ele>74</ele>
        <time>2023-12-14T11:03:25Z</time>
      </trkpt>
      <trkpt lat="48.42393" lon="2.13534">
        <ele>74</ele>
        <time>2023-12-14T11:03:26Z</time>
      </trkpt>
      <trkpt lat="48.42392" lon="2.13529">
        <ele>74</ele>
        <time>2023-12-14T11:03:27Z</time>
      </trkpt>
      <trkpt lat="48.42392" lon="2.13523">
        <ele>74.8</ele>
        <time>2023-12-14T11:03:28Z</time>
      </trkpt>
      <trkpt lat="48.42391" lon="2.13517">
        <ele>74.8</ele>
        <time>2023-12-14T11:03:29Z</time>
      </trkpt>
      <trkpt lat="48.42391" lon="2.13512">
        <ele>74.8</ele>
        <time>2023-12-14T11:03:30Z</time>
      </trkpt>
      <trkpt lat="48.42391" lon="2.13506">
        <ele>74.8</ele>
        <time>2023-12-14T11:03:31Z</time>
      </trkpt>
      <trkpt lat="48.42391" lon="2.13501">
        <ele>75</ele>
        <time>2023-12-14T11:03:32Z</time>
      </trkpt>
      <trkpt lat="48.4239" lon="2.13495">
        <ele>75</ele>
        <time>2023-12-14T11:03:33Z</time>
      </trkpt>
      <trkpt lat="48.4239" lon="2.13489">
        <ele>75</ele>
        <time>2023-12-14T11:03:34Z</time>
      </trkpt>
      <trkpt lat="48.42389" lon="2.13483">
        <ele>75.4</ele>
        <time>2023-12-14T11:03:35Z</time>
      </trkpt>
      <trkpt lat="48.42389" lon="2.13477">
        <ele>76.2</ele>
        <time>2023-12-14T11:03:36Z</time>
      </trkpt>
      <trkpt lat="48.42389" lon="2.13471">
        <ele>76.2</ele>
        <time>2023-12-14T11:03:37Z</time>
      </trkpt>
      <trkpt lat="48.42389" lon="2.13465">
        <ele>76.2</ele>
        <time>2023-12-14T11:03:38Z</time>
      </trkpt>
      <trkpt lat="48.4239" lon="2.1346">
        <ele>76.2</ele>
        <time>2023-12-14T11:03:39Z</time>
      </trkpt>
      <trkpt lat="48.42391" lon="2.13454">
        <ele>76.6</ele>
        <time>2023-12-14T11:03:40Z</time>
      </trkpt>
      <trkpt lat="48.42392" lon="2.13447">
        <ele>76.6</ele>
        <time>2023-12-14T11:03:41Z</time>
      </trkpt>
      <trkpt lat="48.42394" lon="2.13441">
        <ele>76.6</ele>
        <time>2023-12-14T11:03:42Z</time>
      </trkpt>
      <trkpt lat="48.42396" lon="2.13435">
        <ele>76.6</ele>
        <time>2023-12-14T11:03:43Z</time>
      </trkpt>
      <trkpt lat="48.42398" lon="2.13429">
        <ele>75.2</ele>
        <time>2023-12-14T11:03:44Z</time>
      </trkpt>
      <trkpt lat="48.424" lon="2.13422">
        <ele>75.2</ele>
        <time>2023-12-14T11:03:45Z</time>
      </trkpt>
      <trkpt lat="48.42402" lon="2.13415">
        <ele>75.2</ele>
        <time>2023-12-14T11:03:46Z</time>
      </trkpt>
      <trkpt lat="48.42405" lon="2.13407">
        <ele>74.2</ele>
        <time>2023-12-14T11:03:47Z</time>
      </trkpt>
      <trkpt lat="48.42408" lon="2.134">
        <ele>73.2</ele>
        <time>2023-12-14T11:03:48Z</time>
      </trkpt>
      <trkpt lat="48.4241" lon="2.13392">
        <ele>73.2</ele>
        <time>2023-12-14T11:03:49Z</time>
      </trkpt>
      <trkpt lat="48.42413" lon="2.13384">
        <ele>73.2</ele>
        <time>2023-12-14T11:03:50Z</time>
      </trkpt>
      <trkpt lat="48.42416" lon="2.13376">
        <ele>73.2</ele>
        <time>2023-12-14T11:03:51Z</time>
      </trkpt>
      <trkpt lat="48.42419" lon="2.13368">
        <ele>71.2</ele>
        <time>2023-12-14T11:03:52Z</time>
      </trkpt>
      <trkpt lat="48.42422" lon="2.1336">
        <ele>71.2</ele>
        <time>2023-12-14T11:03:53Z</time>
      </trkpt>
      <trkpt lat="48.42426" lon="2.13353">
        <ele>71.2</ele>
        <time>2023-12-14T11:03:54Z</time>
      </trkpt>
      <trkpt lat="48.42429" lon="2.13344">
        <ele>70.2</ele>
        <time>2023-12-14T11:03:55Z</time>
      </trkpt>
      <trkpt lat="48.42429" lon="2.1334">
        <ele>71</ele>
        <time>2023-12-14T11:03:56Z</time>
      </trkpt>
      <trkpt lat="48.42432" lon="2.13334">
        <ele>71</ele>
        <time>2023-12-14T11:03:57Z</time>
      </trkpt>
      <trkpt lat="48.42434" lon="2.13325">
        <ele>71</ele>
        <time>2023-12-14T11:03:58Z</time>
      </trkpt>
      <trkpt lat="48.42435" lon="2.13316">
        <ele>71.6</ele>
        <time>2023-12-14T11:03:59Z</time>
      </trkpt>
      <trkpt lat="48.42435" lon="2.13307">
        <ele>71.8</ele>
        <time>2023-12-14T11:04:00Z</time>
      </trkpt>
      <trkpt lat="48.42434" lon="2.13298">
        <ele>71.8</ele>
        <time>2023-12-14T11:04:01Z</time>
      </trkpt>
      <trkpt lat="48.42432" lon="2.13288">
        <ele>71.8</ele>
        <time>2023-12-14T11:04:02Z</time>
      </trkpt>
      <trkpt lat="48.42429" lon="2.13279">
        <ele>70.8</ele>
        <time>2023-12-14T11:04:03Z</time>
      </trkpt>
      <trkpt lat="48.42426" lon="2.1327">
        <ele>69.4</ele>
        <time>2023-12-14T11:04:04Z</time>
      </trkpt>
      <trkpt lat="48.42423" lon="2.13261">
        <ele>69.4</ele>
        <time>2023-12-14T11:04:05Z</time>
      </trkpt>
      <trkpt lat="48.42419" lon="2.13253">
        <ele>69.4</ele>
        <time>2023-12-14T11:04:06Z</time>
      </trkpt>
      <trkpt lat="48.42416" lon="2.13244">
        <ele>69.4</ele>
        <time>2023-12-14T11:04:07Z</time>
      </trkpt>
      <trkpt lat="48.42412" lon="2.13235">
        <ele>69.4</ele>
        <time>2023-12-14T11:04:08Z</time>
      </trkpt>
      <trkpt lat="48.42409" lon="2.13226">
        <ele>69.4</ele>
        <time>2023-12-14T11:04:09Z</time>
      </trkpt>
      <trkpt lat="48.42406" lon="2.13217">
        <ele>69.4</ele>
        <time>2023-12-14T11:04:10Z</time>
      </trkpt>
      <trkpt lat="48.42402" lon="2.13208">
        <ele>68.4</ele>
        <time>2023-12-14T11:04:11Z</time>
      </trkpt>
      <trkpt lat="48.42398" lon="2.13199">
        <ele>68.6</ele>
        <time>2023-12-14T11:04:12Z</time>
      </trkpt>
      <trkpt lat="48.42394" lon="2.1319">
        <ele>68.6</ele>
        <time>2023-12-14T11:04:13Z</time>
      </trkpt>
      <trkpt lat="48.4239" lon="2.13181">
        <ele>68.6</ele>
        <time>2023-12-14T11:04:14Z</time>
      </trkpt>
      <trkpt lat="48.42386" lon="2.13172">
        <ele>68</ele>
        <time>2023-12-14T11:04:15Z</time>
      </trkpt>
      <trkpt lat="48.42382" lon="2.13163">
        <ele>67.4</ele>
        <time>2023-12-14T11:04:16Z</time>
      </trkpt>
      <trkpt lat="48.42378" lon="2.13154">
        <ele>67.4</ele>
        <time>2023-12-14T11:04:17Z</time>
      </trkpt>
      <trkpt lat="48.42374" lon="2.13145">
        <ele>67.4</ele>
        <time>2023-12-14T11:04:18Z</time>
      </trkpt>
      <trkpt lat="48.4237" lon="2.13136">
        <ele>68.2</ele>
        <time>2023-12-14T11:04:19Z</time>
      </trkpt>
      <trkpt lat="48.42366" lon="2.13127">
        <ele>68</ele>
        <time>2023-12-14T11:04:20Z</time>
      </trkpt>
      <trkpt lat="48.42361" lon="2.13117">
        <ele>68</ele>
        <time>2023-12-14T11:04:21Z</time>
      </trkpt>
      <trkpt lat="48.42357" lon="2.13108">
        <ele>68</ele>
        <time>2023-12-14T11:04:22Z</time>
      </trkpt>
      <trkpt lat="48.42353" lon="2.13098">
        <ele>67</ele>
        <time>2023-12-14T11:04:23Z</time>
      </trkpt>
      <trkpt lat="48.42349" lon="2.13088">
        <ele>66.4</ele>
        <time>2023-12-14T11:04:24Z</time>
      </trkpt>
      <trkpt lat="48.42345" lon="2.13078">
        <ele>66.4</ele>
        <time>2023-12-14T11:04:25Z</time>
      </trkpt>
      <trkpt lat="48.42342" lon="2.13069">
        <ele>66.4</ele>
        <time>2023-12-14T11:04:26Z</time>
      </trkpt>
      <trkpt lat="48.4234" lon="2.13058">
        <ele>67.2</ele>
        <time>2023-12-14T11:04:27Z</time>
      </trkpt>
      <trkpt lat="48.42338" lon="2.13048">
        <ele>67.4</ele>
        <time>2023-12-14T11:04:28Z</time>
      </trkpt>
      <trkpt lat="48.42337" lon="2.13038">
        <ele>67.4</ele>
        <time>2023-12-14T11:04:29Z</time>
      </trkpt>
      <trkpt lat="48.42337" lon="2.13028">
        <ele>67.4</ele>
        <time>2023-12-14T11:04:30Z</time>
      </trkpt>
      <trkpt lat="48.42337" lon="2.13018">
        <ele>67.4</ele>
        <time>2023-12-14T11:04:31Z</time>
      </trkpt>
      <trkpt lat="48.42338" lon="2.13008">
        <ele>67</ele>
        <time>2023-12-14T11:04:32Z</time>
      </trkpt>
      <trkpt lat="48.42339" lon="2.12999">
        <ele>67</ele>
        <time>2023-12-14T11:04:33Z</time>
      </trkpt>
      <trkpt lat="48.42341" lon="2.12989">
        <ele>67</ele>
        <time>2023-12-14T11:04:34Z</time>
      </trkpt>
      <trkpt lat="48.42342" lon="2.12979">
        <ele>68</ele>
        <time>2023-12-14T11:04:35Z</time>
      </trkpt>
      <trkpt lat="48.42343" lon="2.1297">
        <ele>67.4</ele>
        <time>2023-12-14T11:04:36Z</time>
      </trkpt>
      <trkpt lat="48.42345" lon="2.1296">
        <ele>67.4</ele>
        <time>2023-12-14T11:04:37Z</time>
      </trkpt>
      <trkpt lat="48.42346" lon="2.1295">
        <ele>67.4</ele>
        <time>2023-12-14T11:04:38Z</time>
      </trkpt>
      <trkpt lat="48.42348" lon="2.1294">
        <ele>67</ele>
        <time>2023-12-14T11:04:39Z</time>
      </trkpt>
      <trkpt lat="48.42349" lon="2.12931">
        <ele>66.8</ele>
        <time>2023-12-14T11:04:40Z</time>
      </trkpt>
      <trkpt lat="48.4235" lon="2.12921">
        <ele>66.8</ele>
        <time>2023-12-14T11:04:41Z</time>
      </trkpt>
      <trkpt lat="48.42352" lon="2.12911">
        <ele>66.8</ele>
        <time>2023-12-14T11:04:42Z</time>
      </trkpt>
      <trkpt lat="48.42354" lon="2.12902">
        <ele>66.8</ele>
        <time>2023-12-14T11:04:43Z</time>
      </trkpt>
      <trkpt lat="48.42355" lon="2.12893">
        <ele>66.2</ele>
        <time>2023-12-14T11:04:44Z</time>
      </trkpt>
      <trkpt lat="48.42357" lon="2.12884">
        <ele>66.2</ele>
        <time>2023-12-14T11:04:45Z</time>
      </trkpt>
      <trkpt lat="48.42358" lon="2.12875">
        <ele>66.2</ele>
        <time>2023-12-14T11:04:46Z</time>
      </trkpt>
      <trkpt lat="48.4236" lon="2.12865">
        <ele>67</ele>
        <time>2023-12-14T11:04:47Z</time>
      </trkpt>
      <trkpt lat="48.42361" lon="2.12856">
        <ele>66.8</ele>
        <time>2023-12-14T11:04:48Z</time>
      </trkpt>
      <trkpt lat="48.42362" lon="2.12847">
        <ele>66.8</ele>
        <time>2023-12-14T11:04:49Z</time>
      </trkpt>
      <trkpt lat="48.42363" lon="2.12838">
        <ele>66.8</ele>
        <time>2023-12-14T11:04:50Z</time>
      </trkpt>
      <trkpt lat="48.42364" lon="2.12829">
        <ele>66.6</ele>
        <time>2023-12-14T11:04:51Z</time>
      </trkpt>
      <trkpt lat="48.42365" lon="2.1282">
        <ele>66.2</ele>
        <time>2023-12-14T11:04:52Z</time>
      </trkpt>
      <trkpt lat="48.42366" lon="2.12811">
        <ele>66.2</ele>
        <time>2023-12-14T11:04:53Z</time>
      </trkpt>
      <trkpt lat="48.42366" lon="2.12803">
        <ele>66.2</ele>
        <time>2023-12-14T11:04:54Z</time>
      </trkpt>
      <trkpt lat="48.42366" lon="2.12794">
        <ele>65.6</ele>
        <time>2023-12-14T11:04:55Z</time>
      </trkpt>
      <trkpt lat="48.42365" lon="2.12785">
        <ele>65.6</ele>
        <time>2023-12-14T11:04:56Z</time>
      </trkpt>
      <trkpt lat="48.42365" lon="2.12776">
        <ele>65.6</ele>
        <time>2023-12-14T11:04:57Z</time>
      </trkpt>
      <trkpt lat="48.42364" lon="2.12767">
        <ele>65.6</ele>
        <time>2023-12-14T11:04:58Z</time>
      </trkpt>
      <trkpt lat="48.42363" lon="2.12758">
        <ele>65.6</ele>
        <time>2023-12-14T11:04:59Z</time>
      </trkpt>
      <trkpt lat="48.42362" lon="2.1275">
        <ele>66.4</ele>
        <time>2023-12-14T11:05:00Z</time>
      </trkpt>
      <trkpt lat="48.4236" lon="2.12741">
        <ele>66.4</ele>
        <time>2023-12-14T11:05:01Z</time>
      </trkpt>
      <trkpt lat="48.42359" lon="2.12732">
        <ele>66.4</ele>
        <time>2023-12-14T11:05:02Z</time>
      </trkpt>
      <trkpt lat="48.42358" lon="2.12723">
        <ele>66.4</ele>
        <time>2023-12-14T11:05:03Z</time>
      </trkpt>
      <trkpt lat="48.42356" lon="2.12714">
        <ele>68.4</ele>
        <time>2023-12-14T11:05:04Z</time>
      </trkpt>
      <trkpt lat="48.42355" lon="2.12706">
        <ele>68.4</ele>
        <time>2023-12-14T11:05:05Z</time>
      </trkpt>
      <trkpt lat="48.42353" lon="2.12697">
        <ele>68.4</ele>
        <time>2023-12-14T11:05:06Z</time>
      </trkpt>
      <trkpt lat="48.42352" lon="2.12688">
        <ele>68.8</ele>
        <time>2023-12-14T11:05:07Z</time>
      </trkpt>
      <trkpt lat="48.4235" lon="2.12679">
        <ele>68.6</ele>
        <time>2023-12-14T11:05:08Z</time>
      </trkpt>
      <trkpt lat="48.42349" lon="2.12669">
        <ele>68.6</ele>
        <time>2023-12-14T11:05:09Z</time>
      </trkpt>
      <trkpt lat="48.42348" lon="2.1266">
        <ele>68.6</ele>
        <time>2023-12-14T11:05:10Z</time>
      </trkpt>
      <trkpt lat="48.42347" lon="2.12651">
        <ele>68.6</ele>
        <time>2023-12-14T11:05:11Z</time>
      </trkpt>
      <trkpt lat="48.42346" lon="2.12641">
        <ele>69.8</ele>
        <time>2023-12-14T11:05:12Z</time>
      </trkpt>
      <trkpt lat="48.42345" lon="2.12632">
        <ele>69.8</ele>
        <time>2023-12-14T11:05:13Z</time>
      </trkpt>
      <trkpt lat="48.42344" lon="2.12623">
        <ele>69.8</ele>
        <time>2023-12-14T11:05:14Z</time>
      </trkpt>
      <trkpt lat="48.42343" lon="2.12613">
        <ele>69.8</ele>
        <time>2023-12-14T11:05:15Z</time>
      </trkpt>
      <trkpt lat="48.42341" lon="2.12604">
        <ele>70</ele>
        <time>2023-12-14T11:05:16Z</time>
      </trkpt>
      <trkpt lat="48.4234" lon="2.12595">
        <ele>70</ele>
        <time>2023-12-14T11:05:17Z</time>
      </trkpt>
      <trkpt lat="48.42338" lon="2.12585">
        <ele>70</ele>
        <time>2023-12-14T11:05:18Z</time>
      </trkpt>
      <trkpt lat="48.42336" lon="2.12576">
        <ele>69</ele>
        <time>2023-12-14T11:05:19Z</time>
      </trkpt>
      <trkpt lat="48.42334" lon="2.12567">
        <ele>68.8</ele>
        <time>2023-12-14T11:05:20Z</time>
      </trkpt>
      <trkpt lat="48.42332" lon="2.12557">
        <ele>68.8</ele>
        <time>2023-12-14T11:05:21Z</time>
      </trkpt>
      <trkpt lat="48.4233" lon="2.12548">
        <ele>68.8</ele>
        <time>2023-12-14T11:05:22Z</time>
      </trkpt>
      <trkpt lat="48.42329" lon="2.12538">
        <ele>67.8</ele>
        <time>2023-12-14T11:05:23Z</time>
      </trkpt>
      <trkpt lat="48.42327" lon="2.12529">
        <ele>68.4</ele>
        <time>2023-12-14T11:05:24Z</time>
      </trkpt>
      <trkpt lat="48.42325" lon="2.1252">
        <ele>68.4</ele>
        <time>2023-12-14T11:05:25Z</time>
      </trkpt>
      <trkpt lat="48.42324" lon="2.1251">
        <ele>68.4</ele>
        <time>2023-12-14T11:05:26Z</time>
      </trkpt>
      <trkpt lat="48.42323" lon="2.12501">
        <ele>68.4</ele>
        <time>2023-12-14T11:05:27Z</time>
      </trkpt>
      <trkpt lat="48.42322" lon="2.12492">
        <ele>68.4</ele>
        <time>2023-12-14T11:05:28Z</time>
      </trkpt>
      <trkpt lat="48.42321" lon="2.12483">
        <ele>68.4</ele>
        <time>2023-12-14T11:05:29Z</time>
      </trkpt>
      <trkpt lat="48.4232" lon="2.12474">
        <ele>68.4</ele>
        <time>2023-12-14T11:05:30Z</time>
      </trkpt>
      <trkpt lat="48.4232" lon="2.12465">
        <ele>68.4</ele>
        <time>2023-12-14T11:05:31Z</time>
      </trkpt>
      <trkpt lat="48.42319" lon="2.12455">
        <ele>68.8</ele>
        <time>2023-12-14T11:05:32Z</time>
      </trkpt>
      <trkpt lat="48.42318" lon="2.12446">
        <ele>68.8</ele>
        <time>2023-12-14T11:05:33Z</time>
      </trkpt>
      <trkpt lat="48.42318" lon="2.12437">
        <ele>68.8</ele>
        <time>2023-12-14T11:05:34Z</time>
      </trkpt>
      <trkpt lat="48.42318" lon="2.12428">
        <ele>68.2</ele>
        <time>2023-12-14T11:05:35Z</time>
      </trkpt>
      <trkpt lat="48.42318" lon="2.12418">
        <ele>68.6</ele>
        <time>2023-12-14T11:05:36Z</time>
      </trkpt>
      <trkpt lat="48.42318" lon="2.12409">
        <ele>68.6</ele>
        <time>2023-12-14T11:05:37Z</time>
      </trkpt>
      <trkpt lat="48.42319" lon="2.12401">
        <ele>68.6</ele>
        <time>2023-12-14T11:05:38Z</time>
      </trkpt>
      <trkpt lat="48.4232" lon="2.12392">
        <ele>68.6</ele>
        <time>2023-12-14T11:05:39Z</time>
      </trkpt>
      <trkpt lat="48.4232" lon="2.12384">
        <ele>68.8</ele>
        <time>2023-12-14T11:05:40Z</time>
      </trkpt>
      <trkpt lat="48.42321" lon="2.12375">
        <ele>68.8</ele>
        <time>2023-12-14T11:05:41Z</time>
      </trkpt>
      <trkpt lat="48.42322" lon="2.12366">
        <ele>68.8</ele>
        <time>2023-12-14T11:05:42Z</time>
      </trkpt>
      <trkpt lat="48.42322" lon="2.12358">
        <ele>68.8</ele>
        <time>2023-12-14T11:05:43Z</time>
      </trkpt>
      <trkpt lat="48.42323" lon="2.1235">
        <ele>68.8</ele>
        <time>2023-12-14T11:05:44Z</time>
      </trkpt>
      <trkpt lat="48.42324" lon="2.12343">
        <ele>68.8</ele>
        <time>2023-12-14T11:05:45Z</time>
      </trkpt>
      <trkpt lat="48.42325" lon="2.12335">
        <ele>68.8</ele>
        <time>2023-12-14T11:05:46Z</time>
      </trkpt>
      <trkpt lat="48.42325" lon="2.12328">
        <ele>68.4</ele>
        <time>2023-12-14T11:05:47Z</time>
      </trkpt>
      <trkpt lat="48.42326" lon="2.12321">
        <ele>68.6</ele>
        <time>2023-12-14T11:05:48Z</time>
      </trkpt>
      <trkpt lat="48.42326" lon="2.12314">
        <ele>68.6</ele>
        <time>2023-12-14T11:05:49Z</time>
      </trkpt>
      <trkpt lat="48.42327" lon="2.12308">
        <ele>68.6</ele>
        <time>2023-12-14T11:05:50Z</time>
      </trkpt>
      <trkpt lat="48.42328" lon="2.12301">
        <ele>68.6</ele>
        <time>2023-12-14T11:05:51Z</time>
      </trkpt>
      <trkpt lat="48.42329" lon="2.12293">
        <ele>68.8</ele>
        <time>2023-12-14T11:05:52Z</time>
      </trkpt>
      <trkpt lat="48.42329" lon="2.12285">
        <ele>68.8</ele>
        <time>2023-12-14T11:05:53Z</time>
      </trkpt>
      <trkpt lat="48.4233" lon="2.12277">
        <ele>68.8</ele>
        <time>2023-12-14T11:05:54Z</time>
      </trkpt>
      <trkpt lat="48.4233" lon="2.12269">
        <ele>69.8</ele>
        <time>2023-12-14T11:05:55Z</time>
      </trkpt>
      <trkpt lat="48.42331" lon="2.12262">
        <ele>70</ele>
        <time>2023-12-14T11:05:56Z</time>
      </trkpt>
      <trkpt lat="48.42331" lon="2.12254">
        <ele>70</ele>
        <time>2023-12-14T11:05:57Z</time>
      </trkpt>
      <trkpt lat="48.42331" lon="2.12247">
        <ele>70</ele>
        <time>2023-12-14T11:05:58Z</time>
      </trkpt>
      <trkpt lat="48.42331" lon="2.12237">
        <ele>71</ele>
        <time>2023-12-14T11:05:59Z</time>
      </trkpt>
      <trkpt lat="48.42331" lon="2.12228">
        <ele>71.4</ele>
        <time>2023-12-14T11:06:00Z</time>
      </trkpt>
      <trkpt lat="48.42331" lon="2.12217">
        <ele>71.4</ele>
        <time>2023-12-14T11:06:01Z</time>
      </trkpt>
      <trkpt lat="48.42331" lon="2.12207">
        <ele>71.4</ele>
        <time>2023-12-14T11:06:02Z</time>
      </trkpt>
      <trkpt lat="48.42332" lon="2.12197">
        <ele>71.4</ele>
        <time>2023-12-14T11:06:03Z</time>
      </trkpt>
      <trkpt lat="48.42332" lon="2.12188">
        <ele>71.4</ele>
        <time>2023-12-14T11:06:04Z</time>
      </trkpt>
      <trkpt lat="48.42332" lon="2.12179">
        <ele>71.4</ele>
        <time>2023-12-14T11:06:05Z</time>
      </trkpt>
      <trkpt lat="48.42332" lon="2.12171">
        <ele>71.4</ele>
        <time>2023-12-14T11:06:06Z</time>
      </trkpt>
      <trkpt lat="48.42333" lon="2.12162">
        <ele>71.4</ele>
        <time>2023-12-14T11:06:07Z</time>
      </trkpt>
      <trkpt lat="48.42333" lon="2.12153">
        <ele>71.6</ele>
        <time>2023-12-14T11:06:08Z</time>
      </trkpt>
      <trkpt lat="48.42334" lon="2.12145">
        <ele>71.6</ele>
        <time>2023-12-14T11:06:09Z</time>
      </trkpt>
      <trkpt lat="48.42335" lon="2.12137">
        <ele>71.6</ele>
        <time>2023-12-14T11:06:10Z</time>
      </trkpt>
      <trkpt lat="48.42336" lon="2.12129">
        <ele>72.6</ele>
        <time>2023-12-14T11:06:11Z</time>
      </trkpt>
      <trkpt lat="48.42337" lon="2.12121">
        <ele>74.2</ele>
        <time>2023-12-14T11:06:12Z</time>
      </trkpt>
      <trkpt lat="48.42338" lon="2.12114">
        <ele>74.2</ele>
        <time>2023-12-14T11:06:13Z</time>
      </trkpt>
      <trkpt lat="48.42339" lon="2.12106">
        <ele>74.2</ele>
        <time>2023-12-14T11:06:14Z</time>
      </trkpt>
      <trkpt lat="48.4234" lon="2.12098">
        <ele>73.2</ele>
        <time>2023-12-14T11:06:15Z</time>
      </trkpt>
      <trkpt lat="48.42341" lon="2.12091">
        <ele>72.2</ele>
        <time>2023-12-14T11:06:16Z</time>
      </trkpt>
      <trkpt lat="48.42342" lon="2.12083">
        <ele>72.2</ele>
        <time>2023-12-14T11:06:17Z</time>
      </trkpt>
      <trkpt lat="48.42344" lon="2.12077">
        <ele>72.2</ele>
        <time>2023-12-14T11:06:18Z</time>
      </trkpt>
      <trkpt lat="48.42345" lon="2.1207">
        <ele>71.6</ele>
        <time>2023-12-14T11:06:19Z</time>
      </trkpt>
      <trkpt lat="48.42346" lon="2.12063">
        <ele>71.8</ele>
        <time>2023-12-14T11:06:20Z</time>
      </trkpt>
      <trkpt lat="48.42347" lon="2.12055">
        <ele>71.8</ele>
        <time>2023-12-14T11:06:21Z</time>
      </trkpt>
      <trkpt lat="48.42349" lon="2.12048">
        <ele>71.8</ele>
        <time>2023-12-14T11:06:22Z</time>
      </trkpt>
      <trkpt lat="48.4235" lon="2.1204">
        <ele>72.8</ele>
        <time>2023-12-14T11:06:23Z</time>
      </trkpt>
      <trkpt lat="48.42351" lon="2.12033">
        <ele>74</ele>
        <time>2023-12-14T11:06:24Z</time>
      </trkpt>
      <trkpt lat="48.42352" lon="2.12026">
        <ele>74</ele>
        <time>2023-12-14T11:06:25Z</time>
      </trkpt>
      <trkpt lat="48.42354" lon="2.12017">
        <ele>74</ele>
        <time>2023-12-14T11:06:26Z</time>
      </trkpt>
      <trkpt lat="48.42355" lon="2.12009">
        <ele>74</ele>
        <time>2023-12-14T11:06:27Z</time>
      </trkpt>
      <trkpt lat="48.42357" lon="2.12001">
        <ele>73</ele>
        <time>2023-12-14T11:06:28Z</time>
      </trkpt>
      <trkpt lat="48.42359" lon="2.11995">
        <ele>73</ele>
        <time>2023-12-14T11:06:29Z</time>
      </trkpt>
      <trkpt lat="48.4236" lon="2.11987">
        <ele>73</ele>
        <time>2023-12-14T11:06:30Z</time>
      </trkpt>
      <trkpt lat="48.42362" lon="2.11981">
        <ele>74</ele>
        <time>2023-12-14T11:06:31Z</time>
      </trkpt>
      <trkpt lat="48.42364" lon="2.11974">
        <ele>74</ele>
        <time>2023-12-14T11:06:32Z</time>
      </trkpt>
      <trkpt lat="48.42364" lon="2.11965">
        <ele>74</ele>
        <time>2023-12-14T11:06:33Z</time>
      </trkpt>
      <trkpt lat="48.42367" lon="2.11958">
        <ele>74</ele>
        <time>2023-12-14T11:06:34Z</time>
      </trkpt>
      <trkpt lat="48.42368" lon="2.1195">
        <ele>73</ele>
        <time>2023-12-14T11:06:35Z</time>
      </trkpt>
      <trkpt lat="48.4237" lon="2.11941">
        <ele>73.8</ele>
        <time>2023-12-14T11:06:36Z</time>
      </trkpt>
      <trkpt lat="48.42372" lon="2.11933">
        <ele>73.8</ele>
        <time>2023-12-14T11:06:37Z</time>
      </trkpt>
      <trkpt lat="48.42374" lon="2.11925">
        <ele>73.8</ele>
        <time>2023-12-14T11:06:38Z</time>
      </trkpt>
      <trkpt lat="48.42376" lon="2.11917">
        <ele>74.4</ele>
        <time>2023-12-14T11:06:39Z</time>
      </trkpt>
      <trkpt lat="48.42377" lon="2.11909">
        <ele>74</ele>
        <time>2023-12-14T11:06:40Z</time>
      </trkpt>
      <trkpt lat="48.42379" lon="2.11901">
        <ele>74</ele>
        <time>2023-12-14T11:06:41Z</time>
      </trkpt>
      <trkpt lat="48.42381" lon="2.11893">
        <ele>74</ele>
        <time>2023-12-14T11:06:42Z</time>
      </trkpt>
      <trkpt lat="48.42382" lon="2.11884">
        <ele>74</ele>
        <time>2023-12-14T11:06:43Z</time>
      </trkpt>
      <trkpt lat="48.42384" lon="2.11876">
        <ele>74.6</ele>
        <time>2023-12-14T11:06:44Z</time>
      </trkpt>
      <trkpt lat="48.42386" lon="2.11867">
        <ele>74.6</ele>
        <time>2023-12-14T11:06:45Z</time>
      </trkpt>
      <trkpt lat="48.42389" lon="2.11859">
        <ele>74.6</ele>
        <time>2023-12-14T11:06:46Z</time>
      </trkpt>
      <trkpt lat="48.42391" lon="2.11851">
        <ele>74.6</ele>
        <time>2023-12-14T11:06:47Z</time>
      </trkpt>
      <trkpt lat="48.42393" lon="2.11843">
        <ele>74.2</ele>
        <time>2023-12-14T11:06:48Z</time>
      </trkpt>
      <trkpt lat="48.42395" lon="2.11834">
        <ele>74.2</ele>
        <time>2023-12-14T11:06:49Z</time>
      </trkpt>
      <trkpt lat="48.42397" lon="2.11825">
        <ele>74.2</ele>
        <time>2023-12-14T11:06:50Z</time>
      </trkpt>
      <trkpt lat="48.42399" lon="2.11817">
        <ele>74.8</ele>
        <time>2023-12-14T11:06:51Z</time>
      </trkpt>
      <trkpt lat="48.424" lon="2.11808">
        <ele>74.8</ele>
        <time>2023-12-14T11:06:52Z</time>
      </trkpt>
      <trkpt lat="48.42402" lon="2.118">
        <ele>74.8</ele>
        <time>2023-12-14T11:06:53Z</time>
      </trkpt>
      <trkpt lat="48.42403" lon="2.11791">
        <ele>74.8</ele>
        <time>2023-12-14T11:06:54Z</time>
      </trkpt>
      <trkpt lat="48.42404" lon="2.11782">
        <ele>74.8</ele>
        <time>2023-12-14T11:06:55Z</time>
      </trkpt>
      <trkpt lat="48.42405" lon="2.11774">
        <ele>74.8</ele>
        <time>2023-12-14T11:06:56Z</time>
      </trkpt>
      <trkpt lat="48.42406" lon="2.11766">
        <ele>74.8</ele>
        <time>2023-12-14T11:06:57Z</time>
      </trkpt>
      <trkpt lat="48.42406" lon="2.11757">
        <ele>74.8</ele>
        <time>2023-12-14T11:06:58Z</time>
      </trkpt>
      <trkpt lat="48.42407" lon="2.11749">
        <ele>74.8</ele>
        <time>2023-12-14T11:06:59Z</time>
      </trkpt>
      <trkpt lat="48.42407" lon="2.1174">
        <ele>77</ele>
        <time>2023-12-14T11:07:00Z</time>
      </trkpt>
      <trkpt lat="48.42408" lon="2.11731">
        <ele>77</ele>
        <time>2023-12-14T11:07:01Z</time>
      </trkpt>
      <trkpt lat="48.42408" lon="2.11722">
        <ele>77</ele>
        <time>2023-12-14T11:07:02Z</time>
      </trkpt>
      <trkpt lat="48.42409" lon="2.11714">
        <ele>77.8</ele>
        <time>2023-12-14T11:07:03Z</time>
      </trkpt>
      <trkpt lat="48.4241" lon="2.11705">
        <ele>77.4</ele>
        <time>2023-12-14T11:07:04Z</time>
      </trkpt>
      <trkpt lat="48.42411" lon="2.11698">
        <ele>77.4</ele>
        <time>2023-12-14T11:07:05Z</time>
      </trkpt>
      <trkpt lat="48.42413" lon="2.11691">
        <ele>77.4</ele>
        <time>2023-12-14T11:07:06Z</time>
      </trkpt>
      <trkpt lat="48.42415" lon="2.11684">
        <ele>78.4</ele>
        <time>2023-12-14T11:07:07Z</time>
      </trkpt>
      <trkpt lat="48.42417" lon="2.11677">
        <ele>78.4</ele>
        <time>2023-12-14T11:07:08Z</time>
      </trkpt>
      <trkpt lat="48.42418" lon="2.1167">
        <ele>78.4</ele>
        <time>2023-12-14T11:07:09Z</time>
      </trkpt>
      <trkpt lat="48.4242" lon="2.11663">
        <ele>78.4</ele>
        <time>2023-12-14T11:07:10Z</time>
      </trkpt>
      <trkpt lat="48.42422" lon="2.11655">
        <ele>78.4</ele>
        <time>2023-12-14T11:07:11Z</time>
      </trkpt>
      <trkpt lat="48.42424" lon="2.11648">
        <ele>78.2</ele>
        <time>2023-12-14T11:07:12Z</time>
      </trkpt>
      <trkpt lat="48.42426" lon="2.11642">
        <ele>78.2</ele>
        <time>2023-12-14T11:07:13Z</time>
      </trkpt>
      <trkpt lat="48.42427" lon="2.11636">
        <ele>78.2</ele>
        <time>2023-12-14T11:07:14Z</time>
      </trkpt>
      <trkpt lat="48.4243" lon="2.11631">
        <ele>78.2</ele>
        <time>2023-12-14T11:07:15Z</time>
      </trkpt>
      <trkpt lat="48.42432" lon="2.11625">
        <ele>80.4</ele>
        <time>2023-12-14T11:07:16Z</time>
      </trkpt>
      <trkpt lat="48.42434" lon="2.11621">
        <ele>80.4</ele>
        <time>2023-12-14T11:07:17Z</time>
      </trkpt>
      <trkpt lat="48.42437" lon="2.11615">
        <ele>80.4</ele>
        <time>2023-12-14T11:07:18Z</time>
      </trkpt>
      <trkpt lat="48.4244" lon="2.1161">
        <ele>81</ele>
        <time>2023-12-14T11:07:19Z</time>
      </trkpt>
      <trkpt lat="48.42443" lon="2.11606">
        <ele>80.6</ele>
        <time>2023-12-14T11:07:20Z</time>
      </trkpt>
      <trkpt lat="48.42445" lon="2.116">
        <ele>80.6</ele>
        <time>2023-12-14T11:07:21Z</time>
      </trkpt>
      <trkpt lat="48.42447" lon="2.11595">
        <ele>80.6</ele>
        <time>2023-12-14T11:07:22Z</time>
      </trkpt>
      <trkpt lat="48.42448" lon="2.11587">
        <ele>80.6</ele>
        <time>2023-12-14T11:07:23Z</time>
      </trkpt>
      <trkpt lat="48.4245" lon="2.11579">
        <ele>81.6</ele>
        <time>2023-12-14T11:07:24Z</time>
      </trkpt>
      <trkpt lat="48.42451" lon="2.11573">
        <ele>81.6</ele>
        <time>2023-12-14T11:07:25Z</time>
      </trkpt>
      <trkpt lat="48.42454" lon="2.11568">
        <ele>81.6</ele>
        <time>2023-12-14T11:07:26Z</time>
      </trkpt>
      <trkpt lat="48.42456" lon="2.11563">
        <ele>81.6</ele>
        <time>2023-12-14T11:07:27Z</time>
      </trkpt>
      <trkpt lat="48.42458" lon="2.11558">
        <ele>82.6</ele>
        <time>2023-12-14T11:07:28Z</time>
      </trkpt>
      <trkpt lat="48.4246" lon="2.11554">
        <ele>82.6</ele>
        <time>2023-12-14T11:07:29Z</time>
      </trkpt>
      <trkpt lat="48.42462" lon="2.11548">
        <ele>82.6</ele>
        <time>2023-12-14T11:07:30Z</time>
      </trkpt>
      <trkpt lat="48.42465" lon="2.1154">
        <ele>82.2</ele>
        <time>2023-12-14T11:07:31Z</time>
      </trkpt>
      <trkpt lat="48.42467" lon="2.11532">
        <ele>82.6</ele>
        <time>2023-12-14T11:07:32Z</time>
      </trkpt>
      <trkpt lat="48.4247" lon="2.11525">
        <ele>82.6</ele>
        <time>2023-12-14T11:07:33Z</time>
      </trkpt>
      <trkpt lat="48.42472" lon="2.11516">
        <ele>82.6</ele>
        <time>2023-12-14T11:07:34Z</time>
      </trkpt>
      <trkpt lat="48.42475" lon="2.11508">
        <ele>82.4</ele>
        <time>2023-12-14T11:07:35Z</time>
      </trkpt>
      <trkpt lat="48.42477" lon="2.11502">
        <ele>82</ele>
        <time>2023-12-14T11:07:36Z</time>
      </trkpt>
      <trkpt lat="48.42479" lon="2.11497">
        <ele>82</ele>
        <time>2023-12-14T11:07:37Z</time>
      </trkpt>
      <trkpt lat="48.42481" lon="2.11492">
        <ele>82</ele>
        <time>2023-12-14T11:07:38Z</time>
      </trkpt>
      <trkpt lat="48.42483" lon="2.11487">
        <ele>82</ele>
        <time>2023-12-14T11:07:39Z</time>
      </trkpt>
      <trkpt lat="48.42485" lon="2.11481">
        <ele>82</ele>
        <time>2023-12-14T11:07:40Z</time>
      </trkpt>
      <trkpt lat="48.42486" lon="2.11477">
        <ele>82</ele>
        <time>2023-12-14T11:07:41Z</time>
      </trkpt>
      <trkpt lat="48.42489" lon="2.11474">
        <ele>82</ele>
        <time>2023-12-14T11:07:42Z</time>
      </trkpt>
      <trkpt lat="48.4249" lon="2.11469">
        <ele>82.4</ele>
        <time>2023-12-14T11:07:43Z</time>
      </trkpt>
      <trkpt lat="48.42489" lon="2.11465">
        <ele>82.8</ele>
        <time>2023-12-14T11:07:44Z</time>
      </trkpt>
      <trkpt lat="48.42486" lon="2.11463">
        <ele>82.8</ele>
        <time>2023-12-14T11:07:45Z</time>
      </trkpt>
      <trkpt lat="48.42485" lon="2.11463">
        <ele>82.8</ele>
        <time>2023-12-14T11:07:46Z</time>
      </trkpt>
      <trkpt lat="48.42483" lon="2.11463">
        <ele>82.2</ele>
        <time>2023-12-14T11:07:47Z</time>
      </trkpt>
      <trkpt lat="48.42481" lon="2.11464">
        <ele>82</ele>
        <time>2023-12-14T11:07:48Z</time>
      </trkpt>
      <trkpt lat="48.4248" lon="2.11467">
        <ele>82</ele>
        <time>2023-12-14T11:07:49Z</time>
      </trkpt>
      <trkpt lat="48.42477" lon="2.1147">
        <ele>82</ele>
        <time>2023-12-14T11:07:50Z</time>
      </trkpt>
      <trkpt lat="48.42475" lon="2.11473">
        <ele>82</ele>
        <time>2023-12-14T11:07:51Z</time>
      </trkpt>
      <trkpt lat="48.42473" lon="2.11477">
        <ele>82</ele>
        <time>2023-12-14T11:07:52Z</time>
      </trkpt>
      <trkpt lat="48.42471" lon="2.11482">
        <ele>82</ele>
        <time>2023-12-14T11:07:53Z</time>
      </trkpt>
      <trkpt lat="48.42468" lon="2.11488">
        <ele>82</ele>
        <time>2023-12-14T11:07:54Z</time>
      </trkpt>
      <trkpt lat="48.42465" lon="2.11493">
        <ele>82</ele>
        <time>2023-12-14T11:07:55Z</time>
      </trkpt>
      <trkpt lat="48.42463" lon="2.11499">
        <ele>81.8</ele>
        <time>2023-12-14T11:07:56Z</time>
      </trkpt>
      <trkpt lat="48.42461" lon="2.11507">
        <ele>81.8</ele>
        <time>2023-12-14T11:07:57Z</time>
      </trkpt>
      <trkpt lat="48.4246" lon="2.11515">
        <ele>81.8</ele>
        <time>2023-12-14T11:07:58Z</time>
      </trkpt>
      <trkpt lat="48.42457" lon="2.11521">
        <ele>81.8</ele>
        <time>2023-12-14T11:07:59Z</time>
      </trkpt>
      <trkpt lat="48.42455" lon="2.11527">
        <ele>82</ele>
        <time>2023-12-14T11:08:00Z</time>
      </trkpt>
      <trkpt lat="48.42453" lon="2.11534">
        <ele>82</ele>
        <time>2023-12-14T11:08:01Z</time>
      </trkpt>
      <trkpt lat="48.42451" lon="2.11541">
        <ele>82</ele>
        <time>2023-12-14T11:08:02Z</time>
      </trkpt>
      <trkpt lat="48.42448" lon="2.11547">
        <ele>81</ele>
        <time>2023-12-14T11:08:03Z</time>
      </trkpt>
      <trkpt lat="48.42445" lon="2.11554">
        <ele>80.8</ele>
        <time>2023-12-14T11:08:04Z</time>
      </trkpt>
      <trkpt lat="48.42443" lon="2.11561">
        <ele>80.8</ele>
        <time>2023-12-14T11:08:05Z</time>
      </trkpt>
      <trkpt lat="48.42441" lon="2.11569">
        <ele>80.8</ele>
        <time>2023-12-14T11:08:06Z</time>
      </trkpt>
      <trkpt lat="48.42438" lon="2.11576">
        <ele>80.2</ele>
        <time>2023-12-14T11:08:07Z</time>
      </trkpt>
      <trkpt lat="48.42435" lon="2.11584">
        <ele>79.6</ele>
        <time>2023-12-14T11:08:08Z</time>
      </trkpt>
      <trkpt lat="48.42432" lon="2.11592">
        <ele>79.6</ele>
        <time>2023-12-14T11:08:09Z</time>
      </trkpt>
      <trkpt lat="48.42429" lon="2.11599">
        <ele>79.6</ele>
        <time>2023-12-14T11:08:10Z</time>
      </trkpt>
      <trkpt lat="48.42425" lon="2.11607">
        <ele>79.6</ele>
        <time>2023-12-14T11:08:11Z</time>
      </trkpt>
      <trkpt lat="48.42421" lon="2.11615">
        <ele>77</ele>
        <time>2023-12-14T11:08:12Z</time>
      </trkpt>
      <trkpt lat="48.42418" lon="2.11625">
        <ele>77</ele>
        <time>2023-12-14T11:08:13Z</time>
      </trkpt>
      <trkpt lat="48.42415" lon="2.11633">
        <ele>77</ele>
        <time>2023-12-14T11:08:14Z</time>
      </trkpt>
      <trkpt lat="48.42413" lon="2.11643">
        <ele>76.6</ele>
        <time>2023-12-14T11:08:15Z</time>
      </trkpt>
      <trkpt lat="48.4241" lon="2.11654">
        <ele>76.6</ele>
        <time>2023-12-14T11:08:16Z</time>
      </trkpt>
      <trkpt lat="48.42408" lon="2.11665">
        <ele>76.6</ele>
        <time>2023-12-14T11:08:17Z</time>
      </trkpt>
      <trkpt lat="48.42406" lon="2.11675">
        <ele>76.6</ele>
        <time>2023-12-14T11:08:18Z</time>
      </trkpt>
      <trkpt lat="48.42405" lon="2.11686">
        <ele>76.6</ele>
        <time>2023-12-14T11:08:19Z</time>
      </trkpt>
      <trkpt lat="48.42404" lon="2.11696">
        <ele>76.6</ele>
        <time>2023-12-14T11:08:20Z</time>
      </trkpt>
      <trkpt lat="48.42404" lon="2.11707">
        <ele>76.6</ele>
        <time>2023-12-14T11:08:21Z</time>
      </trkpt>
      <trkpt lat="48.42404" lon="2.11716">
        <ele>76.6</ele>
        <time>2023-12-14T11:08:22Z</time>
      </trkpt>
      <trkpt lat="48.42404" lon="2.11722">
        <ele>77.4</ele>
        <time>2023-12-14T11:08:23Z</time>
      </trkpt>
      <trkpt lat="48.42405" lon="2.11726">
        <ele>77.2</ele>
        <time>2023-12-14T11:08:24Z</time>
      </trkpt>
      <trkpt lat="48.42407" lon="2.11727">
        <ele>77.2</ele>
        <time>2023-12-14T11:08:25Z</time>
      </trkpt>
      <trkpt lat="48.4241" lon="2.11725">
        <ele>77.2</ele>
        <time>2023-12-14T11:08:26Z</time>
      </trkpt>
      <trkpt lat="48.42412" lon="2.11723">
        <ele>76.2</ele>
        <time>2023-12-14T11:08:27Z</time>
      </trkpt>
      <trkpt lat="48.42414" lon="2.11718">
        <ele>74.2</ele>
        <time>2023-12-14T11:08:28Z</time>
      </trkpt>
      <trkpt lat="48.42415" lon="2.11712">
        <ele>74.2</ele>
        <time>2023-12-14T11:08:29Z</time>
      </trkpt>
      <trkpt lat="48.42416" lon="2.11706">
        <ele>74.2</ele>
        <time>2023-12-14T11:08:30Z</time>
      </trkpt>
      <trkpt lat="48.42418" lon="2.11701">
        <ele>74.2</ele>
        <time>2023-12-14T11:08:31Z</time>
      </trkpt>
      <trkpt lat="48.4242" lon="2.11695">
        <ele>73.8</ele>
        <time>2023-12-14T11:08:32Z</time>
      </trkpt>
      <trkpt lat="48.42423" lon="2.11689">
        <ele>73.8</ele>
        <time>2023-12-14T11:08:33Z</time>
      </trkpt>
      <trkpt lat="48.42426" lon="2.11684">
        <ele>73.8</ele>
        <time>2023-12-14T11:08:34Z</time>
      </trkpt>
      <trkpt lat="48.42429" lon="2.11678">
        <ele>73.8</ele>
        <time>2023-12-14T11:08:35Z</time>
      </trkpt>
      <trkpt lat="48.42432" lon="2.11673">
        <ele>73.6</ele>
        <time>2023-12-14T11:08:36Z</time>
      </trkpt>
      <trkpt lat="48.42434" lon="2.11667">
        <ele>73.6</ele>
        <time>2023-12-14T11:08:37Z</time>
      </trkpt>
      <trkpt lat="48.42437" lon="2.11661">
        <ele>73.6</ele>
        <time>2023-12-14T11:08:38Z</time>
      </trkpt>
      <trkpt lat="48.42441" lon="2.11655">
        <ele>72.6</ele>
        <time>2023-12-14T11:08:39Z</time>
      </trkpt>
      <trkpt lat="48.42445" lon="2.11648">
        <ele>72</ele>
        <time>2023-12-14T11:08:40Z</time>
      </trkpt>
      <trkpt lat="48.42449" lon="2.11642">
        <ele>72</ele>
        <time>2023-12-14T11:08:41Z</time>
      </trkpt>
      <trkpt lat="48.42452" lon="2.11636">
        <ele>72</ele>
        <time>2023-12-14T11:08:42Z</time>
      </trkpt>
      <trkpt lat="48.42455" lon="2.1163">
        <ele>71</ele>
        <time>2023-12-14T11:08:43Z</time>
      </trkpt>
      <trkpt lat="48.4246" lon="2.11625">
        <ele>70.4</ele>
        <time>2023-12-14T11:08:44Z</time>
      </trkpt>
      <trkpt lat="48.42463" lon="2.1162">
        <ele>70.4</ele>
        <time>2023-12-14T11:08:45Z</time>
      </trkpt>
      <trkpt lat="48.42468" lon="2.11615">
        <ele>70.4</ele>
        <time>2023-12-14T11:08:46Z</time>
      </trkpt>
      <trkpt lat="48.42471" lon="2.11612">
        <ele>69.6</ele>
        <time>2023-12-14T11:08:47Z</time>
      </trkpt>
      <trkpt lat="48.42475" lon="2.11609">
        <ele>69.2</ele>
        <time>2023-12-14T11:08:48Z</time>
      </trkpt>
      <trkpt lat="48.42479" lon="2.11605">
        <ele>69.2</ele>
        <time>2023-12-14T11:08:49Z</time>
      </trkpt>
      <trkpt lat="48.42481" lon="2.116">
        <ele>69.2</ele>
        <time>2023-12-14T11:08:50Z</time>
      </trkpt>
      <trkpt lat="48.42486" lon="2.11595">
        <ele>69</ele>
        <time>2023-12-14T11:08:51Z</time>
      </trkpt>
      <trkpt lat="48.42488" lon="2.11589">
        <ele>68.8</ele>
        <time>2023-12-14T11:08:52Z</time>
      </trkpt>
      <trkpt lat="48.42491" lon="2.11581">
        <ele>68.8</ele>
        <time>2023-12-14T11:08:53Z</time>
      </trkpt>
      <trkpt lat="48.42495" lon="2.11577">
        <ele>68.8</ele>
        <time>2023-12-14T11:08:54Z</time>
      </trkpt>
      <trkpt lat="48.425" lon="2.1157">
        <ele>68.4</ele>
        <time>2023-12-14T11:08:55Z</time>
      </trkpt>
      <trkpt lat="48.42504" lon="2.11562">
        <ele>68.4</ele>
        <time>2023-12-14T11:08:56Z</time>
      </trkpt>
      <trkpt lat="48.42508" lon="2.11555">
        <ele>68.4</ele>
        <time>2023-12-14T11:08:57Z</time>
      </trkpt>
      <trkpt lat="48.42512" lon="2.11548">
        <ele>68.4</ele>
        <time>2023-12-14T11:08:58Z</time>
      </trkpt>
      <trkpt lat="48.42518" lon="2.11542">
        <ele>67.6</ele>
        <time>2023-12-14T11:08:59Z</time>
      </trkpt>
      <trkpt lat="48.42525" lon="2.11537">
        <ele>67.4</ele>
        <time>2023-12-14T11:09:00Z</time>
      </trkpt>
      <trkpt lat="48.42532" lon="2.11534">
        <ele>67.4</ele>
        <time>2023-12-14T11:09:01Z</time>
      </trkpt>
      <trkpt lat="48.42538" lon="2.11534">
        <ele>67.4</ele>
        <time>2023-12-14T11:09:02Z</time>
      </trkpt>
      <trkpt lat="48.42543" lon="2.11534">
        <ele>68.4</ele>
        <time>2023-12-14T11:09:03Z</time>
      </trkpt>
      <trkpt lat="48.42548" lon="2.11535">
        <ele>68.6</ele>
        <time>2023-12-14T11:09:04Z</time>
      </trkpt>
      <trkpt lat="48.42552" lon="2.11535">
        <ele>68.6</ele>
        <time>2023-12-14T11:09:05Z</time>
      </trkpt>
      <trkpt lat="48.42555" lon="2.11535">
        <ele>68.6</ele>
        <time>2023-12-14T11:09:06Z</time>
      </trkpt>
      <trkpt lat="48.42558" lon="2.11535">
        <ele>69.2</ele>
        <time>2023-12-14T11:09:07Z</time>
      </trkpt>
      <trkpt lat="48.4256" lon="2.11534">
        <ele>69.4</ele>
        <time>2023-12-14T11:09:08Z</time>
      </trkpt>
      <trkpt lat="48.4256" lon="2.11533">
        <ele>69.4</ele>
        <time>2023-12-14T11:09:09Z</time>
      </trkpt>
      <trkpt lat="48.42561" lon="2.11533">
        <ele>69.4</ele>
        <time>2023-12-14T11:09:10Z</time>
      </trkpt>
      <trkpt lat="48.42561" lon="2.11533">
        <ele>69.4</ele>
        <time>2023-12-14T11:09:11Z</time>
      </trkpt>
      <trkpt lat="48.42571" lon="2.11527">
        <ele>69.6</ele>
        <time>2023-12-14T11:10:26Z</time>
      </trkpt>
      <trkpt lat="48.42573" lon="2.11529">
        <ele>69</ele>
        <time>2023-12-14T11:10:27Z</time>
      </trkpt>
      <trkpt lat="48.42575" lon="2.1153">
        <ele>68.8</ele>
        <time>2023-12-14T11:10:28Z</time>
      </trkpt>
      <trkpt lat="48.42577" lon="2.11531">
        <ele>68.8</ele>
        <time>2023-12-14T11:10:29Z</time>
      </trkpt>
      <trkpt lat="48.42579" lon="2.11532">
        <ele>68.8</ele>
        <time>2023-12-14T11:10:30Z</time>
      </trkpt>
      <trkpt lat="48.42581" lon="2.11533">
        <ele>68</ele>
        <time>2023-12-14T11:10:31Z</time>
      </trkpt>
      <trkpt lat="48.42584" lon="2.11535">
        <ele>68</ele>
        <time>2023-12-14T11:10:32Z</time>
      </trkpt>
      <trkpt lat="48.42588" lon="2.11535">
        <ele>68</ele>
        <time>2023-12-14T11:10:33Z</time>
      </trkpt>
      <trkpt lat="48.42592" lon="2.11536">
        <ele>68</ele>
        <time>2023-12-14T11:10:34Z</time>
      </trkpt>
      <trkpt lat="48.42596" lon="2.11538">
        <ele>68</ele>
        <time>2023-12-14T11:10:35Z</time>
      </trkpt>
      <trkpt lat="48.426" lon="2.1154">
        <ele>67.6</ele>
        <time>2023-12-14T11:10:36Z</time>
      </trkpt>
      <trkpt lat="48.42604" lon="2.11541">
        <ele>67.6</ele>
        <time>2023-12-14T11:10:37Z</time>
      </trkpt>
      <trkpt lat="48.42608" lon="2.11542">
        <ele>67.6</ele>
        <time>2023-12-14T11:10:38Z</time>
      </trkpt>
      <trkpt lat="48.42612" lon="2.11544">
        <ele>67.6</ele>
        <time>2023-12-14T11:10:39Z</time>
      </trkpt>
      <trkpt lat="48.42616" lon="2.11546">
        <ele>67.4</ele>
        <time>2023-12-14T11:10:40Z</time>
      </trkpt>
      <trkpt lat="48.42621" lon="2.11548">
        <ele>67.4</ele>
        <time>2023-12-14T11:10:41Z</time>
      </trkpt>
      <trkpt lat="48.42625" lon="2.11549">
        <ele>67.4</ele>
        <time>2023-12-14T11:10:42Z</time>
      </trkpt>
      <trkpt lat="48.42629" lon="2.11551">
        <ele>67.6</ele>
        <time>2023-12-14T11:10:43Z</time>
      </trkpt>
      <trkpt lat="48.42633" lon="2.11552">
        <ele>67.8</ele>
        <time>2023-12-14T11:10:44Z</time>
      </trkpt>
      <trkpt lat="48.42637" lon="2.11553">
        <ele>67.8</ele>
        <time>2023-12-14T11:10:45Z</time>
      </trkpt>
      <trkpt lat="48.42641" lon="2.11554">
        <ele>67.8</ele>
        <time>2023-12-14T11:10:46Z</time>
      </trkpt>
      <trkpt lat="48.42645" lon="2.11556">
        <ele>67.8</ele>
        <time>2023-12-14T11:10:47Z</time>
      </trkpt>
      <trkpt lat="48.42649" lon="2.11558">
        <ele>67</ele>
        <time>2023-12-14T11:10:48Z</time>
      </trkpt>
      <trkpt lat="48.42653" lon="2.11559">
        <ele>67</ele>
        <time>2023-12-14T11:10:49Z</time>
      </trkpt>
      <trkpt lat="48.42657" lon="2.11561">
        <ele>67</ele>
        <time>2023-12-14T11:10:50Z</time>
      </trkpt>
      <trkpt lat="48.42661" lon="2.11561">
        <ele>67</ele>
        <time>2023-12-14T11:10:51Z</time>
      </trkpt>
      <trkpt lat="48.42665" lon="2.11563">
        <ele>67.4</ele>
        <time>2023-12-14T11:10:52Z</time>
      </trkpt>
      <trkpt lat="48.42669" lon="2.11565">
        <ele>67.4</ele>
        <time>2023-12-14T11:10:53Z</time>
      </trkpt>
      <trkpt lat="48.42673" lon="2.11567">
        <ele>67.4</ele>
        <time>2023-12-14T11:10:54Z</time>
      </trkpt>
      <trkpt lat="48.42677" lon="2.11568">
        <ele>67.4</ele>
        <time>2023-12-14T11:10:55Z</time>
      </trkpt>
      <trkpt lat="48.42681" lon="2.11569">
        <ele>67.4</ele>
        <time>2023-12-14T11:10:56Z</time>
      </trkpt>
      <trkpt lat="48.42685" lon="2.11571">
        <ele>67.4</ele>
        <time>2023-12-14T11:10:57Z</time>
      </trkpt>
      <trkpt lat="48.42689" lon="2.11572">
        <ele>67.4</ele>
        <time>2023-12-14T11:10:58Z</time>
      </trkpt>
      <trkpt lat="48.42693" lon="2.11573">
        <ele>67.4</ele>
        <time>2023-12-14T11:10:59Z</time>
      </trkpt>
      <trkpt lat="48.42697" lon="2.11574">
        <ele>67.2</ele>
        <time>2023-12-14T11:11:00Z</time>
      </trkpt>
      <trkpt lat="48.42702" lon="2.11575">
        <ele>67.2</ele>
        <time>2023-12-14T11:11:01Z</time>
      </trkpt>
      <trkpt lat="48.42706" lon="2.11577">
        <ele>67.2</ele>
        <time>2023-12-14T11:11:02Z</time>
      </trkpt>
      <trkpt lat="48.4271" lon="2.11579">
        <ele>67.4</ele>
        <time>2023-12-14T11:11:03Z</time>
      </trkpt>
      <trkpt lat="48.42714" lon="2.11581">
        <ele>68</ele>
        <time>2023-12-14T11:11:04Z</time>
      </trkpt>
      <trkpt lat="48.42718" lon="2.11583">
        <ele>68</ele>
        <time>2023-12-14T11:11:05Z</time>
      </trkpt>
      <trkpt lat="48.42722" lon="2.11585">
        <ele>68</ele>
        <time>2023-12-14T11:11:06Z</time>
      </trkpt>
      <trkpt lat="48.42727" lon="2.11587">
        <ele>68</ele>
        <time>2023-12-14T11:11:07Z</time>
      </trkpt>
      <trkpt lat="48.42731" lon="2.11588">
        <ele>68.2</ele>
        <time>2023-12-14T11:11:08Z</time>
      </trkpt>
      <trkpt lat="48.42736" lon="2.1159">
        <ele>68.2</ele>
        <time>2023-12-14T11:11:09Z</time>
      </trkpt>
      <trkpt lat="48.4274" lon="2.11592">
        <ele>68.2</ele>
        <time>2023-12-14T11:11:10Z</time>
      </trkpt>
      <trkpt lat="48.42745" lon="2.11595">
        <ele>68.2</ele>
        <time>2023-12-14T11:11:11Z</time>
      </trkpt>
      <trkpt lat="48.42749" lon="2.11599">
        <ele>68</ele>
        <time>2023-12-14T11:11:12Z</time>
      </trkpt>
      <trkpt lat="48.42754" lon="2.11602">
        <ele>68</ele>
        <time>2023-12-14T11:11:13Z</time>
      </trkpt>
      <trkpt lat="48.42758" lon="2.11606">
        <ele>68</ele>
        <time>2023-12-14T11:11:14Z</time>
      </trkpt>
      <trkpt lat="48.42761" lon="2.11611">
        <ele>67.8</ele>
        <time>2023-12-14T11:11:15Z</time>
      </trkpt>
      <trkpt lat="48.42764" lon="2.11617">
        <ele>67.6</ele>
        <time>2023-12-14T11:11:16Z</time>
      </trkpt>
      <trkpt lat="48.42766" lon="2.11624">
        <ele>67.6</ele>
        <time>2023-12-14T11:11:17Z</time>
      </trkpt>
      <trkpt lat="48.42767" lon="2.11631">
        <ele>67.6</ele>
        <time>2023-12-14T11:11:18Z</time>
      </trkpt>
      <trkpt lat="48.42768" lon="2.11637">
        <ele>67.6</ele>
        <time>2023-12-14T11:11:19Z</time>
      </trkpt>
      <trkpt lat="48.42768" lon="2.11644">
        <ele>68</ele>
        <time>2023-12-14T11:11:20Z</time>
      </trkpt>
      <trkpt lat="48.42768" lon="2.11651">
        <ele>68</ele>
        <time>2023-12-14T11:11:21Z</time>
      </trkpt>
      <trkpt lat="48.42768" lon="2.11658">
        <ele>68</ele>
        <time>2023-12-14T11:11:22Z</time>
      </trkpt>
      <trkpt lat="48.42767" lon="2.11664">
        <ele>68.6</ele>
        <time>2023-12-14T11:11:23Z</time>
      </trkpt>
      <trkpt lat="48.42767" lon="2.11671">
        <ele>68.2</ele>
        <time>2023-12-14T11:11:24Z</time>
      </trkpt>
      <trkpt lat="48.42766" lon="2.11677">
        <ele>68.2</ele>
        <time>2023-12-14T11:11:25Z</time>
      </trkpt>
      <trkpt lat="48.42766" lon="2.11684">
        <ele>68.2</ele>
        <time>2023-12-14T11:11:26Z</time>
      </trkpt>
      <trkpt lat="48.42765" lon="2.1169">
        <ele>68.8</ele>
        <time>2023-12-14T11:11:27Z</time>
      </trkpt>
      <trkpt lat="48.42765" lon="2.11697">
        <ele>68</ele>
        <time>2023-12-14T11:11:28Z</time>
      </trkpt>
      <trkpt lat="48.42767" lon="2.11703">
        <ele>68</ele>
        <time>2023-12-14T11:11:29Z</time>
      </trkpt>
      <trkpt lat="48.42769" lon="2.11708">
        <ele>68</ele>
        <time>2023-12-14T11:11:30Z</time>
      </trkpt>
      <trkpt lat="48.42772" lon="2.11713">
        <ele>68</ele>
        <time>2023-12-14T11:11:31Z</time>
      </trkpt>
      <trkpt lat="48.42775" lon="2.11717">
        <ele>67.8</ele>
        <time>2023-12-14T11:11:32Z</time>
      </trkpt>
      <trkpt lat="48.42778" lon="2.11721">
        <ele>67.8</ele>
        <time>2023-12-14T11:11:33Z</time>
      </trkpt>
      <trkpt lat="48.42781" lon="2.11725">
        <ele>67.8</ele>
        <time>2023-12-14T11:11:34Z</time>
      </trkpt>
      <trkpt lat="48.42785" lon="2.11729">
        <ele>67.8</ele>
        <time>2023-12-14T11:11:35Z</time>
      </trkpt>
      <trkpt lat="48.42788" lon="2.11732">
        <ele>68.6</ele>
        <time>2023-12-14T11:11:36Z</time>
      </trkpt>
      <trkpt lat="48.42791" lon="2.11735">
        <ele>68.6</ele>
        <time>2023-12-14T11:11:37Z</time>
      </trkpt>
      <trkpt lat="48.42794" lon="2.11738">
        <ele>68.6</ele>
        <time>2023-12-14T11:11:38Z</time>
      </trkpt>
      <trkpt lat="48.42797" lon="2.11741">
        <ele>68.6</ele>
        <time>2023-12-14T11:11:39Z</time>
      </trkpt>
      <trkpt lat="48.428" lon="2.11743">
        <ele>69</ele>
        <time>2023-12-14T11:11:40Z</time>
      </trkpt>
      <trkpt lat="48.42803" lon="2.11745">
        <ele>69</ele>
        <time>2023-12-14T11:11:41Z</time>
      </trkpt>
      <trkpt lat="48.42806" lon="2.11747">
        <ele>69</ele>
        <time>2023-12-14T11:11:42Z</time>
      </trkpt>
      <trkpt lat="48.42809" lon="2.11747">
        <ele>69.2</ele>
        <time>2023-12-14T11:11:43Z</time>
      </trkpt>
      <trkpt lat="48.42811" lon="2.11745">
        <ele>69</ele>
        <time>2023-12-14T11:11:44Z</time>
      </trkpt>
      <trkpt lat="48.42813" lon="2.11741">
        <ele>69</ele>
        <time>2023-12-14T11:11:45Z</time>
      </trkpt>
      <trkpt lat="48.42813" lon="2.11736">
        <ele>69</ele>
        <time>2023-12-14T11:11:46Z</time>
      </trkpt>
      <trkpt lat="48.42815" lon="2.11731">
        <ele>69</ele>
        <time>2023-12-14T11:11:47Z</time>
      </trkpt>
      <trkpt lat="48.42817" lon="2.11726">
        <ele>68.8</ele>
        <time>2023-12-14T11:11:48Z</time>
      </trkpt>
      <trkpt lat="48.42819" lon="2.11721">
        <ele>68.8</ele>
        <time>2023-12-14T11:11:49Z</time>
      </trkpt>
      <trkpt lat="48.42821" lon="2.11716">
        <ele>68.8</ele>
        <time>2023-12-14T11:11:50Z</time>
      </trkpt>
      <trkpt lat="48.42824" lon="2.11712">
        <ele>68.8</ele>
        <time>2023-12-14T11:11:51Z</time>
      </trkpt>
      <trkpt lat="48.42826" lon="2.11707">
        <ele>68.6</ele>
        <time>2023-12-14T11:11:52Z</time>
      </trkpt>
      <trkpt lat="48.42829" lon="2.11702">
        <ele>68.6</ele>
        <time>2023-12-14T11:11:53Z</time>
      </trkpt>
      <trkpt lat="48.42832" lon="2.11697">
        <ele>68.6</ele>
        <time>2023-12-14T11:11:54Z</time>
      </trkpt>
      <trkpt lat="48.42834" lon="2.11693">
        <ele>67.8</ele>
        <time>2023-12-14T11:11:55Z</time>
      </trkpt>
      <trkpt lat="48.42837" lon="2.11688">
        <ele>67.6</ele>
        <time>2023-12-14T11:11:56Z</time>
      </trkpt>
      <trkpt lat="48.42839" lon="2.11683">
        <ele>67.6</ele>
        <time>2023-12-14T11:11:57Z</time>
      </trkpt>
      <trkpt lat="48.42842" lon="2.11678">
        <ele>67.6</ele>
        <time>2023-12-14T11:11:58Z</time>
      </trkpt>
      <trkpt lat="48.42845" lon="2.11672">
        <ele>67.6</ele>
        <time>2023-12-14T11:11:59Z</time>
      </trkpt>
      <trkpt lat="48.42847" lon="2.11666">
        <ele>67.8</ele>
        <time>2023-12-14T11:12:00Z</time>
      </trkpt>
      <trkpt lat="48.4285" lon="2.11659">
        <ele>67.8</ele>
        <time>2023-12-14T11:12:01Z</time>
      </trkpt>
      <trkpt lat="48.42852" lon="2.11652">
        <ele>67.8</ele>
        <time>2023-12-14T11:12:02Z</time>
      </trkpt>
      <trkpt lat="48.42855" lon="2.11644">
        <ele>67.8</ele>
        <time>2023-12-14T11:12:03Z</time>
      </trkpt>
      <trkpt lat="48.42857" lon="2.11637">
        <ele>68</ele>
        <time>2023-12-14T11:12:04Z</time>
      </trkpt>
      <trkpt lat="48.42858" lon="2.11628">
        <ele>68</ele>
        <time>2023-12-14T11:12:05Z</time>
      </trkpt>
      <trkpt lat="48.4286" lon="2.11621">
        <ele>68</ele>
        <time>2023-12-14T11:12:06Z</time>
      </trkpt>
      <trkpt lat="48.42862" lon="2.11613">
        <ele>68</ele>
        <time>2023-12-14T11:12:07Z</time>
      </trkpt>
      <trkpt lat="48.42864" lon="2.11606">
        <ele>68</ele>
        <time>2023-12-14T11:12:08Z</time>
      </trkpt>
      <trkpt lat="48.42865" lon="2.11598">
        <ele>68</ele>
        <time>2023-12-14T11:12:09Z</time>
      </trkpt>
      <trkpt lat="48.42867" lon="2.11591">
        <ele>68</ele>
        <time>2023-12-14T11:12:10Z</time>
      </trkpt>
      <trkpt lat="48.42868" lon="2.11584">
        <ele>69</ele>
        <time>2023-12-14T11:12:11Z</time>
      </trkpt>
      <trkpt lat="48.4287" lon="2.11576">
        <ele>68.8</ele>
        <time>2023-12-14T11:12:12Z</time>
      </trkpt>
      <trkpt lat="48.42872" lon="2.1157">
        <ele>68.8</ele>
        <time>2023-12-14T11:12:13Z</time>
      </trkpt>
      <trkpt lat="48.42873" lon="2.11564">
        <ele>68.8</ele>
        <time>2023-12-14T11:12:14Z</time>
      </trkpt>
      <trkpt lat="48.42874" lon="2.11557">
        <ele>68.4</ele>
        <time>2023-12-14T11:12:15Z</time>
      </trkpt>
      <trkpt lat="48.42876" lon="2.1155">
        <ele>68.4</ele>
        <time>2023-12-14T11:12:16Z</time>
      </trkpt>
      <trkpt lat="48.42877" lon="2.11543">
        <ele>68.4</ele>
        <time>2023-12-14T11:12:17Z</time>
      </trkpt>
      <trkpt lat="48.42879" lon="2.11534">
        <ele>68.4</ele>
        <time>2023-12-14T11:12:18Z</time>
      </trkpt>
      <trkpt lat="48.4288" lon="2.11526">
        <ele>68.4</ele>
        <time>2023-12-14T11:12:19Z</time>
      </trkpt>
      <trkpt lat="48.42881" lon="2.11516">
        <ele>68.8</ele>
        <time>2023-12-14T11:12:20Z</time>
      </trkpt>
      <trkpt lat="48.42882" lon="2.11507">
        <ele>68.8</ele>
        <time>2023-12-14T11:12:21Z</time>
      </trkpt>
      <trkpt lat="48.42883" lon="2.115">
        <ele>68.8</ele>
        <time>2023-12-14T11:12:22Z</time>
      </trkpt>
      <trkpt lat="48.42884" lon="2.11492">
        <ele>68.8</ele>
        <time>2023-12-14T11:12:23Z</time>
      </trkpt>
      <trkpt lat="48.42885" lon="2.11484">
        <ele>68.6</ele>
        <time>2023-12-14T11:12:24Z</time>
      </trkpt>
      <trkpt lat="48.42886" lon="2.11475">
        <ele>68.6</ele>
        <time>2023-12-14T11:12:25Z</time>
      </trkpt>
      <trkpt lat="48.42887" lon="2.11467">
        <ele>68.6</ele>
        <time>2023-12-14T11:12:26Z</time>
      </trkpt>
      <trkpt lat="48.42888" lon="2.11457">
        <ele>69</ele>
        <time>2023-12-14T11:12:27Z</time>
      </trkpt>
      <trkpt lat="48.42889" lon="2.11448">
        <ele>68.8</ele>
        <time>2023-12-14T11:12:28Z</time>
      </trkpt>
      <trkpt lat="48.4289" lon="2.1144">
        <ele>68.8</ele>
        <time>2023-12-14T11:12:29Z</time>
      </trkpt>
      <trkpt lat="48.4289" lon="2.11432">
        <ele>68.8</ele>
        <time>2023-12-14T11:12:30Z</time>
      </trkpt>
      <trkpt lat="48.4289" lon="2.11423">
        <ele>68.8</ele>
        <time>2023-12-14T11:12:31Z</time>
      </trkpt>
      <trkpt lat="48.42891" lon="2.11413">
        <ele>69</ele>
        <time>2023-12-14T11:12:32Z</time>
      </trkpt>
      <trkpt lat="48.42892" lon="2.11406">
        <ele>69</ele>
        <time>2023-12-14T11:12:33Z</time>
      </trkpt>
      <trkpt lat="48.42892" lon="2.11396">
        <ele>69</ele>
        <time>2023-12-14T11:12:34Z</time>
      </trkpt>
      <trkpt lat="48.42891" lon="2.11386">
        <ele>68.8</ele>
        <time>2023-12-14T11:12:35Z</time>
      </trkpt>
      <trkpt lat="48.42892" lon="2.11377">
        <ele>68.8</ele>
        <time>2023-12-14T11:12:36Z</time>
      </trkpt>
      <trkpt lat="48.42894" lon="2.1137">
        <ele>68.8</ele>
        <time>2023-12-14T11:12:37Z</time>
      </trkpt>
      <trkpt lat="48.42893" lon="2.11361">
        <ele>68.8</ele>
        <time>2023-12-14T11:12:38Z</time>
      </trkpt>
      <trkpt lat="48.42894" lon="2.11354">
        <ele>68.8</ele>
        <time>2023-12-14T11:12:39Z</time>
      </trkpt>
      <trkpt lat="48.42894" lon="2.11346">
        <ele>68.6</ele>
        <time>2023-12-14T11:12:40Z</time>
      </trkpt>
      <trkpt lat="48.42893" lon="2.11337">
        <ele>68.6</ele>
        <time>2023-12-14T11:12:41Z</time>
      </trkpt>
      <trkpt lat="48.42893" lon="2.1133">
        <ele>68.6</ele>
        <time>2023-12-14T11:12:42Z</time>
      </trkpt>
      <trkpt lat="48.42893" lon="2.11321">
        <ele>68.2</ele>
        <time>2023-12-14T11:12:43Z</time>
      </trkpt>
      <trkpt lat="48.42893" lon="2.11313">
        <ele>68.4</ele>
        <time>2023-12-14T11:12:44Z</time>
      </trkpt>
      <trkpt lat="48.42892" lon="2.11304">
        <ele>68.4</ele>
        <time>2023-12-14T11:12:45Z</time>
      </trkpt>
      <trkpt lat="48.42893" lon="2.11296">
        <ele>68.4</ele>
        <time>2023-12-14T11:12:46Z</time>
      </trkpt>
      <trkpt lat="48.42892" lon="2.11286">
        <ele>68.4</ele>
        <time>2023-12-14T11:12:47Z</time>
      </trkpt>
      <trkpt lat="48.42892" lon="2.11278">
        <ele>68.2</ele>
        <time>2023-12-14T11:12:48Z</time>
      </trkpt>
      <trkpt lat="48.42892" lon="2.1127">
        <ele>68.2</ele>
        <time>2023-12-14T11:12:49Z</time>
      </trkpt>
      <trkpt lat="48.42892" lon="2.11262">
        <ele>68.2</ele>
        <time>2023-12-14T11:12:50Z</time>
      </trkpt>
      <trkpt lat="48.42891" lon="2.11253">
        <ele>68.2</ele>
        <time>2023-12-14T11:12:51Z</time>
      </trkpt>
      <trkpt lat="48.42891" lon="2.11244">
        <ele>68</ele>
        <time>2023-12-14T11:12:52Z</time>
      </trkpt>
      <trkpt lat="48.4289" lon="2.11235">
        <ele>68</ele>
        <time>2023-12-14T11:12:53Z</time>
      </trkpt>
      <trkpt lat="48.4289" lon="2.11227">
        <ele>68</ele>
        <time>2023-12-14T11:12:54Z</time>
      </trkpt>
      <trkpt lat="48.42889" lon="2.11218">
        <ele>67.6</ele>
        <time>2023-12-14T11:12:55Z</time>
      </trkpt>
      <trkpt lat="48.42889" lon="2.11207">
        <ele>68</ele>
        <time>2023-12-14T11:12:56Z</time>
      </trkpt>
      <trkpt lat="48.42888" lon="2.11196">
        <ele>68</ele>
        <time>2023-12-14T11:12:57Z</time>
      </trkpt>
      <trkpt lat="48.42887" lon="2.11185">
        <ele>68</ele>
        <time>2023-12-14T11:12:58Z</time>
      </trkpt>
      <trkpt lat="48.42887" lon="2.11175">
        <ele>68.6</ele>
        <time>2023-12-14T11:12:59Z</time>
      </trkpt>
      <trkpt lat="48.42886" lon="2.11166">
        <ele>68</ele>
        <time>2023-12-14T11:13:00Z</time>
      </trkpt>
      <trkpt lat="48.42886" lon="2.11157">
        <ele>68</ele>
        <time>2023-12-14T11:13:01Z</time>
      </trkpt>
      <trkpt lat="48.42885" lon="2.11147">
        <ele>68</ele>
        <time>2023-12-14T11:13:02Z</time>
      </trkpt>
      <trkpt lat="48.42884" lon="2.11138">
        <ele>68</ele>
        <time>2023-12-14T11:13:03Z</time>
      </trkpt>
      <trkpt lat="48.42884" lon="2.11128">
        <ele>68.2</ele>
        <time>2023-12-14T11:13:04Z</time>
      </trkpt>
      <trkpt lat="48.42884" lon="2.11119">
        <ele>68.2</ele>
        <time>2023-12-14T11:13:05Z</time>
      </trkpt>
      <trkpt lat="48.42883" lon="2.1111">
        <ele>68.2</ele>
        <time>2023-12-14T11:13:06Z</time>
      </trkpt>
      <trkpt lat="48.42883" lon="2.11101">
        <ele>68.2</ele>
        <time>2023-12-14T11:13:07Z</time>
      </trkpt>
      <trkpt lat="48.42883" lon="2.11092">
        <ele>68.2</ele>
        <time>2023-12-14T11:13:08Z</time>
      </trkpt>
      <trkpt lat="48.42883" lon="2.11083">
        <ele>68.2</ele>
        <time>2023-12-14T11:13:09Z</time>
      </trkpt>
      <trkpt lat="48.42882" lon="2.11073">
        <ele>68.2</ele>
        <time>2023-12-14T11:13:10Z</time>
      </trkpt>
      <trkpt lat="48.42881" lon="2.11063">
        <ele>67.8</ele>
        <time>2023-12-14T11:13:11Z</time>
      </trkpt>
      <trkpt lat="48.42881" lon="2.11053">
        <ele>68</ele>
        <time>2023-12-14T11:13:12Z</time>
      </trkpt>
      <trkpt lat="48.4288" lon="2.11044">
        <ele>68</ele>
        <time>2023-12-14T11:13:13Z</time>
      </trkpt>
      <trkpt lat="48.4288" lon="2.11035">
        <ele>68</ele>
        <time>2023-12-14T11:13:14Z</time>
      </trkpt>
      <trkpt lat="48.42879" lon="2.11026">
        <ele>68</ele>
        <time>2023-12-14T11:13:15Z</time>
      </trkpt>
      <trkpt lat="48.42878" lon="2.11018">
        <ele>68.2</ele>
        <time>2023-12-14T11:13:16Z</time>
      </trkpt>
      <trkpt lat="48.42878" lon="2.11008">
        <ele>68.2</ele>
        <time>2023-12-14T11:13:17Z</time>
      </trkpt>
      <trkpt lat="48.42878" lon="2.10998">
        <ele>68.2</ele>
        <time>2023-12-14T11:13:18Z</time>
      </trkpt>
      <trkpt lat="48.42878" lon="2.10988">
        <ele>67.8</ele>
        <time>2023-12-14T11:13:19Z</time>
      </trkpt>
      <trkpt lat="48.42878" lon="2.10979">
        <ele>67.4</ele>
        <time>2023-12-14T11:13:20Z</time>
      </trkpt>
      <trkpt lat="48.42877" lon="2.10969">
        <ele>67.4</ele>
        <time>2023-12-14T11:13:21Z</time>
      </trkpt>
      <trkpt lat="48.42877" lon="2.1096">
        <ele>67.4</ele>
        <time>2023-12-14T11:13:22Z</time>
      </trkpt>
      <trkpt lat="48.42876" lon="2.1095">
        <ele>67.4</ele>
        <time>2023-12-14T11:13:23Z</time>
      </trkpt>
      <trkpt lat="48.42876" lon="2.10941">
        <ele>67.4</ele>
        <time>2023-12-14T11:13:24Z</time>
      </trkpt>
      <trkpt lat="48.42876" lon="2.10932">
        <ele>67.4</ele>
        <time>2023-12-14T11:13:25Z</time>
      </trkpt>
      <trkpt lat="48.42876" lon="2.10923">
        <ele>67.4</ele>
        <time>2023-12-14T11:13:26Z</time>
      </trkpt>
      <trkpt lat="48.42876" lon="2.10915">
        <ele>67.4</ele>
        <time>2023-12-14T11:13:27Z</time>
      </trkpt>
      <trkpt lat="48.42876" lon="2.10906">
        <ele>67</ele>
        <time>2023-12-14T11:13:28Z</time>
      </trkpt>
      <trkpt lat="48.42875" lon="2.10897">
        <ele>67</ele>
        <time>2023-12-14T11:13:29Z</time>
      </trkpt>
      <trkpt lat="48.42874" lon="2.10887">
        <ele>67</ele>
        <time>2023-12-14T11:13:30Z</time>
      </trkpt>
      <trkpt lat="48.42874" lon="2.10879">
        <ele>67</ele>
        <time>2023-12-14T11:13:31Z</time>
      </trkpt>
      <trkpt lat="48.42874" lon="2.1087">
        <ele>67.8</ele>
        <time>2023-12-14T11:13:32Z</time>
      </trkpt>
      <trkpt lat="48.42873" lon="2.10861">
        <ele>67.8</ele>
        <time>2023-12-14T11:13:33Z</time>
      </trkpt>
      <trkpt lat="48.42873" lon="2.10853">
        <ele>67.8</ele>
        <time>2023-12-14T11:13:34Z</time>
      </trkpt>
      <trkpt lat="48.42873" lon="2.10844">
        <ele>66.8</ele>
        <time>2023-12-14T11:13:35Z</time>
      </trkpt>
      <trkpt lat="48.42872" lon="2.10836">
        <ele>66.6</ele>
        <time>2023-12-14T11:13:36Z</time>
      </trkpt>
      <trkpt lat="48.42872" lon="2.10829">
        <ele>66.6</ele>
        <time>2023-12-14T11:13:37Z</time>
      </trkpt>
      <trkpt lat="48.42872" lon="2.1082">
        <ele>66.6</ele>
        <time>2023-12-14T11:13:38Z</time>
      </trkpt>
      <trkpt lat="48.42872" lon="2.10812">
        <ele>66.6</ele>
        <time>2023-12-14T11:13:39Z</time>
      </trkpt>
      <trkpt lat="48.42872" lon="2.10803">
        <ele>67.8</ele>
        <time>2023-12-14T11:13:40Z</time>
      </trkpt>
      <trkpt lat="48.42872" lon="2.10795">
        <ele>67.8</ele>
        <time>2023-12-14T11:13:41Z</time>
      </trkpt>
      <trkpt lat="48.42872" lon="2.10787">
        <ele>67.8</ele>
        <time>2023-12-14T11:13:42Z</time>
      </trkpt>
      <trkpt lat="48.42871" lon="2.10777">
        <ele>67.8</ele>
        <time>2023-12-14T11:13:43Z</time>
      </trkpt>
      <trkpt lat="48.4287" lon="2.10767">
        <ele>67</ele>
        <time>2023-12-14T11:13:44Z</time>
      </trkpt>
      <trkpt lat="48.4287" lon="2.10759">
        <ele>67</ele>
        <time>2023-12-14T11:13:45Z</time>
      </trkpt>
      <trkpt lat="48.4287" lon="2.10752">
        <ele>67</ele>
        <time>2023-12-14T11:13:46Z</time>
      </trkpt>
      <trkpt lat="48.4287" lon="2.10744">
        <ele>67</ele>
        <time>2023-12-14T11:13:47Z</time>
      </trkpt>
      <trkpt lat="48.4287" lon="2.10736">
        <ele>67.4</ele>
        <time>2023-12-14T11:13:48Z</time>
      </trkpt>
      <trkpt lat="48.4287" lon="2.10727">
        <ele>67.4</ele>
        <time>2023-12-14T11:13:49Z</time>
      </trkpt>
      <trkpt lat="48.4287" lon="2.10718">
        <ele>67.4</ele>
        <time>2023-12-14T11:13:50Z</time>
      </trkpt>
      <trkpt lat="48.42869" lon="2.10708">
        <ele>68</ele>
        <time>2023-12-14T11:13:51Z</time>
      </trkpt>
      <trkpt lat="48.42869" lon="2.10699">
        <ele>67.2</ele>
        <time>2023-12-14T11:13:52Z</time>
      </trkpt>
      <trkpt lat="48.42868" lon="2.10689">
        <ele>67.2</ele>
        <time>2023-12-14T11:13:53Z</time>
      </trkpt>
      <trkpt lat="48.42868" lon="2.1068">
        <ele>67.2</ele>
        <time>2023-12-14T11:13:54Z</time>
      </trkpt>
      <trkpt lat="48.42868" lon="2.1067">
        <ele>67.4</ele>
        <time>2023-12-14T11:13:55Z</time>
      </trkpt>
      <trkpt lat="48.42868" lon="2.10661">
        <ele>67</ele>
        <time>2023-12-14T11:13:56Z</time>
      </trkpt>
      <trkpt lat="48.42868" lon="2.10652">
        <ele>67</ele>
        <time>2023-12-14T11:13:57Z</time>
      </trkpt>
      <trkpt lat="48.42868" lon="2.10644">
        <ele>67</ele>
        <time>2023-12-14T11:13:58Z</time>
      </trkpt>
      <trkpt lat="48.42868" lon="2.10633">
        <ele>67.6</ele>
        <time>2023-12-14T11:13:59Z</time>
      </trkpt>
      <trkpt lat="48.42867" lon="2.10624">
        <ele>68</ele>
        <time>2023-12-14T11:14:00Z</time>
      </trkpt>
      <trkpt lat="48.42867" lon="2.10615">
        <ele>68</ele>
        <time>2023-12-14T11:14:01Z</time>
      </trkpt>
      <trkpt lat="48.42867" lon="2.10605">
        <ele>68</ele>
        <time>2023-12-14T11:14:02Z</time>
      </trkpt>
      <trkpt lat="48.42867" lon="2.10595">
        <ele>68</ele>
        <time>2023-12-14T11:14:03Z</time>
      </trkpt>
      <trkpt lat="48.42866" lon="2.10586">
        <ele>67.4</ele>
        <time>2023-12-14T11:14:04Z</time>
      </trkpt>
      <trkpt lat="48.42866" lon="2.10579">
        <ele>67.4</ele>
        <time>2023-12-14T11:14:05Z</time>
      </trkpt>
      <trkpt lat="48.42866" lon="2.1057">
        <ele>67.4</ele>
        <time>2023-12-14T11:14:06Z</time>
      </trkpt>
      <trkpt lat="48.42865" lon="2.1056">
        <ele>67</ele>
        <time>2023-12-14T11:14:07Z</time>
      </trkpt>
      <trkpt lat="48.42864" lon="2.1055">
        <ele>66.6</ele>
        <time>2023-12-14T11:14:08Z</time>
      </trkpt>
      <trkpt lat="48.42864" lon="2.1054">
        <ele>66.6</ele>
        <time>2023-12-14T11:14:09Z</time>
      </trkpt>
      <trkpt lat="48.42863" lon="2.1053">
        <ele>66.6</ele>
        <time>2023-12-14T11:14:10Z</time>
      </trkpt>
      <trkpt lat="48.42864" lon="2.10521">
        <ele>66.6</ele>
        <time>2023-12-14T11:14:11Z</time>
      </trkpt>
      <trkpt lat="48.42863" lon="2.10512">
        <ele>66</ele>
        <time>2023-12-14T11:14:12Z</time>
      </trkpt>
      <trkpt lat="48.42862" lon="2.10501">
        <ele>66</ele>
        <time>2023-12-14T11:14:13Z</time>
      </trkpt>
      <trkpt lat="48.42861" lon="2.1049">
        <ele>66</ele>
        <time>2023-12-14T11:14:14Z</time>
      </trkpt>
      <trkpt lat="48.42861" lon="2.10481">
        <ele>66</ele>
        <time>2023-12-14T11:14:15Z</time>
      </trkpt>
      <trkpt lat="48.4286" lon="2.10472">
        <ele>66</ele>
        <time>2023-12-14T11:14:16Z</time>
      </trkpt>
      <trkpt lat="48.4286" lon="2.10464">
        <ele>66</ele>
        <time>2023-12-14T11:14:17Z</time>
      </trkpt>
      <trkpt lat="48.4286" lon="2.10454">
        <ele>66</ele>
        <time>2023-12-14T11:14:18Z</time>
      </trkpt>
      <trkpt lat="48.42858" lon="2.10443">
        <ele>66.4</ele>
        <time>2023-12-14T11:14:19Z</time>
      </trkpt>
      <trkpt lat="48.42858" lon="2.10432">
        <ele>65.8</ele>
        <time>2023-12-14T11:14:20Z</time>
      </trkpt>
      <trkpt lat="48.42857" lon="2.10424">
        <ele>65.8</ele>
        <time>2023-12-14T11:14:21Z</time>
      </trkpt>
      <trkpt lat="48.42857" lon="2.10414">
        <ele>65.8</ele>
        <time>2023-12-14T11:14:22Z</time>
      </trkpt>
      <trkpt lat="48.42856" lon="2.10407">
        <ele>66.4</ele>
        <time>2023-12-14T11:14:23Z</time>
      </trkpt>
      <trkpt lat="48.42856" lon="2.10399">
        <ele>66.4</ele>
        <time>2023-12-14T11:14:24Z</time>
      </trkpt>
      <trkpt lat="48.42857" lon="2.10392">
        <ele>66.4</ele>
        <time>2023-12-14T11:14:25Z</time>
      </trkpt>
      <trkpt lat="48.42857" lon="2.10384">
        <ele>66.4</ele>
        <time>2023-12-14T11:14:26Z</time>
      </trkpt>
      <trkpt lat="48.42857" lon="2.10377">
        <ele>66.4</ele>
        <time>2023-12-14T11:14:27Z</time>
      </trkpt>
      <trkpt lat="48.42857" lon="2.10369">
        <ele>66.4</ele>
        <time>2023-12-14T11:14:28Z</time>
      </trkpt>
      <trkpt lat="48.42856" lon="2.10357">
        <ele>66.4</ele>
        <time>2023-12-14T11:14:29Z</time>
      </trkpt>
      <trkpt lat="48.42856" lon="2.10349">
        <ele>66.4</ele>
        <time>2023-12-14T11:14:30Z</time>
      </trkpt>
      <trkpt lat="48.42855" lon="2.10342">
        <ele>67.4</ele>
        <time>2023-12-14T11:14:31Z</time>
      </trkpt>
      <trkpt lat="48.42855" lon="2.10333">
        <ele>67.4</ele>
        <time>2023-12-14T11:14:32Z</time>
      </trkpt>
      <trkpt lat="48.42854" lon="2.10325">
        <ele>67.4</ele>
        <time>2023-12-14T11:14:33Z</time>
      </trkpt>
      <trkpt lat="48.42854" lon="2.10313">
        <ele>67.4</ele>
        <time>2023-12-14T11:14:34Z</time>
      </trkpt>
      <trkpt lat="48.42854" lon="2.10304">
        <ele>67.6</ele>
        <time>2023-12-14T11:14:35Z</time>
      </trkpt>
      <trkpt lat="48.42853" lon="2.10294">
        <ele>67.6</ele>
        <time>2023-12-14T11:14:36Z</time>
      </trkpt>
      <trkpt lat="48.42851" lon="2.10283">
        <ele>67.6</ele>
        <time>2023-12-14T11:14:37Z</time>
      </trkpt>
      <trkpt lat="48.42851" lon="2.10275">
        <ele>67.6</ele>
        <time>2023-12-14T11:14:38Z</time>
      </trkpt>
      <trkpt lat="48.42851" lon="2.10265">
        <ele>67.6</ele>
        <time>2023-12-14T11:14:39Z</time>
      </trkpt>
      <trkpt lat="48.42851" lon="2.10257">
        <ele>67</ele>
        <time>2023-12-14T11:14:40Z</time>
      </trkpt>
      <trkpt lat="48.42851" lon="2.10249">
        <ele>67</ele>
        <time>2023-12-14T11:14:41Z</time>
      </trkpt>
      <trkpt lat="48.4285" lon="2.10234">
        <ele>67</ele>
        <time>2023-12-14T11:14:42Z</time>
      </trkpt>
      <trkpt lat="48.42849" lon="2.10224">
        <ele>67</ele>
        <time>2023-12-14T11:14:43Z</time>
      </trkpt>
      <trkpt lat="48.42849" lon="2.10216">
        <ele>67.4</ele>
        <time>2023-12-14T11:14:44Z</time>
      </trkpt>
      <trkpt lat="48.42849" lon="2.10207">
        <ele>67.4</ele>
        <time>2023-12-14T11:14:45Z</time>
      </trkpt>
      <trkpt lat="48.42849" lon="2.10196">
        <ele>67.4</ele>
        <time>2023-12-14T11:14:46Z</time>
      </trkpt>
      <trkpt lat="48.42848" lon="2.10185">
        <ele>67.4</ele>
        <time>2023-12-14T11:14:47Z</time>
      </trkpt>
      <trkpt lat="48.42848" lon="2.10175">
        <ele>67.2</ele>
        <time>2023-12-14T11:14:48Z</time>
      </trkpt>
      <trkpt lat="48.42849" lon="2.10167">
        <ele>67.2</ele>
        <time>2023-12-14T11:14:49Z</time>
      </trkpt>
      <trkpt lat="48.42848" lon="2.10157">
        <ele>67.2</ele>
        <time>2023-12-14T11:14:50Z</time>
      </trkpt>
      <trkpt lat="48.42848" lon="2.10148">
        <ele>67.2</ele>
        <time>2023-12-14T11:14:51Z</time>
      </trkpt>
      <trkpt lat="48.42848" lon="2.10141">
        <ele>67.2</ele>
        <time>2023-12-14T11:14:52Z</time>
      </trkpt>
      <trkpt lat="48.42848" lon="2.10132">
        <ele>67.2</ele>
        <time>2023-12-14T11:14:53Z</time>
      </trkpt>
      <trkpt lat="48.42848" lon="2.10123">
        <ele>67.2</ele>
        <time>2023-12-14T11:14:54Z</time>
      </trkpt>
      <trkpt lat="48.42847" lon="2.10114">
        <ele>67.2</ele>
        <time>2023-12-14T11:14:55Z</time>
      </trkpt>
      <trkpt lat="48.42847" lon="2.10105">
        <ele>67.2</ele>
        <time>2023-12-14T11:14:56Z</time>
      </trkpt>
      <trkpt lat="48.42847" lon="2.10095">
        <ele>67.2</ele>
        <time>2023-12-14T11:14:57Z</time>
      </trkpt>
      <trkpt lat="48.42847" lon="2.10085">
        <ele>67.2</ele>
        <time>2023-12-14T11:14:58Z</time>
      </trkpt>
      <trkpt lat="48.42848" lon="2.10076">
        <ele>67.2</ele>
        <time>2023-12-14T11:14:59Z</time>
      </trkpt>
      <trkpt lat="48.42847" lon="2.10062">
        <ele>67.2</ele>
        <time>2023-12-14T11:15:00Z</time>
      </trkpt>
      <trkpt lat="48.42846" lon="2.10051">
        <ele>67.2</ele>
        <time>2023-12-14T11:15:01Z</time>
      </trkpt>
      <trkpt lat="48.42846" lon="2.10041">
        <ele>67.2</ele>
        <time>2023-12-14T11:15:02Z</time>
      </trkpt>
      <trkpt lat="48.42845" lon="2.1003">
        <ele>67.6</ele>
        <time>2023-12-14T11:15:03Z</time>
      </trkpt>
      <trkpt lat="48.42845" lon="2.10019">
        <ele>67.2</ele>
        <time>2023-12-14T11:15:04Z</time>
      </trkpt>
      <trkpt lat="48.42845" lon="2.10009">
        <ele>67.2</ele>
        <time>2023-12-14T11:15:05Z</time>
      </trkpt>
      <trkpt lat="48.42845" lon="2.09998">
        <ele>67.2</ele>
        <time>2023-12-14T11:15:06Z</time>
      </trkpt>
      <trkpt lat="48.42845" lon="2.09989">
        <ele>67.2</ele>
        <time>2023-12-14T11:15:07Z</time>
      </trkpt>
      <trkpt lat="48.42846" lon="2.0998">
        <ele>66.8</ele>
        <time>2023-12-14T11:15:08Z</time>
      </trkpt>
      <trkpt lat="48.42846" lon="2.0997">
        <ele>66.8</ele>
        <time>2023-12-14T11:15:09Z</time>
      </trkpt>
      <trkpt lat="48.42846" lon="2.09962">
        <ele>66.8</ele>
        <time>2023-12-14T11:15:10Z</time>
      </trkpt>
      <trkpt lat="48.42847" lon="2.09951">
        <ele>66.8</ele>
        <time>2023-12-14T11:15:11Z</time>
      </trkpt>
      <trkpt lat="48.42847" lon="2.09941">
        <ele>67.2</ele>
        <time>2023-12-14T11:15:12Z</time>
      </trkpt>
      <trkpt lat="48.42847" lon="2.09931">
        <ele>67.2</ele>
        <time>2023-12-14T11:15:13Z</time>
      </trkpt>
      <trkpt lat="48.42847" lon="2.09921">
        <ele>67.2</ele>
        <time>2023-12-14T11:15:14Z</time>
      </trkpt>
      <trkpt lat="48.42847" lon="2.09911">
        <ele>67.6</ele>
        <time>2023-12-14T11:15:15Z</time>
      </trkpt>
      <trkpt lat="48.42848" lon="2.09901">
        <ele>67.8</ele>
        <time>2023-12-14T11:15:16Z</time>
      </trkpt>
      <trkpt lat="48.42849" lon="2.09892">
        <ele>67.8</ele>
        <time>2023-12-14T11:15:17Z</time>
      </trkpt>
      <trkpt lat="48.42849" lon="2.09882">
        <ele>67.8</ele>
        <time>2023-12-14T11:15:18Z</time>
      </trkpt>
      <trkpt lat="48.42849" lon="2.09873">
        <ele>68</ele>
        <time>2023-12-14T11:15:19Z</time>
      </trkpt>
      <trkpt lat="48.4285" lon="2.09864">
        <ele>68.4</ele>
        <time>2023-12-14T11:15:20Z</time>
      </trkpt>
      <trkpt lat="48.42851" lon="2.09854">
        <ele>68.4</ele>
        <time>2023-12-14T11:15:21Z</time>
      </trkpt>
      <trkpt lat="48.42851" lon="2.09845">
        <ele>68.4</ele>
        <time>2023-12-14T11:15:22Z</time>
      </trkpt>
      <trkpt lat="48.42852" lon="2.09836">
        <ele>67.4</ele>
        <time>2023-12-14T11:15:23Z</time>
      </trkpt>
      <trkpt lat="48.42853" lon="2.09826">
        <ele>67</ele>
        <time>2023-12-14T11:15:24Z</time>
      </trkpt>
      <trkpt lat="48.42854" lon="2.09815">
        <ele>67</ele>
        <time>2023-12-14T11:15:25Z</time>
      </trkpt>
      <trkpt lat="48.42855" lon="2.09806">
        <ele>67</ele>
        <time>2023-12-14T11:15:26Z</time>
      </trkpt>
      <trkpt lat="48.42855" lon="2.09795">
        <ele>67</ele>
        <time>2023-12-14T11:15:27Z</time>
      </trkpt>
      <trkpt lat="48.42856" lon="2.09785">
        <ele>66.8</ele>
        <time>2023-12-14T11:15:28Z</time>
      </trkpt>
      <trkpt lat="48.42857" lon="2.09775">
        <ele>66.8</ele>
        <time>2023-12-14T11:15:29Z</time>
      </trkpt>
      <trkpt lat="48.42858" lon="2.09765">
        <ele>66.8</ele>
        <time>2023-12-14T11:15:30Z</time>
      </trkpt>
      <trkpt lat="48.42859" lon="2.09755">
        <ele>67</ele>
        <time>2023-12-14T11:15:31Z</time>
      </trkpt>
      <trkpt lat="48.4286" lon="2.09745">
        <ele>67.2</ele>
        <time>2023-12-14T11:15:32Z</time>
      </trkpt>
      <trkpt lat="48.42861" lon="2.09736">
        <ele>67.2</ele>
        <time>2023-12-14T11:15:33Z</time>
      </trkpt>
      <trkpt lat="48.42863" lon="2.09728">
        <ele>67.2</ele>
        <time>2023-12-14T11:15:34Z</time>
      </trkpt>
      <trkpt lat="48.42864" lon="2.09719">
        <ele>67.2</ele>
        <time>2023-12-14T11:15:35Z</time>
      </trkpt>
      <trkpt lat="48.42865" lon="2.09709">
        <ele>68</ele>
        <time>2023-12-14T11:15:36Z</time>
      </trkpt>
      <trkpt lat="48.42866" lon="2.09701">
        <ele>68</ele>
        <time>2023-12-14T11:15:37Z</time>
      </trkpt>
      <trkpt lat="48.42867" lon="2.09692">
        <ele>68</ele>
        <time>2023-12-14T11:15:38Z</time>
      </trkpt>
      <trkpt lat="48.42868" lon="2.09683">
        <ele>67</ele>
        <time>2023-12-14T11:15:39Z</time>
      </trkpt>
      <trkpt lat="48.4287" lon="2.09673">
        <ele>66.8</ele>
        <time>2023-12-14T11:15:40Z</time>
      </trkpt>
      <trkpt lat="48.42872" lon="2.09666">
        <ele>66.8</ele>
        <time>2023-12-14T11:15:41Z</time>
      </trkpt>
      <trkpt lat="48.42874" lon="2.09658">
        <ele>66.8</ele>
        <time>2023-12-14T11:15:42Z</time>
      </trkpt>
      <trkpt lat="48.42876" lon="2.09649">
        <ele>66.8</ele>
        <time>2023-12-14T11:15:43Z</time>
      </trkpt>
      <trkpt lat="48.42877" lon="2.0964">
        <ele>66.8</ele>
        <time>2023-12-14T11:15:44Z</time>
      </trkpt>
      <trkpt lat="48.42878" lon="2.0963">
        <ele>66.8</ele>
        <time>2023-12-14T11:15:45Z</time>
      </trkpt>
      <trkpt lat="48.4288" lon="2.0962">
        <ele>66.8</ele>
        <time>2023-12-14T11:15:46Z</time>
      </trkpt>
      <trkpt lat="48.42881" lon="2.0961">
        <ele>66.8</ele>
        <time>2023-12-14T11:15:47Z</time>
      </trkpt>
      <trkpt lat="48.42882" lon="2.096">
        <ele>66.4</ele>
        <time>2023-12-14T11:15:48Z</time>
      </trkpt>
      <trkpt lat="48.42884" lon="2.09592">
        <ele>66.4</ele>
        <time>2023-12-14T11:15:49Z</time>
      </trkpt>
      <trkpt lat="48.42886" lon="2.09582">
        <ele>66.4</ele>
        <time>2023-12-14T11:15:50Z</time>
      </trkpt>
      <trkpt lat="48.42888" lon="2.09575">
        <ele>67</ele>
        <time>2023-12-14T11:15:51Z</time>
      </trkpt>
      <trkpt lat="48.42889" lon="2.09567">
        <ele>66.8</ele>
        <time>2023-12-14T11:15:52Z</time>
      </trkpt>
      <trkpt lat="48.42891" lon="2.09558">
        <ele>66.8</ele>
        <time>2023-12-14T11:15:53Z</time>
      </trkpt>
      <trkpt lat="48.42892" lon="2.0955">
        <ele>66.8</ele>
        <time>2023-12-14T11:15:54Z</time>
      </trkpt>
      <trkpt lat="48.42893" lon="2.0954">
        <ele>66.8</ele>
        <time>2023-12-14T11:15:55Z</time>
      </trkpt>
      <trkpt lat="48.42895" lon="2.09532">
        <ele>67.8</ele>
        <time>2023-12-14T11:15:56Z</time>
      </trkpt>
      <trkpt lat="48.42897" lon="2.09522">
        <ele>67.8</ele>
        <time>2023-12-14T11:15:57Z</time>
      </trkpt>
      <trkpt lat="48.42899" lon="2.09513">
        <ele>67.8</ele>
        <time>2023-12-14T11:15:58Z</time>
      </trkpt>
      <trkpt lat="48.429" lon="2.09501">
        <ele>67.4</ele>
        <time>2023-12-14T11:15:59Z</time>
      </trkpt>
      <trkpt lat="48.42902" lon="2.09492">
        <ele>67.2</ele>
        <time>2023-12-14T11:16:00Z</time>
      </trkpt>
      <trkpt lat="48.42904" lon="2.09482">
        <ele>67.2</ele>
        <time>2023-12-14T11:16:01Z</time>
      </trkpt>
      <trkpt lat="48.42906" lon="2.09474">
        <ele>67.2</ele>
        <time>2023-12-14T11:16:02Z</time>
      </trkpt>
      <trkpt lat="48.42909" lon="2.09466">
        <ele>67.2</ele>
        <time>2023-12-14T11:16:03Z</time>
      </trkpt>
      <trkpt lat="48.42911" lon="2.09457">
        <ele>66</ele>
        <time>2023-12-14T11:16:04Z</time>
      </trkpt>
      <trkpt lat="48.42913" lon="2.09448">
        <ele>66</ele>
        <time>2023-12-14T11:16:05Z</time>
      </trkpt>
      <trkpt lat="48.42914" lon="2.09438">
        <ele>66</ele>
        <time>2023-12-14T11:16:06Z</time>
      </trkpt>
      <trkpt lat="48.42916" lon="2.09429">
        <ele>66.2</ele>
        <time>2023-12-14T11:16:07Z</time>
      </trkpt>
      <trkpt lat="48.42918" lon="2.0942">
        <ele>66</ele>
        <time>2023-12-14T11:16:08Z</time>
      </trkpt>
      <trkpt lat="48.4292" lon="2.0941">
        <ele>66</ele>
        <time>2023-12-14T11:16:09Z</time>
      </trkpt>
      <trkpt lat="48.42922" lon="2.09401">
        <ele>66</ele>
        <time>2023-12-14T11:16:10Z</time>
      </trkpt>
      <trkpt lat="48.42924" lon="2.09393">
        <ele>66</ele>
        <time>2023-12-14T11:16:11Z</time>
      </trkpt>
      <trkpt lat="48.42927" lon="2.09383">
        <ele>66</ele>
        <time>2023-12-14T11:16:12Z</time>
      </trkpt>
      <trkpt lat="48.42928" lon="2.09374">
        <ele>66</ele>
        <time>2023-12-14T11:16:13Z</time>
      </trkpt>
      <trkpt lat="48.42931" lon="2.09364">
        <ele>66</ele>
        <time>2023-12-14T11:16:14Z</time>
      </trkpt>
      <trkpt lat="48.42933" lon="2.09356">
        <ele>66</ele>
        <time>2023-12-14T11:16:15Z</time>
      </trkpt>
      <trkpt lat="48.42935" lon="2.09346">
        <ele>67.4</ele>
        <time>2023-12-14T11:16:16Z</time>
      </trkpt>
      <trkpt lat="48.42938" lon="2.09337">
        <ele>67.4</ele>
        <time>2023-12-14T11:16:17Z</time>
      </trkpt>
      <trkpt lat="48.4294" lon="2.09327">
        <ele>67.4</ele>
        <time>2023-12-14T11:16:18Z</time>
      </trkpt>
      <trkpt lat="48.42943" lon="2.09318">
        <ele>67.4</ele>
        <time>2023-12-14T11:16:19Z</time>
      </trkpt>
      <trkpt lat="48.42945" lon="2.09309">
        <ele>67</ele>
        <time>2023-12-14T11:16:20Z</time>
      </trkpt>
      <trkpt lat="48.42948" lon="2.093">
        <ele>67</ele>
        <time>2023-12-14T11:16:21Z</time>
      </trkpt>
      <trkpt lat="48.4295" lon="2.09291">
        <ele>67</ele>
        <time>2023-12-14T11:16:22Z</time>
      </trkpt>
      <trkpt lat="48.42953" lon="2.09282">
        <ele>66</ele>
        <time>2023-12-14T11:16:23Z</time>
      </trkpt>
      <trkpt lat="48.42955" lon="2.09273">
        <ele>65</ele>
        <time>2023-12-14T11:16:24Z</time>
      </trkpt>
      <trkpt lat="48.42958" lon="2.09264">
        <ele>65</ele>
        <time>2023-12-14T11:16:25Z</time>
      </trkpt>
      <trkpt lat="48.4296" lon="2.09256">
        <ele>65</ele>
        <time>2023-12-14T11:16:26Z</time>
      </trkpt>
      <trkpt lat="48.42962" lon="2.09247">
        <ele>65</ele>
        <time>2023-12-14T11:16:27Z</time>
      </trkpt>
      <trkpt lat="48.42965" lon="2.09239">
        <ele>67</ele>
        <time>2023-12-14T11:16:28Z</time>
      </trkpt>
      <trkpt lat="48.42967" lon="2.09232">
        <ele>67</ele>
        <time>2023-12-14T11:16:29Z</time>
      </trkpt>
      <trkpt lat="48.42969" lon="2.09224">
        <ele>67</ele>
        <time>2023-12-14T11:16:30Z</time>
      </trkpt>
      <trkpt lat="48.42972" lon="2.09215">
        <ele>67</ele>
        <time>2023-12-14T11:16:31Z</time>
      </trkpt>
      <trkpt lat="48.42974" lon="2.09207">
        <ele>67.2</ele>
        <time>2023-12-14T11:16:32Z</time>
      </trkpt>
      <trkpt lat="48.42976" lon="2.09198">
        <ele>67.2</ele>
        <time>2023-12-14T11:16:33Z</time>
      </trkpt>
      <trkpt lat="48.42979" lon="2.0919">
        <ele>67.2</ele>
        <time>2023-12-14T11:16:34Z</time>
      </trkpt>
      <trkpt lat="48.42981" lon="2.09181">
        <ele>67.2</ele>
        <time>2023-12-14T11:16:35Z</time>
      </trkpt>
      <trkpt lat="48.42984" lon="2.09172">
        <ele>67.4</ele>
        <time>2023-12-14T11:16:36Z</time>
      </trkpt>
      <trkpt lat="48.42987" lon="2.09163">
        <ele>67.4</ele>
        <time>2023-12-14T11:16:37Z</time>
      </trkpt>
      <trkpt lat="48.42989" lon="2.09155">
        <ele>67.4</ele>
        <time>2023-12-14T11:16:38Z</time>
      </trkpt>
      <trkpt lat="48.42992" lon="2.09146">
        <ele>67.4</ele>
        <time>2023-12-14T11:16:39Z</time>
      </trkpt>
      <trkpt lat="48.42994" lon="2.09139">
        <ele>67.8</ele>
        <time>2023-12-14T11:16:40Z</time>
      </trkpt>
      <trkpt lat="48.42997" lon="2.09132">
        <ele>67.8</ele>
        <time>2023-12-14T11:16:41Z</time>
      </trkpt>
      <trkpt lat="48.43" lon="2.09126">
        <ele>67.8</ele>
        <time>2023-12-14T11:16:42Z</time>
      </trkpt>
      <trkpt lat="48.43002" lon="2.09119">
        <ele>67</ele>
        <time>2023-12-14T11:16:43Z</time>
      </trkpt>
      <trkpt lat="48.43005" lon="2.09112">
        <ele>66.8</ele>
        <time>2023-12-14T11:16:44Z</time>
      </trkpt>
      <trkpt lat="48.43007" lon="2.09103">
        <ele>66.8</ele>
        <time>2023-12-14T11:16:45Z</time>
      </trkpt>
      <trkpt lat="48.4301" lon="2.09094">
        <ele>66.8</ele>
        <time>2023-12-14T11:16:46Z</time>
      </trkpt>
      <trkpt lat="48.43012" lon="2.09085">
        <ele>66.8</ele>
        <time>2023-12-14T11:16:47Z</time>
      </trkpt>
      <trkpt lat="48.43015" lon="2.09076">
        <ele>67</ele>
        <time>2023-12-14T11:16:48Z</time>
      </trkpt>
      <trkpt lat="48.43017" lon="2.09067">
        <ele>67</ele>
        <time>2023-12-14T11:16:49Z</time>
      </trkpt>
      <trkpt lat="48.43019" lon="2.09058">
        <ele>67</ele>
        <time>2023-12-14T11:16:50Z</time>
      </trkpt>
      <trkpt lat="48.43021" lon="2.09049">
        <ele>67</ele>
        <time>2023-12-14T11:16:51Z</time>
      </trkpt>
      <trkpt lat="48.43024" lon="2.09041">
        <ele>66.4</ele>
        <time>2023-12-14T11:16:52Z</time>
      </trkpt>
      <trkpt lat="48.43027" lon="2.09033">
        <ele>66.4</ele>
        <time>2023-12-14T11:16:53Z</time>
      </trkpt>
      <trkpt lat="48.4303" lon="2.09024">
        <ele>66.4</ele>
        <time>2023-12-14T11:16:54Z</time>
      </trkpt>
      <trkpt lat="48.43032" lon="2.09016">
        <ele>67</ele>
        <time>2023-12-14T11:16:55Z</time>
      </trkpt>
      <trkpt lat="48.43035" lon="2.09007">
        <ele>66.8</ele>
        <time>2023-12-14T11:16:56Z</time>
      </trkpt>
      <trkpt lat="48.43037" lon="2.08998">
        <ele>66.8</ele>
        <time>2023-12-14T11:16:57Z</time>
      </trkpt>
      <trkpt lat="48.4304" lon="2.0899">
        <ele>66.8</ele>
        <time>2023-12-14T11:16:58Z</time>
      </trkpt>
      <trkpt lat="48.43042" lon="2.08981">
        <ele>66.6</ele>
        <time>2023-12-14T11:16:59Z</time>
      </trkpt>
      <trkpt lat="48.43044" lon="2.08974">
        <ele>67</ele>
        <time>2023-12-14T11:17:00Z</time>
      </trkpt>
      <trkpt lat="48.43047" lon="2.08965">
        <ele>67</ele>
        <time>2023-12-14T11:17:01Z</time>
      </trkpt>
      <trkpt lat="48.43049" lon="2.08957">
        <ele>67</ele>
        <time>2023-12-14T11:17:02Z</time>
      </trkpt>
      <trkpt lat="48.43052" lon="2.08948">
        <ele>67</ele>
        <time>2023-12-14T11:17:03Z</time>
      </trkpt>
      <trkpt lat="48.43054" lon="2.08939">
        <ele>66</ele>
        <time>2023-12-14T11:17:04Z</time>
      </trkpt>
      <trkpt lat="48.43056" lon="2.0893">
        <ele>66</ele>
        <time>2023-12-14T11:17:05Z</time>
      </trkpt>
      <trkpt lat="48.43059" lon="2.0892">
        <ele>66</ele>
        <time>2023-12-14T11:17:06Z</time>
      </trkpt>
      <trkpt lat="48.43061" lon="2.0891">
        <ele>66.6</ele>
        <time>2023-12-14T11:17:07Z</time>
      </trkpt>
      <trkpt lat="48.43063" lon="2.089">
        <ele>66</ele>
        <time>2023-12-14T11:17:08Z</time>
      </trkpt>
      <trkpt lat="48.43065" lon="2.08891">
        <ele>66</ele>
        <time>2023-12-14T11:17:09Z</time>
      </trkpt>
      <trkpt lat="48.43067" lon="2.08882">
        <ele>66</ele>
        <time>2023-12-14T11:17:10Z</time>
      </trkpt>
      <trkpt lat="48.43069" lon="2.08874">
        <ele>67</ele>
        <time>2023-12-14T11:17:11Z</time>
      </trkpt>
      <trkpt lat="48.43071" lon="2.08865">
        <ele>67</ele>
        <time>2023-12-14T11:17:12Z</time>
      </trkpt>
      <trkpt lat="48.43073" lon="2.08857">
        <ele>67</ele>
        <time>2023-12-14T11:17:13Z</time>
      </trkpt>
      <trkpt lat="48.43075" lon="2.08848">
        <ele>67</ele>
        <time>2023-12-14T11:17:14Z</time>
      </trkpt>
      <trkpt lat="48.43076" lon="2.0884">
        <ele>68</ele>
        <time>2023-12-14T11:17:15Z</time>
      </trkpt>
      <trkpt lat="48.43078" lon="2.08832">
        <ele>68</ele>
        <time>2023-12-14T11:17:16Z</time>
      </trkpt>
      <trkpt lat="48.4308" lon="2.08823">
        <ele>68</ele>
        <time>2023-12-14T11:17:17Z</time>
      </trkpt>
      <trkpt lat="48.43081" lon="2.08815">
        <ele>68</ele>
        <time>2023-12-14T11:17:18Z</time>
      </trkpt>
      <trkpt lat="48.43083" lon="2.08807">
        <ele>67.8</ele>
        <time>2023-12-14T11:17:19Z</time>
      </trkpt>
      <trkpt lat="48.43084" lon="2.08798">
        <ele>68.2</ele>
        <time>2023-12-14T11:17:20Z</time>
      </trkpt>
      <trkpt lat="48.43085" lon="2.0879">
        <ele>68.2</ele>
        <time>2023-12-14T11:17:21Z</time>
      </trkpt>
      <trkpt lat="48.43087" lon="2.08781">
        <ele>68.2</ele>
        <time>2023-12-14T11:17:22Z</time>
      </trkpt>
      <trkpt lat="48.43088" lon="2.08773">
        <ele>68.2</ele>
        <time>2023-12-14T11:17:23Z</time>
      </trkpt>
      <trkpt lat="48.4309" lon="2.08764">
        <ele>68.4</ele>
        <time>2023-12-14T11:17:24Z</time>
      </trkpt>
      <trkpt lat="48.43091" lon="2.08756">
        <ele>68.4</ele>
        <time>2023-12-14T11:17:25Z</time>
      </trkpt>
      <trkpt lat="48.43093" lon="2.08747">
        <ele>68.4</ele>
        <time>2023-12-14T11:17:26Z</time>
      </trkpt>
      <trkpt lat="48.43094" lon="2.08738">
        <ele>68.8</ele>
        <time>2023-12-14T11:17:27Z</time>
      </trkpt>
      <trkpt lat="48.43094" lon="2.08729">
        <ele>68</ele>
        <time>2023-12-14T11:17:28Z</time>
      </trkpt>
      <trkpt lat="48.43095" lon="2.0872">
        <ele>68</ele>
        <time>2023-12-14T11:17:29Z</time>
      </trkpt>
      <trkpt lat="48.43096" lon="2.08711">
        <ele>68</ele>
        <time>2023-12-14T11:17:30Z</time>
      </trkpt>
      <trkpt lat="48.43097" lon="2.08702">
        <ele>68</ele>
        <time>2023-12-14T11:17:31Z</time>
      </trkpt>
      <trkpt lat="48.43097" lon="2.08693">
        <ele>68</ele>
        <time>2023-12-14T11:17:32Z</time>
      </trkpt>
      <trkpt lat="48.43098" lon="2.08684">
        <ele>68</ele>
        <time>2023-12-14T11:17:33Z</time>
      </trkpt>
      <trkpt lat="48.43098" lon="2.08675">
        <ele>68</ele>
        <time>2023-12-14T11:17:34Z</time>
      </trkpt>
      <trkpt lat="48.43099" lon="2.08666">
        <ele>68</ele>
        <time>2023-12-14T11:17:35Z</time>
      </trkpt>
      <trkpt lat="48.43099" lon="2.08658">
        <ele>68</ele>
        <time>2023-12-14T11:17:36Z</time>
      </trkpt>
      <trkpt lat="48.431" lon="2.0865">
        <ele>68</ele>
        <time>2023-12-14T11:17:37Z</time>
      </trkpt>
      <trkpt lat="48.43102" lon="2.08642">
        <ele>68</ele>
        <time>2023-12-14T11:17:38Z</time>
      </trkpt>
      <trkpt lat="48.43103" lon="2.08634">
        <ele>68.4</ele>
        <time>2023-12-14T11:17:39Z</time>
      </trkpt>
      <trkpt lat="48.43104" lon="2.08625">
        <ele>68</ele>
        <time>2023-12-14T11:17:40Z</time>
      </trkpt>
      <trkpt lat="48.43104" lon="2.08616">
        <ele>68</ele>
        <time>2023-12-14T11:17:41Z</time>
      </trkpt>
      <trkpt lat="48.43104" lon="2.08606">
        <ele>68</ele>
        <time>2023-12-14T11:17:42Z</time>
      </trkpt>
      <trkpt lat="48.43104" lon="2.08597">
        <ele>68</ele>
        <time>2023-12-14T11:17:43Z</time>
      </trkpt>
      <trkpt lat="48.43104" lon="2.08588">
        <ele>68.4</ele>
        <time>2023-12-14T11:17:44Z</time>
      </trkpt>
      <trkpt lat="48.43105" lon="2.0858">
        <ele>68.4</ele>
        <time>2023-12-14T11:17:45Z</time>
      </trkpt>
      <trkpt lat="48.43105" lon="2.08574">
        <ele>68.4</ele>
        <time>2023-12-14T11:17:46Z</time>
      </trkpt>
      <trkpt lat="48.43105" lon="2.08567">
        <ele>68.2</ele>
        <time>2023-12-14T11:17:47Z</time>
      </trkpt>
      <trkpt lat="48.43104" lon="2.08559">
        <ele>68.4</ele>
        <time>2023-12-14T11:17:48Z</time>
      </trkpt>
      <trkpt lat="48.43105" lon="2.08553">
        <ele>68.4</ele>
        <time>2023-12-14T11:17:49Z</time>
      </trkpt>
      <trkpt lat="48.43105" lon="2.08545">
        <ele>68.4</ele>
        <time>2023-12-14T11:17:50Z</time>
      </trkpt>
      <trkpt lat="48.43104" lon="2.08536">
        <ele>68.4</ele>
        <time>2023-12-14T11:17:51Z</time>
      </trkpt>
      <trkpt lat="48.43103" lon="2.08526">
        <ele>68</ele>
        <time>2023-12-14T11:17:52Z</time>
      </trkpt>
      <trkpt lat="48.43102" lon="2.08516">
        <ele>68</ele>
        <time>2023-12-14T11:17:53Z</time>
      </trkpt>
      <trkpt lat="48.43101" lon="2.08507">
        <ele>68</ele>
        <time>2023-12-14T11:17:54Z</time>
      </trkpt>
      <trkpt lat="48.431" lon="2.08497">
        <ele>68.4</ele>
        <time>2023-12-14T11:17:55Z</time>
      </trkpt>
      <trkpt lat="48.43099" lon="2.08488">
        <ele>68.4</ele>
        <time>2023-12-14T11:17:56Z</time>
      </trkpt>
      <trkpt lat="48.43097" lon="2.08478">
        <ele>68.4</ele>
        <time>2023-12-14T11:17:57Z</time>
      </trkpt>
      <trkpt lat="48.43096" lon="2.08469">
        <ele>68.4</ele>
        <time>2023-12-14T11:17:58Z</time>
      </trkpt>
      <trkpt lat="48.43095" lon="2.08459">
        <ele>68.8</ele>
        <time>2023-12-14T11:17:59Z</time>
      </trkpt>
      <trkpt lat="48.43093" lon="2.08449">
        <ele>69</ele>
        <time>2023-12-14T11:18:00Z</time>
      </trkpt>
      <trkpt lat="48.43092" lon="2.08439">
        <ele>69</ele>
        <time>2023-12-14T11:18:01Z</time>
      </trkpt>
      <trkpt lat="48.43091" lon="2.0843">
        <ele>69</ele>
        <time>2023-12-14T11:18:02Z</time>
      </trkpt>
      <trkpt lat="48.4309" lon="2.08421">
        <ele>69</ele>
        <time>2023-12-14T11:18:03Z</time>
      </trkpt>
      <trkpt lat="48.43089" lon="2.08412">
        <ele>69</ele>
        <time>2023-12-14T11:18:04Z</time>
      </trkpt>
      <trkpt lat="48.43087" lon="2.08403">
        <ele>69</ele>
        <time>2023-12-14T11:18:05Z</time>
      </trkpt>
      <trkpt lat="48.43086" lon="2.08395">
        <ele>69</ele>
        <time>2023-12-14T11:18:06Z</time>
      </trkpt>
      <trkpt lat="48.43085" lon="2.08385">
        <ele>69</ele>
        <time>2023-12-14T11:18:07Z</time>
      </trkpt>
      <trkpt lat="48.43084" lon="2.08376">
        <ele>69</ele>
        <time>2023-12-14T11:18:08Z</time>
      </trkpt>
      <trkpt lat="48.43083" lon="2.08366">
        <ele>69</ele>
        <time>2023-12-14T11:18:09Z</time>
      </trkpt>
      <trkpt lat="48.43081" lon="2.08357">
        <ele>69</ele>
        <time>2023-12-14T11:18:10Z</time>
      </trkpt>
      <trkpt lat="48.4308" lon="2.08348">
        <ele>69</ele>
        <time>2023-12-14T11:18:11Z</time>
      </trkpt>
      <trkpt lat="48.43078" lon="2.08338">
        <ele>68.8</ele>
        <time>2023-12-14T11:18:12Z</time>
      </trkpt>
      <trkpt lat="48.43077" lon="2.0833">
        <ele>68.8</ele>
        <time>2023-12-14T11:18:13Z</time>
      </trkpt>
      <trkpt lat="48.43077" lon="2.08321">
        <ele>68.8</ele>
        <time>2023-12-14T11:18:14Z</time>
      </trkpt>
      <trkpt lat="48.43076" lon="2.08312">
        <ele>68.8</ele>
        <time>2023-12-14T11:18:15Z</time>
      </trkpt>
      <trkpt lat="48.43075" lon="2.08302">
        <ele>69</ele>
        <time>2023-12-14T11:18:16Z</time>
      </trkpt>
      <trkpt lat="48.43075" lon="2.08293">
        <ele>69</ele>
        <time>2023-12-14T11:18:17Z</time>
      </trkpt>
      <trkpt lat="48.43074" lon="2.08284">
        <ele>69</ele>
        <time>2023-12-14T11:18:18Z</time>
      </trkpt>
      <trkpt lat="48.43074" lon="2.08274">
        <ele>69.8</ele>
        <time>2023-12-14T11:18:19Z</time>
      </trkpt>
      <trkpt lat="48.43074" lon="2.08265">
        <ele>69.2</ele>
        <time>2023-12-14T11:18:20Z</time>
      </trkpt>
      <trkpt lat="48.43073" lon="2.08256">
        <ele>69.2</ele>
        <time>2023-12-14T11:18:21Z</time>
      </trkpt>
      <trkpt lat="48.43073" lon="2.08247">
        <ele>69.2</ele>
        <time>2023-12-14T11:18:22Z</time>
      </trkpt>
      <trkpt lat="48.43073" lon="2.08237">
        <ele>69.2</ele>
        <time>2023-12-14T11:18:23Z</time>
      </trkpt>
      <trkpt lat="48.43073" lon="2.08228">
        <ele>69</ele>
        <time>2023-12-14T11:18:24Z</time>
      </trkpt>
      <trkpt lat="48.43073" lon="2.08218">
        <ele>69</ele>
        <time>2023-12-14T11:18:25Z</time>
      </trkpt>
      <trkpt lat="48.43073" lon="2.08209">
        <ele>69</ele>
        <time>2023-12-14T11:18:26Z</time>
      </trkpt>
      <trkpt lat="48.43073" lon="2.082">
        <ele>69</ele>
        <time>2023-12-14T11:18:27Z</time>
      </trkpt>
      <trkpt lat="48.43074" lon="2.08191">
        <ele>68.2</ele>
        <time>2023-12-14T11:18:28Z</time>
      </trkpt>
      <trkpt lat="48.43075" lon="2.08182">
        <ele>68.2</ele>
        <time>2023-12-14T11:18:29Z</time>
      </trkpt>
      <trkpt lat="48.43075" lon="2.08172">
        <ele>68.2</ele>
        <time>2023-12-14T11:18:30Z</time>
      </trkpt>
      <trkpt lat="48.43076" lon="2.08162">
        <ele>68.6</ele>
        <time>2023-12-14T11:18:31Z</time>
      </trkpt>
      <trkpt lat="48.43077" lon="2.08153">
        <ele>68.2</ele>
        <time>2023-12-14T11:18:32Z</time>
      </trkpt>
      <trkpt lat="48.43078" lon="2.08143">
        <ele>68.2</ele>
        <time>2023-12-14T11:18:33Z</time>
      </trkpt>
      <trkpt lat="48.43079" lon="2.08133">
        <ele>68.2</ele>
        <time>2023-12-14T11:18:34Z</time>
      </trkpt>
      <trkpt lat="48.4308" lon="2.08124">
        <ele>68.2</ele>
        <time>2023-12-14T11:18:35Z</time>
      </trkpt>
      <trkpt lat="48.43082" lon="2.08115">
        <ele>67.8</ele>
        <time>2023-12-14T11:18:36Z</time>
      </trkpt>
      <trkpt lat="48.43083" lon="2.08106">
        <ele>67.8</ele>
        <time>2023-12-14T11:18:37Z</time>
      </trkpt>
      <trkpt lat="48.43085" lon="2.08097">
        <ele>67.8</ele>
        <time>2023-12-14T11:18:38Z</time>
      </trkpt>
      <trkpt lat="48.43086" lon="2.08088">
        <ele>67.8</ele>
        <time>2023-12-14T11:18:39Z</time>
      </trkpt>
      <trkpt lat="48.43087" lon="2.0808">
        <ele>68.8</ele>
        <time>2023-12-14T11:18:40Z</time>
      </trkpt>
      <trkpt lat="48.43088" lon="2.08072">
        <ele>68.8</ele>
        <time>2023-12-14T11:18:41Z</time>
      </trkpt>
      <trkpt lat="48.43089" lon="2.08064">
        <ele>68.8</ele>
        <time>2023-12-14T11:18:42Z</time>
      </trkpt>
      <trkpt lat="48.43091" lon="2.08056">
        <ele>68.2</ele>
        <time>2023-12-14T11:18:43Z</time>
      </trkpt>
      <trkpt lat="48.43092" lon="2.08046">
        <ele>68.4</ele>
        <time>2023-12-14T11:18:44Z</time>
      </trkpt>
      <trkpt lat="48.43093" lon="2.08037">
        <ele>68.4</ele>
        <time>2023-12-14T11:18:45Z</time>
      </trkpt>
      <trkpt lat="48.43094" lon="2.08028">
        <ele>68.4</ele>
        <time>2023-12-14T11:18:46Z</time>
      </trkpt>
      <trkpt lat="48.43095" lon="2.08019">
        <ele>69.2</ele>
        <time>2023-12-14T11:18:47Z</time>
      </trkpt>
      <trkpt lat="48.43096" lon="2.0801">
        <ele>68.4</ele>
        <time>2023-12-14T11:18:48Z</time>
      </trkpt>
      <trkpt lat="48.43097" lon="2.08001">
        <ele>68.4</ele>
        <time>2023-12-14T11:18:49Z</time>
      </trkpt>
      <trkpt lat="48.43099" lon="2.07992">
        <ele>68.4</ele>
        <time>2023-12-14T11:18:50Z</time>
      </trkpt>
      <trkpt lat="48.431" lon="2.07983">
        <ele>68.4</ele>
        <time>2023-12-14T11:18:51Z</time>
      </trkpt>
      <trkpt lat="48.43101" lon="2.07974">
        <ele>68.4</ele>
        <time>2023-12-14T11:18:52Z</time>
      </trkpt>
      <trkpt lat="48.43103" lon="2.07966">
        <ele>68.4</ele>
        <time>2023-12-14T11:18:53Z</time>
      </trkpt>
      <trkpt lat="48.43105" lon="2.07957">
        <ele>68.4</ele>
        <time>2023-12-14T11:18:54Z</time>
      </trkpt>
      <trkpt lat="48.43106" lon="2.0795">
        <ele>68.8</ele>
        <time>2023-12-14T11:18:55Z</time>
      </trkpt>
      <trkpt lat="48.43108" lon="2.07942">
        <ele>68.4</ele>
        <time>2023-12-14T11:18:56Z</time>
      </trkpt>
      <trkpt lat="48.4311" lon="2.07934">
        <ele>68.4</ele>
        <time>2023-12-14T11:18:57Z</time>
      </trkpt>
      <trkpt lat="48.43112" lon="2.07927">
        <ele>68.4</ele>
        <time>2023-12-14T11:18:58Z</time>
      </trkpt>
      <trkpt lat="48.43115" lon="2.07922">
        <ele>68.6</ele>
        <time>2023-12-14T11:18:59Z</time>
      </trkpt>
      <trkpt lat="48.43118" lon="2.07914">
        <ele>69</ele>
        <time>2023-12-14T11:19:00Z</time>
      </trkpt>
      <trkpt lat="48.4312" lon="2.07907">
        <ele>69</ele>
        <time>2023-12-14T11:19:01Z</time>
      </trkpt>
      <trkpt lat="48.43123" lon="2.079">
        <ele>69</ele>
        <time>2023-12-14T11:19:02Z</time>
      </trkpt>
      <trkpt lat="48.43127" lon="2.07894">
        <ele>69</ele>
        <time>2023-12-14T11:19:03Z</time>
      </trkpt>
      <trkpt lat="48.43131" lon="2.07887">
        <ele>69.2</ele>
        <time>2023-12-14T11:19:04Z</time>
      </trkpt>
      <trkpt lat="48.43135" lon="2.07879">
        <ele>69.2</ele>
        <time>2023-12-14T11:19:05Z</time>
      </trkpt>
      <trkpt lat="48.43139" lon="2.07871">
        <ele>69.2</ele>
        <time>2023-12-14T11:19:06Z</time>
      </trkpt>
      <trkpt lat="48.43143" lon="2.07864">
        <ele>69.2</ele>
        <time>2023-12-14T11:19:07Z</time>
      </trkpt>
      <trkpt lat="48.43147" lon="2.07856">
        <ele>69</ele>
        <time>2023-12-14T11:19:08Z</time>
      </trkpt>
      <trkpt lat="48.43151" lon="2.07849">
        <ele>69</ele>
        <time>2023-12-14T11:19:09Z</time>
      </trkpt>
      <trkpt lat="48.43155" lon="2.07842">
        <ele>69</ele>
        <time>2023-12-14T11:19:10Z</time>
      </trkpt>
      <trkpt lat="48.43159" lon="2.07833">
        <ele>69</ele>
        <time>2023-12-14T11:19:11Z</time>
      </trkpt>
      <trkpt lat="48.43163" lon="2.07826">
        <ele>68.8</ele>
        <time>2023-12-14T11:19:12Z</time>
      </trkpt>
      <trkpt lat="48.43168" lon="2.07819">
        <ele>68.8</ele>
        <time>2023-12-14T11:19:13Z</time>
      </trkpt>
      <trkpt lat="48.43172" lon="2.07812">
        <ele>68.8</ele>
        <time>2023-12-14T11:19:14Z</time>
      </trkpt>
      <trkpt lat="48.43176" lon="2.07805">
        <ele>68.8</ele>
        <time>2023-12-14T11:19:15Z</time>
      </trkpt>
      <trkpt lat="48.43179" lon="2.07798">
        <ele>69.2</ele>
        <time>2023-12-14T11:19:16Z</time>
      </trkpt>
      <trkpt lat="48.43183" lon="2.07791">
        <ele>69.2</ele>
        <time>2023-12-14T11:19:17Z</time>
      </trkpt>
      <trkpt lat="48.43187" lon="2.07784">
        <ele>69.2</ele>
        <time>2023-12-14T11:19:18Z</time>
      </trkpt>
      <trkpt lat="48.4319" lon="2.07777">
        <ele>69</ele>
        <time>2023-12-14T11:19:19Z</time>
      </trkpt>
      <trkpt lat="48.43194" lon="2.0777">
        <ele>68.6</ele>
        <time>2023-12-14T11:19:20Z</time>
      </trkpt>
      <trkpt lat="48.43198" lon="2.07763">
        <ele>68.6</ele>
        <time>2023-12-14T11:19:21Z</time>
      </trkpt>
      <trkpt lat="48.43202" lon="2.07757">
        <ele>68.6</ele>
        <time>2023-12-14T11:19:22Z</time>
      </trkpt>
      <trkpt lat="48.43206" lon="2.0775">
        <ele>69</ele>
        <time>2023-12-14T11:19:23Z</time>
      </trkpt>
      <trkpt lat="48.4321" lon="2.07743">
        <ele>68.8</ele>
        <time>2023-12-14T11:19:24Z</time>
      </trkpt>
      <trkpt lat="48.43213" lon="2.07737">
        <ele>68.8</ele>
        <time>2023-12-14T11:19:25Z</time>
      </trkpt>
      <trkpt lat="48.43217" lon="2.0773">
        <ele>68.8</ele>
        <time>2023-12-14T11:19:26Z</time>
      </trkpt>
      <trkpt lat="48.43221" lon="2.07724">
        <ele>68.8</ele>
        <time>2023-12-14T11:19:27Z</time>
      </trkpt>
      <trkpt lat="48.43225" lon="2.07719">
        <ele>69.2</ele>
        <time>2023-12-14T11:19:28Z</time>
      </trkpt>
      <trkpt lat="48.43228" lon="2.07713">
        <ele>69.2</ele>
        <time>2023-12-14T11:19:29Z</time>
      </trkpt>
      <trkpt lat="48.43232" lon="2.07707">
        <ele>69.2</ele>
        <time>2023-12-14T11:19:30Z</time>
      </trkpt>
      <trkpt lat="48.43236" lon="2.07701">
        <ele>69.2</ele>
        <time>2023-12-14T11:19:31Z</time>
      </trkpt>
      <trkpt lat="48.43239" lon="2.07694">
        <ele>69.6</ele>
        <time>2023-12-14T11:19:32Z</time>
      </trkpt>
      <trkpt lat="48.43243" lon="2.07688">
        <ele>69.6</ele>
        <time>2023-12-14T11:19:33Z</time>
      </trkpt>
      <trkpt lat="48.43246" lon="2.07681">
        <ele>69.6</ele>
        <time>2023-12-14T11:19:34Z</time>
      </trkpt>
      <trkpt lat="48.4325" lon="2.07675">
        <ele>69.6</ele>
        <time>2023-12-14T11:19:35Z</time>
      </trkpt>
      <trkpt lat="48.43253" lon="2.07669">
        <ele>69.2</ele>
        <time>2023-12-14T11:19:36Z</time>
      </trkpt>
      <trkpt lat="48.43257" lon="2.07663">
        <ele>69.2</ele>
        <time>2023-12-14T11:19:37Z</time>
      </trkpt>
      <trkpt lat="48.43261" lon="2.07657">
        <ele>69.2</ele>
        <time>2023-12-14T11:19:38Z</time>
      </trkpt>
      <trkpt lat="48.43265" lon="2.07651">
        <ele>69</ele>
        <time>2023-12-14T11:19:39Z</time>
      </trkpt>
      <trkpt lat="48.43268" lon="2.07644">
        <ele>69</ele>
        <time>2023-12-14T11:19:40Z</time>
      </trkpt>
      <trkpt lat="48.43271" lon="2.07638">
        <ele>69</ele>
        <time>2023-12-14T11:19:41Z</time>
      </trkpt>
      <trkpt lat="48.43274" lon="2.07633">
        <ele>69</ele>
        <time>2023-12-14T11:19:42Z</time>
      </trkpt>
      <trkpt lat="48.43278" lon="2.07627">
        <ele>69.4</ele>
        <time>2023-12-14T11:19:43Z</time>
      </trkpt>
      <trkpt lat="48.43281" lon="2.07622">
        <ele>69.4</ele>
        <time>2023-12-14T11:19:44Z</time>
      </trkpt>
      <trkpt lat="48.43284" lon="2.07618">
        <ele>69.4</ele>
        <time>2023-12-14T11:19:45Z</time>
      </trkpt>
      <trkpt lat="48.43286" lon="2.07613">
        <ele>69.4</ele>
        <time>2023-12-14T11:19:46Z</time>
      </trkpt>
      <trkpt lat="48.43289" lon="2.07608">
        <ele>69.4</ele>
        <time>2023-12-14T11:19:47Z</time>
      </trkpt>
      <trkpt lat="48.43292" lon="2.07602">
        <ele>68.8</ele>
        <time>2023-12-14T11:19:48Z</time>
      </trkpt>
      <trkpt lat="48.43295" lon="2.07597">
        <ele>68.8</ele>
        <time>2023-12-14T11:19:49Z</time>
      </trkpt>
      <trkpt lat="48.43298" lon="2.07592">
        <ele>68.8</ele>
        <time>2023-12-14T11:19:50Z</time>
      </trkpt>
      <trkpt lat="48.43301" lon="2.07587">
        <ele>68.8</ele>
        <time>2023-12-14T11:19:51Z</time>
      </trkpt>
      <trkpt lat="48.43303" lon="2.07583">
        <ele>69.8</ele>
        <time>2023-12-14T11:19:52Z</time>
      </trkpt>
      <trkpt lat="48.43306" lon="2.07579">
        <ele>69.8</ele>
        <time>2023-12-14T11:19:53Z</time>
      </trkpt>
      <trkpt lat="48.43309" lon="2.07574">
        <ele>69.8</ele>
        <time>2023-12-14T11:19:54Z</time>
      </trkpt>
      <trkpt lat="48.43311" lon="2.07569">
        <ele>69.8</ele>
        <time>2023-12-14T11:19:55Z</time>
      </trkpt>
      <trkpt lat="48.43314" lon="2.07564">
        <ele>70.4</ele>
        <time>2023-12-14T11:19:56Z</time>
      </trkpt>
      <trkpt lat="48.43316" lon="2.07559">
        <ele>70.4</ele>
        <time>2023-12-14T11:19:57Z</time>
      </trkpt>
      <trkpt lat="48.43318" lon="2.07555">
        <ele>70.4</ele>
        <time>2023-12-14T11:19:58Z</time>
      </trkpt>
      <trkpt lat="48.43321" lon="2.07551">
        <ele>70.4</ele>
        <time>2023-12-14T11:19:59Z</time>
      </trkpt>
      <trkpt lat="48.43323" lon="2.07548">
        <ele>70.6</ele>
        <time>2023-12-14T11:20:00Z</time>
      </trkpt>
      <trkpt lat="48.43326" lon="2.07547">
        <ele>70.6</ele>
        <time>2023-12-14T11:20:01Z</time>
      </trkpt>
      <trkpt lat="48.43328" lon="2.07546">
        <ele>70.6</ele>
        <time>2023-12-14T11:20:02Z</time>
      </trkpt>
      <trkpt lat="48.43328" lon="2.07544">
        <ele>71.4</ele>
        <time>2023-12-14T11:20:03Z</time>
      </trkpt>
      <trkpt lat="48.43329" lon="2.07542">
        <ele>71.2</ele>
        <time>2023-12-14T11:20:04Z</time>
      </trkpt>
      <trkpt lat="48.43331" lon="2.07541">
        <ele>71.2</ele>
        <time>2023-12-14T11:20:05Z</time>
      </trkpt>
      <trkpt lat="48.43332" lon="2.07541">
        <ele>71.2</ele>
        <time>2023-12-14T11:20:06Z</time>
      </trkpt>
      <trkpt lat="48.43334" lon="2.07543">
        <ele>70.4</ele>
        <time>2023-12-14T11:20:07Z</time>
      </trkpt>
      <trkpt lat="48.43336" lon="2.07546">
        <ele>70.6</ele>
        <time>2023-12-14T11:20:08Z</time>
      </trkpt>
      <trkpt lat="48.43337" lon="2.0755">
        <ele>70.6</ele>
        <time>2023-12-14T11:20:09Z</time>
      </trkpt>
      <trkpt lat="48.43338" lon="2.07554">
        <ele>70.6</ele>
        <time>2023-12-14T11:20:10Z</time>
      </trkpt>
      <trkpt lat="48.43339" lon="2.07558">
        <ele>70.6</ele>
        <time>2023-12-14T11:20:11Z</time>
      </trkpt>
      <trkpt lat="48.4334" lon="2.07563">
        <ele>70</ele>
        <time>2023-12-14T11:20:12Z</time>
      </trkpt>
      <trkpt lat="48.43341" lon="2.07567">
        <ele>70</ele>
        <time>2023-12-14T11:20:13Z</time>
      </trkpt>
      <trkpt lat="48.43341" lon="2.07572">
        <ele>70</ele>
        <time>2023-12-14T11:20:14Z</time>
      </trkpt>
      <trkpt lat="48.43342" lon="2.07577">
        <ele>70.2</ele>
        <time>2023-12-14T11:20:15Z</time>
      </trkpt>
      <trkpt lat="48.43344" lon="2.07582">
        <ele>70.8</ele>
        <time>2023-12-14T11:20:16Z</time>
      </trkpt>
      <trkpt lat="48.43345" lon="2.07587">
        <ele>70.8</ele>
        <time>2023-12-14T11:20:17Z</time>
      </trkpt>
      <trkpt lat="48.43346" lon="2.07591">
        <ele>70.8</ele>
        <time>2023-12-14T11:20:18Z</time>
      </trkpt>
      <trkpt lat="48.43348" lon="2.07596">
        <ele>70.8</ele>
        <time>2023-12-14T11:20:19Z</time>
      </trkpt>
      <trkpt lat="48.4335" lon="2.07601">
        <ele>70.8</ele>
        <time>2023-12-14T11:20:20Z</time>
      </trkpt>
      <trkpt lat="48.43351" lon="2.07606">
        <ele>70.8</ele>
        <time>2023-12-14T11:20:21Z</time>
      </trkpt>
      <trkpt lat="48.43353" lon="2.07611">
        <ele>70.8</ele>
        <time>2023-12-14T11:20:22Z</time>
      </trkpt>
      <trkpt lat="48.43355" lon="2.07617">
        <ele>71.2</ele>
        <time>2023-12-14T11:20:23Z</time>
      </trkpt>
      <trkpt lat="48.43356" lon="2.07622">
        <ele>71.2</ele>
        <time>2023-12-14T11:20:24Z</time>
      </trkpt>
      <trkpt lat="48.43358" lon="2.07627">
        <ele>71.2</ele>
        <time>2023-12-14T11:20:25Z</time>
      </trkpt>
      <trkpt lat="48.4336" lon="2.07632">
        <ele>71.2</ele>
        <time>2023-12-14T11:20:26Z</time>
      </trkpt>
      <trkpt lat="48.43361" lon="2.07638">
        <ele>71.2</ele>
        <time>2023-12-14T11:20:27Z</time>
      </trkpt>
      <trkpt lat="48.43363" lon="2.07643">
        <ele>72</ele>
        <time>2023-12-14T11:20:28Z</time>
      </trkpt>
      <trkpt lat="48.43364" lon="2.07648">
        <ele>72</ele>
        <time>2023-12-14T11:20:29Z</time>
      </trkpt>
      <trkpt lat="48.43366" lon="2.07653">
        <ele>72</ele>
        <time>2023-12-14T11:20:30Z</time>
      </trkpt>
      <trkpt lat="48.43367" lon="2.07658">
        <ele>72</ele>
        <time>2023-12-14T11:20:31Z</time>
      </trkpt>
      <trkpt lat="48.43369" lon="2.07664">
        <ele>72.8</ele>
        <time>2023-12-14T11:20:32Z</time>
      </trkpt>
      <trkpt lat="48.43371" lon="2.07669">
        <ele>72.8</ele>
        <time>2023-12-14T11:20:33Z</time>
      </trkpt>
      <trkpt lat="48.43372" lon="2.07674">
        <ele>72.8</ele>
        <time>2023-12-14T11:20:34Z</time>
      </trkpt>
      <trkpt lat="48.43373" lon="2.07679">
        <ele>72.8</ele>
        <time>2023-12-14T11:20:35Z</time>
      </trkpt>
      <trkpt lat="48.43375" lon="2.07685">
        <ele>72.8</ele>
        <time>2023-12-14T11:20:36Z</time>
      </trkpt>
      <trkpt lat="48.43376" lon="2.0769">
        <ele>72.8</ele>
        <time>2023-12-14T11:20:37Z</time>
      </trkpt>
      <trkpt lat="48.43378" lon="2.07696">
        <ele>72.8</ele>
        <time>2023-12-14T11:20:38Z</time>
      </trkpt>
      <trkpt lat="48.4338" lon="2.07701">
        <ele>73.2</ele>
        <time>2023-12-14T11:20:39Z</time>
      </trkpt>
      <trkpt lat="48.43381" lon="2.07706">
        <ele>73.4</ele>
        <time>2023-12-14T11:20:40Z</time>
      </trkpt>
      <trkpt lat="48.43383" lon="2.07711">
        <ele>73.4</ele>
        <time>2023-12-14T11:20:41Z</time>
      </trkpt>
      <trkpt lat="48.43384" lon="2.07715">
        <ele>73.4</ele>
        <time>2023-12-14T11:20:42Z</time>
      </trkpt>
      <trkpt lat="48.43386" lon="2.0772">
        <ele>74.2</ele>
        <time>2023-12-14T11:20:43Z</time>
      </trkpt>
      <trkpt lat="48.43387" lon="2.07724">
        <ele>74.2</ele>
        <time>2023-12-14T11:20:44Z</time>
      </trkpt>
      <trkpt lat="48.43389" lon="2.07728">
        <ele>74.2</ele>
        <time>2023-12-14T11:20:45Z</time>
      </trkpt>
      <trkpt lat="48.43392" lon="2.07731">
        <ele>74.2</ele>
        <time>2023-12-14T11:20:46Z</time>
      </trkpt>
      <trkpt lat="48.43394" lon="2.07734">
        <ele>74.4</ele>
        <time>2023-12-14T11:20:47Z</time>
      </trkpt>
      <trkpt lat="48.43397" lon="2.07736">
        <ele>74.6</ele>
        <time>2023-12-14T11:20:48Z</time>
      </trkpt>
      <trkpt lat="48.43399" lon="2.07739">
        <ele>74.6</ele>
        <time>2023-12-14T11:20:49Z</time>
      </trkpt>
      <trkpt lat="48.43402" lon="2.07742">
        <ele>74.6</ele>
        <time>2023-12-14T11:20:50Z</time>
      </trkpt>
      <trkpt lat="48.43404" lon="2.07745">
        <ele>74.6</ele>
        <time>2023-12-14T11:20:51Z</time>
      </trkpt>
      <trkpt lat="48.43407" lon="2.07749">
        <ele>75</ele>
        <time>2023-12-14T11:20:52Z</time>
      </trkpt>
      <trkpt lat="48.4341" lon="2.07752">
        <ele>75</ele>
        <time>2023-12-14T11:20:53Z</time>
      </trkpt>
      <trkpt lat="48.43412" lon="2.07756">
        <ele>75</ele>
        <time>2023-12-14T11:20:54Z</time>
      </trkpt>
      <trkpt lat="48.43415" lon="2.0776">
        <ele>75</ele>
        <time>2023-12-14T11:20:55Z</time>
      </trkpt>
      <trkpt lat="48.43418" lon="2.07763">
        <ele>75.4</ele>
        <time>2023-12-14T11:20:56Z</time>
      </trkpt>
      <trkpt lat="48.43421" lon="2.07767">
        <ele>75.4</ele>
        <time>2023-12-14T11:20:57Z</time>
      </trkpt>
      <trkpt lat="48.43424" lon="2.0777">
        <ele>75.4</ele>
        <time>2023-12-14T11:20:58Z</time>
      </trkpt>
      <trkpt lat="48.43427" lon="2.07773">
        <ele>75.2</ele>
        <time>2023-12-14T11:20:59Z</time>
      </trkpt>
      <trkpt lat="48.4343" lon="2.07775">
        <ele>75.8</ele>
        <time>2023-12-14T11:21:00Z</time>
      </trkpt>
      <trkpt lat="48.43433" lon="2.07778">
        <ele>75.8</ele>
        <time>2023-12-14T11:21:01Z</time>
      </trkpt>
      <trkpt lat="48.43436" lon="2.0778">
        <ele>75.8</ele>
        <time>2023-12-14T11:21:02Z</time>
      </trkpt>
      <trkpt lat="48.43439" lon="2.07782">
        <ele>76.2</ele>
        <time>2023-12-14T11:21:03Z</time>
      </trkpt>
      <trkpt lat="48.43442" lon="2.07785">
        <ele>75.6</ele>
        <time>2023-12-14T11:21:04Z</time>
      </trkpt>
      <trkpt lat="48.43445" lon="2.07787">
        <ele>75.6</ele>
        <time>2023-12-14T11:21:05Z</time>
      </trkpt>
      <trkpt lat="48.43448" lon="2.07789">
        <ele>75.6</ele>
        <time>2023-12-14T11:21:06Z</time>
      </trkpt>
      <trkpt lat="48.43451" lon="2.07791">
        <ele>76.6</ele>
        <time>2023-12-14T11:21:07Z</time>
      </trkpt>
      <trkpt lat="48.43454" lon="2.07793">
        <ele>77.2</ele>
        <time>2023-12-14T11:21:08Z</time>
      </trkpt>
      <trkpt lat="48.43457" lon="2.07795">
        <ele>77.2</ele>
        <time>2023-12-14T11:21:09Z</time>
      </trkpt>
      <trkpt lat="48.4346" lon="2.07797">
        <ele>77.2</ele>
        <time>2023-12-14T11:21:10Z</time>
      </trkpt>
      <trkpt lat="48.43463" lon="2.07799">
        <ele>77.6</ele>
        <time>2023-12-14T11:21:11Z</time>
      </trkpt>
      <trkpt lat="48.43466" lon="2.07801">
        <ele>78</ele>
        <time>2023-12-14T11:21:12Z</time>
      </trkpt>
      <trkpt lat="48.43469" lon="2.07803">
        <ele>78</ele>
        <time>2023-12-14T11:21:13Z</time>
      </trkpt>
      <trkpt lat="48.43472" lon="2.07805">
        <ele>78</ele>
        <time>2023-12-14T11:21:14Z</time>
      </trkpt>
      <trkpt lat="48.43475" lon="2.07807">
        <ele>78</ele>
        <time>2023-12-14T11:21:15Z</time>
      </trkpt>
      <trkpt lat="48.43478" lon="2.07809">
        <ele>78.8</ele>
        <time>2023-12-14T11:21:16Z</time>
      </trkpt>
      <trkpt lat="48.43481" lon="2.07811">
        <ele>78.8</ele>
        <time>2023-12-14T11:21:17Z</time>
      </trkpt>
      <trkpt lat="48.43484" lon="2.07812">
        <ele>78.8</ele>
        <time>2023-12-14T11:21:18Z</time>
      </trkpt>
      <trkpt lat="48.43487" lon="2.07814">
        <ele>78.8</ele>
        <time>2023-12-14T11:21:19Z</time>
      </trkpt>
      <trkpt lat="48.4349" lon="2.07816">
        <ele>79</ele>
        <time>2023-12-14T11:21:20Z</time>
      </trkpt>
      <trkpt lat="48.43493" lon="2.07818">
        <ele>79</ele>
        <time>2023-12-14T11:21:21Z</time>
      </trkpt>
      <trkpt lat="48.43495" lon="2.07819">
        <ele>79</ele>
        <time>2023-12-14T11:21:22Z</time>
      </trkpt>
      <trkpt lat="48.43498" lon="2.07821">
        <ele>79.8</ele>
        <time>2023-12-14T11:21:23Z</time>
      </trkpt>
      <trkpt lat="48.43501" lon="2.07823">
        <ele>80</ele>
        <time>2023-12-14T11:21:24Z</time>
      </trkpt>
      <trkpt lat="48.43504" lon="2.07825">
        <ele>80</ele>
        <time>2023-12-14T11:21:25Z</time>
      </trkpt>
      <trkpt lat="48.43507" lon="2.07827">
        <ele>80</ele>
        <time>2023-12-14T11:21:26Z</time>
      </trkpt>
      <trkpt lat="48.4351" lon="2.07829">
        <ele>80.4</ele>
        <time>2023-12-14T11:21:27Z</time>
      </trkpt>
      <trkpt lat="48.43513" lon="2.07831">
        <ele>80</ele>
        <time>2023-12-14T11:21:28Z</time>
      </trkpt>
      <trkpt lat="48.43516" lon="2.07833">
        <ele>80</ele>
        <time>2023-12-14T11:21:29Z</time>
      </trkpt>
      <trkpt lat="48.43519" lon="2.07835">
        <ele>80</ele>
        <time>2023-12-14T11:21:30Z</time>
      </trkpt>
      <trkpt lat="48.43522" lon="2.07836">
        <ele>80.4</ele>
        <time>2023-12-14T11:21:31Z</time>
      </trkpt>
      <trkpt lat="48.43525" lon="2.07838">
        <ele>80.4</ele>
        <time>2023-12-14T11:21:32Z</time>
      </trkpt>
      <trkpt lat="48.43528" lon="2.0784">
        <ele>80.4</ele>
        <time>2023-12-14T11:21:33Z</time>
      </trkpt>
      <trkpt lat="48.43531" lon="2.07842">
        <ele>80.4</ele>
        <time>2023-12-14T11:21:34Z</time>
      </trkpt>
      <trkpt lat="48.43534" lon="2.07844">
        <ele>81.4</ele>
        <time>2023-12-14T11:21:35Z</time>
      </trkpt>
      <trkpt lat="48.43537" lon="2.07846">
        <ele>82</ele>
        <time>2023-12-14T11:21:36Z</time>
      </trkpt>
      <trkpt lat="48.4354" lon="2.07848">
        <ele>82</ele>
        <time>2023-12-14T11:21:37Z</time>
      </trkpt>
      <trkpt lat="48.43543" lon="2.07851">
        <ele>82</ele>
        <time>2023-12-14T11:21:38Z</time>
      </trkpt>
      <trkpt lat="48.43546" lon="2.07853">
        <ele>83</ele>
        <time>2023-12-14T11:21:39Z</time>
      </trkpt>
      <trkpt lat="48.43549" lon="2.07856">
        <ele>82.8</ele>
        <time>2023-12-14T11:21:40Z</time>
      </trkpt>
      <trkpt lat="48.43552" lon="2.07858">
        <ele>82.8</ele>
        <time>2023-12-14T11:21:41Z</time>
      </trkpt>
      <trkpt lat="48.43555" lon="2.07861">
        <ele>82.8</ele>
        <time>2023-12-14T11:21:42Z</time>
      </trkpt>
      <trkpt lat="48.43558" lon="2.07863">
        <ele>83.2</ele>
        <time>2023-12-14T11:21:43Z</time>
      </trkpt>
      <trkpt lat="48.4356" lon="2.07866">
        <ele>83.2</ele>
        <time>2023-12-14T11:21:44Z</time>
      </trkpt>
      <trkpt lat="48.43563" lon="2.07869">
        <ele>83.2</ele>
        <time>2023-12-14T11:21:45Z</time>
      </trkpt>
      <trkpt lat="48.43566" lon="2.07871">
        <ele>83.2</ele>
        <time>2023-12-14T11:21:46Z</time>
      </trkpt>
      <trkpt lat="48.43569" lon="2.07874">
        <ele>84</ele>
        <time>2023-12-14T11:21:47Z</time>
      </trkpt>
      <trkpt lat="48.43572" lon="2.07877">
        <ele>84.4</ele>
        <time>2023-12-14T11:21:48Z</time>
      </trkpt>
      <trkpt lat="48.43575" lon="2.0788">
        <ele>84.4</ele>
        <time>2023-12-14T11:21:49Z</time>
      </trkpt>
      <trkpt lat="48.43578" lon="2.07882">
        <ele>84.4</ele>
        <time>2023-12-14T11:21:50Z</time>
      </trkpt>
      <trkpt lat="48.43581" lon="2.07884">
        <ele>85.2</ele>
        <time>2023-12-14T11:21:51Z</time>
      </trkpt>
      <trkpt lat="48.43584" lon="2.07886">
        <ele>85.2</ele>
        <time>2023-12-14T11:21:52Z</time>
      </trkpt>
      <trkpt lat="48.43587" lon="2.07888">
        <ele>85.2</ele>
        <time>2023-12-14T11:21:53Z</time>
      </trkpt>
      <trkpt lat="48.4359" lon="2.07889">
        <ele>85.2</ele>
        <time>2023-12-14T11:21:54Z</time>
      </trkpt>
      <trkpt lat="48.43593" lon="2.07891">
        <ele>85.2</ele>
        <time>2023-12-14T11:21:55Z</time>
      </trkpt>
      <trkpt lat="48.43596" lon="2.07893">
        <ele>86</ele>
        <time>2023-12-14T11:21:56Z</time>
      </trkpt>
      <trkpt lat="48.43599" lon="2.07894">
        <ele>86</ele>
        <time>2023-12-14T11:21:57Z</time>
      </trkpt>
      <trkpt lat="48.43602" lon="2.07896">
        <ele>86</ele>
        <time>2023-12-14T11:21:58Z</time>
      </trkpt>
      <trkpt lat="48.43605" lon="2.07897">
        <ele>86.6</ele>
        <time>2023-12-14T11:21:59Z</time>
      </trkpt>
      <trkpt lat="48.43608" lon="2.07899">
        <ele>86.6</ele>
        <time>2023-12-14T11:22:00Z</time>
      </trkpt>
      <trkpt lat="48.43611" lon="2.07901">
        <ele>86.6</ele>
        <time>2023-12-14T11:22:01Z</time>
      </trkpt>
      <trkpt lat="48.43614" lon="2.07902">
        <ele>86.6</ele>
        <time>2023-12-14T11:22:02Z</time>
      </trkpt>
      <trkpt lat="48.43617" lon="2.07903">
        <ele>87.2</ele>
        <time>2023-12-14T11:22:03Z</time>
      </trkpt>
      <trkpt lat="48.43621" lon="2.07905">
        <ele>87.2</ele>
        <time>2023-12-14T11:22:04Z</time>
      </trkpt>
      <trkpt lat="48.43624" lon="2.07906">
        <ele>87.2</ele>
        <time>2023-12-14T11:22:05Z</time>
      </trkpt>
      <trkpt lat="48.43627" lon="2.07908">
        <ele>87.2</ele>
        <time>2023-12-14T11:22:06Z</time>
      </trkpt>
      <trkpt lat="48.4363" lon="2.07909">
        <ele>87.8</ele>
        <time>2023-12-14T11:22:07Z</time>
      </trkpt>
      <trkpt lat="48.43633" lon="2.07911">
        <ele>87.6</ele>
        <time>2023-12-14T11:22:08Z</time>
      </trkpt>
      <trkpt lat="48.43636" lon="2.07912">
        <ele>87.6</ele>
        <time>2023-12-14T11:22:09Z</time>
      </trkpt>
      <trkpt lat="48.43639" lon="2.07915">
        <ele>87.6</ele>
        <time>2023-12-14T11:22:10Z</time>
      </trkpt>
      <trkpt lat="48.43642" lon="2.07917">
        <ele>88.6</ele>
        <time>2023-12-14T11:22:11Z</time>
      </trkpt>
      <trkpt lat="48.43645" lon="2.07919">
        <ele>89.2</ele>
        <time>2023-12-14T11:22:12Z</time>
      </trkpt>
      <trkpt lat="48.43648" lon="2.07921">
        <ele>89.2</ele>
        <time>2023-12-14T11:22:13Z</time>
      </trkpt>
      <trkpt lat="48.43652" lon="2.07923">
        <ele>89.2</ele>
        <time>2023-12-14T11:22:14Z</time>
      </trkpt>
      <trkpt lat="48.43655" lon="2.07925">
        <ele>89.2</ele>
        <time>2023-12-14T11:22:15Z</time>
      </trkpt>
      <trkpt lat="48.43658" lon="2.07927">
        <ele>89.6</ele>
        <time>2023-12-14T11:22:16Z</time>
      </trkpt>
      <trkpt lat="48.43662" lon="2.07929">
        <ele>89.6</ele>
        <time>2023-12-14T11:22:17Z</time>
      </trkpt>
      <trkpt lat="48.43665" lon="2.07931">
        <ele>89.6</ele>
        <time>2023-12-14T11:22:18Z</time>
      </trkpt>
      <trkpt lat="48.43668" lon="2.07933">
        <ele>90.6</ele>
        <time>2023-12-14T11:22:19Z</time>
      </trkpt>
      <trkpt lat="48.43671" lon="2.07935">
        <ele>90.4</ele>
        <time>2023-12-14T11:22:20Z</time>
      </trkpt>
      <trkpt lat="48.43674" lon="2.07937">
        <ele>90.4</ele>
        <time>2023-12-14T11:22:21Z</time>
      </trkpt>
      <trkpt lat="48.43677" lon="2.0794">
        <ele>90.4</ele>
        <time>2023-12-14T11:22:22Z</time>
      </trkpt>
      <trkpt lat="48.4368" lon="2.07942">
        <ele>91.4</ele>
        <time>2023-12-14T11:22:23Z</time>
      </trkpt>
      <trkpt lat="48.43683" lon="2.07945">
        <ele>92.2</ele>
        <time>2023-12-14T11:22:24Z</time>
      </trkpt>
      <trkpt lat="48.43686" lon="2.07948">
        <ele>92.2</ele>
        <time>2023-12-14T11:22:25Z</time>
      </trkpt>
      <trkpt lat="48.43689" lon="2.0795">
        <ele>92.2</ele>
        <time>2023-12-14T11:22:26Z</time>
      </trkpt>
      <trkpt lat="48.43691" lon="2.07953">
        <ele>92.2</ele>
        <time>2023-12-14T11:22:27Z</time>
      </trkpt>
      <trkpt lat="48.43694" lon="2.07956">
        <ele>92.6</ele>
        <time>2023-12-14T11:22:28Z</time>
      </trkpt>
      <trkpt lat="48.43696" lon="2.07959">
        <ele>92.6</ele>
        <time>2023-12-14T11:22:29Z</time>
      </trkpt>
      <trkpt lat="48.43699" lon="2.07962">
        <ele>92.6</ele>
        <time>2023-12-14T11:22:30Z</time>
      </trkpt>
      <trkpt lat="48.43701" lon="2.07966">
        <ele>93</ele>
        <time>2023-12-14T11:22:31Z</time>
      </trkpt>
      <trkpt lat="48.43703" lon="2.07969">
        <ele>93.2</ele>
        <time>2023-12-14T11:22:32Z</time>
      </trkpt>
      <trkpt lat="48.43706" lon="2.07973">
        <ele>93.2</ele>
        <time>2023-12-14T11:22:33Z</time>
      </trkpt>
      <trkpt lat="48.43708" lon="2.07977">
        <ele>93.2</ele>
        <time>2023-12-14T11:22:34Z</time>
      </trkpt>
      <trkpt lat="48.4371" lon="2.07981">
        <ele>94.2</ele>
        <time>2023-12-14T11:22:35Z</time>
      </trkpt>
      <trkpt lat="48.43712" lon="2.07985">
        <ele>93.8</ele>
        <time>2023-12-14T11:22:36Z</time>
      </trkpt>
      <trkpt lat="48.43714" lon="2.07989">
        <ele>93.8</ele>
        <time>2023-12-14T11:22:37Z</time>
      </trkpt>
      <trkpt lat="48.43716" lon="2.07993">
        <ele>93.8</ele>
        <time>2023-12-14T11:22:38Z</time>
      </trkpt>
      <trkpt lat="48.43718" lon="2.07997">
        <ele>94.6</ele>
        <time>2023-12-14T11:22:39Z</time>
      </trkpt>
      <trkpt lat="48.4372" lon="2.08001">
        <ele>95.4</ele>
        <time>2023-12-14T11:22:40Z</time>
      </trkpt>
      <trkpt lat="48.43722" lon="2.08004">
        <ele>95.4</ele>
        <time>2023-12-14T11:22:41Z</time>
      </trkpt>
      <trkpt lat="48.43725" lon="2.08008">
        <ele>95.4</ele>
        <time>2023-12-14T11:22:42Z</time>
      </trkpt>
      <trkpt lat="48.43727" lon="2.08012">
        <ele>95.4</ele>
        <time>2023-12-14T11:22:43Z</time>
      </trkpt>
      <trkpt lat="48.4373" lon="2.08015">
        <ele>96</ele>
        <time>2023-12-14T11:22:44Z</time>
      </trkpt>
      <trkpt lat="48.43733" lon="2.08018">
        <ele>96</ele>
        <time>2023-12-14T11:22:45Z</time>
      </trkpt>
      <trkpt lat="48.43736" lon="2.08022">
        <ele>96</ele>
        <time>2023-12-14T11:22:46Z</time>
      </trkpt>
      <trkpt lat="48.43738" lon="2.08025">
        <ele>96</ele>
        <time>2023-12-14T11:22:47Z</time>
      </trkpt>
      <trkpt lat="48.4374" lon="2.08029">
        <ele>96.8</ele>
        <time>2023-12-14T11:22:48Z</time>
      </trkpt>
      <trkpt lat="48.43743" lon="2.08032">
        <ele>96.8</ele>
        <time>2023-12-14T11:22:49Z</time>
      </trkpt>
      <trkpt lat="48.43746" lon="2.08036">
        <ele>96.8</ele>
        <time>2023-12-14T11:22:50Z</time>
      </trkpt>
      <trkpt lat="48.43748" lon="2.08039">
        <ele>96.8</ele>
        <time>2023-12-14T11:22:51Z</time>
      </trkpt>
      <trkpt lat="48.43751" lon="2.08043">
        <ele>98</ele>
        <time>2023-12-14T11:22:52Z</time>
      </trkpt>
      <trkpt lat="48.43754" lon="2.08046">
        <ele>98</ele>
        <time>2023-12-14T11:22:53Z</time>
      </trkpt>
      <trkpt lat="48.43757" lon="2.08049">
        <ele>98</ele>
        <time>2023-12-14T11:22:54Z</time>
      </trkpt>
      <trkpt lat="48.43759" lon="2.08053">
        <ele>98.6</ele>
        <time>2023-12-14T11:22:55Z</time>
      </trkpt>
      <trkpt lat="48.43762" lon="2.08056">
        <ele>99</ele>
        <time>2023-12-14T11:22:56Z</time>
      </trkpt>
      <trkpt lat="48.43764" lon="2.0806">
        <ele>99</ele>
        <time>2023-12-14T11:22:57Z</time>
      </trkpt>
      <trkpt lat="48.43767" lon="2.08063">
        <ele>99</ele>
        <time>2023-12-14T11:22:58Z</time>
      </trkpt>
      <trkpt lat="48.43769" lon="2.08067">
        <ele>99.8</ele>
        <time>2023-12-14T11:22:59Z</time>
      </trkpt>
      <trkpt lat="48.43772" lon="2.08071">
        <ele>99.8</ele>
        <time>2023-12-14T11:23:00Z</time>
      </trkpt>
      <trkpt lat="48.43774" lon="2.08074">
        <ele>99.8</ele>
        <time>2023-12-14T11:23:01Z</time>
      </trkpt>
      <trkpt lat="48.43776" lon="2.08077">
        <ele>99.8</ele>
        <time>2023-12-14T11:23:02Z</time>
      </trkpt>
      <trkpt lat="48.43778" lon="2.0808">
        <ele>100.4</ele>
        <time>2023-12-14T11:23:03Z</time>
      </trkpt>
      <trkpt lat="48.4378" lon="2.08082">
        <ele>100.6</ele>
        <time>2023-12-14T11:23:04Z</time>
      </trkpt>
      <trkpt lat="48.43782" lon="2.08083">
        <ele>100.6</ele>
        <time>2023-12-14T11:23:05Z</time>
      </trkpt>
      <trkpt lat="48.43784" lon="2.08084">
        <ele>100.6</ele>
        <time>2023-12-14T11:23:06Z</time>
      </trkpt>
      <trkpt lat="48.43785" lon="2.08085">
        <ele>101</ele>
        <time>2023-12-14T11:23:07Z</time>
      </trkpt>
      <trkpt lat="48.43786" lon="2.08085">
        <ele>101.4</ele>
        <time>2023-12-14T11:23:08Z</time>
      </trkpt>
      <trkpt lat="48.43787" lon="2.08085">
        <ele>101.4</ele>
        <time>2023-12-14T11:23:09Z</time>
      </trkpt>
      <trkpt lat="48.43789" lon="2.08085">
        <ele>101.4</ele>
        <time>2023-12-14T11:23:10Z</time>
      </trkpt>
      <trkpt lat="48.43791" lon="2.08086">
        <ele>101.4</ele>
        <time>2023-12-14T11:23:11Z</time>
      </trkpt>
      <trkpt lat="48.43792" lon="2.08088">
        <ele>100.4</ele>
        <time>2023-12-14T11:23:12Z</time>
      </trkpt>
      <trkpt lat="48.43794" lon="2.08092">
        <ele>100.4</ele>
        <time>2023-12-14T11:23:13Z</time>
      </trkpt>
      <trkpt lat="48.43796" lon="2.08096">
        <ele>100.4</ele>
        <time>2023-12-14T11:23:14Z</time>
      </trkpt>
      <trkpt lat="48.43797" lon="2.081">
        <ele>100.4</ele>
        <time>2023-12-14T11:23:15Z</time>
      </trkpt>
      <trkpt lat="48.43799" lon="2.08105">
        <ele>101.4</ele>
        <time>2023-12-14T11:23:16Z</time>
      </trkpt>
      <trkpt lat="48.438" lon="2.0811">
        <ele>101.4</ele>
        <time>2023-12-14T11:23:17Z</time>
      </trkpt>
      <trkpt lat="48.43802" lon="2.08115">
        <ele>101.4</ele>
        <time>2023-12-14T11:23:18Z</time>
      </trkpt>
      <trkpt lat="48.43804" lon="2.08119">
        <ele>102.4</ele>
        <time>2023-12-14T11:23:19Z</time>
      </trkpt>
      <trkpt lat="48.43806" lon="2.08124">
        <ele>102.6</ele>
        <time>2023-12-14T11:23:20Z</time>
      </trkpt>
      <trkpt lat="48.43807" lon="2.08128">
        <ele>102.6</ele>
        <time>2023-12-14T11:23:21Z</time>
      </trkpt>
      <trkpt lat="48.43809" lon="2.08133">
        <ele>102.6</ele>
        <time>2023-12-14T11:23:22Z</time>
      </trkpt>
      <trkpt lat="48.4381" lon="2.08137">
        <ele>103</ele>
        <time>2023-12-14T11:23:23Z</time>
      </trkpt>
      <trkpt lat="48.43812" lon="2.08142">
        <ele>103.2</ele>
        <time>2023-12-14T11:23:24Z</time>
      </trkpt>
      <trkpt lat="48.43813" lon="2.08146">
        <ele>103.2</ele>
        <time>2023-12-14T11:23:25Z</time>
      </trkpt>
      <trkpt lat="48.43815" lon="2.08151">
        <ele>103.2</ele>
        <time>2023-12-14T11:23:26Z</time>
      </trkpt>
      <trkpt lat="48.43817" lon="2.08155">
        <ele>103.2</ele>
        <time>2023-12-14T11:23:27Z</time>
      </trkpt>
      <trkpt lat="48.43819" lon="2.08159">
        <ele>103.6</ele>
        <time>2023-12-14T11:23:28Z</time>
      </trkpt>
      <trkpt lat="48.4382" lon="2.08163">
        <ele>103.6</ele>
        <time>2023-12-14T11:23:29Z</time>
      </trkpt>
      <trkpt lat="48.43822" lon="2.08167">
        <ele>103.6</ele>
        <time>2023-12-14T11:23:30Z</time>
      </trkpt>
      <trkpt lat="48.43824" lon="2.08171">
        <ele>104.6</ele>
        <time>2023-12-14T11:23:31Z</time>
      </trkpt>
      <trkpt lat="48.43825" lon="2.08176">
        <ele>104.8</ele>
        <time>2023-12-14T11:23:32Z</time>
      </trkpt>
      <trkpt lat="48.43827" lon="2.0818">
        <ele>104.8</ele>
        <time>2023-12-14T11:23:33Z</time>
      </trkpt>
      <trkpt lat="48.43829" lon="2.08184">
        <ele>104.8</ele>
        <time>2023-12-14T11:23:34Z</time>
      </trkpt>
      <trkpt lat="48.4383" lon="2.08189">
        <ele>104.8</ele>
        <time>2023-12-14T11:23:35Z</time>
      </trkpt>
      <trkpt lat="48.43832" lon="2.08193">
        <ele>104.6</ele>
        <time>2023-12-14T11:23:36Z</time>
      </trkpt>
      <trkpt lat="48.43834" lon="2.08197">
        <ele>104.6</ele>
        <time>2023-12-14T11:23:37Z</time>
      </trkpt>
      <trkpt lat="48.43835" lon="2.08201">
        <ele>104.6</ele>
        <time>2023-12-14T11:23:38Z</time>
      </trkpt>
      <trkpt lat="48.43837" lon="2.08205">
        <ele>105.6</ele>
        <time>2023-12-14T11:23:39Z</time>
      </trkpt>
      <trkpt lat="48.43839" lon="2.08209">
        <ele>105.6</ele>
        <time>2023-12-14T11:23:40Z</time>
      </trkpt>
      <trkpt lat="48.43841" lon="2.08214">
        <ele>105.6</ele>
        <time>2023-12-14T11:23:41Z</time>
      </trkpt>
      <trkpt lat="48.43843" lon="2.08218">
        <ele>105.6</ele>
        <time>2023-12-14T11:23:42Z</time>
      </trkpt>
      <trkpt lat="48.43845" lon="2.08222">
        <ele>105.6</ele>
        <time>2023-12-14T11:23:43Z</time>
      </trkpt>
      <trkpt lat="48.43847" lon="2.08226">
        <ele>106</ele>
        <time>2023-12-14T11:23:44Z</time>
      </trkpt>
      <trkpt lat="48.43848" lon="2.0823">
        <ele>106</ele>
        <time>2023-12-14T11:23:45Z</time>
      </trkpt>
      <trkpt lat="48.4385" lon="2.08235">
        <ele>106</ele>
        <time>2023-12-14T11:23:46Z</time>
      </trkpt>
      <trkpt lat="48.43851" lon="2.08239">
        <ele>106</ele>
        <time>2023-12-14T11:23:47Z</time>
      </trkpt>
      <trkpt lat="48.43853" lon="2.08243">
        <ele>106.2</ele>
        <time>2023-12-14T11:23:48Z</time>
      </trkpt>
      <trkpt lat="48.43855" lon="2.08247">
        <ele>106.2</ele>
        <time>2023-12-14T11:23:49Z</time>
      </trkpt>
      <trkpt lat="48.43857" lon="2.08251">
        <ele>106.2</ele>
        <time>2023-12-14T11:23:50Z</time>
      </trkpt>
      <trkpt lat="48.43859" lon="2.08256">
        <ele>107</ele>
        <time>2023-12-14T11:23:51Z</time>
      </trkpt>
      <trkpt lat="48.4386" lon="2.0826">
        <ele>107.2</ele>
        <time>2023-12-14T11:23:52Z</time>
      </trkpt>
      <trkpt lat="48.43863" lon="2.08264">
        <ele>107.2</ele>
        <time>2023-12-14T11:23:53Z</time>
      </trkpt>
      <trkpt lat="48.43865" lon="2.08267">
        <ele>107.2</ele>
        <time>2023-12-14T11:23:54Z</time>
      </trkpt>
      <trkpt lat="48.43867" lon="2.08271">
        <ele>107</ele>
        <time>2023-12-14T11:23:55Z</time>
      </trkpt>
      <trkpt lat="48.4387" lon="2.08274">
        <ele>107.4</ele>
        <time>2023-12-14T11:23:56Z</time>
      </trkpt>
      <trkpt lat="48.43872" lon="2.08278">
        <ele>107.4</ele>
        <time>2023-12-14T11:23:57Z</time>
      </trkpt>
      <trkpt lat="48.43874" lon="2.08281">
        <ele>107.4</ele>
        <time>2023-12-14T11:23:58Z</time>
      </trkpt>
      <trkpt lat="48.43877" lon="2.08285">
        <ele>108.4</ele>
        <time>2023-12-14T11:23:59Z</time>
      </trkpt>
      <trkpt lat="48.4388" lon="2.08288">
        <ele>108.6</ele>
        <time>2023-12-14T11:24:00Z</time>
      </trkpt>
      <trkpt lat="48.43882" lon="2.08291">
        <ele>108.6</ele>
        <time>2023-12-14T11:24:01Z</time>
      </trkpt>
      <trkpt lat="48.43885" lon="2.08294">
        <ele>108.6</ele>
        <time>2023-12-14T11:24:02Z</time>
      </trkpt>
      <trkpt lat="48.43888" lon="2.08297">
        <ele>108.6</ele>
        <time>2023-12-14T11:24:03Z</time>
      </trkpt>
      <trkpt lat="48.43891" lon="2.083">
        <ele>109</ele>
        <time>2023-12-14T11:24:04Z</time>
      </trkpt>
      <trkpt lat="48.43894" lon="2.08303">
        <ele>109</ele>
        <time>2023-12-14T11:24:05Z</time>
      </trkpt>
      <trkpt lat="48.43897" lon="2.08306">
        <ele>109</ele>
        <time>2023-12-14T11:24:06Z</time>
      </trkpt>
      <trkpt lat="48.439" lon="2.08309">
        <ele>109.6</ele>
        <time>2023-12-14T11:24:07Z</time>
      </trkpt>
      <trkpt lat="48.43902" lon="2.08311">
        <ele>109.8</ele>
        <time>2023-12-14T11:24:08Z</time>
      </trkpt>
      <trkpt lat="48.43905" lon="2.08314">
        <ele>109.8</ele>
        <time>2023-12-14T11:24:09Z</time>
      </trkpt>
      <trkpt lat="48.43908" lon="2.08316">
        <ele>109.8</ele>
        <time>2023-12-14T11:24:10Z</time>
      </trkpt>
      <trkpt lat="48.43911" lon="2.08319">
        <ele>109.8</ele>
        <time>2023-12-14T11:24:11Z</time>
      </trkpt>
      <trkpt lat="48.43914" lon="2.08321">
        <ele>110.6</ele>
        <time>2023-12-14T11:24:12Z</time>
      </trkpt>
      <trkpt lat="48.43917" lon="2.08324">
        <ele>110.6</ele>
        <time>2023-12-14T11:24:13Z</time>
      </trkpt>
      <trkpt lat="48.4392" lon="2.08326">
        <ele>110.6</ele>
        <time>2023-12-14T11:24:14Z</time>
      </trkpt>
      <trkpt lat="48.43923" lon="2.08328">
        <ele>110.6</ele>
        <time>2023-12-14T11:24:15Z</time>
      </trkpt>
      <trkpt lat="48.43926" lon="2.08331">
        <ele>111.6</ele>
        <time>2023-12-14T11:24:16Z</time>
      </trkpt>
      <trkpt lat="48.43929" lon="2.08334">
        <ele>111.6</ele>
        <time>2023-12-14T11:24:17Z</time>
      </trkpt>
      <trkpt lat="48.43932" lon="2.08336">
        <ele>111.6</ele>
        <time>2023-12-14T11:24:18Z</time>
      </trkpt>
      <trkpt lat="48.43934" lon="2.08339">
        <ele>112.6</ele>
        <time>2023-12-14T11:24:19Z</time>
      </trkpt>
      <trkpt lat="48.43937" lon="2.08342">
        <ele>113.2</ele>
        <time>2023-12-14T11:24:20Z</time>
      </trkpt>
      <trkpt lat="48.4394" lon="2.08345">
        <ele>113.2</ele>
        <time>2023-12-14T11:24:21Z</time>
      </trkpt>
      <trkpt lat="48.43943" lon="2.08348">
        <ele>113.2</ele>
        <time>2023-12-14T11:24:22Z</time>
      </trkpt>
      <trkpt lat="48.43946" lon="2.08351">
        <ele>113.2</ele>
        <time>2023-12-14T11:24:23Z</time>
      </trkpt>
      <trkpt lat="48.43949" lon="2.08355">
        <ele>113.4</ele>
        <time>2023-12-14T11:24:24Z</time>
      </trkpt>
      <trkpt lat="48.43951" lon="2.08358">
        <ele>113.4</ele>
        <time>2023-12-14T11:24:25Z</time>
      </trkpt>
      <trkpt lat="48.43954" lon="2.08361">
        <ele>113.4</ele>
        <time>2023-12-14T11:24:26Z</time>
      </trkpt>
      <trkpt lat="48.43957" lon="2.08365">
        <ele>114.2</ele>
        <time>2023-12-14T11:24:27Z</time>
      </trkpt>
      <trkpt lat="48.43959" lon="2.08369">
        <ele>114.2</ele>
        <time>2023-12-14T11:24:28Z</time>
      </trkpt>
      <trkpt lat="48.43962" lon="2.08372">
        <ele>114.2</ele>
        <time>2023-12-14T11:24:29Z</time>
      </trkpt>
      <trkpt lat="48.43965" lon="2.08376">
        <ele>114.2</ele>
        <time>2023-12-14T11:24:30Z</time>
      </trkpt>
      <trkpt lat="48.43967" lon="2.0838">
        <ele>115.2</ele>
        <time>2023-12-14T11:24:31Z</time>
      </trkpt>
      <trkpt lat="48.4397" lon="2.08384">
        <ele>116.4</ele>
        <time>2023-12-14T11:24:32Z</time>
      </trkpt>
      <trkpt lat="48.43972" lon="2.08388">
        <ele>116.4</ele>
        <time>2023-12-14T11:24:33Z</time>
      </trkpt>
      <trkpt lat="48.43975" lon="2.08391">
        <ele>116.4</ele>
        <time>2023-12-14T11:24:34Z</time>
      </trkpt>
      <trkpt lat="48.43978" lon="2.08395">
        <ele>116.4</ele>
        <time>2023-12-14T11:24:35Z</time>
      </trkpt>
      <trkpt lat="48.4398" lon="2.08399">
        <ele>116.8</ele>
        <time>2023-12-14T11:24:36Z</time>
      </trkpt>
      <trkpt lat="48.43983" lon="2.08403">
        <ele>116.8</ele>
        <time>2023-12-14T11:24:37Z</time>
      </trkpt>
      <trkpt lat="48.43986" lon="2.08407">
        <ele>116.8</ele>
        <time>2023-12-14T11:24:38Z</time>
      </trkpt>
      <trkpt lat="48.43988" lon="2.0841">
        <ele>117.8</ele>
        <time>2023-12-14T11:24:39Z</time>
      </trkpt>
      <trkpt lat="48.43991" lon="2.08414">
        <ele>118.2</ele>
        <time>2023-12-14T11:24:40Z</time>
      </trkpt>
      <trkpt lat="48.43993" lon="2.08418">
        <ele>118.2</ele>
        <time>2023-12-14T11:24:41Z</time>
      </trkpt>
      <trkpt lat="48.43996" lon="2.08422">
        <ele>118.2</ele>
        <time>2023-12-14T11:24:42Z</time>
      </trkpt>
      <trkpt lat="48.43999" lon="2.08425">
        <ele>118.2</ele>
        <time>2023-12-14T11:24:43Z</time>
      </trkpt>
      <trkpt lat="48.44001" lon="2.08429">
        <ele>118.8</ele>
        <time>2023-12-14T11:24:44Z</time>
      </trkpt>
      <trkpt lat="48.44004" lon="2.08433">
        <ele>118.8</ele>
        <time>2023-12-14T11:24:45Z</time>
      </trkpt>
      <trkpt lat="48.44007" lon="2.08437">
        <ele>118.8</ele>
        <time>2023-12-14T11:24:46Z</time>
      </trkpt>
      <trkpt lat="48.4401" lon="2.0844">
        <ele>119.2</ele>
        <time>2023-12-14T11:24:47Z</time>
      </trkpt>
      <trkpt lat="48.44012" lon="2.08444">
        <ele>119.2</ele>
        <time>2023-12-14T11:24:48Z</time>
      </trkpt>
      <trkpt lat="48.44015" lon="2.08448">
        <ele>119.2</ele>
        <time>2023-12-14T11:24:49Z</time>
      </trkpt>
      <trkpt lat="48.44018" lon="2.08451">
        <ele>119.2</ele>
        <time>2023-12-14T11:24:50Z</time>
      </trkpt>
      <trkpt lat="48.44021" lon="2.08454">
        <ele>119.8</ele>
        <time>2023-12-14T11:24:51Z</time>
      </trkpt>
      <trkpt lat="48.44024" lon="2.08457">
        <ele>120.4</ele>
        <time>2023-12-14T11:24:52Z</time>
      </trkpt>
      <trkpt lat="48.44027" lon="2.0846">
        <ele>120.4</ele>
        <time>2023-12-14T11:24:53Z</time>
      </trkpt>
      <trkpt lat="48.4403" lon="2.08463">
        <ele>120.4</ele>
        <time>2023-12-14T11:24:54Z</time>
      </trkpt>
      <trkpt lat="48.44033" lon="2.08466">
        <ele>121.2</ele>
        <time>2023-12-14T11:24:55Z</time>
      </trkpt>
      <trkpt lat="48.44036" lon="2.08468">
        <ele>121.2</ele>
        <time>2023-12-14T11:24:56Z</time>
      </trkpt>
      <trkpt lat="48.44039" lon="2.08471">
        <ele>121.2</ele>
        <time>2023-12-14T11:24:57Z</time>
      </trkpt>
      <trkpt lat="48.44042" lon="2.08473">
        <ele>121.2</ele>
        <time>2023-12-14T11:24:58Z</time>
      </trkpt>
      <trkpt lat="48.44046" lon="2.08475">
        <ele>122.2</ele>
        <time>2023-12-14T11:24:59Z</time>
      </trkpt>
      <trkpt lat="48.44049" lon="2.08477">
        <ele>122.2</ele>
        <time>2023-12-14T11:25:00Z</time>
      </trkpt>
      <trkpt lat="48.44052" lon="2.08479">
        <ele>122.2</ele>
        <time>2023-12-14T11:25:01Z</time>
      </trkpt>
      <trkpt lat="48.44054" lon="2.08481">
        <ele>122.2</ele>
        <time>2023-12-14T11:25:02Z</time>
      </trkpt>
      <trkpt lat="48.44057" lon="2.08483">
        <ele>122.2</ele>
        <time>2023-12-14T11:25:03Z</time>
      </trkpt>
      <trkpt lat="48.4406" lon="2.08485">
        <ele>123.2</ele>
        <time>2023-12-14T11:25:04Z</time>
      </trkpt>
      <trkpt lat="48.44063" lon="2.08487">
        <ele>123.2</ele>
        <time>2023-12-14T11:25:05Z</time>
      </trkpt>
      <trkpt lat="48.44067" lon="2.08489">
        <ele>123.2</ele>
        <time>2023-12-14T11:25:06Z</time>
      </trkpt>
      <trkpt lat="48.4407" lon="2.08491">
        <ele>124</ele>
        <time>2023-12-14T11:25:07Z</time>
      </trkpt>
      <trkpt lat="48.44073" lon="2.08493">
        <ele>124.2</ele>
        <time>2023-12-14T11:25:08Z</time>
      </trkpt>
      <trkpt lat="48.44077" lon="2.08495">
        <ele>124.2</ele>
        <time>2023-12-14T11:25:09Z</time>
      </trkpt>
      <trkpt lat="48.4408" lon="2.08497">
        <ele>124.2</ele>
        <time>2023-12-14T11:25:10Z</time>
      </trkpt>
      <trkpt lat="48.44084" lon="2.08498">
        <ele>125.2</ele>
        <time>2023-12-14T11:25:11Z</time>
      </trkpt>
      <trkpt lat="48.44087" lon="2.085">
        <ele>125.8</ele>
        <time>2023-12-14T11:25:12Z</time>
      </trkpt>
      <trkpt lat="48.44091" lon="2.08501">
        <ele>125.8</ele>
        <time>2023-12-14T11:25:13Z</time>
      </trkpt>
      <trkpt lat="48.44094" lon="2.08503">
        <ele>125.8</ele>
        <time>2023-12-14T11:25:14Z</time>
      </trkpt>
      <trkpt lat="48.44097" lon="2.08505">
        <ele>126.4</ele>
        <time>2023-12-14T11:25:15Z</time>
      </trkpt>
      <trkpt lat="48.441" lon="2.08507">
        <ele>126.6</ele>
        <time>2023-12-14T11:25:16Z</time>
      </trkpt>
      <trkpt lat="48.44104" lon="2.08509">
        <ele>126.6</ele>
        <time>2023-12-14T11:25:17Z</time>
      </trkpt>
      <trkpt lat="48.44107" lon="2.08511">
        <ele>126.6</ele>
        <time>2023-12-14T11:25:18Z</time>
      </trkpt>
      <trkpt lat="48.4411" lon="2.08513">
        <ele>127.4</ele>
        <time>2023-12-14T11:25:19Z</time>
      </trkpt>
      <trkpt lat="48.44114" lon="2.08515">
        <ele>127.4</ele>
        <time>2023-12-14T11:25:20Z</time>
      </trkpt>
      <trkpt lat="48.44117" lon="2.08517">
        <ele>127.4</ele>
        <time>2023-12-14T11:25:21Z</time>
      </trkpt>
      <trkpt lat="48.44121" lon="2.08518">
        <ele>127.4</ele>
        <time>2023-12-14T11:25:22Z</time>
      </trkpt>
      <trkpt lat="48.44124" lon="2.0852">
        <ele>128.4</ele>
        <time>2023-12-14T11:25:23Z</time>
      </trkpt>
      <trkpt lat="48.44127" lon="2.08522">
        <ele>128.2</ele>
        <time>2023-12-14T11:25:24Z</time>
      </trkpt>
      <trkpt lat="48.4413" lon="2.08524">
        <ele>128.2</ele>
        <time>2023-12-14T11:25:25Z</time>
      </trkpt>
      <trkpt lat="48.44133" lon="2.08526">
        <ele>128.2</ele>
        <time>2023-12-14T11:25:26Z</time>
      </trkpt>
      <trkpt lat="48.44136" lon="2.08528">
        <ele>129</ele>
        <time>2023-12-14T11:25:27Z</time>
      </trkpt>
      <trkpt lat="48.44139" lon="2.0853">
        <ele>129.2</ele>
        <time>2023-12-14T11:25:28Z</time>
      </trkpt>
      <trkpt lat="48.44141" lon="2.08532">
        <ele>129.2</ele>
        <time>2023-12-14T11:25:29Z</time>
      </trkpt>
      <trkpt lat="48.44144" lon="2.08535">
        <ele>129.2</ele>
        <time>2023-12-14T11:25:30Z</time>
      </trkpt>
      <trkpt lat="48.44147" lon="2.08536">
        <ele>129.8</ele>
        <time>2023-12-14T11:25:31Z</time>
      </trkpt>
      <trkpt lat="48.44149" lon="2.08538">
        <ele>129.8</ele>
        <time>2023-12-14T11:25:32Z</time>
      </trkpt>
      <trkpt lat="48.44152" lon="2.0854">
        <ele>129.8</ele>
        <time>2023-12-14T11:25:33Z</time>
      </trkpt>
      <trkpt lat="48.44154" lon="2.08543">
        <ele>129.8</ele>
        <time>2023-12-14T11:25:34Z</time>
      </trkpt>
      <trkpt lat="48.44157" lon="2.08545">
        <ele>129.8</ele>
        <time>2023-12-14T11:25:35Z</time>
      </trkpt>
      <trkpt lat="48.4416" lon="2.08548">
        <ele>130.4</ele>
        <time>2023-12-14T11:25:36Z</time>
      </trkpt>
      <trkpt lat="48.44162" lon="2.08551">
        <ele>130.4</ele>
        <time>2023-12-14T11:25:37Z</time>
      </trkpt>
      <trkpt lat="48.44165" lon="2.08554">
        <ele>130.4</ele>
        <time>2023-12-14T11:25:38Z</time>
      </trkpt>
      <trkpt lat="48.44167" lon="2.08557">
        <ele>130.4</ele>
        <time>2023-12-14T11:25:39Z</time>
      </trkpt>
      <trkpt lat="48.4417" lon="2.08561">
        <ele>130.6</ele>
        <time>2023-12-14T11:25:40Z</time>
      </trkpt>
      <trkpt lat="48.44172" lon="2.08564">
        <ele>130.6</ele>
        <time>2023-12-14T11:25:41Z</time>
      </trkpt>
      <trkpt lat="48.44174" lon="2.08568">
        <ele>130.6</ele>
        <time>2023-12-14T11:25:42Z</time>
      </trkpt>
      <trkpt lat="48.44177" lon="2.08573">
        <ele>130.6</ele>
        <time>2023-12-14T11:25:43Z</time>
      </trkpt>
      <trkpt lat="48.44178" lon="2.08578">
        <ele>130.6</ele>
        <time>2023-12-14T11:25:44Z</time>
      </trkpt>
      <trkpt lat="48.44179" lon="2.08583">
        <ele>130.6</ele>
        <time>2023-12-14T11:25:45Z</time>
      </trkpt>
      <trkpt lat="48.4418" lon="2.08587">
        <ele>130.6</ele>
        <time>2023-12-14T11:25:46Z</time>
      </trkpt>
      <trkpt lat="48.44181" lon="2.08592">
        <ele>130.6</ele>
        <time>2023-12-14T11:25:47Z</time>
      </trkpt>
      <trkpt lat="48.44182" lon="2.08596">
        <ele>130.8</ele>
        <time>2023-12-14T11:25:48Z</time>
      </trkpt>
      <trkpt lat="48.44183" lon="2.086">
        <ele>130.8</ele>
        <time>2023-12-14T11:25:49Z</time>
      </trkpt>
      <trkpt lat="48.44183" lon="2.08604">
        <ele>130.8</ele>
        <time>2023-12-14T11:25:50Z</time>
      </trkpt>
      <trkpt lat="48.44183" lon="2.08607">
        <ele>131</ele>
        <time>2023-12-14T11:25:51Z</time>
      </trkpt>
      <trkpt lat="48.44183" lon="2.08611">
        <ele>131.2</ele>
        <time>2023-12-14T11:25:52Z</time>
      </trkpt>
      <trkpt lat="48.44184" lon="2.08613">
        <ele>131.2</ele>
        <time>2023-12-14T11:25:53Z</time>
      </trkpt>
      <trkpt lat="48.44185" lon="2.08613">
        <ele>131.2</ele>
        <time>2023-12-14T11:25:54Z</time>
      </trkpt>
      <trkpt lat="48.44186" lon="2.08613">
        <ele>131.2</ele>
        <time>2023-12-14T11:25:55Z</time>
      </trkpt>
      <trkpt lat="48.44186" lon="2.08613">
        <ele>130.6</ele>
        <time>2023-12-14T11:25:56Z</time>
      </trkpt>
      <trkpt lat="48.44188" lon="2.08607">
        <ele>130.2</ele>
        <time>2023-12-14T11:27:07Z</time>
      </trkpt>
      <trkpt lat="48.44187" lon="2.08603">
        <ele>130</ele>
        <time>2023-12-14T11:27:08Z</time>
      </trkpt>
      <trkpt lat="48.44186" lon="2.08598">
        <ele>130</ele>
        <time>2023-12-14T11:27:09Z</time>
      </trkpt>
      <trkpt lat="48.44185" lon="2.08593">
        <ele>130</ele>
        <time>2023-12-14T11:27:10Z</time>
      </trkpt>
      <trkpt lat="48.44184" lon="2.08588">
        <ele>129.4</ele>
        <time>2023-12-14T11:27:11Z</time>
      </trkpt>
      <trkpt lat="48.44183" lon="2.08583">
        <ele>129.4</ele>
        <time>2023-12-14T11:27:12Z</time>
      </trkpt>
      <trkpt lat="48.44182" lon="2.08579">
        <ele>129.4</ele>
        <time>2023-12-14T11:27:13Z</time>
      </trkpt>
      <trkpt lat="48.44181" lon="2.08574">
        <ele>129.4</ele>
        <time>2023-12-14T11:27:14Z</time>
      </trkpt>
      <trkpt lat="48.44179" lon="2.0857">
        <ele>130.2</ele>
        <time>2023-12-14T11:27:15Z</time>
      </trkpt>
      <trkpt lat="48.44176" lon="2.08566">
        <ele>130.2</ele>
        <time>2023-12-14T11:27:16Z</time>
      </trkpt>
      <trkpt lat="48.44174" lon="2.08563">
        <ele>130.2</ele>
        <time>2023-12-14T11:27:17Z</time>
      </trkpt>
      <trkpt lat="48.44171" lon="2.08559">
        <ele>130.2</ele>
        <time>2023-12-14T11:27:18Z</time>
      </trkpt>
      <trkpt lat="48.44169" lon="2.08554">
        <ele>129.2</ele>
        <time>2023-12-14T11:27:19Z</time>
      </trkpt>
      <trkpt lat="48.44169" lon="2.08549">
        <ele>127.8</ele>
        <time>2023-12-14T11:27:20Z</time>
      </trkpt>
      <trkpt lat="48.4417" lon="2.08543">
        <ele>127.8</ele>
        <time>2023-12-14T11:27:21Z</time>
      </trkpt>
      <trkpt lat="48.44171" lon="2.08538">
        <ele>127.8</ele>
        <time>2023-12-14T11:27:22Z</time>
      </trkpt>
      <trkpt lat="48.44171" lon="2.08532">
        <ele>126.8</ele>
        <time>2023-12-14T11:27:23Z</time>
      </trkpt>
      <trkpt lat="48.44172" lon="2.08525">
        <ele>126.2</ele>
        <time>2023-12-14T11:27:24Z</time>
      </trkpt>
      <trkpt lat="48.44172" lon="2.08518">
        <ele>126.2</ele>
        <time>2023-12-14T11:27:25Z</time>
      </trkpt>
      <trkpt lat="48.44172" lon="2.0851">
        <ele>126.2</ele>
        <time>2023-12-14T11:27:26Z</time>
      </trkpt>
      <trkpt lat="48.44172" lon="2.08503">
        <ele>126.2</ele>
        <time>2023-12-14T11:27:27Z</time>
      </trkpt>
      <trkpt lat="48.44172" lon="2.08495">
        <ele>126.8</ele>
        <time>2023-12-14T11:27:28Z</time>
      </trkpt>
      <trkpt lat="48.44171" lon="2.08488">
        <ele>126.8</ele>
        <time>2023-12-14T11:27:29Z</time>
      </trkpt>
      <trkpt lat="48.44171" lon="2.0848">
        <ele>126.8</ele>
        <time>2023-12-14T11:27:30Z</time>
      </trkpt>
      <trkpt lat="48.44171" lon="2.08472">
        <ele>126</ele>
        <time>2023-12-14T11:27:31Z</time>
      </trkpt>
      <trkpt lat="48.44171" lon="2.08464">
        <ele>126.6</ele>
        <time>2023-12-14T11:27:32Z</time>
      </trkpt>
      <trkpt lat="48.44171" lon="2.08457">
        <ele>126.6</ele>
        <time>2023-12-14T11:27:33Z</time>
      </trkpt>
      <trkpt lat="48.44171" lon="2.08448">
        <ele>126.6</ele>
        <time>2023-12-14T11:27:34Z</time>
      </trkpt>
      <trkpt lat="48.44171" lon="2.0844">
        <ele>126.6</ele>
        <time>2023-12-14T11:27:35Z</time>
      </trkpt>
      <trkpt lat="48.44171" lon="2.08432">
        <ele>126.2</ele>
        <time>2023-12-14T11:27:36Z</time>
      </trkpt>
      <trkpt lat="48.44171" lon="2.08424">
        <ele>126.2</ele>
        <time>2023-12-14T11:27:37Z</time>
      </trkpt>
      <trkpt lat="48.44171" lon="2.08417">
        <ele>126.2</ele>
        <time>2023-12-14T11:27:38Z</time>
      </trkpt>
      <trkpt lat="48.44171" lon="2.08409">
        <ele>126.6</ele>
        <time>2023-12-14T11:27:39Z</time>
      </trkpt>
      <trkpt lat="48.44171" lon="2.08401">
        <ele>126</ele>
        <time>2023-12-14T11:27:40Z</time>
      </trkpt>
      <trkpt lat="48.44171" lon="2.08394">
        <ele>126</ele>
        <time>2023-12-14T11:27:41Z</time>
      </trkpt>
      <trkpt lat="48.44171" lon="2.08386">
        <ele>126</ele>
        <time>2023-12-14T11:27:42Z</time>
      </trkpt>
      <trkpt lat="48.44171" lon="2.08379">
        <ele>126.6</ele>
        <time>2023-12-14T11:27:43Z</time>
      </trkpt>
      <trkpt lat="48.44171" lon="2.08372">
        <ele>126.2</ele>
        <time>2023-12-14T11:27:44Z</time>
      </trkpt>
      <trkpt lat="48.44171" lon="2.08365">
        <ele>126.2</ele>
        <time>2023-12-14T11:27:45Z</time>
      </trkpt>
      <trkpt lat="48.44171" lon="2.08358">
        <ele>126.2</ele>
        <time>2023-12-14T11:27:46Z</time>
      </trkpt>
      <trkpt lat="48.4417" lon="2.08351">
        <ele>126.6</ele>
        <time>2023-12-14T11:27:47Z</time>
      </trkpt>
      <trkpt lat="48.4417" lon="2.08344">
        <ele>127.4</ele>
        <time>2023-12-14T11:27:48Z</time>
      </trkpt>
      <trkpt lat="48.4417" lon="2.08337">
        <ele>127.4</ele>
        <time>2023-12-14T11:27:49Z</time>
      </trkpt>
      <trkpt lat="48.4417" lon="2.08329">
        <ele>127.4</ele>
        <time>2023-12-14T11:27:50Z</time>
      </trkpt>
      <trkpt lat="48.44169" lon="2.08322">
        <ele>127.4</ele>
        <time>2023-12-14T11:27:51Z</time>
      </trkpt>
      <trkpt lat="48.44169" lon="2.08314">
        <ele>127.6</ele>
        <time>2023-12-14T11:27:52Z</time>
      </trkpt>
      <trkpt lat="48.44169" lon="2.08307">
        <ele>127.6</ele>
        <time>2023-12-14T11:27:53Z</time>
      </trkpt>
      <trkpt lat="48.44168" lon="2.08299">
        <ele>127.6</ele>
        <time>2023-12-14T11:27:54Z</time>
      </trkpt>
      <trkpt lat="48.44168" lon="2.08291">
        <ele>127.6</ele>
        <time>2023-12-14T11:27:55Z</time>
      </trkpt>
      <trkpt lat="48.44167" lon="2.08284">
        <ele>128</ele>
        <time>2023-12-14T11:27:56Z</time>
      </trkpt>
      <trkpt lat="48.44167" lon="2.08276">
        <ele>128</ele>
        <time>2023-12-14T11:27:57Z</time>
      </trkpt>
      <trkpt lat="48.44166" lon="2.08268">
        <ele>128</ele>
        <time>2023-12-14T11:27:58Z</time>
      </trkpt>
      <trkpt lat="48.44165" lon="2.0826">
        <ele>128</ele>
        <time>2023-12-14T11:27:59Z</time>
      </trkpt>
      <trkpt lat="48.44164" lon="2.08252">
        <ele>127.2</ele>
        <time>2023-12-14T11:28:00Z</time>
      </trkpt>
      <trkpt lat="48.44163" lon="2.08244">
        <ele>127.2</ele>
        <time>2023-12-14T11:28:01Z</time>
      </trkpt>
      <trkpt lat="48.44162" lon="2.08235">
        <ele>127.2</ele>
        <time>2023-12-14T11:28:02Z</time>
      </trkpt>
      <trkpt lat="48.44161" lon="2.08227">
        <ele>127.2</ele>
        <time>2023-12-14T11:28:03Z</time>
      </trkpt>
      <trkpt lat="48.4416" lon="2.08219">
        <ele>127.2</ele>
        <time>2023-12-14T11:28:04Z</time>
      </trkpt>
      <trkpt lat="48.44158" lon="2.0821">
        <ele>127.2</ele>
        <time>2023-12-14T11:28:05Z</time>
      </trkpt>
      <trkpt lat="48.44157" lon="2.08202">
        <ele>127.2</ele>
        <time>2023-12-14T11:28:06Z</time>
      </trkpt>
      <trkpt lat="48.44155" lon="2.08193">
        <ele>127.2</ele>
        <time>2023-12-14T11:28:07Z</time>
      </trkpt>
      <trkpt lat="48.44154" lon="2.08185">
        <ele>126.6</ele>
        <time>2023-12-14T11:28:08Z</time>
      </trkpt>
      <trkpt lat="48.44152" lon="2.08176">
        <ele>126.6</ele>
        <time>2023-12-14T11:28:09Z</time>
      </trkpt>
      <trkpt lat="48.44151" lon="2.08168">
        <ele>126.6</ele>
        <time>2023-12-14T11:28:10Z</time>
      </trkpt>
      <trkpt lat="48.44149" lon="2.0816">
        <ele>126.6</ele>
        <time>2023-12-14T11:28:11Z</time>
      </trkpt>
      <trkpt lat="48.44147" lon="2.08152">
        <ele>127.4</ele>
        <time>2023-12-14T11:28:12Z</time>
      </trkpt>
      <trkpt lat="48.44145" lon="2.08143">
        <ele>127.4</ele>
        <time>2023-12-14T11:28:13Z</time>
      </trkpt>
      <trkpt lat="48.44143" lon="2.08135">
        <ele>127.4</ele>
        <time>2023-12-14T11:28:14Z</time>
      </trkpt>
      <trkpt lat="48.44141" lon="2.08127">
        <ele>127.4</ele>
        <time>2023-12-14T11:28:15Z</time>
      </trkpt>
      <trkpt lat="48.44139" lon="2.0812">
        <ele>127</ele>
        <time>2023-12-14T11:28:16Z</time>
      </trkpt>
      <trkpt lat="48.44137" lon="2.08112">
        <ele>127</ele>
        <time>2023-12-14T11:28:17Z</time>
      </trkpt>
      <trkpt lat="48.44135" lon="2.08104">
        <ele>127</ele>
        <time>2023-12-14T11:28:18Z</time>
      </trkpt>
      <trkpt lat="48.44133" lon="2.08096">
        <ele>127.8</ele>
        <time>2023-12-14T11:28:19Z</time>
      </trkpt>
      <trkpt lat="48.44131" lon="2.08088">
        <ele>128</ele>
        <time>2023-12-14T11:28:20Z</time>
      </trkpt>
      <trkpt lat="48.44129" lon="2.08081">
        <ele>128</ele>
        <time>2023-12-14T11:28:21Z</time>
      </trkpt>
      <trkpt lat="48.44127" lon="2.08073">
        <ele>128</ele>
        <time>2023-12-14T11:28:22Z</time>
      </trkpt>
      <trkpt lat="48.44124" lon="2.08065">
        <ele>127.6</ele>
        <time>2023-12-14T11:28:23Z</time>
      </trkpt>
      <trkpt lat="48.44122" lon="2.08058">
        <ele>128</ele>
        <time>2023-12-14T11:28:24Z</time>
      </trkpt>
      <trkpt lat="48.4412" lon="2.08051">
        <ele>128</ele>
        <time>2023-12-14T11:28:25Z</time>
      </trkpt>
      <trkpt lat="48.44118" lon="2.08044">
        <ele>128</ele>
        <time>2023-12-14T11:28:26Z</time>
      </trkpt>
      <trkpt lat="48.44116" lon="2.08036">
        <ele>128</ele>
        <time>2023-12-14T11:28:27Z</time>
      </trkpt>
      <trkpt lat="48.44113" lon="2.08029">
        <ele>128.2</ele>
        <time>2023-12-14T11:28:28Z</time>
      </trkpt>
      <trkpt lat="48.44111" lon="2.08022">
        <ele>128.2</ele>
        <time>2023-12-14T11:28:29Z</time>
      </trkpt>
      <trkpt lat="48.44109" lon="2.08015">
        <ele>128.2</ele>
        <time>2023-12-14T11:28:30Z</time>
      </trkpt>
      <trkpt lat="48.44107" lon="2.08009">
        <ele>127.8</ele>
        <time>2023-12-14T11:28:31Z</time>
      </trkpt>
      <trkpt lat="48.44105" lon="2.08002">
        <ele>128.4</ele>
        <time>2023-12-14T11:28:32Z</time>
      </trkpt>
      <trkpt lat="48.44103" lon="2.07995">
        <ele>128.4</ele>
        <time>2023-12-14T11:28:33Z</time>
      </trkpt>
      <trkpt lat="48.44101" lon="2.07988">
        <ele>128.4</ele>
        <time>2023-12-14T11:28:34Z</time>
      </trkpt>
      <trkpt lat="48.44099" lon="2.07981">
        <ele>128.4</ele>
        <time>2023-12-14T11:28:35Z</time>
      </trkpt>
      <trkpt lat="48.44097" lon="2.07974">
        <ele>128.6</ele>
        <time>2023-12-14T11:28:36Z</time>
      </trkpt>
      <trkpt lat="48.44095" lon="2.07967">
        <ele>128.6</ele>
        <time>2023-12-14T11:28:37Z</time>
      </trkpt>
      <trkpt lat="48.44093" lon="2.0796">
        <ele>128.6</ele>
        <time>2023-12-14T11:28:38Z</time>
      </trkpt>
      <trkpt lat="48.44091" lon="2.07953">
        <ele>128.6</ele>
        <time>2023-12-14T11:28:39Z</time>
      </trkpt>
      <trkpt lat="48.44088" lon="2.07946">
        <ele>128.6</ele>
        <time>2023-12-14T11:28:40Z</time>
      </trkpt>
      <trkpt lat="48.44086" lon="2.07939">
        <ele>128.6</ele>
        <time>2023-12-14T11:28:41Z</time>
      </trkpt>
      <trkpt lat="48.44084" lon="2.07933">
        <ele>128.6</ele>
        <time>2023-12-14T11:28:42Z</time>
      </trkpt>
      <trkpt lat="48.44082" lon="2.07926">
        <ele>128.6</ele>
        <time>2023-12-14T11:28:43Z</time>
      </trkpt>
      <trkpt lat="48.4408" lon="2.07919">
        <ele>129.2</ele>
        <time>2023-12-14T11:28:44Z</time>
      </trkpt>
      <trkpt lat="48.44078" lon="2.07912">
        <ele>129.2</ele>
        <time>2023-12-14T11:28:45Z</time>
      </trkpt>
      <trkpt lat="48.44076" lon="2.07905">
        <ele>129.2</ele>
        <time>2023-12-14T11:28:46Z</time>
      </trkpt>
      <trkpt lat="48.44073" lon="2.07898">
        <ele>129.2</ele>
        <time>2023-12-14T11:28:47Z</time>
      </trkpt>
      <trkpt lat="48.44071" lon="2.07891">
        <ele>129.4</ele>
        <time>2023-12-14T11:28:48Z</time>
      </trkpt>
      <trkpt lat="48.44069" lon="2.07885">
        <ele>129.4</ele>
        <time>2023-12-14T11:28:49Z</time>
      </trkpt>
      <trkpt lat="48.44067" lon="2.07878">
        <ele>129.4</ele>
        <time>2023-12-14T11:28:50Z</time>
      </trkpt>
      <trkpt lat="48.44065" lon="2.07871">
        <ele>130.2</ele>
        <time>2023-12-14T11:28:51Z</time>
      </trkpt>
      <trkpt lat="48.44063" lon="2.07864">
        <ele>130</ele>
        <time>2023-12-14T11:28:52Z</time>
      </trkpt>
      <trkpt lat="48.44061" lon="2.07858">
        <ele>130</ele>
        <time>2023-12-14T11:28:53Z</time>
      </trkpt>
      <trkpt lat="48.44059" lon="2.07851">
        <ele>130</ele>
        <time>2023-12-14T11:28:54Z</time>
      </trkpt>
      <trkpt lat="48.44057" lon="2.07844">
        <ele>130.2</ele>
        <time>2023-12-14T11:28:55Z</time>
      </trkpt>
      <trkpt lat="48.44055" lon="2.07838">
        <ele>130</ele>
        <time>2023-12-14T11:28:56Z</time>
      </trkpt>
      <trkpt lat="48.44053" lon="2.07831">
        <ele>130</ele>
        <time>2023-12-14T11:28:57Z</time>
      </trkpt>
      <trkpt lat="48.44052" lon="2.07824">
        <ele>130</ele>
        <time>2023-12-14T11:28:58Z</time>
      </trkpt>
      <trkpt lat="48.4405" lon="2.07817">
        <ele>130</ele>
        <time>2023-12-14T11:28:59Z</time>
      </trkpt>
      <trkpt lat="48.44048" lon="2.0781">
        <ele>130</ele>
        <time>2023-12-14T11:29:00Z</time>
      </trkpt>
      <trkpt lat="48.44046" lon="2.07803">
        <ele>130</ele>
        <time>2023-12-14T11:29:01Z</time>
      </trkpt>
      <trkpt lat="48.44044" lon="2.07796">
        <ele>130</ele>
        <time>2023-12-14T11:29:02Z</time>
      </trkpt>
      <trkpt lat="48.44043" lon="2.07789">
        <ele>130</ele>
        <time>2023-12-14T11:29:03Z</time>
      </trkpt>
      <trkpt lat="48.44041" lon="2.07782">
        <ele>130.6</ele>
        <time>2023-12-14T11:29:04Z</time>
      </trkpt>
      <trkpt lat="48.44039" lon="2.07775">
        <ele>130.6</ele>
        <time>2023-12-14T11:29:05Z</time>
      </trkpt>
      <trkpt lat="48.44037" lon="2.07768">
        <ele>130.6</ele>
        <time>2023-12-14T11:29:06Z</time>
      </trkpt>
      <trkpt lat="48.44036" lon="2.07761">
        <ele>131</ele>
        <time>2023-12-14T11:29:07Z</time>
      </trkpt>
      <trkpt lat="48.44034" lon="2.07754">
        <ele>130.6</ele>
        <time>2023-12-14T11:29:08Z</time>
      </trkpt>
      <trkpt lat="48.44032" lon="2.07747">
        <ele>130.6</ele>
        <time>2023-12-14T11:29:09Z</time>
      </trkpt>
      <trkpt lat="48.44031" lon="2.0774">
        <ele>130.6</ele>
        <time>2023-12-14T11:29:10Z</time>
      </trkpt>
      <trkpt lat="48.44029" lon="2.07733">
        <ele>131.2</ele>
        <time>2023-12-14T11:29:11Z</time>
      </trkpt>
      <trkpt lat="48.44028" lon="2.07726">
        <ele>131.2</ele>
        <time>2023-12-14T11:29:12Z</time>
      </trkpt>
      <trkpt lat="48.44026" lon="2.07719">
        <ele>131.2</ele>
        <time>2023-12-14T11:29:13Z</time>
      </trkpt>
      <trkpt lat="48.44025" lon="2.07712">
        <ele>131.2</ele>
        <time>2023-12-14T11:29:14Z</time>
      </trkpt>
      <trkpt lat="48.44024" lon="2.07705">
        <ele>131.2</ele>
        <time>2023-12-14T11:29:15Z</time>
      </trkpt>
      <trkpt lat="48.44023" lon="2.07698">
        <ele>131</ele>
        <time>2023-12-14T11:29:16Z</time>
      </trkpt>
      <trkpt lat="48.44022" lon="2.07693">
        <ele>131</ele>
        <time>2023-12-14T11:29:17Z</time>
      </trkpt>
      <trkpt lat="48.44021" lon="2.07687">
        <ele>131</ele>
        <time>2023-12-14T11:29:18Z</time>
      </trkpt>
      <trkpt lat="48.44021" lon="2.07681">
        <ele>131</ele>
        <time>2023-12-14T11:29:19Z</time>
      </trkpt>
      <trkpt lat="48.4402" lon="2.07674">
        <ele>131</ele>
        <time>2023-12-14T11:29:20Z</time>
      </trkpt>
      <trkpt lat="48.4402" lon="2.07667">
        <ele>131</ele>
        <time>2023-12-14T11:29:21Z</time>
      </trkpt>
      <trkpt lat="48.4402" lon="2.0766">
        <ele>131</ele>
        <time>2023-12-14T11:29:22Z</time>
      </trkpt>
      <trkpt lat="48.4402" lon="2.07653">
        <ele>131</ele>
        <time>2023-12-14T11:29:23Z</time>
      </trkpt>
      <trkpt lat="48.4402" lon="2.07646">
        <ele>130.4</ele>
        <time>2023-12-14T11:29:24Z</time>
      </trkpt>
      <trkpt lat="48.4402" lon="2.07638">
        <ele>130.4</ele>
        <time>2023-12-14T11:29:25Z</time>
      </trkpt>
      <trkpt lat="48.44021" lon="2.0763">
        <ele>130.4</ele>
        <time>2023-12-14T11:29:26Z</time>
      </trkpt>
      <trkpt lat="48.44021" lon="2.07622">
        <ele>131.4</ele>
        <time>2023-12-14T11:29:27Z</time>
      </trkpt>
      <trkpt lat="48.44021" lon="2.07614">
        <ele>131.4</ele>
        <time>2023-12-14T11:29:28Z</time>
      </trkpt>
      <trkpt lat="48.44021" lon="2.07606">
        <ele>131.4</ele>
        <time>2023-12-14T11:29:29Z</time>
      </trkpt>
      <trkpt lat="48.44021" lon="2.07597">
        <ele>131.4</ele>
        <time>2023-12-14T11:29:30Z</time>
      </trkpt>
      <trkpt lat="48.44021" lon="2.07589">
        <ele>131</ele>
        <time>2023-12-14T11:29:31Z</time>
      </trkpt>
      <trkpt lat="48.44021" lon="2.07581">
        <ele>130.6</ele>
        <time>2023-12-14T11:29:32Z</time>
      </trkpt>
      <trkpt lat="48.44021" lon="2.07573">
        <ele>130.6</ele>
        <time>2023-12-14T11:29:33Z</time>
      </trkpt>
      <trkpt lat="48.4402" lon="2.07565">
        <ele>130.6</ele>
        <time>2023-12-14T11:29:34Z</time>
      </trkpt>
      <trkpt lat="48.4402" lon="2.07557">
        <ele>131.4</ele>
        <time>2023-12-14T11:29:35Z</time>
      </trkpt>
      <trkpt lat="48.4402" lon="2.07549">
        <ele>131.6</ele>
        <time>2023-12-14T11:29:36Z</time>
      </trkpt>
      <trkpt lat="48.44019" lon="2.07542">
        <ele>131.6</ele>
        <time>2023-12-14T11:29:37Z</time>
      </trkpt>
      <trkpt lat="48.44019" lon="2.07534">
        <ele>131.6</ele>
        <time>2023-12-14T11:29:38Z</time>
      </trkpt>
      <trkpt lat="48.44019" lon="2.07528">
        <ele>131.4</ele>
        <time>2023-12-14T11:29:39Z</time>
      </trkpt>
      <trkpt lat="48.44019" lon="2.07521">
        <ele>131.2</ele>
        <time>2023-12-14T11:29:40Z</time>
      </trkpt>
      <trkpt lat="48.44019" lon="2.07513">
        <ele>131.2</ele>
        <time>2023-12-14T11:29:41Z</time>
      </trkpt>
      <trkpt lat="48.44018" lon="2.07506">
        <ele>131.2</ele>
        <time>2023-12-14T11:29:42Z</time>
      </trkpt>
      <trkpt lat="48.44019" lon="2.07498">
        <ele>131</ele>
        <time>2023-12-14T11:29:43Z</time>
      </trkpt>
      <trkpt lat="48.44019" lon="2.0749">
        <ele>131.6</ele>
        <time>2023-12-14T11:29:44Z</time>
      </trkpt>
      <trkpt lat="48.4402" lon="2.07481">
        <ele>131.6</ele>
        <time>2023-12-14T11:29:45Z</time>
      </trkpt>
      <trkpt lat="48.44021" lon="2.07473">
        <ele>131.6</ele>
        <time>2023-12-14T11:29:46Z</time>
      </trkpt>
      <trkpt lat="48.44022" lon="2.07465">
        <ele>131.6</ele>
        <time>2023-12-14T11:29:47Z</time>
      </trkpt>
      <trkpt lat="48.44023" lon="2.07457">
        <ele>131.4</ele>
        <time>2023-12-14T11:29:48Z</time>
      </trkpt>
      <trkpt lat="48.44024" lon="2.0745">
        <ele>131.4</ele>
        <time>2023-12-14T11:29:49Z</time>
      </trkpt>
      <trkpt lat="48.44026" lon="2.07442">
        <ele>131.4</ele>
        <time>2023-12-14T11:29:50Z</time>
      </trkpt>
      <trkpt lat="48.44027" lon="2.07435">
        <ele>131.6</ele>
        <time>2023-12-14T11:29:51Z</time>
      </trkpt>
      <trkpt lat="48.44028" lon="2.07427">
        <ele>131.4</ele>
        <time>2023-12-14T11:29:52Z</time>
      </trkpt>
      <trkpt lat="48.4403" lon="2.0742">
        <ele>131.4</ele>
        <time>2023-12-14T11:29:53Z</time>
      </trkpt>
      <trkpt lat="48.44032" lon="2.07412">
        <ele>131.4</ele>
        <time>2023-12-14T11:29:54Z</time>
      </trkpt>
      <trkpt lat="48.44034" lon="2.07405">
        <ele>132.2</ele>
        <time>2023-12-14T11:29:55Z</time>
      </trkpt>
      <trkpt lat="48.44036" lon="2.07397">
        <ele>132</ele>
        <time>2023-12-14T11:29:56Z</time>
      </trkpt>
      <trkpt lat="48.44038" lon="2.07389">
        <ele>132</ele>
        <time>2023-12-14T11:29:57Z</time>
      </trkpt>
      <trkpt lat="48.44042" lon="2.07381">
        <ele>132</ele>
        <time>2023-12-14T11:29:58Z</time>
      </trkpt>
      <trkpt lat="48.44045" lon="2.07374">
        <ele>132</ele>
        <time>2023-12-14T11:29:59Z</time>
      </trkpt>
      <trkpt lat="48.44048" lon="2.07367">
        <ele>131</ele>
        <time>2023-12-14T11:30:00Z</time>
      </trkpt>
      <trkpt lat="48.4405" lon="2.07359">
        <ele>131</ele>
        <time>2023-12-14T11:30:01Z</time>
      </trkpt>
      <trkpt lat="48.44051" lon="2.07351">
        <ele>131</ele>
        <time>2023-12-14T11:30:02Z</time>
      </trkpt>
      <trkpt lat="48.44053" lon="2.07344">
        <ele>131</ele>
        <time>2023-12-14T11:30:03Z</time>
      </trkpt>
      <trkpt lat="48.44054" lon="2.07336">
        <ele>130.8</ele>
        <time>2023-12-14T11:30:04Z</time>
      </trkpt>
      <trkpt lat="48.44056" lon="2.07329">
        <ele>130.8</ele>
        <time>2023-12-14T11:30:05Z</time>
      </trkpt>
      <trkpt lat="48.44057" lon="2.07321">
        <ele>130.8</ele>
        <time>2023-12-14T11:30:06Z</time>
      </trkpt>
      <trkpt lat="48.44058" lon="2.07313">
        <ele>131.8</ele>
        <time>2023-12-14T11:30:07Z</time>
      </trkpt>
      <trkpt lat="48.44059" lon="2.07305">
        <ele>130</ele>
        <time>2023-12-14T11:30:08Z</time>
      </trkpt>
      <trkpt lat="48.4406" lon="2.07296">
        <ele>130</ele>
        <time>2023-12-14T11:30:09Z</time>
      </trkpt>
      <trkpt lat="48.4406" lon="2.07288">
        <ele>130</ele>
        <time>2023-12-14T11:30:10Z</time>
      </trkpt>
      <trkpt lat="48.44061" lon="2.07281">
        <ele>130</ele>
        <time>2023-12-14T11:30:11Z</time>
      </trkpt>
      <trkpt lat="48.44062" lon="2.07273">
        <ele>129.6</ele>
        <time>2023-12-14T11:30:12Z</time>
      </trkpt>
      <trkpt lat="48.44063" lon="2.07266">
        <ele>129.6</ele>
        <time>2023-12-14T11:30:13Z</time>
      </trkpt>
      <trkpt lat="48.44064" lon="2.07259">
        <ele>129.6</ele>
        <time>2023-12-14T11:30:14Z</time>
      </trkpt>
      <trkpt lat="48.44065" lon="2.07253">
        <ele>130.6</ele>
        <time>2023-12-14T11:30:15Z</time>
      </trkpt>
      <trkpt lat="48.44066" lon="2.07248">
        <ele>132.2</ele>
        <time>2023-12-14T11:30:16Z</time>
      </trkpt>
      <trkpt lat="48.44066" lon="2.07244">
        <ele>132.2</ele>
        <time>2023-12-14T11:30:17Z</time>
      </trkpt>
      <trkpt lat="48.44066" lon="2.07241">
        <ele>132.2</ele>
        <time>2023-12-14T11:30:18Z</time>
      </trkpt>
      <trkpt lat="48.44067" lon="2.07238">
        <ele>132.2</ele>
        <time>2023-12-14T11:30:19Z</time>
      </trkpt>
      <trkpt lat="48.44069" lon="2.07236">
        <ele>133.4</ele>
        <time>2023-12-14T11:30:20Z</time>
      </trkpt>
      <trkpt lat="48.4407" lon="2.07236">
        <ele>133.4</ele>
        <time>2023-12-14T11:30:21Z</time>
      </trkpt>
      <trkpt lat="48.4407" lon="2.07237">
        <ele>133.4</ele>
        <time>2023-12-14T11:30:22Z</time>
      </trkpt>
      <trkpt lat="48.44071" lon="2.07238">
        <ele>133.4</ele>
        <time>2023-12-14T11:30:23Z</time>
      </trkpt>
      <trkpt lat="48.44071" lon="2.07239">
        <ele>133.8</ele>
        <time>2023-12-14T11:30:24Z</time>
      </trkpt>
      <trkpt lat="48.4407" lon="2.07241">
        <ele>133.8</ele>
        <time>2023-12-14T11:30:25Z</time>
      </trkpt>
      <trkpt lat="48.44069" lon="2.07241">
        <ele>133.8</ele>
        <time>2023-12-14T11:30:26Z</time>
      </trkpt>
      <trkpt lat="48.44068" lon="2.07242">
        <ele>133.6</ele>
        <time>2023-12-14T11:30:27Z</time>
      </trkpt>
      <trkpt lat="48.44067" lon="2.07242">
        <ele>133.4</ele>
        <time>2023-12-14T11:30:28Z</time>
      </trkpt>
      <trkpt lat="48.44067" lon="2.07243">
        <ele>133.4</ele>
        <time>2023-12-14T11:30:29Z</time>
      </trkpt>
      <trkpt lat="48.44066" lon="2.07245">
        <ele>133.4</ele>
        <time>2023-12-14T11:30:30Z</time>
      </trkpt>
      <trkpt lat="48.44066" lon="2.07247">
        <ele>133.4</ele>
        <time>2023-12-14T11:30:31Z</time>
      </trkpt>
      <trkpt lat="48.44066" lon="2.07248">
        <ele>134</ele>
        <time>2023-12-14T11:30:32Z</time>
      </trkpt>
      <trkpt lat="48.44066" lon="2.07251">
        <ele>134</ele>
        <time>2023-12-14T11:30:33Z</time>
      </trkpt>
      <trkpt lat="48.44065" lon="2.07254">
        <ele>134</ele>
        <time>2023-12-14T11:30:34Z</time>
      </trkpt>
      <trkpt lat="48.44065" lon="2.07257">
        <ele>133.6</ele>
        <time>2023-12-14T11:30:35Z</time>
      </trkpt>
      <trkpt lat="48.44064" lon="2.07262">
        <ele>133.8</ele>
        <time>2023-12-14T11:30:36Z</time>
      </trkpt>
      <trkpt lat="48.44063" lon="2.07267">
        <ele>133.8</ele>
        <time>2023-12-14T11:30:37Z</time>
      </trkpt>
      <trkpt lat="48.44062" lon="2.07272">
        <ele>133.8</ele>
        <time>2023-12-14T11:30:38Z</time>
      </trkpt>
      <trkpt lat="48.44062" lon="2.07277">
        <ele>134</ele>
        <time>2023-12-14T11:30:39Z</time>
      </trkpt>
      <trkpt lat="48.44061" lon="2.07283">
        <ele>134.2</ele>
        <time>2023-12-14T11:30:40Z</time>
      </trkpt>
      <trkpt lat="48.4406" lon="2.07287">
        <ele>134.2</ele>
        <time>2023-12-14T11:30:41Z</time>
      </trkpt>
      <trkpt lat="48.44059" lon="2.07293">
        <ele>134.2</ele>
        <time>2023-12-14T11:30:42Z</time>
      </trkpt>
      <trkpt lat="48.44058" lon="2.07298">
        <ele>133.6</ele>
        <time>2023-12-14T11:30:43Z</time>
      </trkpt>
      <trkpt lat="48.44057" lon="2.07303">
        <ele>134</ele>
        <time>2023-12-14T11:30:44Z</time>
      </trkpt>
      <trkpt lat="48.44056" lon="2.07308">
        <ele>134</ele>
        <time>2023-12-14T11:30:45Z</time>
      </trkpt>
      <trkpt lat="48.44056" lon="2.07313">
        <ele>134</ele>
        <time>2023-12-14T11:30:46Z</time>
      </trkpt>
      <trkpt lat="48.44055" lon="2.07318">
        <ele>133.4</ele>
        <time>2023-12-14T11:30:47Z</time>
      </trkpt>
      <trkpt lat="48.44054" lon="2.07324">
        <ele>133.4</ele>
        <time>2023-12-14T11:30:48Z</time>
      </trkpt>
      <trkpt lat="48.44053" lon="2.0733">
        <ele>133.4</ele>
        <time>2023-12-14T11:30:49Z</time>
      </trkpt>
      <trkpt lat="48.44052" lon="2.07335">
        <ele>133.4</ele>
        <time>2023-12-14T11:30:50Z</time>
      </trkpt>
      <trkpt lat="48.4405" lon="2.07341">
        <ele>133.4</ele>
        <time>2023-12-14T11:30:51Z</time>
      </trkpt>
      <trkpt lat="48.44049" lon="2.07347">
        <ele>133.6</ele>
        <time>2023-12-14T11:30:52Z</time>
      </trkpt>
      <trkpt lat="48.44047" lon="2.07354">
        <ele>133.6</ele>
        <time>2023-12-14T11:30:53Z</time>
      </trkpt>
      <trkpt lat="48.44045" lon="2.0736">
        <ele>133.6</ele>
        <time>2023-12-14T11:30:54Z</time>
      </trkpt>
      <trkpt lat="48.44043" lon="2.07366">
        <ele>132.6</ele>
        <time>2023-12-14T11:30:55Z</time>
      </trkpt>
      <trkpt lat="48.4404" lon="2.07372">
        <ele>132.6</ele>
        <time>2023-12-14T11:30:56Z</time>
      </trkpt>
      <trkpt lat="48.44037" lon="2.07378">
        <ele>132.6</ele>
        <time>2023-12-14T11:30:57Z</time>
      </trkpt>
      <trkpt lat="48.44035" lon="2.07384">
        <ele>132.6</ele>
        <time>2023-12-14T11:30:58Z</time>
      </trkpt>
      <trkpt lat="48.44033" lon="2.07391">
        <ele>132.6</ele>
        <time>2023-12-14T11:30:59Z</time>
      </trkpt>
      <trkpt lat="48.44031" lon="2.07398">
        <ele>133</ele>
        <time>2023-12-14T11:31:00Z</time>
      </trkpt>
      <trkpt lat="48.44029" lon="2.07405">
        <ele>133</ele>
        <time>2023-12-14T11:31:01Z</time>
      </trkpt>
      <trkpt lat="48.44028" lon="2.07411">
        <ele>133</ele>
        <time>2023-12-14T11:31:02Z</time>
      </trkpt>
      <trkpt lat="48.44026" lon="2.07418">
        <ele>133.2</ele>
        <time>2023-12-14T11:31:03Z</time>
      </trkpt>
      <trkpt lat="48.44025" lon="2.07425">
        <ele>133.2</ele>
        <time>2023-12-14T11:31:04Z</time>
      </trkpt>
      <trkpt lat="48.44023" lon="2.07432">
        <ele>133.2</ele>
        <time>2023-12-14T11:31:05Z</time>
      </trkpt>
      <trkpt lat="48.44022" lon="2.0744">
        <ele>133.2</ele>
        <time>2023-12-14T11:31:06Z</time>
      </trkpt>
      <trkpt lat="48.4402" lon="2.07448">
        <ele>133.2</ele>
        <time>2023-12-14T11:31:07Z</time>
      </trkpt>
      <trkpt lat="48.44019" lon="2.07456">
        <ele>132.4</ele>
        <time>2023-12-14T11:31:08Z</time>
      </trkpt>
      <trkpt lat="48.44018" lon="2.07464">
        <ele>132.4</ele>
        <time>2023-12-14T11:31:09Z</time>
      </trkpt>
      <trkpt lat="48.44017" lon="2.07472">
        <ele>132.4</ele>
        <time>2023-12-14T11:31:10Z</time>
      </trkpt>
      <trkpt lat="48.44015" lon="2.07481">
        <ele>132.4</ele>
        <time>2023-12-14T11:31:11Z</time>
      </trkpt>
      <trkpt lat="48.44015" lon="2.0749">
        <ele>133</ele>
        <time>2023-12-14T11:31:12Z</time>
      </trkpt>
      <trkpt lat="48.44014" lon="2.07498">
        <ele>133</ele>
        <time>2023-12-14T11:31:13Z</time>
      </trkpt>
      <trkpt lat="48.44015" lon="2.07507">
        <ele>133</ele>
        <time>2023-12-14T11:31:14Z</time>
      </trkpt>
      <trkpt lat="48.44015" lon="2.07516">
        <ele>132.6</ele>
        <time>2023-12-14T11:31:15Z</time>
      </trkpt>
      <trkpt lat="48.44016" lon="2.07524">
        <ele>132.6</ele>
        <time>2023-12-14T11:31:16Z</time>
      </trkpt>
      <trkpt lat="48.44016" lon="2.07533">
        <ele>132.6</ele>
        <time>2023-12-14T11:31:17Z</time>
      </trkpt>
      <trkpt lat="48.44017" lon="2.07541">
        <ele>132.6</ele>
        <time>2023-12-14T11:31:18Z</time>
      </trkpt>
      <trkpt lat="48.44017" lon="2.0755">
        <ele>132.6</ele>
        <time>2023-12-14T11:31:19Z</time>
      </trkpt>
      <trkpt lat="48.44017" lon="2.07559">
        <ele>132</ele>
        <time>2023-12-14T11:31:20Z</time>
      </trkpt>
      <trkpt lat="48.44018" lon="2.07569">
        <ele>132</ele>
        <time>2023-12-14T11:31:21Z</time>
      </trkpt>
      <trkpt lat="48.44018" lon="2.07578">
        <ele>132</ele>
        <time>2023-12-14T11:31:22Z</time>
      </trkpt>
      <trkpt lat="48.44018" lon="2.07587">
        <ele>132</ele>
        <time>2023-12-14T11:31:23Z</time>
      </trkpt>
      <trkpt lat="48.44018" lon="2.07597">
        <ele>131.2</ele>
        <time>2023-12-14T11:31:24Z</time>
      </trkpt>
      <trkpt lat="48.44018" lon="2.07606">
        <ele>131.2</ele>
        <time>2023-12-14T11:31:25Z</time>
      </trkpt>
      <trkpt lat="48.44018" lon="2.07616">
        <ele>131.2</ele>
        <time>2023-12-14T11:31:26Z</time>
      </trkpt>
      <trkpt lat="48.44018" lon="2.07625">
        <ele>131.2</ele>
        <time>2023-12-14T11:31:27Z</time>
      </trkpt>
      <trkpt lat="48.44018" lon="2.07634">
        <ele>131.2</ele>
        <time>2023-12-14T11:31:28Z</time>
      </trkpt>
      <trkpt lat="48.44018" lon="2.07643">
        <ele>131.2</ele>
        <time>2023-12-14T11:31:29Z</time>
      </trkpt>
      <trkpt lat="48.44017" lon="2.07653">
        <ele>131.2</ele>
        <time>2023-12-14T11:31:30Z</time>
      </trkpt>
      <trkpt lat="48.44017" lon="2.07662">
        <ele>131.2</ele>
        <time>2023-12-14T11:31:31Z</time>
      </trkpt>
      <trkpt lat="48.44017" lon="2.07671">
        <ele>131.8</ele>
        <time>2023-12-14T11:31:32Z</time>
      </trkpt>
      <trkpt lat="48.44017" lon="2.0768">
        <ele>131.8</ele>
        <time>2023-12-14T11:31:33Z</time>
      </trkpt>
      <trkpt lat="48.44018" lon="2.07689">
        <ele>131.8</ele>
        <time>2023-12-14T11:31:34Z</time>
      </trkpt>
      <trkpt lat="48.44019" lon="2.07698">
        <ele>131.8</ele>
        <time>2023-12-14T11:31:35Z</time>
      </trkpt>
      <trkpt lat="48.44021" lon="2.07707">
        <ele>131.2</ele>
        <time>2023-12-14T11:31:36Z</time>
      </trkpt>
      <trkpt lat="48.44022" lon="2.07716">
        <ele>131.2</ele>
        <time>2023-12-14T11:31:37Z</time>
      </trkpt>
      <trkpt lat="48.44024" lon="2.07725">
        <ele>131.2</ele>
        <time>2023-12-14T11:31:38Z</time>
      </trkpt>
      <trkpt lat="48.44026" lon="2.07734">
        <ele>131.6</ele>
        <time>2023-12-14T11:31:39Z</time>
      </trkpt>
      <trkpt lat="48.44028" lon="2.07743">
        <ele>131.2</ele>
        <time>2023-12-14T11:31:40Z</time>
      </trkpt>
      <trkpt lat="48.4403" lon="2.07752">
        <ele>131.2</ele>
        <time>2023-12-14T11:31:41Z</time>
      </trkpt>
      <trkpt lat="48.44032" lon="2.07761">
        <ele>131.2</ele>
        <time>2023-12-14T11:31:42Z</time>
      </trkpt>
      <trkpt lat="48.44034" lon="2.0777">
        <ele>131.2</ele>
        <time>2023-12-14T11:31:43Z</time>
      </trkpt>
      <trkpt lat="48.44036" lon="2.07779">
        <ele>131.4</ele>
        <time>2023-12-14T11:31:44Z</time>
      </trkpt>
      <trkpt lat="48.44039" lon="2.07788">
        <ele>131.4</ele>
        <time>2023-12-14T11:31:45Z</time>
      </trkpt>
      <trkpt lat="48.44041" lon="2.07797">
        <ele>131.4</ele>
        <time>2023-12-14T11:31:46Z</time>
      </trkpt>
      <trkpt lat="48.44043" lon="2.07806">
        <ele>131.4</ele>
        <time>2023-12-14T11:31:47Z</time>
      </trkpt>
      <trkpt lat="48.44046" lon="2.07815">
        <ele>130.6</ele>
        <time>2023-12-14T11:31:48Z</time>
      </trkpt>
      <trkpt lat="48.44048" lon="2.07824">
        <ele>130.6</ele>
        <time>2023-12-14T11:31:49Z</time>
      </trkpt>
      <trkpt lat="48.44051" lon="2.07833">
        <ele>130.6</ele>
        <time>2023-12-14T11:31:50Z</time>
      </trkpt>
      <trkpt lat="48.44054" lon="2.07842">
        <ele>130.6</ele>
        <time>2023-12-14T11:31:51Z</time>
      </trkpt>
      <trkpt lat="48.44056" lon="2.07851">
        <ele>130.4</ele>
        <time>2023-12-14T11:31:52Z</time>
      </trkpt>
      <trkpt lat="48.44059" lon="2.0786">
        <ele>130.4</ele>
        <time>2023-12-14T11:31:53Z</time>
      </trkpt>
      <trkpt lat="48.44062" lon="2.07869">
        <ele>130.4</ele>
        <time>2023-12-14T11:31:54Z</time>
      </trkpt>
      <trkpt lat="48.44065" lon="2.07879">
        <ele>130.4</ele>
        <time>2023-12-14T11:31:55Z</time>
      </trkpt>
      <trkpt lat="48.44068" lon="2.07888">
        <ele>129.6</ele>
        <time>2023-12-14T11:31:56Z</time>
      </trkpt>
      <trkpt lat="48.44071" lon="2.07897">
        <ele>129.6</ele>
        <time>2023-12-14T11:31:57Z</time>
      </trkpt>
      <trkpt lat="48.44074" lon="2.07907">
        <ele>129.6</ele>
        <time>2023-12-14T11:31:58Z</time>
      </trkpt>
      <trkpt lat="48.44077" lon="2.07916">
        <ele>129.4</ele>
        <time>2023-12-14T11:31:59Z</time>
      </trkpt>
      <trkpt lat="48.4408" lon="2.07926">
        <ele>129.4</ele>
        <time>2023-12-14T11:32:00Z</time>
      </trkpt>
      <trkpt lat="48.44083" lon="2.07935">
        <ele>129.4</ele>
        <time>2023-12-14T11:32:01Z</time>
      </trkpt>
      <trkpt lat="48.44086" lon="2.07945">
        <ele>129.4</ele>
        <time>2023-12-14T11:32:02Z</time>
      </trkpt>
      <trkpt lat="48.44089" lon="2.07955">
        <ele>129.4</ele>
        <time>2023-12-14T11:32:03Z</time>
      </trkpt>
      <trkpt lat="48.44092" lon="2.07964">
        <ele>128.4</ele>
        <time>2023-12-14T11:32:04Z</time>
      </trkpt>
      <trkpt lat="48.44095" lon="2.07973">
        <ele>128.4</ele>
        <time>2023-12-14T11:32:05Z</time>
      </trkpt>
      <trkpt lat="48.44098" lon="2.07983">
        <ele>128.4</ele>
        <time>2023-12-14T11:32:06Z</time>
      </trkpt>
      <trkpt lat="48.44101" lon="2.07993">
        <ele>128.4</ele>
        <time>2023-12-14T11:32:07Z</time>
      </trkpt>
      <trkpt lat="48.44104" lon="2.08002">
        <ele>128.4</ele>
        <time>2023-12-14T11:32:08Z</time>
      </trkpt>
      <trkpt lat="48.44107" lon="2.08012">
        <ele>128.4</ele>
        <time>2023-12-14T11:32:09Z</time>
      </trkpt>
      <trkpt lat="48.4411" lon="2.08023">
        <ele>128.4</ele>
        <time>2023-12-14T11:32:10Z</time>
      </trkpt>
      <trkpt lat="48.44113" lon="2.08033">
        <ele>128.2</ele>
        <time>2023-12-14T11:32:11Z</time>
      </trkpt>
      <trkpt lat="48.44116" lon="2.08043">
        <ele>128.2</ele>
        <time>2023-12-14T11:32:12Z</time>
      </trkpt>
      <trkpt lat="48.44119" lon="2.08053">
        <ele>128.2</ele>
        <time>2023-12-14T11:32:13Z</time>
      </trkpt>
      <trkpt lat="48.44122" lon="2.08064">
        <ele>128.2</ele>
        <time>2023-12-14T11:32:14Z</time>
      </trkpt>
      <trkpt lat="48.44125" lon="2.08074">
        <ele>128.2</ele>
        <time>2023-12-14T11:32:15Z</time>
      </trkpt>
      <trkpt lat="48.44128" lon="2.08085">
        <ele>128.4</ele>
        <time>2023-12-14T11:32:16Z</time>
      </trkpt>
      <trkpt lat="48.44132" lon="2.08095">
        <ele>128.4</ele>
        <time>2023-12-14T11:32:17Z</time>
      </trkpt>
      <trkpt lat="48.44135" lon="2.08106">
        <ele>128.4</ele>
        <time>2023-12-14T11:32:18Z</time>
      </trkpt>
      <trkpt lat="48.44137" lon="2.08116">
        <ele>128</ele>
        <time>2023-12-14T11:32:19Z</time>
      </trkpt>
      <trkpt lat="48.4414" lon="2.08127">
        <ele>128.4</ele>
        <time>2023-12-14T11:32:20Z</time>
      </trkpt>
      <trkpt lat="48.44143" lon="2.08138">
        <ele>128.4</ele>
        <time>2023-12-14T11:32:21Z</time>
      </trkpt>
      <trkpt lat="48.44145" lon="2.08149">
        <ele>128.4</ele>
        <time>2023-12-14T11:32:22Z</time>
      </trkpt>
      <trkpt lat="48.44147" lon="2.08159">
        <ele>127.4</ele>
        <time>2023-12-14T11:32:23Z</time>
      </trkpt>
      <trkpt lat="48.4415" lon="2.0817">
        <ele>127.6</ele>
        <time>2023-12-14T11:32:24Z</time>
      </trkpt>
      <trkpt lat="48.44152" lon="2.08181">
        <ele>127.6</ele>
        <time>2023-12-14T11:32:25Z</time>
      </trkpt>
      <trkpt lat="48.44154" lon="2.08191">
        <ele>127.6</ele>
        <time>2023-12-14T11:32:26Z</time>
      </trkpt>
      <trkpt lat="48.44156" lon="2.08202">
        <ele>128.6</ele>
        <time>2023-12-14T11:32:27Z</time>
      </trkpt>
      <trkpt lat="48.44158" lon="2.08213">
        <ele>128.6</ele>
        <time>2023-12-14T11:32:28Z</time>
      </trkpt>
      <trkpt lat="48.44159" lon="2.08223">
        <ele>128.6</ele>
        <time>2023-12-14T11:32:29Z</time>
      </trkpt>
      <trkpt lat="48.44161" lon="2.08234">
        <ele>128.6</ele>
        <time>2023-12-14T11:32:30Z</time>
      </trkpt>
      <trkpt lat="48.44162" lon="2.08244">
        <ele>128.6</ele>
        <time>2023-12-14T11:32:31Z</time>
      </trkpt>
      <trkpt lat="48.44163" lon="2.08255">
        <ele>128.6</ele>
        <time>2023-12-14T11:32:32Z</time>
      </trkpt>
      <trkpt lat="48.44164" lon="2.08265">
        <ele>128.6</ele>
        <time>2023-12-14T11:32:33Z</time>
      </trkpt>
      <trkpt lat="48.44165" lon="2.08275">
        <ele>128.6</ele>
        <time>2023-12-14T11:32:34Z</time>
      </trkpt>
      <trkpt lat="48.44166" lon="2.08286">
        <ele>127.8</ele>
        <time>2023-12-14T11:32:35Z</time>
      </trkpt>
      <trkpt lat="48.44167" lon="2.08296">
        <ele>128.2</ele>
        <time>2023-12-14T11:32:36Z</time>
      </trkpt>
      <trkpt lat="48.44167" lon="2.08306">
        <ele>128.2</ele>
        <time>2023-12-14T11:32:37Z</time>
      </trkpt>
      <trkpt lat="48.44168" lon="2.08317">
        <ele>128.2</ele>
        <time>2023-12-14T11:32:38Z</time>
      </trkpt>
      <trkpt lat="48.44168" lon="2.08328">
        <ele>127.6</ele>
        <time>2023-12-14T11:32:39Z</time>
      </trkpt>
      <trkpt lat="48.44168" lon="2.08339">
        <ele>128.2</ele>
        <time>2023-12-14T11:32:40Z</time>
      </trkpt>
      <trkpt lat="48.44168" lon="2.0835">
        <ele>128.2</ele>
        <time>2023-12-14T11:32:41Z</time>
      </trkpt>
      <trkpt lat="48.44168" lon="2.08361">
        <ele>128.2</ele>
        <time>2023-12-14T11:32:42Z</time>
      </trkpt>
      <trkpt lat="48.44168" lon="2.08372">
        <ele>128</ele>
        <time>2023-12-14T11:32:43Z</time>
      </trkpt>
      <trkpt lat="48.44168" lon="2.08383">
        <ele>127.8</ele>
        <time>2023-12-14T11:32:44Z</time>
      </trkpt>
      <trkpt lat="48.44169" lon="2.08395">
        <ele>127.8</ele>
        <time>2023-12-14T11:32:45Z</time>
      </trkpt>
      <trkpt lat="48.44169" lon="2.08406">
        <ele>127.8</ele>
        <time>2023-12-14T11:32:46Z</time>
      </trkpt>
      <trkpt lat="48.44169" lon="2.08418">
        <ele>127.8</ele>
        <time>2023-12-14T11:32:47Z</time>
      </trkpt>
      <trkpt lat="48.44169" lon="2.08429">
        <ele>127.4</ele>
        <time>2023-12-14T11:32:48Z</time>
      </trkpt>
      <trkpt lat="48.44169" lon="2.0844">
        <ele>127.4</ele>
        <time>2023-12-14T11:32:49Z</time>
      </trkpt>
      <trkpt lat="48.44169" lon="2.08451">
        <ele>127.4</ele>
        <time>2023-12-14T11:32:50Z</time>
      </trkpt>
      <trkpt lat="48.44169" lon="2.08462">
        <ele>127.4</ele>
        <time>2023-12-14T11:32:51Z</time>
      </trkpt>
      <trkpt lat="48.44169" lon="2.08472">
        <ele>127.2</ele>
        <time>2023-12-14T11:32:52Z</time>
      </trkpt>
      <trkpt lat="48.44168" lon="2.08482">
        <ele>127.2</ele>
        <time>2023-12-14T11:32:53Z</time>
      </trkpt>
      <trkpt lat="48.44168" lon="2.08492">
        <ele>127.2</ele>
        <time>2023-12-14T11:32:54Z</time>
      </trkpt>
      <trkpt lat="48.44167" lon="2.08501">
        <ele>128.2</ele>
        <time>2023-12-14T11:32:55Z</time>
      </trkpt>
      <trkpt lat="48.44167" lon="2.0851">
        <ele>128.8</ele>
        <time>2023-12-14T11:32:56Z</time>
      </trkpt>
      <trkpt lat="48.44167" lon="2.08518">
        <ele>128.8</ele>
        <time>2023-12-14T11:32:57Z</time>
      </trkpt>
      <trkpt lat="48.44167" lon="2.08526">
        <ele>128.8</ele>
        <time>2023-12-14T11:32:58Z</time>
      </trkpt>
      <trkpt lat="48.44166" lon="2.08534">
        <ele>128.8</ele>
        <time>2023-12-14T11:32:59Z</time>
      </trkpt>
      <trkpt lat="48.44164" lon="2.0854">
        <ele>129.8</ele>
        <time>2023-12-14T11:33:00Z</time>
      </trkpt>
      <trkpt lat="48.44164" lon="2.08547">
        <ele>129.8</ele>
        <time>2023-12-14T11:33:01Z</time>
      </trkpt>
      <trkpt lat="48.44165" lon="2.08553">
        <ele>129.8</ele>
        <time>2023-12-14T11:33:02Z</time>
      </trkpt>
      <trkpt lat="48.44168" lon="2.08558">
        <ele>129.8</ele>
        <time>2023-12-14T11:33:03Z</time>
      </trkpt>
      <trkpt lat="48.4417" lon="2.08562">
        <ele>129.6</ele>
        <time>2023-12-14T11:33:04Z</time>
      </trkpt>
      <trkpt lat="48.44173" lon="2.08566">
        <ele>129.6</ele>
        <time>2023-12-14T11:33:05Z</time>
      </trkpt>
      <trkpt lat="48.44175" lon="2.0857">
        <ele>129.6</ele>
        <time>2023-12-14T11:33:06Z</time>
      </trkpt>
      <trkpt lat="48.44177" lon="2.08575">
        <ele>129.6</ele>
        <time>2023-12-14T11:33:07Z</time>
      </trkpt>
      <trkpt lat="48.44179" lon="2.0858">
        <ele>130.2</ele>
        <time>2023-12-14T11:33:08Z</time>
      </trkpt>
      <trkpt lat="48.44181" lon="2.08586">
        <ele>130.2</ele>
        <time>2023-12-14T11:33:09Z</time>
      </trkpt>
      <trkpt lat="48.44182" lon="2.08592">
        <ele>130.2</ele>
        <time>2023-12-14T11:33:10Z</time>
      </trkpt>
      <trkpt lat="48.44183" lon="2.08599">
        <ele>130.2</ele>
        <time>2023-12-14T11:33:11Z</time>
      </trkpt>
      <trkpt lat="48.44184" lon="2.08606">
        <ele>130.4</ele>
        <time>2023-12-14T11:33:12Z</time>
      </trkpt>
      <trkpt lat="48.44185" lon="2.08613">
        <ele>130.4</ele>
        <time>2023-12-14T11:33:13Z</time>
      </trkpt>
      <trkpt lat="48.44186" lon="2.08621">
        <ele>130.4</ele>
        <time>2023-12-14T11:33:14Z</time>
      </trkpt>
      <trkpt lat="48.44188" lon="2.08628">
        <ele>130.4</ele>
        <time>2023-12-14T11:33:15Z</time>
      </trkpt>
      <trkpt lat="48.44189" lon="2.08636">
        <ele>130</ele>
        <time>2023-12-14T11:33:16Z</time>
      </trkpt>
      <trkpt lat="48.4419" lon="2.08644">
        <ele>130</ele>
        <time>2023-12-14T11:33:17Z</time>
      </trkpt>
      <trkpt lat="48.44191" lon="2.08652">
        <ele>130</ele>
        <time>2023-12-14T11:33:18Z</time>
      </trkpt>
      <trkpt lat="48.44192" lon="2.0866">
        <ele>130</ele>
        <time>2023-12-14T11:33:19Z</time>
      </trkpt>
      <trkpt lat="48.44194" lon="2.08669">
        <ele>130.2</ele>
        <time>2023-12-14T11:33:20Z</time>
      </trkpt>
      <trkpt lat="48.44195" lon="2.08677">
        <ele>130.2</ele>
        <time>2023-12-14T11:33:21Z</time>
      </trkpt>
      <trkpt lat="48.44196" lon="2.08685">
        <ele>130.2</ele>
        <time>2023-12-14T11:33:22Z</time>
      </trkpt>
      <trkpt lat="48.44198" lon="2.08694">
        <ele>130</ele>
        <time>2023-12-14T11:33:23Z</time>
      </trkpt>
      <trkpt lat="48.44199" lon="2.08702">
        <ele>130</ele>
        <time>2023-12-14T11:33:24Z</time>
      </trkpt>
      <trkpt lat="48.442" lon="2.08711">
        <ele>130</ele>
        <time>2023-12-14T11:33:25Z</time>
      </trkpt>
      <trkpt lat="48.44201" lon="2.08719">
        <ele>130</ele>
        <time>2023-12-14T11:33:26Z</time>
      </trkpt>
      <trkpt lat="48.44203" lon="2.08728">
        <ele>129.8</ele>
        <time>2023-12-14T11:33:27Z</time>
      </trkpt>
      <trkpt lat="48.44204" lon="2.08737">
        <ele>129.6</ele>
        <time>2023-12-14T11:33:28Z</time>
      </trkpt>
      <trkpt lat="48.44205" lon="2.08746">
        <ele>129.6</ele>
        <time>2023-12-14T11:33:29Z</time>
      </trkpt>
      <trkpt lat="48.44206" lon="2.08756">
        <ele>129.6</ele>
        <time>2023-12-14T11:33:30Z</time>
      </trkpt>
      <trkpt lat="48.44206" lon="2.08765">
        <ele>129.6</ele>
        <time>2023-12-14T11:33:31Z</time>
      </trkpt>
      <trkpt lat="48.44207" lon="2.08775">
        <ele>129.2</ele>
        <time>2023-12-14T11:33:32Z</time>
      </trkpt>
      <trkpt lat="48.44208" lon="2.08784">
        <ele>129.2</ele>
        <time>2023-12-14T11:33:33Z</time>
      </trkpt>
      <trkpt lat="48.44209" lon="2.08794">
        <ele>129.2</ele>
        <time>2023-12-14T11:33:34Z</time>
      </trkpt>
      <trkpt lat="48.4421" lon="2.08804">
        <ele>129.2</ele>
        <time>2023-12-14T11:33:35Z</time>
      </trkpt>
      <trkpt lat="48.4421" lon="2.08814">
        <ele>129.2</ele>
        <time>2023-12-14T11:33:36Z</time>
      </trkpt>
      <trkpt lat="48.44211" lon="2.08824">
        <ele>129.2</ele>
        <time>2023-12-14T11:33:37Z</time>
      </trkpt>
      <trkpt lat="48.44212" lon="2.08834">
        <ele>129.2</ele>
        <time>2023-12-14T11:33:38Z</time>
      </trkpt>
      <trkpt lat="48.44213" lon="2.08844">
        <ele>129.2</ele>
        <time>2023-12-14T11:33:39Z</time>
      </trkpt>
      <trkpt lat="48.44214" lon="2.08853">
        <ele>129.2</ele>
        <time>2023-12-14T11:33:40Z</time>
      </trkpt>
      <trkpt lat="48.44215" lon="2.08861">
        <ele>129.2</ele>
        <time>2023-12-14T11:33:41Z</time>
      </trkpt>
      <trkpt lat="48.44217" lon="2.08867">
        <ele>129.2</ele>
        <time>2023-12-14T11:33:42Z</time>
      </trkpt>
      <trkpt lat="48.44218" lon="2.08873">
        <ele>129.8</ele>
        <time>2023-12-14T11:33:43Z</time>
      </trkpt>
      <trkpt lat="48.44218" lon="2.08878">
        <ele>129.8</ele>
        <time>2023-12-14T11:33:44Z</time>
      </trkpt>
      <trkpt lat="48.44218" lon="2.08884">
        <ele>129.8</ele>
        <time>2023-12-14T11:33:45Z</time>
      </trkpt>
      <trkpt lat="48.44218" lon="2.0889">
        <ele>129.8</ele>
        <time>2023-12-14T11:33:46Z</time>
      </trkpt>
      <trkpt lat="48.4422" lon="2.08896">
        <ele>129.8</ele>
        <time>2023-12-14T11:33:47Z</time>
      </trkpt>
      <trkpt lat="48.44222" lon="2.08901">
        <ele>129</ele>
        <time>2023-12-14T11:33:48Z</time>
      </trkpt>
      <trkpt lat="48.44225" lon="2.08906">
        <ele>129</ele>
        <time>2023-12-14T11:33:49Z</time>
      </trkpt>
      <trkpt lat="48.44227" lon="2.08911">
        <ele>129</ele>
        <time>2023-12-14T11:33:50Z</time>
      </trkpt>
      <trkpt lat="48.4423" lon="2.08915">
        <ele>129.8</ele>
        <time>2023-12-14T11:33:51Z</time>
      </trkpt>
      <trkpt lat="48.44233" lon="2.0892">
        <ele>128.8</ele>
        <time>2023-12-14T11:33:52Z</time>
      </trkpt>
      <trkpt lat="48.44236" lon="2.08926">
        <ele>128.8</ele>
        <time>2023-12-14T11:33:53Z</time>
      </trkpt>
      <trkpt lat="48.44239" lon="2.08932">
        <ele>128.8</ele>
        <time>2023-12-14T11:33:54Z</time>
      </trkpt>
      <trkpt lat="48.44243" lon="2.08939">
        <ele>128.8</ele>
        <time>2023-12-14T11:33:55Z</time>
      </trkpt>
      <trkpt lat="48.44246" lon="2.08946">
        <ele>128.6</ele>
        <time>2023-12-14T11:33:56Z</time>
      </trkpt>
      <trkpt lat="48.4425" lon="2.08952">
        <ele>128.6</ele>
        <time>2023-12-14T11:33:57Z</time>
      </trkpt>
      <trkpt lat="48.44253" lon="2.08959">
        <ele>128.6</ele>
        <time>2023-12-14T11:33:58Z</time>
      </trkpt>
      <trkpt lat="48.44257" lon="2.08966">
        <ele>128</ele>
        <time>2023-12-14T11:33:59Z</time>
      </trkpt>
      <trkpt lat="48.4426" lon="2.08973">
        <ele>128.8</ele>
        <time>2023-12-14T11:34:00Z</time>
      </trkpt>
      <trkpt lat="48.44264" lon="2.0898">
        <ele>128.8</ele>
        <time>2023-12-14T11:34:01Z</time>
      </trkpt>
      <trkpt lat="48.44268" lon="2.08987">
        <ele>128.8</ele>
        <time>2023-12-14T11:34:02Z</time>
      </trkpt>
      <trkpt lat="48.44271" lon="2.08994">
        <ele>128.8</ele>
        <time>2023-12-14T11:34:03Z</time>
      </trkpt>
      <trkpt lat="48.44275" lon="2.09001">
        <ele>128.2</ele>
        <time>2023-12-14T11:34:04Z</time>
      </trkpt>
      <trkpt lat="48.44279" lon="2.09008">
        <ele>128.2</ele>
        <time>2023-12-14T11:34:05Z</time>
      </trkpt>
      <trkpt lat="48.44282" lon="2.09015">
        <ele>128.2</ele>
        <time>2023-12-14T11:34:06Z</time>
      </trkpt>
      <trkpt lat="48.44286" lon="2.09023">
        <ele>128.2</ele>
        <time>2023-12-14T11:34:07Z</time>
      </trkpt>
      <trkpt lat="48.44289" lon="2.09031">
        <ele>127.6</ele>
        <time>2023-12-14T11:34:08Z</time>
      </trkpt>
      <trkpt lat="48.44293" lon="2.09039">
        <ele>127.6</ele>
        <time>2023-12-14T11:34:09Z</time>
      </trkpt>
      <trkpt lat="48.44296" lon="2.09047">
        <ele>127.6</ele>
        <time>2023-12-14T11:34:10Z</time>
      </trkpt>
      <trkpt lat="48.443" lon="2.09055">
        <ele>127.6</ele>
        <time>2023-12-14T11:34:11Z</time>
      </trkpt>
      <trkpt lat="48.44303" lon="2.09064">
        <ele>127.6</ele>
        <time>2023-12-14T11:34:12Z</time>
      </trkpt>
      <trkpt lat="48.44306" lon="2.09072">
        <ele>127.6</ele>
        <time>2023-12-14T11:34:13Z</time>
      </trkpt>
      <trkpt lat="48.4431" lon="2.0908">
        <ele>127.6</ele>
        <time>2023-12-14T11:34:14Z</time>
      </trkpt>
      <trkpt lat="48.44313" lon="2.09088">
        <ele>127.6</ele>
        <time>2023-12-14T11:34:15Z</time>
      </trkpt>
      <trkpt lat="48.44316" lon="2.09096">
        <ele>128</ele>
        <time>2023-12-14T11:34:16Z</time>
      </trkpt>
      <trkpt lat="48.44319" lon="2.09104">
        <ele>128</ele>
        <time>2023-12-14T11:34:17Z</time>
      </trkpt>
      <trkpt lat="48.44321" lon="2.09112">
        <ele>128</ele>
        <time>2023-12-14T11:34:18Z</time>
      </trkpt>
      <trkpt lat="48.44324" lon="2.09121">
        <ele>128.4</ele>
        <time>2023-12-14T11:34:19Z</time>
      </trkpt>
      <trkpt lat="48.44327" lon="2.09129">
        <ele>128.6</ele>
        <time>2023-12-14T11:34:20Z</time>
      </trkpt>
      <trkpt lat="48.44329" lon="2.09137">
        <ele>128.6</ele>
        <time>2023-12-14T11:34:21Z</time>
      </trkpt>
      <trkpt lat="48.44331" lon="2.09146">
        <ele>128.6</ele>
        <time>2023-12-14T11:34:22Z</time>
      </trkpt>
      <trkpt lat="48.44334" lon="2.09154">
        <ele>128.6</ele>
        <time>2023-12-14T11:34:23Z</time>
      </trkpt>
      <trkpt lat="48.44336" lon="2.09163">
        <ele>129</ele>
        <time>2023-12-14T11:34:24Z</time>
      </trkpt>
      <trkpt lat="48.44338" lon="2.09172">
        <ele>129</ele>
        <time>2023-12-14T11:34:25Z</time>
      </trkpt>
      <trkpt lat="48.4434" lon="2.09181">
        <ele>129</ele>
        <time>2023-12-14T11:34:26Z</time>
      </trkpt>
      <trkpt lat="48.44341" lon="2.0919">
        <ele>129</ele>
        <time>2023-12-14T11:34:27Z</time>
      </trkpt>
      <trkpt lat="48.44343" lon="2.09198">
        <ele>129.2</ele>
        <time>2023-12-14T11:34:28Z</time>
      </trkpt>
      <trkpt lat="48.44345" lon="2.09207">
        <ele>129.2</ele>
        <time>2023-12-14T11:34:29Z</time>
      </trkpt>
      <trkpt lat="48.44346" lon="2.09216">
        <ele>129.2</ele>
        <time>2023-12-14T11:34:30Z</time>
      </trkpt>
      <trkpt lat="48.44348" lon="2.09225">
        <ele>129.4</ele>
        <time>2023-12-14T11:34:31Z</time>
      </trkpt>
      <trkpt lat="48.44349" lon="2.09233">
        <ele>129.8</ele>
        <time>2023-12-14T11:34:32Z</time>
      </trkpt>
      <trkpt lat="48.44351" lon="2.09242">
        <ele>129.8</ele>
        <time>2023-12-14T11:34:33Z</time>
      </trkpt>
      <trkpt lat="48.44352" lon="2.0925">
        <ele>129.8</ele>
        <time>2023-12-14T11:34:34Z</time>
      </trkpt>
      <trkpt lat="48.44354" lon="2.09259">
        <ele>130.6</ele>
        <time>2023-12-14T11:34:35Z</time>
      </trkpt>
      <trkpt lat="48.44355" lon="2.09267">
        <ele>130.8</ele>
        <time>2023-12-14T11:34:36Z</time>
      </trkpt>
      <trkpt lat="48.44356" lon="2.09275">
        <ele>130.8</ele>
        <time>2023-12-14T11:34:37Z</time>
      </trkpt>
      <trkpt lat="48.44358" lon="2.09283">
        <ele>130.8</ele>
        <time>2023-12-14T11:34:38Z</time>
      </trkpt>
      <trkpt lat="48.44359" lon="2.09291">
        <ele>131.8</ele>
        <time>2023-12-14T11:34:39Z</time>
      </trkpt>
      <trkpt lat="48.44361" lon="2.093">
        <ele>132.2</ele>
        <time>2023-12-14T11:34:40Z</time>
      </trkpt>
      <trkpt lat="48.44362" lon="2.09308">
        <ele>132.2</ele>
        <time>2023-12-14T11:34:41Z</time>
      </trkpt>
      <trkpt lat="48.44364" lon="2.09316">
        <ele>132.2</ele>
        <time>2023-12-14T11:34:42Z</time>
      </trkpt>
      <trkpt lat="48.44365" lon="2.09325">
        <ele>132.2</ele>
        <time>2023-12-14T11:34:43Z</time>
      </trkpt>
      <trkpt lat="48.44367" lon="2.09333">
        <ele>132.8</ele>
        <time>2023-12-14T11:34:44Z</time>
      </trkpt>
      <trkpt lat="48.44369" lon="2.09342">
        <ele>132.8</ele>
        <time>2023-12-14T11:34:45Z</time>
      </trkpt>
      <trkpt lat="48.44371" lon="2.09351">
        <ele>132.8</ele>
        <time>2023-12-14T11:34:46Z</time>
      </trkpt>
      <trkpt lat="48.44373" lon="2.09359">
        <ele>131.8</ele>
        <time>2023-12-14T11:34:47Z</time>
      </trkpt>
      <trkpt lat="48.44376" lon="2.09368">
        <ele>131.8</ele>
        <time>2023-12-14T11:34:48Z</time>
      </trkpt>
      <trkpt lat="48.44378" lon="2.09376">
        <ele>131.8</ele>
        <time>2023-12-14T11:34:49Z</time>
      </trkpt>
      <trkpt lat="48.44381" lon="2.09385">
        <ele>131.8</ele>
        <time>2023-12-14T11:34:50Z</time>
      </trkpt>
      <trkpt lat="48.44383" lon="2.09393">
        <ele>131.8</ele>
        <time>2023-12-14T11:34:51Z</time>
      </trkpt>
      <trkpt lat="48.44386" lon="2.09402">
        <ele>131.2</ele>
        <time>2023-12-14T11:34:52Z</time>
      </trkpt>
      <trkpt lat="48.44389" lon="2.0941">
        <ele>131.2</ele>
        <time>2023-12-14T11:34:53Z</time>
      </trkpt>
      <trkpt lat="48.44392" lon="2.09418">
        <ele>131.2</ele>
        <time>2023-12-14T11:34:54Z</time>
      </trkpt>
      <trkpt lat="48.44396" lon="2.09426">
        <ele>131.2</ele>
        <time>2023-12-14T11:34:55Z</time>
      </trkpt>
      <trkpt lat="48.44399" lon="2.09434">
        <ele>131.6</ele>
        <time>2023-12-14T11:34:56Z</time>
      </trkpt>
      <trkpt lat="48.44403" lon="2.09442">
        <ele>131.6</ele>
        <time>2023-12-14T11:34:57Z</time>
      </trkpt>
      <trkpt lat="48.44407" lon="2.09449">
        <ele>131.6</ele>
        <time>2023-12-14T11:34:58Z</time>
      </trkpt>
      <trkpt lat="48.4441" lon="2.09457">
        <ele>131.6</ele>
        <time>2023-12-14T11:34:59Z</time>
      </trkpt>
      <trkpt lat="48.44414" lon="2.09465">
        <ele>132.4</ele>
        <time>2023-12-14T11:35:00Z</time>
      </trkpt>
      <trkpt lat="48.44417" lon="2.09473">
        <ele>132.4</ele>
        <time>2023-12-14T11:35:01Z</time>
      </trkpt>
      <trkpt lat="48.44421" lon="2.0948">
        <ele>132.4</ele>
        <time>2023-12-14T11:35:02Z</time>
      </trkpt>
      <trkpt lat="48.44424" lon="2.09488">
        <ele>131.6</ele>
        <time>2023-12-14T11:35:03Z</time>
      </trkpt>
      <trkpt lat="48.44428" lon="2.09495">
        <ele>131.8</ele>
        <time>2023-12-14T11:35:04Z</time>
      </trkpt>
      <trkpt lat="48.44432" lon="2.09503">
        <ele>131.8</ele>
        <time>2023-12-14T11:35:05Z</time>
      </trkpt>
      <trkpt lat="48.44435" lon="2.09511">
        <ele>131.8</ele>
        <time>2023-12-14T11:35:06Z</time>
      </trkpt>
      <trkpt lat="48.44439" lon="2.09519">
        <ele>131.2</ele>
        <time>2023-12-14T11:35:07Z</time>
      </trkpt>
      <trkpt lat="48.44442" lon="2.09526">
        <ele>131</ele>
        <time>2023-12-14T11:35:08Z</time>
      </trkpt>
      <trkpt lat="48.44446" lon="2.09534">
        <ele>131</ele>
        <time>2023-12-14T11:35:09Z</time>
      </trkpt>
      <trkpt lat="48.44449" lon="2.09541">
        <ele>131</ele>
        <time>2023-12-14T11:35:10Z</time>
      </trkpt>
      <trkpt lat="48.44453" lon="2.09549">
        <ele>131</ele>
        <time>2023-12-14T11:35:11Z</time>
      </trkpt>
      <trkpt lat="48.44456" lon="2.09557">
        <ele>131.6</ele>
        <time>2023-12-14T11:35:12Z</time>
      </trkpt>
      <trkpt lat="48.4446" lon="2.09564">
        <ele>131.6</ele>
        <time>2023-12-14T11:35:13Z</time>
      </trkpt>
      <trkpt lat="48.44464" lon="2.09572">
        <ele>131.6</ele>
        <time>2023-12-14T11:35:14Z</time>
      </trkpt>
      <trkpt lat="48.44467" lon="2.0958">
        <ele>132</ele>
        <time>2023-12-14T11:35:15Z</time>
      </trkpt>
      <trkpt lat="48.44471" lon="2.09587">
        <ele>132.4</ele>
        <time>2023-12-14T11:35:16Z</time>
      </trkpt>
      <trkpt lat="48.44474" lon="2.09595">
        <ele>132.4</ele>
        <time>2023-12-14T11:35:17Z</time>
      </trkpt>
      <trkpt lat="48.44478" lon="2.09602">
        <ele>132.4</ele>
        <time>2023-12-14T11:35:18Z</time>
      </trkpt>
      <trkpt lat="48.44481" lon="2.0961">
        <ele>132.4</ele>
        <time>2023-12-14T11:35:19Z</time>
      </trkpt>
      <trkpt lat="48.44485" lon="2.09617">
        <ele>132.6</ele>
        <time>2023-12-14T11:35:20Z</time>
      </trkpt>
      <trkpt lat="48.44488" lon="2.09625">
        <ele>132.6</ele>
        <time>2023-12-14T11:35:21Z</time>
      </trkpt>
      <trkpt lat="48.44492" lon="2.09633">
        <ele>132.6</ele>
        <time>2023-12-14T11:35:22Z</time>
      </trkpt>
      <trkpt lat="48.44495" lon="2.09641">
        <ele>132.6</ele>
        <time>2023-12-14T11:35:23Z</time>
      </trkpt>
      <trkpt lat="48.44499" lon="2.09649">
        <ele>132.4</ele>
        <time>2023-12-14T11:35:24Z</time>
      </trkpt>
      <trkpt lat="48.44502" lon="2.09657">
        <ele>132.4</ele>
        <time>2023-12-14T11:35:25Z</time>
      </trkpt>
      <trkpt lat="48.44506" lon="2.09665">
        <ele>132.4</ele>
        <time>2023-12-14T11:35:26Z</time>
      </trkpt>
      <trkpt lat="48.44509" lon="2.09672">
        <ele>133.4</ele>
        <time>2023-12-14T11:35:27Z</time>
      </trkpt>
      <trkpt lat="48.44513" lon="2.0968">
        <ele>133.2</ele>
        <time>2023-12-14T11:35:28Z</time>
      </trkpt>
      <trkpt lat="48.44516" lon="2.09688">
        <ele>133.2</ele>
        <time>2023-12-14T11:35:29Z</time>
      </trkpt>
      <trkpt lat="48.44519" lon="2.09696">
        <ele>133.2</ele>
        <time>2023-12-14T11:35:30Z</time>
      </trkpt>
      <trkpt lat="48.44523" lon="2.09704">
        <ele>133.2</ele>
        <time>2023-12-14T11:35:31Z</time>
      </trkpt>
      <trkpt lat="48.44526" lon="2.09711">
        <ele>133.2</ele>
        <time>2023-12-14T11:35:32Z</time>
      </trkpt>
      <trkpt lat="48.4453" lon="2.09719">
        <ele>133.2</ele>
        <time>2023-12-14T11:35:33Z</time>
      </trkpt>
      <trkpt lat="48.44533" lon="2.09727">
        <ele>133.2</ele>
        <time>2023-12-14T11:35:34Z</time>
      </trkpt>
      <trkpt lat="48.44537" lon="2.09735">
        <ele>132.8</ele>
        <time>2023-12-14T11:35:35Z</time>
      </trkpt>
      <trkpt lat="48.4454" lon="2.09743">
        <ele>133</ele>
        <time>2023-12-14T11:35:36Z</time>
      </trkpt>
      <trkpt lat="48.44543" lon="2.09751">
        <ele>133</ele>
        <time>2023-12-14T11:35:37Z</time>
      </trkpt>
      <trkpt lat="48.44547" lon="2.09759">
        <ele>133</ele>
        <time>2023-12-14T11:35:38Z</time>
      </trkpt>
      <trkpt lat="48.4455" lon="2.09767">
        <ele>132.6</ele>
        <time>2023-12-14T11:35:39Z</time>
      </trkpt>
      <trkpt lat="48.44554" lon="2.09775">
        <ele>132.6</ele>
        <time>2023-12-14T11:35:40Z</time>
      </trkpt>
      <trkpt lat="48.44557" lon="2.09783">
        <ele>132.6</ele>
        <time>2023-12-14T11:35:41Z</time>
      </trkpt>
      <trkpt lat="48.44561" lon="2.09791">
        <ele>132.6</ele>
        <time>2023-12-14T11:35:42Z</time>
      </trkpt>
      <trkpt lat="48.44564" lon="2.09799">
        <ele>133</ele>
        <time>2023-12-14T11:35:43Z</time>
      </trkpt>
      <trkpt lat="48.44567" lon="2.09807">
        <ele>133</ele>
        <time>2023-12-14T11:35:44Z</time>
      </trkpt>
      <trkpt lat="48.44571" lon="2.09814">
        <ele>133</ele>
        <time>2023-12-14T11:35:45Z</time>
      </trkpt>
      <trkpt lat="48.44574" lon="2.09822">
        <ele>133</ele>
        <time>2023-12-14T11:35:46Z</time>
      </trkpt>
      <trkpt lat="48.44578" lon="2.0983">
        <ele>133</ele>
        <time>2023-12-14T11:35:47Z</time>
      </trkpt>
      <trkpt lat="48.44581" lon="2.09838">
        <ele>133.2</ele>
        <time>2023-12-14T11:35:48Z</time>
      </trkpt>
      <trkpt lat="48.44585" lon="2.09846">
        <ele>133.2</ele>
        <time>2023-12-14T11:35:49Z</time>
      </trkpt>
      <trkpt lat="48.44588" lon="2.09853">
        <ele>133.2</ele>
        <time>2023-12-14T11:35:50Z</time>
      </trkpt>
      <trkpt lat="48.44591" lon="2.09861">
        <ele>133.2</ele>
        <time>2023-12-14T11:35:51Z</time>
      </trkpt>
      <trkpt lat="48.44595" lon="2.09869">
        <ele>134</ele>
        <time>2023-12-14T11:35:52Z</time>
      </trkpt>
      <trkpt lat="48.44598" lon="2.09876">
        <ele>134</ele>
        <time>2023-12-14T11:35:53Z</time>
      </trkpt>
      <trkpt lat="48.44601" lon="2.09884">
        <ele>134</ele>
        <time>2023-12-14T11:35:54Z</time>
      </trkpt>
      <trkpt lat="48.44605" lon="2.09892">
        <ele>134</ele>
        <time>2023-12-14T11:35:55Z</time>
      </trkpt>
      <trkpt lat="48.44608" lon="2.099">
        <ele>134.2</ele>
        <time>2023-12-14T11:35:56Z</time>
      </trkpt>
      <trkpt lat="48.44612" lon="2.09908">
        <ele>134.2</ele>
        <time>2023-12-14T11:35:57Z</time>
      </trkpt>
      <trkpt lat="48.44615" lon="2.09916">
        <ele>134.2</ele>
        <time>2023-12-14T11:35:58Z</time>
      </trkpt>
      <trkpt lat="48.44619" lon="2.09924">
        <ele>134.6</ele>
        <time>2023-12-14T11:35:59Z</time>
      </trkpt>
      <trkpt lat="48.44623" lon="2.09932">
        <ele>134.2</ele>
        <time>2023-12-14T11:36:00Z</time>
      </trkpt>
      <trkpt lat="48.44626" lon="2.0994">
        <ele>134.2</ele>
        <time>2023-12-14T11:36:01Z</time>
      </trkpt>
      <trkpt lat="48.44629" lon="2.09947">
        <ele>134.2</ele>
        <time>2023-12-14T11:36:02Z</time>
      </trkpt>
      <trkpt lat="48.44633" lon="2.09955">
        <ele>134.6</ele>
        <time>2023-12-14T11:36:03Z</time>
      </trkpt>
      <trkpt lat="48.44637" lon="2.09963">
        <ele>134.6</ele>
        <time>2023-12-14T11:36:04Z</time>
      </trkpt>
      <trkpt lat="48.4464" lon="2.09971">
        <ele>134.6</ele>
        <time>2023-12-14T11:36:05Z</time>
      </trkpt>
      <trkpt lat="48.44644" lon="2.09978">
        <ele>134.6</ele>
        <time>2023-12-14T11:36:06Z</time>
      </trkpt>
      <trkpt lat="48.44647" lon="2.09986">
        <ele>134.8</ele>
        <time>2023-12-14T11:36:07Z</time>
      </trkpt>
      <trkpt lat="48.44651" lon="2.09994">
        <ele>134.6</ele>
        <time>2023-12-14T11:36:08Z</time>
      </trkpt>
      <trkpt lat="48.44654" lon="2.10002">
        <ele>134.6</ele>
        <time>2023-12-14T11:36:09Z</time>
      </trkpt>
      <trkpt lat="48.44658" lon="2.1001">
        <ele>134.6</ele>
        <time>2023-12-14T11:36:10Z</time>
      </trkpt>
      <trkpt lat="48.44661" lon="2.10018">
        <ele>134.8</ele>
        <time>2023-12-14T11:36:11Z</time>
      </trkpt>
      <trkpt lat="48.44665" lon="2.10026">
        <ele>135.2</ele>
        <time>2023-12-14T11:36:12Z</time>
      </trkpt>
      <trkpt lat="48.44669" lon="2.10033">
        <ele>135.2</ele>
        <time>2023-12-14T11:36:13Z</time>
      </trkpt>
      <trkpt lat="48.44672" lon="2.10041">
        <ele>135.2</ele>
        <time>2023-12-14T11:36:14Z</time>
      </trkpt>
      <trkpt lat="48.44676" lon="2.10049">
        <ele>135.2</ele>
        <time>2023-12-14T11:36:15Z</time>
      </trkpt>
      <trkpt lat="48.44679" lon="2.10057">
        <ele>135.6</ele>
        <time>2023-12-14T11:36:16Z</time>
      </trkpt>
      <trkpt lat="48.44683" lon="2.10065">
        <ele>135.6</ele>
        <time>2023-12-14T11:36:17Z</time>
      </trkpt>
      <trkpt lat="48.44686" lon="2.10073">
        <ele>135.6</ele>
        <time>2023-12-14T11:36:18Z</time>
      </trkpt>
      <trkpt lat="48.4469" lon="2.1008">
        <ele>135.6</ele>
        <time>2023-12-14T11:36:19Z</time>
      </trkpt>
      <trkpt lat="48.44693" lon="2.10088">
        <ele>135.8</ele>
        <time>2023-12-14T11:36:20Z</time>
      </trkpt>
      <trkpt lat="48.44697" lon="2.10096">
        <ele>135.8</ele>
        <time>2023-12-14T11:36:21Z</time>
      </trkpt>
      <trkpt lat="48.447" lon="2.10104">
        <ele>135.8</ele>
        <time>2023-12-14T11:36:22Z</time>
      </trkpt>
      <trkpt lat="48.44704" lon="2.10112">
        <ele>135.8</ele>
        <time>2023-12-14T11:36:23Z</time>
      </trkpt>
      <trkpt lat="48.44707" lon="2.1012">
        <ele>136</ele>
        <time>2023-12-14T11:36:24Z</time>
      </trkpt>
      <trkpt lat="48.44711" lon="2.10127">
        <ele>136</ele>
        <time>2023-12-14T11:36:25Z</time>
      </trkpt>
      <trkpt lat="48.44714" lon="2.10135">
        <ele>136</ele>
        <time>2023-12-14T11:36:26Z</time>
      </trkpt>
      <trkpt lat="48.44718" lon="2.10143">
        <ele>136</ele>
        <time>2023-12-14T11:36:27Z</time>
      </trkpt>
      <trkpt lat="48.44721" lon="2.1015">
        <ele>135.6</ele>
        <time>2023-12-14T11:36:28Z</time>
      </trkpt>
      <trkpt lat="48.44725" lon="2.10158">
        <ele>135.6</ele>
        <time>2023-12-14T11:36:29Z</time>
      </trkpt>
      <trkpt lat="48.44728" lon="2.10166">
        <ele>135.6</ele>
        <time>2023-12-14T11:36:30Z</time>
      </trkpt>
      <trkpt lat="48.44732" lon="2.10174">
        <ele>136.4</ele>
        <time>2023-12-14T11:36:31Z</time>
      </trkpt>
      <trkpt lat="48.44735" lon="2.10181">
        <ele>135.8</ele>
        <time>2023-12-14T11:36:32Z</time>
      </trkpt>
      <trkpt lat="48.44739" lon="2.10189">
        <ele>135.8</ele>
        <time>2023-12-14T11:36:33Z</time>
      </trkpt>
      <trkpt lat="48.44742" lon="2.10197">
        <ele>135.8</ele>
        <time>2023-12-14T11:36:34Z</time>
      </trkpt>
      <trkpt lat="48.44745" lon="2.10205">
        <ele>136.8</ele>
        <time>2023-12-14T11:36:35Z</time>
      </trkpt>
      <trkpt lat="48.44748" lon="2.10213">
        <ele>136.4</ele>
        <time>2023-12-14T11:36:36Z</time>
      </trkpt>
      <trkpt lat="48.4475" lon="2.10222">
        <ele>136.4</ele>
        <time>2023-12-14T11:36:37Z</time>
      </trkpt>
      <trkpt lat="48.44752" lon="2.10231">
        <ele>136.4</ele>
        <time>2023-12-14T11:36:38Z</time>
      </trkpt>
      <trkpt lat="48.44753" lon="2.1024">
        <ele>136.6</ele>
        <time>2023-12-14T11:36:39Z</time>
      </trkpt>
      <trkpt lat="48.44754" lon="2.1025">
        <ele>138</ele>
        <time>2023-12-14T11:36:40Z</time>
      </trkpt>
      <trkpt lat="48.44754" lon="2.10259">
        <ele>138</ele>
        <time>2023-12-14T11:36:41Z</time>
      </trkpt>
      <trkpt lat="48.44754" lon="2.10269">
        <ele>138</ele>
        <time>2023-12-14T11:36:42Z</time>
      </trkpt>
      <trkpt lat="48.44754" lon="2.10278">
        <ele>137.2</ele>
        <time>2023-12-14T11:36:43Z</time>
      </trkpt>
      <trkpt lat="48.44753" lon="2.10288">
        <ele>137.2</ele>
        <time>2023-12-14T11:36:44Z</time>
      </trkpt>
      <trkpt lat="48.44751" lon="2.10297">
        <ele>137.2</ele>
        <time>2023-12-14T11:36:45Z</time>
      </trkpt>
      <trkpt lat="48.4475" lon="2.10307">
        <ele>137.2</ele>
        <time>2023-12-14T11:36:46Z</time>
      </trkpt>
      <trkpt lat="48.44748" lon="2.10316">
        <ele>137.2</ele>
        <time>2023-12-14T11:36:47Z</time>
      </trkpt>
      <trkpt lat="48.44746" lon="2.10326">
        <ele>137</ele>
        <time>2023-12-14T11:36:48Z</time>
      </trkpt>
      <trkpt lat="48.44744" lon="2.10335">
        <ele>137</ele>
        <time>2023-12-14T11:36:49Z</time>
      </trkpt>
      <trkpt lat="48.44742" lon="2.10344">
        <ele>137</ele>
        <time>2023-12-14T11:36:50Z</time>
      </trkpt>
      <trkpt lat="48.44739" lon="2.10354">
        <ele>137</ele>
        <time>2023-12-14T11:36:51Z</time>
      </trkpt>
      <trkpt lat="48.44737" lon="2.10363">
        <ele>137.4</ele>
        <time>2023-12-14T11:36:52Z</time>
      </trkpt>
      <trkpt lat="48.44735" lon="2.10373">
        <ele>137.4</ele>
        <time>2023-12-14T11:36:53Z</time>
      </trkpt>
      <trkpt lat="48.44732" lon="2.10383">
        <ele>137.4</ele>
        <time>2023-12-14T11:36:54Z</time>
      </trkpt>
      <trkpt lat="48.4473" lon="2.10392">
        <ele>137.4</ele>
        <time>2023-12-14T11:36:55Z</time>
      </trkpt>
      <trkpt lat="48.44727" lon="2.10402">
        <ele>137.8</ele>
        <time>2023-12-14T11:36:56Z</time>
      </trkpt>
      <trkpt lat="48.44724" lon="2.10411">
        <ele>137.8</ele>
        <time>2023-12-14T11:36:57Z</time>
      </trkpt>
      <trkpt lat="48.44721" lon="2.1042">
        <ele>137.8</ele>
        <time>2023-12-14T11:36:58Z</time>
      </trkpt>
      <trkpt lat="48.44718" lon="2.10429">
        <ele>137.8</ele>
        <time>2023-12-14T11:36:59Z</time>
      </trkpt>
      <trkpt lat="48.44714" lon="2.10438">
        <ele>137.2</ele>
        <time>2023-12-14T11:37:00Z</time>
      </trkpt>
      <trkpt lat="48.44711" lon="2.10446">
        <ele>137.2</ele>
        <time>2023-12-14T11:37:01Z</time>
      </trkpt>
      <trkpt lat="48.44708" lon="2.10455">
        <ele>137.2</ele>
        <time>2023-12-14T11:37:02Z</time>
      </trkpt>
      <trkpt lat="48.44705" lon="2.10463">
        <ele>137</ele>
        <time>2023-12-14T11:37:03Z</time>
      </trkpt>
      <trkpt lat="48.44701" lon="2.10471">
        <ele>137.2</ele>
        <time>2023-12-14T11:37:04Z</time>
      </trkpt>
      <trkpt lat="48.44697" lon="2.10478">
        <ele>137.2</ele>
        <time>2023-12-14T11:37:05Z</time>
      </trkpt>
      <trkpt lat="48.44692" lon="2.10485">
        <ele>137.2</ele>
        <time>2023-12-14T11:37:06Z</time>
      </trkpt>
      <trkpt lat="48.44687" lon="2.10491">
        <ele>137.2</ele>
        <time>2023-12-14T11:37:07Z</time>
      </trkpt>
      <trkpt lat="48.44682" lon="2.10497">
        <ele>137.2</ele>
        <time>2023-12-14T11:37:08Z</time>
      </trkpt>
      <trkpt lat="48.44677" lon="2.10502">
        <ele>137.2</ele>
        <time>2023-12-14T11:37:09Z</time>
      </trkpt>
      <trkpt lat="48.44671" lon="2.10507">
        <ele>137.2</ele>
        <time>2023-12-14T11:37:10Z</time>
      </trkpt>
      <trkpt lat="48.44665" lon="2.10511">
        <ele>137.2</ele>
        <time>2023-12-14T11:37:11Z</time>
      </trkpt>
      <trkpt lat="48.4466" lon="2.10515">
        <ele>137.2</ele>
        <time>2023-12-14T11:37:12Z</time>
      </trkpt>
      <trkpt lat="48.44654" lon="2.10519">
        <ele>137.2</ele>
        <time>2023-12-14T11:37:13Z</time>
      </trkpt>
      <trkpt lat="48.44648" lon="2.10522">
        <ele>137.2</ele>
        <time>2023-12-14T11:37:14Z</time>
      </trkpt>
      <trkpt lat="48.44642" lon="2.10527">
        <ele>137.2</ele>
        <time>2023-12-14T11:37:15Z</time>
      </trkpt>
      <trkpt lat="48.44637" lon="2.10533">
        <ele>137</ele>
        <time>2023-12-14T11:37:16Z</time>
      </trkpt>
      <trkpt lat="48.44633" lon="2.10541">
        <ele>137</ele>
        <time>2023-12-14T11:37:17Z</time>
      </trkpt>
      <trkpt lat="48.44629" lon="2.1055">
        <ele>137</ele>
        <time>2023-12-14T11:37:18Z</time>
      </trkpt>
      <trkpt lat="48.44628" lon="2.10561">
        <ele>137</ele>
        <time>2023-12-14T11:37:19Z</time>
      </trkpt>
      <trkpt lat="48.44628" lon="2.10571">
        <ele>135.2</ele>
        <time>2023-12-14T11:37:20Z</time>
      </trkpt>
      <trkpt lat="48.4463" lon="2.10581">
        <ele>135.2</ele>
        <time>2023-12-14T11:37:21Z</time>
      </trkpt>
      <trkpt lat="48.44634" lon="2.10589">
        <ele>135.2</ele>
        <time>2023-12-14T11:37:22Z</time>
      </trkpt>
      <trkpt lat="48.44639" lon="2.10597">
        <ele>134.2</ele>
        <time>2023-12-14T11:37:23Z</time>
      </trkpt>
      <trkpt lat="48.44644" lon="2.10604">
        <ele>134.2</ele>
        <time>2023-12-14T11:37:24Z</time>
      </trkpt>
      <trkpt lat="48.44649" lon="2.10611">
        <ele>134.2</ele>
        <time>2023-12-14T11:37:25Z</time>
      </trkpt>
      <trkpt lat="48.44654" lon="2.10618">
        <ele>134.2</ele>
        <time>2023-12-14T11:37:26Z</time>
      </trkpt>
      <trkpt lat="48.44658" lon="2.10626">
        <ele>134.2</ele>
        <time>2023-12-14T11:37:27Z</time>
      </trkpt>
      <trkpt lat="48.44661" lon="2.10635">
        <ele>135.4</ele>
        <time>2023-12-14T11:37:28Z</time>
      </trkpt>
      <trkpt lat="48.44664" lon="2.10644">
        <ele>135.4</ele>
        <time>2023-12-14T11:37:29Z</time>
      </trkpt>
      <trkpt lat="48.44667" lon="2.10653">
        <ele>135.4</ele>
        <time>2023-12-14T11:37:30Z</time>
      </trkpt>
      <trkpt lat="48.44671" lon="2.10661">
        <ele>135.4</ele>
        <time>2023-12-14T11:37:31Z</time>
      </trkpt>
      <trkpt lat="48.44675" lon="2.10667">
        <ele>135</ele>
        <time>2023-12-14T11:37:32Z</time>
      </trkpt>
      <trkpt lat="48.4468" lon="2.10672">
        <ele>135</ele>
        <time>2023-12-14T11:37:33Z</time>
      </trkpt>
      <trkpt lat="48.44686" lon="2.10675">
        <ele>135</ele>
        <time>2023-12-14T11:37:34Z</time>
      </trkpt>
      <trkpt lat="48.44692" lon="2.10678">
        <ele>134.6</ele>
        <time>2023-12-14T11:37:35Z</time>
      </trkpt>
      <trkpt lat="48.44698" lon="2.10681">
        <ele>134.4</ele>
        <time>2023-12-14T11:37:36Z</time>
      </trkpt>
      <trkpt lat="48.44703" lon="2.10686">
        <ele>134.4</ele>
        <time>2023-12-14T11:37:37Z</time>
      </trkpt>
      <trkpt lat="48.44708" lon="2.10692">
        <ele>134.4</ele>
        <time>2023-12-14T11:37:38Z</time>
      </trkpt>
      <trkpt lat="48.44712" lon="2.107">
        <ele>134.6</ele>
        <time>2023-12-14T11:37:39Z</time>
      </trkpt>
      <trkpt lat="48.44716" lon="2.10708">
        <ele>134.8</ele>
        <time>2023-12-14T11:37:40Z</time>
      </trkpt>
      <trkpt lat="48.4472" lon="2.10716">
        <ele>134.8</ele>
        <time>2023-12-14T11:37:41Z</time>
      </trkpt>
      <trkpt lat="48.44723" lon="2.10724">
        <ele>134.8</ele>
        <time>2023-12-14T11:37:42Z</time>
      </trkpt>
      <trkpt lat="48.44728" lon="2.10731">
        <ele>134.8</ele>
        <time>2023-12-14T11:37:43Z</time>
      </trkpt>
      <trkpt lat="48.44732" lon="2.10738">
        <ele>135.2</ele>
        <time>2023-12-14T11:37:44Z</time>
      </trkpt>
      <trkpt lat="48.44737" lon="2.10744">
        <ele>135.2</ele>
        <time>2023-12-14T11:37:45Z</time>
      </trkpt>
      <trkpt lat="48.44742" lon="2.1075">
        <ele>135.2</ele>
        <time>2023-12-14T11:37:46Z</time>
      </trkpt>
      <trkpt lat="48.44747" lon="2.10755">
        <ele>134.6</ele>
        <time>2023-12-14T11:37:47Z</time>
      </trkpt>
      <trkpt lat="48.44751" lon="2.10759">
        <ele>134.2</ele>
        <time>2023-12-14T11:37:48Z</time>
      </trkpt>
      <trkpt lat="48.44756" lon="2.10763">
        <ele>134.2</ele>
        <time>2023-12-14T11:37:49Z</time>
      </trkpt>
      <trkpt lat="48.44761" lon="2.10766">
        <ele>134.2</ele>
        <time>2023-12-14T11:37:50Z</time>
      </trkpt>
      <trkpt lat="48.44766" lon="2.10768">
        <ele>133.6</ele>
        <time>2023-12-14T11:37:51Z</time>
      </trkpt>
      <trkpt lat="48.44771" lon="2.1077">
        <ele>134.4</ele>
        <time>2023-12-14T11:37:52Z</time>
      </trkpt>
      <trkpt lat="48.44775" lon="2.10771">
        <ele>134.4</ele>
        <time>2023-12-14T11:37:53Z</time>
      </trkpt>
      <trkpt lat="48.44779" lon="2.10773">
        <ele>134.4</ele>
        <time>2023-12-14T11:37:54Z</time>
      </trkpt>
      <trkpt lat="48.44784" lon="2.10775">
        <ele>135</ele>
        <time>2023-12-14T11:37:55Z</time>
      </trkpt>
      <trkpt lat="48.44788" lon="2.10776">
        <ele>134.6</ele>
        <time>2023-12-14T11:37:56Z</time>
      </trkpt>
      <trkpt lat="48.44792" lon="2.10778">
        <ele>134.6</ele>
        <time>2023-12-14T11:37:57Z</time>
      </trkpt>
      <trkpt lat="48.44796" lon="2.10779">
        <ele>134.6</ele>
        <time>2023-12-14T11:37:58Z</time>
      </trkpt>
      <trkpt lat="48.448" lon="2.1078">
        <ele>134.6</ele>
        <time>2023-12-14T11:37:59Z</time>
      </trkpt>
      <trkpt lat="48.44805" lon="2.10782">
        <ele>134.2</ele>
        <time>2023-12-14T11:38:00Z</time>
      </trkpt>
      <trkpt lat="48.4481" lon="2.10783">
        <ele>134.2</ele>
        <time>2023-12-14T11:38:01Z</time>
      </trkpt>
      <trkpt lat="48.44814" lon="2.10785">
        <ele>134.2</ele>
        <time>2023-12-14T11:38:02Z</time>
      </trkpt>
      <trkpt lat="48.4482" lon="2.10787">
        <ele>134.2</ele>
        <time>2023-12-14T11:38:03Z</time>
      </trkpt>
      <trkpt lat="48.44825" lon="2.10789">
        <ele>132.6</ele>
        <time>2023-12-14T11:38:04Z</time>
      </trkpt>
      <trkpt lat="48.4483" lon="2.1079">
        <ele>132.6</ele>
        <time>2023-12-14T11:38:05Z</time>
      </trkpt>
      <trkpt lat="48.44835" lon="2.10792">
        <ele>132.6</ele>
        <time>2023-12-14T11:38:06Z</time>
      </trkpt>
      <trkpt lat="48.4484" lon="2.10794">
        <ele>132.6</ele>
        <time>2023-12-14T11:38:07Z</time>
      </trkpt>
      <trkpt lat="48.44846" lon="2.10795">
        <ele>133.2</ele>
        <time>2023-12-14T11:38:08Z</time>
      </trkpt>
      <trkpt lat="48.44851" lon="2.10797">
        <ele>133.2</ele>
        <time>2023-12-14T11:38:09Z</time>
      </trkpt>
      <trkpt lat="48.44856" lon="2.10799">
        <ele>133.2</ele>
        <time>2023-12-14T11:38:10Z</time>
      </trkpt>
      <trkpt lat="48.44861" lon="2.108">
        <ele>133.2</ele>
        <time>2023-12-14T11:38:11Z</time>
      </trkpt>
      <trkpt lat="48.44866" lon="2.10802">
        <ele>133.6</ele>
        <time>2023-12-14T11:38:12Z</time>
      </trkpt>
      <trkpt lat="48.44872" lon="2.10804">
        <ele>133.6</ele>
        <time>2023-12-14T11:38:13Z</time>
      </trkpt>
      <trkpt lat="48.44877" lon="2.10805">
        <ele>133.6</ele>
        <time>2023-12-14T11:38:14Z</time>
      </trkpt>
      <trkpt lat="48.44882" lon="2.10807">
        <ele>133.2</ele>
        <time>2023-12-14T11:38:15Z</time>
      </trkpt>
      <trkpt lat="48.44887" lon="2.10809">
        <ele>133.2</ele>
        <time>2023-12-14T11:38:16Z</time>
      </trkpt>
      <trkpt lat="48.44892" lon="2.1081">
        <ele>133.2</ele>
        <time>2023-12-14T11:38:17Z</time>
      </trkpt>
      <trkpt lat="48.44897" lon="2.10812">
        <ele>133.2</ele>
        <time>2023-12-14T11:38:18Z</time>
      </trkpt>
      <trkpt lat="48.44902" lon="2.10814">
        <ele>133.2</ele>
        <time>2023-12-14T11:38:19Z</time>
      </trkpt>
      <trkpt lat="48.44907" lon="2.10816">
        <ele>134.2</ele>
        <time>2023-12-14T11:38:20Z</time>
      </trkpt>
      <trkpt lat="48.44912" lon="2.10817">
        <ele>134.2</ele>
        <time>2023-12-14T11:38:21Z</time>
      </trkpt>
      <trkpt lat="48.44917" lon="2.10819">
        <ele>134.2</ele>
        <time>2023-12-14T11:38:22Z</time>
      </trkpt>
      <trkpt lat="48.44922" lon="2.10821">
        <ele>133.6</ele>
        <time>2023-12-14T11:38:23Z</time>
      </trkpt>
      <trkpt lat="48.44927" lon="2.10822">
        <ele>133.2</ele>
        <time>2023-12-14T11:38:24Z</time>
      </trkpt>
      <trkpt lat="48.44932" lon="2.10824">
        <ele>133.2</ele>
        <time>2023-12-14T11:38:25Z</time>
      </trkpt>
      <trkpt lat="48.44937" lon="2.10826">
        <ele>133.2</ele>
        <time>2023-12-14T11:38:26Z</time>
      </trkpt>
      <trkpt lat="48.44943" lon="2.10828">
        <ele>133.6</ele>
        <time>2023-12-14T11:38:27Z</time>
      </trkpt>
      <trkpt lat="48.44948" lon="2.1083">
        <ele>133.2</ele>
        <time>2023-12-14T11:38:28Z</time>
      </trkpt>
      <trkpt lat="48.44953" lon="2.10831">
        <ele>133.2</ele>
        <time>2023-12-14T11:38:29Z</time>
      </trkpt>
      <trkpt lat="48.44958" lon="2.10833">
        <ele>133.2</ele>
        <time>2023-12-14T11:38:30Z</time>
      </trkpt>
      <trkpt lat="48.44964" lon="2.10835">
        <ele>133.2</ele>
        <time>2023-12-14T11:38:31Z</time>
      </trkpt>
      <trkpt lat="48.44969" lon="2.10837">
        <ele>133.6</ele>
        <time>2023-12-14T11:38:32Z</time>
      </trkpt>
      <trkpt lat="48.44974" lon="2.10838">
        <ele>133.6</ele>
        <time>2023-12-14T11:38:33Z</time>
      </trkpt>
      <trkpt lat="48.44979" lon="2.1084">
        <ele>133.6</ele>
        <time>2023-12-14T11:38:34Z</time>
      </trkpt>
      <trkpt lat="48.44985" lon="2.10842">
        <ele>133.6</ele>
        <time>2023-12-14T11:38:35Z</time>
      </trkpt>
      <trkpt lat="48.4499" lon="2.10844">
        <ele>133.2</ele>
        <time>2023-12-14T11:38:36Z</time>
      </trkpt>
      <trkpt lat="48.44995" lon="2.10846">
        <ele>133.2</ele>
        <time>2023-12-14T11:38:37Z</time>
      </trkpt>
      <trkpt lat="48.45" lon="2.10848">
        <ele>133.2</ele>
        <time>2023-12-14T11:38:38Z</time>
      </trkpt>
      <trkpt lat="48.45006" lon="2.10849">
        <ele>133.2</ele>
        <time>2023-12-14T11:38:39Z</time>
      </trkpt>
      <trkpt lat="48.45011" lon="2.10851">
        <ele>133.6</ele>
        <time>2023-12-14T11:38:40Z</time>
      </trkpt>
      <trkpt lat="48.45017" lon="2.10853">
        <ele>133.6</ele>
        <time>2023-12-14T11:38:41Z</time>
      </trkpt>
      <trkpt lat="48.45022" lon="2.10854">
        <ele>133.6</ele>
        <time>2023-12-14T11:38:42Z</time>
      </trkpt>
      <trkpt lat="48.45028" lon="2.10856">
        <ele>133</ele>
        <time>2023-12-14T11:38:43Z</time>
      </trkpt>
      <trkpt lat="48.45034" lon="2.10858">
        <ele>133</ele>
        <time>2023-12-14T11:38:44Z</time>
      </trkpt>
      <trkpt lat="48.45039" lon="2.1086">
        <ele>133</ele>
        <time>2023-12-14T11:38:45Z</time>
      </trkpt>
      <trkpt lat="48.45045" lon="2.10862">
        <ele>133</ele>
        <time>2023-12-14T11:38:46Z</time>
      </trkpt>
      <trkpt lat="48.4505" lon="2.10863">
        <ele>133.2</ele>
        <time>2023-12-14T11:38:47Z</time>
      </trkpt>
      <trkpt lat="48.45056" lon="2.10865">
        <ele>133.4</ele>
        <time>2023-12-14T11:38:48Z</time>
      </trkpt>
      <trkpt lat="48.45061" lon="2.10867">
        <ele>133.4</ele>
        <time>2023-12-14T11:38:49Z</time>
      </trkpt>
      <trkpt lat="48.45067" lon="2.10869">
        <ele>133.4</ele>
        <time>2023-12-14T11:38:50Z</time>
      </trkpt>
      <trkpt lat="48.45072" lon="2.1087">
        <ele>133.4</ele>
        <time>2023-12-14T11:38:51Z</time>
      </trkpt>
      <trkpt lat="48.45078" lon="2.10872">
        <ele>132.8</ele>
        <time>2023-12-14T11:38:52Z</time>
      </trkpt>
      <trkpt lat="48.45083" lon="2.10874">
        <ele>132.8</ele>
        <time>2023-12-14T11:38:53Z</time>
      </trkpt>
      <trkpt lat="48.45089" lon="2.10876">
        <ele>132.8</ele>
        <time>2023-12-14T11:38:54Z</time>
      </trkpt>
      <trkpt lat="48.45094" lon="2.10878">
        <ele>133.4</ele>
        <time>2023-12-14T11:38:55Z</time>
      </trkpt>
      <trkpt lat="48.451" lon="2.1088">
        <ele>133.2</ele>
        <time>2023-12-14T11:38:56Z</time>
      </trkpt>
      <trkpt lat="48.45105" lon="2.10881">
        <ele>133.2</ele>
        <time>2023-12-14T11:38:57Z</time>
      </trkpt>
      <trkpt lat="48.45111" lon="2.10883">
        <ele>133.2</ele>
        <time>2023-12-14T11:38:58Z</time>
      </trkpt>
      <trkpt lat="48.45116" lon="2.10885">
        <ele>133.2</ele>
        <time>2023-12-14T11:38:59Z</time>
      </trkpt>
      <trkpt lat="48.45122" lon="2.10887">
        <ele>133.2</ele>
        <time>2023-12-14T11:39:00Z</time>
      </trkpt>
      <trkpt lat="48.45128" lon="2.10888">
        <ele>133.2</ele>
        <time>2023-12-14T11:39:01Z</time>
      </trkpt>
      <trkpt lat="48.45133" lon="2.1089">
        <ele>133.2</ele>
        <time>2023-12-14T11:39:02Z</time>
      </trkpt>
      <trkpt lat="48.45139" lon="2.10891">
        <ele>133.2</ele>
        <time>2023-12-14T11:39:03Z</time>
      </trkpt>
      <trkpt lat="48.45145" lon="2.10892">
        <ele>132.6</ele>
        <time>2023-12-14T11:39:04Z</time>
      </trkpt>
      <trkpt lat="48.45151" lon="2.10893">
        <ele>132.6</ele>
        <time>2023-12-14T11:39:05Z</time>
      </trkpt>
      <trkpt lat="48.45156" lon="2.10894">
        <ele>132.6</ele>
        <time>2023-12-14T11:39:06Z</time>
      </trkpt>
      <trkpt lat="48.45162" lon="2.10895">
        <ele>132.6</ele>
        <time>2023-12-14T11:39:07Z</time>
      </trkpt>
      <trkpt lat="48.45168" lon="2.10896">
        <ele>132.2</ele>
        <time>2023-12-14T11:39:08Z</time>
      </trkpt>
      <trkpt lat="48.45174" lon="2.10897">
        <ele>132.2</ele>
        <time>2023-12-14T11:39:09Z</time>
      </trkpt>
      <trkpt lat="48.45179" lon="2.10898">
        <ele>132.2</ele>
        <time>2023-12-14T11:39:10Z</time>
      </trkpt>
      <trkpt lat="48.45185" lon="2.10898">
        <ele>132.2</ele>
        <time>2023-12-14T11:39:11Z</time>
      </trkpt>
      <trkpt lat="48.45191" lon="2.10899">
        <ele>132.4</ele>
        <time>2023-12-14T11:39:12Z</time>
      </trkpt>
      <trkpt lat="48.45197" lon="2.10899">
        <ele>132.4</ele>
        <time>2023-12-14T11:39:13Z</time>
      </trkpt>
      <trkpt lat="48.45202" lon="2.10899">
        <ele>132.4</ele>
        <time>2023-12-14T11:39:14Z</time>
      </trkpt>
      <trkpt lat="48.45208" lon="2.10899">
        <ele>132.4</ele>
        <time>2023-12-14T11:39:15Z</time>
      </trkpt>
      <trkpt lat="48.45214" lon="2.10898">
        <ele>132.6</ele>
        <time>2023-12-14T11:39:16Z</time>
      </trkpt>
      <trkpt lat="48.4522" lon="2.10898">
        <ele>132.6</ele>
        <time>2023-12-14T11:39:17Z</time>
      </trkpt>
      <trkpt lat="48.45225" lon="2.10898">
        <ele>132.6</ele>
        <time>2023-12-14T11:39:18Z</time>
      </trkpt>
      <trkpt lat="48.45231" lon="2.10898">
        <ele>132</ele>
        <time>2023-12-14T11:39:19Z</time>
      </trkpt>
      <trkpt lat="48.45237" lon="2.10897">
        <ele>132</ele>
        <time>2023-12-14T11:39:20Z</time>
      </trkpt>
      <trkpt lat="48.45243" lon="2.10897">
        <ele>132</ele>
        <time>2023-12-14T11:39:21Z</time>
      </trkpt>
      <trkpt lat="48.45248" lon="2.10897">
        <ele>132</ele>
        <time>2023-12-14T11:39:22Z</time>
      </trkpt>
      <trkpt lat="48.45254" lon="2.10896">
        <ele>132</ele>
        <time>2023-12-14T11:39:23Z</time>
      </trkpt>
      <trkpt lat="48.4526" lon="2.10896">
        <ele>132.2</ele>
        <time>2023-12-14T11:39:24Z</time>
      </trkpt>
      <trkpt lat="48.45266" lon="2.10895">
        <ele>132.2</ele>
        <time>2023-12-14T11:39:25Z</time>
      </trkpt>
      <trkpt lat="48.45272" lon="2.10895">
        <ele>132.2</ele>
        <time>2023-12-14T11:39:26Z</time>
      </trkpt>
      <trkpt lat="48.45277" lon="2.10894">
        <ele>131.8</ele>
        <time>2023-12-14T11:39:27Z</time>
      </trkpt>
      <trkpt lat="48.45283" lon="2.10894">
        <ele>131.8</ele>
        <time>2023-12-14T11:39:28Z</time>
      </trkpt>
      <trkpt lat="48.45289" lon="2.10893">
        <ele>131.8</ele>
        <time>2023-12-14T11:39:29Z</time>
      </trkpt>
      <trkpt lat="48.45295" lon="2.10893">
        <ele>131.8</ele>
        <time>2023-12-14T11:39:30Z</time>
      </trkpt>
      <trkpt lat="48.45301" lon="2.10893">
        <ele>131.8</ele>
        <time>2023-12-14T11:39:31Z</time>
      </trkpt>
      <trkpt lat="48.45307" lon="2.10893">
        <ele>130.8</ele>
        <time>2023-12-14T11:39:32Z</time>
      </trkpt>
      <trkpt lat="48.45313" lon="2.10893">
        <ele>130.8</ele>
        <time>2023-12-14T11:39:33Z</time>
      </trkpt>
      <trkpt lat="48.45318" lon="2.10892">
        <ele>130.8</ele>
        <time>2023-12-14T11:39:34Z</time>
      </trkpt>
      <trkpt lat="48.45324" lon="2.10892">
        <ele>130.8</ele>
        <time>2023-12-14T11:39:35Z</time>
      </trkpt>
      <trkpt lat="48.4533" lon="2.10891">
        <ele>130.4</ele>
        <time>2023-12-14T11:39:36Z</time>
      </trkpt>
      <trkpt lat="48.45336" lon="2.10891">
        <ele>130.4</ele>
        <time>2023-12-14T11:39:37Z</time>
      </trkpt>
      <trkpt lat="48.45341" lon="2.1089">
        <ele>130.4</ele>
        <time>2023-12-14T11:39:38Z</time>
      </trkpt>
      <trkpt lat="48.45347" lon="2.1089">
        <ele>131</ele>
        <time>2023-12-14T11:39:39Z</time>
      </trkpt>
      <trkpt lat="48.45353" lon="2.1089">
        <ele>131.4</ele>
        <time>2023-12-14T11:39:40Z</time>
      </trkpt>
      <trkpt lat="48.45359" lon="2.1089">
        <ele>131.4</ele>
        <time>2023-12-14T11:39:41Z</time>
      </trkpt>
      <trkpt lat="48.45364" lon="2.1089">
        <ele>131.4</ele>
        <time>2023-12-14T11:39:42Z</time>
      </trkpt>
      <trkpt lat="48.4537" lon="2.10889">
        <ele>130.4</ele>
        <time>2023-12-14T11:39:43Z</time>
      </trkpt>
      <trkpt lat="48.45376" lon="2.10889">
        <ele>130.4</ele>
        <time>2023-12-14T11:39:44Z</time>
      </trkpt>
      <trkpt lat="48.45382" lon="2.10889">
        <ele>130.4</ele>
        <time>2023-12-14T11:39:45Z</time>
      </trkpt>
      <trkpt lat="48.45387" lon="2.10888">
        <ele>130.4</ele>
        <time>2023-12-14T11:39:46Z</time>
      </trkpt>
      <trkpt lat="48.45393" lon="2.10888">
        <ele>130.2</ele>
        <time>2023-12-14T11:39:47Z</time>
      </trkpt>
      <trkpt lat="48.45399" lon="2.10887">
        <ele>130.8</ele>
        <time>2023-12-14T11:39:48Z</time>
      </trkpt>
      <trkpt lat="48.45404" lon="2.10887">
        <ele>130.8</ele>
        <time>2023-12-14T11:39:49Z</time>
      </trkpt>
      <trkpt lat="48.4541" lon="2.10887">
        <ele>130.8</ele>
        <time>2023-12-14T11:39:50Z</time>
      </trkpt>
      <trkpt lat="48.45416" lon="2.10887">
        <ele>130.2</ele>
        <time>2023-12-14T11:39:51Z</time>
      </trkpt>
      <trkpt lat="48.45422" lon="2.10886">
        <ele>130.2</ele>
        <time>2023-12-14T11:39:52Z</time>
      </trkpt>
      <trkpt lat="48.45427" lon="2.10886">
        <ele>130.2</ele>
        <time>2023-12-14T11:39:53Z</time>
      </trkpt>
      <trkpt lat="48.45433" lon="2.10885">
        <ele>130.2</ele>
        <time>2023-12-14T11:39:54Z</time>
      </trkpt>
      <trkpt lat="48.45439" lon="2.10885">
        <ele>131.2</ele>
        <time>2023-12-14T11:39:55Z</time>
      </trkpt>
      <trkpt lat="48.45445" lon="2.10885">
        <ele>130.6</ele>
        <time>2023-12-14T11:39:56Z</time>
      </trkpt>
      <trkpt lat="48.4545" lon="2.10884">
        <ele>130.6</ele>
        <time>2023-12-14T11:39:57Z</time>
      </trkpt>
      <trkpt lat="48.45456" lon="2.10884">
        <ele>130.6</ele>
        <time>2023-12-14T11:39:58Z</time>
      </trkpt>
      <trkpt lat="48.45462" lon="2.10883">
        <ele>130.6</ele>
        <time>2023-12-14T11:39:59Z</time>
      </trkpt>
      <trkpt lat="48.45467" lon="2.10883">
        <ele>130.8</ele>
        <time>2023-12-14T11:40:00Z</time>
      </trkpt>
      <trkpt lat="48.45473" lon="2.10882">
        <ele>130.8</ele>
        <time>2023-12-14T11:40:01Z</time>
      </trkpt>
      <trkpt lat="48.45479" lon="2.10881">
        <ele>130.8</ele>
        <time>2023-12-14T11:40:02Z</time>
      </trkpt>
      <trkpt lat="48.45484" lon="2.10881">
        <ele>130.8</ele>
        <time>2023-12-14T11:40:03Z</time>
      </trkpt>
      <trkpt lat="48.4549" lon="2.10881">
        <ele>130.4</ele>
        <time>2023-12-14T11:40:04Z</time>
      </trkpt>
      <trkpt lat="48.45496" lon="2.10881">
        <ele>130.4</ele>
        <time>2023-12-14T11:40:05Z</time>
      </trkpt>
      <trkpt lat="48.45502" lon="2.1088">
        <ele>130.4</ele>
        <time>2023-12-14T11:40:06Z</time>
      </trkpt>
      <trkpt lat="48.45507" lon="2.1088">
        <ele>130.4</ele>
        <time>2023-12-14T11:40:07Z</time>
      </trkpt>
      <trkpt lat="48.45513" lon="2.10879">
        <ele>130.6</ele>
        <time>2023-12-14T11:40:08Z</time>
      </trkpt>
      <trkpt lat="48.45519" lon="2.10879">
        <ele>130.6</ele>
        <time>2023-12-14T11:40:09Z</time>
      </trkpt>
      <trkpt lat="48.45524" lon="2.10879">
        <ele>130.6</ele>
        <time>2023-12-14T11:40:10Z</time>
      </trkpt>
      <trkpt lat="48.4553" lon="2.10878">
        <ele>130.6</ele>
        <time>2023-12-14T11:40:11Z</time>
      </trkpt>
      <trkpt lat="48.45535" lon="2.10878">
        <ele>130</ele>
        <time>2023-12-14T11:40:12Z</time>
      </trkpt>
      <trkpt lat="48.45541" lon="2.10877">
        <ele>130</ele>
        <time>2023-12-14T11:40:13Z</time>
      </trkpt>
      <trkpt lat="48.45546" lon="2.10876">
        <ele>130</ele>
        <time>2023-12-14T11:40:14Z</time>
      </trkpt>
      <trkpt lat="48.45552" lon="2.10874">
        <ele>129.2</ele>
        <time>2023-12-14T11:40:15Z</time>
      </trkpt>
      <trkpt lat="48.45557" lon="2.10873">
        <ele>129.4</ele>
        <time>2023-12-14T11:40:16Z</time>
      </trkpt>
      <trkpt lat="48.45562" lon="2.10871">
        <ele>129.4</ele>
        <time>2023-12-14T11:40:17Z</time>
      </trkpt>
      <trkpt lat="48.45568" lon="2.10869">
        <ele>129.4</ele>
        <time>2023-12-14T11:40:18Z</time>
      </trkpt>
      <trkpt lat="48.45573" lon="2.10867">
        <ele>129</ele>
        <time>2023-12-14T11:40:19Z</time>
      </trkpt>
      <trkpt lat="48.45578" lon="2.10864">
        <ele>128.6</ele>
        <time>2023-12-14T11:40:20Z</time>
      </trkpt>
      <trkpt lat="48.45583" lon="2.10861">
        <ele>128.6</ele>
        <time>2023-12-14T11:40:21Z</time>
      </trkpt>
      <trkpt lat="48.45588" lon="2.10858">
        <ele>128.6</ele>
        <time>2023-12-14T11:40:22Z</time>
      </trkpt>
      <trkpt lat="48.45592" lon="2.10854">
        <ele>128.6</ele>
        <time>2023-12-14T11:40:23Z</time>
      </trkpt>
      <trkpt lat="48.45597" lon="2.1085">
        <ele>127.6</ele>
        <time>2023-12-14T11:40:24Z</time>
      </trkpt>
      <trkpt lat="48.45601" lon="2.10846">
        <ele>127.6</ele>
        <time>2023-12-14T11:40:25Z</time>
      </trkpt>
      <trkpt lat="48.45606" lon="2.10842">
        <ele>127.6</ele>
        <time>2023-12-14T11:40:26Z</time>
      </trkpt>
      <trkpt lat="48.4561" lon="2.10838">
        <ele>128.6</ele>
        <time>2023-12-14T11:40:27Z</time>
      </trkpt>
      <trkpt lat="48.45615" lon="2.10834">
        <ele>128.6</ele>
        <time>2023-12-14T11:40:28Z</time>
      </trkpt>
      <trkpt lat="48.45619" lon="2.10829">
        <ele>128.6</ele>
        <time>2023-12-14T11:40:29Z</time>
      </trkpt>
      <trkpt lat="48.45624" lon="2.10825">
        <ele>128.6</ele>
        <time>2023-12-14T11:40:30Z</time>
      </trkpt>
      <trkpt lat="48.45628" lon="2.1082">
        <ele>128.6</ele>
        <time>2023-12-14T11:40:31Z</time>
      </trkpt>
      <trkpt lat="48.45632" lon="2.10815">
        <ele>128</ele>
        <time>2023-12-14T11:40:32Z</time>
      </trkpt>
      <trkpt lat="48.45637" lon="2.1081">
        <ele>128</ele>
        <time>2023-12-14T11:40:33Z</time>
      </trkpt>
      <trkpt lat="48.45641" lon="2.10806">
        <ele>128</ele>
        <time>2023-12-14T11:40:34Z</time>
      </trkpt>
      <trkpt lat="48.45645" lon="2.10801">
        <ele>128</ele>
        <time>2023-12-14T11:40:35Z</time>
      </trkpt>
      <trkpt lat="48.45649" lon="2.10796">
        <ele>128</ele>
        <time>2023-12-14T11:40:36Z</time>
      </trkpt>
      <trkpt lat="48.45654" lon="2.10791">
        <ele>128</ele>
        <time>2023-12-14T11:40:37Z</time>
      </trkpt>
      <trkpt lat="48.45658" lon="2.10787">
        <ele>128</ele>
        <time>2023-12-14T11:40:38Z</time>
      </trkpt>
      <trkpt lat="48.45662" lon="2.10782">
        <ele>128</ele>
        <time>2023-12-14T11:40:39Z</time>
      </trkpt>
      <trkpt lat="48.45667" lon="2.10778">
        <ele>128.6</ele>
        <time>2023-12-14T11:40:40Z</time>
      </trkpt>
      <trkpt lat="48.45671" lon="2.10774">
        <ele>128.6</ele>
        <time>2023-12-14T11:40:41Z</time>
      </trkpt>
      <trkpt lat="48.45676" lon="2.1077">
        <ele>128.6</ele>
        <time>2023-12-14T11:40:42Z</time>
      </trkpt>
      <trkpt lat="48.45681" lon="2.10767">
        <ele>129.6</ele>
        <time>2023-12-14T11:40:43Z</time>
      </trkpt>
      <trkpt lat="48.45685" lon="2.10763">
        <ele>129.8</ele>
        <time>2023-12-14T11:40:44Z</time>
      </trkpt>
      <trkpt lat="48.4569" lon="2.1076">
        <ele>129.8</ele>
        <time>2023-12-14T11:40:45Z</time>
      </trkpt>
      <trkpt lat="48.45695" lon="2.10757">
        <ele>129.8</ele>
        <time>2023-12-14T11:40:46Z</time>
      </trkpt>
      <trkpt lat="48.457" lon="2.10754">
        <ele>129.6</ele>
        <time>2023-12-14T11:40:47Z</time>
      </trkpt>
      <trkpt lat="48.45705" lon="2.1075">
        <ele>128.4</ele>
        <time>2023-12-14T11:40:48Z</time>
      </trkpt>
      <trkpt lat="48.4571" lon="2.10747">
        <ele>128.4</ele>
        <time>2023-12-14T11:40:49Z</time>
      </trkpt>
      <trkpt lat="48.45714" lon="2.10743">
        <ele>128.4</ele>
        <time>2023-12-14T11:40:50Z</time>
      </trkpt>
      <trkpt lat="48.45719" lon="2.10739">
        <ele>128.4</ele>
        <time>2023-12-14T11:40:51Z</time>
      </trkpt>
      <trkpt lat="48.45723" lon="2.10736">
        <ele>129.6</ele>
        <time>2023-12-14T11:40:52Z</time>
      </trkpt>
      <trkpt lat="48.45728" lon="2.10733">
        <ele>129.6</ele>
        <time>2023-12-14T11:40:53Z</time>
      </trkpt>
      <trkpt lat="48.45733" lon="2.10729">
        <ele>129.6</ele>
        <time>2023-12-14T11:40:54Z</time>
      </trkpt>
      <trkpt lat="48.45737" lon="2.10726">
        <ele>128.6</ele>
        <time>2023-12-14T11:40:55Z</time>
      </trkpt>
      <trkpt lat="48.45742" lon="2.10724">
        <ele>128.8</ele>
        <time>2023-12-14T11:40:56Z</time>
      </trkpt>
      <trkpt lat="48.45747" lon="2.10721">
        <ele>128.8</ele>
        <time>2023-12-14T11:40:57Z</time>
      </trkpt>
      <trkpt lat="48.45751" lon="2.10718">
        <ele>128.8</ele>
        <time>2023-12-14T11:40:58Z</time>
      </trkpt>
      <trkpt lat="48.45755" lon="2.10715">
        <ele>128.8</ele>
        <time>2023-12-14T11:40:59Z</time>
      </trkpt>
      <trkpt lat="48.4576" lon="2.10712">
        <ele>128.6</ele>
        <time>2023-12-14T11:41:00Z</time>
      </trkpt>
      <trkpt lat="48.45764" lon="2.1071">
        <ele>128.6</ele>
        <time>2023-12-14T11:41:01Z</time>
      </trkpt>
      <trkpt lat="48.45768" lon="2.10707">
        <ele>128.6</ele>
        <time>2023-12-14T11:41:02Z</time>
      </trkpt>
      <trkpt lat="48.45773" lon="2.10704">
        <ele>129.6</ele>
        <time>2023-12-14T11:41:03Z</time>
      </trkpt>
      <trkpt lat="48.45777" lon="2.107">
        <ele>130.2</ele>
        <time>2023-12-14T11:41:04Z</time>
      </trkpt>
      <trkpt lat="48.45781" lon="2.10696">
        <ele>130.2</ele>
        <time>2023-12-14T11:41:05Z</time>
      </trkpt>
      <trkpt lat="48.45786" lon="2.10692">
        <ele>130.2</ele>
        <time>2023-12-14T11:41:06Z</time>
      </trkpt>
      <trkpt lat="48.45789" lon="2.10688">
        <ele>130.2</ele>
        <time>2023-12-14T11:41:07Z</time>
      </trkpt>
      <trkpt lat="48.45793" lon="2.10683">
        <ele>130</ele>
        <time>2023-12-14T11:41:08Z</time>
      </trkpt>
      <trkpt lat="48.45797" lon="2.10679">
        <ele>130</ele>
        <time>2023-12-14T11:41:09Z</time>
      </trkpt>
      <trkpt lat="48.458" lon="2.10674">
        <ele>130</ele>
        <time>2023-12-14T11:41:10Z</time>
      </trkpt>
      <trkpt lat="48.45803" lon="2.10669">
        <ele>130</ele>
        <time>2023-12-14T11:41:11Z</time>
      </trkpt>
      <trkpt lat="48.45806" lon="2.10663">
        <ele>129.2</ele>
        <time>2023-12-14T11:41:12Z</time>
      </trkpt>
      <trkpt lat="48.4581" lon="2.10658">
        <ele>129.2</ele>
        <time>2023-12-14T11:41:13Z</time>
      </trkpt>
      <trkpt lat="48.45813" lon="2.10652">
        <ele>129.2</ele>
        <time>2023-12-14T11:41:14Z</time>
      </trkpt>
      <trkpt lat="48.45817" lon="2.10647">
        <ele>129.6</ele>
        <time>2023-12-14T11:41:15Z</time>
      </trkpt>
      <trkpt lat="48.4582" lon="2.10641">
        <ele>129.6</ele>
        <time>2023-12-14T11:41:16Z</time>
      </trkpt>
      <trkpt lat="48.45823" lon="2.10635">
        <ele>129.6</ele>
        <time>2023-12-14T11:41:17Z</time>
      </trkpt>
      <trkpt lat="48.45827" lon="2.1063">
        <ele>129.6</ele>
        <time>2023-12-14T11:41:18Z</time>
      </trkpt>
      <trkpt lat="48.4583" lon="2.10624">
        <ele>129.6</ele>
        <time>2023-12-14T11:41:19Z</time>
      </trkpt>
      <trkpt lat="48.45833" lon="2.10618">
        <ele>130.4</ele>
        <time>2023-12-14T11:41:20Z</time>
      </trkpt>
      <trkpt lat="48.45837" lon="2.10613">
        <ele>130.4</ele>
        <time>2023-12-14T11:41:21Z</time>
      </trkpt>
      <trkpt lat="48.4584" lon="2.10607">
        <ele>130.4</ele>
        <time>2023-12-14T11:41:22Z</time>
      </trkpt>
      <trkpt lat="48.45844" lon="2.10602">
        <ele>130.4</ele>
        <time>2023-12-14T11:41:23Z</time>
      </trkpt>
      <trkpt lat="48.45847" lon="2.10597">
        <ele>130.6</ele>
        <time>2023-12-14T11:41:24Z</time>
      </trkpt>
      <trkpt lat="48.45851" lon="2.10591">
        <ele>130.6</ele>
        <time>2023-12-14T11:41:25Z</time>
      </trkpt>
      <trkpt lat="48.45855" lon="2.10586">
        <ele>130.6</ele>
        <time>2023-12-14T11:41:26Z</time>
      </trkpt>
      <trkpt lat="48.45859" lon="2.10581">
        <ele>130.2</ele>
        <time>2023-12-14T11:41:27Z</time>
      </trkpt>
      <trkpt lat="48.45863" lon="2.10577">
        <ele>130.8</ele>
        <time>2023-12-14T11:41:28Z</time>
      </trkpt>
      <trkpt lat="48.45867" lon="2.10573">
        <ele>130.8</ele>
        <time>2023-12-14T11:41:29Z</time>
      </trkpt>
      <trkpt lat="48.4587" lon="2.10569">
        <ele>130.8</ele>
        <time>2023-12-14T11:41:30Z</time>
      </trkpt>
      <trkpt lat="48.45875" lon="2.10565">
        <ele>130.2</ele>
        <time>2023-12-14T11:41:31Z</time>
      </trkpt>
      <trkpt lat="48.45879" lon="2.10562">
        <ele>130.6</ele>
        <time>2023-12-14T11:41:32Z</time>
      </trkpt>
      <trkpt lat="48.45883" lon="2.10558">
        <ele>130.6</ele>
        <time>2023-12-14T11:41:33Z</time>
      </trkpt>
      <trkpt lat="48.45887" lon="2.10555">
        <ele>130.6</ele>
        <time>2023-12-14T11:41:34Z</time>
      </trkpt>
      <trkpt lat="48.45891" lon="2.10552">
        <ele>130.6</ele>
        <time>2023-12-14T11:41:35Z</time>
      </trkpt>
      <trkpt lat="48.45896" lon="2.10549">
        <ele>131.6</ele>
        <time>2023-12-14T11:41:36Z</time>
      </trkpt>
      <trkpt lat="48.459" lon="2.10546">
        <ele>131.6</ele>
        <time>2023-12-14T11:41:37Z</time>
      </trkpt>
      <trkpt lat="48.45904" lon="2.10543">
        <ele>131.6</ele>
        <time>2023-12-14T11:41:38Z</time>
      </trkpt>
      <trkpt lat="48.45909" lon="2.10541">
        <ele>131.6</ele>
        <time>2023-12-14T11:41:39Z</time>
      </trkpt>
      <trkpt lat="48.45913" lon="2.10538">
        <ele>131.4</ele>
        <time>2023-12-14T11:41:40Z</time>
      </trkpt>
      <trkpt lat="48.45918" lon="2.10536">
        <ele>131.4</ele>
        <time>2023-12-14T11:41:41Z</time>
      </trkpt>
      <trkpt lat="48.45922" lon="2.10533">
        <ele>131.4</ele>
        <time>2023-12-14T11:41:42Z</time>
      </trkpt>
      <trkpt lat="48.45926" lon="2.1053">
        <ele>131.4</ele>
        <time>2023-12-14T11:41:43Z</time>
      </trkpt>
      <trkpt lat="48.45931" lon="2.10528">
        <ele>131.4</ele>
        <time>2023-12-14T11:41:44Z</time>
      </trkpt>
      <trkpt lat="48.45935" lon="2.10525">
        <ele>131.4</ele>
        <time>2023-12-14T11:41:45Z</time>
      </trkpt>
      <trkpt lat="48.4594" lon="2.10523">
        <ele>131.4</ele>
        <time>2023-12-14T11:41:46Z</time>
      </trkpt>
      <trkpt lat="48.45945" lon="2.1052">
        <ele>131.4</ele>
        <time>2023-12-14T11:41:47Z</time>
      </trkpt>
      <trkpt lat="48.45949" lon="2.10517">
        <ele>132</ele>
        <time>2023-12-14T11:41:48Z</time>
      </trkpt>
      <trkpt lat="48.45954" lon="2.10515">
        <ele>132</ele>
        <time>2023-12-14T11:41:49Z</time>
      </trkpt>
      <trkpt lat="48.45958" lon="2.10512">
        <ele>132</ele>
        <time>2023-12-14T11:41:50Z</time>
      </trkpt>
      <trkpt lat="48.45963" lon="2.1051">
        <ele>132.4</ele>
        <time>2023-12-14T11:41:51Z</time>
      </trkpt>
      <trkpt lat="48.45968" lon="2.10507">
        <ele>131.8</ele>
        <time>2023-12-14T11:41:52Z</time>
      </trkpt>
      <trkpt lat="48.45972" lon="2.10505">
        <ele>131.8</ele>
        <time>2023-12-14T11:41:53Z</time>
      </trkpt>
      <trkpt lat="48.45977" lon="2.10502">
        <ele>131.8</ele>
        <time>2023-12-14T11:41:54Z</time>
      </trkpt>
      <trkpt lat="48.45982" lon="2.105">
        <ele>131.8</ele>
        <time>2023-12-14T11:41:55Z</time>
      </trkpt>
      <trkpt lat="48.45986" lon="2.10497">
        <ele>131.2</ele>
        <time>2023-12-14T11:41:56Z</time>
      </trkpt>
      <trkpt lat="48.45991" lon="2.10494">
        <ele>131.2</ele>
        <time>2023-12-14T11:41:57Z</time>
      </trkpt>
      <trkpt lat="48.45996" lon="2.10492">
        <ele>131.2</ele>
        <time>2023-12-14T11:41:58Z</time>
      </trkpt>
      <trkpt lat="48.46" lon="2.10489">
        <ele>131.4</ele>
        <time>2023-12-14T11:41:59Z</time>
      </trkpt>
      <trkpt lat="48.46005" lon="2.10487">
        <ele>131.2</ele>
        <time>2023-12-14T11:42:00Z</time>
      </trkpt>
      <trkpt lat="48.4601" lon="2.10484">
        <ele>131.2</ele>
        <time>2023-12-14T11:42:01Z</time>
      </trkpt>
      <trkpt lat="48.46014" lon="2.10482">
        <ele>131.2</ele>
        <time>2023-12-14T11:42:02Z</time>
      </trkpt>
      <trkpt lat="48.46019" lon="2.10479">
        <ele>131.8</ele>
        <time>2023-12-14T11:42:03Z</time>
      </trkpt>
      <trkpt lat="48.46024" lon="2.10476">
        <ele>133</ele>
        <time>2023-12-14T11:42:04Z</time>
      </trkpt>
      <trkpt lat="48.46028" lon="2.10474">
        <ele>133</ele>
        <time>2023-12-14T11:42:05Z</time>
      </trkpt>
      <trkpt lat="48.46033" lon="2.10471">
        <ele>133</ele>
        <time>2023-12-14T11:42:06Z</time>
      </trkpt>
      <trkpt lat="48.46037" lon="2.10468">
        <ele>132.4</ele>
        <time>2023-12-14T11:42:07Z</time>
      </trkpt>
      <trkpt lat="48.46042" lon="2.10466">
        <ele>133.2</ele>
        <time>2023-12-14T11:42:08Z</time>
      </trkpt>
      <trkpt lat="48.46047" lon="2.10463">
        <ele>133.2</ele>
        <time>2023-12-14T11:42:09Z</time>
      </trkpt>
      <trkpt lat="48.46052" lon="2.1046">
        <ele>133.2</ele>
        <time>2023-12-14T11:42:10Z</time>
      </trkpt>
      <trkpt lat="48.46056" lon="2.10458">
        <ele>133.2</ele>
        <time>2023-12-14T11:42:11Z</time>
      </trkpt>
      <trkpt lat="48.46061" lon="2.10455">
        <ele>133.6</ele>
        <time>2023-12-14T11:42:12Z</time>
      </trkpt>
      <trkpt lat="48.46066" lon="2.10452">
        <ele>133.6</ele>
        <time>2023-12-14T11:42:13Z</time>
      </trkpt>
      <trkpt lat="48.46071" lon="2.10449">
        <ele>133.6</ele>
        <time>2023-12-14T11:42:14Z</time>
      </trkpt>
      <trkpt lat="48.46076" lon="2.10447">
        <ele>133.6</ele>
        <time>2023-12-14T11:42:15Z</time>
      </trkpt>
      <trkpt lat="48.4608" lon="2.10444">
        <ele>133.8</ele>
        <time>2023-12-14T11:42:16Z</time>
      </trkpt>
      <trkpt lat="48.46085" lon="2.10441">
        <ele>133.8</ele>
        <time>2023-12-14T11:42:17Z</time>
      </trkpt>
      <trkpt lat="48.4609" lon="2.10439">
        <ele>133.8</ele>
        <time>2023-12-14T11:42:18Z</time>
      </trkpt>
      <trkpt lat="48.46095" lon="2.10436">
        <ele>133.2</ele>
        <time>2023-12-14T11:42:19Z</time>
      </trkpt>
      <trkpt lat="48.461" lon="2.10433">
        <ele>133.6</ele>
        <time>2023-12-14T11:42:20Z</time>
      </trkpt>
      <trkpt lat="48.46105" lon="2.1043">
        <ele>133.6</ele>
        <time>2023-12-14T11:42:21Z</time>
      </trkpt>
      <trkpt lat="48.46109" lon="2.10427">
        <ele>133.6</ele>
        <time>2023-12-14T11:42:22Z</time>
      </trkpt>
      <trkpt lat="48.46114" lon="2.10424">
        <ele>133</ele>
        <time>2023-12-14T11:42:23Z</time>
      </trkpt>
      <trkpt lat="48.46119" lon="2.10422">
        <ele>133.4</ele>
        <time>2023-12-14T11:42:24Z</time>
      </trkpt>
      <trkpt lat="48.46124" lon="2.10419">
        <ele>133.4</ele>
        <time>2023-12-14T11:42:25Z</time>
      </trkpt>
      <trkpt lat="48.46129" lon="2.10416">
        <ele>133.4</ele>
        <time>2023-12-14T11:42:26Z</time>
      </trkpt>
      <trkpt lat="48.46134" lon="2.10414">
        <ele>133.4</ele>
        <time>2023-12-14T11:42:27Z</time>
      </trkpt>
      <trkpt lat="48.46139" lon="2.10411">
        <ele>132.6</ele>
        <time>2023-12-14T11:42:28Z</time>
      </trkpt>
      <trkpt lat="48.46144" lon="2.10408">
        <ele>132.6</ele>
        <time>2023-12-14T11:42:29Z</time>
      </trkpt>
      <trkpt lat="48.46149" lon="2.10405">
        <ele>132.6</ele>
        <time>2023-12-14T11:42:30Z</time>
      </trkpt>
      <trkpt lat="48.46154" lon="2.10402">
        <ele>132.6</ele>
        <time>2023-12-14T11:42:31Z</time>
      </trkpt>
      <trkpt lat="48.46159" lon="2.104">
        <ele>133.2</ele>
        <time>2023-12-14T11:42:32Z</time>
      </trkpt>
      <trkpt lat="48.46164" lon="2.10397">
        <ele>133.2</ele>
        <time>2023-12-14T11:42:33Z</time>
      </trkpt>
      <trkpt lat="48.46169" lon="2.10394">
        <ele>133.2</ele>
        <time>2023-12-14T11:42:34Z</time>
      </trkpt>
      <trkpt lat="48.46174" lon="2.1039">
        <ele>132.2</ele>
        <time>2023-12-14T11:42:35Z</time>
      </trkpt>
      <trkpt lat="48.46179" lon="2.10387">
        <ele>132.2</ele>
        <time>2023-12-14T11:42:36Z</time>
      </trkpt>
      <trkpt lat="48.46184" lon="2.10384">
        <ele>132.2</ele>
        <time>2023-12-14T11:42:37Z</time>
      </trkpt>
      <trkpt lat="48.46189" lon="2.1038">
        <ele>132.2</ele>
        <time>2023-12-14T11:42:38Z</time>
      </trkpt>
      <trkpt lat="48.46194" lon="2.10377">
        <ele>132.6</ele>
        <time>2023-12-14T11:42:39Z</time>
      </trkpt>
      <trkpt lat="48.462" lon="2.10374">
        <ele>132.6</ele>
        <time>2023-12-14T11:42:40Z</time>
      </trkpt>
      <trkpt lat="48.46205" lon="2.1037">
        <ele>132.6</ele>
        <time>2023-12-14T11:42:41Z</time>
      </trkpt>
      <trkpt lat="48.4621" lon="2.10367">
        <ele>132.6</ele>
        <time>2023-12-14T11:42:42Z</time>
      </trkpt>
      <trkpt lat="48.46215" lon="2.10363">
        <ele>132.6</ele>
        <time>2023-12-14T11:42:43Z</time>
      </trkpt>
      <trkpt lat="48.4622" lon="2.1036">
        <ele>132</ele>
        <time>2023-12-14T11:42:44Z</time>
      </trkpt>
      <trkpt lat="48.46225" lon="2.10357">
        <ele>132</ele>
        <time>2023-12-14T11:42:45Z</time>
      </trkpt>
      <trkpt lat="48.4623" lon="2.10353">
        <ele>132</ele>
        <time>2023-12-14T11:42:46Z</time>
      </trkpt>
      <trkpt lat="48.46236" lon="2.1035">
        <ele>132</ele>
        <time>2023-12-14T11:42:47Z</time>
      </trkpt>
      <trkpt lat="48.46241" lon="2.10346">
        <ele>132.4</ele>
        <time>2023-12-14T11:42:48Z</time>
      </trkpt>
      <trkpt lat="48.46246" lon="2.10343">
        <ele>132.4</ele>
        <time>2023-12-14T11:42:49Z</time>
      </trkpt>
      <trkpt lat="48.46251" lon="2.10339">
        <ele>132.4</ele>
        <time>2023-12-14T11:42:50Z</time>
      </trkpt>
      <trkpt lat="48.46256" lon="2.10335">
        <ele>132.4</ele>
        <time>2023-12-14T11:42:51Z</time>
      </trkpt>
      <trkpt lat="48.46261" lon="2.10332">
        <ele>131.6</ele>
        <time>2023-12-14T11:42:52Z</time>
      </trkpt>
      <trkpt lat="48.46266" lon="2.10328">
        <ele>131.6</ele>
        <time>2023-12-14T11:42:53Z</time>
      </trkpt>
      <trkpt lat="48.46271" lon="2.10324">
        <ele>131.6</ele>
        <time>2023-12-14T11:42:54Z</time>
      </trkpt>
      <trkpt lat="48.46276" lon="2.10321">
        <ele>131.6</ele>
        <time>2023-12-14T11:42:55Z</time>
      </trkpt>
      <trkpt lat="48.46281" lon="2.10317">
        <ele>132.4</ele>
        <time>2023-12-14T11:42:56Z</time>
      </trkpt>
      <trkpt lat="48.46286" lon="2.10314">
        <ele>132.4</ele>
        <time>2023-12-14T11:42:57Z</time>
      </trkpt>
      <trkpt lat="48.46291" lon="2.10311">
        <ele>132.4</ele>
        <time>2023-12-14T11:42:58Z</time>
      </trkpt>
      <trkpt lat="48.46296" lon="2.10307">
        <ele>132.4</ele>
        <time>2023-12-14T11:42:59Z</time>
      </trkpt>
      <trkpt lat="48.46301" lon="2.10304">
        <ele>133.2</ele>
        <time>2023-12-14T11:43:00Z</time>
      </trkpt>
      <trkpt lat="48.46306" lon="2.103">
        <ele>133.2</ele>
        <time>2023-12-14T11:43:01Z</time>
      </trkpt>
      <trkpt lat="48.46311" lon="2.10297">
        <ele>133.2</ele>
        <time>2023-12-14T11:43:02Z</time>
      </trkpt>
      <trkpt lat="48.46316" lon="2.10293">
        <ele>132.8</ele>
        <time>2023-12-14T11:43:03Z</time>
      </trkpt>
      <trkpt lat="48.46321" lon="2.10289">
        <ele>133.4</ele>
        <time>2023-12-14T11:43:04Z</time>
      </trkpt>
      <trkpt lat="48.46326" lon="2.10286">
        <ele>133.4</ele>
        <time>2023-12-14T11:43:05Z</time>
      </trkpt>
      <trkpt lat="48.46331" lon="2.10283">
        <ele>133.4</ele>
        <time>2023-12-14T11:43:06Z</time>
      </trkpt>
      <trkpt lat="48.46336" lon="2.10279">
        <ele>133.4</ele>
        <time>2023-12-14T11:43:07Z</time>
      </trkpt>
      <trkpt lat="48.46341" lon="2.10276">
        <ele>133.8</ele>
        <time>2023-12-14T11:43:08Z</time>
      </trkpt>
      <trkpt lat="48.46346" lon="2.10273">
        <ele>133.8</ele>
        <time>2023-12-14T11:43:09Z</time>
      </trkpt>
      <trkpt lat="48.46351" lon="2.1027">
        <ele>133.8</ele>
        <time>2023-12-14T11:43:10Z</time>
      </trkpt>
      <trkpt lat="48.46356" lon="2.10267">
        <ele>134.6</ele>
        <time>2023-12-14T11:43:11Z</time>
      </trkpt>
      <trkpt lat="48.46361" lon="2.10264">
        <ele>134.8</ele>
        <time>2023-12-14T11:43:12Z</time>
      </trkpt>
      <trkpt lat="48.46366" lon="2.10261">
        <ele>134.8</ele>
        <time>2023-12-14T11:43:13Z</time>
      </trkpt>
      <trkpt lat="48.46371" lon="2.10258">
        <ele>134.8</ele>
        <time>2023-12-14T11:43:14Z</time>
      </trkpt>
      <trkpt lat="48.46376" lon="2.10255">
        <ele>134.8</ele>
        <time>2023-12-14T11:43:15Z</time>
      </trkpt>
      <trkpt lat="48.4638" lon="2.10252">
        <ele>134.2</ele>
        <time>2023-12-14T11:43:16Z</time>
      </trkpt>
      <trkpt lat="48.46385" lon="2.10249">
        <ele>134.2</ele>
        <time>2023-12-14T11:43:17Z</time>
      </trkpt>
      <trkpt lat="48.4639" lon="2.10247">
        <ele>134.2</ele>
        <time>2023-12-14T11:43:18Z</time>
      </trkpt>
      <trkpt lat="48.46395" lon="2.10244">
        <ele>135.2</ele>
        <time>2023-12-14T11:43:19Z</time>
      </trkpt>
      <trkpt lat="48.464" lon="2.10242">
        <ele>135</ele>
        <time>2023-12-14T11:43:20Z</time>
      </trkpt>
      <trkpt lat="48.46405" lon="2.10239">
        <ele>135</ele>
        <time>2023-12-14T11:43:21Z</time>
      </trkpt>
      <trkpt lat="48.4641" lon="2.10237">
        <ele>135</ele>
        <time>2023-12-14T11:43:22Z</time>
      </trkpt>
      <trkpt lat="48.46415" lon="2.10235">
        <ele>135.2</ele>
        <time>2023-12-14T11:43:23Z</time>
      </trkpt>
      <trkpt lat="48.4642" lon="2.10233">
        <ele>135.6</ele>
        <time>2023-12-14T11:43:24Z</time>
      </trkpt>
      <trkpt lat="48.46425" lon="2.10231">
        <ele>135.6</ele>
        <time>2023-12-14T11:43:25Z</time>
      </trkpt>
      <trkpt lat="48.4643" lon="2.10228">
        <ele>135.6</ele>
        <time>2023-12-14T11:43:26Z</time>
      </trkpt>
      <trkpt lat="48.46435" lon="2.10226">
        <ele>136</ele>
        <time>2023-12-14T11:43:27Z</time>
      </trkpt>
      <trkpt lat="48.4644" lon="2.10224">
        <ele>136.8</ele>
        <time>2023-12-14T11:43:28Z</time>
      </trkpt>
      <trkpt lat="48.46445" lon="2.10222">
        <ele>136.8</ele>
        <time>2023-12-14T11:43:29Z</time>
      </trkpt>
      <trkpt lat="48.4645" lon="2.1022">
        <ele>136.8</ele>
        <time>2023-12-14T11:43:30Z</time>
      </trkpt>
      <trkpt lat="48.46455" lon="2.10218">
        <ele>136.4</ele>
        <time>2023-12-14T11:43:31Z</time>
      </trkpt>
      <trkpt lat="48.4646" lon="2.10215">
        <ele>136.2</ele>
        <time>2023-12-14T11:43:32Z</time>
      </trkpt>
      <trkpt lat="48.46465" lon="2.10213">
        <ele>136.2</ele>
        <time>2023-12-14T11:43:33Z</time>
      </trkpt>
      <trkpt lat="48.46469" lon="2.10211">
        <ele>136.2</ele>
        <time>2023-12-14T11:43:34Z</time>
      </trkpt>
      <trkpt lat="48.46474" lon="2.10209">
        <ele>136.6</ele>
        <time>2023-12-14T11:43:35Z</time>
      </trkpt>
      <trkpt lat="48.46479" lon="2.10206">
        <ele>136</ele>
        <time>2023-12-14T11:43:36Z</time>
      </trkpt>
      <trkpt lat="48.46484" lon="2.10204">
        <ele>136</ele>
        <time>2023-12-14T11:43:37Z</time>
      </trkpt>
      <trkpt lat="48.46489" lon="2.10202">
        <ele>136</ele>
        <time>2023-12-14T11:43:38Z</time>
      </trkpt>
      <trkpt lat="48.46494" lon="2.102">
        <ele>136</ele>
        <time>2023-12-14T11:43:39Z</time>
      </trkpt>
      <trkpt lat="48.46499" lon="2.10197">
        <ele>136.2</ele>
        <time>2023-12-14T11:43:40Z</time>
      </trkpt>
      <trkpt lat="48.46504" lon="2.10195">
        <ele>136.2</ele>
        <time>2023-12-14T11:43:41Z</time>
      </trkpt>
      <trkpt lat="48.4651" lon="2.10193">
        <ele>136.2</ele>
        <time>2023-12-14T11:43:42Z</time>
      </trkpt>
      <trkpt lat="48.46515" lon="2.10191">
        <ele>135.2</ele>
        <time>2023-12-14T11:43:43Z</time>
      </trkpt>
      <trkpt lat="48.4652" lon="2.10188">
        <ele>135.6</ele>
        <time>2023-12-14T11:43:44Z</time>
      </trkpt>
      <trkpt lat="48.46525" lon="2.10186">
        <ele>135.6</ele>
        <time>2023-12-14T11:43:45Z</time>
      </trkpt>
      <trkpt lat="48.4653" lon="2.10183">
        <ele>135.6</ele>
        <time>2023-12-14T11:43:46Z</time>
      </trkpt>
      <trkpt lat="48.46535" lon="2.10181">
        <ele>135.6</ele>
        <time>2023-12-14T11:43:47Z</time>
      </trkpt>
      <trkpt lat="48.4654" lon="2.10178">
        <ele>136</ele>
        <time>2023-12-14T11:43:48Z</time>
      </trkpt>
      <trkpt lat="48.46545" lon="2.10175">
        <ele>136</ele>
        <time>2023-12-14T11:43:49Z</time>
      </trkpt>
      <trkpt lat="48.4655" lon="2.10173">
        <ele>136</ele>
        <time>2023-12-14T11:43:50Z</time>
      </trkpt>
      <trkpt lat="48.46556" lon="2.1017">
        <ele>136</ele>
        <time>2023-12-14T11:43:51Z</time>
      </trkpt>
      <trkpt lat="48.46561" lon="2.10168">
        <ele>134.8</ele>
        <time>2023-12-14T11:43:52Z</time>
      </trkpt>
      <trkpt lat="48.46566" lon="2.10166">
        <ele>134.8</ele>
        <time>2023-12-14T11:43:53Z</time>
      </trkpt>
      <trkpt lat="48.46572" lon="2.10163">
        <ele>134.8</ele>
        <time>2023-12-14T11:43:54Z</time>
      </trkpt>
      <trkpt lat="48.46577" lon="2.1016">
        <ele>134.8</ele>
        <time>2023-12-14T11:43:55Z</time>
      </trkpt>
      <trkpt lat="48.46583" lon="2.10157">
        <ele>134</ele>
        <time>2023-12-14T11:43:56Z</time>
      </trkpt>
      <trkpt lat="48.46588" lon="2.10154">
        <ele>134</ele>
        <time>2023-12-14T11:43:57Z</time>
      </trkpt>
      <trkpt lat="48.46593" lon="2.10151">
        <ele>134</ele>
        <time>2023-12-14T11:43:58Z</time>
      </trkpt>
      <trkpt lat="48.46599" lon="2.10148">
        <ele>134.4</ele>
        <time>2023-12-14T11:43:59Z</time>
      </trkpt>
      <trkpt lat="48.46604" lon="2.10145">
        <ele>134.4</ele>
        <time>2023-12-14T11:44:00Z</time>
      </trkpt>
      <trkpt lat="48.4661" lon="2.10141">
        <ele>134.4</ele>
        <time>2023-12-14T11:44:01Z</time>
      </trkpt>
      <trkpt lat="48.46615" lon="2.10138">
        <ele>134.4</ele>
        <time>2023-12-14T11:44:02Z</time>
      </trkpt>
      <trkpt lat="48.46621" lon="2.10135">
        <ele>134</ele>
        <time>2023-12-14T11:44:03Z</time>
      </trkpt>
      <trkpt lat="48.46626" lon="2.10132">
        <ele>134</ele>
        <time>2023-12-14T11:44:04Z</time>
      </trkpt>
      <trkpt lat="48.46632" lon="2.10128">
        <ele>134</ele>
        <time>2023-12-14T11:44:05Z</time>
      </trkpt>
      <trkpt lat="48.46637" lon="2.10124">
        <ele>134</ele>
        <time>2023-12-14T11:44:06Z</time>
      </trkpt>
      <trkpt lat="48.46642" lon="2.10121">
        <ele>134</ele>
        <time>2023-12-14T11:44:07Z</time>
      </trkpt>
      <trkpt lat="48.46648" lon="2.10117">
        <ele>132.4</ele>
        <time>2023-12-14T11:44:08Z</time>
      </trkpt>
      <trkpt lat="48.46653" lon="2.10112">
        <ele>132.4</ele>
        <time>2023-12-14T11:44:09Z</time>
      </trkpt>
      <trkpt lat="48.46658" lon="2.10108">
        <ele>132.4</ele>
        <time>2023-12-14T11:44:10Z</time>
      </trkpt>
      <trkpt lat="48.46663" lon="2.10103">
        <ele>132.4</ele>
        <time>2023-12-14T11:44:11Z</time>
      </trkpt>
      <trkpt lat="48.46669" lon="2.10099">
        <ele>133.6</ele>
        <time>2023-12-14T11:44:12Z</time>
      </trkpt>
      <trkpt lat="48.46674" lon="2.10095">
        <ele>133.6</ele>
        <time>2023-12-14T11:44:13Z</time>
      </trkpt>
      <trkpt lat="48.46679" lon="2.10092">
        <ele>133.6</ele>
        <time>2023-12-14T11:44:14Z</time>
      </trkpt>
      <trkpt lat="48.46684" lon="2.10088">
        <ele>133.6</ele>
        <time>2023-12-14T11:44:15Z</time>
      </trkpt>
      <trkpt lat="48.46689" lon="2.10083">
        <ele>134.2</ele>
        <time>2023-12-14T11:44:16Z</time>
      </trkpt>
      <trkpt lat="48.46694" lon="2.10079">
        <ele>134.2</ele>
        <time>2023-12-14T11:44:17Z</time>
      </trkpt>
      <trkpt lat="48.46699" lon="2.10075">
        <ele>134.2</ele>
        <time>2023-12-14T11:44:18Z</time>
      </trkpt>
      <trkpt lat="48.46703" lon="2.1007">
        <ele>133.6</ele>
        <time>2023-12-14T11:44:19Z</time>
      </trkpt>
      <trkpt lat="48.46708" lon="2.10065">
        <ele>134.4</ele>
        <time>2023-12-14T11:44:20Z</time>
      </trkpt>
      <trkpt lat="48.46712" lon="2.10059">
        <ele>134.4</ele>
        <time>2023-12-14T11:44:21Z</time>
      </trkpt>
      <trkpt lat="48.46717" lon="2.10054">
        <ele>134.4</ele>
        <time>2023-12-14T11:44:22Z</time>
      </trkpt>
      <trkpt lat="48.46721" lon="2.10048">
        <ele>134.2</ele>
        <time>2023-12-14T11:44:23Z</time>
      </trkpt>
      <trkpt lat="48.46725" lon="2.10043">
        <ele>133.2</ele>
        <time>2023-12-14T11:44:24Z</time>
      </trkpt>
      <trkpt lat="48.46729" lon="2.10037">
        <ele>133.2</ele>
        <time>2023-12-14T11:44:25Z</time>
      </trkpt>
      <trkpt lat="48.46733" lon="2.10031">
        <ele>133.2</ele>
        <time>2023-12-14T11:44:26Z</time>
      </trkpt>
      <trkpt lat="48.46737" lon="2.10025">
        <ele>133.2</ele>
        <time>2023-12-14T11:44:27Z</time>
      </trkpt>
      <trkpt lat="48.46741" lon="2.10019">
        <ele>134.2</ele>
        <time>2023-12-14T11:44:28Z</time>
      </trkpt>
      <trkpt lat="48.46746" lon="2.10013">
        <ele>134.2</ele>
        <time>2023-12-14T11:44:29Z</time>
      </trkpt>
      <trkpt lat="48.4675" lon="2.10008">
        <ele>134.2</ele>
        <time>2023-12-14T11:44:30Z</time>
      </trkpt>
      <trkpt lat="48.46754" lon="2.10002">
        <ele>134.2</ele>
        <time>2023-12-14T11:44:31Z</time>
      </trkpt>
      <trkpt lat="48.46758" lon="2.09995">
        <ele>133.8</ele>
        <time>2023-12-14T11:44:32Z</time>
      </trkpt>
      <trkpt lat="48.46762" lon="2.09989">
        <ele>133.8</ele>
        <time>2023-12-14T11:44:33Z</time>
      </trkpt>
      <trkpt lat="48.46767" lon="2.09983">
        <ele>133.8</ele>
        <time>2023-12-14T11:44:34Z</time>
      </trkpt>
      <trkpt lat="48.46771" lon="2.09977">
        <ele>133</ele>
        <time>2023-12-14T11:44:35Z</time>
      </trkpt>
      <trkpt lat="48.46775" lon="2.09971">
        <ele>132.8</ele>
        <time>2023-12-14T11:44:36Z</time>
      </trkpt>
      <trkpt lat="48.46779" lon="2.09965">
        <ele>132.8</ele>
        <time>2023-12-14T11:44:37Z</time>
      </trkpt>
      <trkpt lat="48.46784" lon="2.09959">
        <ele>132.8</ele>
        <time>2023-12-14T11:44:38Z</time>
      </trkpt>
      <trkpt lat="48.46788" lon="2.09953">
        <ele>132.8</ele>
        <time>2023-12-14T11:44:39Z</time>
      </trkpt>
      <trkpt lat="48.46792" lon="2.09947">
        <ele>134</ele>
        <time>2023-12-14T11:44:40Z</time>
      </trkpt>
      <trkpt lat="48.46796" lon="2.09941">
        <ele>134</ele>
        <time>2023-12-14T11:44:41Z</time>
      </trkpt>
      <trkpt lat="48.468" lon="2.09935">
        <ele>134</ele>
        <time>2023-12-14T11:44:42Z</time>
      </trkpt>
      <trkpt lat="48.46804" lon="2.09929">
        <ele>134.4</ele>
        <time>2023-12-14T11:44:43Z</time>
      </trkpt>
      <trkpt lat="48.46808" lon="2.09923">
        <ele>134.2</ele>
        <time>2023-12-14T11:44:44Z</time>
      </trkpt>
      <trkpt lat="48.46813" lon="2.09918">
        <ele>134.2</ele>
        <time>2023-12-14T11:44:45Z</time>
      </trkpt>
      <trkpt lat="48.46817" lon="2.09912">
        <ele>134.2</ele>
        <time>2023-12-14T11:44:46Z</time>
      </trkpt>
      <trkpt lat="48.46821" lon="2.09906">
        <ele>134.2</ele>
        <time>2023-12-14T11:44:47Z</time>
      </trkpt>
      <trkpt lat="48.46825" lon="2.09901">
        <ele>134.4</ele>
        <time>2023-12-14T11:44:48Z</time>
      </trkpt>
      <trkpt lat="48.46829" lon="2.09895">
        <ele>134.4</ele>
        <time>2023-12-14T11:44:49Z</time>
      </trkpt>
      <trkpt lat="48.46833" lon="2.0989">
        <ele>134.4</ele>
        <time>2023-12-14T11:44:50Z</time>
      </trkpt>
      <trkpt lat="48.46838" lon="2.09884">
        <ele>134.2</ele>
        <time>2023-12-14T11:44:51Z</time>
      </trkpt>
      <trkpt lat="48.46842" lon="2.09878">
        <ele>133.6</ele>
        <time>2023-12-14T11:44:52Z</time>
      </trkpt>
      <trkpt lat="48.46846" lon="2.09873">
        <ele>133.6</ele>
        <time>2023-12-14T11:44:53Z</time>
      </trkpt>
      <trkpt lat="48.4685" lon="2.09868">
        <ele>133.6</ele>
        <time>2023-12-14T11:44:54Z</time>
      </trkpt>
      <trkpt lat="48.46854" lon="2.09862">
        <ele>133.6</ele>
        <time>2023-12-14T11:44:55Z</time>
      </trkpt>
      <trkpt lat="48.46858" lon="2.09857">
        <ele>134.6</ele>
        <time>2023-12-14T11:44:56Z</time>
      </trkpt>
      <trkpt lat="48.46863" lon="2.09851">
        <ele>134.6</ele>
        <time>2023-12-14T11:44:57Z</time>
      </trkpt>
      <trkpt lat="48.46867" lon="2.09846">
        <ele>134.6</ele>
        <time>2023-12-14T11:44:58Z</time>
      </trkpt>
      <trkpt lat="48.46872" lon="2.09841">
        <ele>133.6</ele>
        <time>2023-12-14T11:44:59Z</time>
      </trkpt>
      <trkpt lat="48.46876" lon="2.09836">
        <ele>133.4</ele>
        <time>2023-12-14T11:45:00Z</time>
      </trkpt>
      <trkpt lat="48.46881" lon="2.09831">
        <ele>133.4</ele>
        <time>2023-12-14T11:45:01Z</time>
      </trkpt>
      <trkpt lat="48.46885" lon="2.09826">
        <ele>133.4</ele>
        <time>2023-12-14T11:45:02Z</time>
      </trkpt>
      <trkpt lat="48.4689" lon="2.09821">
        <ele>133.4</ele>
        <time>2023-12-14T11:45:03Z</time>
      </trkpt>
      <trkpt lat="48.46895" lon="2.09816">
        <ele>133.2</ele>
        <time>2023-12-14T11:45:04Z</time>
      </trkpt>
      <trkpt lat="48.469" lon="2.09811">
        <ele>133.2</ele>
        <time>2023-12-14T11:45:05Z</time>
      </trkpt>
      <trkpt lat="48.46905" lon="2.09806">
        <ele>133.2</ele>
        <time>2023-12-14T11:45:06Z</time>
      </trkpt>
      <trkpt lat="48.46909" lon="2.09801">
        <ele>133.2</ele>
        <time>2023-12-14T11:45:07Z</time>
      </trkpt>
      <trkpt lat="48.46914" lon="2.09796">
        <ele>131.8</ele>
        <time>2023-12-14T11:45:08Z</time>
      </trkpt>
      <trkpt lat="48.46919" lon="2.09791">
        <ele>131.8</ele>
        <time>2023-12-14T11:45:09Z</time>
      </trkpt>
      <trkpt lat="48.46924" lon="2.09787">
        <ele>131.8</ele>
        <time>2023-12-14T11:45:10Z</time>
      </trkpt>
      <trkpt lat="48.46928" lon="2.09781">
        <ele>131.2</ele>
        <time>2023-12-14T11:45:11Z</time>
      </trkpt>
      <trkpt lat="48.46933" lon="2.09776">
        <ele>129.8</ele>
        <time>2023-12-14T11:45:12Z</time>
      </trkpt>
      <trkpt lat="48.46938" lon="2.09771">
        <ele>129.8</ele>
        <time>2023-12-14T11:45:13Z</time>
      </trkpt>
      <trkpt lat="48.46942" lon="2.09766">
        <ele>129.8</ele>
        <time>2023-12-14T11:45:14Z</time>
      </trkpt>
      <trkpt lat="48.46947" lon="2.09761">
        <ele>130.8</ele>
        <time>2023-12-14T11:45:15Z</time>
      </trkpt>
      <trkpt lat="48.46952" lon="2.09757">
        <ele>130.6</ele>
        <time>2023-12-14T11:45:16Z</time>
      </trkpt>
      <trkpt lat="48.46957" lon="2.09752">
        <ele>130.6</ele>
        <time>2023-12-14T11:45:17Z</time>
      </trkpt>
      <trkpt lat="48.46962" lon="2.09747">
        <ele>130.6</ele>
        <time>2023-12-14T11:45:18Z</time>
      </trkpt>
      <trkpt lat="48.46966" lon="2.09743">
        <ele>130.6</ele>
        <time>2023-12-14T11:45:19Z</time>
      </trkpt>
      <trkpt lat="48.46971" lon="2.09738">
        <ele>130.2</ele>
        <time>2023-12-14T11:45:20Z</time>
      </trkpt>
      <trkpt lat="48.46976" lon="2.09733">
        <ele>130.2</ele>
        <time>2023-12-14T11:45:21Z</time>
      </trkpt>
      <trkpt lat="48.46981" lon="2.09728">
        <ele>130.2</ele>
        <time>2023-12-14T11:45:22Z</time>
      </trkpt>
      <trkpt lat="48.46986" lon="2.09723">
        <ele>130.2</ele>
        <time>2023-12-14T11:45:23Z</time>
      </trkpt>
      <trkpt lat="48.46991" lon="2.09718">
        <ele>130</ele>
        <time>2023-12-14T11:45:24Z</time>
      </trkpt>
      <trkpt lat="48.46996" lon="2.09713">
        <ele>130</ele>
        <time>2023-12-14T11:45:25Z</time>
      </trkpt>
      <trkpt lat="48.47001" lon="2.09707">
        <ele>130</ele>
        <time>2023-12-14T11:45:26Z</time>
      </trkpt>
      <trkpt lat="48.47006" lon="2.09702">
        <ele>129.8</ele>
        <time>2023-12-14T11:45:27Z</time>
      </trkpt>
      <trkpt lat="48.47011" lon="2.09697">
        <ele>129.4</ele>
        <time>2023-12-14T11:45:28Z</time>
      </trkpt>
      <trkpt lat="48.47016" lon="2.09691">
        <ele>129.4</ele>
        <time>2023-12-14T11:45:29Z</time>
      </trkpt>
      <trkpt lat="48.47021" lon="2.09686">
        <ele>129.4</ele>
        <time>2023-12-14T11:45:30Z</time>
      </trkpt>
      <trkpt lat="48.47026" lon="2.0968">
        <ele>128.8</ele>
        <time>2023-12-14T11:45:31Z</time>
      </trkpt>
      <trkpt lat="48.4703" lon="2.09674">
        <ele>128.8</ele>
        <time>2023-12-14T11:45:32Z</time>
      </trkpt>
      <trkpt lat="48.47035" lon="2.09668">
        <ele>128.8</ele>
        <time>2023-12-14T11:45:33Z</time>
      </trkpt>
      <trkpt lat="48.47039" lon="2.09662">
        <ele>128.8</ele>
        <time>2023-12-14T11:45:34Z</time>
      </trkpt>
      <trkpt lat="48.47044" lon="2.09656">
        <ele>128.4</ele>
        <time>2023-12-14T11:45:35Z</time>
      </trkpt>
      <trkpt lat="48.47048" lon="2.0965">
        <ele>128.2</ele>
        <time>2023-12-14T11:45:36Z</time>
      </trkpt>
      <trkpt lat="48.47052" lon="2.09644">
        <ele>128.2</ele>
        <time>2023-12-14T11:45:37Z</time>
      </trkpt>
      <trkpt lat="48.47056" lon="2.09638">
        <ele>128.2</ele>
        <time>2023-12-14T11:45:38Z</time>
      </trkpt>
      <trkpt lat="48.4706" lon="2.09631">
        <ele>127.8</ele>
        <time>2023-12-14T11:45:39Z</time>
      </trkpt>
      <trkpt lat="48.47064" lon="2.09625">
        <ele>127.6</ele>
        <time>2023-12-14T11:45:40Z</time>
      </trkpt>
      <trkpt lat="48.47067" lon="2.09618">
        <ele>127.6</ele>
        <time>2023-12-14T11:45:41Z</time>
      </trkpt>
      <trkpt lat="48.47071" lon="2.09611">
        <ele>127.6</ele>
        <time>2023-12-14T11:45:42Z</time>
      </trkpt>
      <trkpt lat="48.47074" lon="2.09604">
        <ele>127.6</ele>
        <time>2023-12-14T11:45:43Z</time>
      </trkpt>
      <trkpt lat="48.47078" lon="2.09598">
        <ele>128.6</ele>
        <time>2023-12-14T11:45:44Z</time>
      </trkpt>
      <trkpt lat="48.47081" lon="2.09591">
        <ele>128.6</ele>
        <time>2023-12-14T11:45:45Z</time>
      </trkpt>
      <trkpt lat="48.47084" lon="2.09584">
        <ele>128.6</ele>
        <time>2023-12-14T11:45:46Z</time>
      </trkpt>
      <trkpt lat="48.47087" lon="2.09577">
        <ele>127.6</ele>
        <time>2023-12-14T11:45:47Z</time>
      </trkpt>
      <trkpt lat="48.4709" lon="2.09571">
        <ele>128.6</ele>
        <time>2023-12-14T11:45:48Z</time>
      </trkpt>
      <trkpt lat="48.47092" lon="2.09564">
        <ele>128.6</ele>
        <time>2023-12-14T11:45:49Z</time>
      </trkpt>
      <trkpt lat="48.47095" lon="2.09558">
        <ele>128.6</ele>
        <time>2023-12-14T11:45:50Z</time>
      </trkpt>
      <trkpt lat="48.47097" lon="2.09551">
        <ele>128.8</ele>
        <time>2023-12-14T11:45:51Z</time>
      </trkpt>
      <trkpt lat="48.47099" lon="2.09544">
        <ele>128.8</ele>
        <time>2023-12-14T11:45:52Z</time>
      </trkpt>
      <trkpt lat="48.47102" lon="2.09537">
        <ele>128.8</ele>
        <time>2023-12-14T11:45:53Z</time>
      </trkpt>
      <trkpt lat="48.47104" lon="2.09531">
        <ele>128.8</ele>
        <time>2023-12-14T11:45:54Z</time>
      </trkpt>
      <trkpt lat="48.47107" lon="2.09524">
        <ele>129</ele>
        <time>2023-12-14T11:45:55Z</time>
      </trkpt>
      <trkpt lat="48.47109" lon="2.09517">
        <ele>129.2</ele>
        <time>2023-12-14T11:45:56Z</time>
      </trkpt>
      <trkpt lat="48.47112" lon="2.0951">
        <ele>129.2</ele>
        <time>2023-12-14T11:45:57Z</time>
      </trkpt>
      <trkpt lat="48.47114" lon="2.09503">
        <ele>129.2</ele>
        <time>2023-12-14T11:45:58Z</time>
      </trkpt>
      <trkpt lat="48.47117" lon="2.09496">
        <ele>129.2</ele>
        <time>2023-12-14T11:45:59Z</time>
      </trkpt>
      <trkpt lat="48.47119" lon="2.09489">
        <ele>129.6</ele>
        <time>2023-12-14T11:46:00Z</time>
      </trkpt>
      <trkpt lat="48.47122" lon="2.09482">
        <ele>129.6</ele>
        <time>2023-12-14T11:46:01Z</time>
      </trkpt>
      <trkpt lat="48.47124" lon="2.09475">
        <ele>129.6</ele>
        <time>2023-12-14T11:46:02Z</time>
      </trkpt>
      <trkpt lat="48.47126" lon="2.09468">
        <ele>129.6</ele>
        <time>2023-12-14T11:46:03Z</time>
      </trkpt>
      <trkpt lat="48.47129" lon="2.09461">
        <ele>130.2</ele>
        <time>2023-12-14T11:46:04Z</time>
      </trkpt>
      <trkpt lat="48.47131" lon="2.09454">
        <ele>130.2</ele>
        <time>2023-12-14T11:46:05Z</time>
      </trkpt>
      <trkpt lat="48.47134" lon="2.09447">
        <ele>130.2</ele>
        <time>2023-12-14T11:46:06Z</time>
      </trkpt>
      <trkpt lat="48.47136" lon="2.0944">
        <ele>129.6</ele>
        <time>2023-12-14T11:46:07Z</time>
      </trkpt>
      <trkpt lat="48.47139" lon="2.09433">
        <ele>129.8</ele>
        <time>2023-12-14T11:46:08Z</time>
      </trkpt>
      <trkpt lat="48.47141" lon="2.09426">
        <ele>129.8</ele>
        <time>2023-12-14T11:46:09Z</time>
      </trkpt>
      <trkpt lat="48.47144" lon="2.09419">
        <ele>129.8</ele>
        <time>2023-12-14T11:46:10Z</time>
      </trkpt>
      <trkpt lat="48.47146" lon="2.09411">
        <ele>130.2</ele>
        <time>2023-12-14T11:46:11Z</time>
      </trkpt>
      <trkpt lat="48.47148" lon="2.09404">
        <ele>130</ele>
        <time>2023-12-14T11:46:12Z</time>
      </trkpt>
      <trkpt lat="48.4715" lon="2.09397">
        <ele>130</ele>
        <time>2023-12-14T11:46:13Z</time>
      </trkpt>
      <trkpt lat="48.47153" lon="2.0939">
        <ele>130</ele>
        <time>2023-12-14T11:46:14Z</time>
      </trkpt>
      <trkpt lat="48.47155" lon="2.09383">
        <ele>130</ele>
        <time>2023-12-14T11:46:15Z</time>
      </trkpt>
      <trkpt lat="48.47158" lon="2.09377">
        <ele>131</ele>
        <time>2023-12-14T11:46:16Z</time>
      </trkpt>
      <trkpt lat="48.4716" lon="2.0937">
        <ele>131</ele>
        <time>2023-12-14T11:46:17Z</time>
      </trkpt>
      <trkpt lat="48.47163" lon="2.09364">
        <ele>131</ele>
        <time>2023-12-14T11:46:18Z</time>
      </trkpt>
      <trkpt lat="48.47166" lon="2.09357">
        <ele>131</ele>
        <time>2023-12-14T11:46:19Z</time>
      </trkpt>
      <trkpt lat="48.47168" lon="2.0935">
        <ele>130.2</ele>
        <time>2023-12-14T11:46:20Z</time>
      </trkpt>
      <trkpt lat="48.47171" lon="2.09344">
        <ele>130.2</ele>
        <time>2023-12-14T11:46:21Z</time>
      </trkpt>
      <trkpt lat="48.47173" lon="2.09337">
        <ele>130.2</ele>
        <time>2023-12-14T11:46:22Z</time>
      </trkpt>
      <trkpt lat="48.47176" lon="2.09331">
        <ele>130.2</ele>
        <time>2023-12-14T11:46:23Z</time>
      </trkpt>
      <trkpt lat="48.47179" lon="2.09325">
        <ele>130.6</ele>
        <time>2023-12-14T11:46:24Z</time>
      </trkpt>
      <trkpt lat="48.47182" lon="2.09319">
        <ele>130.6</ele>
        <time>2023-12-14T11:46:25Z</time>
      </trkpt>
      <trkpt lat="48.47185" lon="2.09313">
        <ele>130.6</ele>
        <time>2023-12-14T11:46:26Z</time>
      </trkpt>
      <trkpt lat="48.47188" lon="2.09307">
        <ele>130.8</ele>
        <time>2023-12-14T11:46:27Z</time>
      </trkpt>
      <trkpt lat="48.47191" lon="2.093">
        <ele>131</ele>
        <time>2023-12-14T11:46:28Z</time>
      </trkpt>
      <trkpt lat="48.47194" lon="2.09295">
        <ele>131</ele>
        <time>2023-12-14T11:46:29Z</time>
      </trkpt>
      <trkpt lat="48.47198" lon="2.09289">
        <ele>131</ele>
        <time>2023-12-14T11:46:30Z</time>
      </trkpt>
      <trkpt lat="48.47201" lon="2.09283">
        <ele>131</ele>
        <time>2023-12-14T11:46:31Z</time>
      </trkpt>
      <trkpt lat="48.47204" lon="2.09277">
        <ele>130.6</ele>
        <time>2023-12-14T11:46:32Z</time>
      </trkpt>
      <trkpt lat="48.47207" lon="2.09271">
        <ele>130.6</ele>
        <time>2023-12-14T11:46:33Z</time>
      </trkpt>
      <trkpt lat="48.47211" lon="2.09266">
        <ele>130.6</ele>
        <time>2023-12-14T11:46:34Z</time>
      </trkpt>
      <trkpt lat="48.47214" lon="2.0926">
        <ele>131.2</ele>
        <time>2023-12-14T11:46:35Z</time>
      </trkpt>
      <trkpt lat="48.47217" lon="2.09255">
        <ele>131.8</ele>
        <time>2023-12-14T11:46:36Z</time>
      </trkpt>
      <trkpt lat="48.4722" lon="2.09249">
        <ele>131.8</ele>
        <time>2023-12-14T11:46:37Z</time>
      </trkpt>
      <trkpt lat="48.47224" lon="2.09244">
        <ele>131.8</ele>
        <time>2023-12-14T11:46:38Z</time>
      </trkpt>
      <trkpt lat="48.47227" lon="2.09238">
        <ele>132</ele>
        <time>2023-12-14T11:46:39Z</time>
      </trkpt>
      <trkpt lat="48.4723" lon="2.09233">
        <ele>132.6</ele>
        <time>2023-12-14T11:46:40Z</time>
      </trkpt>
      <trkpt lat="48.47234" lon="2.09227">
        <ele>132.6</ele>
        <time>2023-12-14T11:46:41Z</time>
      </trkpt>
      <trkpt lat="48.47237" lon="2.09222">
        <ele>132.6</ele>
        <time>2023-12-14T11:46:42Z</time>
      </trkpt>
      <trkpt lat="48.4724" lon="2.09216">
        <ele>132.6</ele>
        <time>2023-12-14T11:46:43Z</time>
      </trkpt>
      <trkpt lat="48.47244" lon="2.0921">
        <ele>132.6</ele>
        <time>2023-12-14T11:46:44Z</time>
      </trkpt>
      <trkpt lat="48.47247" lon="2.09205">
        <ele>132.6</ele>
        <time>2023-12-14T11:46:45Z</time>
      </trkpt>
      <trkpt lat="48.4725" lon="2.09199">
        <ele>132.6</ele>
        <time>2023-12-14T11:46:46Z</time>
      </trkpt>
      <trkpt lat="48.47254" lon="2.09193">
        <ele>132.6</ele>
        <time>2023-12-14T11:46:47Z</time>
      </trkpt>
      <trkpt lat="48.47257" lon="2.09188">
        <ele>132.6</ele>
        <time>2023-12-14T11:46:48Z</time>
      </trkpt>
      <trkpt lat="48.47261" lon="2.09182">
        <ele>132.6</ele>
        <time>2023-12-14T11:46:49Z</time>
      </trkpt>
      <trkpt lat="48.47264" lon="2.09176">
        <ele>132.6</ele>
        <time>2023-12-14T11:46:50Z</time>
      </trkpt>
      <trkpt lat="48.47267" lon="2.09171">
        <ele>132.8</ele>
        <time>2023-12-14T11:46:51Z</time>
      </trkpt>
      <trkpt lat="48.4727" lon="2.09165">
        <ele>132.6</ele>
        <time>2023-12-14T11:46:52Z</time>
      </trkpt>
      <trkpt lat="48.47274" lon="2.09159">
        <ele>132.6</ele>
        <time>2023-12-14T11:46:53Z</time>
      </trkpt>
      <trkpt lat="48.47277" lon="2.09153">
        <ele>132.6</ele>
        <time>2023-12-14T11:46:54Z</time>
      </trkpt>
      <trkpt lat="48.4728" lon="2.09148">
        <ele>132.6</ele>
        <time>2023-12-14T11:46:55Z</time>
      </trkpt>
      <trkpt lat="48.47284" lon="2.09142">
        <ele>133.6</ele>
        <time>2023-12-14T11:46:56Z</time>
      </trkpt>
      <trkpt lat="48.47287" lon="2.09136">
        <ele>133.6</ele>
        <time>2023-12-14T11:46:57Z</time>
      </trkpt>
      <trkpt lat="48.4729" lon="2.0913">
        <ele>133.6</ele>
        <time>2023-12-14T11:46:58Z</time>
      </trkpt>
      <trkpt lat="48.47292" lon="2.09125">
        <ele>133.6</ele>
        <time>2023-12-14T11:46:59Z</time>
      </trkpt>
      <trkpt lat="48.47295" lon="2.09119">
        <ele>133.6</ele>
        <time>2023-12-14T11:47:00Z</time>
      </trkpt>
      <trkpt lat="48.47298" lon="2.09113">
        <ele>133.6</ele>
        <time>2023-12-14T11:47:01Z</time>
      </trkpt>
      <trkpt lat="48.473" lon="2.09107">
        <ele>133.6</ele>
        <time>2023-12-14T11:47:02Z</time>
      </trkpt>
      <trkpt lat="48.47303" lon="2.09102">
        <ele>133.6</ele>
        <time>2023-12-14T11:47:03Z</time>
      </trkpt>
      <trkpt lat="48.47306" lon="2.09096">
        <ele>134.8</ele>
        <time>2023-12-14T11:47:04Z</time>
      </trkpt>
      <trkpt lat="48.47308" lon="2.09091">
        <ele>134.8</ele>
        <time>2023-12-14T11:47:05Z</time>
      </trkpt>
      <trkpt lat="48.47311" lon="2.09085">
        <ele>134.8</ele>
        <time>2023-12-14T11:47:06Z</time>
      </trkpt>
      <trkpt lat="48.47314" lon="2.09079">
        <ele>134.8</ele>
        <time>2023-12-14T11:47:07Z</time>
      </trkpt>
      <trkpt lat="48.47316" lon="2.09073">
        <ele>135.2</ele>
        <time>2023-12-14T11:47:08Z</time>
      </trkpt>
      <trkpt lat="48.47319" lon="2.09067">
        <ele>135.2</ele>
        <time>2023-12-14T11:47:09Z</time>
      </trkpt>
      <trkpt lat="48.47322" lon="2.09061">
        <ele>135.2</ele>
        <time>2023-12-14T11:47:10Z</time>
      </trkpt>
      <trkpt lat="48.47324" lon="2.09055">
        <ele>135.6</ele>
        <time>2023-12-14T11:47:11Z</time>
      </trkpt>
      <trkpt lat="48.47327" lon="2.09049">
        <ele>136.2</ele>
        <time>2023-12-14T11:47:12Z</time>
      </trkpt>
      <trkpt lat="48.4733" lon="2.09043">
        <ele>136.2</ele>
        <time>2023-12-14T11:47:13Z</time>
      </trkpt>
      <trkpt lat="48.47333" lon="2.09037">
        <ele>136.2</ele>
        <time>2023-12-14T11:47:14Z</time>
      </trkpt>
      <trkpt lat="48.47335" lon="2.09031">
        <ele>136</ele>
        <time>2023-12-14T11:47:15Z</time>
      </trkpt>
      <trkpt lat="48.47337" lon="2.09025">
        <ele>136.2</ele>
        <time>2023-12-14T11:47:16Z</time>
      </trkpt>
      <trkpt lat="48.4734" lon="2.09019">
        <ele>136.2</ele>
        <time>2023-12-14T11:47:17Z</time>
      </trkpt>
      <trkpt lat="48.47343" lon="2.09013">
        <ele>136.2</ele>
        <time>2023-12-14T11:47:18Z</time>
      </trkpt>
      <trkpt lat="48.47345" lon="2.09007">
        <ele>136</ele>
        <time>2023-12-14T11:47:19Z</time>
      </trkpt>
      <trkpt lat="48.47348" lon="2.09001">
        <ele>135.8</ele>
        <time>2023-12-14T11:47:20Z</time>
      </trkpt>
      <trkpt lat="48.47351" lon="2.08996">
        <ele>135.8</ele>
        <time>2023-12-14T11:47:21Z</time>
      </trkpt>
      <trkpt lat="48.47353" lon="2.0899">
        <ele>135.8</ele>
        <time>2023-12-14T11:47:22Z</time>
      </trkpt>
      <trkpt lat="48.47356" lon="2.08984">
        <ele>136.8</ele>
        <time>2023-12-14T11:47:23Z</time>
      </trkpt>
      <trkpt lat="48.47359" lon="2.08979">
        <ele>136.6</ele>
        <time>2023-12-14T11:47:24Z</time>
      </trkpt>
      <trkpt lat="48.47362" lon="2.08973">
        <ele>136.6</ele>
        <time>2023-12-14T11:47:25Z</time>
      </trkpt>
      <trkpt lat="48.47365" lon="2.08967">
        <ele>136.6</ele>
        <time>2023-12-14T11:47:26Z</time>
      </trkpt>
      <trkpt lat="48.47368" lon="2.08962">
        <ele>137.6</ele>
        <time>2023-12-14T11:47:27Z</time>
      </trkpt>
      <trkpt lat="48.47371" lon="2.08957">
        <ele>136.6</ele>
        <time>2023-12-14T11:47:28Z</time>
      </trkpt>
      <trkpt lat="48.47374" lon="2.08951">
        <ele>136.6</ele>
        <time>2023-12-14T11:47:29Z</time>
      </trkpt>
      <trkpt lat="48.47377" lon="2.08946">
        <ele>136.6</ele>
        <time>2023-12-14T11:47:30Z</time>
      </trkpt>
      <trkpt lat="48.4738" lon="2.08941">
        <ele>136.6</ele>
        <time>2023-12-14T11:47:31Z</time>
      </trkpt>
      <trkpt lat="48.47383" lon="2.08936">
        <ele>137</ele>
        <time>2023-12-14T11:47:32Z</time>
      </trkpt>
      <trkpt lat="48.47387" lon="2.08931">
        <ele>137</ele>
        <time>2023-12-14T11:47:33Z</time>
      </trkpt>
      <trkpt lat="48.4739" lon="2.08927">
        <ele>137</ele>
        <time>2023-12-14T11:47:34Z</time>
      </trkpt>
      <trkpt lat="48.47394" lon="2.08922">
        <ele>137</ele>
        <time>2023-12-14T11:47:35Z</time>
      </trkpt>
      <trkpt lat="48.47397" lon="2.08917">
        <ele>136.6</ele>
        <time>2023-12-14T11:47:36Z</time>
      </trkpt>
      <trkpt lat="48.47401" lon="2.08913">
        <ele>136.6</ele>
        <time>2023-12-14T11:47:37Z</time>
      </trkpt>
      <trkpt lat="48.47405" lon="2.08909">
        <ele>136.6</ele>
        <time>2023-12-14T11:47:38Z</time>
      </trkpt>
      <trkpt lat="48.47409" lon="2.08905">
        <ele>136.6</ele>
        <time>2023-12-14T11:47:39Z</time>
      </trkpt>
      <trkpt lat="48.47412" lon="2.08901">
        <ele>137.2</ele>
        <time>2023-12-14T11:47:40Z</time>
      </trkpt>
      <trkpt lat="48.47416" lon="2.08898">
        <ele>137.2</ele>
        <time>2023-12-14T11:47:41Z</time>
      </trkpt>
      <trkpt lat="48.4742" lon="2.08894">
        <ele>137.2</ele>
        <time>2023-12-14T11:47:42Z</time>
      </trkpt>
      <trkpt lat="48.47424" lon="2.08891">
        <ele>136.2</ele>
        <time>2023-12-14T11:47:43Z</time>
      </trkpt>
      <trkpt lat="48.47427" lon="2.08887">
        <ele>136.6</ele>
        <time>2023-12-14T11:47:44Z</time>
      </trkpt>
      <trkpt lat="48.47431" lon="2.08884">
        <ele>136.6</ele>
        <time>2023-12-14T11:47:45Z</time>
      </trkpt>
      <trkpt lat="48.47435" lon="2.08881">
        <ele>136.6</ele>
        <time>2023-12-14T11:47:46Z</time>
      </trkpt>
      <trkpt lat="48.47438" lon="2.08878">
        <ele>136.6</ele>
        <time>2023-12-14T11:47:47Z</time>
      </trkpt>
      <trkpt lat="48.47442" lon="2.08875">
        <ele>135</ele>
        <time>2023-12-14T11:47:48Z</time>
      </trkpt>
      <trkpt lat="48.47446" lon="2.08871">
        <ele>135</ele>
        <time>2023-12-14T11:47:49Z</time>
      </trkpt>
      <trkpt lat="48.47451" lon="2.08867">
        <ele>135</ele>
        <time>2023-12-14T11:47:50Z</time>
      </trkpt>
      <trkpt lat="48.47455" lon="2.08864">
        <ele>136</ele>
        <time>2023-12-14T11:47:51Z</time>
      </trkpt>
      <trkpt lat="48.47459" lon="2.08861">
        <ele>137.4</ele>
        <time>2023-12-14T11:47:52Z</time>
      </trkpt>
      <trkpt lat="48.47463" lon="2.08859">
        <ele>137.4</ele>
        <time>2023-12-14T11:47:53Z</time>
      </trkpt>
      <trkpt lat="48.47468" lon="2.08859">
        <ele>137.4</ele>
        <time>2023-12-14T11:47:54Z</time>
      </trkpt>
      <trkpt lat="48.47473" lon="2.0886">
        <ele>136.4</ele>
        <time>2023-12-14T11:47:55Z</time>
      </trkpt>
      <trkpt lat="48.47479" lon="2.0886">
        <ele>135.4</ele>
        <time>2023-12-14T11:47:56Z</time>
      </trkpt>
      <trkpt lat="48.47484" lon="2.08861">
        <ele>135.4</ele>
        <time>2023-12-14T11:47:57Z</time>
      </trkpt>
      <trkpt lat="48.47489" lon="2.08862">
        <ele>135.4</ele>
        <time>2023-12-14T11:47:58Z</time>
      </trkpt>
      <trkpt lat="48.47494" lon="2.08862">
        <ele>134.6</ele>
        <time>2023-12-14T11:47:59Z</time>
      </trkpt>
      <trkpt lat="48.475" lon="2.08863">
        <ele>136.2</ele>
        <time>2023-12-14T11:48:00Z</time>
      </trkpt>
      <trkpt lat="48.47505" lon="2.08863">
        <ele>136.2</ele>
        <time>2023-12-14T11:48:01Z</time>
      </trkpt>
      <trkpt lat="48.47511" lon="2.08864">
        <ele>136.2</ele>
        <time>2023-12-14T11:48:02Z</time>
      </trkpt>
      <trkpt lat="48.47516" lon="2.08865">
        <ele>135.2</ele>
        <time>2023-12-14T11:48:03Z</time>
      </trkpt>
      <trkpt lat="48.47522" lon="2.08866">
        <ele>134</ele>
        <time>2023-12-14T11:48:04Z</time>
      </trkpt>
      <trkpt lat="48.47528" lon="2.08867">
        <ele>134</ele>
        <time>2023-12-14T11:48:05Z</time>
      </trkpt>
      <trkpt lat="48.47533" lon="2.08868">
        <ele>134</ele>
        <time>2023-12-14T11:48:06Z</time>
      </trkpt>
      <trkpt lat="48.47539" lon="2.08869">
        <ele>134.4</ele>
        <time>2023-12-14T11:48:07Z</time>
      </trkpt>
      <trkpt lat="48.47544" lon="2.0887">
        <ele>134.8</ele>
        <time>2023-12-14T11:48:08Z</time>
      </trkpt>
      <trkpt lat="48.4755" lon="2.08871">
        <ele>134.8</ele>
        <time>2023-12-14T11:48:09Z</time>
      </trkpt>
      <trkpt lat="48.47555" lon="2.08872">
        <ele>134.8</ele>
        <time>2023-12-14T11:48:10Z</time>
      </trkpt>
      <trkpt lat="48.47561" lon="2.08872">
        <ele>134.8</ele>
        <time>2023-12-14T11:48:11Z</time>
      </trkpt>
      <trkpt lat="48.47566" lon="2.08872">
        <ele>133.8</ele>
        <time>2023-12-14T11:48:12Z</time>
      </trkpt>
      <trkpt lat="48.47571" lon="2.08873">
        <ele>133.8</ele>
        <time>2023-12-14T11:48:13Z</time>
      </trkpt>
      <trkpt lat="48.47577" lon="2.08875">
        <ele>133.8</ele>
        <time>2023-12-14T11:48:14Z</time>
      </trkpt>
      <trkpt lat="48.47582" lon="2.08876">
        <ele>133.8</ele>
        <time>2023-12-14T11:48:15Z</time>
      </trkpt>
      <trkpt lat="48.47588" lon="2.08876">
        <ele>133.2</ele>
        <time>2023-12-14T11:48:16Z</time>
      </trkpt>
      <trkpt lat="48.47594" lon="2.08877">
        <ele>133.2</ele>
        <time>2023-12-14T11:48:17Z</time>
      </trkpt>
      <trkpt lat="48.47599" lon="2.08878">
        <ele>133.2</ele>
        <time>2023-12-14T11:48:18Z</time>
      </trkpt>
      <trkpt lat="48.47605" lon="2.0888">
        <ele>133.2</ele>
        <time>2023-12-14T11:48:19Z</time>
      </trkpt>
      <trkpt lat="48.47609" lon="2.08881">
        <ele>133.2</ele>
        <time>2023-12-14T11:48:20Z</time>
      </trkpt>
      <trkpt lat="48.47614" lon="2.08882">
        <ele>133.2</ele>
        <time>2023-12-14T11:48:21Z</time>
      </trkpt>
      <trkpt lat="48.4762" lon="2.08883">
        <ele>133.2</ele>
        <time>2023-12-14T11:48:22Z</time>
      </trkpt>
      <trkpt lat="48.47626" lon="2.08885">
        <ele>133.2</ele>
        <time>2023-12-14T11:48:23Z</time>
      </trkpt>
      <trkpt lat="48.47632" lon="2.08886">
        <ele>132.6</ele>
        <time>2023-12-14T11:48:24Z</time>
      </trkpt>
      <trkpt lat="48.47637" lon="2.08887">
        <ele>132.6</ele>
        <time>2023-12-14T11:48:25Z</time>
      </trkpt>
      <trkpt lat="48.47642" lon="2.08888">
        <ele>132.6</ele>
        <time>2023-12-14T11:48:26Z</time>
      </trkpt>
      <trkpt lat="48.47646" lon="2.08888">
        <ele>132.6</ele>
        <time>2023-12-14T11:48:27Z</time>
      </trkpt>
      <trkpt lat="48.47652" lon="2.0889">
        <ele>132.4</ele>
        <time>2023-12-14T11:48:28Z</time>
      </trkpt>
      <trkpt lat="48.47657" lon="2.08891">
        <ele>132.4</ele>
        <time>2023-12-14T11:48:29Z</time>
      </trkpt>
      <trkpt lat="48.47662" lon="2.08893">
        <ele>132.4</ele>
        <time>2023-12-14T11:48:30Z</time>
      </trkpt>
      <trkpt lat="48.47666" lon="2.08894">
        <ele>132.4</ele>
        <time>2023-12-14T11:48:31Z</time>
      </trkpt>
      <trkpt lat="48.4767" lon="2.08895">
        <ele>132.2</ele>
        <time>2023-12-14T11:48:32Z</time>
      </trkpt>
      <trkpt lat="48.47674" lon="2.08896">
        <ele>132.2</ele>
        <time>2023-12-14T11:48:33Z</time>
      </trkpt>
      <trkpt lat="48.47679" lon="2.08897">
        <ele>132.2</ele>
        <time>2023-12-14T11:48:34Z</time>
      </trkpt>
      <trkpt lat="48.47683" lon="2.08898">
        <ele>132.2</ele>
        <time>2023-12-14T11:48:35Z</time>
      </trkpt>
      <trkpt lat="48.47687" lon="2.08899">
        <ele>131.8</ele>
        <time>2023-12-14T11:48:36Z</time>
      </trkpt>
      <trkpt lat="48.47692" lon="2.089">
        <ele>131.8</ele>
        <time>2023-12-14T11:48:37Z</time>
      </trkpt>
      <trkpt lat="48.47698" lon="2.08901">
        <ele>131.8</ele>
        <time>2023-12-14T11:48:38Z</time>
      </trkpt>
      <trkpt lat="48.47703" lon="2.08901">
        <ele>132.8</ele>
        <time>2023-12-14T11:48:39Z</time>
      </trkpt>
      <trkpt lat="48.47709" lon="2.08901">
        <ele>132</ele>
        <time>2023-12-14T11:48:40Z</time>
      </trkpt>
      <trkpt lat="48.47714" lon="2.08901">
        <ele>132</ele>
        <time>2023-12-14T11:48:41Z</time>
      </trkpt>
      <trkpt lat="48.4772" lon="2.089">
        <ele>132</ele>
        <time>2023-12-14T11:48:42Z</time>
      </trkpt>
      <trkpt lat="48.47726" lon="2.08899">
        <ele>132.4</ele>
        <time>2023-12-14T11:48:43Z</time>
      </trkpt>
      <trkpt lat="48.47732" lon="2.08898">
        <ele>131.8</ele>
        <time>2023-12-14T11:48:44Z</time>
      </trkpt>
      <trkpt lat="48.47738" lon="2.08896">
        <ele>131.8</ele>
        <time>2023-12-14T11:48:45Z</time>
      </trkpt>
      <trkpt lat="48.47744" lon="2.08895">
        <ele>131.8</ele>
        <time>2023-12-14T11:48:46Z</time>
      </trkpt>
      <trkpt lat="48.47747" lon="2.08894">
        <ele>131.2</ele>
        <time>2023-12-14T11:48:47Z</time>
      </trkpt>
      <trkpt lat="48.47753" lon="2.08893">
        <ele>130.8</ele>
        <time>2023-12-14T11:48:48Z</time>
      </trkpt>
      <trkpt lat="48.4776" lon="2.08892">
        <ele>130.8</ele>
        <time>2023-12-14T11:48:49Z</time>
      </trkpt>
      <trkpt lat="48.47766" lon="2.0889">
        <ele>130.8</ele>
        <time>2023-12-14T11:48:50Z</time>
      </trkpt>
      <trkpt lat="48.47771" lon="2.08889">
        <ele>130.2</ele>
        <time>2023-12-14T11:48:51Z</time>
      </trkpt>
      <trkpt lat="48.47776" lon="2.08887">
        <ele>130</ele>
        <time>2023-12-14T11:48:52Z</time>
      </trkpt>
      <trkpt lat="48.47781" lon="2.08886">
        <ele>130</ele>
        <time>2023-12-14T11:48:53Z</time>
      </trkpt>
      <trkpt lat="48.47787" lon="2.08885">
        <ele>130</ele>
        <time>2023-12-14T11:48:54Z</time>
      </trkpt>
      <trkpt lat="48.47792" lon="2.08884">
        <ele>130.8</ele>
        <time>2023-12-14T11:48:55Z</time>
      </trkpt>
      <trkpt lat="48.47797" lon="2.08881">
        <ele>130.8</ele>
        <time>2023-12-14T11:48:56Z</time>
      </trkpt>
      <trkpt lat="48.47802" lon="2.08879">
        <ele>130.8</ele>
        <time>2023-12-14T11:48:57Z</time>
      </trkpt>
      <trkpt lat="48.47807" lon="2.08876">
        <ele>130.8</ele>
        <time>2023-12-14T11:48:58Z</time>
      </trkpt>
      <trkpt lat="48.47811" lon="2.08873">
        <ele>130.8</ele>
        <time>2023-12-14T11:48:59Z</time>
      </trkpt>
      <trkpt lat="48.47816" lon="2.0887">
        <ele>130.4</ele>
        <time>2023-12-14T11:49:00Z</time>
      </trkpt>
      <trkpt lat="48.4782" lon="2.08866">
        <ele>130.4</ele>
        <time>2023-12-14T11:49:01Z</time>
      </trkpt>
      <trkpt lat="48.47823" lon="2.08863">
        <ele>130.4</ele>
        <time>2023-12-14T11:49:02Z</time>
      </trkpt>
      <trkpt lat="48.47827" lon="2.08861">
        <ele>130.4</ele>
        <time>2023-12-14T11:49:03Z</time>
      </trkpt>
      <trkpt lat="48.4783" lon="2.0886">
        <ele>131.2</ele>
        <time>2023-12-14T11:49:04Z</time>
      </trkpt>
      <trkpt lat="48.47834" lon="2.0886">
        <ele>131.2</ele>
        <time>2023-12-14T11:49:05Z</time>
      </trkpt>
      <trkpt lat="48.47839" lon="2.08861">
        <ele>131.2</ele>
        <time>2023-12-14T11:49:06Z</time>
      </trkpt>
      <trkpt lat="48.47842" lon="2.08863">
        <ele>132.2</ele>
        <time>2023-12-14T11:49:07Z</time>
      </trkpt>
      <trkpt lat="48.47845" lon="2.08865">
        <ele>132.2</ele>
        <time>2023-12-14T11:49:08Z</time>
      </trkpt>
      <trkpt lat="48.47848" lon="2.08868">
        <ele>132.2</ele>
        <time>2023-12-14T11:49:09Z</time>
      </trkpt>
      <trkpt lat="48.4785" lon="2.08872">
        <ele>132.2</ele>
        <time>2023-12-14T11:49:10Z</time>
      </trkpt>
      <trkpt lat="48.47853" lon="2.08876">
        <ele>132.2</ele>
        <time>2023-12-14T11:49:11Z</time>
      </trkpt>
      <trkpt lat="48.47856" lon="2.08879">
        <ele>131.6</ele>
        <time>2023-12-14T11:49:12Z</time>
      </trkpt>
      <trkpt lat="48.4786" lon="2.08883">
        <ele>131.6</ele>
        <time>2023-12-14T11:49:13Z</time>
      </trkpt>
      <trkpt lat="48.47862" lon="2.08888">
        <ele>131.6</ele>
        <time>2023-12-14T11:49:14Z</time>
      </trkpt>
      <trkpt lat="48.47865" lon="2.08892">
        <ele>131.6</ele>
        <time>2023-12-14T11:49:15Z</time>
      </trkpt>
      <trkpt lat="48.47869" lon="2.08896">
        <ele>132.6</ele>
        <time>2023-12-14T11:49:16Z</time>
      </trkpt>
      <trkpt lat="48.47872" lon="2.089">
        <ele>132.6</ele>
        <time>2023-12-14T11:49:17Z</time>
      </trkpt>
      <trkpt lat="48.47876" lon="2.08904">
        <ele>132.6</ele>
        <time>2023-12-14T11:49:18Z</time>
      </trkpt>
      <trkpt lat="48.47879" lon="2.08908">
        <ele>131.8</ele>
        <time>2023-12-14T11:49:19Z</time>
      </trkpt>
      <trkpt lat="48.47883" lon="2.08912">
        <ele>130.6</ele>
        <time>2023-12-14T11:49:20Z</time>
      </trkpt>
      <trkpt lat="48.47885" lon="2.08916">
        <ele>130.6</ele>
        <time>2023-12-14T11:49:21Z</time>
      </trkpt>
      <trkpt lat="48.4789" lon="2.0892">
        <ele>130.6</ele>
        <time>2023-12-14T11:49:22Z</time>
      </trkpt>
      <trkpt lat="48.47894" lon="2.08924">
        <ele>129.6</ele>
        <time>2023-12-14T11:49:23Z</time>
      </trkpt>
      <trkpt lat="48.47898" lon="2.08925">
        <ele>130.4</ele>
        <time>2023-12-14T11:49:24Z</time>
      </trkpt>
      <trkpt lat="48.47903" lon="2.08925">
        <ele>130.4</ele>
        <time>2023-12-14T11:49:25Z</time>
      </trkpt>
      <trkpt lat="48.47907" lon="2.08925">
        <ele>130.4</ele>
        <time>2023-12-14T11:49:26Z</time>
      </trkpt>
      <trkpt lat="48.47911" lon="2.08923">
        <ele>131.4</ele>
        <time>2023-12-14T11:49:27Z</time>
      </trkpt>
      <trkpt lat="48.47915" lon="2.08922">
        <ele>132.2</ele>
        <time>2023-12-14T11:49:28Z</time>
      </trkpt>
      <trkpt lat="48.47918" lon="2.0892">
        <ele>132.2</ele>
        <time>2023-12-14T11:49:29Z</time>
      </trkpt>
      <trkpt lat="48.47922" lon="2.0892">
        <ele>132.2</ele>
        <time>2023-12-14T11:49:30Z</time>
      </trkpt>
      <trkpt lat="48.47925" lon="2.08919">
        <ele>132.2</ele>
        <time>2023-12-14T11:49:31Z</time>
      </trkpt>
      <trkpt lat="48.47928" lon="2.08918">
        <ele>132.2</ele>
        <time>2023-12-14T11:49:32Z</time>
      </trkpt>
      <trkpt lat="48.47932" lon="2.08918">
        <ele>132.2</ele>
        <time>2023-12-14T11:49:33Z</time>
      </trkpt>
      <trkpt lat="48.47935" lon="2.08916">
        <ele>132.2</ele>
        <time>2023-12-14T11:49:34Z</time>
      </trkpt>
      <trkpt lat="48.47938" lon="2.08915">
        <ele>133.2</ele>
        <time>2023-12-14T11:49:35Z</time>
      </trkpt>
      <trkpt lat="48.47942" lon="2.08913">
        <ele>133.2</ele>
        <time>2023-12-14T11:49:36Z</time>
      </trkpt>
      <trkpt lat="48.47947" lon="2.08912">
        <ele>133.2</ele>
        <time>2023-12-14T11:49:37Z</time>
      </trkpt>
      <trkpt lat="48.47952" lon="2.08911">
        <ele>133.2</ele>
        <time>2023-12-14T11:49:38Z</time>
      </trkpt>
      <trkpt lat="48.47956" lon="2.0891">
        <ele>133</ele>
        <time>2023-12-14T11:49:39Z</time>
      </trkpt>
      <trkpt lat="48.4796" lon="2.08909">
        <ele>133.4</ele>
        <time>2023-12-14T11:49:40Z</time>
      </trkpt>
      <trkpt lat="48.47964" lon="2.08907">
        <ele>133.4</ele>
        <time>2023-12-14T11:49:41Z</time>
      </trkpt>
      <trkpt lat="48.47968" lon="2.08907">
        <ele>133.4</ele>
        <time>2023-12-14T11:49:42Z</time>
      </trkpt>
      <trkpt lat="48.47972" lon="2.08906">
        <ele>134.2</ele>
        <time>2023-12-14T11:49:43Z</time>
      </trkpt>
      <trkpt lat="48.47977" lon="2.08905">
        <ele>133.2</ele>
        <time>2023-12-14T11:49:44Z</time>
      </trkpt>
      <trkpt lat="48.47982" lon="2.08904">
        <ele>133.2</ele>
        <time>2023-12-14T11:49:45Z</time>
      </trkpt>
      <trkpt lat="48.47987" lon="2.08903">
        <ele>133.2</ele>
        <time>2023-12-14T11:49:46Z</time>
      </trkpt>
      <trkpt lat="48.47992" lon="2.08902">
        <ele>133.6</ele>
        <time>2023-12-14T11:49:47Z</time>
      </trkpt>
      <trkpt lat="48.47997" lon="2.08901">
        <ele>133.6</ele>
        <time>2023-12-14T11:49:48Z</time>
      </trkpt>
      <trkpt lat="48.48001" lon="2.08901">
        <ele>133.6</ele>
        <time>2023-12-14T11:49:49Z</time>
      </trkpt>
      <trkpt lat="48.48008" lon="2.089">
        <ele>133.6</ele>
        <time>2023-12-14T11:49:50Z</time>
      </trkpt>
      <trkpt lat="48.48015" lon="2.089">
        <ele>134.2</ele>
        <time>2023-12-14T11:49:51Z</time>
      </trkpt>
      <trkpt lat="48.4802" lon="2.089">
        <ele>133.2</ele>
        <time>2023-12-14T11:49:52Z</time>
      </trkpt>
      <trkpt lat="48.48025" lon="2.08899">
        <ele>133.2</ele>
        <time>2023-12-14T11:49:53Z</time>
      </trkpt>
      <trkpt lat="48.4803" lon="2.08898">
        <ele>133.2</ele>
        <time>2023-12-14T11:49:54Z</time>
      </trkpt>
      <trkpt lat="48.48035" lon="2.08898">
        <ele>133.2</ele>
        <time>2023-12-14T11:49:55Z</time>
      </trkpt>
      <trkpt lat="48.4804" lon="2.08897">
        <ele>133.8</ele>
        <time>2023-12-14T11:49:56Z</time>
      </trkpt>
      <trkpt lat="48.48045" lon="2.08896">
        <ele>133.8</ele>
        <time>2023-12-14T11:49:57Z</time>
      </trkpt>
      <trkpt lat="48.48051" lon="2.08895">
        <ele>133.8</ele>
        <time>2023-12-14T11:49:58Z</time>
      </trkpt>
      <trkpt lat="48.48057" lon="2.08894">
        <ele>133</ele>
        <time>2023-12-14T11:49:59Z</time>
      </trkpt>
      <trkpt lat="48.48063" lon="2.08893">
        <ele>132.2</ele>
        <time>2023-12-14T11:50:00Z</time>
      </trkpt>
      <trkpt lat="48.48069" lon="2.08893">
        <ele>132.2</ele>
        <time>2023-12-14T11:50:01Z</time>
      </trkpt>
      <trkpt lat="48.48075" lon="2.08892">
        <ele>132.2</ele>
        <time>2023-12-14T11:50:02Z</time>
      </trkpt>
      <trkpt lat="48.48081" lon="2.08892">
        <ele>132.2</ele>
        <time>2023-12-14T11:50:03Z</time>
      </trkpt>
      <trkpt lat="48.48086" lon="2.08891">
        <ele>131.6</ele>
        <time>2023-12-14T11:50:04Z</time>
      </trkpt>
      <trkpt lat="48.48092" lon="2.0889">
        <ele>131.6</ele>
        <time>2023-12-14T11:50:05Z</time>
      </trkpt>
      <trkpt lat="48.48098" lon="2.0889">
        <ele>131.6</ele>
        <time>2023-12-14T11:50:06Z</time>
      </trkpt>
      <trkpt lat="48.48104" lon="2.08889">
        <ele>132.6</ele>
        <time>2023-12-14T11:50:07Z</time>
      </trkpt>
      <trkpt lat="48.4811" lon="2.08888">
        <ele>132.6</ele>
        <time>2023-12-14T11:50:08Z</time>
      </trkpt>
      <trkpt lat="48.48115" lon="2.08887">
        <ele>132.6</ele>
        <time>2023-12-14T11:50:09Z</time>
      </trkpt>
      <trkpt lat="48.48121" lon="2.08887">
        <ele>132.6</ele>
        <time>2023-12-14T11:50:10Z</time>
      </trkpt>
      <trkpt lat="48.48127" lon="2.08886">
        <ele>132.6</ele>
        <time>2023-12-14T11:50:11Z</time>
      </trkpt>
      <trkpt lat="48.48132" lon="2.08885">
        <ele>132</ele>
        <time>2023-12-14T11:50:12Z</time>
      </trkpt>
      <trkpt lat="48.48138" lon="2.08885">
        <ele>132</ele>
        <time>2023-12-14T11:50:13Z</time>
      </trkpt>
      <trkpt lat="48.48144" lon="2.08886">
        <ele>132</ele>
        <time>2023-12-14T11:50:14Z</time>
      </trkpt>
      <trkpt lat="48.4815" lon="2.08887">
        <ele>131.2</ele>
        <time>2023-12-14T11:50:15Z</time>
      </trkpt>
      <trkpt lat="48.48156" lon="2.08888">
        <ele>130.6</ele>
        <time>2023-12-14T11:50:16Z</time>
      </trkpt>
      <trkpt lat="48.48161" lon="2.08889">
        <ele>130.6</ele>
        <time>2023-12-14T11:50:17Z</time>
      </trkpt>
      <trkpt lat="48.48167" lon="2.08889">
        <ele>130.6</ele>
        <time>2023-12-14T11:50:18Z</time>
      </trkpt>
      <trkpt lat="48.48173" lon="2.0889">
        <ele>131.6</ele>
        <time>2023-12-14T11:50:19Z</time>
      </trkpt>
      <trkpt lat="48.48179" lon="2.08891">
        <ele>132.6</ele>
        <time>2023-12-14T11:50:20Z</time>
      </trkpt>
      <trkpt lat="48.48184" lon="2.08893">
        <ele>132.6</ele>
        <time>2023-12-14T11:50:21Z</time>
      </trkpt>
      <trkpt lat="48.4819" lon="2.08894">
        <ele>132.6</ele>
        <time>2023-12-14T11:50:22Z</time>
      </trkpt>
      <trkpt lat="48.48196" lon="2.08895">
        <ele>131.8</ele>
        <time>2023-12-14T11:50:23Z</time>
      </trkpt>
      <trkpt lat="48.48202" lon="2.08895">
        <ele>130.6</ele>
        <time>2023-12-14T11:50:24Z</time>
      </trkpt>
      <trkpt lat="48.48209" lon="2.08896">
        <ele>130.6</ele>
        <time>2023-12-14T11:50:25Z</time>
      </trkpt>
      <trkpt lat="48.48215" lon="2.08897">
        <ele>130.6</ele>
        <time>2023-12-14T11:50:26Z</time>
      </trkpt>
      <trkpt lat="48.48221" lon="2.08898">
        <ele>130.6</ele>
        <time>2023-12-14T11:50:27Z</time>
      </trkpt>
      <trkpt lat="48.48227" lon="2.08899">
        <ele>130.2</ele>
        <time>2023-12-14T11:50:28Z</time>
      </trkpt>
      <trkpt lat="48.48233" lon="2.089">
        <ele>130.2</ele>
        <time>2023-12-14T11:50:29Z</time>
      </trkpt>
      <trkpt lat="48.48239" lon="2.08901">
        <ele>130.2</ele>
        <time>2023-12-14T11:50:30Z</time>
      </trkpt>
      <trkpt lat="48.48245" lon="2.08903">
        <ele>131.2</ele>
        <time>2023-12-14T11:50:31Z</time>
      </trkpt>
      <trkpt lat="48.48251" lon="2.08904">
        <ele>131</ele>
        <time>2023-12-14T11:50:32Z</time>
      </trkpt>
      <trkpt lat="48.48257" lon="2.08905">
        <ele>131</ele>
        <time>2023-12-14T11:50:33Z</time>
      </trkpt>
      <trkpt lat="48.48263" lon="2.08906">
        <ele>131</ele>
        <time>2023-12-14T11:50:34Z</time>
      </trkpt>
      <trkpt lat="48.4827" lon="2.08908">
        <ele>131</ele>
        <time>2023-12-14T11:50:35Z</time>
      </trkpt>
      <trkpt lat="48.48276" lon="2.08909">
        <ele>130.2</ele>
        <time>2023-12-14T11:50:36Z</time>
      </trkpt>
      <trkpt lat="48.48282" lon="2.08911">
        <ele>130.2</ele>
        <time>2023-12-14T11:50:37Z</time>
      </trkpt>
      <trkpt lat="48.48288" lon="2.08912">
        <ele>130.2</ele>
        <time>2023-12-14T11:50:38Z</time>
      </trkpt>
      <trkpt lat="48.48294" lon="2.08913">
        <ele>130.2</ele>
        <time>2023-12-14T11:50:39Z</time>
      </trkpt>
      <trkpt lat="48.483" lon="2.08915">
        <ele>130.8</ele>
        <time>2023-12-14T11:50:40Z</time>
      </trkpt>
      <trkpt lat="48.48306" lon="2.08917">
        <ele>130.8</ele>
        <time>2023-12-14T11:50:41Z</time>
      </trkpt>
      <trkpt lat="48.48312" lon="2.08918">
        <ele>130.8</ele>
        <time>2023-12-14T11:50:42Z</time>
      </trkpt>
      <trkpt lat="48.48318" lon="2.0892">
        <ele>130.8</ele>
        <time>2023-12-14T11:50:43Z</time>
      </trkpt>
      <trkpt lat="48.48323" lon="2.08922">
        <ele>130.6</ele>
        <time>2023-12-14T11:50:44Z</time>
      </trkpt>
      <trkpt lat="48.48329" lon="2.08923">
        <ele>130.6</ele>
        <time>2023-12-14T11:50:45Z</time>
      </trkpt>
      <trkpt lat="48.48335" lon="2.08925">
        <ele>130.6</ele>
        <time>2023-12-14T11:50:46Z</time>
      </trkpt>
      <trkpt lat="48.48341" lon="2.08926">
        <ele>131.2</ele>
        <time>2023-12-14T11:50:47Z</time>
      </trkpt>
      <trkpt lat="48.48347" lon="2.08927">
        <ele>131.6</ele>
        <time>2023-12-14T11:50:48Z</time>
      </trkpt>
      <trkpt lat="48.48353" lon="2.08929">
        <ele>131.6</ele>
        <time>2023-12-14T11:50:49Z</time>
      </trkpt>
      <trkpt lat="48.48359" lon="2.0893">
        <ele>131.6</ele>
        <time>2023-12-14T11:50:50Z</time>
      </trkpt>
      <trkpt lat="48.48365" lon="2.08932">
        <ele>131.6</ele>
        <time>2023-12-14T11:50:51Z</time>
      </trkpt>
      <trkpt lat="48.48371" lon="2.08933">
        <ele>131.4</ele>
        <time>2023-12-14T11:50:52Z</time>
      </trkpt>
      <trkpt lat="48.48377" lon="2.08934">
        <ele>131.4</ele>
        <time>2023-12-14T11:50:53Z</time>
      </trkpt>
      <trkpt lat="48.48382" lon="2.08935">
        <ele>131.4</ele>
        <time>2023-12-14T11:50:54Z</time>
      </trkpt>
      <trkpt lat="48.48388" lon="2.08936">
        <ele>132.2</ele>
        <time>2023-12-14T11:50:55Z</time>
      </trkpt>
      <trkpt lat="48.48394" lon="2.08937">
        <ele>131.6</ele>
        <time>2023-12-14T11:50:56Z</time>
      </trkpt>
      <trkpt lat="48.484" lon="2.08937">
        <ele>131.6</ele>
        <time>2023-12-14T11:50:57Z</time>
      </trkpt>
      <trkpt lat="48.48406" lon="2.08937">
        <ele>131.6</ele>
        <time>2023-12-14T11:50:58Z</time>
      </trkpt>
      <trkpt lat="48.48411" lon="2.08936">
        <ele>131.6</ele>
        <time>2023-12-14T11:50:59Z</time>
      </trkpt>
      <trkpt lat="48.48417" lon="2.08936">
        <ele>132.2</ele>
        <time>2023-12-14T11:51:00Z</time>
      </trkpt>
      <trkpt lat="48.48423" lon="2.08935">
        <ele>132.2</ele>
        <time>2023-12-14T11:51:01Z</time>
      </trkpt>
      <trkpt lat="48.48429" lon="2.08935">
        <ele>132.2</ele>
        <time>2023-12-14T11:51:02Z</time>
      </trkpt>
      <trkpt lat="48.48434" lon="2.08935">
        <ele>132.2</ele>
        <time>2023-12-14T11:51:03Z</time>
      </trkpt>
      <trkpt lat="48.4844" lon="2.08934">
        <ele>132</ele>
        <time>2023-12-14T11:51:04Z</time>
      </trkpt>
      <trkpt lat="48.48446" lon="2.08933">
        <ele>132</ele>
        <time>2023-12-14T11:51:05Z</time>
      </trkpt>
      <trkpt lat="48.48452" lon="2.08932">
        <ele>132</ele>
        <time>2023-12-14T11:51:06Z</time>
      </trkpt>
      <trkpt lat="48.48457" lon="2.0893">
        <ele>132.6</ele>
        <time>2023-12-14T11:51:07Z</time>
      </trkpt>
      <trkpt lat="48.48463" lon="2.08929">
        <ele>133.2</ele>
        <time>2023-12-14T11:51:08Z</time>
      </trkpt>
      <trkpt lat="48.48469" lon="2.08928">
        <ele>133.2</ele>
        <time>2023-12-14T11:51:09Z</time>
      </trkpt>
      <trkpt lat="48.48475" lon="2.08927">
        <ele>133.2</ele>
        <time>2023-12-14T11:51:10Z</time>
      </trkpt>
      <trkpt lat="48.4848" lon="2.08926">
        <ele>133.2</ele>
        <time>2023-12-14T11:51:11Z</time>
      </trkpt>
      <trkpt lat="48.48486" lon="2.08925">
        <ele>134.4</ele>
        <time>2023-12-14T11:51:12Z</time>
      </trkpt>
      <trkpt lat="48.48491" lon="2.08923">
        <ele>134.4</ele>
        <time>2023-12-14T11:51:13Z</time>
      </trkpt>
      <trkpt lat="48.48496" lon="2.08922">
        <ele>134.4</ele>
        <time>2023-12-14T11:51:14Z</time>
      </trkpt>
      <trkpt lat="48.48502" lon="2.08921">
        <ele>134.4</ele>
        <time>2023-12-14T11:51:15Z</time>
      </trkpt>
      <trkpt lat="48.48507" lon="2.08919">
        <ele>135.2</ele>
        <time>2023-12-14T11:51:16Z</time>
      </trkpt>
      <trkpt lat="48.48513" lon="2.08917">
        <ele>135.2</ele>
        <time>2023-12-14T11:51:17Z</time>
      </trkpt>
      <trkpt lat="48.48518" lon="2.08915">
        <ele>135.2</ele>
        <time>2023-12-14T11:51:18Z</time>
      </trkpt>
      <trkpt lat="48.48523" lon="2.08914">
        <ele>135.2</ele>
        <time>2023-12-14T11:51:19Z</time>
      </trkpt>
      <trkpt lat="48.48528" lon="2.08912">
        <ele>135.2</ele>
        <time>2023-12-14T11:51:20Z</time>
      </trkpt>
      <trkpt lat="48.48533" lon="2.08911">
        <ele>135.2</ele>
        <time>2023-12-14T11:51:21Z</time>
      </trkpt>
      <trkpt lat="48.48538" lon="2.08909">
        <ele>135.2</ele>
        <time>2023-12-14T11:51:22Z</time>
      </trkpt>
      <trkpt lat="48.48543" lon="2.08907">
        <ele>134.2</ele>
        <time>2023-12-14T11:51:23Z</time>
      </trkpt>
      <trkpt lat="48.48548" lon="2.08906">
        <ele>133.8</ele>
        <time>2023-12-14T11:51:24Z</time>
      </trkpt>
      <trkpt lat="48.48553" lon="2.08904">
        <ele>133.8</ele>
        <time>2023-12-14T11:51:25Z</time>
      </trkpt>
      <trkpt lat="48.48558" lon="2.08902">
        <ele>133.8</ele>
        <time>2023-12-14T11:51:26Z</time>
      </trkpt>
      <trkpt lat="48.48564" lon="2.089">
        <ele>133.8</ele>
        <time>2023-12-14T11:51:27Z</time>
      </trkpt>
      <trkpt lat="48.48569" lon="2.08899">
        <ele>134.4</ele>
        <time>2023-12-14T11:51:28Z</time>
      </trkpt>
      <trkpt lat="48.48574" lon="2.08897">
        <ele>134.4</ele>
        <time>2023-12-14T11:51:29Z</time>
      </trkpt>
      <trkpt lat="48.48579" lon="2.08895">
        <ele>134.4</ele>
        <time>2023-12-14T11:51:30Z</time>
      </trkpt>
      <trkpt lat="48.48584" lon="2.08893">
        <ele>135</ele>
        <time>2023-12-14T11:51:31Z</time>
      </trkpt>
      <trkpt lat="48.48589" lon="2.08891">
        <ele>134.8</ele>
        <time>2023-12-14T11:51:32Z</time>
      </trkpt>
      <trkpt lat="48.48594" lon="2.08889">
        <ele>134.8</ele>
        <time>2023-12-14T11:51:33Z</time>
      </trkpt>
      <trkpt lat="48.48599" lon="2.08887">
        <ele>134.8</ele>
        <time>2023-12-14T11:51:34Z</time>
      </trkpt>
      <trkpt lat="48.48604" lon="2.08885">
        <ele>134.8</ele>
        <time>2023-12-14T11:51:35Z</time>
      </trkpt>
      <trkpt lat="48.48609" lon="2.08883">
        <ele>133.8</ele>
        <time>2023-12-14T11:51:36Z</time>
      </trkpt>
      <trkpt lat="48.48614" lon="2.08881">
        <ele>133.8</ele>
        <time>2023-12-14T11:51:37Z</time>
      </trkpt>
      <trkpt lat="48.48619" lon="2.0888">
        <ele>133.8</ele>
        <time>2023-12-14T11:51:38Z</time>
      </trkpt>
      <trkpt lat="48.48625" lon="2.08878">
        <ele>134.4</ele>
        <time>2023-12-14T11:51:39Z</time>
      </trkpt>
      <trkpt lat="48.4863" lon="2.08876">
        <ele>134.2</ele>
        <time>2023-12-14T11:51:40Z</time>
      </trkpt>
      <trkpt lat="48.48635" lon="2.08874">
        <ele>134.2</ele>
        <time>2023-12-14T11:51:41Z</time>
      </trkpt>
      <trkpt lat="48.48641" lon="2.08872">
        <ele>134.2</ele>
        <time>2023-12-14T11:51:42Z</time>
      </trkpt>
      <trkpt lat="48.48646" lon="2.0887">
        <ele>134.2</ele>
        <time>2023-12-14T11:51:43Z</time>
      </trkpt>
      <trkpt lat="48.48651" lon="2.08868">
        <ele>134.6</ele>
        <time>2023-12-14T11:51:44Z</time>
      </trkpt>
      <trkpt lat="48.48657" lon="2.08866">
        <ele>134.6</ele>
        <time>2023-12-14T11:51:45Z</time>
      </trkpt>
      <trkpt lat="48.48662" lon="2.08864">
        <ele>134.6</ele>
        <time>2023-12-14T11:51:46Z</time>
      </trkpt>
      <trkpt lat="48.48667" lon="2.08862">
        <ele>134.2</ele>
        <time>2023-12-14T11:51:47Z</time>
      </trkpt>
      <trkpt lat="48.48673" lon="2.0886">
        <ele>134</ele>
        <time>2023-12-14T11:51:48Z</time>
      </trkpt>
      <trkpt lat="48.48678" lon="2.08858">
        <ele>134</ele>
        <time>2023-12-14T11:51:49Z</time>
      </trkpt>
      <trkpt lat="48.48684" lon="2.08856">
        <ele>134</ele>
        <time>2023-12-14T11:51:50Z</time>
      </trkpt>
      <trkpt lat="48.48689" lon="2.08854">
        <ele>134</ele>
        <time>2023-12-14T11:51:51Z</time>
      </trkpt>
      <trkpt lat="48.48695" lon="2.08852">
        <ele>133.6</ele>
        <time>2023-12-14T11:51:52Z</time>
      </trkpt>
      <trkpt lat="48.487" lon="2.0885">
        <ele>133.6</ele>
        <time>2023-12-14T11:51:53Z</time>
      </trkpt>
      <trkpt lat="48.48706" lon="2.08847">
        <ele>133.6</ele>
        <time>2023-12-14T11:51:54Z</time>
      </trkpt>
      <trkpt lat="48.48711" lon="2.08845">
        <ele>133.6</ele>
        <time>2023-12-14T11:51:55Z</time>
      </trkpt>
      <trkpt lat="48.48717" lon="2.08843">
        <ele>133.6</ele>
        <time>2023-12-14T11:51:56Z</time>
      </trkpt>
      <trkpt lat="48.48722" lon="2.08842">
        <ele>133.6</ele>
        <time>2023-12-14T11:51:57Z</time>
      </trkpt>
      <trkpt lat="48.48728" lon="2.0884">
        <ele>133.6</ele>
        <time>2023-12-14T11:51:58Z</time>
      </trkpt>
      <trkpt lat="48.48734" lon="2.08838">
        <ele>133.6</ele>
        <time>2023-12-14T11:51:59Z</time>
      </trkpt>
      <trkpt lat="48.48739" lon="2.08836">
        <ele>133.2</ele>
        <time>2023-12-14T11:52:00Z</time>
      </trkpt>
      <trkpt lat="48.48745" lon="2.08834">
        <ele>133.2</ele>
        <time>2023-12-14T11:52:01Z</time>
      </trkpt>
      <trkpt lat="48.48751" lon="2.08832">
        <ele>133.2</ele>
        <time>2023-12-14T11:52:02Z</time>
      </trkpt>
      <trkpt lat="48.48757" lon="2.08831">
        <ele>132.8</ele>
        <time>2023-12-14T11:52:03Z</time>
      </trkpt>
      <trkpt lat="48.48763" lon="2.08829">
        <ele>132.8</ele>
        <time>2023-12-14T11:52:04Z</time>
      </trkpt>
      <trkpt lat="48.48769" lon="2.08827">
        <ele>132.8</ele>
        <time>2023-12-14T11:52:05Z</time>
      </trkpt>
      <trkpt lat="48.48774" lon="2.08826">
        <ele>132.8</ele>
        <time>2023-12-14T11:52:06Z</time>
      </trkpt>
      <trkpt lat="48.4878" lon="2.08824">
        <ele>132.8</ele>
        <time>2023-12-14T11:52:07Z</time>
      </trkpt>
      <trkpt lat="48.48786" lon="2.08823">
        <ele>132.4</ele>
        <time>2023-12-14T11:52:08Z</time>
      </trkpt>
      <trkpt lat="48.48792" lon="2.08822">
        <ele>132.4</ele>
        <time>2023-12-14T11:52:09Z</time>
      </trkpt>
      <trkpt lat="48.48798" lon="2.08821">
        <ele>132.4</ele>
        <time>2023-12-14T11:52:10Z</time>
      </trkpt>
      <trkpt lat="48.48804" lon="2.0882">
        <ele>132.4</ele>
        <time>2023-12-14T11:52:11Z</time>
      </trkpt>
      <trkpt lat="48.4881" lon="2.08818">
        <ele>132.6</ele>
        <time>2023-12-14T11:52:12Z</time>
      </trkpt>
      <trkpt lat="48.48815" lon="2.08818">
        <ele>132.6</ele>
        <time>2023-12-14T11:52:13Z</time>
      </trkpt>
      <trkpt lat="48.48821" lon="2.08816">
        <ele>132.6</ele>
        <time>2023-12-14T11:52:14Z</time>
      </trkpt>
      <trkpt lat="48.48827" lon="2.08815">
        <ele>132.6</ele>
        <time>2023-12-14T11:52:15Z</time>
      </trkpt>
      <trkpt lat="48.48833" lon="2.08813">
        <ele>132.4</ele>
        <time>2023-12-14T11:52:16Z</time>
      </trkpt>
      <trkpt lat="48.48839" lon="2.08811">
        <ele>132.4</ele>
        <time>2023-12-14T11:52:17Z</time>
      </trkpt>
      <trkpt lat="48.48845" lon="2.08809">
        <ele>132.4</ele>
        <time>2023-12-14T11:52:18Z</time>
      </trkpt>
      <trkpt lat="48.4885" lon="2.08807">
        <ele>132.6</ele>
        <time>2023-12-14T11:52:19Z</time>
      </trkpt>
      <trkpt lat="48.48856" lon="2.08804">
        <ele>131.8</ele>
        <time>2023-12-14T11:52:20Z</time>
      </trkpt>
      <trkpt lat="48.48862" lon="2.08802">
        <ele>131.8</ele>
        <time>2023-12-14T11:52:21Z</time>
      </trkpt>
      <trkpt lat="48.48867" lon="2.088">
        <ele>131.8</ele>
        <time>2023-12-14T11:52:22Z</time>
      </trkpt>
      <trkpt lat="48.48873" lon="2.08797">
        <ele>132.6</ele>
        <time>2023-12-14T11:52:23Z</time>
      </trkpt>
      <trkpt lat="48.48878" lon="2.08795">
        <ele>132.2</ele>
        <time>2023-12-14T11:52:24Z</time>
      </trkpt>
      <trkpt lat="48.48884" lon="2.08792">
        <ele>132.2</ele>
        <time>2023-12-14T11:52:25Z</time>
      </trkpt>
      <trkpt lat="48.4889" lon="2.0879">
        <ele>132.2</ele>
        <time>2023-12-14T11:52:26Z</time>
      </trkpt>
      <trkpt lat="48.48895" lon="2.08787">
        <ele>131.8</ele>
        <time>2023-12-14T11:52:27Z</time>
      </trkpt>
      <trkpt lat="48.48901" lon="2.08784">
        <ele>131.8</ele>
        <time>2023-12-14T11:52:28Z</time>
      </trkpt>
      <trkpt lat="48.48906" lon="2.08781">
        <ele>131.8</ele>
        <time>2023-12-14T11:52:29Z</time>
      </trkpt>
      <trkpt lat="48.48911" lon="2.08778">
        <ele>131.8</ele>
        <time>2023-12-14T11:52:30Z</time>
      </trkpt>
      <trkpt lat="48.48917" lon="2.08775">
        <ele>132.2</ele>
        <time>2023-12-14T11:52:31Z</time>
      </trkpt>
      <trkpt lat="48.48922" lon="2.08772">
        <ele>132.2</ele>
        <time>2023-12-14T11:52:32Z</time>
      </trkpt>
      <trkpt lat="48.48927" lon="2.08768">
        <ele>132.2</ele>
        <time>2023-12-14T11:52:33Z</time>
      </trkpt>
      <trkpt lat="48.48933" lon="2.08764">
        <ele>132.2</ele>
        <time>2023-12-14T11:52:34Z</time>
      </trkpt>
      <trkpt lat="48.48938" lon="2.08761">
        <ele>132.2</ele>
        <time>2023-12-14T11:52:35Z</time>
      </trkpt>
      <trkpt lat="48.48943" lon="2.08757">
        <ele>132</ele>
        <time>2023-12-14T11:52:36Z</time>
      </trkpt>
      <trkpt lat="48.48948" lon="2.08753">
        <ele>132</ele>
        <time>2023-12-14T11:52:37Z</time>
      </trkpt>
      <trkpt lat="48.48953" lon="2.08748">
        <ele>132</ele>
        <time>2023-12-14T11:52:38Z</time>
      </trkpt>
      <trkpt lat="48.48957" lon="2.08744">
        <ele>132.4</ele>
        <time>2023-12-14T11:52:39Z</time>
      </trkpt>
      <trkpt lat="48.48962" lon="2.0874">
        <ele>132.2</ele>
        <time>2023-12-14T11:52:40Z</time>
      </trkpt>
      <trkpt lat="48.48967" lon="2.08735">
        <ele>132.2</ele>
        <time>2023-12-14T11:52:41Z</time>
      </trkpt>
      <trkpt lat="48.48971" lon="2.0873">
        <ele>132.2</ele>
        <time>2023-12-14T11:52:42Z</time>
      </trkpt>
      <trkpt lat="48.48976" lon="2.08725">
        <ele>133.2</ele>
        <time>2023-12-14T11:52:43Z</time>
      </trkpt>
      <trkpt lat="48.48981" lon="2.0872">
        <ele>134.6</ele>
        <time>2023-12-14T11:52:44Z</time>
      </trkpt>
      <trkpt lat="48.48985" lon="2.08714">
        <ele>134.6</ele>
        <time>2023-12-14T11:52:45Z</time>
      </trkpt>
      <trkpt lat="48.4899" lon="2.08709">
        <ele>134.6</ele>
        <time>2023-12-14T11:52:46Z</time>
      </trkpt>
      <trkpt lat="48.48994" lon="2.08703">
        <ele>133.6</ele>
        <time>2023-12-14T11:52:47Z</time>
      </trkpt>
      <trkpt lat="48.48998" lon="2.08697">
        <ele>131.6</ele>
        <time>2023-12-14T11:52:48Z</time>
      </trkpt>
      <trkpt lat="48.49002" lon="2.08691">
        <ele>131.6</ele>
        <time>2023-12-14T11:52:49Z</time>
      </trkpt>
      <trkpt lat="48.49007" lon="2.08685">
        <ele>131.6</ele>
        <time>2023-12-14T11:52:50Z</time>
      </trkpt>
      <trkpt lat="48.49011" lon="2.0868">
        <ele>131.6</ele>
        <time>2023-12-14T11:52:51Z</time>
      </trkpt>
      <trkpt lat="48.49015" lon="2.08674">
        <ele>132.2</ele>
        <time>2023-12-14T11:52:52Z</time>
      </trkpt>
      <trkpt lat="48.4902" lon="2.08669">
        <ele>132.2</ele>
        <time>2023-12-14T11:52:53Z</time>
      </trkpt>
      <trkpt lat="48.49024" lon="2.08663">
        <ele>132.2</ele>
        <time>2023-12-14T11:52:54Z</time>
      </trkpt>
      <trkpt lat="48.49028" lon="2.08658">
        <ele>133.2</ele>
        <time>2023-12-14T11:52:55Z</time>
      </trkpt>
      <trkpt lat="48.49032" lon="2.08653">
        <ele>132.2</ele>
        <time>2023-12-14T11:52:56Z</time>
      </trkpt>
      <trkpt lat="48.49036" lon="2.08647">
        <ele>132.2</ele>
        <time>2023-12-14T11:52:57Z</time>
      </trkpt>
      <trkpt lat="48.4904" lon="2.08641">
        <ele>132.2</ele>
        <time>2023-12-14T11:52:58Z</time>
      </trkpt>
      <trkpt lat="48.49044" lon="2.08636">
        <ele>132.2</ele>
        <time>2023-12-14T11:52:59Z</time>
      </trkpt>
      <trkpt lat="48.49049" lon="2.0863">
        <ele>132.4</ele>
        <time>2023-12-14T11:53:00Z</time>
      </trkpt>
      <trkpt lat="48.49053" lon="2.08625">
        <ele>132.4</ele>
        <time>2023-12-14T11:53:01Z</time>
      </trkpt>
      <trkpt lat="48.49057" lon="2.0862">
        <ele>132.4</ele>
        <time>2023-12-14T11:53:02Z</time>
      </trkpt>
      <trkpt lat="48.49062" lon="2.08614">
        <ele>131.8</ele>
        <time>2023-12-14T11:53:03Z</time>
      </trkpt>
      <trkpt lat="48.49066" lon="2.08609">
        <ele>132</ele>
        <time>2023-12-14T11:53:04Z</time>
      </trkpt>
      <trkpt lat="48.4907" lon="2.08603">
        <ele>132</ele>
        <time>2023-12-14T11:53:05Z</time>
      </trkpt>
      <trkpt lat="48.49074" lon="2.08598">
        <ele>132</ele>
        <time>2023-12-14T11:53:06Z</time>
      </trkpt>
      <trkpt lat="48.49078" lon="2.08592">
        <ele>132.4</ele>
        <time>2023-12-14T11:53:07Z</time>
      </trkpt>
      <trkpt lat="48.49082" lon="2.08587">
        <ele>132.2</ele>
        <time>2023-12-14T11:53:08Z</time>
      </trkpt>
      <trkpt lat="48.49086" lon="2.08582">
        <ele>132.2</ele>
        <time>2023-12-14T11:53:09Z</time>
      </trkpt>
      <trkpt lat="48.4909" lon="2.08577">
        <ele>132.2</ele>
        <time>2023-12-14T11:53:10Z</time>
      </trkpt>
      <trkpt lat="48.49094" lon="2.08572">
        <ele>132.2</ele>
        <time>2023-12-14T11:53:11Z</time>
      </trkpt>
      <trkpt lat="48.49098" lon="2.08567">
        <ele>132</ele>
        <time>2023-12-14T11:53:12Z</time>
      </trkpt>
      <trkpt lat="48.49101" lon="2.08562">
        <ele>132</ele>
        <time>2023-12-14T11:53:13Z</time>
      </trkpt>
      <trkpt lat="48.49105" lon="2.08557">
        <ele>132</ele>
        <time>2023-12-14T11:53:14Z</time>
      </trkpt>
      <trkpt lat="48.4911" lon="2.08552">
        <ele>131.4</ele>
        <time>2023-12-14T11:53:15Z</time>
      </trkpt>
      <trkpt lat="48.49114" lon="2.08546">
        <ele>131.4</ele>
        <time>2023-12-14T11:53:16Z</time>
      </trkpt>
      <trkpt lat="48.49118" lon="2.0854">
        <ele>131.4</ele>
        <time>2023-12-14T11:53:17Z</time>
      </trkpt>
      <trkpt lat="48.49122" lon="2.08535">
        <ele>131.4</ele>
        <time>2023-12-14T11:53:18Z</time>
      </trkpt>
      <trkpt lat="48.49126" lon="2.08529">
        <ele>130.6</ele>
        <time>2023-12-14T11:53:19Z</time>
      </trkpt>
      <trkpt lat="48.4913" lon="2.08523">
        <ele>129.8</ele>
        <time>2023-12-14T11:53:20Z</time>
      </trkpt>
      <trkpt lat="48.49134" lon="2.08517">
        <ele>129.8</ele>
        <time>2023-12-14T11:53:21Z</time>
      </trkpt>
      <trkpt lat="48.49138" lon="2.08511">
        <ele>129.8</ele>
        <time>2023-12-14T11:53:22Z</time>
      </trkpt>
      <trkpt lat="48.49142" lon="2.08505">
        <ele>129</ele>
        <time>2023-12-14T11:53:23Z</time>
      </trkpt>
      <trkpt lat="48.49146" lon="2.08499">
        <ele>128.2</ele>
        <time>2023-12-14T11:53:24Z</time>
      </trkpt>
      <trkpt lat="48.49149" lon="2.08492">
        <ele>128.2</ele>
        <time>2023-12-14T11:53:25Z</time>
      </trkpt>
      <trkpt lat="48.49153" lon="2.08485">
        <ele>128.2</ele>
        <time>2023-12-14T11:53:26Z</time>
      </trkpt>
      <trkpt lat="48.49158" lon="2.08479">
        <ele>127.2</ele>
        <time>2023-12-14T11:53:27Z</time>
      </trkpt>
      <trkpt lat="48.49162" lon="2.08472">
        <ele>126.2</ele>
        <time>2023-12-14T11:53:28Z</time>
      </trkpt>
      <trkpt lat="48.49167" lon="2.08465">
        <ele>126.2</ele>
        <time>2023-12-14T11:53:29Z</time>
      </trkpt>
      <trkpt lat="48.49172" lon="2.08458">
        <ele>126.2</ele>
        <time>2023-12-14T11:53:30Z</time>
      </trkpt>
      <trkpt lat="48.49178" lon="2.08453">
        <ele>125.2</ele>
        <time>2023-12-14T11:53:31Z</time>
      </trkpt>
      <trkpt lat="48.49184" lon="2.08448">
        <ele>124.2</ele>
        <time>2023-12-14T11:53:32Z</time>
      </trkpt>
      <trkpt lat="48.49191" lon="2.08444">
        <ele>124.2</ele>
        <time>2023-12-14T11:53:33Z</time>
      </trkpt>
      <trkpt lat="48.49198" lon="2.08441">
        <ele>124.2</ele>
        <time>2023-12-14T11:53:34Z</time>
      </trkpt>
      <trkpt lat="48.49205" lon="2.08439">
        <ele>124.2</ele>
        <time>2023-12-14T11:53:35Z</time>
      </trkpt>
      <trkpt lat="48.49212" lon="2.08437">
        <ele>123.6</ele>
        <time>2023-12-14T11:53:36Z</time>
      </trkpt>
      <trkpt lat="48.49218" lon="2.08434">
        <ele>123.6</ele>
        <time>2023-12-14T11:53:37Z</time>
      </trkpt>
      <trkpt lat="48.49225" lon="2.0843">
        <ele>123.6</ele>
        <time>2023-12-14T11:53:38Z</time>
      </trkpt>
      <trkpt lat="48.49231" lon="2.08427">
        <ele>123.6</ele>
        <time>2023-12-14T11:53:39Z</time>
      </trkpt>
      <trkpt lat="48.49237" lon="2.08424">
        <ele>123.6</ele>
        <time>2023-12-14T11:53:40Z</time>
      </trkpt>
      <trkpt lat="48.49244" lon="2.0842">
        <ele>123.6</ele>
        <time>2023-12-14T11:53:41Z</time>
      </trkpt>
      <trkpt lat="48.4925" lon="2.08417">
        <ele>123.6</ele>
        <time>2023-12-14T11:53:42Z</time>
      </trkpt>
      <trkpt lat="48.49256" lon="2.08414">
        <ele>123.6</ele>
        <time>2023-12-14T11:53:43Z</time>
      </trkpt>
      <trkpt lat="48.49262" lon="2.08412">
        <ele>125</ele>
        <time>2023-12-14T11:53:44Z</time>
      </trkpt>
      <trkpt lat="48.49268" lon="2.08409">
        <ele>125</ele>
        <time>2023-12-14T11:53:45Z</time>
      </trkpt>
      <trkpt lat="48.49274" lon="2.08407">
        <ele>125</ele>
        <time>2023-12-14T11:53:46Z</time>
      </trkpt>
      <trkpt lat="48.4928" lon="2.08406">
        <ele>125</ele>
        <time>2023-12-14T11:53:47Z</time>
      </trkpt>
      <trkpt lat="48.49287" lon="2.08405">
        <ele>125</ele>
        <time>2023-12-14T11:53:48Z</time>
      </trkpt>
      <trkpt lat="48.49293" lon="2.08404">
        <ele>125</ele>
        <time>2023-12-14T11:53:49Z</time>
      </trkpt>
      <trkpt lat="48.49298" lon="2.08404">
        <ele>125</ele>
        <time>2023-12-14T11:53:50Z</time>
      </trkpt>
      <trkpt lat="48.49304" lon="2.08403">
        <ele>124</ele>
        <time>2023-12-14T11:53:51Z</time>
      </trkpt>
      <trkpt lat="48.4931" lon="2.08402">
        <ele>122</ele>
        <time>2023-12-14T11:53:52Z</time>
      </trkpt>
      <trkpt lat="48.49314" lon="2.08403">
        <ele>122</ele>
        <time>2023-12-14T11:53:53Z</time>
      </trkpt>
      <trkpt lat="48.4932" lon="2.08402">
        <ele>122</ele>
        <time>2023-12-14T11:53:54Z</time>
      </trkpt>
      <trkpt lat="48.49326" lon="2.08401">
        <ele>122.8</ele>
        <time>2023-12-14T11:53:55Z</time>
      </trkpt>
      <trkpt lat="48.49332" lon="2.084">
        <ele>123</ele>
        <time>2023-12-14T11:53:56Z</time>
      </trkpt>
      <trkpt lat="48.49338" lon="2.08399">
        <ele>123</ele>
        <time>2023-12-14T11:53:57Z</time>
      </trkpt>
      <trkpt lat="48.49344" lon="2.08398">
        <ele>123</ele>
        <time>2023-12-14T11:53:58Z</time>
      </trkpt>
      <trkpt lat="48.4935" lon="2.08397">
        <ele>123</ele>
        <time>2023-12-14T11:53:59Z</time>
      </trkpt>
      <trkpt lat="48.49356" lon="2.08397">
        <ele>123.4</ele>
        <time>2023-12-14T11:54:00Z</time>
      </trkpt>
      <trkpt lat="48.49362" lon="2.08396">
        <ele>123.4</ele>
        <time>2023-12-14T11:54:01Z</time>
      </trkpt>
      <trkpt lat="48.49369" lon="2.08396">
        <ele>123.4</ele>
        <time>2023-12-14T11:54:02Z</time>
      </trkpt>
      <trkpt lat="48.49375" lon="2.08396">
        <ele>123</ele>
        <time>2023-12-14T11:54:03Z</time>
      </trkpt>
      <trkpt lat="48.49381" lon="2.08397">
        <ele>123</ele>
        <time>2023-12-14T11:54:04Z</time>
      </trkpt>
      <trkpt lat="48.49387" lon="2.08398">
        <ele>123</ele>
        <time>2023-12-14T11:54:05Z</time>
      </trkpt>
      <trkpt lat="48.49393" lon="2.084">
        <ele>123</ele>
        <time>2023-12-14T11:54:06Z</time>
      </trkpt>
      <trkpt lat="48.49399" lon="2.08402">
        <ele>123.6</ele>
        <time>2023-12-14T11:54:07Z</time>
      </trkpt>
      <trkpt lat="48.49405" lon="2.08404">
        <ele>123.6</ele>
        <time>2023-12-14T11:54:08Z</time>
      </trkpt>
      <trkpt lat="48.4941" lon="2.08406">
        <ele>123.6</ele>
        <time>2023-12-14T11:54:09Z</time>
      </trkpt>
      <trkpt lat="48.49416" lon="2.08408">
        <ele>123.6</ele>
        <time>2023-12-14T11:54:10Z</time>
      </trkpt>
      <trkpt lat="48.49421" lon="2.0841">
        <ele>124.6</ele>
        <time>2023-12-14T11:54:11Z</time>
      </trkpt>
      <trkpt lat="48.49425" lon="2.08412">
        <ele>125.4</ele>
        <time>2023-12-14T11:54:12Z</time>
      </trkpt>
      <trkpt lat="48.4943" lon="2.08414">
        <ele>125.4</ele>
        <time>2023-12-14T11:54:13Z</time>
      </trkpt>
      <trkpt lat="48.49434" lon="2.08415">
        <ele>125.4</ele>
        <time>2023-12-14T11:54:14Z</time>
      </trkpt>
      <trkpt lat="48.49439" lon="2.08416">
        <ele>126.4</ele>
        <time>2023-12-14T11:54:15Z</time>
      </trkpt>
      <trkpt lat="48.49443" lon="2.08417">
        <ele>126.8</ele>
        <time>2023-12-14T11:54:16Z</time>
      </trkpt>
      <trkpt lat="48.49447" lon="2.08417">
        <ele>126.8</ele>
        <time>2023-12-14T11:54:17Z</time>
      </trkpt>
      <trkpt lat="48.49452" lon="2.08416">
        <ele>126.8</ele>
        <time>2023-12-14T11:54:18Z</time>
      </trkpt>
      <trkpt lat="48.49456" lon="2.08416">
        <ele>127.8</ele>
        <time>2023-12-14T11:54:19Z</time>
      </trkpt>
      <trkpt lat="48.4946" lon="2.08415">
        <ele>128.2</ele>
        <time>2023-12-14T11:54:20Z</time>
      </trkpt>
      <trkpt lat="48.49464" lon="2.08414">
        <ele>128.2</ele>
        <time>2023-12-14T11:54:21Z</time>
      </trkpt>
      <trkpt lat="48.49468" lon="2.08414">
        <ele>128.2</ele>
        <time>2023-12-14T11:54:22Z</time>
      </trkpt>
      <trkpt lat="48.49472" lon="2.08414">
        <ele>128.2</ele>
        <time>2023-12-14T11:54:23Z</time>
      </trkpt>
      <trkpt lat="48.49475" lon="2.08413">
        <ele>128.8</ele>
        <time>2023-12-14T11:54:24Z</time>
      </trkpt>
      <trkpt lat="48.49479" lon="2.08413">
        <ele>128.8</ele>
        <time>2023-12-14T11:54:25Z</time>
      </trkpt>
      <trkpt lat="48.49483" lon="2.08412">
        <ele>128.8</ele>
        <time>2023-12-14T11:54:26Z</time>
      </trkpt>
      <trkpt lat="48.49487" lon="2.08413">
        <ele>128.8</ele>
        <time>2023-12-14T11:54:27Z</time>
      </trkpt>
      <trkpt lat="48.49491" lon="2.08412">
        <ele>130</ele>
        <time>2023-12-14T11:54:28Z</time>
      </trkpt>
      <trkpt lat="48.49495" lon="2.08411">
        <ele>130</ele>
        <time>2023-12-14T11:54:29Z</time>
      </trkpt>
      <trkpt lat="48.49499" lon="2.08411">
        <ele>130</ele>
        <time>2023-12-14T11:54:30Z</time>
      </trkpt>
      <trkpt lat="48.49503" lon="2.08411">
        <ele>130.8</ele>
        <time>2023-12-14T11:54:31Z</time>
      </trkpt>
      <trkpt lat="48.49507" lon="2.08411">
        <ele>130.4</ele>
        <time>2023-12-14T11:54:32Z</time>
      </trkpt>
      <trkpt lat="48.49511" lon="2.0841">
        <ele>130.4</ele>
        <time>2023-12-14T11:54:33Z</time>
      </trkpt>
      <trkpt lat="48.49515" lon="2.08409">
        <ele>130.4</ele>
        <time>2023-12-14T11:54:34Z</time>
      </trkpt>
      <trkpt lat="48.49519" lon="2.08408">
        <ele>131.2</ele>
        <time>2023-12-14T11:54:35Z</time>
      </trkpt>
      <trkpt lat="48.49523" lon="2.08407">
        <ele>131.4</ele>
        <time>2023-12-14T11:54:36Z</time>
      </trkpt>
      <trkpt lat="48.49526" lon="2.08406">
        <ele>131.4</ele>
        <time>2023-12-14T11:54:37Z</time>
      </trkpt>
      <trkpt lat="48.49529" lon="2.08406">
        <ele>131.4</ele>
        <time>2023-12-14T11:54:38Z</time>
      </trkpt>
      <trkpt lat="48.49532" lon="2.08405">
        <ele>131.8</ele>
        <time>2023-12-14T11:54:39Z</time>
      </trkpt>
      <trkpt lat="48.49536" lon="2.08403">
        <ele>131.4</ele>
        <time>2023-12-14T11:54:40Z</time>
      </trkpt>
      <trkpt lat="48.4954" lon="2.08402">
        <ele>131.4</ele>
        <time>2023-12-14T11:54:41Z</time>
      </trkpt>
      <trkpt lat="48.49545" lon="2.08401">
        <ele>131.4</ele>
        <time>2023-12-14T11:54:42Z</time>
      </trkpt>
      <trkpt lat="48.49549" lon="2.084">
        <ele>132.4</ele>
        <time>2023-12-14T11:54:43Z</time>
      </trkpt>
      <trkpt lat="48.49553" lon="2.08399">
        <ele>132.8</ele>
        <time>2023-12-14T11:54:44Z</time>
      </trkpt>
      <trkpt lat="48.49557" lon="2.08398">
        <ele>132.8</ele>
        <time>2023-12-14T11:54:45Z</time>
      </trkpt>
      <trkpt lat="48.49561" lon="2.08399">
        <ele>132.8</ele>
        <time>2023-12-14T11:54:46Z</time>
      </trkpt>
      <trkpt lat="48.49564" lon="2.08399">
        <ele>132.6</ele>
        <time>2023-12-14T11:54:47Z</time>
      </trkpt>
      <trkpt lat="48.49568" lon="2.084">
        <ele>132.8</ele>
        <time>2023-12-14T11:54:48Z</time>
      </trkpt>
      <trkpt lat="48.49572" lon="2.08401">
        <ele>132.8</ele>
        <time>2023-12-14T11:54:49Z</time>
      </trkpt>
      <trkpt lat="48.49576" lon="2.08402">
        <ele>132.8</ele>
        <time>2023-12-14T11:54:50Z</time>
      </trkpt>
      <trkpt lat="48.49581" lon="2.08403">
        <ele>132.8</ele>
        <time>2023-12-14T11:54:51Z</time>
      </trkpt>
      <trkpt lat="48.49585" lon="2.08404">
        <ele>132.8</ele>
        <time>2023-12-14T11:54:52Z</time>
      </trkpt>
      <trkpt lat="48.49589" lon="2.08405">
        <ele>132.8</ele>
        <time>2023-12-14T11:54:53Z</time>
      </trkpt>
      <trkpt lat="48.49593" lon="2.08407">
        <ele>132.8</ele>
        <time>2023-12-14T11:54:54Z</time>
      </trkpt>
      <trkpt lat="48.49597" lon="2.08408">
        <ele>133</ele>
        <time>2023-12-14T11:54:55Z</time>
      </trkpt>
      <trkpt lat="48.49601" lon="2.08409">
        <ele>132.8</ele>
        <time>2023-12-14T11:54:56Z</time>
      </trkpt>
      <trkpt lat="48.49606" lon="2.0841">
        <ele>132.8</ele>
        <time>2023-12-14T11:54:57Z</time>
      </trkpt>
      <trkpt lat="48.49609" lon="2.0841">
        <ele>132.8</ele>
        <time>2023-12-14T11:54:58Z</time>
      </trkpt>
      <trkpt lat="48.49613" lon="2.0841">
        <ele>133.2</ele>
        <time>2023-12-14T11:54:59Z</time>
      </trkpt>
      <trkpt lat="48.49615" lon="2.08408">
        <ele>132.8</ele>
        <time>2023-12-14T11:55:00Z</time>
      </trkpt>
      <trkpt lat="48.49618" lon="2.08406">
        <ele>132.8</ele>
        <time>2023-12-14T11:55:01Z</time>
      </trkpt>
      <trkpt lat="48.49619" lon="2.08402">
        <ele>132.8</ele>
        <time>2023-12-14T11:55:02Z</time>
      </trkpt>
      <trkpt lat="48.49619" lon="2.08398">
        <ele>132.8</ele>
        <time>2023-12-14T11:55:03Z</time>
      </trkpt>
      <trkpt lat="48.49619" lon="2.08392">
        <ele>132.4</ele>
        <time>2023-12-14T11:55:04Z</time>
      </trkpt>
      <trkpt lat="48.4962" lon="2.08387">
        <ele>132.4</ele>
        <time>2023-12-14T11:55:05Z</time>
      </trkpt>
      <trkpt lat="48.49621" lon="2.08381">
        <ele>132.4</ele>
        <time>2023-12-14T11:55:06Z</time>
      </trkpt>
      <trkpt lat="48.49622" lon="2.08374">
        <ele>132.4</ele>
        <time>2023-12-14T11:55:07Z</time>
      </trkpt>
      <trkpt lat="48.49622" lon="2.08368">
        <ele>132.6</ele>
        <time>2023-12-14T11:55:08Z</time>
      </trkpt>
      <trkpt lat="48.49623" lon="2.08361">
        <ele>132.6</ele>
        <time>2023-12-14T11:55:09Z</time>
      </trkpt>
      <trkpt lat="48.49624" lon="2.08355">
        <ele>132.6</ele>
        <time>2023-12-14T11:55:10Z</time>
      </trkpt>
      <trkpt lat="48.49624" lon="2.08348">
        <ele>132.6</ele>
        <time>2023-12-14T11:55:11Z</time>
      </trkpt>
      <trkpt lat="48.49625" lon="2.08342">
        <ele>133</ele>
        <time>2023-12-14T11:55:12Z</time>
      </trkpt>
      <trkpt lat="48.49626" lon="2.08335">
        <ele>133</ele>
        <time>2023-12-14T11:55:13Z</time>
      </trkpt>
      <trkpt lat="48.49627" lon="2.08328">
        <ele>133</ele>
        <time>2023-12-14T11:55:14Z</time>
      </trkpt>
      <trkpt lat="48.49627" lon="2.08321">
        <ele>133</ele>
        <time>2023-12-14T11:55:15Z</time>
      </trkpt>
      <trkpt lat="48.49628" lon="2.08314">
        <ele>133</ele>
        <time>2023-12-14T11:55:16Z</time>
      </trkpt>
      <trkpt lat="48.49628" lon="2.08307">
        <ele>133</ele>
        <time>2023-12-14T11:55:17Z</time>
      </trkpt>
      <trkpt lat="48.49627" lon="2.083">
        <ele>133</ele>
        <time>2023-12-14T11:55:18Z</time>
      </trkpt>
      <trkpt lat="48.49627" lon="2.08293">
        <ele>132.6</ele>
        <time>2023-12-14T11:55:19Z</time>
      </trkpt>
      <trkpt lat="48.49625" lon="2.08286">
        <ele>133.2</ele>
        <time>2023-12-14T11:55:20Z</time>
      </trkpt>
      <trkpt lat="48.49624" lon="2.08279">
        <ele>133.2</ele>
        <time>2023-12-14T11:55:21Z</time>
      </trkpt>
      <trkpt lat="48.49623" lon="2.08273">
        <ele>133.2</ele>
        <time>2023-12-14T11:55:22Z</time>
      </trkpt>
      <trkpt lat="48.49621" lon="2.08266">
        <ele>133.2</ele>
        <time>2023-12-14T11:55:23Z</time>
      </trkpt>
      <trkpt lat="48.49619" lon="2.0826">
        <ele>132.4</ele>
        <time>2023-12-14T11:55:24Z</time>
      </trkpt>
      <trkpt lat="48.49617" lon="2.08254">
        <ele>132.4</ele>
        <time>2023-12-14T11:55:25Z</time>
      </trkpt>
      <trkpt lat="48.49615" lon="2.08247">
        <ele>132.4</ele>
        <time>2023-12-14T11:55:26Z</time>
      </trkpt>
      <trkpt lat="48.49612" lon="2.08241">
        <ele>132.4</ele>
        <time>2023-12-14T11:55:27Z</time>
      </trkpt>
      <trkpt lat="48.4961" lon="2.08234">
        <ele>132.6</ele>
        <time>2023-12-14T11:55:28Z</time>
      </trkpt>
      <trkpt lat="48.49608" lon="2.08228">
        <ele>132.6</ele>
        <time>2023-12-14T11:55:29Z</time>
      </trkpt>
      <trkpt lat="48.49606" lon="2.08222">
        <ele>132.6</ele>
        <time>2023-12-14T11:55:30Z</time>
      </trkpt>
      <trkpt lat="48.49604" lon="2.08215">
        <ele>133</ele>
        <time>2023-12-14T11:55:31Z</time>
      </trkpt>
      <trkpt lat="48.49602" lon="2.08209">
        <ele>133.2</ele>
        <time>2023-12-14T11:55:32Z</time>
      </trkpt>
      <trkpt lat="48.496" lon="2.08203">
        <ele>133.2</ele>
        <time>2023-12-14T11:55:33Z</time>
      </trkpt>
      <trkpt lat="48.49598" lon="2.08197">
        <ele>133.2</ele>
        <time>2023-12-14T11:55:34Z</time>
      </trkpt>
      <trkpt lat="48.49595" lon="2.08192">
        <ele>133.2</ele>
        <time>2023-12-14T11:55:35Z</time>
      </trkpt>
      <trkpt lat="48.49591" lon="2.08187">
        <ele>133.4</ele>
        <time>2023-12-14T11:55:36Z</time>
      </trkpt>
      <trkpt lat="48.49588" lon="2.08182">
        <ele>133.4</ele>
        <time>2023-12-14T11:55:37Z</time>
      </trkpt>
      <trkpt lat="48.49584" lon="2.08178">
        <ele>133.4</ele>
        <time>2023-12-14T11:55:38Z</time>
      </trkpt>
      <trkpt lat="48.4958" lon="2.08173">
        <ele>133.2</ele>
        <time>2023-12-14T11:55:39Z</time>
      </trkpt>
      <trkpt lat="48.49577" lon="2.08169">
        <ele>133.2</ele>
        <time>2023-12-14T11:55:40Z</time>
      </trkpt>
      <trkpt lat="48.49574" lon="2.08163">
        <ele>133.2</ele>
        <time>2023-12-14T11:55:41Z</time>
      </trkpt>
      <trkpt lat="48.49571" lon="2.08157">
        <ele>133.2</ele>
        <time>2023-12-14T11:55:42Z</time>
      </trkpt>
      <trkpt lat="48.49569" lon="2.08151">
        <ele>132.8</ele>
        <time>2023-12-14T11:55:43Z</time>
      </trkpt>
      <trkpt lat="48.49568" lon="2.08144">
        <ele>133</ele>
        <time>2023-12-14T11:55:44Z</time>
      </trkpt>
      <trkpt lat="48.49567" lon="2.08137">
        <ele>133</ele>
        <time>2023-12-14T11:55:45Z</time>
      </trkpt>
      <trkpt lat="48.49568" lon="2.0813">
        <ele>133</ele>
        <time>2023-12-14T11:55:46Z</time>
      </trkpt>
      <trkpt lat="48.4957" lon="2.08124">
        <ele>133</ele>
        <time>2023-12-14T11:55:47Z</time>
      </trkpt>
      <trkpt lat="48.49572" lon="2.08117">
        <ele>133</ele>
        <time>2023-12-14T11:55:48Z</time>
      </trkpt>
      <trkpt lat="48.49575" lon="2.08111">
        <ele>133</ele>
        <time>2023-12-14T11:55:49Z</time>
      </trkpt>
      <trkpt lat="48.49577" lon="2.08105">
        <ele>133</ele>
        <time>2023-12-14T11:55:50Z</time>
      </trkpt>
      <trkpt lat="48.4958" lon="2.081">
        <ele>133.4</ele>
        <time>2023-12-14T11:55:51Z</time>
      </trkpt>
      <trkpt lat="48.49582" lon="2.08094">
        <ele>133</ele>
        <time>2023-12-14T11:55:52Z</time>
      </trkpt>
      <trkpt lat="48.49585" lon="2.08088">
        <ele>133</ele>
        <time>2023-12-14T11:55:53Z</time>
      </trkpt>
      <trkpt lat="48.49587" lon="2.08083">
        <ele>133</ele>
        <time>2023-12-14T11:55:54Z</time>
      </trkpt>
      <trkpt lat="48.49589" lon="2.08078">
        <ele>133</ele>
        <time>2023-12-14T11:55:55Z</time>
      </trkpt>
      <trkpt lat="48.49592" lon="2.08072">
        <ele>131.2</ele>
        <time>2023-12-14T11:55:56Z</time>
      </trkpt>
      <trkpt lat="48.49594" lon="2.08067">
        <ele>131.2</ele>
        <time>2023-12-14T11:55:57Z</time>
      </trkpt>
      <trkpt lat="48.49596" lon="2.08061">
        <ele>131.2</ele>
        <time>2023-12-14T11:55:58Z</time>
      </trkpt>
      <trkpt lat="48.49599" lon="2.08056">
        <ele>131.2</ele>
        <time>2023-12-14T11:55:59Z</time>
      </trkpt>
      <trkpt lat="48.49601" lon="2.0805">
        <ele>130.6</ele>
        <time>2023-12-14T11:56:00Z</time>
      </trkpt>
      <trkpt lat="48.49604" lon="2.08043">
        <ele>130.6</ele>
        <time>2023-12-14T11:56:01Z</time>
      </trkpt>
      <trkpt lat="48.49607" lon="2.08037">
        <ele>130.6</ele>
        <time>2023-12-14T11:56:02Z</time>
      </trkpt>
      <trkpt lat="48.4961" lon="2.0803">
        <ele>129.6</ele>
        <time>2023-12-14T11:56:03Z</time>
      </trkpt>
      <trkpt lat="48.49612" lon="2.08023">
        <ele>129.2</ele>
        <time>2023-12-14T11:56:04Z</time>
      </trkpt>
      <trkpt lat="48.49614" lon="2.08015">
        <ele>129.2</ele>
        <time>2023-12-14T11:56:05Z</time>
      </trkpt>
      <trkpt lat="48.49617" lon="2.08007">
        <ele>129.2</ele>
        <time>2023-12-14T11:56:06Z</time>
      </trkpt>
      <trkpt lat="48.49618" lon="2.07998">
        <ele>129.2</ele>
        <time>2023-12-14T11:56:07Z</time>
      </trkpt>
      <trkpt lat="48.49619" lon="2.07989">
        <ele>129</ele>
        <time>2023-12-14T11:56:08Z</time>
      </trkpt>
      <trkpt lat="48.4962" lon="2.0798">
        <ele>129</ele>
        <time>2023-12-14T11:56:09Z</time>
      </trkpt>
      <trkpt lat="48.49621" lon="2.0797">
        <ele>129</ele>
        <time>2023-12-14T11:56:10Z</time>
      </trkpt>
      <trkpt lat="48.49622" lon="2.0796">
        <ele>129</ele>
        <time>2023-12-14T11:56:11Z</time>
      </trkpt>
      <trkpt lat="48.49622" lon="2.07949">
        <ele>127.6</ele>
        <time>2023-12-14T11:56:12Z</time>
      </trkpt>
      <trkpt lat="48.49621" lon="2.07939">
        <ele>127.6</ele>
        <time>2023-12-14T11:56:13Z</time>
      </trkpt>
      <trkpt lat="48.4962" lon="2.07928">
        <ele>127.6</ele>
        <time>2023-12-14T11:56:14Z</time>
      </trkpt>
      <trkpt lat="48.4962" lon="2.07917">
        <ele>126.6</ele>
        <time>2023-12-14T11:56:15Z</time>
      </trkpt>
      <trkpt lat="48.49618" lon="2.07905">
        <ele>125.4</ele>
        <time>2023-12-14T11:56:16Z</time>
      </trkpt>
      <trkpt lat="48.49617" lon="2.07894">
        <ele>125.4</ele>
        <time>2023-12-14T11:56:17Z</time>
      </trkpt>
      <trkpt lat="48.49616" lon="2.07882">
        <ele>125.4</ele>
        <time>2023-12-14T11:56:18Z</time>
      </trkpt>
      <trkpt lat="48.49614" lon="2.0787">
        <ele>125.4</ele>
        <time>2023-12-14T11:56:19Z</time>
      </trkpt>
      <trkpt lat="48.49612" lon="2.07858">
        <ele>124.4</ele>
        <time>2023-12-14T11:56:20Z</time>
      </trkpt>
      <trkpt lat="48.4961" lon="2.07846">
        <ele>122.6</ele>
        <time>2023-12-14T11:56:21Z</time>
      </trkpt>
      <trkpt lat="48.49609" lon="2.07834">
        <ele>122.6</ele>
        <time>2023-12-14T11:56:22Z</time>
      </trkpt>
      <trkpt lat="48.49607" lon="2.07821">
        <ele>122.6</ele>
        <time>2023-12-14T11:56:23Z</time>
      </trkpt>
      <trkpt lat="48.49605" lon="2.07809">
        <ele>121.6</ele>
        <time>2023-12-14T11:56:24Z</time>
      </trkpt>
      <trkpt lat="48.49604" lon="2.07796">
        <ele>119.8</ele>
        <time>2023-12-14T11:56:25Z</time>
      </trkpt>
      <trkpt lat="48.49604" lon="2.07784">
        <ele>119.8</ele>
        <time>2023-12-14T11:56:26Z</time>
      </trkpt>
      <trkpt lat="48.49606" lon="2.07774">
        <ele>119.8</ele>
        <time>2023-12-14T11:56:27Z</time>
      </trkpt>
      <trkpt lat="48.49606" lon="2.07762">
        <ele>118.8</ele>
        <time>2023-12-14T11:56:28Z</time>
      </trkpt>
      <trkpt lat="48.49608" lon="2.07749">
        <ele>117.6</ele>
        <time>2023-12-14T11:56:29Z</time>
      </trkpt>
      <trkpt lat="48.49609" lon="2.07735">
        <ele>117.6</ele>
        <time>2023-12-14T11:56:30Z</time>
      </trkpt>
      <trkpt lat="48.49612" lon="2.07722">
        <ele>117.6</ele>
        <time>2023-12-14T11:56:31Z</time>
      </trkpt>
      <trkpt lat="48.49615" lon="2.07709">
        <ele>116.6</ele>
        <time>2023-12-14T11:56:32Z</time>
      </trkpt>
      <trkpt lat="48.49619" lon="2.07696">
        <ele>116.2</ele>
        <time>2023-12-14T11:56:33Z</time>
      </trkpt>
      <trkpt lat="48.49624" lon="2.07685">
        <ele>116.2</ele>
        <time>2023-12-14T11:56:34Z</time>
      </trkpt>
      <trkpt lat="48.4963" lon="2.07674">
        <ele>116.2</ele>
        <time>2023-12-14T11:56:35Z</time>
      </trkpt>
      <trkpt lat="48.49636" lon="2.07664">
        <ele>115.2</ele>
        <time>2023-12-14T11:56:36Z</time>
      </trkpt>
      <trkpt lat="48.49641" lon="2.07654">
        <ele>112.8</ele>
        <time>2023-12-14T11:56:37Z</time>
      </trkpt>
      <trkpt lat="48.49648" lon="2.07645">
        <ele>112.8</ele>
        <time>2023-12-14T11:56:38Z</time>
      </trkpt>
      <trkpt lat="48.49655" lon="2.07636">
        <ele>112.8</ele>
        <time>2023-12-14T11:56:39Z</time>
      </trkpt>
      <trkpt lat="48.4966" lon="2.07626">
        <ele>111.8</ele>
        <time>2023-12-14T11:56:40Z</time>
      </trkpt>
      <trkpt lat="48.49666" lon="2.07615">
        <ele>108</ele>
        <time>2023-12-14T11:56:41Z</time>
      </trkpt>
      <trkpt lat="48.4967" lon="2.07602">
        <ele>108</ele>
        <time>2023-12-14T11:56:42Z</time>
      </trkpt>
      <trkpt lat="48.49674" lon="2.07588">
        <ele>108</ele>
        <time>2023-12-14T11:56:43Z</time>
      </trkpt>
      <trkpt lat="48.49677" lon="2.07574">
        <ele>107.8</ele>
        <time>2023-12-14T11:56:44Z</time>
      </trkpt>
      <trkpt lat="48.49678" lon="2.0756">
        <ele>107</ele>
        <time>2023-12-14T11:56:45Z</time>
      </trkpt>
      <trkpt lat="48.49678" lon="2.07546">
        <ele>107</ele>
        <time>2023-12-14T11:56:46Z</time>
      </trkpt>
      <trkpt lat="48.49677" lon="2.07532">
        <ele>107</ele>
        <time>2023-12-14T11:56:47Z</time>
      </trkpt>
      <trkpt lat="48.49675" lon="2.07518">
        <ele>106</ele>
        <time>2023-12-14T11:56:48Z</time>
      </trkpt>
      <trkpt lat="48.49673" lon="2.07505">
        <ele>105.6</ele>
        <time>2023-12-14T11:56:49Z</time>
      </trkpt>
      <trkpt lat="48.4967" lon="2.07491">
        <ele>105.6</ele>
        <time>2023-12-14T11:56:50Z</time>
      </trkpt>
      <trkpt lat="48.49666" lon="2.07477">
        <ele>105.6</ele>
        <time>2023-12-14T11:56:51Z</time>
      </trkpt>
      <trkpt lat="48.49664" lon="2.07464">
        <ele>104.6</ele>
        <time>2023-12-14T11:56:52Z</time>
      </trkpt>
      <trkpt lat="48.49663" lon="2.07449">
        <ele>101</ele>
        <time>2023-12-14T11:56:53Z</time>
      </trkpt>
      <trkpt lat="48.49663" lon="2.07434">
        <ele>101</ele>
        <time>2023-12-14T11:56:54Z</time>
      </trkpt>
      <trkpt lat="48.49664" lon="2.07419">
        <ele>101</ele>
        <time>2023-12-14T11:56:55Z</time>
      </trkpt>
      <trkpt lat="48.49666" lon="2.07405">
        <ele>100</ele>
        <time>2023-12-14T11:56:56Z</time>
      </trkpt>
      <trkpt lat="48.49669" lon="2.07389">
        <ele>99</ele>
        <time>2023-12-14T11:56:57Z</time>
      </trkpt>
      <trkpt lat="48.49672" lon="2.07375">
        <ele>99</ele>
        <time>2023-12-14T11:56:58Z</time>
      </trkpt>
      <trkpt lat="48.49677" lon="2.07362">
        <ele>99</ele>
        <time>2023-12-14T11:56:59Z</time>
      </trkpt>
      <trkpt lat="48.49682" lon="2.07349">
        <ele>98</ele>
        <time>2023-12-14T11:57:00Z</time>
      </trkpt>
      <trkpt lat="48.49686" lon="2.07336">
        <ele>97.2</ele>
        <time>2023-12-14T11:57:01Z</time>
      </trkpt>
      <trkpt lat="48.49692" lon="2.07325">
        <ele>97.2</ele>
        <time>2023-12-14T11:57:02Z</time>
      </trkpt>
      <trkpt lat="48.49699" lon="2.07314">
        <ele>97.2</ele>
        <time>2023-12-14T11:57:03Z</time>
      </trkpt>
      <trkpt lat="48.49705" lon="2.07303">
        <ele>96.2</ele>
        <time>2023-12-14T11:57:04Z</time>
      </trkpt>
      <trkpt lat="48.49711" lon="2.07291">
        <ele>94.8</ele>
        <time>2023-12-14T11:57:05Z</time>
      </trkpt>
      <trkpt lat="48.49718" lon="2.0728">
        <ele>94.8</ele>
        <time>2023-12-14T11:57:06Z</time>
      </trkpt>
      <trkpt lat="48.49724" lon="2.07269">
        <ele>94.8</ele>
        <time>2023-12-14T11:57:07Z</time>
      </trkpt>
      <trkpt lat="48.4973" lon="2.07258">
        <ele>93.8</ele>
        <time>2023-12-14T11:57:08Z</time>
      </trkpt>
      <trkpt lat="48.49737" lon="2.07247">
        <ele>92.4</ele>
        <time>2023-12-14T11:57:09Z</time>
      </trkpt>
      <trkpt lat="48.49743" lon="2.07237">
        <ele>92.4</ele>
        <time>2023-12-14T11:57:10Z</time>
      </trkpt>
      <trkpt lat="48.49749" lon="2.07226">
        <ele>92.4</ele>
        <time>2023-12-14T11:57:11Z</time>
      </trkpt>
      <trkpt lat="48.49755" lon="2.07215">
        <ele>92.4</ele>
        <time>2023-12-14T11:57:12Z</time>
      </trkpt>
      <trkpt lat="48.49762" lon="2.07204">
        <ele>91.6</ele>
        <time>2023-12-14T11:57:13Z</time>
      </trkpt>
      <trkpt lat="48.49768" lon="2.07193">
        <ele>91.6</ele>
        <time>2023-12-14T11:57:14Z</time>
      </trkpt>
      <trkpt lat="48.49774" lon="2.07182">
        <ele>91.6</ele>
        <time>2023-12-14T11:57:15Z</time>
      </trkpt>
      <trkpt lat="48.4978" lon="2.07172">
        <ele>90.6</ele>
        <time>2023-12-14T11:57:16Z</time>
      </trkpt>
      <trkpt lat="48.49787" lon="2.07162">
        <ele>89.6</ele>
        <time>2023-12-14T11:57:17Z</time>
      </trkpt>
      <trkpt lat="48.49793" lon="2.07152">
        <ele>89.6</ele>
        <time>2023-12-14T11:57:18Z</time>
      </trkpt>
      <trkpt lat="48.498" lon="2.07142">
        <ele>89.6</ele>
        <time>2023-12-14T11:57:19Z</time>
      </trkpt>
      <trkpt lat="48.49807" lon="2.07133">
        <ele>88.6</ele>
        <time>2023-12-14T11:57:20Z</time>
      </trkpt>
      <trkpt lat="48.49814" lon="2.07125">
        <ele>86</ele>
        <time>2023-12-14T11:57:21Z</time>
      </trkpt>
      <trkpt lat="48.49822" lon="2.07117">
        <ele>86</ele>
        <time>2023-12-14T11:57:22Z</time>
      </trkpt>
      <trkpt lat="48.4983" lon="2.0711">
        <ele>86</ele>
        <time>2023-12-14T11:57:23Z</time>
      </trkpt>
      <trkpt lat="48.49838" lon="2.07104">
        <ele>85</ele>
        <time>2023-12-14T11:57:24Z</time>
      </trkpt>
      <trkpt lat="48.49847" lon="2.07099">
        <ele>83.4</ele>
        <time>2023-12-14T11:57:25Z</time>
      </trkpt>
      <trkpt lat="48.49856" lon="2.07095">
        <ele>83.4</ele>
        <time>2023-12-14T11:57:26Z</time>
      </trkpt>
      <trkpt lat="48.49865" lon="2.07092">
        <ele>83.4</ele>
        <time>2023-12-14T11:57:27Z</time>
      </trkpt>
      <trkpt lat="48.49874" lon="2.0709">
        <ele>83.4</ele>
        <time>2023-12-14T11:57:28Z</time>
      </trkpt>
      <trkpt lat="48.49883" lon="2.07089">
        <ele>83.4</ele>
        <time>2023-12-14T11:57:29Z</time>
      </trkpt>
      <trkpt lat="48.49892" lon="2.07089">
        <ele>83.4</ele>
        <time>2023-12-14T11:57:30Z</time>
      </trkpt>
      <trkpt lat="48.49901" lon="2.0709">
        <ele>83.4</ele>
        <time>2023-12-14T11:57:31Z</time>
      </trkpt>
      <trkpt lat="48.4991" lon="2.07091">
        <ele>83.4</ele>
        <time>2023-12-14T11:57:32Z</time>
      </trkpt>
      <trkpt lat="48.49919" lon="2.07093">
        <ele>84</ele>
        <time>2023-12-14T11:57:33Z</time>
      </trkpt>
      <trkpt lat="48.49928" lon="2.07095">
        <ele>84</ele>
        <time>2023-12-14T11:57:34Z</time>
      </trkpt>
      <trkpt lat="48.49936" lon="2.07097">
        <ele>84</ele>
        <time>2023-12-14T11:57:35Z</time>
      </trkpt>
      <trkpt lat="48.49944" lon="2.07099">
        <ele>84</ele>
        <time>2023-12-14T11:57:36Z</time>
      </trkpt>
      <trkpt lat="48.49951" lon="2.071">
        <ele>84.6</ele>
        <time>2023-12-14T11:57:37Z</time>
      </trkpt>
      <trkpt lat="48.49958" lon="2.07101">
        <ele>84.6</ele>
        <time>2023-12-14T11:57:38Z</time>
      </trkpt>
      <trkpt lat="48.49965" lon="2.07101">
        <ele>84.6</ele>
        <time>2023-12-14T11:57:39Z</time>
      </trkpt>
      <trkpt lat="48.49971" lon="2.071">
        <ele>85.6</ele>
        <time>2023-12-14T11:57:40Z</time>
      </trkpt>
      <trkpt lat="48.49977" lon="2.07099">
        <ele>87</ele>
        <time>2023-12-14T11:57:41Z</time>
      </trkpt>
      <trkpt lat="48.49982" lon="2.07099">
        <ele>87</ele>
        <time>2023-12-14T11:57:42Z</time>
      </trkpt>
      <trkpt lat="48.49987" lon="2.07098">
        <ele>87</ele>
        <time>2023-12-14T11:57:43Z</time>
      </trkpt>
      <trkpt lat="48.49991" lon="2.07097">
        <ele>87.6</ele>
        <time>2023-12-14T11:57:44Z</time>
      </trkpt>
      <trkpt lat="48.49996" lon="2.07096">
        <ele>88.2</ele>
        <time>2023-12-14T11:57:45Z</time>
      </trkpt>
      <trkpt lat="48.49999" lon="2.07096">
        <ele>88.2</ele>
        <time>2023-12-14T11:57:46Z</time>
      </trkpt>
      <trkpt lat="48.50003" lon="2.07095">
        <ele>88.2</ele>
        <time>2023-12-14T11:57:47Z</time>
      </trkpt>
      <trkpt lat="48.50006" lon="2.07094">
        <ele>89.2</ele>
        <time>2023-12-14T11:57:48Z</time>
      </trkpt>
      <trkpt lat="48.5001" lon="2.07092">
        <ele>89.8</ele>
        <time>2023-12-14T11:57:49Z</time>
      </trkpt>
      <trkpt lat="48.50012" lon="2.07091">
        <ele>89.8</ele>
        <time>2023-12-14T11:57:50Z</time>
      </trkpt>
      <trkpt lat="48.50016" lon="2.07089">
        <ele>89.8</ele>
        <time>2023-12-14T11:57:51Z</time>
      </trkpt>
      <trkpt lat="48.5002" lon="2.07087">
        <ele>90.4</ele>
        <time>2023-12-14T11:57:52Z</time>
      </trkpt>
      <trkpt lat="48.50023" lon="2.07085">
        <ele>90.8</ele>
        <time>2023-12-14T11:57:53Z</time>
      </trkpt>
      <trkpt lat="48.50026" lon="2.07083">
        <ele>90.8</ele>
        <time>2023-12-14T11:57:54Z</time>
      </trkpt>
      <trkpt lat="48.5003" lon="2.07082">
        <ele>90.8</ele>
        <time>2023-12-14T11:57:55Z</time>
      </trkpt>
      <trkpt lat="48.50033" lon="2.07079">
        <ele>91.6</ele>
        <time>2023-12-14T11:57:56Z</time>
      </trkpt>
      <trkpt lat="48.50037" lon="2.07076">
        <ele>91.6</ele>
        <time>2023-12-14T11:57:57Z</time>
      </trkpt>
      <trkpt lat="48.5004" lon="2.07073">
        <ele>91.6</ele>
        <time>2023-12-14T11:57:58Z</time>
      </trkpt>
      <trkpt lat="48.50042" lon="2.0707">
        <ele>91.6</ele>
        <time>2023-12-14T11:57:59Z</time>
      </trkpt>
      <trkpt lat="48.50045" lon="2.07066">
        <ele>91.6</ele>
        <time>2023-12-14T11:58:00Z</time>
      </trkpt>
      <trkpt lat="48.50048" lon="2.07062">
        <ele>92.6</ele>
        <time>2023-12-14T11:58:01Z</time>
      </trkpt>
      <trkpt lat="48.50051" lon="2.07058">
        <ele>92.6</ele>
        <time>2023-12-14T11:58:02Z</time>
      </trkpt>
      <trkpt lat="48.50053" lon="2.07054">
        <ele>92.6</ele>
        <time>2023-12-14T11:58:03Z</time>
      </trkpt>
      <trkpt lat="48.50056" lon="2.07049">
        <ele>92.6</ele>
        <time>2023-12-14T11:58:04Z</time>
      </trkpt>
      <trkpt lat="48.50057" lon="2.07045">
        <ele>93.6</ele>
        <time>2023-12-14T11:58:05Z</time>
      </trkpt>
      <trkpt lat="48.50058" lon="2.07042">
        <ele>93.6</ele>
        <time>2023-12-14T11:58:06Z</time>
      </trkpt>
      <trkpt lat="48.5006" lon="2.07037">
        <ele>93.6</ele>
        <time>2023-12-14T11:58:07Z</time>
      </trkpt>
      <trkpt lat="48.50061" lon="2.07031">
        <ele>94.2</ele>
        <time>2023-12-14T11:58:08Z</time>
      </trkpt>
      <trkpt lat="48.50063" lon="2.07023">
        <ele>94.6</ele>
        <time>2023-12-14T11:58:09Z</time>
      </trkpt>
      <trkpt lat="48.50062" lon="2.0702">
        <ele>94.6</ele>
        <time>2023-12-14T11:58:10Z</time>
      </trkpt>
      <trkpt lat="48.50063" lon="2.07014">
        <ele>94.6</ele>
        <time>2023-12-14T11:58:11Z</time>
      </trkpt>
      <trkpt lat="48.50064" lon="2.07008">
        <ele>94.6</ele>
        <time>2023-12-14T11:58:12Z</time>
      </trkpt>
      <trkpt lat="48.50064" lon="2.07004">
        <ele>95.6</ele>
        <time>2023-12-14T11:58:13Z</time>
      </trkpt>
      <trkpt lat="48.50063" lon="2.06999">
        <ele>95.6</ele>
        <time>2023-12-14T11:58:14Z</time>
      </trkpt>
      <trkpt lat="48.50062" lon="2.06994">
        <ele>95.6</ele>
        <time>2023-12-14T11:58:15Z</time>
      </trkpt>
      <trkpt lat="48.50061" lon="2.0699">
        <ele>96.4</ele>
        <time>2023-12-14T11:58:16Z</time>
      </trkpt>
      <trkpt lat="48.50061" lon="2.06983">
        <ele>96.4</ele>
        <time>2023-12-14T11:58:17Z</time>
      </trkpt>
      <trkpt lat="48.5006" lon="2.06977">
        <ele>96.4</ele>
        <time>2023-12-14T11:58:18Z</time>
      </trkpt>
      <trkpt lat="48.50059" lon="2.06971">
        <ele>96.4</ele>
        <time>2023-12-14T11:58:19Z</time>
      </trkpt>
      <trkpt lat="48.50057" lon="2.06966">
        <ele>97.4</ele>
        <time>2023-12-14T11:58:20Z</time>
      </trkpt>
      <trkpt lat="48.50056" lon="2.06961">
        <ele>97.8</ele>
        <time>2023-12-14T11:58:21Z</time>
      </trkpt>
      <trkpt lat="48.50054" lon="2.06957">
        <ele>97.8</ele>
        <time>2023-12-14T11:58:22Z</time>
      </trkpt>
      <trkpt lat="48.50052" lon="2.06953">
        <ele>97.8</ele>
        <time>2023-12-14T11:58:23Z</time>
      </trkpt>
      <trkpt lat="48.5005" lon="2.06949">
        <ele>97.8</ele>
        <time>2023-12-14T11:58:24Z</time>
      </trkpt>
      <trkpt lat="48.50049" lon="2.06945">
        <ele>98.2</ele>
        <time>2023-12-14T11:58:25Z</time>
      </trkpt>
      <trkpt lat="48.50047" lon="2.06941">
        <ele>98.2</ele>
        <time>2023-12-14T11:58:26Z</time>
      </trkpt>
      <trkpt lat="48.50045" lon="2.06938">
        <ele>98.2</ele>
        <time>2023-12-14T11:58:27Z</time>
      </trkpt>
      <trkpt lat="48.50043" lon="2.06934">
        <ele>98.6</ele>
        <time>2023-12-14T11:58:28Z</time>
      </trkpt>
      <trkpt lat="48.50042" lon="2.0693">
        <ele>99.2</ele>
        <time>2023-12-14T11:58:29Z</time>
      </trkpt>
      <trkpt lat="48.5004" lon="2.06926">
        <ele>99.2</ele>
        <time>2023-12-14T11:58:30Z</time>
      </trkpt>
      <trkpt lat="48.50039" lon="2.06922">
        <ele>99.2</ele>
        <time>2023-12-14T11:58:31Z</time>
      </trkpt>
      <trkpt lat="48.50038" lon="2.06918">
        <ele>99.6</ele>
        <time>2023-12-14T11:58:32Z</time>
      </trkpt>
      <trkpt lat="48.50036" lon="2.06913">
        <ele>99.6</ele>
        <time>2023-12-14T11:58:33Z</time>
      </trkpt>
      <trkpt lat="48.50035" lon="2.06909">
        <ele>99.6</ele>
        <time>2023-12-14T11:58:34Z</time>
      </trkpt>
      <trkpt lat="48.50033" lon="2.06905">
        <ele>99.6</ele>
        <time>2023-12-14T11:58:35Z</time>
      </trkpt>
      <trkpt lat="48.50032" lon="2.06901">
        <ele>100.6</ele>
        <time>2023-12-14T11:58:36Z</time>
      </trkpt>
      <trkpt lat="48.50032" lon="2.06897">
        <ele>101</ele>
        <time>2023-12-14T11:58:37Z</time>
      </trkpt>
      <trkpt lat="48.50031" lon="2.06892">
        <ele>101</ele>
        <time>2023-12-14T11:58:38Z</time>
      </trkpt>
      <trkpt lat="48.5003" lon="2.06887">
        <ele>101</ele>
        <time>2023-12-14T11:58:39Z</time>
      </trkpt>
      <trkpt lat="48.50029" lon="2.06882">
        <ele>101</ele>
        <time>2023-12-14T11:58:40Z</time>
      </trkpt>
      <trkpt lat="48.50028" lon="2.06877">
        <ele>100.8</ele>
        <time>2023-12-14T11:58:41Z</time>
      </trkpt>
      <trkpt lat="48.50027" lon="2.06872">
        <ele>100.8</ele>
        <time>2023-12-14T11:58:42Z</time>
      </trkpt>
      <trkpt lat="48.50026" lon="2.06867">
        <ele>100.8</ele>
        <time>2023-12-14T11:58:43Z</time>
      </trkpt>
      <trkpt lat="48.50026" lon="2.06864">
        <ele>101.6</ele>
        <time>2023-12-14T11:58:44Z</time>
      </trkpt>
      <trkpt lat="48.50026" lon="2.06859">
        <ele>102</ele>
        <time>2023-12-14T11:58:45Z</time>
      </trkpt>
      <trkpt lat="48.50025" lon="2.06855">
        <ele>102</ele>
        <time>2023-12-14T11:58:46Z</time>
      </trkpt>
      <trkpt lat="48.50025" lon="2.0685">
        <ele>102</ele>
        <time>2023-12-14T11:58:47Z</time>
      </trkpt>
      <trkpt lat="48.50024" lon="2.06846">
        <ele>102.8</ele>
        <time>2023-12-14T11:58:48Z</time>
      </trkpt>
      <trkpt lat="48.50023" lon="2.06842">
        <ele>103</ele>
        <time>2023-12-14T11:58:49Z</time>
      </trkpt>
      <trkpt lat="48.50023" lon="2.06838">
        <ele>103</ele>
        <time>2023-12-14T11:58:50Z</time>
      </trkpt>
      <trkpt lat="48.50023" lon="2.06833">
        <ele>103</ele>
        <time>2023-12-14T11:58:51Z</time>
      </trkpt>
      <trkpt lat="48.50022" lon="2.06829">
        <ele>103.2</ele>
        <time>2023-12-14T11:58:52Z</time>
      </trkpt>
      <trkpt lat="48.50021" lon="2.06824">
        <ele>103.6</ele>
        <time>2023-12-14T11:58:53Z</time>
      </trkpt>
      <trkpt lat="48.50021" lon="2.06819">
        <ele>103.6</ele>
        <time>2023-12-14T11:58:54Z</time>
      </trkpt>
      <trkpt lat="48.5002" lon="2.06815">
        <ele>103.6</ele>
        <time>2023-12-14T11:58:55Z</time>
      </trkpt>
      <trkpt lat="48.50019" lon="2.0681">
        <ele>103.6</ele>
        <time>2023-12-14T11:58:56Z</time>
      </trkpt>
      <trkpt lat="48.50019" lon="2.06805">
        <ele>105</ele>
        <time>2023-12-14T11:58:57Z</time>
      </trkpt>
      <trkpt lat="48.50019" lon="2.06801">
        <ele>105</ele>
        <time>2023-12-14T11:58:58Z</time>
      </trkpt>
      <trkpt lat="48.50018" lon="2.06796">
        <ele>105</ele>
        <time>2023-12-14T11:58:59Z</time>
      </trkpt>
      <trkpt lat="48.50018" lon="2.06791">
        <ele>105</ele>
        <time>2023-12-14T11:59:00Z</time>
      </trkpt>
      <trkpt lat="48.50017" lon="2.06787">
        <ele>105.2</ele>
        <time>2023-12-14T11:59:01Z</time>
      </trkpt>
      <trkpt lat="48.50016" lon="2.06783">
        <ele>105.2</ele>
        <time>2023-12-14T11:59:02Z</time>
      </trkpt>
      <trkpt lat="48.50015" lon="2.06778">
        <ele>105.2</ele>
        <time>2023-12-14T11:59:03Z</time>
      </trkpt>
      <trkpt lat="48.50014" lon="2.06775">
        <ele>105.6</ele>
        <time>2023-12-14T11:59:04Z</time>
      </trkpt>
      <trkpt lat="48.50014" lon="2.06772">
        <ele>105.8</ele>
        <time>2023-12-14T11:59:05Z</time>
      </trkpt>
      <trkpt lat="48.50014" lon="2.06768">
        <ele>105.8</ele>
        <time>2023-12-14T11:59:06Z</time>
      </trkpt>
      <trkpt lat="48.50013" lon="2.06762">
        <ele>105.8</ele>
        <time>2023-12-14T11:59:07Z</time>
      </trkpt>
      <trkpt lat="48.50013" lon="2.06757">
        <ele>106.8</ele>
        <time>2023-12-14T11:59:08Z</time>
      </trkpt>
      <trkpt lat="48.50012" lon="2.06752">
        <ele>106.8</ele>
        <time>2023-12-14T11:59:09Z</time>
      </trkpt>
      <trkpt lat="48.50011" lon="2.06747">
        <ele>106.8</ele>
        <time>2023-12-14T11:59:10Z</time>
      </trkpt>
      <trkpt lat="48.5001" lon="2.06741">
        <ele>106.8</ele>
        <time>2023-12-14T11:59:11Z</time>
      </trkpt>
      <trkpt lat="48.5001" lon="2.06735">
        <ele>107.4</ele>
        <time>2023-12-14T11:59:12Z</time>
      </trkpt>
      <trkpt lat="48.5001" lon="2.0673">
        <ele>107.4</ele>
        <time>2023-12-14T11:59:13Z</time>
      </trkpt>
      <trkpt lat="48.50009" lon="2.06725">
        <ele>107.4</ele>
        <time>2023-12-14T11:59:14Z</time>
      </trkpt>
      <trkpt lat="48.50009" lon="2.0672">
        <ele>107.4</ele>
        <time>2023-12-14T11:59:15Z</time>
      </trkpt>
      <trkpt lat="48.50009" lon="2.06716">
        <ele>108.4</ele>
        <time>2023-12-14T11:59:16Z</time>
      </trkpt>
      <trkpt lat="48.50009" lon="2.0671">
        <ele>108.4</ele>
        <time>2023-12-14T11:59:17Z</time>
      </trkpt>
      <trkpt lat="48.50008" lon="2.06704">
        <ele>108.4</ele>
        <time>2023-12-14T11:59:18Z</time>
      </trkpt>
      <trkpt lat="48.50007" lon="2.06699">
        <ele>108.4</ele>
        <time>2023-12-14T11:59:19Z</time>
      </trkpt>
      <trkpt lat="48.50007" lon="2.06694">
        <ele>108.8</ele>
        <time>2023-12-14T11:59:20Z</time>
      </trkpt>
      <trkpt lat="48.50007" lon="2.06689">
        <ele>109.8</ele>
        <time>2023-12-14T11:59:21Z</time>
      </trkpt>
      <trkpt lat="48.50006" lon="2.06684">
        <ele>109.8</ele>
        <time>2023-12-14T11:59:22Z</time>
      </trkpt>
      <trkpt lat="48.50006" lon="2.06678">
        <ele>109.8</ele>
        <time>2023-12-14T11:59:23Z</time>
      </trkpt>
      <trkpt lat="48.50006" lon="2.06673">
        <ele>109.8</ele>
        <time>2023-12-14T11:59:24Z</time>
      </trkpt>
      <trkpt lat="48.50006" lon="2.06668">
        <ele>110.2</ele>
        <time>2023-12-14T11:59:25Z</time>
      </trkpt>
      <trkpt lat="48.50007" lon="2.06663">
        <ele>110.2</ele>
        <time>2023-12-14T11:59:26Z</time>
      </trkpt>
      <trkpt lat="48.50007" lon="2.06659">
        <ele>110.2</ele>
        <time>2023-12-14T11:59:27Z</time>
      </trkpt>
      <trkpt lat="48.50007" lon="2.06654">
        <ele>110.2</ele>
        <time>2023-12-14T11:59:28Z</time>
      </trkpt>
      <trkpt lat="48.50008" lon="2.06649">
        <ele>110.2</ele>
        <time>2023-12-14T11:59:29Z</time>
      </trkpt>
      <trkpt lat="48.50008" lon="2.06645">
        <ele>110.2</ele>
        <time>2023-12-14T11:59:30Z</time>
      </trkpt>
      <trkpt lat="48.50009" lon="2.0664">
        <ele>110.2</ele>
        <time>2023-12-14T11:59:31Z</time>
      </trkpt>
      <trkpt lat="48.50011" lon="2.06636">
        <ele>111.2</ele>
        <time>2023-12-14T11:59:32Z</time>
      </trkpt>
      <trkpt lat="48.50012" lon="2.06631">
        <ele>111.2</ele>
        <time>2023-12-14T11:59:33Z</time>
      </trkpt>
      <trkpt lat="48.50013" lon="2.06627">
        <ele>111.2</ele>
        <time>2023-12-14T11:59:34Z</time>
      </trkpt>
      <trkpt lat="48.50015" lon="2.06622">
        <ele>111.2</ele>
        <time>2023-12-14T11:59:35Z</time>
      </trkpt>
      <trkpt lat="48.50017" lon="2.06618">
        <ele>111.6</ele>
        <time>2023-12-14T11:59:36Z</time>
      </trkpt>
      <trkpt lat="48.50019" lon="2.06614">
        <ele>111.8</ele>
        <time>2023-12-14T11:59:37Z</time>
      </trkpt>
      <trkpt lat="48.50021" lon="2.06611">
        <ele>111.8</ele>
        <time>2023-12-14T11:59:38Z</time>
      </trkpt>
      <trkpt lat="48.50023" lon="2.06607">
        <ele>111.8</ele>
        <time>2023-12-14T11:59:39Z</time>
      </trkpt>
      <trkpt lat="48.50024" lon="2.06602">
        <ele>111.8</ele>
        <time>2023-12-14T11:59:40Z</time>
      </trkpt>
      <trkpt lat="48.50026" lon="2.06597">
        <ele>113.4</ele>
        <time>2023-12-14T11:59:41Z</time>
      </trkpt>
      <trkpt lat="48.50028" lon="2.06593">
        <ele>113.4</ele>
        <time>2023-12-14T11:59:42Z</time>
      </trkpt>
      <trkpt lat="48.5003" lon="2.06588">
        <ele>113.4</ele>
        <time>2023-12-14T11:59:43Z</time>
      </trkpt>
      <trkpt lat="48.50031" lon="2.06584">
        <ele>113.4</ele>
        <time>2023-12-14T11:59:44Z</time>
      </trkpt>
      <trkpt lat="48.50033" lon="2.0658">
        <ele>113.8</ele>
        <time>2023-12-14T11:59:45Z</time>
      </trkpt>
      <trkpt lat="48.50035" lon="2.06576">
        <ele>113.8</ele>
        <time>2023-12-14T11:59:46Z</time>
      </trkpt>
      <trkpt lat="48.50036" lon="2.06571">
        <ele>113.8</ele>
        <time>2023-12-14T11:59:47Z</time>
      </trkpt>
      <trkpt lat="48.50037" lon="2.06566">
        <ele>114.4</ele>
        <time>2023-12-14T11:59:48Z</time>
      </trkpt>
      <trkpt lat="48.50039" lon="2.06561">
        <ele>114.4</ele>
        <time>2023-12-14T11:59:49Z</time>
      </trkpt>
      <trkpt lat="48.5004" lon="2.06556">
        <ele>114.4</ele>
        <time>2023-12-14T11:59:50Z</time>
      </trkpt>
      <trkpt lat="48.50041" lon="2.0655">
        <ele>114.4</ele>
        <time>2023-12-14T11:59:51Z</time>
      </trkpt>
      <trkpt lat="48.50042" lon="2.06545">
        <ele>114.4</ele>
        <time>2023-12-14T11:59:52Z</time>
      </trkpt>
      <trkpt lat="48.50042" lon="2.0654">
        <ele>115</ele>
        <time>2023-12-14T11:59:53Z</time>
      </trkpt>
      <trkpt lat="48.50042" lon="2.06534">
        <ele>115</ele>
        <time>2023-12-14T11:59:54Z</time>
      </trkpt>
      <trkpt lat="48.50042" lon="2.06528">
        <ele>115</ele>
        <time>2023-12-14T11:59:55Z</time>
      </trkpt>
      <trkpt lat="48.50043" lon="2.06523">
        <ele>116</ele>
        <time>2023-12-14T11:59:56Z</time>
      </trkpt>
      <trkpt lat="48.50043" lon="2.06517">
        <ele>116.2</ele>
        <time>2023-12-14T11:59:57Z</time>
      </trkpt>
      <trkpt lat="48.50043" lon="2.06511">
        <ele>116.2</ele>
        <time>2023-12-14T11:59:58Z</time>
      </trkpt>
      <trkpt lat="48.50043" lon="2.06506">
        <ele>116.2</ele>
        <time>2023-12-14T11:59:59Z</time>
      </trkpt>
      <trkpt lat="48.50043" lon="2.065">
        <ele>116.4</ele>
        <time>2023-12-14T12:00:00Z</time>
      </trkpt>
      <trkpt lat="48.50043" lon="2.06495">
        <ele>116.8</ele>
        <time>2023-12-14T12:00:01Z</time>
      </trkpt>
      <trkpt lat="48.50043" lon="2.0649">
        <ele>116.8</ele>
        <time>2023-12-14T12:00:02Z</time>
      </trkpt>
      <trkpt lat="48.50042" lon="2.06486">
        <ele>116.8</ele>
        <time>2023-12-14T12:00:03Z</time>
      </trkpt>
      <trkpt lat="48.50042" lon="2.06482">
        <ele>117.8</ele>
        <time>2023-12-14T12:00:04Z</time>
      </trkpt>
      <trkpt lat="48.50042" lon="2.06478">
        <ele>118</ele>
        <time>2023-12-14T12:00:05Z</time>
      </trkpt>
      <trkpt lat="48.50041" lon="2.06475">
        <ele>118</ele>
        <time>2023-12-14T12:00:06Z</time>
      </trkpt>
      <trkpt lat="48.50041" lon="2.06473">
        <ele>118</ele>
        <time>2023-12-14T12:00:07Z</time>
      </trkpt>
      <trkpt lat="48.50041" lon="2.06471">
        <ele>117.8</ele>
        <time>2023-12-14T12:00:08Z</time>
      </trkpt>
      <trkpt lat="48.50043" lon="2.06469">
        <ele>118</ele>
        <time>2023-12-14T12:00:09Z</time>
      </trkpt>
      <trkpt lat="48.50045" lon="2.06467">
        <ele>118</ele>
        <time>2023-12-14T12:00:10Z</time>
      </trkpt>
      <trkpt lat="48.50047" lon="2.06465">
        <ele>118</ele>
        <time>2023-12-14T12:00:11Z</time>
      </trkpt>
      <trkpt lat="48.5005" lon="2.06463">
        <ele>117</ele>
        <time>2023-12-14T12:00:12Z</time>
      </trkpt>
      <trkpt lat="48.50053" lon="2.06461">
        <ele>116.4</ele>
        <time>2023-12-14T12:00:13Z</time>
      </trkpt>
      <trkpt lat="48.50055" lon="2.06458">
        <ele>116.4</ele>
        <time>2023-12-14T12:00:14Z</time>
      </trkpt>
      <trkpt lat="48.50057" lon="2.06455">
        <ele>116.4</ele>
        <time>2023-12-14T12:00:15Z</time>
      </trkpt>
      <trkpt lat="48.5006" lon="2.06451">
        <ele>116.2</ele>
        <time>2023-12-14T12:00:16Z</time>
      </trkpt>
      <trkpt lat="48.50062" lon="2.06447">
        <ele>115.8</ele>
        <time>2023-12-14T12:00:17Z</time>
      </trkpt>
      <trkpt lat="48.50065" lon="2.06442">
        <ele>115.8</ele>
        <time>2023-12-14T12:00:18Z</time>
      </trkpt>
      <trkpt lat="48.50067" lon="2.06437">
        <ele>115.8</ele>
        <time>2023-12-14T12:00:19Z</time>
      </trkpt>
      <trkpt lat="48.50069" lon="2.06431">
        <ele>114.8</ele>
        <time>2023-12-14T12:00:20Z</time>
      </trkpt>
      <trkpt lat="48.50071" lon="2.06424">
        <ele>113.8</ele>
        <time>2023-12-14T12:00:21Z</time>
      </trkpt>
      <trkpt lat="48.50073" lon="2.06418">
        <ele>113.8</ele>
        <time>2023-12-14T12:00:22Z</time>
      </trkpt>
      <trkpt lat="48.50075" lon="2.0641">
        <ele>113.8</ele>
        <time>2023-12-14T12:00:23Z</time>
      </trkpt>
      <trkpt lat="48.50077" lon="2.064">
        <ele>112.8</ele>
        <time>2023-12-14T12:00:24Z</time>
      </trkpt>
      <trkpt lat="48.5008" lon="2.06391">
        <ele>110.8</ele>
        <time>2023-12-14T12:00:25Z</time>
      </trkpt>
      <trkpt lat="48.50083" lon="2.06383">
        <ele>110.8</ele>
        <time>2023-12-14T12:00:26Z</time>
      </trkpt>
      <trkpt lat="48.50085" lon="2.06371">
        <ele>110.8</ele>
        <time>2023-12-14T12:00:27Z</time>
      </trkpt>
      <trkpt lat="48.50087" lon="2.06361">
        <ele>109.8</ele>
        <time>2023-12-14T12:00:28Z</time>
      </trkpt>
      <trkpt lat="48.50089" lon="2.06352">
        <ele>107.6</ele>
        <time>2023-12-14T12:00:29Z</time>
      </trkpt>
      <trkpt lat="48.50091" lon="2.0634">
        <ele>107.6</ele>
        <time>2023-12-14T12:00:30Z</time>
      </trkpt>
      <trkpt lat="48.50093" lon="2.06331">
        <ele>107.6</ele>
        <time>2023-12-14T12:00:31Z</time>
      </trkpt>
      <trkpt lat="48.50096" lon="2.06323">
        <ele>106.6</ele>
        <time>2023-12-14T12:00:32Z</time>
      </trkpt>
      <trkpt lat="48.50099" lon="2.06313">
        <ele>104.6</ele>
        <time>2023-12-14T12:00:33Z</time>
      </trkpt>
      <trkpt lat="48.50101" lon="2.06303">
        <ele>104.6</ele>
        <time>2023-12-14T12:00:34Z</time>
      </trkpt>
      <trkpt lat="48.50104" lon="2.06291">
        <ele>104.6</ele>
        <time>2023-12-14T12:00:35Z</time>
      </trkpt>
      <trkpt lat="48.50105" lon="2.06277">
        <ele>103.6</ele>
        <time>2023-12-14T12:00:36Z</time>
      </trkpt>
      <trkpt lat="48.50108" lon="2.06262">
        <ele>102.6</ele>
        <time>2023-12-14T12:00:37Z</time>
      </trkpt>
      <trkpt lat="48.50111" lon="2.0625">
        <ele>102.6</ele>
        <time>2023-12-14T12:00:38Z</time>
      </trkpt>
      <trkpt lat="48.50114" lon="2.06236">
        <ele>102.6</ele>
        <time>2023-12-14T12:00:39Z</time>
      </trkpt>
      <trkpt lat="48.50117" lon="2.06222">
        <ele>101.6</ele>
        <time>2023-12-14T12:00:40Z</time>
      </trkpt>
      <trkpt lat="48.50119" lon="2.06208">
        <ele>101</ele>
        <time>2023-12-14T12:00:41Z</time>
      </trkpt>
      <trkpt lat="48.50122" lon="2.06194">
        <ele>101</ele>
        <time>2023-12-14T12:00:42Z</time>
      </trkpt>
      <trkpt lat="48.50124" lon="2.06181">
        <ele>101</ele>
        <time>2023-12-14T12:00:43Z</time>
      </trkpt>
      <trkpt lat="48.50127" lon="2.06168">
        <ele>102</ele>
        <time>2023-12-14T12:00:44Z</time>
      </trkpt>
      <trkpt lat="48.50129" lon="2.06157">
        <ele>102</ele>
        <time>2023-12-14T12:00:45Z</time>
      </trkpt>
      <trkpt lat="48.50131" lon="2.06146">
        <ele>102</ele>
        <time>2023-12-14T12:00:46Z</time>
      </trkpt>
      <trkpt lat="48.50133" lon="2.06135">
        <ele>102</ele>
        <time>2023-12-14T12:00:47Z</time>
      </trkpt>
      <trkpt lat="48.50135" lon="2.06125">
        <ele>103</ele>
        <time>2023-12-14T12:00:48Z</time>
      </trkpt>
      <trkpt lat="48.50137" lon="2.06115">
        <ele>105.2</ele>
        <time>2023-12-14T12:00:49Z</time>
      </trkpt>
      <trkpt lat="48.50139" lon="2.06105">
        <ele>105.2</ele>
        <time>2023-12-14T12:00:50Z</time>
      </trkpt>
      <trkpt lat="48.50141" lon="2.06096">
        <ele>105.2</ele>
        <time>2023-12-14T12:00:51Z</time>
      </trkpt>
      <trkpt lat="48.50142" lon="2.06088">
        <ele>105.2</ele>
        <time>2023-12-14T12:00:52Z</time>
      </trkpt>
      <trkpt lat="48.50144" lon="2.0608">
        <ele>106.4</ele>
        <time>2023-12-14T12:00:53Z</time>
      </trkpt>
      <trkpt lat="48.50145" lon="2.06073">
        <ele>106.4</ele>
        <time>2023-12-14T12:00:54Z</time>
      </trkpt>
      <trkpt lat="48.50147" lon="2.06066">
        <ele>106.4</ele>
        <time>2023-12-14T12:00:55Z</time>
      </trkpt>
      <trkpt lat="48.50149" lon="2.06058">
        <ele>106.4</ele>
        <time>2023-12-14T12:00:56Z</time>
      </trkpt>
      <trkpt lat="48.5015" lon="2.06051">
        <ele>107</ele>
        <time>2023-12-14T12:00:57Z</time>
      </trkpt>
      <trkpt lat="48.50152" lon="2.06044">
        <ele>107</ele>
        <time>2023-12-14T12:00:58Z</time>
      </trkpt>
      <trkpt lat="48.50154" lon="2.06037">
        <ele>107</ele>
        <time>2023-12-14T12:00:59Z</time>
      </trkpt>
      <trkpt lat="48.50155" lon="2.0603">
        <ele>107.8</ele>
        <time>2023-12-14T12:01:00Z</time>
      </trkpt>
      <trkpt lat="48.50157" lon="2.06023">
        <ele>108</ele>
        <time>2023-12-14T12:01:01Z</time>
      </trkpt>
      <trkpt lat="48.50159" lon="2.06016">
        <ele>108</ele>
        <time>2023-12-14T12:01:02Z</time>
      </trkpt>
      <trkpt lat="48.50161" lon="2.06009">
        <ele>108</ele>
        <time>2023-12-14T12:01:03Z</time>
      </trkpt>
      <trkpt lat="48.50163" lon="2.06003">
        <ele>109</ele>
        <time>2023-12-14T12:01:04Z</time>
      </trkpt>
      <trkpt lat="48.50165" lon="2.05996">
        <ele>109</ele>
        <time>2023-12-14T12:01:05Z</time>
      </trkpt>
      <trkpt lat="48.50168" lon="2.0599">
        <ele>109</ele>
        <time>2023-12-14T12:01:06Z</time>
      </trkpt>
      <trkpt lat="48.50171" lon="2.05984">
        <ele>109</ele>
        <time>2023-12-14T12:01:07Z</time>
      </trkpt>
      <trkpt lat="48.50173" lon="2.05978">
        <ele>109</ele>
        <time>2023-12-14T12:01:08Z</time>
      </trkpt>
      <trkpt lat="48.50176" lon="2.05973">
        <ele>110.4</ele>
        <time>2023-12-14T12:01:09Z</time>
      </trkpt>
      <trkpt lat="48.50179" lon="2.05967">
        <ele>110.4</ele>
        <time>2023-12-14T12:01:10Z</time>
      </trkpt>
      <trkpt lat="48.50182" lon="2.05962">
        <ele>110.4</ele>
        <time>2023-12-14T12:01:11Z</time>
      </trkpt>
      <trkpt lat="48.50185" lon="2.05956">
        <ele>111</ele>
        <time>2023-12-14T12:01:12Z</time>
      </trkpt>
      <trkpt lat="48.50189" lon="2.05951">
        <ele>111.4</ele>
        <time>2023-12-14T12:01:13Z</time>
      </trkpt>
      <trkpt lat="48.50192" lon="2.05946">
        <ele>111.4</ele>
        <time>2023-12-14T12:01:14Z</time>
      </trkpt>
      <trkpt lat="48.50196" lon="2.05942">
        <ele>111.4</ele>
        <time>2023-12-14T12:01:15Z</time>
      </trkpt>
      <trkpt lat="48.50199" lon="2.05939">
        <ele>112.4</ele>
        <time>2023-12-14T12:01:16Z</time>
      </trkpt>
      <trkpt lat="48.50203" lon="2.05935">
        <ele>113</ele>
        <time>2023-12-14T12:01:17Z</time>
      </trkpt>
      <trkpt lat="48.50207" lon="2.05932">
        <ele>113</ele>
        <time>2023-12-14T12:01:18Z</time>
      </trkpt>
      <trkpt lat="48.50211" lon="2.05929">
        <ele>113</ele>
        <time>2023-12-14T12:01:19Z</time>
      </trkpt>
      <trkpt lat="48.50214" lon="2.05927">
        <ele>113.8</ele>
        <time>2023-12-14T12:01:20Z</time>
      </trkpt>
      <trkpt lat="48.50217" lon="2.05924">
        <ele>114</ele>
        <time>2023-12-14T12:01:21Z</time>
      </trkpt>
      <trkpt lat="48.50221" lon="2.05922">
        <ele>114</ele>
        <time>2023-12-14T12:01:22Z</time>
      </trkpt>
      <trkpt lat="48.50224" lon="2.0592">
        <ele>114</ele>
        <time>2023-12-14T12:01:23Z</time>
      </trkpt>
      <trkpt lat="48.50227" lon="2.05918">
        <ele>115</ele>
        <time>2023-12-14T12:01:24Z</time>
      </trkpt>
      <trkpt lat="48.5023" lon="2.05915">
        <ele>115.4</ele>
        <time>2023-12-14T12:01:25Z</time>
      </trkpt>
      <trkpt lat="48.50233" lon="2.05913">
        <ele>115.4</ele>
        <time>2023-12-14T12:01:26Z</time>
      </trkpt>
      <trkpt lat="48.50236" lon="2.05912">
        <ele>115.4</ele>
        <time>2023-12-14T12:01:27Z</time>
      </trkpt>
      <trkpt lat="48.50239" lon="2.05911">
        <ele>115.4</ele>
        <time>2023-12-14T12:01:28Z</time>
      </trkpt>
      <trkpt lat="48.50242" lon="2.05909">
        <ele>115.8</ele>
        <time>2023-12-14T12:01:29Z</time>
      </trkpt>
      <trkpt lat="48.50245" lon="2.05907">
        <ele>115.8</ele>
        <time>2023-12-14T12:01:30Z</time>
      </trkpt>
      <trkpt lat="48.50248" lon="2.05906">
        <ele>115.8</ele>
        <time>2023-12-14T12:01:31Z</time>
      </trkpt>
      <trkpt lat="48.50251" lon="2.05905">
        <ele>116</ele>
        <time>2023-12-14T12:01:32Z</time>
      </trkpt>
      <trkpt lat="48.50254" lon="2.05903">
        <ele>116</ele>
        <time>2023-12-14T12:01:33Z</time>
      </trkpt>
      <trkpt lat="48.50257" lon="2.05902">
        <ele>116</ele>
        <time>2023-12-14T12:01:34Z</time>
      </trkpt>
      <trkpt lat="48.5026" lon="2.05901">
        <ele>116</ele>
        <time>2023-12-14T12:01:35Z</time>
      </trkpt>
      <trkpt lat="48.50263" lon="2.05899">
        <ele>116</ele>
        <time>2023-12-14T12:01:36Z</time>
      </trkpt>
      <trkpt lat="48.50265" lon="2.05896">
        <ele>116.8</ele>
        <time>2023-12-14T12:01:37Z</time>
      </trkpt>
      <trkpt lat="48.50268" lon="2.05894">
        <ele>116.8</ele>
        <time>2023-12-14T12:01:38Z</time>
      </trkpt>
      <trkpt lat="48.50271" lon="2.05892">
        <ele>116.8</ele>
        <time>2023-12-14T12:01:39Z</time>
      </trkpt>
      <trkpt lat="48.50274" lon="2.0589">
        <ele>117.4</ele>
        <time>2023-12-14T12:01:40Z</time>
      </trkpt>
      <trkpt lat="48.50277" lon="2.05888">
        <ele>118.2</ele>
        <time>2023-12-14T12:01:41Z</time>
      </trkpt>
      <trkpt lat="48.5028" lon="2.05886">
        <ele>118.2</ele>
        <time>2023-12-14T12:01:42Z</time>
      </trkpt>
      <trkpt lat="48.50284" lon="2.05884">
        <ele>118.2</ele>
        <time>2023-12-14T12:01:43Z</time>
      </trkpt>
      <trkpt lat="48.50287" lon="2.05881">
        <ele>118.2</ele>
        <time>2023-12-14T12:01:44Z</time>
      </trkpt>
      <trkpt lat="48.5029" lon="2.05879">
        <ele>118.8</ele>
        <time>2023-12-14T12:01:45Z</time>
      </trkpt>
      <trkpt lat="48.50294" lon="2.05876">
        <ele>118.8</ele>
        <time>2023-12-14T12:01:46Z</time>
      </trkpt>
      <trkpt lat="48.50297" lon="2.05873">
        <ele>118.8</ele>
        <time>2023-12-14T12:01:47Z</time>
      </trkpt>
      <trkpt lat="48.503" lon="2.05871">
        <ele>119.2</ele>
        <time>2023-12-14T12:01:48Z</time>
      </trkpt>
      <trkpt lat="48.50303" lon="2.05869">
        <ele>119.2</ele>
        <time>2023-12-14T12:01:49Z</time>
      </trkpt>
      <trkpt lat="48.50306" lon="2.05867">
        <ele>119.2</ele>
        <time>2023-12-14T12:01:50Z</time>
      </trkpt>
      <trkpt lat="48.50309" lon="2.05865">
        <ele>119.2</ele>
        <time>2023-12-14T12:01:51Z</time>
      </trkpt>
      <trkpt lat="48.50312" lon="2.05863">
        <ele>119.2</ele>
        <time>2023-12-14T12:01:52Z</time>
      </trkpt>
      <trkpt lat="48.50315" lon="2.05861">
        <ele>120.4</ele>
        <time>2023-12-14T12:01:53Z</time>
      </trkpt>
      <trkpt lat="48.50318" lon="2.05859">
        <ele>120.4</ele>
        <time>2023-12-14T12:01:54Z</time>
      </trkpt>
      <trkpt lat="48.50321" lon="2.05857">
        <ele>120.4</ele>
        <time>2023-12-14T12:01:55Z</time>
      </trkpt>
      <trkpt lat="48.50324" lon="2.05854">
        <ele>120.4</ele>
        <time>2023-12-14T12:01:56Z</time>
      </trkpt>
      <trkpt lat="48.50328" lon="2.05852">
        <ele>121.2</ele>
        <time>2023-12-14T12:01:57Z</time>
      </trkpt>
      <trkpt lat="48.50331" lon="2.0585">
        <ele>121.2</ele>
        <time>2023-12-14T12:01:58Z</time>
      </trkpt>
      <trkpt lat="48.50334" lon="2.05848">
        <ele>121.2</ele>
        <time>2023-12-14T12:01:59Z</time>
      </trkpt>
      <trkpt lat="48.50337" lon="2.05846">
        <ele>121.2</ele>
        <time>2023-12-14T12:02:00Z</time>
      </trkpt>
      <trkpt lat="48.5034" lon="2.05844">
        <ele>121.2</ele>
        <time>2023-12-14T12:02:01Z</time>
      </trkpt>
      <trkpt lat="48.50344" lon="2.05842">
        <ele>121.2</ele>
        <time>2023-12-14T12:02:02Z</time>
      </trkpt>
      <trkpt lat="48.50347" lon="2.05838">
        <ele>121.2</ele>
        <time>2023-12-14T12:02:03Z</time>
      </trkpt>
      <trkpt lat="48.5035" lon="2.05836">
        <ele>122.2</ele>
        <time>2023-12-14T12:02:04Z</time>
      </trkpt>
      <trkpt lat="48.50353" lon="2.05833">
        <ele>122.4</ele>
        <time>2023-12-14T12:02:05Z</time>
      </trkpt>
      <trkpt lat="48.50356" lon="2.0583">
        <ele>122.4</ele>
        <time>2023-12-14T12:02:06Z</time>
      </trkpt>
      <trkpt lat="48.50359" lon="2.05826">
        <ele>122.4</ele>
        <time>2023-12-14T12:02:07Z</time>
      </trkpt>
      <trkpt lat="48.50363" lon="2.05824">
        <ele>122.4</ele>
        <time>2023-12-14T12:02:08Z</time>
      </trkpt>
      <trkpt lat="48.50366" lon="2.05821">
        <ele>123</ele>
        <time>2023-12-14T12:02:09Z</time>
      </trkpt>
      <trkpt lat="48.50369" lon="2.05818">
        <ele>123</ele>
        <time>2023-12-14T12:02:10Z</time>
      </trkpt>
      <trkpt lat="48.50372" lon="2.05815">
        <ele>123</ele>
        <time>2023-12-14T12:02:11Z</time>
      </trkpt>
      <trkpt lat="48.50376" lon="2.05812">
        <ele>123</ele>
        <time>2023-12-14T12:02:12Z</time>
      </trkpt>
      <trkpt lat="48.50379" lon="2.0581">
        <ele>123.6</ele>
        <time>2023-12-14T12:02:13Z</time>
      </trkpt>
      <trkpt lat="48.50382" lon="2.05807">
        <ele>123.6</ele>
        <time>2023-12-14T12:02:14Z</time>
      </trkpt>
      <trkpt lat="48.50385" lon="2.05804">
        <ele>123.6</ele>
        <time>2023-12-14T12:02:15Z</time>
      </trkpt>
      <trkpt lat="48.50388" lon="2.05802">
        <ele>123.6</ele>
        <time>2023-12-14T12:02:16Z</time>
      </trkpt>
      <trkpt lat="48.50392" lon="2.05799">
        <ele>124.4</ele>
        <time>2023-12-14T12:02:17Z</time>
      </trkpt>
      <trkpt lat="48.50395" lon="2.05797">
        <ele>124.4</ele>
        <time>2023-12-14T12:02:18Z</time>
      </trkpt>
      <trkpt lat="48.50398" lon="2.05794">
        <ele>124.4</ele>
        <time>2023-12-14T12:02:19Z</time>
      </trkpt>
      <trkpt lat="48.50402" lon="2.05792">
        <ele>124.4</ele>
        <time>2023-12-14T12:02:20Z</time>
      </trkpt>
      <trkpt lat="48.50405" lon="2.0579">
        <ele>125.8</ele>
        <time>2023-12-14T12:02:21Z</time>
      </trkpt>
      <trkpt lat="48.50408" lon="2.05788">
        <ele>125.8</ele>
        <time>2023-12-14T12:02:22Z</time>
      </trkpt>
      <trkpt lat="48.50412" lon="2.05786">
        <ele>125.8</ele>
        <time>2023-12-14T12:02:23Z</time>
      </trkpt>
      <trkpt lat="48.50415" lon="2.05784">
        <ele>125.8</ele>
        <time>2023-12-14T12:02:24Z</time>
      </trkpt>
      <trkpt lat="48.50418" lon="2.05782">
        <ele>125.8</ele>
        <time>2023-12-14T12:02:25Z</time>
      </trkpt>
      <trkpt lat="48.50422" lon="2.0578">
        <ele>125.8</ele>
        <time>2023-12-14T12:02:26Z</time>
      </trkpt>
      <trkpt lat="48.50425" lon="2.05778">
        <ele>125.8</ele>
        <time>2023-12-14T12:02:27Z</time>
      </trkpt>
      <trkpt lat="48.50428" lon="2.05776">
        <ele>126.8</ele>
        <time>2023-12-14T12:02:28Z</time>
      </trkpt>
      <trkpt lat="48.50432" lon="2.05775">
        <ele>127.2</ele>
        <time>2023-12-14T12:02:29Z</time>
      </trkpt>
      <trkpt lat="48.50435" lon="2.05774">
        <ele>127.2</ele>
        <time>2023-12-14T12:02:30Z</time>
      </trkpt>
      <trkpt lat="48.50439" lon="2.05772">
        <ele>127.2</ele>
        <time>2023-12-14T12:02:31Z</time>
      </trkpt>
      <trkpt lat="48.50443" lon="2.05771">
        <ele>127.6</ele>
        <time>2023-12-14T12:02:32Z</time>
      </trkpt>
      <trkpt lat="48.50446" lon="2.0577">
        <ele>128.4</ele>
        <time>2023-12-14T12:02:33Z</time>
      </trkpt>
      <trkpt lat="48.5045" lon="2.05769">
        <ele>128.4</ele>
        <time>2023-12-14T12:02:34Z</time>
      </trkpt>
      <trkpt lat="48.50453" lon="2.05768">
        <ele>128.4</ele>
        <time>2023-12-14T12:02:35Z</time>
      </trkpt>
      <trkpt lat="48.50457" lon="2.05768">
        <ele>129.2</ele>
        <time>2023-12-14T12:02:36Z</time>
      </trkpt>
      <trkpt lat="48.50461" lon="2.05767">
        <ele>129.4</ele>
        <time>2023-12-14T12:02:37Z</time>
      </trkpt>
      <trkpt lat="48.50464" lon="2.05767">
        <ele>129.4</ele>
        <time>2023-12-14T12:02:38Z</time>
      </trkpt>
      <trkpt lat="48.50468" lon="2.05767">
        <ele>129.4</ele>
        <time>2023-12-14T12:02:39Z</time>
      </trkpt>
      <trkpt lat="48.50472" lon="2.05767">
        <ele>130.2</ele>
        <time>2023-12-14T12:02:40Z</time>
      </trkpt>
      <trkpt lat="48.50476" lon="2.05767">
        <ele>130</ele>
        <time>2023-12-14T12:02:41Z</time>
      </trkpt>
      <trkpt lat="48.50479" lon="2.05767">
        <ele>130</ele>
        <time>2023-12-14T12:02:42Z</time>
      </trkpt>
      <trkpt lat="48.50483" lon="2.05767">
        <ele>130</ele>
        <time>2023-12-14T12:02:43Z</time>
      </trkpt>
      <trkpt lat="48.50487" lon="2.05768">
        <ele>130.4</ele>
        <time>2023-12-14T12:02:44Z</time>
      </trkpt>
      <trkpt lat="48.50491" lon="2.05768">
        <ele>131.2</ele>
        <time>2023-12-14T12:02:45Z</time>
      </trkpt>
      <trkpt lat="48.50494" lon="2.05768">
        <ele>131.2</ele>
        <time>2023-12-14T12:02:46Z</time>
      </trkpt>
      <trkpt lat="48.50498" lon="2.05768">
        <ele>131.2</ele>
        <time>2023-12-14T12:02:47Z</time>
      </trkpt>
      <trkpt lat="48.50502" lon="2.05769">
        <ele>131.2</ele>
        <time>2023-12-14T12:02:48Z</time>
      </trkpt>
      <trkpt lat="48.50506" lon="2.0577">
        <ele>131.6</ele>
        <time>2023-12-14T12:02:49Z</time>
      </trkpt>
      <trkpt lat="48.5051" lon="2.05771">
        <ele>131.6</ele>
        <time>2023-12-14T12:02:50Z</time>
      </trkpt>
      <trkpt lat="48.50514" lon="2.05771">
        <ele>131.6</ele>
        <time>2023-12-14T12:02:51Z</time>
      </trkpt>
      <trkpt lat="48.50518" lon="2.05772">
        <ele>132.6</ele>
        <time>2023-12-14T12:02:52Z</time>
      </trkpt>
      <trkpt lat="48.50521" lon="2.05773">
        <ele>133.4</ele>
        <time>2023-12-14T12:02:53Z</time>
      </trkpt>
      <trkpt lat="48.50525" lon="2.05774">
        <ele>133.4</ele>
        <time>2023-12-14T12:02:54Z</time>
      </trkpt>
      <trkpt lat="48.50529" lon="2.05774">
        <ele>133.4</ele>
        <time>2023-12-14T12:02:55Z</time>
      </trkpt>
      <trkpt lat="48.50533" lon="2.05775">
        <ele>133.4</ele>
        <time>2023-12-14T12:02:56Z</time>
      </trkpt>
      <trkpt lat="48.50537" lon="2.05776">
        <ele>133.4</ele>
        <time>2023-12-14T12:02:57Z</time>
      </trkpt>
      <trkpt lat="48.50541" lon="2.05777">
        <ele>133.4</ele>
        <time>2023-12-14T12:02:58Z</time>
      </trkpt>
      <trkpt lat="48.50544" lon="2.05777">
        <ele>133.4</ele>
        <time>2023-12-14T12:02:59Z</time>
      </trkpt>
      <trkpt lat="48.50548" lon="2.05778">
        <ele>133.4</ele>
        <time>2023-12-14T12:03:00Z</time>
      </trkpt>
      <trkpt lat="48.50552" lon="2.05779">
        <ele>133.6</ele>
        <time>2023-12-14T12:03:01Z</time>
      </trkpt>
      <trkpt lat="48.50556" lon="2.0578">
        <ele>133.6</ele>
        <time>2023-12-14T12:03:02Z</time>
      </trkpt>
      <trkpt lat="48.5056" lon="2.05782">
        <ele>133.6</ele>
        <time>2023-12-14T12:03:03Z</time>
      </trkpt>
      <trkpt lat="48.50564" lon="2.05782">
        <ele>133.6</ele>
        <time>2023-12-14T12:03:04Z</time>
      </trkpt>
      <trkpt lat="48.50568" lon="2.05783">
        <ele>135.2</ele>
        <time>2023-12-14T12:03:05Z</time>
      </trkpt>
      <trkpt lat="48.50572" lon="2.05784">
        <ele>135.2</ele>
        <time>2023-12-14T12:03:06Z</time>
      </trkpt>
      <trkpt lat="48.50577" lon="2.05785">
        <ele>135.2</ele>
        <time>2023-12-14T12:03:07Z</time>
      </trkpt>
      <trkpt lat="48.50581" lon="2.05786">
        <ele>134.2</ele>
        <time>2023-12-14T12:03:08Z</time>
      </trkpt>
      <trkpt lat="48.50585" lon="2.05786">
        <ele>134</ele>
        <time>2023-12-14T12:03:09Z</time>
      </trkpt>
      <trkpt lat="48.50589" lon="2.05787">
        <ele>134</ele>
        <time>2023-12-14T12:03:10Z</time>
      </trkpt>
      <trkpt lat="48.50594" lon="2.05788">
        <ele>134</ele>
        <time>2023-12-14T12:03:11Z</time>
      </trkpt>
      <trkpt lat="48.50598" lon="2.05789">
        <ele>134.4</ele>
        <time>2023-12-14T12:03:12Z</time>
      </trkpt>
      <trkpt lat="48.50602" lon="2.0579">
        <ele>134.4</ele>
        <time>2023-12-14T12:03:13Z</time>
      </trkpt>
      <trkpt lat="48.50607" lon="2.05791">
        <ele>134.4</ele>
        <time>2023-12-14T12:03:14Z</time>
      </trkpt>
      <trkpt lat="48.50611" lon="2.05792">
        <ele>134.4</ele>
        <time>2023-12-14T12:03:15Z</time>
      </trkpt>
      <trkpt lat="48.50616" lon="2.05793">
        <ele>135</ele>
        <time>2023-12-14T12:03:16Z</time>
      </trkpt>
      <trkpt lat="48.50621" lon="2.05794">
        <ele>134.8</ele>
        <time>2023-12-14T12:03:17Z</time>
      </trkpt>
      <trkpt lat="48.50625" lon="2.05795">
        <ele>134.8</ele>
        <time>2023-12-14T12:03:18Z</time>
      </trkpt>
      <trkpt lat="48.5063" lon="2.05796">
        <ele>134.8</ele>
        <time>2023-12-14T12:03:19Z</time>
      </trkpt>
      <trkpt lat="48.50635" lon="2.05797">
        <ele>134.8</ele>
        <time>2023-12-14T12:03:20Z</time>
      </trkpt>
      <trkpt lat="48.50639" lon="2.05799">
        <ele>135</ele>
        <time>2023-12-14T12:03:21Z</time>
      </trkpt>
      <trkpt lat="48.50644" lon="2.05799">
        <ele>135</ele>
        <time>2023-12-14T12:03:22Z</time>
      </trkpt>
      <trkpt lat="48.50649" lon="2.058">
        <ele>135</ele>
        <time>2023-12-14T12:03:23Z</time>
      </trkpt>
      <trkpt lat="48.50653" lon="2.05802">
        <ele>135</ele>
        <time>2023-12-14T12:03:24Z</time>
      </trkpt>
      <trkpt lat="48.50658" lon="2.05803">
        <ele>134.4</ele>
        <time>2023-12-14T12:03:25Z</time>
      </trkpt>
      <trkpt lat="48.50663" lon="2.05804">
        <ele>134.4</ele>
        <time>2023-12-14T12:03:26Z</time>
      </trkpt>
      <trkpt lat="48.50667" lon="2.05805">
        <ele>134.4</ele>
        <time>2023-12-14T12:03:27Z</time>
      </trkpt>
      <trkpt lat="48.50672" lon="2.05806">
        <ele>135.2</ele>
        <time>2023-12-14T12:03:28Z</time>
      </trkpt>
      <trkpt lat="48.50676" lon="2.05807">
        <ele>134.6</ele>
        <time>2023-12-14T12:03:29Z</time>
      </trkpt>
      <trkpt lat="48.50681" lon="2.05808">
        <ele>134.6</ele>
        <time>2023-12-14T12:03:30Z</time>
      </trkpt>
      <trkpt lat="48.50685" lon="2.05809">
        <ele>134.6</ele>
        <time>2023-12-14T12:03:31Z</time>
      </trkpt>
      <trkpt lat="48.5069" lon="2.0581">
        <ele>135</ele>
        <time>2023-12-14T12:03:32Z</time>
      </trkpt>
      <trkpt lat="48.50694" lon="2.05811">
        <ele>135.4</ele>
        <time>2023-12-14T12:03:33Z</time>
      </trkpt>
      <trkpt lat="48.50699" lon="2.05812">
        <ele>135.4</ele>
        <time>2023-12-14T12:03:34Z</time>
      </trkpt>
      <trkpt lat="48.50704" lon="2.05813">
        <ele>135.4</ele>
        <time>2023-12-14T12:03:35Z</time>
      </trkpt>
      <trkpt lat="48.50708" lon="2.05814">
        <ele>135.4</ele>
        <time>2023-12-14T12:03:36Z</time>
      </trkpt>
      <trkpt lat="48.50713" lon="2.05815">
        <ele>135.8</ele>
        <time>2023-12-14T12:03:37Z</time>
      </trkpt>
      <trkpt lat="48.50718" lon="2.05816">
        <ele>135.8</ele>
        <time>2023-12-14T12:03:38Z</time>
      </trkpt>
      <trkpt lat="48.50723" lon="2.05817">
        <ele>135.8</ele>
        <time>2023-12-14T12:03:39Z</time>
      </trkpt>
      <trkpt lat="48.50727" lon="2.05818">
        <ele>135.8</ele>
        <time>2023-12-14T12:03:40Z</time>
      </trkpt>
      <trkpt lat="48.50732" lon="2.05819">
        <ele>136.6</ele>
        <time>2023-12-14T12:03:41Z</time>
      </trkpt>
      <trkpt lat="48.50737" lon="2.0582">
        <ele>136.6</ele>
        <time>2023-12-14T12:03:42Z</time>
      </trkpt>
      <trkpt lat="48.50742" lon="2.05821">
        <ele>136.6</ele>
        <time>2023-12-14T12:03:43Z</time>
      </trkpt>
      <trkpt lat="48.50746" lon="2.05822">
        <ele>136.6</ele>
        <time>2023-12-14T12:03:44Z</time>
      </trkpt>
      <trkpt lat="48.50751" lon="2.05823">
        <ele>136.6</ele>
        <time>2023-12-14T12:03:45Z</time>
      </trkpt>
      <trkpt lat="48.50756" lon="2.05824">
        <ele>136.6</ele>
        <time>2023-12-14T12:03:46Z</time>
      </trkpt>
      <trkpt lat="48.50761" lon="2.05825">
        <ele>136.6</ele>
        <time>2023-12-14T12:03:47Z</time>
      </trkpt>
      <trkpt lat="48.50766" lon="2.05826">
        <ele>136.6</ele>
        <time>2023-12-14T12:03:48Z</time>
      </trkpt>
      <trkpt lat="48.5077" lon="2.05826">
        <ele>136.2</ele>
        <time>2023-12-14T12:03:49Z</time>
      </trkpt>
      <trkpt lat="48.50775" lon="2.05827">
        <ele>136.2</ele>
        <time>2023-12-14T12:03:50Z</time>
      </trkpt>
      <trkpt lat="48.5078" lon="2.05827">
        <ele>136.2</ele>
        <time>2023-12-14T12:03:51Z</time>
      </trkpt>
      <trkpt lat="48.50785" lon="2.05828">
        <ele>137.2</ele>
        <time>2023-12-14T12:03:52Z</time>
      </trkpt>
      <trkpt lat="48.5079" lon="2.05828">
        <ele>137.2</ele>
        <time>2023-12-14T12:03:53Z</time>
      </trkpt>
      <trkpt lat="48.50794" lon="2.05828">
        <ele>137.2</ele>
        <time>2023-12-14T12:03:54Z</time>
      </trkpt>
      <trkpt lat="48.50799" lon="2.05828">
        <ele>137.2</ele>
        <time>2023-12-14T12:03:55Z</time>
      </trkpt>
      <trkpt lat="48.50804" lon="2.05828">
        <ele>137.2</ele>
        <time>2023-12-14T12:03:56Z</time>
      </trkpt>
      <trkpt lat="48.50809" lon="2.05828">
        <ele>137.8</ele>
        <time>2023-12-14T12:03:57Z</time>
      </trkpt>
      <trkpt lat="48.50813" lon="2.05828">
        <ele>137.8</ele>
        <time>2023-12-14T12:03:58Z</time>
      </trkpt>
      <trkpt lat="48.50818" lon="2.05827">
        <ele>137.8</ele>
        <time>2023-12-14T12:03:59Z</time>
      </trkpt>
      <trkpt lat="48.50823" lon="2.05826">
        <ele>137.8</ele>
        <time>2023-12-14T12:04:00Z</time>
      </trkpt>
      <trkpt lat="48.50828" lon="2.05826">
        <ele>137.6</ele>
        <time>2023-12-14T12:04:01Z</time>
      </trkpt>
      <trkpt lat="48.50832" lon="2.05824">
        <ele>137.6</ele>
        <time>2023-12-14T12:04:02Z</time>
      </trkpt>
      <trkpt lat="48.50837" lon="2.05823">
        <ele>137.6</ele>
        <time>2023-12-14T12:04:03Z</time>
      </trkpt>
      <trkpt lat="48.50842" lon="2.05821">
        <ele>137.6</ele>
        <time>2023-12-14T12:04:04Z</time>
      </trkpt>
      <trkpt lat="48.50846" lon="2.0582">
        <ele>137.6</ele>
        <time>2023-12-14T12:04:05Z</time>
      </trkpt>
      <trkpt lat="48.50851" lon="2.05818">
        <ele>137.6</ele>
        <time>2023-12-14T12:04:06Z</time>
      </trkpt>
      <trkpt lat="48.50855" lon="2.05816">
        <ele>137.6</ele>
        <time>2023-12-14T12:04:07Z</time>
      </trkpt>
      <trkpt lat="48.5086" lon="2.05814">
        <ele>138.2</ele>
        <time>2023-12-14T12:04:08Z</time>
      </trkpt>
      <trkpt lat="48.50865" lon="2.05811">
        <ele>138.4</ele>
        <time>2023-12-14T12:04:09Z</time>
      </trkpt>
      <trkpt lat="48.50869" lon="2.05809">
        <ele>138.4</ele>
        <time>2023-12-14T12:04:10Z</time>
      </trkpt>
      <trkpt lat="48.50874" lon="2.05806">
        <ele>138.4</ele>
        <time>2023-12-14T12:04:11Z</time>
      </trkpt>
      <trkpt lat="48.50878" lon="2.05804">
        <ele>137.8</ele>
        <time>2023-12-14T12:04:12Z</time>
      </trkpt>
      <trkpt lat="48.50883" lon="2.05801">
        <ele>138.2</ele>
        <time>2023-12-14T12:04:13Z</time>
      </trkpt>
      <trkpt lat="48.50887" lon="2.05798">
        <ele>138.2</ele>
        <time>2023-12-14T12:04:14Z</time>
      </trkpt>
      <trkpt lat="48.50892" lon="2.05796">
        <ele>138.2</ele>
        <time>2023-12-14T12:04:15Z</time>
      </trkpt>
      <trkpt lat="48.50896" lon="2.05793">
        <ele>138.2</ele>
        <time>2023-12-14T12:04:16Z</time>
      </trkpt>
      <trkpt lat="48.50901" lon="2.05791">
        <ele>138.6</ele>
        <time>2023-12-14T12:04:17Z</time>
      </trkpt>
      <trkpt lat="48.50905" lon="2.05788">
        <ele>138.6</ele>
        <time>2023-12-14T12:04:18Z</time>
      </trkpt>
      <trkpt lat="48.5091" lon="2.05786">
        <ele>138.6</ele>
        <time>2023-12-14T12:04:19Z</time>
      </trkpt>
      <trkpt lat="48.50914" lon="2.05784">
        <ele>138.6</ele>
        <time>2023-12-14T12:04:20Z</time>
      </trkpt>
      <trkpt lat="48.50919" lon="2.05783">
        <ele>137.6</ele>
        <time>2023-12-14T12:04:21Z</time>
      </trkpt>
      <trkpt lat="48.50924" lon="2.05781">
        <ele>137.6</ele>
        <time>2023-12-14T12:04:22Z</time>
      </trkpt>
      <trkpt lat="48.50929" lon="2.0578">
        <ele>137.6</ele>
        <time>2023-12-14T12:04:23Z</time>
      </trkpt>
      <trkpt lat="48.50934" lon="2.05779">
        <ele>137.8</ele>
        <time>2023-12-14T12:04:24Z</time>
      </trkpt>
      <trkpt lat="48.50938" lon="2.05778">
        <ele>138.2</ele>
        <time>2023-12-14T12:04:25Z</time>
      </trkpt>
      <trkpt lat="48.50943" lon="2.05777">
        <ele>138.2</ele>
        <time>2023-12-14T12:04:26Z</time>
      </trkpt>
      <trkpt lat="48.50948" lon="2.05776">
        <ele>138.2</ele>
        <time>2023-12-14T12:04:27Z</time>
      </trkpt>
      <trkpt lat="48.50954" lon="2.05776">
        <ele>138.2</ele>
        <time>2023-12-14T12:04:28Z</time>
      </trkpt>
      <trkpt lat="48.50959" lon="2.05775">
        <ele>138.2</ele>
        <time>2023-12-14T12:04:29Z</time>
      </trkpt>
      <trkpt lat="48.50964" lon="2.05775">
        <ele>138.2</ele>
        <time>2023-12-14T12:04:30Z</time>
      </trkpt>
      <trkpt lat="48.5097" lon="2.05775">
        <ele>138.2</ele>
        <time>2023-12-14T12:04:31Z</time>
      </trkpt>
      <trkpt lat="48.50975" lon="2.05775">
        <ele>137.6</ele>
        <time>2023-12-14T12:04:32Z</time>
      </trkpt>
      <trkpt lat="48.50981" lon="2.05774">
        <ele>138</ele>
        <time>2023-12-14T12:04:33Z</time>
      </trkpt>
      <trkpt lat="48.50986" lon="2.05774">
        <ele>138</ele>
        <time>2023-12-14T12:04:34Z</time>
      </trkpt>
      <trkpt lat="48.50992" lon="2.05774">
        <ele>138</ele>
        <time>2023-12-14T12:04:35Z</time>
      </trkpt>
      <trkpt lat="48.50998" lon="2.05774">
        <ele>137.6</ele>
        <time>2023-12-14T12:04:36Z</time>
      </trkpt>
      <trkpt lat="48.51003" lon="2.05773">
        <ele>137.2</ele>
        <time>2023-12-14T12:04:37Z</time>
      </trkpt>
      <trkpt lat="48.51009" lon="2.05773">
        <ele>137.2</ele>
        <time>2023-12-14T12:04:38Z</time>
      </trkpt>
      <trkpt lat="48.51015" lon="2.05773">
        <ele>137.2</ele>
        <time>2023-12-14T12:04:39Z</time>
      </trkpt>
      <trkpt lat="48.51021" lon="2.05773">
        <ele>137.2</ele>
        <time>2023-12-14T12:04:40Z</time>
      </trkpt>
      <trkpt lat="48.51027" lon="2.05772">
        <ele>136.2</ele>
        <time>2023-12-14T12:04:41Z</time>
      </trkpt>
      <trkpt lat="48.51033" lon="2.05772">
        <ele>136.2</ele>
        <time>2023-12-14T12:04:42Z</time>
      </trkpt>
      <trkpt lat="48.51039" lon="2.05772">
        <ele>136.2</ele>
        <time>2023-12-14T12:04:43Z</time>
      </trkpt>
      <trkpt lat="48.51045" lon="2.05771">
        <ele>136.2</ele>
        <time>2023-12-14T12:04:44Z</time>
      </trkpt>
      <trkpt lat="48.51051" lon="2.05771">
        <ele>136</ele>
        <time>2023-12-14T12:04:45Z</time>
      </trkpt>
      <trkpt lat="48.51057" lon="2.0577">
        <ele>136</ele>
        <time>2023-12-14T12:04:46Z</time>
      </trkpt>
      <trkpt lat="48.51063" lon="2.0577">
        <ele>136</ele>
        <time>2023-12-14T12:04:47Z</time>
      </trkpt>
      <trkpt lat="48.51069" lon="2.05769">
        <ele>136</ele>
        <time>2023-12-14T12:04:48Z</time>
      </trkpt>
      <trkpt lat="48.51075" lon="2.05769">
        <ele>136.2</ele>
        <time>2023-12-14T12:04:49Z</time>
      </trkpt>
      <trkpt lat="48.51081" lon="2.05769">
        <ele>136.2</ele>
        <time>2023-12-14T12:04:50Z</time>
      </trkpt>
      <trkpt lat="48.51087" lon="2.05769">
        <ele>136.2</ele>
        <time>2023-12-14T12:04:51Z</time>
      </trkpt>
      <trkpt lat="48.51093" lon="2.05768">
        <ele>136</ele>
        <time>2023-12-14T12:04:52Z</time>
      </trkpt>
      <trkpt lat="48.51099" lon="2.05768">
        <ele>135.8</ele>
        <time>2023-12-14T12:04:53Z</time>
      </trkpt>
      <trkpt lat="48.51105" lon="2.05768">
        <ele>135.8</ele>
        <time>2023-12-14T12:04:54Z</time>
      </trkpt>
      <trkpt lat="48.5111" lon="2.05767">
        <ele>135.8</ele>
        <time>2023-12-14T12:04:55Z</time>
      </trkpt>
      <trkpt lat="48.51116" lon="2.05767">
        <ele>135.8</ele>
        <time>2023-12-14T12:04:56Z</time>
      </trkpt>
      <trkpt lat="48.51122" lon="2.05767">
        <ele>135.8</ele>
        <time>2023-12-14T12:04:57Z</time>
      </trkpt>
      <trkpt lat="48.51128" lon="2.05767">
        <ele>135.8</ele>
        <time>2023-12-14T12:04:58Z</time>
      </trkpt>
      <trkpt lat="48.51134" lon="2.05766">
        <ele>135.8</ele>
        <time>2023-12-14T12:04:59Z</time>
      </trkpt>
      <trkpt lat="48.5114" lon="2.05766">
        <ele>134.8</ele>
        <time>2023-12-14T12:05:00Z</time>
      </trkpt>
      <trkpt lat="48.51146" lon="2.05765">
        <ele>134.6</ele>
        <time>2023-12-14T12:05:01Z</time>
      </trkpt>
      <trkpt lat="48.51152" lon="2.05765">
        <ele>134.6</ele>
        <time>2023-12-14T12:05:02Z</time>
      </trkpt>
      <trkpt lat="48.51158" lon="2.05765">
        <ele>134.6</ele>
        <time>2023-12-14T12:05:03Z</time>
      </trkpt>
      <trkpt lat="48.51164" lon="2.05764">
        <ele>134.6</ele>
        <time>2023-12-14T12:05:04Z</time>
      </trkpt>
      <trkpt lat="48.51169" lon="2.05764">
        <ele>134.8</ele>
        <time>2023-12-14T12:05:05Z</time>
      </trkpt>
      <trkpt lat="48.51175" lon="2.05764">
        <ele>134.8</ele>
        <time>2023-12-14T12:05:06Z</time>
      </trkpt>
      <trkpt lat="48.51181" lon="2.05763">
        <ele>134.8</ele>
        <time>2023-12-14T12:05:07Z</time>
      </trkpt>
      <trkpt lat="48.51186" lon="2.05763">
        <ele>134.8</ele>
        <time>2023-12-14T12:05:08Z</time>
      </trkpt>
      <trkpt lat="48.51192" lon="2.05763">
        <ele>135.2</ele>
        <time>2023-12-14T12:05:09Z</time>
      </trkpt>
      <trkpt lat="48.51198" lon="2.05763">
        <ele>135.2</ele>
        <time>2023-12-14T12:05:10Z</time>
      </trkpt>
      <trkpt lat="48.51203" lon="2.05763">
        <ele>135.2</ele>
        <time>2023-12-14T12:05:11Z</time>
      </trkpt>
      <trkpt lat="48.51209" lon="2.05763">
        <ele>135.2</ele>
        <time>2023-12-14T12:05:12Z</time>
      </trkpt>
      <trkpt lat="48.51215" lon="2.05762">
        <ele>134.8</ele>
        <time>2023-12-14T12:05:13Z</time>
      </trkpt>
      <trkpt lat="48.51221" lon="2.05762">
        <ele>134.8</ele>
        <time>2023-12-14T12:05:14Z</time>
      </trkpt>
      <trkpt lat="48.51226" lon="2.05762">
        <ele>134.8</ele>
        <time>2023-12-14T12:05:15Z</time>
      </trkpt>
      <trkpt lat="48.51232" lon="2.05761">
        <ele>134.8</ele>
        <time>2023-12-14T12:05:16Z</time>
      </trkpt>
      <trkpt lat="48.51238" lon="2.05761">
        <ele>135</ele>
        <time>2023-12-14T12:05:17Z</time>
      </trkpt>
      <trkpt lat="48.51243" lon="2.05761">
        <ele>135</ele>
        <time>2023-12-14T12:05:18Z</time>
      </trkpt>
      <trkpt lat="48.51249" lon="2.05761">
        <ele>135</ele>
        <time>2023-12-14T12:05:19Z</time>
      </trkpt>
      <trkpt lat="48.51254" lon="2.05761">
        <ele>136</ele>
        <time>2023-12-14T12:05:20Z</time>
      </trkpt>
      <trkpt lat="48.5126" lon="2.0576">
        <ele>135.6</ele>
        <time>2023-12-14T12:05:21Z</time>
      </trkpt>
      <trkpt lat="48.51266" lon="2.0576">
        <ele>135.6</ele>
        <time>2023-12-14T12:05:22Z</time>
      </trkpt>
      <trkpt lat="48.51272" lon="2.0576">
        <ele>135.6</ele>
        <time>2023-12-14T12:05:23Z</time>
      </trkpt>
      <trkpt lat="48.51278" lon="2.05759">
        <ele>135.6</ele>
        <time>2023-12-14T12:05:24Z</time>
      </trkpt>
      <trkpt lat="48.51283" lon="2.05759">
        <ele>135</ele>
        <time>2023-12-14T12:05:25Z</time>
      </trkpt>
      <trkpt lat="48.51289" lon="2.05758">
        <ele>135</ele>
        <time>2023-12-14T12:05:26Z</time>
      </trkpt>
      <trkpt lat="48.51295" lon="2.05758">
        <ele>135</ele>
        <time>2023-12-14T12:05:27Z</time>
      </trkpt>
      <trkpt lat="48.51301" lon="2.05757">
        <ele>135.8</ele>
        <time>2023-12-14T12:05:28Z</time>
      </trkpt>
      <trkpt lat="48.51307" lon="2.05756">
        <ele>136</ele>
        <time>2023-12-14T12:05:29Z</time>
      </trkpt>
      <trkpt lat="48.51312" lon="2.05756">
        <ele>136</ele>
        <time>2023-12-14T12:05:30Z</time>
      </trkpt>
      <trkpt lat="48.51318" lon="2.05755">
        <ele>136</ele>
        <time>2023-12-14T12:05:31Z</time>
      </trkpt>
      <trkpt lat="48.51324" lon="2.05755">
        <ele>135</ele>
        <time>2023-12-14T12:05:32Z</time>
      </trkpt>
      <trkpt lat="48.5133" lon="2.05754">
        <ele>134.4</ele>
        <time>2023-12-14T12:05:33Z</time>
      </trkpt>
      <trkpt lat="48.51336" lon="2.05753">
        <ele>134.4</ele>
        <time>2023-12-14T12:05:34Z</time>
      </trkpt>
      <trkpt lat="48.51342" lon="2.05753">
        <ele>134.4</ele>
        <time>2023-12-14T12:05:35Z</time>
      </trkpt>
      <trkpt lat="48.51348" lon="2.05752">
        <ele>135.2</ele>
        <time>2023-12-14T12:05:36Z</time>
      </trkpt>
      <trkpt lat="48.51354" lon="2.05752">
        <ele>135.6</ele>
        <time>2023-12-14T12:05:37Z</time>
      </trkpt>
      <trkpt lat="48.51359" lon="2.05751">
        <ele>135.6</ele>
        <time>2023-12-14T12:05:38Z</time>
      </trkpt>
      <trkpt lat="48.51365" lon="2.0575">
        <ele>135.6</ele>
        <time>2023-12-14T12:05:39Z</time>
      </trkpt>
      <trkpt lat="48.51371" lon="2.05749">
        <ele>135.6</ele>
        <time>2023-12-14T12:05:40Z</time>
      </trkpt>
      <trkpt lat="48.51376" lon="2.05749">
        <ele>135.2</ele>
        <time>2023-12-14T12:05:41Z</time>
      </trkpt>
      <trkpt lat="48.51382" lon="2.05748">
        <ele>135.2</ele>
        <time>2023-12-14T12:05:42Z</time>
      </trkpt>
      <trkpt lat="48.51388" lon="2.05747">
        <ele>135.2</ele>
        <time>2023-12-14T12:05:43Z</time>
      </trkpt>
      <trkpt lat="48.51393" lon="2.05746">
        <ele>136.2</ele>
        <time>2023-12-14T12:05:44Z</time>
      </trkpt>
      <trkpt lat="48.51398" lon="2.05745">
        <ele>137.4</ele>
        <time>2023-12-14T12:05:45Z</time>
      </trkpt>
      <trkpt lat="48.51404" lon="2.05745">
        <ele>137.4</ele>
        <time>2023-12-14T12:05:46Z</time>
      </trkpt>
      <trkpt lat="48.51409" lon="2.05744">
        <ele>137.4</ele>
        <time>2023-12-14T12:05:47Z</time>
      </trkpt>
      <trkpt lat="48.51414" lon="2.05743">
        <ele>137.4</ele>
        <time>2023-12-14T12:05:48Z</time>
      </trkpt>
      <trkpt lat="48.5142" lon="2.05743">
        <ele>137</ele>
        <time>2023-12-14T12:05:49Z</time>
      </trkpt>
      <trkpt lat="48.51425" lon="2.05742">
        <ele>137</ele>
        <time>2023-12-14T12:05:50Z</time>
      </trkpt>
      <trkpt lat="48.5143" lon="2.05742">
        <ele>137</ele>
        <time>2023-12-14T12:05:51Z</time>
      </trkpt>
      <trkpt lat="48.51436" lon="2.05741">
        <ele>137</ele>
        <time>2023-12-14T12:05:52Z</time>
      </trkpt>
      <trkpt lat="48.51441" lon="2.0574">
        <ele>137.4</ele>
        <time>2023-12-14T12:05:53Z</time>
      </trkpt>
      <trkpt lat="48.51447" lon="2.0574">
        <ele>137.4</ele>
        <time>2023-12-14T12:05:54Z</time>
      </trkpt>
      <trkpt lat="48.51452" lon="2.0574">
        <ele>137.4</ele>
        <time>2023-12-14T12:05:55Z</time>
      </trkpt>
      <trkpt lat="48.51457" lon="2.05739">
        <ele>137.4</ele>
        <time>2023-12-14T12:05:56Z</time>
      </trkpt>
      <trkpt lat="48.51462" lon="2.05739">
        <ele>137.6</ele>
        <time>2023-12-14T12:05:57Z</time>
      </trkpt>
      <trkpt lat="48.51468" lon="2.05738">
        <ele>137.6</ele>
        <time>2023-12-14T12:05:58Z</time>
      </trkpt>
      <trkpt lat="48.51473" lon="2.05737">
        <ele>137.6</ele>
        <time>2023-12-14T12:05:59Z</time>
      </trkpt>
      <trkpt lat="48.51478" lon="2.05736">
        <ele>137.6</ele>
        <time>2023-12-14T12:06:00Z</time>
      </trkpt>
      <trkpt lat="48.51483" lon="2.05736">
        <ele>137.8</ele>
        <time>2023-12-14T12:06:01Z</time>
      </trkpt>
      <trkpt lat="48.51489" lon="2.05735">
        <ele>137.8</ele>
        <time>2023-12-14T12:06:02Z</time>
      </trkpt>
      <trkpt lat="48.51494" lon="2.05735">
        <ele>137.8</ele>
        <time>2023-12-14T12:06:03Z</time>
      </trkpt>
      <trkpt lat="48.51499" lon="2.05734">
        <ele>137.8</ele>
        <time>2023-12-14T12:06:04Z</time>
      </trkpt>
      <trkpt lat="48.51504" lon="2.05733">
        <ele>139</ele>
        <time>2023-12-14T12:06:05Z</time>
      </trkpt>
      <trkpt lat="48.51509" lon="2.05733">
        <ele>139</ele>
        <time>2023-12-14T12:06:06Z</time>
      </trkpt>
      <trkpt lat="48.51513" lon="2.05732">
        <ele>139</ele>
        <time>2023-12-14T12:06:07Z</time>
      </trkpt>
      <trkpt lat="48.51518" lon="2.05732">
        <ele>139</ele>
        <time>2023-12-14T12:06:08Z</time>
      </trkpt>
      <trkpt lat="48.51522" lon="2.05732">
        <ele>139.8</ele>
        <time>2023-12-14T12:06:09Z</time>
      </trkpt>
      <trkpt lat="48.51527" lon="2.05731">
        <ele>139.8</ele>
        <time>2023-12-14T12:06:10Z</time>
      </trkpt>
      <trkpt lat="48.51531" lon="2.0573">
        <ele>139.8</ele>
        <time>2023-12-14T12:06:11Z</time>
      </trkpt>
      <trkpt lat="48.51535" lon="2.0573">
        <ele>139</ele>
        <time>2023-12-14T12:06:12Z</time>
      </trkpt>
      <trkpt lat="48.5154" lon="2.05729">
        <ele>139.2</ele>
        <time>2023-12-14T12:06:13Z</time>
      </trkpt>
      <trkpt lat="48.51544" lon="2.05729">
        <ele>139.2</ele>
        <time>2023-12-14T12:06:14Z</time>
      </trkpt>
      <trkpt lat="48.51548" lon="2.05729">
        <ele>139.2</ele>
        <time>2023-12-14T12:06:15Z</time>
      </trkpt>
      <trkpt lat="48.51552" lon="2.05728">
        <ele>139.2</ele>
        <time>2023-12-14T12:06:16Z</time>
      </trkpt>
      <trkpt lat="48.51557" lon="2.05727">
        <ele>139.2</ele>
        <time>2023-12-14T12:06:17Z</time>
      </trkpt>
      <trkpt lat="48.51561" lon="2.05727">
        <ele>139.2</ele>
        <time>2023-12-14T12:06:18Z</time>
      </trkpt>
      <trkpt lat="48.51565" lon="2.05726">
        <ele>139.2</ele>
        <time>2023-12-14T12:06:19Z</time>
      </trkpt>
      <trkpt lat="48.5157" lon="2.05726">
        <ele>140.2</ele>
        <time>2023-12-14T12:06:20Z</time>
      </trkpt>
      <trkpt lat="48.51574" lon="2.05725">
        <ele>140.2</ele>
        <time>2023-12-14T12:06:21Z</time>
      </trkpt>
      <trkpt lat="48.51578" lon="2.05724">
        <ele>140.2</ele>
        <time>2023-12-14T12:06:22Z</time>
      </trkpt>
      <trkpt lat="48.51583" lon="2.05723">
        <ele>140.2</ele>
        <time>2023-12-14T12:06:23Z</time>
      </trkpt>
      <trkpt lat="48.51587" lon="2.05722">
        <ele>140</ele>
        <time>2023-12-14T12:06:24Z</time>
      </trkpt>
      <trkpt lat="48.51592" lon="2.05722">
        <ele>140</ele>
        <time>2023-12-14T12:06:25Z</time>
      </trkpt>
      <trkpt lat="48.51596" lon="2.05722">
        <ele>140</ele>
        <time>2023-12-14T12:06:26Z</time>
      </trkpt>
      <trkpt lat="48.51601" lon="2.05721">
        <ele>140</ele>
        <time>2023-12-14T12:06:27Z</time>
      </trkpt>
      <trkpt lat="48.51605" lon="2.0572">
        <ele>140</ele>
        <time>2023-12-14T12:06:28Z</time>
      </trkpt>
      <trkpt lat="48.51609" lon="2.05718">
        <ele>140.4</ele>
        <time>2023-12-14T12:06:29Z</time>
      </trkpt>
      <trkpt lat="48.51614" lon="2.05716">
        <ele>140.4</ele>
        <time>2023-12-14T12:06:30Z</time>
      </trkpt>
      <trkpt lat="48.51618" lon="2.05713">
        <ele>140.4</ele>
        <time>2023-12-14T12:06:31Z</time>
      </trkpt>
      <trkpt lat="48.51622" lon="2.05711">
        <ele>139.6</ele>
        <time>2023-12-14T12:06:32Z</time>
      </trkpt>
      <trkpt lat="48.51626" lon="2.05708">
        <ele>139.6</ele>
        <time>2023-12-14T12:06:33Z</time>
      </trkpt>
      <trkpt lat="48.5163" lon="2.05705">
        <ele>139.6</ele>
        <time>2023-12-14T12:06:34Z</time>
      </trkpt>
      <trkpt lat="48.51635" lon="2.05702">
        <ele>139.6</ele>
        <time>2023-12-14T12:06:35Z</time>
      </trkpt>
      <trkpt lat="48.51639" lon="2.057">
        <ele>139.6</ele>
        <time>2023-12-14T12:06:36Z</time>
      </trkpt>
      <trkpt lat="48.51643" lon="2.05697">
        <ele>139.6</ele>
        <time>2023-12-14T12:06:37Z</time>
      </trkpt>
      <trkpt lat="48.51647" lon="2.05695">
        <ele>139.6</ele>
        <time>2023-12-14T12:06:38Z</time>
      </trkpt>
      <trkpt lat="48.51652" lon="2.05693">
        <ele>139.6</ele>
        <time>2023-12-14T12:06:39Z</time>
      </trkpt>
      <trkpt lat="48.51656" lon="2.05691">
        <ele>139.6</ele>
        <time>2023-12-14T12:06:40Z</time>
      </trkpt>
      <trkpt lat="48.5166" lon="2.05688">
        <ele>140.4</ele>
        <time>2023-12-14T12:06:41Z</time>
      </trkpt>
      <trkpt lat="48.51664" lon="2.05686">
        <ele>140.4</ele>
        <time>2023-12-14T12:06:42Z</time>
      </trkpt>
      <trkpt lat="48.51668" lon="2.05683">
        <ele>140.4</ele>
        <time>2023-12-14T12:06:43Z</time>
      </trkpt>
      <trkpt lat="48.51672" lon="2.05681">
        <ele>140.4</ele>
        <time>2023-12-14T12:06:44Z</time>
      </trkpt>
      <trkpt lat="48.51675" lon="2.05678">
        <ele>140.2</ele>
        <time>2023-12-14T12:06:45Z</time>
      </trkpt>
      <trkpt lat="48.51679" lon="2.05676">
        <ele>140.2</ele>
        <time>2023-12-14T12:06:46Z</time>
      </trkpt>
      <trkpt lat="48.51681" lon="2.05674">
        <ele>140.2</ele>
        <time>2023-12-14T12:06:47Z</time>
      </trkpt>
      <trkpt lat="48.51684" lon="2.05672">
        <ele>141</ele>
        <time>2023-12-14T12:06:48Z</time>
      </trkpt>
      <trkpt lat="48.51686" lon="2.0567">
        <ele>141.2</ele>
        <time>2023-12-14T12:06:49Z</time>
      </trkpt>
      <trkpt lat="48.51689" lon="2.05668">
        <ele>141.2</ele>
        <time>2023-12-14T12:06:50Z</time>
      </trkpt>
      <trkpt lat="48.51692" lon="2.05667">
        <ele>141.2</ele>
        <time>2023-12-14T12:06:51Z</time>
      </trkpt>
      <trkpt lat="48.51695" lon="2.05667">
        <ele>141.4</ele>
        <time>2023-12-14T12:06:52Z</time>
      </trkpt>
      <trkpt lat="48.51698" lon="2.05665">
        <ele>140.8</ele>
        <time>2023-12-14T12:06:53Z</time>
      </trkpt>
      <trkpt lat="48.51702" lon="2.05663">
        <ele>140.8</ele>
        <time>2023-12-14T12:06:54Z</time>
      </trkpt>
      <trkpt lat="48.51706" lon="2.05661">
        <ele>140.8</ele>
        <time>2023-12-14T12:06:55Z</time>
      </trkpt>
      <trkpt lat="48.5171" lon="2.0566">
        <ele>141.4</ele>
        <time>2023-12-14T12:06:56Z</time>
      </trkpt>
      <trkpt lat="48.51713" lon="2.05659">
        <ele>142.2</ele>
        <time>2023-12-14T12:06:57Z</time>
      </trkpt>
      <trkpt lat="48.51717" lon="2.05657">
        <ele>142.2</ele>
        <time>2023-12-14T12:06:58Z</time>
      </trkpt>
      <trkpt lat="48.51721" lon="2.05656">
        <ele>142.2</ele>
        <time>2023-12-14T12:06:59Z</time>
      </trkpt>
      <trkpt lat="48.51725" lon="2.05654">
        <ele>141.2</ele>
        <time>2023-12-14T12:07:00Z</time>
      </trkpt>
      <trkpt lat="48.51728" lon="2.05653">
        <ele>141.6</ele>
        <time>2023-12-14T12:07:01Z</time>
      </trkpt>
      <trkpt lat="48.51732" lon="2.05652">
        <ele>141.6</ele>
        <time>2023-12-14T12:07:02Z</time>
      </trkpt>
      <trkpt lat="48.51735" lon="2.0565">
        <ele>141.6</ele>
        <time>2023-12-14T12:07:03Z</time>
      </trkpt>
      <trkpt lat="48.51739" lon="2.05649">
        <ele>142</ele>
        <time>2023-12-14T12:07:04Z</time>
      </trkpt>
      <trkpt lat="48.51743" lon="2.05647">
        <ele>142.4</ele>
        <time>2023-12-14T12:07:05Z</time>
      </trkpt>
      <trkpt lat="48.51747" lon="2.05645">
        <ele>142.4</ele>
        <time>2023-12-14T12:07:06Z</time>
      </trkpt>
      <trkpt lat="48.51752" lon="2.05644">
        <ele>142.4</ele>
        <time>2023-12-14T12:07:07Z</time>
      </trkpt>
      <trkpt lat="48.51756" lon="2.05642">
        <ele>142.6</ele>
        <time>2023-12-14T12:07:08Z</time>
      </trkpt>
      <trkpt lat="48.51759" lon="2.0564">
        <ele>142.2</ele>
        <time>2023-12-14T12:07:09Z</time>
      </trkpt>
      <trkpt lat="48.51763" lon="2.05638">
        <ele>142.2</ele>
        <time>2023-12-14T12:07:10Z</time>
      </trkpt>
      <trkpt lat="48.51766" lon="2.05636">
        <ele>142.2</ele>
        <time>2023-12-14T12:07:11Z</time>
      </trkpt>
      <trkpt lat="48.5177" lon="2.05633">
        <ele>142.2</ele>
        <time>2023-12-14T12:07:12Z</time>
      </trkpt>
      <trkpt lat="48.51774" lon="2.05631">
        <ele>142.2</ele>
        <time>2023-12-14T12:07:13Z</time>
      </trkpt>
      <trkpt lat="48.51778" lon="2.05629">
        <ele>142.2</ele>
        <time>2023-12-14T12:07:14Z</time>
      </trkpt>
      <trkpt lat="48.51781" lon="2.05625">
        <ele>142.2</ele>
        <time>2023-12-14T12:07:15Z</time>
      </trkpt>
      <trkpt lat="48.51785" lon="2.05622">
        <ele>142.2</ele>
        <time>2023-12-14T12:07:16Z</time>
      </trkpt>
      <trkpt lat="48.51789" lon="2.05619">
        <ele>142.2</ele>
        <time>2023-12-14T12:07:17Z</time>
      </trkpt>
      <trkpt lat="48.51793" lon="2.05616">
        <ele>142.2</ele>
        <time>2023-12-14T12:07:18Z</time>
      </trkpt>
      <trkpt lat="48.51797" lon="2.05613">
        <ele>142.2</ele>
        <time>2023-12-14T12:07:19Z</time>
      </trkpt>
      <trkpt lat="48.51801" lon="2.0561">
        <ele>141.2</ele>
        <time>2023-12-14T12:07:20Z</time>
      </trkpt>
      <trkpt lat="48.51805" lon="2.05608">
        <ele>141.4</ele>
        <time>2023-12-14T12:07:21Z</time>
      </trkpt>
      <trkpt lat="48.5181" lon="2.05605">
        <ele>141.4</ele>
        <time>2023-12-14T12:07:22Z</time>
      </trkpt>
      <trkpt lat="48.51814" lon="2.05602">
        <ele>141.4</ele>
        <time>2023-12-14T12:07:23Z</time>
      </trkpt>
      <trkpt lat="48.51819" lon="2.05599">
        <ele>141.4</ele>
        <time>2023-12-14T12:07:24Z</time>
      </trkpt>
      <trkpt lat="48.51824" lon="2.05597">
        <ele>140.6</ele>
        <time>2023-12-14T12:07:25Z</time>
      </trkpt>
      <trkpt lat="48.51829" lon="2.05594">
        <ele>140.6</ele>
        <time>2023-12-14T12:07:26Z</time>
      </trkpt>
      <trkpt lat="48.51834" lon="2.05591">
        <ele>140.6</ele>
        <time>2023-12-14T12:07:27Z</time>
      </trkpt>
      <trkpt lat="48.51839" lon="2.05588">
        <ele>140</ele>
        <time>2023-12-14T12:07:28Z</time>
      </trkpt>
      <trkpt lat="48.51845" lon="2.05584">
        <ele>139</ele>
        <time>2023-12-14T12:07:29Z</time>
      </trkpt>
      <trkpt lat="48.5185" lon="2.05581">
        <ele>139</ele>
        <time>2023-12-14T12:07:30Z</time>
      </trkpt>
      <trkpt lat="48.51856" lon="2.05576">
        <ele>139</ele>
        <time>2023-12-14T12:07:31Z</time>
      </trkpt>
      <trkpt lat="48.51861" lon="2.05572">
        <ele>138.6</ele>
        <time>2023-12-14T12:07:32Z</time>
      </trkpt>
      <trkpt lat="48.51867" lon="2.05568">
        <ele>137.2</ele>
        <time>2023-12-14T12:07:33Z</time>
      </trkpt>
      <trkpt lat="48.51874" lon="2.05564">
        <ele>137.2</ele>
        <time>2023-12-14T12:07:34Z</time>
      </trkpt>
      <trkpt lat="48.5188" lon="2.05559">
        <ele>137.2</ele>
        <time>2023-12-14T12:07:35Z</time>
      </trkpt>
      <trkpt lat="48.51886" lon="2.05554">
        <ele>136.2</ele>
        <time>2023-12-14T12:07:36Z</time>
      </trkpt>
      <trkpt lat="48.51892" lon="2.05547">
        <ele>134.8</ele>
        <time>2023-12-14T12:07:37Z</time>
      </trkpt>
      <trkpt lat="48.51898" lon="2.05539">
        <ele>134.8</ele>
        <time>2023-12-14T12:07:38Z</time>
      </trkpt>
      <trkpt lat="48.51902" lon="2.0553">
        <ele>134.8</ele>
        <time>2023-12-14T12:07:39Z</time>
      </trkpt>
      <trkpt lat="48.51905" lon="2.0552">
        <ele>133.8</ele>
        <time>2023-12-14T12:07:40Z</time>
      </trkpt>
      <trkpt lat="48.51908" lon="2.05511">
        <ele>132</ele>
        <time>2023-12-14T12:07:41Z</time>
      </trkpt>
      <trkpt lat="48.5191" lon="2.05501">
        <ele>132</ele>
        <time>2023-12-14T12:07:42Z</time>
      </trkpt>
      <trkpt lat="48.51911" lon="2.05491">
        <ele>132</ele>
        <time>2023-12-14T12:07:43Z</time>
      </trkpt>
      <trkpt lat="48.51911" lon="2.0548">
        <ele>131</ele>
        <time>2023-12-14T12:07:44Z</time>
      </trkpt>
      <trkpt lat="48.51911" lon="2.05468">
        <ele>129.6</ele>
        <time>2023-12-14T12:07:45Z</time>
      </trkpt>
      <trkpt lat="48.51911" lon="2.05457">
        <ele>129.6</ele>
        <time>2023-12-14T12:07:46Z</time>
      </trkpt>
      <trkpt lat="48.51911" lon="2.05444">
        <ele>129.6</ele>
        <time>2023-12-14T12:07:47Z</time>
      </trkpt>
      <trkpt lat="48.51911" lon="2.05431">
        <ele>128.6</ele>
        <time>2023-12-14T12:07:48Z</time>
      </trkpt>
      <trkpt lat="48.51911" lon="2.05418">
        <ele>127.4</ele>
        <time>2023-12-14T12:07:49Z</time>
      </trkpt>
      <trkpt lat="48.51911" lon="2.05405">
        <ele>127.4</ele>
        <time>2023-12-14T12:07:50Z</time>
      </trkpt>
      <trkpt lat="48.51911" lon="2.05391">
        <ele>127.4</ele>
        <time>2023-12-14T12:07:51Z</time>
      </trkpt>
      <trkpt lat="48.5191" lon="2.05377">
        <ele>126.4</ele>
        <time>2023-12-14T12:07:52Z</time>
      </trkpt>
      <trkpt lat="48.5191" lon="2.05363">
        <ele>126.6</ele>
        <time>2023-12-14T12:07:53Z</time>
      </trkpt>
      <trkpt lat="48.5191" lon="2.05349">
        <ele>126.6</ele>
        <time>2023-12-14T12:07:54Z</time>
      </trkpt>
      <trkpt lat="48.51909" lon="2.05335">
        <ele>126.6</ele>
        <time>2023-12-14T12:07:55Z</time>
      </trkpt>
      <trkpt lat="48.51908" lon="2.05321">
        <ele>125.6</ele>
        <time>2023-12-14T12:07:56Z</time>
      </trkpt>
      <trkpt lat="48.51908" lon="2.05307">
        <ele>123.6</ele>
        <time>2023-12-14T12:07:57Z</time>
      </trkpt>
      <trkpt lat="48.51908" lon="2.05293">
        <ele>123.6</ele>
        <time>2023-12-14T12:07:58Z</time>
      </trkpt>
      <trkpt lat="48.51907" lon="2.05279">
        <ele>123.6</ele>
        <time>2023-12-14T12:07:59Z</time>
      </trkpt>
      <trkpt lat="48.51907" lon="2.05265">
        <ele>123.6</ele>
        <time>2023-12-14T12:08:00Z</time>
      </trkpt>
      <trkpt lat="48.51907" lon="2.05251">
        <ele>121.8</ele>
        <time>2023-12-14T12:08:01Z</time>
      </trkpt>
      <trkpt lat="48.51906" lon="2.05237">
        <ele>121.8</ele>
        <time>2023-12-14T12:08:02Z</time>
      </trkpt>
      <trkpt lat="48.51905" lon="2.05223">
        <ele>121.8</ele>
        <time>2023-12-14T12:08:03Z</time>
      </trkpt>
      <trkpt lat="48.51904" lon="2.05209">
        <ele>120.8</ele>
        <time>2023-12-14T12:08:04Z</time>
      </trkpt>
      <trkpt lat="48.51903" lon="2.05195">
        <ele>118.2</ele>
        <time>2023-12-14T12:08:05Z</time>
      </trkpt>
      <trkpt lat="48.51901" lon="2.05181">
        <ele>118.2</ele>
        <time>2023-12-14T12:08:06Z</time>
      </trkpt>
      <trkpt lat="48.51899" lon="2.05167">
        <ele>118.2</ele>
        <time>2023-12-14T12:08:07Z</time>
      </trkpt>
      <trkpt lat="48.51897" lon="2.05153">
        <ele>118.2</ele>
        <time>2023-12-14T12:08:08Z</time>
      </trkpt>
      <trkpt lat="48.51895" lon="2.05139">
        <ele>117.2</ele>
        <time>2023-12-14T12:08:09Z</time>
      </trkpt>
      <trkpt lat="48.51895" lon="2.05124">
        <ele>117.2</ele>
        <time>2023-12-14T12:08:10Z</time>
      </trkpt>
      <trkpt lat="48.51895" lon="2.05109">
        <ele>117.2</ele>
        <time>2023-12-14T12:08:11Z</time>
      </trkpt>
      <trkpt lat="48.51899" lon="2.05096">
        <ele>116.2</ele>
        <time>2023-12-14T12:08:12Z</time>
      </trkpt>
      <trkpt lat="48.51903" lon="2.05085">
        <ele>114.6</ele>
        <time>2023-12-14T12:08:13Z</time>
      </trkpt>
      <trkpt lat="48.51908" lon="2.05074">
        <ele>114.6</ele>
        <time>2023-12-14T12:08:14Z</time>
      </trkpt>
      <trkpt lat="48.51915" lon="2.05066">
        <ele>114.6</ele>
        <time>2023-12-14T12:08:15Z</time>
      </trkpt>
      <trkpt lat="48.51923" lon="2.05059">
        <ele>113.6</ele>
        <time>2023-12-14T12:08:16Z</time>
      </trkpt>
      <trkpt lat="48.51931" lon="2.05054">
        <ele>111.6</ele>
        <time>2023-12-14T12:08:17Z</time>
      </trkpt>
      <trkpt lat="48.51938" lon="2.05046">
        <ele>111.6</ele>
        <time>2023-12-14T12:08:18Z</time>
      </trkpt>
      <trkpt lat="48.51945" lon="2.05039">
        <ele>111.6</ele>
        <time>2023-12-14T12:08:19Z</time>
      </trkpt>
      <trkpt lat="48.5195" lon="2.05029">
        <ele>110.6</ele>
        <time>2023-12-14T12:08:20Z</time>
      </trkpt>
      <trkpt lat="48.51954" lon="2.05018">
        <ele>109.4</ele>
        <time>2023-12-14T12:08:21Z</time>
      </trkpt>
      <trkpt lat="48.51957" lon="2.05005">
        <ele>109.4</ele>
        <time>2023-12-14T12:08:22Z</time>
      </trkpt>
      <trkpt lat="48.51959" lon="2.04993">
        <ele>109.4</ele>
        <time>2023-12-14T12:08:23Z</time>
      </trkpt>
      <trkpt lat="48.5196" lon="2.04981">
        <ele>108.8</ele>
        <time>2023-12-14T12:08:24Z</time>
      </trkpt>
      <trkpt lat="48.5196" lon="2.0497">
        <ele>108.4</ele>
        <time>2023-12-14T12:08:25Z</time>
      </trkpt>
      <trkpt lat="48.51958" lon="2.0496">
        <ele>108.4</ele>
        <time>2023-12-14T12:08:26Z</time>
      </trkpt>
      <trkpt lat="48.51957" lon="2.04949">
        <ele>108.4</ele>
        <time>2023-12-14T12:08:27Z</time>
      </trkpt>
      <trkpt lat="48.51955" lon="2.04938">
        <ele>107.4</ele>
        <time>2023-12-14T12:08:28Z</time>
      </trkpt>
      <trkpt lat="48.51953" lon="2.04926">
        <ele>105.8</ele>
        <time>2023-12-14T12:08:29Z</time>
      </trkpt>
      <trkpt lat="48.51952" lon="2.04912">
        <ele>105.8</ele>
        <time>2023-12-14T12:08:30Z</time>
      </trkpt>
      <trkpt lat="48.51952" lon="2.04899">
        <ele>105.8</ele>
        <time>2023-12-14T12:08:31Z</time>
      </trkpt>
      <trkpt lat="48.51954" lon="2.04885">
        <ele>105.8</ele>
        <time>2023-12-14T12:08:32Z</time>
      </trkpt>
      <trkpt lat="48.51957" lon="2.04872">
        <ele>104.8</ele>
        <time>2023-12-14T12:08:33Z</time>
      </trkpt>
      <trkpt lat="48.51962" lon="2.04861">
        <ele>104.8</ele>
        <time>2023-12-14T12:08:34Z</time>
      </trkpt>
      <trkpt lat="48.51968" lon="2.0485">
        <ele>104.8</ele>
        <time>2023-12-14T12:08:35Z</time>
      </trkpt>
      <trkpt lat="48.51974" lon="2.0484">
        <ele>105.6</ele>
        <time>2023-12-14T12:08:36Z</time>
      </trkpt>
      <trkpt lat="48.51981" lon="2.04832">
        <ele>106.2</ele>
        <time>2023-12-14T12:08:37Z</time>
      </trkpt>
      <trkpt lat="48.51988" lon="2.04825">
        <ele>106.2</ele>
        <time>2023-12-14T12:08:38Z</time>
      </trkpt>
      <trkpt lat="48.51996" lon="2.04821">
        <ele>106.2</ele>
        <time>2023-12-14T12:08:39Z</time>
      </trkpt>
      <trkpt lat="48.52003" lon="2.04818">
        <ele>105.2</ele>
        <time>2023-12-14T12:08:40Z</time>
      </trkpt>
      <trkpt lat="48.52011" lon="2.04817">
        <ele>104.4</ele>
        <time>2023-12-14T12:08:41Z</time>
      </trkpt>
      <trkpt lat="48.52018" lon="2.04818">
        <ele>104.4</ele>
        <time>2023-12-14T12:08:42Z</time>
      </trkpt>
      <trkpt lat="48.52025" lon="2.0482">
        <ele>104.4</ele>
        <time>2023-12-14T12:08:43Z</time>
      </trkpt>
      <trkpt lat="48.52032" lon="2.04823">
        <ele>105.4</ele>
        <time>2023-12-14T12:08:44Z</time>
      </trkpt>
      <trkpt lat="48.52039" lon="2.04826">
        <ele>106.2</ele>
        <time>2023-12-14T12:08:45Z</time>
      </trkpt>
      <trkpt lat="48.52045" lon="2.0483">
        <ele>106.2</ele>
        <time>2023-12-14T12:08:46Z</time>
      </trkpt>
      <trkpt lat="48.52052" lon="2.04833">
        <ele>106.2</ele>
        <time>2023-12-14T12:08:47Z</time>
      </trkpt>
      <trkpt lat="48.52058" lon="2.04837">
        <ele>105.2</ele>
        <time>2023-12-14T12:08:48Z</time>
      </trkpt>
      <trkpt lat="48.52064" lon="2.0484">
        <ele>103.8</ele>
        <time>2023-12-14T12:08:49Z</time>
      </trkpt>
      <trkpt lat="48.5207" lon="2.04844">
        <ele>103.8</ele>
        <time>2023-12-14T12:08:50Z</time>
      </trkpt>
      <trkpt lat="48.52076" lon="2.04848">
        <ele>103.8</ele>
        <time>2023-12-14T12:08:51Z</time>
      </trkpt>
      <trkpt lat="48.52082" lon="2.04852">
        <ele>103.8</ele>
        <time>2023-12-14T12:08:52Z</time>
      </trkpt>
      <trkpt lat="48.52088" lon="2.04856">
        <ele>104.6</ele>
        <time>2023-12-14T12:08:53Z</time>
      </trkpt>
      <trkpt lat="48.52094" lon="2.0486">
        <ele>104.6</ele>
        <time>2023-12-14T12:08:54Z</time>
      </trkpt>
      <trkpt lat="48.521" lon="2.04864">
        <ele>104.6</ele>
        <time>2023-12-14T12:08:55Z</time>
      </trkpt>
      <trkpt lat="48.52106" lon="2.04868">
        <ele>104.6</ele>
        <time>2023-12-14T12:08:56Z</time>
      </trkpt>
      <trkpt lat="48.52112" lon="2.04873">
        <ele>104.8</ele>
        <time>2023-12-14T12:08:57Z</time>
      </trkpt>
      <trkpt lat="48.52117" lon="2.04877">
        <ele>104.8</ele>
        <time>2023-12-14T12:08:58Z</time>
      </trkpt>
      <trkpt lat="48.52123" lon="2.04881">
        <ele>104.8</ele>
        <time>2023-12-14T12:08:59Z</time>
      </trkpt>
      <trkpt lat="48.52129" lon="2.04886">
        <ele>104</ele>
        <time>2023-12-14T12:09:00Z</time>
      </trkpt>
      <trkpt lat="48.52135" lon="2.0489">
        <ele>103.6</ele>
        <time>2023-12-14T12:09:01Z</time>
      </trkpt>
      <trkpt lat="48.52141" lon="2.04895">
        <ele>103.6</ele>
        <time>2023-12-14T12:09:02Z</time>
      </trkpt>
      <trkpt lat="48.52147" lon="2.04899">
        <ele>103.6</ele>
        <time>2023-12-14T12:09:03Z</time>
      </trkpt>
      <trkpt lat="48.52153" lon="2.04904">
        <ele>103.6</ele>
        <time>2023-12-14T12:09:04Z</time>
      </trkpt>
      <trkpt lat="48.52159" lon="2.04908">
        <ele>103.2</ele>
        <time>2023-12-14T12:09:05Z</time>
      </trkpt>
      <trkpt lat="48.52165" lon="2.04913">
        <ele>103.2</ele>
        <time>2023-12-14T12:09:06Z</time>
      </trkpt>
      <trkpt lat="48.52171" lon="2.04917">
        <ele>103.2</ele>
        <time>2023-12-14T12:09:07Z</time>
      </trkpt>
      <trkpt lat="48.52178" lon="2.04922">
        <ele>103.4</ele>
        <time>2023-12-14T12:09:08Z</time>
      </trkpt>
      <trkpt lat="48.52184" lon="2.04926">
        <ele>102.8</ele>
        <time>2023-12-14T12:09:09Z</time>
      </trkpt>
      <trkpt lat="48.5219" lon="2.04931">
        <ele>102.8</ele>
        <time>2023-12-14T12:09:10Z</time>
      </trkpt>
      <trkpt lat="48.52196" lon="2.04936">
        <ele>102.8</ele>
        <time>2023-12-14T12:09:11Z</time>
      </trkpt>
      <trkpt lat="48.52202" lon="2.0494">
        <ele>103.2</ele>
        <time>2023-12-14T12:09:12Z</time>
      </trkpt>
      <trkpt lat="48.52208" lon="2.04945">
        <ele>103.8</ele>
        <time>2023-12-14T12:09:13Z</time>
      </trkpt>
      <trkpt lat="48.52214" lon="2.0495">
        <ele>103.8</ele>
        <time>2023-12-14T12:09:14Z</time>
      </trkpt>
      <trkpt lat="48.5222" lon="2.04954">
        <ele>103.8</ele>
        <time>2023-12-14T12:09:15Z</time>
      </trkpt>
      <trkpt lat="48.52226" lon="2.04959">
        <ele>102.8</ele>
        <time>2023-12-14T12:09:16Z</time>
      </trkpt>
      <trkpt lat="48.52232" lon="2.04964">
        <ele>102.4</ele>
        <time>2023-12-14T12:09:17Z</time>
      </trkpt>
      <trkpt lat="48.52238" lon="2.04969">
        <ele>102.4</ele>
        <time>2023-12-14T12:09:18Z</time>
      </trkpt>
      <trkpt lat="48.52244" lon="2.04974">
        <ele>102.4</ele>
        <time>2023-12-14T12:09:19Z</time>
      </trkpt>
      <trkpt lat="48.5225" lon="2.04978">
        <ele>102.4</ele>
        <time>2023-12-14T12:09:20Z</time>
      </trkpt>
      <trkpt lat="48.52256" lon="2.04982">
        <ele>101.8</ele>
        <time>2023-12-14T12:09:21Z</time>
      </trkpt>
      <trkpt lat="48.52262" lon="2.04986">
        <ele>101.8</ele>
        <time>2023-12-14T12:09:22Z</time>
      </trkpt>
      <trkpt lat="48.52268" lon="2.04989">
        <ele>101.8</ele>
        <time>2023-12-14T12:09:23Z</time>
      </trkpt>
      <trkpt lat="48.52275" lon="2.04992">
        <ele>101.6</ele>
        <time>2023-12-14T12:09:24Z</time>
      </trkpt>
      <trkpt lat="48.52281" lon="2.04995">
        <ele>102</ele>
        <time>2023-12-14T12:09:25Z</time>
      </trkpt>
      <trkpt lat="48.52287" lon="2.04998">
        <ele>102</ele>
        <time>2023-12-14T12:09:26Z</time>
      </trkpt>
      <trkpt lat="48.52294" lon="2.05">
        <ele>102</ele>
        <time>2023-12-14T12:09:27Z</time>
      </trkpt>
      <trkpt lat="48.523" lon="2.05002">
        <ele>101</ele>
        <time>2023-12-14T12:09:28Z</time>
      </trkpt>
      <trkpt lat="48.52307" lon="2.05003">
        <ele>100.2</ele>
        <time>2023-12-14T12:09:29Z</time>
      </trkpt>
      <trkpt lat="48.52313" lon="2.05003">
        <ele>100.2</ele>
        <time>2023-12-14T12:09:30Z</time>
      </trkpt>
      <trkpt lat="48.5232" lon="2.05002">
        <ele>100.2</ele>
        <time>2023-12-14T12:09:31Z</time>
      </trkpt>
      <trkpt lat="48.52327" lon="2.05002">
        <ele>99.6</ele>
        <time>2023-12-14T12:09:32Z</time>
      </trkpt>
      <trkpt lat="48.52333" lon="2.05">
        <ele>99</ele>
        <time>2023-12-14T12:09:33Z</time>
      </trkpt>
      <trkpt lat="48.5234" lon="2.04999">
        <ele>99</ele>
        <time>2023-12-14T12:09:34Z</time>
      </trkpt>
      <trkpt lat="48.52347" lon="2.04996">
        <ele>99</ele>
        <time>2023-12-14T12:09:35Z</time>
      </trkpt>
      <trkpt lat="48.52353" lon="2.04994">
        <ele>98.2</ele>
        <time>2023-12-14T12:09:36Z</time>
      </trkpt>
      <trkpt lat="48.5236" lon="2.0499">
        <ele>98.6</ele>
        <time>2023-12-14T12:09:37Z</time>
      </trkpt>
      <trkpt lat="48.52366" lon="2.04987">
        <ele>98.6</ele>
        <time>2023-12-14T12:09:38Z</time>
      </trkpt>
      <trkpt lat="48.52373" lon="2.04983">
        <ele>98.6</ele>
        <time>2023-12-14T12:09:39Z</time>
      </trkpt>
      <trkpt lat="48.52379" lon="2.0498">
        <ele>97.6</ele>
        <time>2023-12-14T12:09:40Z</time>
      </trkpt>
      <trkpt lat="48.52385" lon="2.04976">
        <ele>96.8</ele>
        <time>2023-12-14T12:09:41Z</time>
      </trkpt>
      <trkpt lat="48.52391" lon="2.04972">
        <ele>96.8</ele>
        <time>2023-12-14T12:09:42Z</time>
      </trkpt>
      <trkpt lat="48.52397" lon="2.04967">
        <ele>96.8</ele>
        <time>2023-12-14T12:09:43Z</time>
      </trkpt>
      <trkpt lat="48.52403" lon="2.04963">
        <ele>96.8</ele>
        <time>2023-12-14T12:09:44Z</time>
      </trkpt>
      <trkpt lat="48.52409" lon="2.04959">
        <ele>97.2</ele>
        <time>2023-12-14T12:09:45Z</time>
      </trkpt>
      <trkpt lat="48.52415" lon="2.04955">
        <ele>97.2</ele>
        <time>2023-12-14T12:09:46Z</time>
      </trkpt>
      <trkpt lat="48.52421" lon="2.04951">
        <ele>97.2</ele>
        <time>2023-12-14T12:09:47Z</time>
      </trkpt>
      <trkpt lat="48.52427" lon="2.04946">
        <ele>96.4</ele>
        <time>2023-12-14T12:09:48Z</time>
      </trkpt>
      <trkpt lat="48.52433" lon="2.04942">
        <ele>97.2</ele>
        <time>2023-12-14T12:09:49Z</time>
      </trkpt>
      <trkpt lat="48.52439" lon="2.04938">
        <ele>97.2</ele>
        <time>2023-12-14T12:09:50Z</time>
      </trkpt>
      <trkpt lat="48.52444" lon="2.04934">
        <ele>97.2</ele>
        <time>2023-12-14T12:09:51Z</time>
      </trkpt>
      <trkpt lat="48.5245" lon="2.0493">
        <ele>96.2</ele>
        <time>2023-12-14T12:09:52Z</time>
      </trkpt>
      <trkpt lat="48.52456" lon="2.04926">
        <ele>96.6</ele>
        <time>2023-12-14T12:09:53Z</time>
      </trkpt>
      <trkpt lat="48.52462" lon="2.04922">
        <ele>96.6</ele>
        <time>2023-12-14T12:09:54Z</time>
      </trkpt>
      <trkpt lat="48.52467" lon="2.04918">
        <ele>96.6</ele>
        <time>2023-12-14T12:09:55Z</time>
      </trkpt>
      <trkpt lat="48.52473" lon="2.04914">
        <ele>96</ele>
        <time>2023-12-14T12:09:56Z</time>
      </trkpt>
      <trkpt lat="48.52479" lon="2.0491">
        <ele>96.2</ele>
        <time>2023-12-14T12:09:57Z</time>
      </trkpt>
      <trkpt lat="48.52484" lon="2.04906">
        <ele>96.2</ele>
        <time>2023-12-14T12:09:58Z</time>
      </trkpt>
      <trkpt lat="48.5249" lon="2.04902">
        <ele>96.2</ele>
        <time>2023-12-14T12:09:59Z</time>
      </trkpt>
      <trkpt lat="48.52496" lon="2.04898">
        <ele>96.2</ele>
        <time>2023-12-14T12:10:00Z</time>
      </trkpt>
      <trkpt lat="48.52501" lon="2.04895">
        <ele>95.6</ele>
        <time>2023-12-14T12:10:01Z</time>
      </trkpt>
      <trkpt lat="48.52507" lon="2.04891">
        <ele>95.6</ele>
        <time>2023-12-14T12:10:02Z</time>
      </trkpt>
      <trkpt lat="48.52512" lon="2.04887">
        <ele>95.6</ele>
        <time>2023-12-14T12:10:03Z</time>
      </trkpt>
      <trkpt lat="48.52518" lon="2.04883">
        <ele>95.6</ele>
        <time>2023-12-14T12:10:04Z</time>
      </trkpt>
      <trkpt lat="48.52524" lon="2.04879">
        <ele>96</ele>
        <time>2023-12-14T12:10:05Z</time>
      </trkpt>
      <trkpt lat="48.52529" lon="2.04875">
        <ele>96</ele>
        <time>2023-12-14T12:10:06Z</time>
      </trkpt>
      <trkpt lat="48.52535" lon="2.04871">
        <ele>96</ele>
        <time>2023-12-14T12:10:07Z</time>
      </trkpt>
      <trkpt lat="48.5254" lon="2.04868">
        <ele>95.8</ele>
        <time>2023-12-14T12:10:08Z</time>
      </trkpt>
      <trkpt lat="48.52546" lon="2.04864">
        <ele>96</ele>
        <time>2023-12-14T12:10:09Z</time>
      </trkpt>
      <trkpt lat="48.52551" lon="2.0486">
        <ele>96</ele>
        <time>2023-12-14T12:10:10Z</time>
      </trkpt>
      <trkpt lat="48.52556" lon="2.04857">
        <ele>96</ele>
        <time>2023-12-14T12:10:11Z</time>
      </trkpt>
      <trkpt lat="48.52562" lon="2.04853">
        <ele>95.2</ele>
        <time>2023-12-14T12:10:12Z</time>
      </trkpt>
      <trkpt lat="48.52567" lon="2.04849">
        <ele>96</ele>
        <time>2023-12-14T12:10:13Z</time>
      </trkpt>
      <trkpt lat="48.52572" lon="2.04846">
        <ele>96</ele>
        <time>2023-12-14T12:10:14Z</time>
      </trkpt>
      <trkpt lat="48.52578" lon="2.04842">
        <ele>96</ele>
        <time>2023-12-14T12:10:15Z</time>
      </trkpt>
      <trkpt lat="48.52583" lon="2.04839">
        <ele>96</ele>
        <time>2023-12-14T12:10:16Z</time>
      </trkpt>
      <trkpt lat="48.52589" lon="2.04835">
        <ele>95.4</ele>
        <time>2023-12-14T12:10:17Z</time>
      </trkpt>
      <trkpt lat="48.52594" lon="2.04831">
        <ele>95.4</ele>
        <time>2023-12-14T12:10:18Z</time>
      </trkpt>
      <trkpt lat="48.526" lon="2.04828">
        <ele>95.4</ele>
        <time>2023-12-14T12:10:19Z</time>
      </trkpt>
      <trkpt lat="48.52605" lon="2.04824">
        <ele>96.4</ele>
        <time>2023-12-14T12:10:20Z</time>
      </trkpt>
      <trkpt lat="48.5261" lon="2.0482">
        <ele>96.4</ele>
        <time>2023-12-14T12:10:21Z</time>
      </trkpt>
      <trkpt lat="48.52616" lon="2.04817">
        <ele>96.4</ele>
        <time>2023-12-14T12:10:22Z</time>
      </trkpt>
      <trkpt lat="48.52621" lon="2.04813">
        <ele>96.4</ele>
        <time>2023-12-14T12:10:23Z</time>
      </trkpt>
      <trkpt lat="48.52626" lon="2.04809">
        <ele>96.2</ele>
        <time>2023-12-14T12:10:24Z</time>
      </trkpt>
      <trkpt lat="48.52631" lon="2.04806">
        <ele>95.4</ele>
        <time>2023-12-14T12:10:25Z</time>
      </trkpt>
      <trkpt lat="48.52636" lon="2.04803">
        <ele>95.4</ele>
        <time>2023-12-14T12:10:26Z</time>
      </trkpt>
      <trkpt lat="48.52641" lon="2.048">
        <ele>95.4</ele>
        <time>2023-12-14T12:10:27Z</time>
      </trkpt>
      <trkpt lat="48.52646" lon="2.04797">
        <ele>94.4</ele>
        <time>2023-12-14T12:10:28Z</time>
      </trkpt>
      <trkpt lat="48.52651" lon="2.04793">
        <ele>93.6</ele>
        <time>2023-12-14T12:10:29Z</time>
      </trkpt>
      <trkpt lat="48.52656" lon="2.04789">
        <ele>93.6</ele>
        <time>2023-12-14T12:10:30Z</time>
      </trkpt>
      <trkpt lat="48.52661" lon="2.04785">
        <ele>93.6</ele>
        <time>2023-12-14T12:10:31Z</time>
      </trkpt>
      <trkpt lat="48.52667" lon="2.04781">
        <ele>92.6</ele>
        <time>2023-12-14T12:10:32Z</time>
      </trkpt>
      <trkpt lat="48.52672" lon="2.04778">
        <ele>90.8</ele>
        <time>2023-12-14T12:10:33Z</time>
      </trkpt>
      <trkpt lat="48.52678" lon="2.04774">
        <ele>90.8</ele>
        <time>2023-12-14T12:10:34Z</time>
      </trkpt>
      <trkpt lat="48.52684" lon="2.0477">
        <ele>90.8</ele>
        <time>2023-12-14T12:10:35Z</time>
      </trkpt>
      <trkpt lat="48.5269" lon="2.04765">
        <ele>89.8</ele>
        <time>2023-12-14T12:10:36Z</time>
      </trkpt>
      <trkpt lat="48.52696" lon="2.04761">
        <ele>88.8</ele>
        <time>2023-12-14T12:10:37Z</time>
      </trkpt>
      <trkpt lat="48.52703" lon="2.04756">
        <ele>88.8</ele>
        <time>2023-12-14T12:10:38Z</time>
      </trkpt>
      <trkpt lat="48.52709" lon="2.04751">
        <ele>88.8</ele>
        <time>2023-12-14T12:10:39Z</time>
      </trkpt>
      <trkpt lat="48.52716" lon="2.04746">
        <ele>87.8</ele>
        <time>2023-12-14T12:10:40Z</time>
      </trkpt>
      <trkpt lat="48.52722" lon="2.04741">
        <ele>86</ele>
        <time>2023-12-14T12:10:41Z</time>
      </trkpt>
      <trkpt lat="48.52729" lon="2.04736">
        <ele>86</ele>
        <time>2023-12-14T12:10:42Z</time>
      </trkpt>
      <trkpt lat="48.52736" lon="2.04732">
        <ele>86</ele>
        <time>2023-12-14T12:10:43Z</time>
      </trkpt>
      <trkpt lat="48.52743" lon="2.04727">
        <ele>86</ele>
        <time>2023-12-14T12:10:44Z</time>
      </trkpt>
      <trkpt lat="48.5275" lon="2.04721">
        <ele>84</ele>
        <time>2023-12-14T12:10:45Z</time>
      </trkpt>
      <trkpt lat="48.52757" lon="2.04716">
        <ele>84</ele>
        <time>2023-12-14T12:10:46Z</time>
      </trkpt>
      <trkpt lat="48.52764" lon="2.0471">
        <ele>84</ele>
        <time>2023-12-14T12:10:47Z</time>
      </trkpt>
      <trkpt lat="48.52772" lon="2.04705">
        <ele>83.4</ele>
        <time>2023-12-14T12:10:48Z</time>
      </trkpt>
      <trkpt lat="48.5278" lon="2.04702">
        <ele>82.8</ele>
        <time>2023-12-14T12:10:49Z</time>
      </trkpt>
      <trkpt lat="48.52788" lon="2.04698">
        <ele>82.8</ele>
        <time>2023-12-14T12:10:50Z</time>
      </trkpt>
      <trkpt lat="48.52796" lon="2.04696">
        <ele>82.8</ele>
        <time>2023-12-14T12:10:51Z</time>
      </trkpt>
      <trkpt lat="48.52805" lon="2.04695">
        <ele>81.8</ele>
        <time>2023-12-14T12:10:52Z</time>
      </trkpt>
      <trkpt lat="48.52814" lon="2.04697">
        <ele>79.8</ele>
        <time>2023-12-14T12:10:53Z</time>
      </trkpt>
      <trkpt lat="48.52823" lon="2.04698">
        <ele>79.8</ele>
        <time>2023-12-14T12:10:54Z</time>
      </trkpt>
      <trkpt lat="48.52832" lon="2.04698">
        <ele>79.8</ele>
        <time>2023-12-14T12:10:55Z</time>
      </trkpt>
      <trkpt lat="48.52842" lon="2.04698">
        <ele>78.8</ele>
        <time>2023-12-14T12:10:56Z</time>
      </trkpt>
      <trkpt lat="48.52851" lon="2.04698">
        <ele>77.2</ele>
        <time>2023-12-14T12:10:57Z</time>
      </trkpt>
      <trkpt lat="48.5286" lon="2.04697">
        <ele>77.2</ele>
        <time>2023-12-14T12:10:58Z</time>
      </trkpt>
      <trkpt lat="48.5287" lon="2.04695">
        <ele>77.2</ele>
        <time>2023-12-14T12:10:59Z</time>
      </trkpt>
      <trkpt lat="48.52879" lon="2.04691">
        <ele>76.2</ele>
        <time>2023-12-14T12:11:00Z</time>
      </trkpt>
      <trkpt lat="48.52889" lon="2.04686">
        <ele>74.4</ele>
        <time>2023-12-14T12:11:01Z</time>
      </trkpt>
      <trkpt lat="48.52899" lon="2.0468">
        <ele>74.4</ele>
        <time>2023-12-14T12:11:02Z</time>
      </trkpt>
      <trkpt lat="48.52908" lon="2.04675">
        <ele>74.4</ele>
        <time>2023-12-14T12:11:03Z</time>
      </trkpt>
      <trkpt lat="48.52918" lon="2.0467">
        <ele>73.4</ele>
        <time>2023-12-14T12:11:04Z</time>
      </trkpt>
      <trkpt lat="48.52927" lon="2.04665">
        <ele>71.6</ele>
        <time>2023-12-14T12:11:05Z</time>
      </trkpt>
      <trkpt lat="48.52937" lon="2.04659">
        <ele>71.6</ele>
        <time>2023-12-14T12:11:06Z</time>
      </trkpt>
      <trkpt lat="48.52947" lon="2.04654">
        <ele>71.6</ele>
        <time>2023-12-14T12:11:07Z</time>
      </trkpt>
      <trkpt lat="48.52956" lon="2.04649">
        <ele>71.6</ele>
        <time>2023-12-14T12:11:08Z</time>
      </trkpt>
      <trkpt lat="48.52966" lon="2.04644">
        <ele>70.2</ele>
        <time>2023-12-14T12:11:09Z</time>
      </trkpt>
      <trkpt lat="48.52975" lon="2.0464">
        <ele>70.2</ele>
        <time>2023-12-14T12:11:10Z</time>
      </trkpt>
      <trkpt lat="48.52984" lon="2.04635">
        <ele>70.2</ele>
        <time>2023-12-14T12:11:11Z</time>
      </trkpt>
      <trkpt lat="48.52993" lon="2.0463">
        <ele>69.2</ele>
        <time>2023-12-14T12:11:12Z</time>
      </trkpt>
      <trkpt lat="48.53003" lon="2.04625">
        <ele>68</ele>
        <time>2023-12-14T12:11:13Z</time>
      </trkpt>
      <trkpt lat="48.53012" lon="2.0462">
        <ele>68</ele>
        <time>2023-12-14T12:11:14Z</time>
      </trkpt>
      <trkpt lat="48.53021" lon="2.04615">
        <ele>68</ele>
        <time>2023-12-14T12:11:15Z</time>
      </trkpt>
      <trkpt lat="48.53029" lon="2.0461">
        <ele>69</ele>
        <time>2023-12-14T12:11:16Z</time>
      </trkpt>
      <trkpt lat="48.53038" lon="2.04607">
        <ele>69</ele>
        <time>2023-12-14T12:11:17Z</time>
      </trkpt>
      <trkpt lat="48.53045" lon="2.04604">
        <ele>69</ele>
        <time>2023-12-14T12:11:18Z</time>
      </trkpt>
      <trkpt lat="48.53053" lon="2.04602">
        <ele>69</ele>
        <time>2023-12-14T12:11:19Z</time>
      </trkpt>
      <trkpt lat="48.53061" lon="2.04601">
        <ele>70</ele>
        <time>2023-12-14T12:11:20Z</time>
      </trkpt>
      <trkpt lat="48.53068" lon="2.04602">
        <ele>70.4</ele>
        <time>2023-12-14T12:11:21Z</time>
      </trkpt>
      <trkpt lat="48.53075" lon="2.04603">
        <ele>70.4</ele>
        <time>2023-12-14T12:11:22Z</time>
      </trkpt>
      <trkpt lat="48.53081" lon="2.04605">
        <ele>70.4</ele>
        <time>2023-12-14T12:11:23Z</time>
      </trkpt>
      <trkpt lat="48.53087" lon="2.04606">
        <ele>71.4</ele>
        <time>2023-12-14T12:11:24Z</time>
      </trkpt>
      <trkpt lat="48.53091" lon="2.04607">
        <ele>72.2</ele>
        <time>2023-12-14T12:11:25Z</time>
      </trkpt>
      <trkpt lat="48.53095" lon="2.04607">
        <ele>72.2</ele>
        <time>2023-12-14T12:11:26Z</time>
      </trkpt>
      <trkpt lat="48.53097" lon="2.04606">
        <ele>72.2</ele>
        <time>2023-12-14T12:11:27Z</time>
      </trkpt>
      <trkpt lat="48.53098" lon="2.04606">
        <ele>72.2</ele>
        <time>2023-12-14T12:11:28Z</time>
      </trkpt>
      <trkpt lat="48.53098" lon="2.04605">
        <ele>73.8</ele>
        <time>2023-12-14T12:11:29Z</time>
      </trkpt>
      <trkpt lat="48.53098" lon="2.04605">
        <ele>73.8</ele>
        <time>2023-12-14T12:11:30Z</time>
      </trkpt>
      <trkpt lat="48.53101" lon="2.04597">
        <ele>73</ele>
        <time>2023-12-14T12:12:09Z</time>
      </trkpt>
      <trkpt lat="48.53103" lon="2.04597">
        <ele>73</ele>
        <time>2023-12-14T12:12:10Z</time>
      </trkpt>
      <trkpt lat="48.53105" lon="2.04598">
        <ele>73</ele>
        <time>2023-12-14T12:12:11Z</time>
      </trkpt>
      <trkpt lat="48.53107" lon="2.04599">
        <ele>73</ele>
        <time>2023-12-14T12:12:12Z</time>
      </trkpt>
      <trkpt lat="48.5311" lon="2.046">
        <ele>73.4</ele>
        <time>2023-12-14T12:12:13Z</time>
      </trkpt>
      <trkpt lat="48.53114" lon="2.046">
        <ele>73.4</ele>
        <time>2023-12-14T12:12:14Z</time>
      </trkpt>
      <trkpt lat="48.53117" lon="2.046">
        <ele>73.4</ele>
        <time>2023-12-14T12:12:15Z</time>
      </trkpt>
      <trkpt lat="48.53119" lon="2.046">
        <ele>73.4</ele>
        <time>2023-12-14T12:12:16Z</time>
      </trkpt>
      <trkpt lat="48.53123" lon="2.04599">
        <ele>73.4</ele>
        <time>2023-12-14T12:12:17Z</time>
      </trkpt>
      <trkpt lat="48.53127" lon="2.04599">
        <ele>73.4</ele>
        <time>2023-12-14T12:12:18Z</time>
      </trkpt>
      <trkpt lat="48.5313" lon="2.04598">
        <ele>73.4</ele>
        <time>2023-12-14T12:12:19Z</time>
      </trkpt>
      <trkpt lat="48.53134" lon="2.04597">
        <ele>73.4</ele>
        <time>2023-12-14T12:12:20Z</time>
      </trkpt>
      <trkpt lat="48.53137" lon="2.04597">
        <ele>73.2</ele>
        <time>2023-12-14T12:12:21Z</time>
      </trkpt>
      <trkpt lat="48.5314" lon="2.04596">
        <ele>73.2</ele>
        <time>2023-12-14T12:12:22Z</time>
      </trkpt>
      <trkpt lat="48.53143" lon="2.04595">
        <ele>73.2</ele>
        <time>2023-12-14T12:12:23Z</time>
      </trkpt>
      <trkpt lat="48.53147" lon="2.04594">
        <ele>74.2</ele>
        <time>2023-12-14T12:12:24Z</time>
      </trkpt>
      <trkpt lat="48.5315" lon="2.04592">
        <ele>74.2</ele>
        <time>2023-12-14T12:12:25Z</time>
      </trkpt>
      <trkpt lat="48.53153" lon="2.04591">
        <ele>74.2</ele>
        <time>2023-12-14T12:12:26Z</time>
      </trkpt>
      <trkpt lat="48.53156" lon="2.04589">
        <ele>74.2</ele>
        <time>2023-12-14T12:12:27Z</time>
      </trkpt>
      <trkpt lat="48.53158" lon="2.04587">
        <ele>74.6</ele>
        <time>2023-12-14T12:12:28Z</time>
      </trkpt>
      <trkpt lat="48.53161" lon="2.04585">
        <ele>74.8</ele>
        <time>2023-12-14T12:12:29Z</time>
      </trkpt>
      <trkpt lat="48.53164" lon="2.04584">
        <ele>74.8</ele>
        <time>2023-12-14T12:12:30Z</time>
      </trkpt>
      <trkpt lat="48.53168" lon="2.04582">
        <ele>74.8</ele>
        <time>2023-12-14T12:12:31Z</time>
      </trkpt>
      <trkpt lat="48.53171" lon="2.04582">
        <ele>75.6</ele>
        <time>2023-12-14T12:12:32Z</time>
      </trkpt>
      <trkpt lat="48.53174" lon="2.04581">
        <ele>75.6</ele>
        <time>2023-12-14T12:12:33Z</time>
      </trkpt>
      <trkpt lat="48.53177" lon="2.0458">
        <ele>75.6</ele>
        <time>2023-12-14T12:12:34Z</time>
      </trkpt>
      <trkpt lat="48.5318" lon="2.04578">
        <ele>75.6</ele>
        <time>2023-12-14T12:12:35Z</time>
      </trkpt>
      <trkpt lat="48.53183" lon="2.04576">
        <ele>75.6</ele>
        <time>2023-12-14T12:12:36Z</time>
      </trkpt>
      <trkpt lat="48.53185" lon="2.04575">
        <ele>75.8</ele>
        <time>2023-12-14T12:12:37Z</time>
      </trkpt>
      <trkpt lat="48.53188" lon="2.04574">
        <ele>75.8</ele>
        <time>2023-12-14T12:12:38Z</time>
      </trkpt>
      <trkpt lat="48.53191" lon="2.04573">
        <ele>75.8</ele>
        <time>2023-12-14T12:12:39Z</time>
      </trkpt>
      <trkpt lat="48.53195" lon="2.04573">
        <ele>75.8</ele>
        <time>2023-12-14T12:12:40Z</time>
      </trkpt>
      <trkpt lat="48.53198" lon="2.04572">
        <ele>77</ele>
        <time>2023-12-14T12:12:41Z</time>
      </trkpt>
      <trkpt lat="48.532" lon="2.04572">
        <ele>77</ele>
        <time>2023-12-14T12:12:42Z</time>
      </trkpt>
      <trkpt lat="48.53203" lon="2.04571">
        <ele>77</ele>
        <time>2023-12-14T12:12:43Z</time>
      </trkpt>
      <trkpt lat="48.53206" lon="2.0457">
        <ele>78</ele>
        <time>2023-12-14T12:12:44Z</time>
      </trkpt>
      <trkpt lat="48.53209" lon="2.04569">
        <ele>78.2</ele>
        <time>2023-12-14T12:12:45Z</time>
      </trkpt>
      <trkpt lat="48.53212" lon="2.04569">
        <ele>78.2</ele>
        <time>2023-12-14T12:12:46Z</time>
      </trkpt>
      <trkpt lat="48.53214" lon="2.04568">
        <ele>78.2</ele>
        <time>2023-12-14T12:12:47Z</time>
      </trkpt>
      <trkpt lat="48.53217" lon="2.04567">
        <ele>78.2</ele>
        <time>2023-12-14T12:12:48Z</time>
      </trkpt>
      <trkpt lat="48.5322" lon="2.04566">
        <ele>78.6</ele>
        <time>2023-12-14T12:12:49Z</time>
      </trkpt>
      <trkpt lat="48.53223" lon="2.04565">
        <ele>78.6</ele>
        <time>2023-12-14T12:12:50Z</time>
      </trkpt>
      <trkpt lat="48.53225" lon="2.04564">
        <ele>78.6</ele>
        <time>2023-12-14T12:12:51Z</time>
      </trkpt>
      <trkpt lat="48.53228" lon="2.04564">
        <ele>78.8</ele>
        <time>2023-12-14T12:12:52Z</time>
      </trkpt>
      <trkpt lat="48.53231" lon="2.04563">
        <ele>79.2</ele>
        <time>2023-12-14T12:12:53Z</time>
      </trkpt>
      <trkpt lat="48.53233" lon="2.04563">
        <ele>79.2</ele>
        <time>2023-12-14T12:12:54Z</time>
      </trkpt>
      <trkpt lat="48.53235" lon="2.04562">
        <ele>79.2</ele>
        <time>2023-12-14T12:12:55Z</time>
      </trkpt>
      <trkpt lat="48.53237" lon="2.04562">
        <ele>79.2</ele>
        <time>2023-12-14T12:12:56Z</time>
      </trkpt>
      <trkpt lat="48.53241" lon="2.04562">
        <ele>80.4</ele>
        <time>2023-12-14T12:12:57Z</time>
      </trkpt>
      <trkpt lat="48.53242" lon="2.04562">
        <ele>80.4</ele>
        <time>2023-12-14T12:12:58Z</time>
      </trkpt>
      <trkpt lat="48.53245" lon="2.04562">
        <ele>80.4</ele>
        <time>2023-12-14T12:12:59Z</time>
      </trkpt>
      <trkpt lat="48.53247" lon="2.04563">
        <ele>80</ele>
        <time>2023-12-14T12:13:00Z</time>
      </trkpt>
      <trkpt lat="48.53249" lon="2.04565">
        <ele>80.4</ele>
        <time>2023-12-14T12:13:01Z</time>
      </trkpt>
      <trkpt lat="48.53251" lon="2.04568">
        <ele>80.4</ele>
        <time>2023-12-14T12:13:02Z</time>
      </trkpt>
      <trkpt lat="48.53252" lon="2.04571">
        <ele>80.4</ele>
        <time>2023-12-14T12:13:03Z</time>
      </trkpt>
      <trkpt lat="48.53253" lon="2.04574">
        <ele>80.4</ele>
        <time>2023-12-14T12:13:04Z</time>
      </trkpt>
      <trkpt lat="48.53254" lon="2.04577">
        <ele>80.8</ele>
        <time>2023-12-14T12:13:05Z</time>
      </trkpt>
      <trkpt lat="48.53254" lon="2.04581">
        <ele>80.8</ele>
        <time>2023-12-14T12:13:06Z</time>
      </trkpt>
      <trkpt lat="48.53255" lon="2.04584">
        <ele>80.8</ele>
        <time>2023-12-14T12:13:07Z</time>
      </trkpt>
      <trkpt lat="48.53256" lon="2.04587">
        <ele>80.8</ele>
        <time>2023-12-14T12:13:08Z</time>
      </trkpt>
      <trkpt lat="48.53256" lon="2.04591">
        <ele>80.6</ele>
        <time>2023-12-14T12:13:09Z</time>
      </trkpt>
      <trkpt lat="48.53256" lon="2.04594">
        <ele>80.6</ele>
        <time>2023-12-14T12:13:10Z</time>
      </trkpt>
      <trkpt lat="48.53257" lon="2.04598">
        <ele>80.6</ele>
        <time>2023-12-14T12:13:11Z</time>
      </trkpt>
      <trkpt lat="48.53257" lon="2.04602">
        <ele>81.6</ele>
        <time>2023-12-14T12:13:12Z</time>
      </trkpt>
      <trkpt lat="48.53257" lon="2.04606">
        <ele>82</ele>
        <time>2023-12-14T12:13:13Z</time>
      </trkpt>
      <trkpt lat="48.53258" lon="2.0461">
        <ele>82</ele>
        <time>2023-12-14T12:13:14Z</time>
      </trkpt>
      <trkpt lat="48.53258" lon="2.04615">
        <ele>82</ele>
        <time>2023-12-14T12:13:15Z</time>
      </trkpt>
      <trkpt lat="48.53258" lon="2.0462">
        <ele>82.4</ele>
        <time>2023-12-14T12:13:16Z</time>
      </trkpt>
      <trkpt lat="48.53259" lon="2.04624">
        <ele>82.8</ele>
        <time>2023-12-14T12:13:17Z</time>
      </trkpt>
      <trkpt lat="48.5326" lon="2.04628">
        <ele>82.8</ele>
        <time>2023-12-14T12:13:18Z</time>
      </trkpt>
      <trkpt lat="48.5326" lon="2.04633">
        <ele>82.8</ele>
        <time>2023-12-14T12:13:19Z</time>
      </trkpt>
      <trkpt lat="48.53261" lon="2.04637">
        <ele>82.8</ele>
        <time>2023-12-14T12:13:20Z</time>
      </trkpt>
      <trkpt lat="48.53262" lon="2.04643">
        <ele>84</ele>
        <time>2023-12-14T12:13:21Z</time>
      </trkpt>
      <trkpt lat="48.53262" lon="2.04647">
        <ele>84</ele>
        <time>2023-12-14T12:13:22Z</time>
      </trkpt>
      <trkpt lat="48.53263" lon="2.04652">
        <ele>84</ele>
        <time>2023-12-14T12:13:23Z</time>
      </trkpt>
      <trkpt lat="48.53263" lon="2.04657">
        <ele>83.6</ele>
        <time>2023-12-14T12:13:24Z</time>
      </trkpt>
      <trkpt lat="48.53264" lon="2.04662">
        <ele>83.8</ele>
        <time>2023-12-14T12:13:25Z</time>
      </trkpt>
      <trkpt lat="48.53264" lon="2.04667">
        <ele>83.8</ele>
        <time>2023-12-14T12:13:26Z</time>
      </trkpt>
      <trkpt lat="48.53265" lon="2.04671">
        <ele>83.8</ele>
        <time>2023-12-14T12:13:27Z</time>
      </trkpt>
      <trkpt lat="48.53265" lon="2.04676">
        <ele>84.4</ele>
        <time>2023-12-14T12:13:28Z</time>
      </trkpt>
      <trkpt lat="48.53266" lon="2.04681">
        <ele>84.6</ele>
        <time>2023-12-14T12:13:29Z</time>
      </trkpt>
      <trkpt lat="48.53267" lon="2.04685">
        <ele>84.6</ele>
        <time>2023-12-14T12:13:30Z</time>
      </trkpt>
      <trkpt lat="48.53267" lon="2.0469">
        <ele>84.6</ele>
        <time>2023-12-14T12:13:31Z</time>
      </trkpt>
      <trkpt lat="48.53267" lon="2.04695">
        <ele>85</ele>
        <time>2023-12-14T12:13:32Z</time>
      </trkpt>
      <trkpt lat="48.53268" lon="2.04699">
        <ele>85.2</ele>
        <time>2023-12-14T12:13:33Z</time>
      </trkpt>
      <trkpt lat="48.53269" lon="2.04704">
        <ele>85.2</ele>
        <time>2023-12-14T12:13:34Z</time>
      </trkpt>
      <trkpt lat="48.53269" lon="2.04709">
        <ele>85.2</ele>
        <time>2023-12-14T12:13:35Z</time>
      </trkpt>
      <trkpt lat="48.5327" lon="2.04713">
        <ele>86.2</ele>
        <time>2023-12-14T12:13:36Z</time>
      </trkpt>
      <trkpt lat="48.53271" lon="2.04718">
        <ele>85.6</ele>
        <time>2023-12-14T12:13:37Z</time>
      </trkpt>
      <trkpt lat="48.53272" lon="2.04722">
        <ele>85.6</ele>
        <time>2023-12-14T12:13:38Z</time>
      </trkpt>
      <trkpt lat="48.53273" lon="2.04727">
        <ele>85.6</ele>
        <time>2023-12-14T12:13:39Z</time>
      </trkpt>
      <trkpt lat="48.53274" lon="2.04731">
        <ele>86.2</ele>
        <time>2023-12-14T12:13:40Z</time>
      </trkpt>
      <trkpt lat="48.53275" lon="2.04735">
        <ele>86.4</ele>
        <time>2023-12-14T12:13:41Z</time>
      </trkpt>
      <trkpt lat="48.53276" lon="2.0474">
        <ele>86.4</ele>
        <time>2023-12-14T12:13:42Z</time>
      </trkpt>
      <trkpt lat="48.53277" lon="2.04744">
        <ele>86.4</ele>
        <time>2023-12-14T12:13:43Z</time>
      </trkpt>
      <trkpt lat="48.53279" lon="2.04748">
        <ele>86.8</ele>
        <time>2023-12-14T12:13:44Z</time>
      </trkpt>
      <trkpt lat="48.5328" lon="2.04752">
        <ele>86.8</ele>
        <time>2023-12-14T12:13:45Z</time>
      </trkpt>
      <trkpt lat="48.53281" lon="2.04755">
        <ele>86.8</ele>
        <time>2023-12-14T12:13:46Z</time>
      </trkpt>
      <trkpt lat="48.53282" lon="2.0476">
        <ele>86.8</ele>
        <time>2023-12-14T12:13:47Z</time>
      </trkpt>
      <trkpt lat="48.53284" lon="2.04763">
        <ele>86.8</ele>
        <time>2023-12-14T12:13:48Z</time>
      </trkpt>
      <trkpt lat="48.53285" lon="2.04767">
        <ele>87.8</ele>
        <time>2023-12-14T12:13:49Z</time>
      </trkpt>
      <trkpt lat="48.53287" lon="2.04771">
        <ele>87.8</ele>
        <time>2023-12-14T12:13:50Z</time>
      </trkpt>
      <trkpt lat="48.53289" lon="2.04774">
        <ele>87.8</ele>
        <time>2023-12-14T12:13:51Z</time>
      </trkpt>
      <trkpt lat="48.53291" lon="2.04778">
        <ele>88.2</ele>
        <time>2023-12-14T12:13:52Z</time>
      </trkpt>
      <trkpt lat="48.53293" lon="2.04781">
        <ele>88.4</ele>
        <time>2023-12-14T12:13:53Z</time>
      </trkpt>
      <trkpt lat="48.53295" lon="2.04785">
        <ele>88.4</ele>
        <time>2023-12-14T12:13:54Z</time>
      </trkpt>
      <trkpt lat="48.53298" lon="2.04788">
        <ele>88.4</ele>
        <time>2023-12-14T12:13:55Z</time>
      </trkpt>
      <trkpt lat="48.533" lon="2.04791">
        <ele>88.4</ele>
        <time>2023-12-14T12:13:56Z</time>
      </trkpt>
      <trkpt lat="48.53301" lon="2.04794">
        <ele>89.2</ele>
        <time>2023-12-14T12:13:57Z</time>
      </trkpt>
      <trkpt lat="48.53303" lon="2.04797">
        <ele>89.2</ele>
        <time>2023-12-14T12:13:58Z</time>
      </trkpt>
      <trkpt lat="48.53305" lon="2.048">
        <ele>89.2</ele>
        <time>2023-12-14T12:13:59Z</time>
      </trkpt>
      <trkpt lat="48.53307" lon="2.04802">
        <ele>89.8</ele>
        <time>2023-12-14T12:14:00Z</time>
      </trkpt>
      <trkpt lat="48.5331" lon="2.04805">
        <ele>89.8</ele>
        <time>2023-12-14T12:14:01Z</time>
      </trkpt>
      <trkpt lat="48.53312" lon="2.04808">
        <ele>89.8</ele>
        <time>2023-12-14T12:14:02Z</time>
      </trkpt>
      <trkpt lat="48.53314" lon="2.04811">
        <ele>89.8</ele>
        <time>2023-12-14T12:14:03Z</time>
      </trkpt>
      <trkpt lat="48.53316" lon="2.04813">
        <ele>90.8</ele>
        <time>2023-12-14T12:14:04Z</time>
      </trkpt>
      <trkpt lat="48.53319" lon="2.04816">
        <ele>90.8</ele>
        <time>2023-12-14T12:14:05Z</time>
      </trkpt>
      <trkpt lat="48.53321" lon="2.04819">
        <ele>90.8</ele>
        <time>2023-12-14T12:14:06Z</time>
      </trkpt>
      <trkpt lat="48.53323" lon="2.04821">
        <ele>90.8</ele>
        <time>2023-12-14T12:14:07Z</time>
      </trkpt>
      <trkpt lat="48.53325" lon="2.04825">
        <ele>90.8</ele>
        <time>2023-12-14T12:14:08Z</time>
      </trkpt>
      <trkpt lat="48.53328" lon="2.04827">
        <ele>92</ele>
        <time>2023-12-14T12:14:09Z</time>
      </trkpt>
      <trkpt lat="48.5333" lon="2.0483">
        <ele>92</ele>
        <time>2023-12-14T12:14:10Z</time>
      </trkpt>
      <trkpt lat="48.53332" lon="2.04833">
        <ele>92</ele>
        <time>2023-12-14T12:14:11Z</time>
      </trkpt>
      <trkpt lat="48.53334" lon="2.04835">
        <ele>92</ele>
        <time>2023-12-14T12:14:12Z</time>
      </trkpt>
      <trkpt lat="48.53336" lon="2.04838">
        <ele>92.4</ele>
        <time>2023-12-14T12:14:13Z</time>
      </trkpt>
      <trkpt lat="48.53339" lon="2.04841">
        <ele>92.4</ele>
        <time>2023-12-14T12:14:14Z</time>
      </trkpt>
      <trkpt lat="48.5334" lon="2.04844">
        <ele>92.4</ele>
        <time>2023-12-14T12:14:15Z</time>
      </trkpt>
      <trkpt lat="48.53343" lon="2.04847">
        <ele>93</ele>
        <time>2023-12-14T12:14:16Z</time>
      </trkpt>
      <trkpt lat="48.53345" lon="2.0485">
        <ele>93.4</ele>
        <time>2023-12-14T12:14:17Z</time>
      </trkpt>
      <trkpt lat="48.53347" lon="2.04852">
        <ele>93.4</ele>
        <time>2023-12-14T12:14:18Z</time>
      </trkpt>
      <trkpt lat="48.5335" lon="2.04855">
        <ele>93.4</ele>
        <time>2023-12-14T12:14:19Z</time>
      </trkpt>
      <trkpt lat="48.53352" lon="2.04857">
        <ele>93.4</ele>
        <time>2023-12-14T12:14:20Z</time>
      </trkpt>
      <trkpt lat="48.53355" lon="2.0486">
        <ele>94</ele>
        <time>2023-12-14T12:14:21Z</time>
      </trkpt>
      <trkpt lat="48.53357" lon="2.04863">
        <ele>94</ele>
        <time>2023-12-14T12:14:22Z</time>
      </trkpt>
      <trkpt lat="48.5336" lon="2.04866">
        <ele>94</ele>
        <time>2023-12-14T12:14:23Z</time>
      </trkpt>
      <trkpt lat="48.53362" lon="2.04869">
        <ele>94</ele>
        <time>2023-12-14T12:14:24Z</time>
      </trkpt>
      <trkpt lat="48.53364" lon="2.04872">
        <ele>94.4</ele>
        <time>2023-12-14T12:14:25Z</time>
      </trkpt>
      <trkpt lat="48.53366" lon="2.04875">
        <ele>94.4</ele>
        <time>2023-12-14T12:14:26Z</time>
      </trkpt>
      <trkpt lat="48.53369" lon="2.04878">
        <ele>94.4</ele>
        <time>2023-12-14T12:14:27Z</time>
      </trkpt>
      <trkpt lat="48.53371" lon="2.0488">
        <ele>95.4</ele>
        <time>2023-12-14T12:14:28Z</time>
      </trkpt>
      <trkpt lat="48.53373" lon="2.04883">
        <ele>95.6</ele>
        <time>2023-12-14T12:14:29Z</time>
      </trkpt>
      <trkpt lat="48.53376" lon="2.04886">
        <ele>95.6</ele>
        <time>2023-12-14T12:14:30Z</time>
      </trkpt>
      <trkpt lat="48.53378" lon="2.04889">
        <ele>95.6</ele>
        <time>2023-12-14T12:14:31Z</time>
      </trkpt>
      <trkpt lat="48.5338" lon="2.04892">
        <ele>95.6</ele>
        <time>2023-12-14T12:14:32Z</time>
      </trkpt>
      <trkpt lat="48.53382" lon="2.04894">
        <ele>96</ele>
        <time>2023-12-14T12:14:33Z</time>
      </trkpt>
      <trkpt lat="48.53385" lon="2.04897">
        <ele>96</ele>
        <time>2023-12-14T12:14:34Z</time>
      </trkpt>
      <trkpt lat="48.53387" lon="2.049">
        <ele>96</ele>
        <time>2023-12-14T12:14:35Z</time>
      </trkpt>
      <trkpt lat="48.53389" lon="2.04904">
        <ele>96.8</ele>
        <time>2023-12-14T12:14:36Z</time>
      </trkpt>
      <trkpt lat="48.53391" lon="2.04907">
        <ele>96.8</ele>
        <time>2023-12-14T12:14:37Z</time>
      </trkpt>
      <trkpt lat="48.53393" lon="2.0491">
        <ele>96.8</ele>
        <time>2023-12-14T12:14:38Z</time>
      </trkpt>
      <trkpt lat="48.53395" lon="2.04914">
        <ele>96.8</ele>
        <time>2023-12-14T12:14:39Z</time>
      </trkpt>
      <trkpt lat="48.53397" lon="2.04918">
        <ele>97.4</ele>
        <time>2023-12-14T12:14:40Z</time>
      </trkpt>
      <trkpt lat="48.53399" lon="2.04921">
        <ele>97.6</ele>
        <time>2023-12-14T12:14:41Z</time>
      </trkpt>
      <trkpt lat="48.534" lon="2.04925">
        <ele>97.6</ele>
        <time>2023-12-14T12:14:42Z</time>
      </trkpt>
      <trkpt lat="48.53402" lon="2.04929">
        <ele>97.6</ele>
        <time>2023-12-14T12:14:43Z</time>
      </trkpt>
      <trkpt lat="48.53404" lon="2.04932">
        <ele>98.2</ele>
        <time>2023-12-14T12:14:44Z</time>
      </trkpt>
      <trkpt lat="48.53405" lon="2.04936">
        <ele>98.4</ele>
        <time>2023-12-14T12:14:45Z</time>
      </trkpt>
      <trkpt lat="48.53407" lon="2.0494">
        <ele>98.4</ele>
        <time>2023-12-14T12:14:46Z</time>
      </trkpt>
      <trkpt lat="48.53408" lon="2.04944">
        <ele>98.4</ele>
        <time>2023-12-14T12:14:47Z</time>
      </trkpt>
      <trkpt lat="48.53409" lon="2.04948">
        <ele>98.4</ele>
        <time>2023-12-14T12:14:48Z</time>
      </trkpt>
      <trkpt lat="48.5341" lon="2.04953">
        <ele>98.8</ele>
        <time>2023-12-14T12:14:49Z</time>
      </trkpt>
      <trkpt lat="48.53412" lon="2.04957">
        <ele>98.8</ele>
        <time>2023-12-14T12:14:50Z</time>
      </trkpt>
      <trkpt lat="48.53413" lon="2.04961">
        <ele>98.8</ele>
        <time>2023-12-14T12:14:51Z</time>
      </trkpt>
      <trkpt lat="48.53413" lon="2.04965">
        <ele>99.6</ele>
        <time>2023-12-14T12:14:52Z</time>
      </trkpt>
      <trkpt lat="48.53414" lon="2.04969">
        <ele>99.8</ele>
        <time>2023-12-14T12:14:53Z</time>
      </trkpt>
      <trkpt lat="48.53415" lon="2.04973">
        <ele>99.8</ele>
        <time>2023-12-14T12:14:54Z</time>
      </trkpt>
      <trkpt lat="48.53415" lon="2.04977">
        <ele>99.8</ele>
        <time>2023-12-14T12:14:55Z</time>
      </trkpt>
      <trkpt lat="48.53416" lon="2.04982">
        <ele>99.8</ele>
        <time>2023-12-14T12:14:56Z</time>
      </trkpt>
      <trkpt lat="48.53416" lon="2.04986">
        <ele>101</ele>
        <time>2023-12-14T12:14:57Z</time>
      </trkpt>
      <trkpt lat="48.53417" lon="2.0499">
        <ele>101</ele>
        <time>2023-12-14T12:14:58Z</time>
      </trkpt>
      <trkpt lat="48.53417" lon="2.04994">
        <ele>101</ele>
        <time>2023-12-14T12:14:59Z</time>
      </trkpt>
      <trkpt lat="48.53417" lon="2.04999">
        <ele>101.4</ele>
        <time>2023-12-14T12:15:00Z</time>
      </trkpt>
      <trkpt lat="48.53417" lon="2.05003">
        <ele>101.8</ele>
        <time>2023-12-14T12:15:01Z</time>
      </trkpt>
      <trkpt lat="48.53418" lon="2.05007">
        <ele>101.8</ele>
        <time>2023-12-14T12:15:02Z</time>
      </trkpt>
      <trkpt lat="48.53418" lon="2.05012">
        <ele>101.8</ele>
        <time>2023-12-14T12:15:03Z</time>
      </trkpt>
      <trkpt lat="48.53418" lon="2.05016">
        <ele>102.8</ele>
        <time>2023-12-14T12:15:04Z</time>
      </trkpt>
      <trkpt lat="48.53418" lon="2.05021">
        <ele>102.6</ele>
        <time>2023-12-14T12:15:05Z</time>
      </trkpt>
      <trkpt lat="48.53419" lon="2.05025">
        <ele>102.6</ele>
        <time>2023-12-14T12:15:06Z</time>
      </trkpt>
      <trkpt lat="48.53419" lon="2.0503">
        <ele>102.6</ele>
        <time>2023-12-14T12:15:07Z</time>
      </trkpt>
      <trkpt lat="48.53419" lon="2.05034">
        <ele>103.2</ele>
        <time>2023-12-14T12:15:08Z</time>
      </trkpt>
      <trkpt lat="48.53419" lon="2.05039">
        <ele>103.2</ele>
        <time>2023-12-14T12:15:09Z</time>
      </trkpt>
      <trkpt lat="48.5342" lon="2.05043">
        <ele>103.2</ele>
        <time>2023-12-14T12:15:10Z</time>
      </trkpt>
      <trkpt lat="48.5342" lon="2.05048">
        <ele>103.2</ele>
        <time>2023-12-14T12:15:11Z</time>
      </trkpt>
      <trkpt lat="48.5342" lon="2.05052">
        <ele>104.2</ele>
        <time>2023-12-14T12:15:12Z</time>
      </trkpt>
      <trkpt lat="48.5342" lon="2.05057">
        <ele>104.2</ele>
        <time>2023-12-14T12:15:13Z</time>
      </trkpt>
      <trkpt lat="48.5342" lon="2.05061">
        <ele>104.2</ele>
        <time>2023-12-14T12:15:14Z</time>
      </trkpt>
      <trkpt lat="48.53421" lon="2.05066">
        <ele>104.2</ele>
        <time>2023-12-14T12:15:15Z</time>
      </trkpt>
      <trkpt lat="48.53421" lon="2.05071">
        <ele>104.4</ele>
        <time>2023-12-14T12:15:16Z</time>
      </trkpt>
      <trkpt lat="48.53421" lon="2.05075">
        <ele>104.8</ele>
        <time>2023-12-14T12:15:17Z</time>
      </trkpt>
      <trkpt lat="48.53421" lon="2.0508">
        <ele>104.8</ele>
        <time>2023-12-14T12:15:18Z</time>
      </trkpt>
      <trkpt lat="48.53421" lon="2.05084">
        <ele>104.8</ele>
        <time>2023-12-14T12:15:19Z</time>
      </trkpt>
      <trkpt lat="48.53421" lon="2.05089">
        <ele>104.8</ele>
        <time>2023-12-14T12:15:20Z</time>
      </trkpt>
      <trkpt lat="48.53422" lon="2.05094">
        <ele>105.6</ele>
        <time>2023-12-14T12:15:21Z</time>
      </trkpt>
      <trkpt lat="48.53422" lon="2.05098">
        <ele>105.6</ele>
        <time>2023-12-14T12:15:22Z</time>
      </trkpt>
      <trkpt lat="48.53422" lon="2.05103">
        <ele>105.6</ele>
        <time>2023-12-14T12:15:23Z</time>
      </trkpt>
      <trkpt lat="48.53422" lon="2.05108">
        <ele>106.6</ele>
        <time>2023-12-14T12:15:24Z</time>
      </trkpt>
      <trkpt lat="48.53422" lon="2.05112">
        <ele>106.6</ele>
        <time>2023-12-14T12:15:25Z</time>
      </trkpt>
      <trkpt lat="48.53423" lon="2.05117">
        <ele>106.6</ele>
        <time>2023-12-14T12:15:26Z</time>
      </trkpt>
      <trkpt lat="48.53423" lon="2.05121">
        <ele>106.6</ele>
        <time>2023-12-14T12:15:27Z</time>
      </trkpt>
      <trkpt lat="48.53423" lon="2.05126">
        <ele>106.6</ele>
        <time>2023-12-14T12:15:28Z</time>
      </trkpt>
      <trkpt lat="48.53424" lon="2.05131">
        <ele>107.4</ele>
        <time>2023-12-14T12:15:29Z</time>
      </trkpt>
      <trkpt lat="48.53424" lon="2.05135">
        <ele>107.4</ele>
        <time>2023-12-14T12:15:30Z</time>
      </trkpt>
      <trkpt lat="48.53425" lon="2.05139">
        <ele>107.4</ele>
        <time>2023-12-14T12:15:31Z</time>
      </trkpt>
      <trkpt lat="48.53425" lon="2.05144">
        <ele>108.2</ele>
        <time>2023-12-14T12:15:32Z</time>
      </trkpt>
      <trkpt lat="48.53426" lon="2.05148">
        <ele>108.4</ele>
        <time>2023-12-14T12:15:33Z</time>
      </trkpt>
      <trkpt lat="48.53427" lon="2.05152">
        <ele>108.4</ele>
        <time>2023-12-14T12:15:34Z</time>
      </trkpt>
      <trkpt lat="48.53428" lon="2.05157">
        <ele>108.4</ele>
        <time>2023-12-14T12:15:35Z</time>
      </trkpt>
      <trkpt lat="48.53428" lon="2.05161">
        <ele>108.8</ele>
        <time>2023-12-14T12:15:36Z</time>
      </trkpt>
      <trkpt lat="48.53429" lon="2.05166">
        <ele>109.2</ele>
        <time>2023-12-14T12:15:37Z</time>
      </trkpt>
      <trkpt lat="48.5343" lon="2.0517">
        <ele>109.2</ele>
        <time>2023-12-14T12:15:38Z</time>
      </trkpt>
      <trkpt lat="48.53431" lon="2.05175">
        <ele>109.2</ele>
        <time>2023-12-14T12:15:39Z</time>
      </trkpt>
      <trkpt lat="48.53433" lon="2.05179">
        <ele>109.8</ele>
        <time>2023-12-14T12:15:40Z</time>
      </trkpt>
      <trkpt lat="48.53434" lon="2.05183">
        <ele>110.2</ele>
        <time>2023-12-14T12:15:41Z</time>
      </trkpt>
      <trkpt lat="48.53435" lon="2.05188">
        <ele>110.2</ele>
        <time>2023-12-14T12:15:42Z</time>
      </trkpt>
      <trkpt lat="48.53437" lon="2.05192">
        <ele>110.2</ele>
        <time>2023-12-14T12:15:43Z</time>
      </trkpt>
      <trkpt lat="48.53438" lon="2.05196">
        <ele>110.2</ele>
        <time>2023-12-14T12:15:44Z</time>
      </trkpt>
      <trkpt lat="48.5344" lon="2.052">
        <ele>110.4</ele>
        <time>2023-12-14T12:15:45Z</time>
      </trkpt>
      <trkpt lat="48.53441" lon="2.05204">
        <ele>110.4</ele>
        <time>2023-12-14T12:15:46Z</time>
      </trkpt>
      <trkpt lat="48.53443" lon="2.05208">
        <ele>110.4</ele>
        <time>2023-12-14T12:15:47Z</time>
      </trkpt>
      <trkpt lat="48.53444" lon="2.05212">
        <ele>111</ele>
        <time>2023-12-14T12:15:48Z</time>
      </trkpt>
      <trkpt lat="48.53446" lon="2.05216">
        <ele>111.4</ele>
        <time>2023-12-14T12:15:49Z</time>
      </trkpt>
      <trkpt lat="48.53447" lon="2.05221">
        <ele>111.4</ele>
        <time>2023-12-14T12:15:50Z</time>
      </trkpt>
      <trkpt lat="48.53449" lon="2.05225">
        <ele>111.4</ele>
        <time>2023-12-14T12:15:51Z</time>
      </trkpt>
      <trkpt lat="48.53451" lon="2.05229">
        <ele>112.2</ele>
        <time>2023-12-14T12:15:52Z</time>
      </trkpt>
      <trkpt lat="48.53452" lon="2.05232">
        <ele>112.2</ele>
        <time>2023-12-14T12:15:53Z</time>
      </trkpt>
      <trkpt lat="48.53454" lon="2.05236">
        <ele>112.2</ele>
        <time>2023-12-14T12:15:54Z</time>
      </trkpt>
      <trkpt lat="48.53455" lon="2.0524">
        <ele>112.2</ele>
        <time>2023-12-14T12:15:55Z</time>
      </trkpt>
      <trkpt lat="48.53457" lon="2.05244">
        <ele>113</ele>
        <time>2023-12-14T12:15:56Z</time>
      </trkpt>
      <trkpt lat="48.53459" lon="2.05248">
        <ele>113.2</ele>
        <time>2023-12-14T12:15:57Z</time>
      </trkpt>
      <trkpt lat="48.5346" lon="2.05252">
        <ele>113.2</ele>
        <time>2023-12-14T12:15:58Z</time>
      </trkpt>
      <trkpt lat="48.53461" lon="2.05256">
        <ele>113.2</ele>
        <time>2023-12-14T12:15:59Z</time>
      </trkpt>
      <trkpt lat="48.53463" lon="2.0526">
        <ele>113.2</ele>
        <time>2023-12-14T12:16:00Z</time>
      </trkpt>
      <trkpt lat="48.53464" lon="2.05265">
        <ele>113.8</ele>
        <time>2023-12-14T12:16:01Z</time>
      </trkpt>
      <trkpt lat="48.53466" lon="2.05269">
        <ele>113.8</ele>
        <time>2023-12-14T12:16:02Z</time>
      </trkpt>
      <trkpt lat="48.53467" lon="2.05272">
        <ele>113.8</ele>
        <time>2023-12-14T12:16:03Z</time>
      </trkpt>
      <trkpt lat="48.53469" lon="2.05276">
        <ele>114.8</ele>
        <time>2023-12-14T12:16:04Z</time>
      </trkpt>
      <trkpt lat="48.53471" lon="2.0528">
        <ele>114.6</ele>
        <time>2023-12-14T12:16:05Z</time>
      </trkpt>
      <trkpt lat="48.53473" lon="2.05284">
        <ele>114.6</ele>
        <time>2023-12-14T12:16:06Z</time>
      </trkpt>
      <trkpt lat="48.53474" lon="2.05288">
        <ele>114.6</ele>
        <time>2023-12-14T12:16:07Z</time>
      </trkpt>
      <trkpt lat="48.53476" lon="2.05292">
        <ele>114.6</ele>
        <time>2023-12-14T12:16:08Z</time>
      </trkpt>
      <trkpt lat="48.53478" lon="2.05295">
        <ele>115.4</ele>
        <time>2023-12-14T12:16:09Z</time>
      </trkpt>
      <trkpt lat="48.5348" lon="2.05298">
        <ele>115.4</ele>
        <time>2023-12-14T12:16:10Z</time>
      </trkpt>
      <trkpt lat="48.53482" lon="2.05301">
        <ele>115.4</ele>
        <time>2023-12-14T12:16:11Z</time>
      </trkpt>
      <trkpt lat="48.53485" lon="2.05304">
        <ele>115.4</ele>
        <time>2023-12-14T12:16:12Z</time>
      </trkpt>
      <trkpt lat="48.53487" lon="2.05306">
        <ele>115.6</ele>
        <time>2023-12-14T12:16:13Z</time>
      </trkpt>
      <trkpt lat="48.5349" lon="2.05308">
        <ele>115.6</ele>
        <time>2023-12-14T12:16:14Z</time>
      </trkpt>
      <trkpt lat="48.53492" lon="2.0531">
        <ele>115.6</ele>
        <time>2023-12-14T12:16:15Z</time>
      </trkpt>
      <trkpt lat="48.53495" lon="2.05311">
        <ele>116.6</ele>
        <time>2023-12-14T12:16:16Z</time>
      </trkpt>
      <trkpt lat="48.53498" lon="2.05312">
        <ele>116.8</ele>
        <time>2023-12-14T12:16:17Z</time>
      </trkpt>
      <trkpt lat="48.53501" lon="2.05313">
        <ele>116.8</ele>
        <time>2023-12-14T12:16:18Z</time>
      </trkpt>
      <trkpt lat="48.53504" lon="2.05313">
        <ele>116.8</ele>
        <time>2023-12-14T12:16:19Z</time>
      </trkpt>
      <trkpt lat="48.53507" lon="2.05312">
        <ele>117.2</ele>
        <time>2023-12-14T12:16:20Z</time>
      </trkpt>
      <trkpt lat="48.5351" lon="2.05311">
        <ele>117.2</ele>
        <time>2023-12-14T12:16:21Z</time>
      </trkpt>
      <trkpt lat="48.53513" lon="2.05309">
        <ele>117.2</ele>
        <time>2023-12-14T12:16:22Z</time>
      </trkpt>
      <trkpt lat="48.53516" lon="2.05308">
        <ele>117.2</ele>
        <time>2023-12-14T12:16:23Z</time>
      </trkpt>
      <trkpt lat="48.53518" lon="2.05306">
        <ele>117.2</ele>
        <time>2023-12-14T12:16:24Z</time>
      </trkpt>
      <trkpt lat="48.53521" lon="2.05304">
        <ele>117.8</ele>
        <time>2023-12-14T12:16:25Z</time>
      </trkpt>
      <trkpt lat="48.53523" lon="2.05302">
        <ele>117.8</ele>
        <time>2023-12-14T12:16:26Z</time>
      </trkpt>
      <trkpt lat="48.53526" lon="2.053">
        <ele>117.8</ele>
        <time>2023-12-14T12:16:27Z</time>
      </trkpt>
      <trkpt lat="48.53528" lon="2.05297">
        <ele>118.2</ele>
        <time>2023-12-14T12:16:28Z</time>
      </trkpt>
      <trkpt lat="48.53529" lon="2.05293">
        <ele>118.4</ele>
        <time>2023-12-14T12:16:29Z</time>
      </trkpt>
      <trkpt lat="48.53531" lon="2.05289">
        <ele>118.4</ele>
        <time>2023-12-14T12:16:30Z</time>
      </trkpt>
      <trkpt lat="48.53532" lon="2.05285">
        <ele>118.4</ele>
        <time>2023-12-14T12:16:31Z</time>
      </trkpt>
      <trkpt lat="48.53533" lon="2.05281">
        <ele>118.4</ele>
        <time>2023-12-14T12:16:32Z</time>
      </trkpt>
      <trkpt lat="48.53533" lon="2.05276">
        <ele>119.2</ele>
        <time>2023-12-14T12:16:33Z</time>
      </trkpt>
      <trkpt lat="48.53534" lon="2.05272">
        <ele>119.2</ele>
        <time>2023-12-14T12:16:34Z</time>
      </trkpt>
      <trkpt lat="48.53534" lon="2.05268">
        <ele>119.2</ele>
        <time>2023-12-14T12:16:35Z</time>
      </trkpt>
      <trkpt lat="48.53533" lon="2.05264">
        <ele>119.2</ele>
        <time>2023-12-14T12:16:36Z</time>
      </trkpt>
      <trkpt lat="48.53533" lon="2.0526">
        <ele>119.2</ele>
        <time>2023-12-14T12:16:37Z</time>
      </trkpt>
      <trkpt lat="48.53532" lon="2.05256">
        <ele>119.2</ele>
        <time>2023-12-14T12:16:38Z</time>
      </trkpt>
      <trkpt lat="48.53531" lon="2.05251">
        <ele>119.2</ele>
        <time>2023-12-14T12:16:39Z</time>
      </trkpt>
      <trkpt lat="48.53531" lon="2.05246">
        <ele>119.6</ele>
        <time>2023-12-14T12:16:40Z</time>
      </trkpt>
      <trkpt lat="48.5353" lon="2.05241">
        <ele>120.4</ele>
        <time>2023-12-14T12:16:41Z</time>
      </trkpt>
      <trkpt lat="48.53529" lon="2.05236">
        <ele>120.4</ele>
        <time>2023-12-14T12:16:42Z</time>
      </trkpt>
      <trkpt lat="48.53528" lon="2.05231">
        <ele>120.4</ele>
        <time>2023-12-14T12:16:43Z</time>
      </trkpt>
      <trkpt lat="48.53527" lon="2.05225">
        <ele>120.2</ele>
        <time>2023-12-14T12:16:44Z</time>
      </trkpt>
      <trkpt lat="48.53525" lon="2.0522">
        <ele>121.2</ele>
        <time>2023-12-14T12:16:45Z</time>
      </trkpt>
      <trkpt lat="48.53524" lon="2.05215">
        <ele>121.2</ele>
        <time>2023-12-14T12:16:46Z</time>
      </trkpt>
      <trkpt lat="48.53523" lon="2.05209">
        <ele>121.2</ele>
        <time>2023-12-14T12:16:47Z</time>
      </trkpt>
      <trkpt lat="48.53522" lon="2.05204">
        <ele>121.2</ele>
        <time>2023-12-14T12:16:48Z</time>
      </trkpt>
      <trkpt lat="48.5352" lon="2.05199">
        <ele>121.6</ele>
        <time>2023-12-14T12:16:49Z</time>
      </trkpt>
      <trkpt lat="48.53519" lon="2.05194">
        <ele>121.6</ele>
        <time>2023-12-14T12:16:50Z</time>
      </trkpt>
      <trkpt lat="48.53517" lon="2.05189">
        <ele>121.6</ele>
        <time>2023-12-14T12:16:51Z</time>
      </trkpt>
      <trkpt lat="48.53516" lon="2.05184">
        <ele>121.6</ele>
        <time>2023-12-14T12:16:52Z</time>
      </trkpt>
      <trkpt lat="48.53515" lon="2.05179">
        <ele>121.4</ele>
        <time>2023-12-14T12:16:53Z</time>
      </trkpt>
      <trkpt lat="48.53513" lon="2.05174">
        <ele>121.4</ele>
        <time>2023-12-14T12:16:54Z</time>
      </trkpt>
      <trkpt lat="48.53512" lon="2.05169">
        <ele>121.4</ele>
        <time>2023-12-14T12:16:55Z</time>
      </trkpt>
      <trkpt lat="48.53511" lon="2.05164">
        <ele>121.4</ele>
        <time>2023-12-14T12:16:56Z</time>
      </trkpt>
      <trkpt lat="48.5351" lon="2.05159">
        <ele>122.2</ele>
        <time>2023-12-14T12:16:57Z</time>
      </trkpt>
      <trkpt lat="48.53509" lon="2.05154">
        <ele>122.2</ele>
        <time>2023-12-14T12:16:58Z</time>
      </trkpt>
      <trkpt lat="48.53509" lon="2.05148">
        <ele>122.2</ele>
        <time>2023-12-14T12:16:59Z</time>
      </trkpt>
      <trkpt lat="48.53509" lon="2.05143">
        <ele>122.6</ele>
        <time>2023-12-14T12:17:00Z</time>
      </trkpt>
      <trkpt lat="48.53509" lon="2.05138">
        <ele>123</ele>
        <time>2023-12-14T12:17:01Z</time>
      </trkpt>
      <trkpt lat="48.5351" lon="2.05132">
        <ele>123</ele>
        <time>2023-12-14T12:17:02Z</time>
      </trkpt>
      <trkpt lat="48.53511" lon="2.05127">
        <ele>123</ele>
        <time>2023-12-14T12:17:03Z</time>
      </trkpt>
      <trkpt lat="48.53513" lon="2.05123">
        <ele>122.6</ele>
        <time>2023-12-14T12:17:04Z</time>
      </trkpt>
      <trkpt lat="48.53515" lon="2.05118">
        <ele>122.8</ele>
        <time>2023-12-14T12:17:05Z</time>
      </trkpt>
      <trkpt lat="48.53516" lon="2.05114">
        <ele>122.8</ele>
        <time>2023-12-14T12:17:06Z</time>
      </trkpt>
      <trkpt lat="48.53518" lon="2.0511">
        <ele>122.8</ele>
        <time>2023-12-14T12:17:07Z</time>
      </trkpt>
      <trkpt lat="48.5352" lon="2.05105">
        <ele>123.8</ele>
        <time>2023-12-14T12:17:08Z</time>
      </trkpt>
      <trkpt lat="48.53522" lon="2.05101">
        <ele>124.2</ele>
        <time>2023-12-14T12:17:09Z</time>
      </trkpt>
      <trkpt lat="48.53524" lon="2.05097">
        <ele>124.2</ele>
        <time>2023-12-14T12:17:10Z</time>
      </trkpt>
      <trkpt lat="48.53526" lon="2.05094">
        <ele>124.2</ele>
        <time>2023-12-14T12:17:11Z</time>
      </trkpt>
      <trkpt lat="48.53528" lon="2.05091">
        <ele>124.4</ele>
        <time>2023-12-14T12:17:12Z</time>
      </trkpt>
      <trkpt lat="48.5353" lon="2.05087">
        <ele>124.4</ele>
        <time>2023-12-14T12:17:13Z</time>
      </trkpt>
      <trkpt lat="48.53532" lon="2.05084">
        <ele>124.4</ele>
        <time>2023-12-14T12:17:14Z</time>
      </trkpt>
      <trkpt lat="48.53535" lon="2.05081">
        <ele>124.4</ele>
        <time>2023-12-14T12:17:15Z</time>
      </trkpt>
      <trkpt lat="48.53537" lon="2.05078">
        <ele>125.4</ele>
        <time>2023-12-14T12:17:16Z</time>
      </trkpt>
      <trkpt lat="48.53539" lon="2.05074">
        <ele>125.6</ele>
        <time>2023-12-14T12:17:17Z</time>
      </trkpt>
      <trkpt lat="48.53542" lon="2.05071">
        <ele>125.6</ele>
        <time>2023-12-14T12:17:18Z</time>
      </trkpt>
      <trkpt lat="48.53544" lon="2.05067">
        <ele>125.6</ele>
        <time>2023-12-14T12:17:19Z</time>
      </trkpt>
      <trkpt lat="48.53547" lon="2.05064">
        <ele>126</ele>
        <time>2023-12-14T12:17:20Z</time>
      </trkpt>
      <trkpt lat="48.53549" lon="2.05061">
        <ele>126.6</ele>
        <time>2023-12-14T12:17:21Z</time>
      </trkpt>
      <trkpt lat="48.53552" lon="2.05058">
        <ele>126.6</ele>
        <time>2023-12-14T12:17:22Z</time>
      </trkpt>
      <trkpt lat="48.53555" lon="2.05055">
        <ele>126.6</ele>
        <time>2023-12-14T12:17:23Z</time>
      </trkpt>
      <trkpt lat="48.53557" lon="2.05053">
        <ele>127.4</ele>
        <time>2023-12-14T12:17:24Z</time>
      </trkpt>
      <trkpt lat="48.5356" lon="2.05052">
        <ele>128</ele>
        <time>2023-12-14T12:17:25Z</time>
      </trkpt>
      <trkpt lat="48.53563" lon="2.05049">
        <ele>128</ele>
        <time>2023-12-14T12:17:26Z</time>
      </trkpt>
      <trkpt lat="48.53565" lon="2.05045">
        <ele>128</ele>
        <time>2023-12-14T12:17:27Z</time>
      </trkpt>
      <trkpt lat="48.53568" lon="2.05043">
        <ele>128</ele>
        <time>2023-12-14T12:17:28Z</time>
      </trkpt>
      <trkpt lat="48.53571" lon="2.0504">
        <ele>128.4</ele>
        <time>2023-12-14T12:17:29Z</time>
      </trkpt>
      <trkpt lat="48.53574" lon="2.05037">
        <ele>128.4</ele>
        <time>2023-12-14T12:17:30Z</time>
      </trkpt>
      <trkpt lat="48.53576" lon="2.05035">
        <ele>128.4</ele>
        <time>2023-12-14T12:17:31Z</time>
      </trkpt>
      <trkpt lat="48.53579" lon="2.05032">
        <ele>128.2</ele>
        <time>2023-12-14T12:17:32Z</time>
      </trkpt>
      <trkpt lat="48.53582" lon="2.05029">
        <ele>128.8</ele>
        <time>2023-12-14T12:17:33Z</time>
      </trkpt>
      <trkpt lat="48.53585" lon="2.05026">
        <ele>128.8</ele>
        <time>2023-12-14T12:17:34Z</time>
      </trkpt>
      <trkpt lat="48.53587" lon="2.05024">
        <ele>128.8</ele>
        <time>2023-12-14T12:17:35Z</time>
      </trkpt>
      <trkpt lat="48.5359" lon="2.0502">
        <ele>129.8</ele>
        <time>2023-12-14T12:17:36Z</time>
      </trkpt>
      <trkpt lat="48.53593" lon="2.05017">
        <ele>130</ele>
        <time>2023-12-14T12:17:37Z</time>
      </trkpt>
      <trkpt lat="48.53595" lon="2.05013">
        <ele>130</ele>
        <time>2023-12-14T12:17:38Z</time>
      </trkpt>
      <trkpt lat="48.53598" lon="2.0501">
        <ele>130</ele>
        <time>2023-12-14T12:17:39Z</time>
      </trkpt>
      <trkpt lat="48.53601" lon="2.05007">
        <ele>130.4</ele>
        <time>2023-12-14T12:17:40Z</time>
      </trkpt>
      <trkpt lat="48.53604" lon="2.05006">
        <ele>130.2</ele>
        <time>2023-12-14T12:17:41Z</time>
      </trkpt>
      <trkpt lat="48.53607" lon="2.05004">
        <ele>130.2</ele>
        <time>2023-12-14T12:17:42Z</time>
      </trkpt>
      <trkpt lat="48.5361" lon="2.05003">
        <ele>130.2</ele>
        <time>2023-12-14T12:17:43Z</time>
      </trkpt>
      <trkpt lat="48.53613" lon="2.05004">
        <ele>130.2</ele>
        <time>2023-12-14T12:17:44Z</time>
      </trkpt>
      <trkpt lat="48.53617" lon="2.05005">
        <ele>130.6</ele>
        <time>2023-12-14T12:17:45Z</time>
      </trkpt>
      <trkpt lat="48.5362" lon="2.05006">
        <ele>130.6</ele>
        <time>2023-12-14T12:17:46Z</time>
      </trkpt>
      <trkpt lat="48.53623" lon="2.05007">
        <ele>130.6</ele>
        <time>2023-12-14T12:17:47Z</time>
      </trkpt>
      <trkpt lat="48.53627" lon="2.05008">
        <ele>130.6</ele>
        <time>2023-12-14T12:17:48Z</time>
      </trkpt>
      <trkpt lat="48.5363" lon="2.05009">
        <ele>130.6</ele>
        <time>2023-12-14T12:17:49Z</time>
      </trkpt>
      <trkpt lat="48.53634" lon="2.05012">
        <ele>130.6</ele>
        <time>2023-12-14T12:17:50Z</time>
      </trkpt>
      <trkpt lat="48.53638" lon="2.05013">
        <ele>130.6</ele>
        <time>2023-12-14T12:17:51Z</time>
      </trkpt>
      <trkpt lat="48.53642" lon="2.05015">
        <ele>129.6</ele>
        <time>2023-12-14T12:17:52Z</time>
      </trkpt>
      <trkpt lat="48.53648" lon="2.05017">
        <ele>128.4</ele>
        <time>2023-12-14T12:17:53Z</time>
      </trkpt>
      <trkpt lat="48.53654" lon="2.05018">
        <ele>128.4</ele>
        <time>2023-12-14T12:17:54Z</time>
      </trkpt>
      <trkpt lat="48.53659" lon="2.05019">
        <ele>128.4</ele>
        <time>2023-12-14T12:17:55Z</time>
      </trkpt>
      <trkpt lat="48.53665" lon="2.05019">
        <ele>128.4</ele>
        <time>2023-12-14T12:17:56Z</time>
      </trkpt>
      <trkpt lat="48.5367" lon="2.05019">
        <ele>127.6</ele>
        <time>2023-12-14T12:17:57Z</time>
      </trkpt>
      <trkpt lat="48.53675" lon="2.05019">
        <ele>127.6</ele>
        <time>2023-12-14T12:17:58Z</time>
      </trkpt>
      <trkpt lat="48.5368" lon="2.05018">
        <ele>127.6</ele>
        <time>2023-12-14T12:17:59Z</time>
      </trkpt>
      <trkpt lat="48.53685" lon="2.05018">
        <ele>128</ele>
        <time>2023-12-14T12:18:00Z</time>
      </trkpt>
      <trkpt lat="48.5369" lon="2.05017">
        <ele>128</ele>
        <time>2023-12-14T12:18:01Z</time>
      </trkpt>
      <trkpt lat="48.53695" lon="2.05016">
        <ele>128</ele>
        <time>2023-12-14T12:18:02Z</time>
      </trkpt>
      <trkpt lat="48.537" lon="2.05015">
        <ele>128</ele>
        <time>2023-12-14T12:18:03Z</time>
      </trkpt>
      <trkpt lat="48.53705" lon="2.05015">
        <ele>128.6</ele>
        <time>2023-12-14T12:18:04Z</time>
      </trkpt>
      <trkpt lat="48.53709" lon="2.05014">
        <ele>128.6</ele>
        <time>2023-12-14T12:18:05Z</time>
      </trkpt>
      <trkpt lat="48.53714" lon="2.05013">
        <ele>128.6</ele>
        <time>2023-12-14T12:18:06Z</time>
      </trkpt>
      <trkpt lat="48.53719" lon="2.05012">
        <ele>128.6</ele>
        <time>2023-12-14T12:18:07Z</time>
      </trkpt>
      <trkpt lat="48.53723" lon="2.05012">
        <ele>128.6</ele>
        <time>2023-12-14T12:18:08Z</time>
      </trkpt>
      <trkpt lat="48.53728" lon="2.05011">
        <ele>128.2</ele>
        <time>2023-12-14T12:18:09Z</time>
      </trkpt>
      <trkpt lat="48.53732" lon="2.05011">
        <ele>128.2</ele>
        <time>2023-12-14T12:18:10Z</time>
      </trkpt>
      <trkpt lat="48.53736" lon="2.05011">
        <ele>128.2</ele>
        <time>2023-12-14T12:18:11Z</time>
      </trkpt>
      <trkpt lat="48.53741" lon="2.05011">
        <ele>129.2</ele>
        <time>2023-12-14T12:18:12Z</time>
      </trkpt>
      <trkpt lat="48.53745" lon="2.05011">
        <ele>129.4</ele>
        <time>2023-12-14T12:18:13Z</time>
      </trkpt>
      <trkpt lat="48.53749" lon="2.05011">
        <ele>129.4</ele>
        <time>2023-12-14T12:18:14Z</time>
      </trkpt>
      <trkpt lat="48.53753" lon="2.05013">
        <ele>129.4</ele>
        <time>2023-12-14T12:18:15Z</time>
      </trkpt>
      <trkpt lat="48.53757" lon="2.05014">
        <ele>129.4</ele>
        <time>2023-12-14T12:18:16Z</time>
      </trkpt>
      <trkpt lat="48.53761" lon="2.05016">
        <ele>130.4</ele>
        <time>2023-12-14T12:18:17Z</time>
      </trkpt>
      <trkpt lat="48.53764" lon="2.05017">
        <ele>130.4</ele>
        <time>2023-12-14T12:18:18Z</time>
      </trkpt>
      <trkpt lat="48.53767" lon="2.0502">
        <ele>130.4</ele>
        <time>2023-12-14T12:18:19Z</time>
      </trkpt>
      <trkpt lat="48.53769" lon="2.05022">
        <ele>131.4</ele>
        <time>2023-12-14T12:18:20Z</time>
      </trkpt>
      <trkpt lat="48.53772" lon="2.05024">
        <ele>132</ele>
        <time>2023-12-14T12:18:21Z</time>
      </trkpt>
      <trkpt lat="48.53775" lon="2.05027">
        <ele>132</ele>
        <time>2023-12-14T12:18:22Z</time>
      </trkpt>
      <trkpt lat="48.53778" lon="2.05029">
        <ele>132</ele>
        <time>2023-12-14T12:18:23Z</time>
      </trkpt>
      <trkpt lat="48.53781" lon="2.05032">
        <ele>132.8</ele>
        <time>2023-12-14T12:18:24Z</time>
      </trkpt>
      <trkpt lat="48.53784" lon="2.05035">
        <ele>133.6</ele>
        <time>2023-12-14T12:18:25Z</time>
      </trkpt>
      <trkpt lat="48.53786" lon="2.05038">
        <ele>133.6</ele>
        <time>2023-12-14T12:18:26Z</time>
      </trkpt>
      <trkpt lat="48.53788" lon="2.05041">
        <ele>133.6</ele>
        <time>2023-12-14T12:18:27Z</time>
      </trkpt>
      <trkpt lat="48.53791" lon="2.05043">
        <ele>133.8</ele>
        <time>2023-12-14T12:18:28Z</time>
      </trkpt>
      <trkpt lat="48.53793" lon="2.05047">
        <ele>134.2</ele>
        <time>2023-12-14T12:18:29Z</time>
      </trkpt>
      <trkpt lat="48.53797" lon="2.0505">
        <ele>134.2</ele>
        <time>2023-12-14T12:18:30Z</time>
      </trkpt>
      <trkpt lat="48.538" lon="2.05053">
        <ele>134.2</ele>
        <time>2023-12-14T12:18:31Z</time>
      </trkpt>
      <trkpt lat="48.53803" lon="2.05056">
        <ele>134.2</ele>
        <time>2023-12-14T12:18:32Z</time>
      </trkpt>
      <trkpt lat="48.53807" lon="2.05059">
        <ele>135</ele>
        <time>2023-12-14T12:18:33Z</time>
      </trkpt>
      <trkpt lat="48.5381" lon="2.05062">
        <ele>135</ele>
        <time>2023-12-14T12:18:34Z</time>
      </trkpt>
      <trkpt lat="48.53813" lon="2.05065">
        <ele>135</ele>
        <time>2023-12-14T12:18:35Z</time>
      </trkpt>
      <trkpt lat="48.53817" lon="2.05068">
        <ele>135.2</ele>
        <time>2023-12-14T12:18:36Z</time>
      </trkpt>
      <trkpt lat="48.5382" lon="2.0507">
        <ele>135.8</ele>
        <time>2023-12-14T12:18:37Z</time>
      </trkpt>
      <trkpt lat="48.53823" lon="2.05073">
        <ele>135.8</ele>
        <time>2023-12-14T12:18:38Z</time>
      </trkpt>
      <trkpt lat="48.53826" lon="2.05076">
        <ele>135.8</ele>
        <time>2023-12-14T12:18:39Z</time>
      </trkpt>
      <trkpt lat="48.53829" lon="2.05079">
        <ele>136</ele>
        <time>2023-12-14T12:18:40Z</time>
      </trkpt>
      <trkpt lat="48.53832" lon="2.05082">
        <ele>136.6</ele>
        <time>2023-12-14T12:18:41Z</time>
      </trkpt>
      <trkpt lat="48.53835" lon="2.05085">
        <ele>136.6</ele>
        <time>2023-12-14T12:18:42Z</time>
      </trkpt>
      <trkpt lat="48.53838" lon="2.05088">
        <ele>136.6</ele>
        <time>2023-12-14T12:18:43Z</time>
      </trkpt>
      <trkpt lat="48.53842" lon="2.05092">
        <ele>136.6</ele>
        <time>2023-12-14T12:18:44Z</time>
      </trkpt>
      <trkpt lat="48.53845" lon="2.05095">
        <ele>137</ele>
        <time>2023-12-14T12:18:45Z</time>
      </trkpt>
      <trkpt lat="48.53849" lon="2.05099">
        <ele>137</ele>
        <time>2023-12-14T12:18:46Z</time>
      </trkpt>
      <trkpt lat="48.53853" lon="2.05102">
        <ele>137</ele>
        <time>2023-12-14T12:18:47Z</time>
      </trkpt>
      <trkpt lat="48.53856" lon="2.05105">
        <ele>137.4</ele>
        <time>2023-12-14T12:18:48Z</time>
      </trkpt>
      <trkpt lat="48.5386" lon="2.05109">
        <ele>137.4</ele>
        <time>2023-12-14T12:18:49Z</time>
      </trkpt>
      <trkpt lat="48.53863" lon="2.05112">
        <ele>137.4</ele>
        <time>2023-12-14T12:18:50Z</time>
      </trkpt>
      <trkpt lat="48.53867" lon="2.05115">
        <ele>137.4</ele>
        <time>2023-12-14T12:18:51Z</time>
      </trkpt>
      <trkpt lat="48.53871" lon="2.05117">
        <ele>138.4</ele>
        <time>2023-12-14T12:18:52Z</time>
      </trkpt>
      <trkpt lat="48.53874" lon="2.05119">
        <ele>139.2</ele>
        <time>2023-12-14T12:18:53Z</time>
      </trkpt>
      <trkpt lat="48.53878" lon="2.05121">
        <ele>139.2</ele>
        <time>2023-12-14T12:18:54Z</time>
      </trkpt>
      <trkpt lat="48.53882" lon="2.05122">
        <ele>139.2</ele>
        <time>2023-12-14T12:18:55Z</time>
      </trkpt>
      <trkpt lat="48.53885" lon="2.05121">
        <ele>139.2</ele>
        <time>2023-12-14T12:18:56Z</time>
      </trkpt>
      <trkpt lat="48.53889" lon="2.05119">
        <ele>138.4</ele>
        <time>2023-12-14T12:18:57Z</time>
      </trkpt>
      <trkpt lat="48.53892" lon="2.05116">
        <ele>138.4</ele>
        <time>2023-12-14T12:18:58Z</time>
      </trkpt>
      <trkpt lat="48.53895" lon="2.05112">
        <ele>138.4</ele>
        <time>2023-12-14T12:18:59Z</time>
      </trkpt>
      <trkpt lat="48.53897" lon="2.05108">
        <ele>138.4</ele>
        <time>2023-12-14T12:19:00Z</time>
      </trkpt>
      <trkpt lat="48.539" lon="2.05103">
        <ele>138.2</ele>
        <time>2023-12-14T12:19:01Z</time>
      </trkpt>
      <trkpt lat="48.53901" lon="2.05098">
        <ele>138.2</ele>
        <time>2023-12-14T12:19:02Z</time>
      </trkpt>
      <trkpt lat="48.53903" lon="2.05092">
        <ele>138.2</ele>
        <time>2023-12-14T12:19:03Z</time>
      </trkpt>
      <trkpt lat="48.53905" lon="2.05087">
        <ele>138.2</ele>
        <time>2023-12-14T12:19:04Z</time>
      </trkpt>
      <trkpt lat="48.53907" lon="2.05081">
        <ele>137.6</ele>
        <time>2023-12-14T12:19:05Z</time>
      </trkpt>
      <trkpt lat="48.53908" lon="2.05075">
        <ele>137.6</ele>
        <time>2023-12-14T12:19:06Z</time>
      </trkpt>
      <trkpt lat="48.5391" lon="2.05069">
        <ele>137.6</ele>
        <time>2023-12-14T12:19:07Z</time>
      </trkpt>
      <trkpt lat="48.53912" lon="2.05064">
        <ele>137.4</ele>
        <time>2023-12-14T12:19:08Z</time>
      </trkpt>
      <trkpt lat="48.53914" lon="2.05058">
        <ele>137.8</ele>
        <time>2023-12-14T12:19:09Z</time>
      </trkpt>
      <trkpt lat="48.53916" lon="2.05053">
        <ele>137.8</ele>
        <time>2023-12-14T12:19:10Z</time>
      </trkpt>
      <trkpt lat="48.53918" lon="2.05047">
        <ele>137.8</ele>
        <time>2023-12-14T12:19:11Z</time>
      </trkpt>
      <trkpt lat="48.5392" lon="2.05041">
        <ele>137.8</ele>
        <time>2023-12-14T12:19:12Z</time>
      </trkpt>
      <trkpt lat="48.53922" lon="2.05036">
        <ele>137.8</ele>
        <time>2023-12-14T12:19:13Z</time>
      </trkpt>
      <trkpt lat="48.53924" lon="2.0503">
        <ele>137.8</ele>
        <time>2023-12-14T12:19:14Z</time>
      </trkpt>
      <trkpt lat="48.53927" lon="2.05025">
        <ele>137.8</ele>
        <time>2023-12-14T12:19:15Z</time>
      </trkpt>
      <trkpt lat="48.5393" lon="2.0502">
        <ele>138</ele>
        <time>2023-12-14T12:19:16Z</time>
      </trkpt>
      <trkpt lat="48.53933" lon="2.05016">
        <ele>138.6</ele>
        <time>2023-12-14T12:19:17Z</time>
      </trkpt>
      <trkpt lat="48.53937" lon="2.05012">
        <ele>138.6</ele>
        <time>2023-12-14T12:19:18Z</time>
      </trkpt>
      <trkpt lat="48.53941" lon="2.0501">
        <ele>138.6</ele>
        <time>2023-12-14T12:19:19Z</time>
      </trkpt>
      <trkpt lat="48.53945" lon="2.05007">
        <ele>138.6</ele>
        <time>2023-12-14T12:19:20Z</time>
      </trkpt>
      <trkpt lat="48.53949" lon="2.05006">
        <ele>138.8</ele>
        <time>2023-12-14T12:19:21Z</time>
      </trkpt>
      <trkpt lat="48.53953" lon="2.05005">
        <ele>138.8</ele>
        <time>2023-12-14T12:19:22Z</time>
      </trkpt>
      <trkpt lat="48.53958" lon="2.05004">
        <ele>138.8</ele>
        <time>2023-12-14T12:19:23Z</time>
      </trkpt>
      <trkpt lat="48.53962" lon="2.05004">
        <ele>139.2</ele>
        <time>2023-12-14T12:19:24Z</time>
      </trkpt>
      <trkpt lat="48.53967" lon="2.05004">
        <ele>138.8</ele>
        <time>2023-12-14T12:19:25Z</time>
      </trkpt>
      <trkpt lat="48.53971" lon="2.05004">
        <ele>138.8</ele>
        <time>2023-12-14T12:19:26Z</time>
      </trkpt>
      <trkpt lat="48.53976" lon="2.05004">
        <ele>138.8</ele>
        <time>2023-12-14T12:19:27Z</time>
      </trkpt>
      <trkpt lat="48.5398" lon="2.05005">
        <ele>138.8</ele>
        <time>2023-12-14T12:19:28Z</time>
      </trkpt>
      <trkpt lat="48.53985" lon="2.05005">
        <ele>139.4</ele>
        <time>2023-12-14T12:19:29Z</time>
      </trkpt>
      <trkpt lat="48.53989" lon="2.05006">
        <ele>139.4</ele>
        <time>2023-12-14T12:19:30Z</time>
      </trkpt>
      <trkpt lat="48.53994" lon="2.05006">
        <ele>139.4</ele>
        <time>2023-12-14T12:19:31Z</time>
      </trkpt>
      <trkpt lat="48.53998" lon="2.05007">
        <ele>139.4</ele>
        <time>2023-12-14T12:19:32Z</time>
      </trkpt>
      <trkpt lat="48.54003" lon="2.05008">
        <ele>138.6</ele>
        <time>2023-12-14T12:19:33Z</time>
      </trkpt>
      <trkpt lat="48.54007" lon="2.05009">
        <ele>138.6</ele>
        <time>2023-12-14T12:19:34Z</time>
      </trkpt>
      <trkpt lat="48.54012" lon="2.0501">
        <ele>138.6</ele>
        <time>2023-12-14T12:19:35Z</time>
      </trkpt>
      <trkpt lat="48.54016" lon="2.0501">
        <ele>139.4</ele>
        <time>2023-12-14T12:19:36Z</time>
      </trkpt>
      <trkpt lat="48.54021" lon="2.05011">
        <ele>139.2</ele>
        <time>2023-12-14T12:19:37Z</time>
      </trkpt>
      <trkpt lat="48.54025" lon="2.05012">
        <ele>139.2</ele>
        <time>2023-12-14T12:19:38Z</time>
      </trkpt>
      <trkpt lat="48.5403" lon="2.05013">
        <ele>139.2</ele>
        <time>2023-12-14T12:19:39Z</time>
      </trkpt>
      <trkpt lat="48.54034" lon="2.05014">
        <ele>140.2</ele>
        <time>2023-12-14T12:19:40Z</time>
      </trkpt>
      <trkpt lat="48.54039" lon="2.05015">
        <ele>140</ele>
        <time>2023-12-14T12:19:41Z</time>
      </trkpt>
      <trkpt lat="48.54043" lon="2.05015">
        <ele>140</ele>
        <time>2023-12-14T12:19:42Z</time>
      </trkpt>
      <trkpt lat="48.54048" lon="2.05016">
        <ele>140</ele>
        <time>2023-12-14T12:19:43Z</time>
      </trkpt>
      <trkpt lat="48.54052" lon="2.05017">
        <ele>140</ele>
        <time>2023-12-14T12:19:44Z</time>
      </trkpt>
      <trkpt lat="48.54057" lon="2.05018">
        <ele>140.6</ele>
        <time>2023-12-14T12:19:45Z</time>
      </trkpt>
      <trkpt lat="48.54062" lon="2.05019">
        <ele>140.6</ele>
        <time>2023-12-14T12:19:46Z</time>
      </trkpt>
      <trkpt lat="48.54066" lon="2.0502">
        <ele>140.6</ele>
        <time>2023-12-14T12:19:47Z</time>
      </trkpt>
      <trkpt lat="48.54071" lon="2.05021">
        <ele>140.8</ele>
        <time>2023-12-14T12:19:48Z</time>
      </trkpt>
      <trkpt lat="48.54075" lon="2.05022">
        <ele>141</ele>
        <time>2023-12-14T12:19:49Z</time>
      </trkpt>
      <trkpt lat="48.5408" lon="2.05023">
        <ele>141</ele>
        <time>2023-12-14T12:19:50Z</time>
      </trkpt>
      <trkpt lat="48.54084" lon="2.05024">
        <ele>141</ele>
        <time>2023-12-14T12:19:51Z</time>
      </trkpt>
      <trkpt lat="48.54089" lon="2.05025">
        <ele>141</ele>
        <time>2023-12-14T12:19:52Z</time>
      </trkpt>
      <trkpt lat="48.54093" lon="2.05026">
        <ele>141.6</ele>
        <time>2023-12-14T12:19:53Z</time>
      </trkpt>
      <trkpt lat="48.54098" lon="2.05026">
        <ele>141.6</ele>
        <time>2023-12-14T12:19:54Z</time>
      </trkpt>
      <trkpt lat="48.54103" lon="2.05027">
        <ele>141.6</ele>
        <time>2023-12-14T12:19:55Z</time>
      </trkpt>
      <trkpt lat="48.54107" lon="2.05028">
        <ele>141.6</ele>
        <time>2023-12-14T12:19:56Z</time>
      </trkpt>
      <trkpt lat="48.54112" lon="2.05029">
        <ele>141.8</ele>
        <time>2023-12-14T12:19:57Z</time>
      </trkpt>
      <trkpt lat="48.54117" lon="2.05029">
        <ele>141.8</ele>
        <time>2023-12-14T12:19:58Z</time>
      </trkpt>
      <trkpt lat="48.54121" lon="2.0503">
        <ele>141.8</ele>
        <time>2023-12-14T12:19:59Z</time>
      </trkpt>
      <trkpt lat="48.54126" lon="2.05031">
        <ele>142.2</ele>
        <time>2023-12-14T12:20:00Z</time>
      </trkpt>
      <trkpt lat="48.54131" lon="2.05032">
        <ele>141.8</ele>
        <time>2023-12-14T12:20:01Z</time>
      </trkpt>
      <trkpt lat="48.54135" lon="2.05032">
        <ele>141.8</ele>
        <time>2023-12-14T12:20:02Z</time>
      </trkpt>
      <trkpt lat="48.5414" lon="2.05033">
        <ele>141.8</ele>
        <time>2023-12-14T12:20:03Z</time>
      </trkpt>
      <trkpt lat="48.54145" lon="2.05034">
        <ele>141.8</ele>
        <time>2023-12-14T12:20:04Z</time>
      </trkpt>
      <trkpt lat="48.54149" lon="2.05034">
        <ele>142.4</ele>
        <time>2023-12-14T12:20:05Z</time>
      </trkpt>
      <trkpt lat="48.54154" lon="2.05035">
        <ele>142.4</ele>
        <time>2023-12-14T12:20:06Z</time>
      </trkpt>
      <trkpt lat="48.54159" lon="2.05036">
        <ele>142.4</ele>
        <time>2023-12-14T12:20:07Z</time>
      </trkpt>
      <trkpt lat="48.54163" lon="2.05036">
        <ele>142.6</ele>
        <time>2023-12-14T12:20:08Z</time>
      </trkpt>
      <trkpt lat="48.54168" lon="2.05037">
        <ele>142.8</ele>
        <time>2023-12-14T12:20:09Z</time>
      </trkpt>
      <trkpt lat="48.54173" lon="2.05038">
        <ele>142.8</ele>
        <time>2023-12-14T12:20:10Z</time>
      </trkpt>
      <trkpt lat="48.54178" lon="2.05039">
        <ele>142.8</ele>
        <time>2023-12-14T12:20:11Z</time>
      </trkpt>
      <trkpt lat="48.54183" lon="2.0504">
        <ele>142.4</ele>
        <time>2023-12-14T12:20:12Z</time>
      </trkpt>
      <trkpt lat="48.54188" lon="2.0504">
        <ele>142.4</ele>
        <time>2023-12-14T12:20:13Z</time>
      </trkpt>
      <trkpt lat="48.54193" lon="2.05041">
        <ele>142.4</ele>
        <time>2023-12-14T12:20:14Z</time>
      </trkpt>
      <trkpt lat="48.54199" lon="2.05042">
        <ele>142.4</ele>
        <time>2023-12-14T12:20:15Z</time>
      </trkpt>
      <trkpt lat="48.54204" lon="2.05042">
        <ele>141.8</ele>
        <time>2023-12-14T12:20:16Z</time>
      </trkpt>
      <trkpt lat="48.5421" lon="2.05043">
        <ele>141.8</ele>
        <time>2023-12-14T12:20:17Z</time>
      </trkpt>
      <trkpt lat="48.54216" lon="2.05044">
        <ele>141.8</ele>
        <time>2023-12-14T12:20:18Z</time>
      </trkpt>
      <trkpt lat="48.54222" lon="2.05045">
        <ele>141.8</ele>
        <time>2023-12-14T12:20:19Z</time>
      </trkpt>
      <trkpt lat="48.54227" lon="2.05045">
        <ele>141.8</ele>
        <time>2023-12-14T12:20:20Z</time>
      </trkpt>
      <trkpt lat="48.54233" lon="2.05046">
        <ele>140.6</ele>
        <time>2023-12-14T12:20:21Z</time>
      </trkpt>
      <trkpt lat="48.54239" lon="2.05046">
        <ele>140.6</ele>
        <time>2023-12-14T12:20:22Z</time>
      </trkpt>
      <trkpt lat="48.54245" lon="2.05047">
        <ele>140.6</ele>
        <time>2023-12-14T12:20:23Z</time>
      </trkpt>
      <trkpt lat="48.54251" lon="2.05047">
        <ele>140.6</ele>
        <time>2023-12-14T12:20:24Z</time>
      </trkpt>
      <trkpt lat="48.54257" lon="2.05048">
        <ele>140.6</ele>
        <time>2023-12-14T12:20:25Z</time>
      </trkpt>
      <trkpt lat="48.54263" lon="2.05048">
        <ele>140.6</ele>
        <time>2023-12-14T12:20:26Z</time>
      </trkpt>
      <trkpt lat="48.54269" lon="2.05048">
        <ele>140.6</ele>
        <time>2023-12-14T12:20:27Z</time>
      </trkpt>
      <trkpt lat="48.54275" lon="2.05049">
        <ele>139.8</ele>
        <time>2023-12-14T12:20:28Z</time>
      </trkpt>
      <trkpt lat="48.54281" lon="2.05049">
        <ele>140.2</ele>
        <time>2023-12-14T12:20:29Z</time>
      </trkpt>
      <trkpt lat="48.54287" lon="2.05049">
        <ele>140.2</ele>
        <time>2023-12-14T12:20:30Z</time>
      </trkpt>
      <trkpt lat="48.54293" lon="2.05049">
        <ele>140.2</ele>
        <time>2023-12-14T12:20:31Z</time>
      </trkpt>
      <trkpt lat="48.54299" lon="2.05049">
        <ele>140</ele>
        <time>2023-12-14T12:20:32Z</time>
      </trkpt>
      <trkpt lat="48.54305" lon="2.05049">
        <ele>140.2</ele>
        <time>2023-12-14T12:20:33Z</time>
      </trkpt>
      <trkpt lat="48.54311" lon="2.0505">
        <ele>140.2</ele>
        <time>2023-12-14T12:20:34Z</time>
      </trkpt>
      <trkpt lat="48.54317" lon="2.0505">
        <ele>140.2</ele>
        <time>2023-12-14T12:20:35Z</time>
      </trkpt>
      <trkpt lat="48.54323" lon="2.0505">
        <ele>139.8</ele>
        <time>2023-12-14T12:20:36Z</time>
      </trkpt>
      <trkpt lat="48.54329" lon="2.0505">
        <ele>139.6</ele>
        <time>2023-12-14T12:20:37Z</time>
      </trkpt>
      <trkpt lat="48.54335" lon="2.0505">
        <ele>139.6</ele>
        <time>2023-12-14T12:20:38Z</time>
      </trkpt>
      <trkpt lat="48.54341" lon="2.05051">
        <ele>139.6</ele>
        <time>2023-12-14T12:20:39Z</time>
      </trkpt>
      <trkpt lat="48.54347" lon="2.05051">
        <ele>139.6</ele>
        <time>2023-12-14T12:20:40Z</time>
      </trkpt>
      <trkpt lat="48.54353" lon="2.05052">
        <ele>140.2</ele>
        <time>2023-12-14T12:20:41Z</time>
      </trkpt>
      <trkpt lat="48.54359" lon="2.05053">
        <ele>140.2</ele>
        <time>2023-12-14T12:20:42Z</time>
      </trkpt>
      <trkpt lat="48.54365" lon="2.05054">
        <ele>140.2</ele>
        <time>2023-12-14T12:20:43Z</time>
      </trkpt>
      <trkpt lat="48.54371" lon="2.05056">
        <ele>140</ele>
        <time>2023-12-14T12:20:44Z</time>
      </trkpt>
      <trkpt lat="48.54377" lon="2.05057">
        <ele>139.6</ele>
        <time>2023-12-14T12:20:45Z</time>
      </trkpt>
      <trkpt lat="48.54383" lon="2.05058">
        <ele>139.6</ele>
        <time>2023-12-14T12:20:46Z</time>
      </trkpt>
      <trkpt lat="48.54389" lon="2.0506">
        <ele>139.6</ele>
        <time>2023-12-14T12:20:47Z</time>
      </trkpt>
      <trkpt lat="48.54395" lon="2.05061">
        <ele>139.2</ele>
        <time>2023-12-14T12:20:48Z</time>
      </trkpt>
      <trkpt lat="48.54401" lon="2.05063">
        <ele>138.8</ele>
        <time>2023-12-14T12:20:49Z</time>
      </trkpt>
      <trkpt lat="48.54407" lon="2.05065">
        <ele>138.8</ele>
        <time>2023-12-14T12:20:50Z</time>
      </trkpt>
      <trkpt lat="48.54413" lon="2.05067">
        <ele>138.8</ele>
        <time>2023-12-14T12:20:51Z</time>
      </trkpt>
      <trkpt lat="48.54418" lon="2.05068">
        <ele>138.4</ele>
        <time>2023-12-14T12:20:52Z</time>
      </trkpt>
      <trkpt lat="48.54424" lon="2.0507">
        <ele>137.8</ele>
        <time>2023-12-14T12:20:53Z</time>
      </trkpt>
      <trkpt lat="48.5443" lon="2.05072">
        <ele>137.8</ele>
        <time>2023-12-14T12:20:54Z</time>
      </trkpt>
      <trkpt lat="48.54436" lon="2.05074">
        <ele>137.8</ele>
        <time>2023-12-14T12:20:55Z</time>
      </trkpt>
      <trkpt lat="48.54442" lon="2.05076">
        <ele>138.4</ele>
        <time>2023-12-14T12:20:56Z</time>
      </trkpt>
      <trkpt lat="48.54447" lon="2.05077">
        <ele>138.8</ele>
        <time>2023-12-14T12:20:57Z</time>
      </trkpt>
      <trkpt lat="48.54453" lon="2.05079">
        <ele>138.8</ele>
        <time>2023-12-14T12:20:58Z</time>
      </trkpt>
      <trkpt lat="48.54459" lon="2.0508">
        <ele>138.8</ele>
        <time>2023-12-14T12:20:59Z</time>
      </trkpt>
      <trkpt lat="48.54465" lon="2.05082">
        <ele>138.8</ele>
        <time>2023-12-14T12:21:00Z</time>
      </trkpt>
      <trkpt lat="48.54471" lon="2.05083">
        <ele>137.8</ele>
        <time>2023-12-14T12:21:01Z</time>
      </trkpt>
      <trkpt lat="48.54476" lon="2.05085">
        <ele>137.8</ele>
        <time>2023-12-14T12:21:02Z</time>
      </trkpt>
      <trkpt lat="48.54482" lon="2.05086">
        <ele>137.8</ele>
        <time>2023-12-14T12:21:03Z</time>
      </trkpt>
      <trkpt lat="48.54488" lon="2.05087">
        <ele>137.8</ele>
        <time>2023-12-14T12:21:04Z</time>
      </trkpt>
      <trkpt lat="48.54494" lon="2.05089">
        <ele>137.4</ele>
        <time>2023-12-14T12:21:05Z</time>
      </trkpt>
      <trkpt lat="48.545" lon="2.0509">
        <ele>137.4</ele>
        <time>2023-12-14T12:21:06Z</time>
      </trkpt>
      <trkpt lat="48.54505" lon="2.05092">
        <ele>137.4</ele>
        <time>2023-12-14T12:21:07Z</time>
      </trkpt>
      <trkpt lat="48.54511" lon="2.05093">
        <ele>138.4</ele>
        <time>2023-12-14T12:21:08Z</time>
      </trkpt>
      <trkpt lat="48.54517" lon="2.05094">
        <ele>138.6</ele>
        <time>2023-12-14T12:21:09Z</time>
      </trkpt>
      <trkpt lat="48.54523" lon="2.05096">
        <ele>138.6</ele>
        <time>2023-12-14T12:21:10Z</time>
      </trkpt>
      <trkpt lat="48.54529" lon="2.05097">
        <ele>138.6</ele>
        <time>2023-12-14T12:21:11Z</time>
      </trkpt>
      <trkpt lat="48.54535" lon="2.05099">
        <ele>138.6</ele>
        <time>2023-12-14T12:21:12Z</time>
      </trkpt>
      <trkpt lat="48.54541" lon="2.05101">
        <ele>138</ele>
        <time>2023-12-14T12:21:13Z</time>
      </trkpt>
      <trkpt lat="48.54546" lon="2.05102">
        <ele>138</ele>
        <time>2023-12-14T12:21:14Z</time>
      </trkpt>
      <trkpt lat="48.54552" lon="2.05104">
        <ele>138</ele>
        <time>2023-12-14T12:21:15Z</time>
      </trkpt>
      <trkpt lat="48.54558" lon="2.05106">
        <ele>138.6</ele>
        <time>2023-12-14T12:21:16Z</time>
      </trkpt>
      <trkpt lat="48.54564" lon="2.05108">
        <ele>138.8</ele>
        <time>2023-12-14T12:21:17Z</time>
      </trkpt>
      <trkpt lat="48.54569" lon="2.05109">
        <ele>138.8</ele>
        <time>2023-12-14T12:21:18Z</time>
      </trkpt>
      <trkpt lat="48.54575" lon="2.05111">
        <ele>138.8</ele>
        <time>2023-12-14T12:21:19Z</time>
      </trkpt>
      <trkpt lat="48.54581" lon="2.05113">
        <ele>138.8</ele>
        <time>2023-12-14T12:21:20Z</time>
      </trkpt>
      <trkpt lat="48.54587" lon="2.05115">
        <ele>139</ele>
        <time>2023-12-14T12:21:21Z</time>
      </trkpt>
      <trkpt lat="48.54592" lon="2.05117">
        <ele>139</ele>
        <time>2023-12-14T12:21:22Z</time>
      </trkpt>
      <trkpt lat="48.54598" lon="2.0512">
        <ele>139</ele>
        <time>2023-12-14T12:21:23Z</time>
      </trkpt>
      <trkpt lat="48.54604" lon="2.05122">
        <ele>139</ele>
        <time>2023-12-14T12:21:24Z</time>
      </trkpt>
      <trkpt lat="48.5461" lon="2.05124">
        <ele>139.6</ele>
        <time>2023-12-14T12:21:25Z</time>
      </trkpt>
      <trkpt lat="48.54615" lon="2.05126">
        <ele>139.6</ele>
        <time>2023-12-14T12:21:26Z</time>
      </trkpt>
      <trkpt lat="48.54621" lon="2.05129">
        <ele>139.6</ele>
        <time>2023-12-14T12:21:27Z</time>
      </trkpt>
      <trkpt lat="48.54627" lon="2.05131">
        <ele>139.6</ele>
        <time>2023-12-14T12:21:28Z</time>
      </trkpt>
      <trkpt lat="48.54632" lon="2.05134">
        <ele>140.2</ele>
        <time>2023-12-14T12:21:29Z</time>
      </trkpt>
      <trkpt lat="48.54638" lon="2.05136">
        <ele>140.2</ele>
        <time>2023-12-14T12:21:30Z</time>
      </trkpt>
      <trkpt lat="48.54644" lon="2.05138">
        <ele>140.2</ele>
        <time>2023-12-14T12:21:31Z</time>
      </trkpt>
      <trkpt lat="48.5465" lon="2.05141">
        <ele>140.2</ele>
        <time>2023-12-14T12:21:32Z</time>
      </trkpt>
      <trkpt lat="48.54655" lon="2.05143">
        <ele>138.6</ele>
        <time>2023-12-14T12:21:33Z</time>
      </trkpt>
      <trkpt lat="48.54661" lon="2.05146">
        <ele>138.6</ele>
        <time>2023-12-14T12:21:34Z</time>
      </trkpt>
      <trkpt lat="48.54667" lon="2.05148">
        <ele>138.6</ele>
        <time>2023-12-14T12:21:35Z</time>
      </trkpt>
      <trkpt lat="48.54672" lon="2.0515">
        <ele>139.6</ele>
        <time>2023-12-14T12:21:36Z</time>
      </trkpt>
      <trkpt lat="48.54678" lon="2.05153">
        <ele>140</ele>
        <time>2023-12-14T12:21:37Z</time>
      </trkpt>
      <trkpt lat="48.54684" lon="2.05155">
        <ele>140</ele>
        <time>2023-12-14T12:21:38Z</time>
      </trkpt>
      <trkpt lat="48.5469" lon="2.05157">
        <ele>140</ele>
        <time>2023-12-14T12:21:39Z</time>
      </trkpt>
      <trkpt lat="48.54696" lon="2.05159">
        <ele>140.4</ele>
        <time>2023-12-14T12:21:40Z</time>
      </trkpt>
      <trkpt lat="48.54702" lon="2.05161">
        <ele>139.8</ele>
        <time>2023-12-14T12:21:41Z</time>
      </trkpt>
      <trkpt lat="48.54708" lon="2.05162">
        <ele>139.8</ele>
        <time>2023-12-14T12:21:42Z</time>
      </trkpt>
      <trkpt lat="48.54713" lon="2.05164">
        <ele>139.8</ele>
        <time>2023-12-14T12:21:43Z</time>
      </trkpt>
      <trkpt lat="48.54719" lon="2.05165">
        <ele>139.8</ele>
        <time>2023-12-14T12:21:44Z</time>
      </trkpt>
      <trkpt lat="48.54725" lon="2.05166">
        <ele>140</ele>
        <time>2023-12-14T12:21:45Z</time>
      </trkpt>
      <trkpt lat="48.54731" lon="2.05166">
        <ele>140</ele>
        <time>2023-12-14T12:21:46Z</time>
      </trkpt>
      <trkpt lat="48.54737" lon="2.05167">
        <ele>140</ele>
        <time>2023-12-14T12:21:47Z</time>
      </trkpt>
      <trkpt lat="48.54742" lon="2.05167">
        <ele>139.8</ele>
        <time>2023-12-14T12:21:48Z</time>
      </trkpt>
      <trkpt lat="48.54748" lon="2.05167">
        <ele>139.2</ele>
        <time>2023-12-14T12:21:49Z</time>
      </trkpt>
      <trkpt lat="48.54753" lon="2.05167">
        <ele>139.2</ele>
        <time>2023-12-14T12:21:50Z</time>
      </trkpt>
      <trkpt lat="48.54759" lon="2.05167">
        <ele>139.2</ele>
        <time>2023-12-14T12:21:51Z</time>
      </trkpt>
      <trkpt lat="48.54764" lon="2.05166">
        <ele>139.8</ele>
        <time>2023-12-14T12:21:52Z</time>
      </trkpt>
      <trkpt lat="48.5477" lon="2.05165">
        <ele>139.6</ele>
        <time>2023-12-14T12:21:53Z</time>
      </trkpt>
      <trkpt lat="48.54775" lon="2.05165">
        <ele>139.6</ele>
        <time>2023-12-14T12:21:54Z</time>
      </trkpt>
      <trkpt lat="48.5478" lon="2.05164">
        <ele>139.6</ele>
        <time>2023-12-14T12:21:55Z</time>
      </trkpt>
      <trkpt lat="48.54786" lon="2.05164">
        <ele>140.4</ele>
        <time>2023-12-14T12:21:56Z</time>
      </trkpt>
      <trkpt lat="48.54791" lon="2.05163">
        <ele>139.6</ele>
        <time>2023-12-14T12:21:57Z</time>
      </trkpt>
      <trkpt lat="48.54796" lon="2.05162">
        <ele>139.6</ele>
        <time>2023-12-14T12:21:58Z</time>
      </trkpt>
      <trkpt lat="48.54802" lon="2.05162">
        <ele>139.6</ele>
        <time>2023-12-14T12:21:59Z</time>
      </trkpt>
      <trkpt lat="48.54807" lon="2.05161">
        <ele>139.6</ele>
        <time>2023-12-14T12:22:00Z</time>
      </trkpt>
      <trkpt lat="48.54812" lon="2.0516">
        <ele>141.2</ele>
        <time>2023-12-14T12:22:01Z</time>
      </trkpt>
      <trkpt lat="48.54818" lon="2.0516">
        <ele>141.2</ele>
        <time>2023-12-14T12:22:02Z</time>
      </trkpt>
      <trkpt lat="48.54823" lon="2.05159">
        <ele>141.2</ele>
        <time>2023-12-14T12:22:03Z</time>
      </trkpt>
      <trkpt lat="48.54828" lon="2.05158">
        <ele>141.2</ele>
        <time>2023-12-14T12:22:04Z</time>
      </trkpt>
      <trkpt lat="48.54834" lon="2.05157">
        <ele>140.2</ele>
        <time>2023-12-14T12:22:05Z</time>
      </trkpt>
      <trkpt lat="48.54839" lon="2.05157">
        <ele>140.2</ele>
        <time>2023-12-14T12:22:06Z</time>
      </trkpt>
      <trkpt lat="48.54845" lon="2.05156">
        <ele>140.2</ele>
        <time>2023-12-14T12:22:07Z</time>
      </trkpt>
      <trkpt lat="48.5485" lon="2.05155">
        <ele>141.2</ele>
        <time>2023-12-14T12:22:08Z</time>
      </trkpt>
      <trkpt lat="48.54856" lon="2.05155">
        <ele>141.6</ele>
        <time>2023-12-14T12:22:09Z</time>
      </trkpt>
      <trkpt lat="48.54862" lon="2.05154">
        <ele>141.6</ele>
        <time>2023-12-14T12:22:10Z</time>
      </trkpt>
      <trkpt lat="48.54867" lon="2.05153">
        <ele>141.6</ele>
        <time>2023-12-14T12:22:11Z</time>
      </trkpt>
      <trkpt lat="48.54873" lon="2.05152">
        <ele>141.6</ele>
        <time>2023-12-14T12:22:12Z</time>
      </trkpt>
      <trkpt lat="48.54878" lon="2.05152">
        <ele>141.2</ele>
        <time>2023-12-14T12:22:13Z</time>
      </trkpt>
      <trkpt lat="48.54884" lon="2.05151">
        <ele>141.2</ele>
        <time>2023-12-14T12:22:14Z</time>
      </trkpt>
      <trkpt lat="48.54889" lon="2.0515">
        <ele>141.2</ele>
        <time>2023-12-14T12:22:15Z</time>
      </trkpt>
      <trkpt lat="48.54894" lon="2.05149">
        <ele>142</ele>
        <time>2023-12-14T12:22:16Z</time>
      </trkpt>
      <trkpt lat="48.549" lon="2.05149">
        <ele>141.8</ele>
        <time>2023-12-14T12:22:17Z</time>
      </trkpt>
      <trkpt lat="48.54905" lon="2.05148">
        <ele>141.8</ele>
        <time>2023-12-14T12:22:18Z</time>
      </trkpt>
      <trkpt lat="48.5491" lon="2.05147">
        <ele>141.8</ele>
        <time>2023-12-14T12:22:19Z</time>
      </trkpt>
      <trkpt lat="48.54915" lon="2.05147">
        <ele>141.8</ele>
        <time>2023-12-14T12:22:20Z</time>
      </trkpt>
      <trkpt lat="48.5492" lon="2.05146">
        <ele>142.4</ele>
        <time>2023-12-14T12:22:21Z</time>
      </trkpt>
      <trkpt lat="48.54925" lon="2.05146">
        <ele>142.4</ele>
        <time>2023-12-14T12:22:22Z</time>
      </trkpt>
      <trkpt lat="48.5493" lon="2.05145">
        <ele>142.4</ele>
        <time>2023-12-14T12:22:23Z</time>
      </trkpt>
      <trkpt lat="48.54935" lon="2.05144">
        <ele>142.4</ele>
        <time>2023-12-14T12:22:24Z</time>
      </trkpt>
      <trkpt lat="48.5494" lon="2.05143">
        <ele>143</ele>
        <time>2023-12-14T12:22:25Z</time>
      </trkpt>
      <trkpt lat="48.54945" lon="2.05143">
        <ele>143</ele>
        <time>2023-12-14T12:22:26Z</time>
      </trkpt>
      <trkpt lat="48.5495" lon="2.05142">
        <ele>143</ele>
        <time>2023-12-14T12:22:27Z</time>
      </trkpt>
      <trkpt lat="48.54956" lon="2.05141">
        <ele>142.6</ele>
        <time>2023-12-14T12:22:28Z</time>
      </trkpt>
      <trkpt lat="48.54961" lon="2.05141">
        <ele>141.8</ele>
        <time>2023-12-14T12:22:29Z</time>
      </trkpt>
      <trkpt lat="48.54966" lon="2.0514">
        <ele>141.8</ele>
        <time>2023-12-14T12:22:30Z</time>
      </trkpt>
      <trkpt lat="48.54972" lon="2.0514">
        <ele>141.8</ele>
        <time>2023-12-14T12:22:31Z</time>
      </trkpt>
      <trkpt lat="48.54977" lon="2.05139">
        <ele>141.8</ele>
        <time>2023-12-14T12:22:32Z</time>
      </trkpt>
      <trkpt lat="48.54982" lon="2.05139">
        <ele>142.2</ele>
        <time>2023-12-14T12:22:33Z</time>
      </trkpt>
      <trkpt lat="48.54988" lon="2.05139">
        <ele>142.2</ele>
        <time>2023-12-14T12:22:34Z</time>
      </trkpt>
      <trkpt lat="48.54993" lon="2.0514">
        <ele>142.2</ele>
        <time>2023-12-14T12:22:35Z</time>
      </trkpt>
      <trkpt lat="48.54998" lon="2.0514">
        <ele>141.8</ele>
        <time>2023-12-14T12:22:36Z</time>
      </trkpt>
      <trkpt lat="48.55003" lon="2.05141">
        <ele>142.2</ele>
        <time>2023-12-14T12:22:37Z</time>
      </trkpt>
      <trkpt lat="48.55008" lon="2.05141">
        <ele>142.2</ele>
        <time>2023-12-14T12:22:38Z</time>
      </trkpt>
      <trkpt lat="48.55013" lon="2.05142">
        <ele>142.2</ele>
        <time>2023-12-14T12:22:39Z</time>
      </trkpt>
      <trkpt lat="48.55018" lon="2.05143">
        <ele>143.2</ele>
        <time>2023-12-14T12:22:40Z</time>
      </trkpt>
      <trkpt lat="48.55024" lon="2.05143">
        <ele>143.4</ele>
        <time>2023-12-14T12:22:41Z</time>
      </trkpt>
      <trkpt lat="48.55029" lon="2.05144">
        <ele>143.4</ele>
        <time>2023-12-14T12:22:42Z</time>
      </trkpt>
      <trkpt lat="48.55035" lon="2.05145">
        <ele>143.4</ele>
        <time>2023-12-14T12:22:43Z</time>
      </trkpt>
      <trkpt lat="48.5504" lon="2.05147">
        <ele>143.2</ele>
        <time>2023-12-14T12:22:44Z</time>
      </trkpt>
      <trkpt lat="48.55045" lon="2.05148">
        <ele>143.6</ele>
        <time>2023-12-14T12:22:45Z</time>
      </trkpt>
      <trkpt lat="48.55051" lon="2.0515">
        <ele>143.6</ele>
        <time>2023-12-14T12:22:46Z</time>
      </trkpt>
      <trkpt lat="48.55056" lon="2.05151">
        <ele>143.6</ele>
        <time>2023-12-14T12:22:47Z</time>
      </trkpt>
      <trkpt lat="48.55062" lon="2.05153">
        <ele>143.8</ele>
        <time>2023-12-14T12:22:48Z</time>
      </trkpt>
      <trkpt lat="48.55067" lon="2.05155">
        <ele>144.2</ele>
        <time>2023-12-14T12:22:49Z</time>
      </trkpt>
      <trkpt lat="48.55072" lon="2.05158">
        <ele>144.2</ele>
        <time>2023-12-14T12:22:50Z</time>
      </trkpt>
      <trkpt lat="48.55078" lon="2.05161">
        <ele>144.2</ele>
        <time>2023-12-14T12:22:51Z</time>
      </trkpt>
      <trkpt lat="48.55083" lon="2.05163">
        <ele>143.6</ele>
        <time>2023-12-14T12:22:52Z</time>
      </trkpt>
      <trkpt lat="48.55089" lon="2.05167">
        <ele>143.8</ele>
        <time>2023-12-14T12:22:53Z</time>
      </trkpt>
      <trkpt lat="48.55094" lon="2.0517">
        <ele>143.8</ele>
        <time>2023-12-14T12:22:54Z</time>
      </trkpt>
      <trkpt lat="48.55099" lon="2.05174">
        <ele>143.8</ele>
        <time>2023-12-14T12:22:55Z</time>
      </trkpt>
      <trkpt lat="48.55104" lon="2.05178">
        <ele>143.8</ele>
        <time>2023-12-14T12:22:56Z</time>
      </trkpt>
      <trkpt lat="48.55109" lon="2.05182">
        <ele>143.6</ele>
        <time>2023-12-14T12:22:57Z</time>
      </trkpt>
      <trkpt lat="48.55114" lon="2.05186">
        <ele>143.6</ele>
        <time>2023-12-14T12:22:58Z</time>
      </trkpt>
      <trkpt lat="48.55119" lon="2.05191">
        <ele>143.6</ele>
        <time>2023-12-14T12:22:59Z</time>
      </trkpt>
      <trkpt lat="48.55124" lon="2.05195">
        <ele>143.6</ele>
        <time>2023-12-14T12:23:00Z</time>
      </trkpt>
      <trkpt lat="48.55129" lon="2.052">
        <ele>144</ele>
        <time>2023-12-14T12:23:01Z</time>
      </trkpt>
      <trkpt lat="48.55134" lon="2.05205">
        <ele>144</ele>
        <time>2023-12-14T12:23:02Z</time>
      </trkpt>
      <trkpt lat="48.55139" lon="2.05209">
        <ele>144</ele>
        <time>2023-12-14T12:23:03Z</time>
      </trkpt>
      <trkpt lat="48.55144" lon="2.05214">
        <ele>144.2</ele>
        <time>2023-12-14T12:23:04Z</time>
      </trkpt>
      <trkpt lat="48.55149" lon="2.05219">
        <ele>144</ele>
        <time>2023-12-14T12:23:05Z</time>
      </trkpt>
      <trkpt lat="48.55153" lon="2.05223">
        <ele>144</ele>
        <time>2023-12-14T12:23:06Z</time>
      </trkpt>
      <trkpt lat="48.55158" lon="2.05227">
        <ele>144</ele>
        <time>2023-12-14T12:23:07Z</time>
      </trkpt>
      <trkpt lat="48.55162" lon="2.05231">
        <ele>144</ele>
        <time>2023-12-14T12:23:08Z</time>
      </trkpt>
      <trkpt lat="48.55166" lon="2.05236">
        <ele>144.6</ele>
        <time>2023-12-14T12:23:09Z</time>
      </trkpt>
      <trkpt lat="48.55171" lon="2.0524">
        <ele>144.6</ele>
        <time>2023-12-14T12:23:10Z</time>
      </trkpt>
      <trkpt lat="48.55175" lon="2.05245">
        <ele>144.6</ele>
        <time>2023-12-14T12:23:11Z</time>
      </trkpt>
      <trkpt lat="48.55179" lon="2.05249">
        <ele>145</ele>
        <time>2023-12-14T12:23:12Z</time>
      </trkpt>
      <trkpt lat="48.55184" lon="2.05253">
        <ele>144.8</ele>
        <time>2023-12-14T12:23:13Z</time>
      </trkpt>
      <trkpt lat="48.55188" lon="2.05258">
        <ele>144.8</ele>
        <time>2023-12-14T12:23:14Z</time>
      </trkpt>
      <trkpt lat="48.55193" lon="2.05263">
        <ele>144.8</ele>
        <time>2023-12-14T12:23:15Z</time>
      </trkpt>
      <trkpt lat="48.55198" lon="2.05268">
        <ele>143.8</ele>
        <time>2023-12-14T12:23:16Z</time>
      </trkpt>
      <trkpt lat="48.55203" lon="2.05273">
        <ele>143.2</ele>
        <time>2023-12-14T12:23:17Z</time>
      </trkpt>
      <trkpt lat="48.55209" lon="2.05278">
        <ele>143.2</ele>
        <time>2023-12-14T12:23:18Z</time>
      </trkpt>
      <trkpt lat="48.55214" lon="2.05283">
        <ele>143.2</ele>
        <time>2023-12-14T12:23:19Z</time>
      </trkpt>
      <trkpt lat="48.5522" lon="2.05289">
        <ele>143.2</ele>
        <time>2023-12-14T12:23:20Z</time>
      </trkpt>
      <trkpt lat="48.55225" lon="2.05294">
        <ele>143.2</ele>
        <time>2023-12-14T12:23:21Z</time>
      </trkpt>
      <trkpt lat="48.55231" lon="2.05298">
        <ele>143.2</ele>
        <time>2023-12-14T12:23:22Z</time>
      </trkpt>
      <trkpt lat="48.55236" lon="2.05303">
        <ele>143.2</ele>
        <time>2023-12-14T12:23:23Z</time>
      </trkpt>
      <trkpt lat="48.55242" lon="2.05308">
        <ele>144</ele>
        <time>2023-12-14T12:23:24Z</time>
      </trkpt>
      <trkpt lat="48.55247" lon="2.05313">
        <ele>143.2</ele>
        <time>2023-12-14T12:23:25Z</time>
      </trkpt>
      <trkpt lat="48.55253" lon="2.05318">
        <ele>143.2</ele>
        <time>2023-12-14T12:23:26Z</time>
      </trkpt>
      <trkpt lat="48.55258" lon="2.05324">
        <ele>143.2</ele>
        <time>2023-12-14T12:23:27Z</time>
      </trkpt>
      <trkpt lat="48.55263" lon="2.05329">
        <ele>142.2</ele>
        <time>2023-12-14T12:23:28Z</time>
      </trkpt>
      <trkpt lat="48.55269" lon="2.05334">
        <ele>141.4</ele>
        <time>2023-12-14T12:23:29Z</time>
      </trkpt>
      <trkpt lat="48.55275" lon="2.05339">
        <ele>141.4</ele>
        <time>2023-12-14T12:23:30Z</time>
      </trkpt>
      <trkpt lat="48.5528" lon="2.05345">
        <ele>141.4</ele>
        <time>2023-12-14T12:23:31Z</time>
      </trkpt>
      <trkpt lat="48.55286" lon="2.0535">
        <ele>141.4</ele>
        <time>2023-12-14T12:23:32Z</time>
      </trkpt>
      <trkpt lat="48.55291" lon="2.05355">
        <ele>140.4</ele>
        <time>2023-12-14T12:23:33Z</time>
      </trkpt>
      <trkpt lat="48.55297" lon="2.05361">
        <ele>140.4</ele>
        <time>2023-12-14T12:23:34Z</time>
      </trkpt>
      <trkpt lat="48.55303" lon="2.05367">
        <ele>140.4</ele>
        <time>2023-12-14T12:23:35Z</time>
      </trkpt>
      <trkpt lat="48.55308" lon="2.05373">
        <ele>139.6</ele>
        <time>2023-12-14T12:23:36Z</time>
      </trkpt>
      <trkpt lat="48.55314" lon="2.05379">
        <ele>139.2</ele>
        <time>2023-12-14T12:23:37Z</time>
      </trkpt>
      <trkpt lat="48.5532" lon="2.05386">
        <ele>139.2</ele>
        <time>2023-12-14T12:23:38Z</time>
      </trkpt>
      <trkpt lat="48.55327" lon="2.05391">
        <ele>139.2</ele>
        <time>2023-12-14T12:23:39Z</time>
      </trkpt>
      <trkpt lat="48.55333" lon="2.05396">
        <ele>138.2</ele>
        <time>2023-12-14T12:23:40Z</time>
      </trkpt>
      <trkpt lat="48.5534" lon="2.05402">
        <ele>136.6</ele>
        <time>2023-12-14T12:23:41Z</time>
      </trkpt>
      <trkpt lat="48.55346" lon="2.05409">
        <ele>136.6</ele>
        <time>2023-12-14T12:23:42Z</time>
      </trkpt>
      <trkpt lat="48.55352" lon="2.05415">
        <ele>136.6</ele>
        <time>2023-12-14T12:23:43Z</time>
      </trkpt>
      <trkpt lat="48.55358" lon="2.05421">
        <ele>136.6</ele>
        <time>2023-12-14T12:23:44Z</time>
      </trkpt>
      <trkpt lat="48.55365" lon="2.05427">
        <ele>135.6</ele>
        <time>2023-12-14T12:23:45Z</time>
      </trkpt>
      <trkpt lat="48.55372" lon="2.05433">
        <ele>135.6</ele>
        <time>2023-12-14T12:23:46Z</time>
      </trkpt>
      <trkpt lat="48.55378" lon="2.05439">
        <ele>135.6</ele>
        <time>2023-12-14T12:23:47Z</time>
      </trkpt>
      <trkpt lat="48.55386" lon="2.05444">
        <ele>134.6</ele>
        <time>2023-12-14T12:23:48Z</time>
      </trkpt>
      <trkpt lat="48.55394" lon="2.05447">
        <ele>133.2</ele>
        <time>2023-12-14T12:23:49Z</time>
      </trkpt>
      <trkpt lat="48.55402" lon="2.05448">
        <ele>133.2</ele>
        <time>2023-12-14T12:23:50Z</time>
      </trkpt>
      <trkpt lat="48.5541" lon="2.05447">
        <ele>133.2</ele>
        <time>2023-12-14T12:23:51Z</time>
      </trkpt>
      <trkpt lat="48.55419" lon="2.05444">
        <ele>132.2</ele>
        <time>2023-12-14T12:23:52Z</time>
      </trkpt>
      <trkpt lat="48.55427" lon="2.0544">
        <ele>131</ele>
        <time>2023-12-14T12:23:53Z</time>
      </trkpt>
      <trkpt lat="48.55435" lon="2.05433">
        <ele>131</ele>
        <time>2023-12-14T12:23:54Z</time>
      </trkpt>
      <trkpt lat="48.55441" lon="2.05423">
        <ele>131</ele>
        <time>2023-12-14T12:23:55Z</time>
      </trkpt>
      <trkpt lat="48.55447" lon="2.05413">
        <ele>131</ele>
        <time>2023-12-14T12:23:56Z</time>
      </trkpt>
      <trkpt lat="48.55452" lon="2.05401">
        <ele>129.2</ele>
        <time>2023-12-14T12:23:57Z</time>
      </trkpt>
      <trkpt lat="48.55457" lon="2.05389">
        <ele>129.2</ele>
        <time>2023-12-14T12:23:58Z</time>
      </trkpt>
      <trkpt lat="48.55461" lon="2.05377">
        <ele>129.2</ele>
        <time>2023-12-14T12:23:59Z</time>
      </trkpt>
      <trkpt lat="48.55466" lon="2.05365">
        <ele>128.2</ele>
        <time>2023-12-14T12:24:00Z</time>
      </trkpt>
      <trkpt lat="48.5547" lon="2.05354">
        <ele>126</ele>
        <time>2023-12-14T12:24:01Z</time>
      </trkpt>
      <trkpt lat="48.55475" lon="2.05342">
        <ele>126</ele>
        <time>2023-12-14T12:24:02Z</time>
      </trkpt>
      <trkpt lat="48.5548" lon="2.0533">
        <ele>126</ele>
        <time>2023-12-14T12:24:03Z</time>
      </trkpt>
      <trkpt lat="48.55485" lon="2.05319">
        <ele>125</ele>
        <time>2023-12-14T12:24:04Z</time>
      </trkpt>
      <trkpt lat="48.5549" lon="2.05307">
        <ele>123.6</ele>
        <time>2023-12-14T12:24:05Z</time>
      </trkpt>
      <trkpt lat="48.55496" lon="2.05294">
        <ele>123.6</ele>
        <time>2023-12-14T12:24:06Z</time>
      </trkpt>
      <trkpt lat="48.55501" lon="2.0528">
        <ele>123.6</ele>
        <time>2023-12-14T12:24:07Z</time>
      </trkpt>
      <trkpt lat="48.55507" lon="2.05268">
        <ele>122.6</ele>
        <time>2023-12-14T12:24:08Z</time>
      </trkpt>
      <trkpt lat="48.55512" lon="2.05258">
        <ele>121.2</ele>
        <time>2023-12-14T12:24:09Z</time>
      </trkpt>
      <trkpt lat="48.55518" lon="2.05247">
        <ele>121.2</ele>
        <time>2023-12-14T12:24:10Z</time>
      </trkpt>
      <trkpt lat="48.55525" lon="2.05237">
        <ele>121.2</ele>
        <time>2023-12-14T12:24:11Z</time>
      </trkpt>
      <trkpt lat="48.55533" lon="2.05228">
        <ele>120.2</ele>
        <time>2023-12-14T12:24:12Z</time>
      </trkpt>
      <trkpt lat="48.5554" lon="2.05222">
        <ele>118.4</ele>
        <time>2023-12-14T12:24:13Z</time>
      </trkpt>
      <trkpt lat="48.55549" lon="2.05215">
        <ele>118.4</ele>
        <time>2023-12-14T12:24:14Z</time>
      </trkpt>
      <trkpt lat="48.55557" lon="2.05207">
        <ele>118.4</ele>
        <time>2023-12-14T12:24:15Z</time>
      </trkpt>
      <trkpt lat="48.55565" lon="2.05201">
        <ele>117.4</ele>
        <time>2023-12-14T12:24:16Z</time>
      </trkpt>
      <trkpt lat="48.55572" lon="2.05195">
        <ele>115.2</ele>
        <time>2023-12-14T12:24:17Z</time>
      </trkpt>
      <trkpt lat="48.5558" lon="2.05188">
        <ele>115.2</ele>
        <time>2023-12-14T12:24:18Z</time>
      </trkpt>
      <trkpt lat="48.55588" lon="2.05183">
        <ele>115.2</ele>
        <time>2023-12-14T12:24:19Z</time>
      </trkpt>
      <trkpt lat="48.55596" lon="2.05174">
        <ele>114.2</ele>
        <time>2023-12-14T12:24:20Z</time>
      </trkpt>
      <trkpt lat="48.55606" lon="2.05168">
        <ele>112.4</ele>
        <time>2023-12-14T12:24:21Z</time>
      </trkpt>
      <trkpt lat="48.55616" lon="2.05166">
        <ele>112.4</ele>
        <time>2023-12-14T12:24:22Z</time>
      </trkpt>
      <trkpt lat="48.55626" lon="2.05161">
        <ele>112.4</ele>
        <time>2023-12-14T12:24:23Z</time>
      </trkpt>
      <trkpt lat="48.55636" lon="2.05158">
        <ele>111.4</ele>
        <time>2023-12-14T12:24:24Z</time>
      </trkpt>
      <trkpt lat="48.55646" lon="2.05158">
        <ele>109</ele>
        <time>2023-12-14T12:24:25Z</time>
      </trkpt>
      <trkpt lat="48.55657" lon="2.05156">
        <ele>109</ele>
        <time>2023-12-14T12:24:26Z</time>
      </trkpt>
      <trkpt lat="48.55668" lon="2.05156">
        <ele>109</ele>
        <time>2023-12-14T12:24:27Z</time>
      </trkpt>
      <trkpt lat="48.55679" lon="2.05155">
        <ele>108</ele>
        <time>2023-12-14T12:24:28Z</time>
      </trkpt>
      <trkpt lat="48.5569" lon="2.05154">
        <ele>105.8</ele>
        <time>2023-12-14T12:24:29Z</time>
      </trkpt>
      <trkpt lat="48.55701" lon="2.05153">
        <ele>105.8</ele>
        <time>2023-12-14T12:24:30Z</time>
      </trkpt>
      <trkpt lat="48.55712" lon="2.05153">
        <ele>105.8</ele>
        <time>2023-12-14T12:24:31Z</time>
      </trkpt>
      <trkpt lat="48.55723" lon="2.05154">
        <ele>104.8</ele>
        <time>2023-12-14T12:24:32Z</time>
      </trkpt>
      <trkpt lat="48.55733" lon="2.05154">
        <ele>103.4</ele>
        <time>2023-12-14T12:24:33Z</time>
      </trkpt>
      <trkpt lat="48.55743" lon="2.05154">
        <ele>103.4</ele>
        <time>2023-12-14T12:24:34Z</time>
      </trkpt>
      <trkpt lat="48.55754" lon="2.05154">
        <ele>103.4</ele>
        <time>2023-12-14T12:24:35Z</time>
      </trkpt>
      <trkpt lat="48.55764" lon="2.05153">
        <ele>102.4</ele>
        <time>2023-12-14T12:24:36Z</time>
      </trkpt>
      <trkpt lat="48.55774" lon="2.05153">
        <ele>101.8</ele>
        <time>2023-12-14T12:24:37Z</time>
      </trkpt>
      <trkpt lat="48.55784" lon="2.05153">
        <ele>101.8</ele>
        <time>2023-12-14T12:24:38Z</time>
      </trkpt>
      <trkpt lat="48.55795" lon="2.05153">
        <ele>101.8</ele>
        <time>2023-12-14T12:24:39Z</time>
      </trkpt>
      <trkpt lat="48.55805" lon="2.05154">
        <ele>100.8</ele>
        <time>2023-12-14T12:24:40Z</time>
      </trkpt>
      <trkpt lat="48.55815" lon="2.05156">
        <ele>101</ele>
        <time>2023-12-14T12:24:41Z</time>
      </trkpt>
      <trkpt lat="48.55825" lon="2.05156">
        <ele>101</ele>
        <time>2023-12-14T12:24:42Z</time>
      </trkpt>
      <trkpt lat="48.55835" lon="2.05157">
        <ele>101</ele>
        <time>2023-12-14T12:24:43Z</time>
      </trkpt>
      <trkpt lat="48.55845" lon="2.05158">
        <ele>100</ele>
        <time>2023-12-14T12:24:44Z</time>
      </trkpt>
      <trkpt lat="48.55856" lon="2.05158">
        <ele>99.8</ele>
        <time>2023-12-14T12:24:45Z</time>
      </trkpt>
      <trkpt lat="48.55866" lon="2.05159">
        <ele>99.8</ele>
        <time>2023-12-14T12:24:46Z</time>
      </trkpt>
      <trkpt lat="48.55876" lon="2.0516">
        <ele>99.8</ele>
        <time>2023-12-14T12:24:47Z</time>
      </trkpt>
      <trkpt lat="48.55886" lon="2.0516">
        <ele>98.8</ele>
        <time>2023-12-14T12:24:48Z</time>
      </trkpt>
      <trkpt lat="48.55896" lon="2.05159">
        <ele>98.2</ele>
        <time>2023-12-14T12:24:49Z</time>
      </trkpt>
      <trkpt lat="48.55906" lon="2.05157">
        <ele>98.2</ele>
        <time>2023-12-14T12:24:50Z</time>
      </trkpt>
      <trkpt lat="48.55915" lon="2.05153">
        <ele>98.2</ele>
        <time>2023-12-14T12:24:51Z</time>
      </trkpt>
      <trkpt lat="48.55923" lon="2.05146">
        <ele>99</ele>
        <time>2023-12-14T12:24:52Z</time>
      </trkpt>
      <trkpt lat="48.5593" lon="2.05137">
        <ele>98</ele>
        <time>2023-12-14T12:24:53Z</time>
      </trkpt>
      <trkpt lat="48.55936" lon="2.05127">
        <ele>98</ele>
        <time>2023-12-14T12:24:54Z</time>
      </trkpt>
      <trkpt lat="48.5594" lon="2.05115">
        <ele>98</ele>
        <time>2023-12-14T12:24:55Z</time>
      </trkpt>
      <trkpt lat="48.55944" lon="2.05103">
        <ele>97</ele>
        <time>2023-12-14T12:24:56Z</time>
      </trkpt>
      <trkpt lat="48.55948" lon="2.05092">
        <ele>95.6</ele>
        <time>2023-12-14T12:24:57Z</time>
      </trkpt>
      <trkpt lat="48.55951" lon="2.05081">
        <ele>95.6</ele>
        <time>2023-12-14T12:24:58Z</time>
      </trkpt>
      <trkpt lat="48.55954" lon="2.05069">
        <ele>95.6</ele>
        <time>2023-12-14T12:24:59Z</time>
      </trkpt>
      <trkpt lat="48.55957" lon="2.05056">
        <ele>94.6</ele>
        <time>2023-12-14T12:25:00Z</time>
      </trkpt>
      <trkpt lat="48.5596" lon="2.05045">
        <ele>93.2</ele>
        <time>2023-12-14T12:25:01Z</time>
      </trkpt>
      <trkpt lat="48.55964" lon="2.05032">
        <ele>93.2</ele>
        <time>2023-12-14T12:25:02Z</time>
      </trkpt>
      <trkpt lat="48.55967" lon="2.05019">
        <ele>93.2</ele>
        <time>2023-12-14T12:25:03Z</time>
      </trkpt>
      <trkpt lat="48.5597" lon="2.05007">
        <ele>92.8</ele>
        <time>2023-12-14T12:25:04Z</time>
      </trkpt>
      <trkpt lat="48.55975" lon="2.04996">
        <ele>91.8</ele>
        <time>2023-12-14T12:25:05Z</time>
      </trkpt>
      <trkpt lat="48.5598" lon="2.04985">
        <ele>91.8</ele>
        <time>2023-12-14T12:25:06Z</time>
      </trkpt>
      <trkpt lat="48.55986" lon="2.04975">
        <ele>91.8</ele>
        <time>2023-12-14T12:25:07Z</time>
      </trkpt>
      <trkpt lat="48.55993" lon="2.04966">
        <ele>91.8</ele>
        <time>2023-12-14T12:25:08Z</time>
      </trkpt>
      <trkpt lat="48.56" lon="2.04959">
        <ele>89.8</ele>
        <time>2023-12-14T12:25:09Z</time>
      </trkpt>
      <trkpt lat="48.56008" lon="2.04951">
        <ele>89.8</ele>
        <time>2023-12-14T12:25:10Z</time>
      </trkpt>
      <trkpt lat="48.56016" lon="2.04944">
        <ele>89.8</ele>
        <time>2023-12-14T12:25:11Z</time>
      </trkpt>
      <trkpt lat="48.56024" lon="2.04937">
        <ele>88.8</ele>
        <time>2023-12-14T12:25:12Z</time>
      </trkpt>
      <trkpt lat="48.56032" lon="2.0493">
        <ele>88.6</ele>
        <time>2023-12-14T12:25:13Z</time>
      </trkpt>
      <trkpt lat="48.56041" lon="2.04924">
        <ele>88.6</ele>
        <time>2023-12-14T12:25:14Z</time>
      </trkpt>
      <trkpt lat="48.56049" lon="2.04919">
        <ele>88.6</ele>
        <time>2023-12-14T12:25:15Z</time>
      </trkpt>
      <trkpt lat="48.56058" lon="2.04915">
        <ele>87.6</ele>
        <time>2023-12-14T12:25:16Z</time>
      </trkpt>
      <trkpt lat="48.56067" lon="2.04912">
        <ele>85.8</ele>
        <time>2023-12-14T12:25:17Z</time>
      </trkpt>
      <trkpt lat="48.56076" lon="2.04911">
        <ele>85.8</ele>
        <time>2023-12-14T12:25:18Z</time>
      </trkpt>
      <trkpt lat="48.56085" lon="2.0491">
        <ele>85.8</ele>
        <time>2023-12-14T12:25:19Z</time>
      </trkpt>
      <trkpt lat="48.56094" lon="2.04912">
        <ele>85</ele>
        <time>2023-12-14T12:25:20Z</time>
      </trkpt>
      <trkpt lat="48.56103" lon="2.04913">
        <ele>84.4</ele>
        <time>2023-12-14T12:25:21Z</time>
      </trkpt>
      <trkpt lat="48.56111" lon="2.04916">
        <ele>84.4</ele>
        <time>2023-12-14T12:25:22Z</time>
      </trkpt>
      <trkpt lat="48.56119" lon="2.04921">
        <ele>84.4</ele>
        <time>2023-12-14T12:25:23Z</time>
      </trkpt>
      <trkpt lat="48.56127" lon="2.04927">
        <ele>83.4</ele>
        <time>2023-12-14T12:25:24Z</time>
      </trkpt>
      <trkpt lat="48.56134" lon="2.04934">
        <ele>82.4</ele>
        <time>2023-12-14T12:25:25Z</time>
      </trkpt>
      <trkpt lat="48.56143" lon="2.0494">
        <ele>82.4</ele>
        <time>2023-12-14T12:25:26Z</time>
      </trkpt>
      <trkpt lat="48.56152" lon="2.04946">
        <ele>82.4</ele>
        <time>2023-12-14T12:25:27Z</time>
      </trkpt>
      <trkpt lat="48.56161" lon="2.04952">
        <ele>81.4</ele>
        <time>2023-12-14T12:25:28Z</time>
      </trkpt>
      <trkpt lat="48.56172" lon="2.04956">
        <ele>78</ele>
        <time>2023-12-14T12:25:29Z</time>
      </trkpt>
      <trkpt lat="48.56182" lon="2.0496">
        <ele>78</ele>
        <time>2023-12-14T12:25:30Z</time>
      </trkpt>
      <trkpt lat="48.56192" lon="2.04963">
        <ele>78</ele>
        <time>2023-12-14T12:25:31Z</time>
      </trkpt>
      <trkpt lat="48.56201" lon="2.04966">
        <ele>77.2</ele>
        <time>2023-12-14T12:25:32Z</time>
      </trkpt>
      <trkpt lat="48.5621" lon="2.04968">
        <ele>76.4</ele>
        <time>2023-12-14T12:25:33Z</time>
      </trkpt>
      <trkpt lat="48.56219" lon="2.04967">
        <ele>76.4</ele>
        <time>2023-12-14T12:25:34Z</time>
      </trkpt>
      <trkpt lat="48.56227" lon="2.04966">
        <ele>76.4</ele>
        <time>2023-12-14T12:25:35Z</time>
      </trkpt>
      <trkpt lat="48.56234" lon="2.04963">
        <ele>75.4</ele>
        <time>2023-12-14T12:25:36Z</time>
      </trkpt>
      <trkpt lat="48.56241" lon="2.04959">
        <ele>74.8</ele>
        <time>2023-12-14T12:25:37Z</time>
      </trkpt>
      <trkpt lat="48.56248" lon="2.04955">
        <ele>74.8</ele>
        <time>2023-12-14T12:25:38Z</time>
      </trkpt>
      <trkpt lat="48.56254" lon="2.04952">
        <ele>74.8</ele>
        <time>2023-12-14T12:25:39Z</time>
      </trkpt>
      <trkpt lat="48.5626" lon="2.04949">
        <ele>74.2</ele>
        <time>2023-12-14T12:25:40Z</time>
      </trkpt>
      <trkpt lat="48.56266" lon="2.04947">
        <ele>73</ele>
        <time>2023-12-14T12:25:41Z</time>
      </trkpt>
      <trkpt lat="48.56273" lon="2.04945">
        <ele>73</ele>
        <time>2023-12-14T12:25:42Z</time>
      </trkpt>
      <trkpt lat="48.5628" lon="2.04944">
        <ele>73</ele>
        <time>2023-12-14T12:25:43Z</time>
      </trkpt>
      <trkpt lat="48.56288" lon="2.04944">
        <ele>72</ele>
        <time>2023-12-14T12:25:44Z</time>
      </trkpt>
      <trkpt lat="48.56296" lon="2.04944">
        <ele>69.2</ele>
        <time>2023-12-14T12:25:45Z</time>
      </trkpt>
      <trkpt lat="48.56305" lon="2.04945">
        <ele>69.2</ele>
        <time>2023-12-14T12:25:46Z</time>
      </trkpt>
      <trkpt lat="48.56313" lon="2.04947">
        <ele>69.2</ele>
        <time>2023-12-14T12:25:47Z</time>
      </trkpt>
      <trkpt lat="48.56322" lon="2.04948">
        <ele>68.2</ele>
        <time>2023-12-14T12:25:48Z</time>
      </trkpt>
      <trkpt lat="48.56329" lon="2.0495">
        <ele>67</ele>
        <time>2023-12-14T12:25:49Z</time>
      </trkpt>
      <trkpt lat="48.56336" lon="2.04951">
        <ele>67</ele>
        <time>2023-12-14T12:25:50Z</time>
      </trkpt>
      <trkpt lat="48.56342" lon="2.04952">
        <ele>67</ele>
        <time>2023-12-14T12:25:51Z</time>
      </trkpt>
      <trkpt lat="48.56347" lon="2.04953">
        <ele>67.6</ele>
        <time>2023-12-14T12:25:52Z</time>
      </trkpt>
      <trkpt lat="48.56351" lon="2.04953">
        <ele>67.6</ele>
        <time>2023-12-14T12:25:53Z</time>
      </trkpt>
      <trkpt lat="48.56353" lon="2.04953">
        <ele>67.6</ele>
        <time>2023-12-14T12:25:54Z</time>
      </trkpt>
      <trkpt lat="48.56355" lon="2.04953">
        <ele>67.6</ele>
        <time>2023-12-14T12:25:55Z</time>
      </trkpt>
      <trkpt lat="48.56358" lon="2.04954">
        <ele>67.6</ele>
        <time>2023-12-14T12:25:56Z</time>
      </trkpt>
      <trkpt lat="48.5636" lon="2.04954">
        <ele>67.6</ele>
        <time>2023-12-14T12:25:57Z</time>
      </trkpt>
      <trkpt lat="48.56363" lon="2.04954">
        <ele>67.6</ele>
        <time>2023-12-14T12:25:58Z</time>
      </trkpt>
      <trkpt lat="48.56367" lon="2.04953">
        <ele>67.6</ele>
        <time>2023-12-14T12:25:59Z</time>
      </trkpt>
      <trkpt lat="48.56371" lon="2.04952">
        <ele>66.6</ele>
        <time>2023-12-14T12:26:00Z</time>
      </trkpt>
      <trkpt lat="48.56376" lon="2.04952">
        <ele>65.8</ele>
        <time>2023-12-14T12:26:01Z</time>
      </trkpt>
      <trkpt lat="48.56381" lon="2.04951">
        <ele>65.8</ele>
        <time>2023-12-14T12:26:02Z</time>
      </trkpt>
      <trkpt lat="48.56386" lon="2.04949">
        <ele>65.8</ele>
        <time>2023-12-14T12:26:03Z</time>
      </trkpt>
      <trkpt lat="48.56392" lon="2.04947">
        <ele>64.8</ele>
        <time>2023-12-14T12:26:04Z</time>
      </trkpt>
      <trkpt lat="48.56399" lon="2.04944">
        <ele>61.6</ele>
        <time>2023-12-14T12:26:05Z</time>
      </trkpt>
      <trkpt lat="48.56405" lon="2.04941">
        <ele>61.6</ele>
        <time>2023-12-14T12:26:06Z</time>
      </trkpt>
      <trkpt lat="48.56412" lon="2.04937">
        <ele>61.6</ele>
        <time>2023-12-14T12:26:07Z</time>
      </trkpt>
      <trkpt lat="48.56419" lon="2.04933">
        <ele>60.6</ele>
        <time>2023-12-14T12:26:08Z</time>
      </trkpt>
      <trkpt lat="48.56426" lon="2.04928">
        <ele>59.8</ele>
        <time>2023-12-14T12:26:09Z</time>
      </trkpt>
      <trkpt lat="48.56432" lon="2.04922">
        <ele>59.8</ele>
        <time>2023-12-14T12:26:10Z</time>
      </trkpt>
      <trkpt lat="48.56439" lon="2.04915">
        <ele>59.8</ele>
        <time>2023-12-14T12:26:11Z</time>
      </trkpt>
      <trkpt lat="48.56446" lon="2.04908">
        <ele>58.8</ele>
        <time>2023-12-14T12:26:12Z</time>
      </trkpt>
      <trkpt lat="48.56453" lon="2.04902">
        <ele>57.4</ele>
        <time>2023-12-14T12:26:13Z</time>
      </trkpt>
      <trkpt lat="48.5646" lon="2.04897">
        <ele>57.4</ele>
        <time>2023-12-14T12:26:14Z</time>
      </trkpt>
      <trkpt lat="48.56467" lon="2.04892">
        <ele>57.4</ele>
        <time>2023-12-14T12:26:15Z</time>
      </trkpt>
      <trkpt lat="48.56474" lon="2.04887">
        <ele>56.4</ele>
        <time>2023-12-14T12:26:16Z</time>
      </trkpt>
      <trkpt lat="48.5648" lon="2.04883">
        <ele>56.4</ele>
        <time>2023-12-14T12:26:17Z</time>
      </trkpt>
      <trkpt lat="48.56487" lon="2.04879">
        <ele>56.4</ele>
        <time>2023-12-14T12:26:18Z</time>
      </trkpt>
      <trkpt lat="48.56494" lon="2.04877">
        <ele>56.4</ele>
        <time>2023-12-14T12:26:19Z</time>
      </trkpt>
      <trkpt lat="48.565" lon="2.04875">
        <ele>56.4</ele>
        <time>2023-12-14T12:26:20Z</time>
      </trkpt>
      <trkpt lat="48.56507" lon="2.04874">
        <ele>56.8</ele>
        <time>2023-12-14T12:26:21Z</time>
      </trkpt>
      <trkpt lat="48.56514" lon="2.04873">
        <ele>56.8</ele>
        <time>2023-12-14T12:26:22Z</time>
      </trkpt>
      <trkpt lat="48.5652" lon="2.04872">
        <ele>56.8</ele>
        <time>2023-12-14T12:26:23Z</time>
      </trkpt>
      <trkpt lat="48.56526" lon="2.04871">
        <ele>57.4</ele>
        <time>2023-12-14T12:26:24Z</time>
      </trkpt>
      <trkpt lat="48.56532" lon="2.04871">
        <ele>57.8</ele>
        <time>2023-12-14T12:26:25Z</time>
      </trkpt>
      <trkpt lat="48.56538" lon="2.04871">
        <ele>57.8</ele>
        <time>2023-12-14T12:26:26Z</time>
      </trkpt>
      <trkpt lat="48.56544" lon="2.04871">
        <ele>57.8</ele>
        <time>2023-12-14T12:26:27Z</time>
      </trkpt>
      <trkpt lat="48.56549" lon="2.04871">
        <ele>57.8</ele>
        <time>2023-12-14T12:26:28Z</time>
      </trkpt>
      <trkpt lat="48.56554" lon="2.04873">
        <ele>58.2</ele>
        <time>2023-12-14T12:26:29Z</time>
      </trkpt>
      <trkpt lat="48.5656" lon="2.04874">
        <ele>58.2</ele>
        <time>2023-12-14T12:26:30Z</time>
      </trkpt>
      <trkpt lat="48.56565" lon="2.04876">
        <ele>58.2</ele>
        <time>2023-12-14T12:26:31Z</time>
      </trkpt>
      <trkpt lat="48.5657" lon="2.04878">
        <ele>58.2</ele>
        <time>2023-12-14T12:26:32Z</time>
      </trkpt>
      <trkpt lat="48.56576" lon="2.0488">
        <ele>58.2</ele>
        <time>2023-12-14T12:26:33Z</time>
      </trkpt>
      <trkpt lat="48.56581" lon="2.04881">
        <ele>58.2</ele>
        <time>2023-12-14T12:26:34Z</time>
      </trkpt>
      <trkpt lat="48.56587" lon="2.04882">
        <ele>58.2</ele>
        <time>2023-12-14T12:26:35Z</time>
      </trkpt>
      <trkpt lat="48.56593" lon="2.04883">
        <ele>58.2</ele>
        <time>2023-12-14T12:26:36Z</time>
      </trkpt>
      <trkpt lat="48.56599" lon="2.04884">
        <ele>57.8</ele>
        <time>2023-12-14T12:26:37Z</time>
      </trkpt>
      <trkpt lat="48.56605" lon="2.04884">
        <ele>57.8</ele>
        <time>2023-12-14T12:26:38Z</time>
      </trkpt>
      <trkpt lat="48.56611" lon="2.04884">
        <ele>57.8</ele>
        <time>2023-12-14T12:26:39Z</time>
      </trkpt>
      <trkpt lat="48.56617" lon="2.04885">
        <ele>57.6</ele>
        <time>2023-12-14T12:26:40Z</time>
      </trkpt>
      <trkpt lat="48.56623" lon="2.04885">
        <ele>57.8</ele>
        <time>2023-12-14T12:26:41Z</time>
      </trkpt>
      <trkpt lat="48.56629" lon="2.04885">
        <ele>57.8</ele>
        <time>2023-12-14T12:26:42Z</time>
      </trkpt>
      <trkpt lat="48.56634" lon="2.04885">
        <ele>57.8</ele>
        <time>2023-12-14T12:26:43Z</time>
      </trkpt>
      <trkpt lat="48.5664" lon="2.04886">
        <ele>58.8</ele>
        <time>2023-12-14T12:26:44Z</time>
      </trkpt>
      <trkpt lat="48.56646" lon="2.04886">
        <ele>58.2</ele>
        <time>2023-12-14T12:26:45Z</time>
      </trkpt>
      <trkpt lat="48.56651" lon="2.04886">
        <ele>58.2</ele>
        <time>2023-12-14T12:26:46Z</time>
      </trkpt>
      <trkpt lat="48.56657" lon="2.04886">
        <ele>58.2</ele>
        <time>2023-12-14T12:26:47Z</time>
      </trkpt>
      <trkpt lat="48.56662" lon="2.04886">
        <ele>58.2</ele>
        <time>2023-12-14T12:26:48Z</time>
      </trkpt>
      <trkpt lat="48.56668" lon="2.04886">
        <ele>58</ele>
        <time>2023-12-14T12:26:49Z</time>
      </trkpt>
      <trkpt lat="48.56673" lon="2.04886">
        <ele>58</ele>
        <time>2023-12-14T12:26:50Z</time>
      </trkpt>
      <trkpt lat="48.56678" lon="2.04885">
        <ele>58</ele>
        <time>2023-12-14T12:26:51Z</time>
      </trkpt>
      <trkpt lat="48.56683" lon="2.04883">
        <ele>59</ele>
        <time>2023-12-14T12:26:52Z</time>
      </trkpt>
      <trkpt lat="48.56687" lon="2.04879">
        <ele>59.6</ele>
        <time>2023-12-14T12:26:53Z</time>
      </trkpt>
      <trkpt lat="48.56691" lon="2.04874">
        <ele>59.6</ele>
        <time>2023-12-14T12:26:54Z</time>
      </trkpt>
      <trkpt lat="48.56693" lon="2.04868">
        <ele>59.6</ele>
        <time>2023-12-14T12:26:55Z</time>
      </trkpt>
      <trkpt lat="48.56695" lon="2.04862">
        <ele>59.6</ele>
        <time>2023-12-14T12:26:56Z</time>
      </trkpt>
      <trkpt lat="48.56697" lon="2.04855">
        <ele>60</ele>
        <time>2023-12-14T12:26:57Z</time>
      </trkpt>
      <trkpt lat="48.56698" lon="2.04849">
        <ele>60</ele>
        <time>2023-12-14T12:26:58Z</time>
      </trkpt>
      <trkpt lat="48.567" lon="2.04844">
        <ele>60</ele>
        <time>2023-12-14T12:26:59Z</time>
      </trkpt>
      <trkpt lat="48.56701" lon="2.04838">
        <ele>60.8</ele>
        <time>2023-12-14T12:27:00Z</time>
      </trkpt>
      <trkpt lat="48.56702" lon="2.04832">
        <ele>61.2</ele>
        <time>2023-12-14T12:27:01Z</time>
      </trkpt>
      <trkpt lat="48.56704" lon="2.04826">
        <ele>61.2</ele>
        <time>2023-12-14T12:27:02Z</time>
      </trkpt>
      <trkpt lat="48.56705" lon="2.0482">
        <ele>61.2</ele>
        <time>2023-12-14T12:27:03Z</time>
      </trkpt>
      <trkpt lat="48.56706" lon="2.04815">
        <ele>61.2</ele>
        <time>2023-12-14T12:27:04Z</time>
      </trkpt>
      <trkpt lat="48.56707" lon="2.04809">
        <ele>61.4</ele>
        <time>2023-12-14T12:27:05Z</time>
      </trkpt>
      <trkpt lat="48.56709" lon="2.04802">
        <ele>61.4</ele>
        <time>2023-12-14T12:27:06Z</time>
      </trkpt>
      <trkpt lat="48.5671" lon="2.04796">
        <ele>61.4</ele>
        <time>2023-12-14T12:27:07Z</time>
      </trkpt>
      <trkpt lat="48.56712" lon="2.04789">
        <ele>60.8</ele>
        <time>2023-12-14T12:27:08Z</time>
      </trkpt>
      <trkpt lat="48.56714" lon="2.04782">
        <ele>61</ele>
        <time>2023-12-14T12:27:09Z</time>
      </trkpt>
      <trkpt lat="48.56716" lon="2.04776">
        <ele>61</ele>
        <time>2023-12-14T12:27:10Z</time>
      </trkpt>
      <trkpt lat="48.56717" lon="2.04769">
        <ele>61</ele>
        <time>2023-12-14T12:27:11Z</time>
      </trkpt>
      <trkpt lat="48.56719" lon="2.04762">
        <ele>61</ele>
        <time>2023-12-14T12:27:12Z</time>
      </trkpt>
      <trkpt lat="48.5672" lon="2.04755">
        <ele>61</ele>
        <time>2023-12-14T12:27:13Z</time>
      </trkpt>
      <trkpt lat="48.56722" lon="2.04748">
        <ele>61</ele>
        <time>2023-12-14T12:27:14Z</time>
      </trkpt>
      <trkpt lat="48.56723" lon="2.04741">
        <ele>61</ele>
        <time>2023-12-14T12:27:15Z</time>
      </trkpt>
      <trkpt lat="48.56725" lon="2.04734">
        <ele>61</ele>
        <time>2023-12-14T12:27:16Z</time>
      </trkpt>
      <trkpt lat="48.56726" lon="2.04728">
        <ele>61</ele>
        <time>2023-12-14T12:27:17Z</time>
      </trkpt>
      <trkpt lat="48.56727" lon="2.04721">
        <ele>61</ele>
        <time>2023-12-14T12:27:18Z</time>
      </trkpt>
      <trkpt lat="48.56729" lon="2.04714">
        <ele>61</ele>
        <time>2023-12-14T12:27:19Z</time>
      </trkpt>
      <trkpt lat="48.56729" lon="2.04707">
        <ele>61</ele>
        <time>2023-12-14T12:27:20Z</time>
      </trkpt>
      <trkpt lat="48.5673" lon="2.047">
        <ele>60.8</ele>
        <time>2023-12-14T12:27:21Z</time>
      </trkpt>
      <trkpt lat="48.5673" lon="2.04693">
        <ele>60.8</ele>
        <time>2023-12-14T12:27:22Z</time>
      </trkpt>
      <trkpt lat="48.5673" lon="2.04685">
        <ele>60.8</ele>
        <time>2023-12-14T12:27:23Z</time>
      </trkpt>
      <trkpt lat="48.5673" lon="2.04678">
        <ele>60.8</ele>
        <time>2023-12-14T12:27:24Z</time>
      </trkpt>
      <trkpt lat="48.56731" lon="2.0467">
        <ele>61.2</ele>
        <time>2023-12-14T12:27:25Z</time>
      </trkpt>
      <trkpt lat="48.56731" lon="2.04663">
        <ele>61.2</ele>
        <time>2023-12-14T12:27:26Z</time>
      </trkpt>
      <trkpt lat="48.56731" lon="2.04655">
        <ele>61.2</ele>
        <time>2023-12-14T12:27:27Z</time>
      </trkpt>
      <trkpt lat="48.56731" lon="2.04647">
        <ele>61.2</ele>
        <time>2023-12-14T12:27:28Z</time>
      </trkpt>
      <trkpt lat="48.56731" lon="2.04639">
        <ele>60.6</ele>
        <time>2023-12-14T12:27:29Z</time>
      </trkpt>
      <trkpt lat="48.56732" lon="2.04632">
        <ele>60.6</ele>
        <time>2023-12-14T12:27:30Z</time>
      </trkpt>
      <trkpt lat="48.56733" lon="2.04624">
        <ele>60.6</ele>
        <time>2023-12-14T12:27:31Z</time>
      </trkpt>
      <trkpt lat="48.56735" lon="2.04616">
        <ele>60.6</ele>
        <time>2023-12-14T12:27:32Z</time>
      </trkpt>
      <trkpt lat="48.56736" lon="2.04608">
        <ele>60.8</ele>
        <time>2023-12-14T12:27:33Z</time>
      </trkpt>
      <trkpt lat="48.56738" lon="2.04601">
        <ele>60.8</ele>
        <time>2023-12-14T12:27:34Z</time>
      </trkpt>
      <trkpt lat="48.5674" lon="2.04594">
        <ele>60.8</ele>
        <time>2023-12-14T12:27:35Z</time>
      </trkpt>
      <trkpt lat="48.56742" lon="2.04586">
        <ele>60.8</ele>
        <time>2023-12-14T12:27:36Z</time>
      </trkpt>
      <trkpt lat="48.56744" lon="2.04579">
        <ele>60.8</ele>
        <time>2023-12-14T12:27:37Z</time>
      </trkpt>
      <trkpt lat="48.56746" lon="2.04572">
        <ele>60.8</ele>
        <time>2023-12-14T12:27:38Z</time>
      </trkpt>
      <trkpt lat="48.56748" lon="2.04565">
        <ele>60.8</ele>
        <time>2023-12-14T12:27:39Z</time>
      </trkpt>
      <trkpt lat="48.5675" lon="2.04558">
        <ele>60.8</ele>
        <time>2023-12-14T12:27:40Z</time>
      </trkpt>
      <trkpt lat="48.56752" lon="2.04551">
        <ele>60.4</ele>
        <time>2023-12-14T12:27:41Z</time>
      </trkpt>
      <trkpt lat="48.56754" lon="2.04544">
        <ele>60.4</ele>
        <time>2023-12-14T12:27:42Z</time>
      </trkpt>
      <trkpt lat="48.56756" lon="2.04537">
        <ele>60.4</ele>
        <time>2023-12-14T12:27:43Z</time>
      </trkpt>
      <trkpt lat="48.56759" lon="2.0453">
        <ele>60.4</ele>
        <time>2023-12-14T12:27:44Z</time>
      </trkpt>
      <trkpt lat="48.56761" lon="2.04522">
        <ele>60.8</ele>
        <time>2023-12-14T12:27:45Z</time>
      </trkpt>
      <trkpt lat="48.56763" lon="2.04514">
        <ele>60.8</ele>
        <time>2023-12-14T12:27:46Z</time>
      </trkpt>
      <trkpt lat="48.56765" lon="2.04507">
        <ele>60.8</ele>
        <time>2023-12-14T12:27:47Z</time>
      </trkpt>
      <trkpt lat="48.56768" lon="2.04499">
        <ele>60.8</ele>
        <time>2023-12-14T12:27:48Z</time>
      </trkpt>
      <trkpt lat="48.5677" lon="2.04492">
        <ele>61.2</ele>
        <time>2023-12-14T12:27:49Z</time>
      </trkpt>
      <trkpt lat="48.56772" lon="2.04485">
        <ele>61.2</ele>
        <time>2023-12-14T12:27:50Z</time>
      </trkpt>
      <trkpt lat="48.56774" lon="2.04477">
        <ele>61.2</ele>
        <time>2023-12-14T12:27:51Z</time>
      </trkpt>
      <trkpt lat="48.56777" lon="2.0447">
        <ele>60.2</ele>
        <time>2023-12-14T12:27:52Z</time>
      </trkpt>
      <trkpt lat="48.56779" lon="2.04463">
        <ele>60.6</ele>
        <time>2023-12-14T12:27:53Z</time>
      </trkpt>
      <trkpt lat="48.56781" lon="2.04456">
        <ele>60.6</ele>
        <time>2023-12-14T12:27:54Z</time>
      </trkpt>
      <trkpt lat="48.56783" lon="2.04448">
        <ele>60.6</ele>
        <time>2023-12-14T12:27:55Z</time>
      </trkpt>
      <trkpt lat="48.56786" lon="2.04441">
        <ele>61.6</ele>
        <time>2023-12-14T12:27:56Z</time>
      </trkpt>
      <trkpt lat="48.56788" lon="2.04434">
        <ele>60.6</ele>
        <time>2023-12-14T12:27:57Z</time>
      </trkpt>
      <trkpt lat="48.5679" lon="2.04426">
        <ele>60.6</ele>
        <time>2023-12-14T12:27:58Z</time>
      </trkpt>
      <trkpt lat="48.56792" lon="2.04419">
        <ele>60.6</ele>
        <time>2023-12-14T12:27:59Z</time>
      </trkpt>
      <trkpt lat="48.56795" lon="2.04411">
        <ele>61.6</ele>
        <time>2023-12-14T12:28:00Z</time>
      </trkpt>
      <trkpt lat="48.56797" lon="2.04404">
        <ele>61.6</ele>
        <time>2023-12-14T12:28:01Z</time>
      </trkpt>
      <trkpt lat="48.568" lon="2.04397">
        <ele>61.6</ele>
        <time>2023-12-14T12:28:02Z</time>
      </trkpt>
      <trkpt lat="48.56801" lon="2.0439">
        <ele>61.6</ele>
        <time>2023-12-14T12:28:03Z</time>
      </trkpt>
      <trkpt lat="48.56803" lon="2.04383">
        <ele>61.6</ele>
        <time>2023-12-14T12:28:04Z</time>
      </trkpt>
      <trkpt lat="48.56805" lon="2.04376">
        <ele>60.6</ele>
        <time>2023-12-14T12:28:05Z</time>
      </trkpt>
      <trkpt lat="48.56806" lon="2.04369">
        <ele>60.6</ele>
        <time>2023-12-14T12:28:06Z</time>
      </trkpt>
      <trkpt lat="48.56807" lon="2.04363">
        <ele>60.6</ele>
        <time>2023-12-14T12:28:07Z</time>
      </trkpt>
      <trkpt lat="48.56808" lon="2.04355">
        <ele>61.6</ele>
        <time>2023-12-14T12:28:08Z</time>
      </trkpt>
      <trkpt lat="48.56809" lon="2.04348">
        <ele>60.8</ele>
        <time>2023-12-14T12:28:09Z</time>
      </trkpt>
      <trkpt lat="48.5681" lon="2.0434">
        <ele>60.8</ele>
        <time>2023-12-14T12:28:10Z</time>
      </trkpt>
      <trkpt lat="48.56811" lon="2.04333">
        <ele>60.8</ele>
        <time>2023-12-14T12:28:11Z</time>
      </trkpt>
      <trkpt lat="48.56813" lon="2.04326">
        <ele>60.8</ele>
        <time>2023-12-14T12:28:12Z</time>
      </trkpt>
      <trkpt lat="48.56814" lon="2.04319">
        <ele>61.2</ele>
        <time>2023-12-14T12:28:13Z</time>
      </trkpt>
      <trkpt lat="48.56817" lon="2.04313">
        <ele>61.2</ele>
        <time>2023-12-14T12:28:14Z</time>
      </trkpt>
      <trkpt lat="48.56819" lon="2.04306">
        <ele>61.2</ele>
        <time>2023-12-14T12:28:15Z</time>
      </trkpt>
      <trkpt lat="48.56821" lon="2.043">
        <ele>62</ele>
        <time>2023-12-14T12:28:16Z</time>
      </trkpt>
      <trkpt lat="48.56822" lon="2.04293">
        <ele>62</ele>
        <time>2023-12-14T12:28:17Z</time>
      </trkpt>
      <trkpt lat="48.56823" lon="2.04286">
        <ele>62</ele>
        <time>2023-12-14T12:28:18Z</time>
      </trkpt>
      <trkpt lat="48.56825" lon="2.04279">
        <ele>62</ele>
        <time>2023-12-14T12:28:19Z</time>
      </trkpt>
      <trkpt lat="48.56826" lon="2.04272">
        <ele>62.6</ele>
        <time>2023-12-14T12:28:20Z</time>
      </trkpt>
      <trkpt lat="48.56827" lon="2.04265">
        <ele>63.2</ele>
        <time>2023-12-14T12:28:21Z</time>
      </trkpt>
      <trkpt lat="48.56828" lon="2.04257">
        <ele>63.2</ele>
        <time>2023-12-14T12:28:22Z</time>
      </trkpt>
      <trkpt lat="48.56829" lon="2.04251">
        <ele>63.2</ele>
        <time>2023-12-14T12:28:23Z</time>
      </trkpt>
      <trkpt lat="48.5683" lon="2.04245">
        <ele>63.2</ele>
        <time>2023-12-14T12:28:24Z</time>
      </trkpt>
      <trkpt lat="48.56831" lon="2.04239">
        <ele>64.2</ele>
        <time>2023-12-14T12:28:25Z</time>
      </trkpt>
      <trkpt lat="48.56832" lon="2.04232">
        <ele>64.2</ele>
        <time>2023-12-14T12:28:26Z</time>
      </trkpt>
      <trkpt lat="48.56833" lon="2.04226">
        <ele>64.2</ele>
        <time>2023-12-14T12:28:27Z</time>
      </trkpt>
      <trkpt lat="48.56834" lon="2.04221">
        <ele>64.2</ele>
        <time>2023-12-14T12:28:28Z</time>
      </trkpt>
      <trkpt lat="48.56834" lon="2.04215">
        <ele>64.8</ele>
        <time>2023-12-14T12:28:29Z</time>
      </trkpt>
      <trkpt lat="48.56835" lon="2.0421">
        <ele>64.8</ele>
        <time>2023-12-14T12:28:30Z</time>
      </trkpt>
      <trkpt lat="48.56836" lon="2.04204">
        <ele>64.8</ele>
        <time>2023-12-14T12:28:31Z</time>
      </trkpt>
      <trkpt lat="48.56836" lon="2.04198">
        <ele>65.2</ele>
        <time>2023-12-14T12:28:32Z</time>
      </trkpt>
      <trkpt lat="48.56836" lon="2.04192">
        <ele>65.6</ele>
        <time>2023-12-14T12:28:33Z</time>
      </trkpt>
      <trkpt lat="48.56837" lon="2.04185">
        <ele>65.6</ele>
        <time>2023-12-14T12:28:34Z</time>
      </trkpt>
      <trkpt lat="48.56837" lon="2.04178">
        <ele>65.6</ele>
        <time>2023-12-14T12:28:35Z</time>
      </trkpt>
      <trkpt lat="48.56838" lon="2.04171">
        <ele>64.8</ele>
        <time>2023-12-14T12:28:36Z</time>
      </trkpt>
      <trkpt lat="48.56838" lon="2.04164">
        <ele>65</ele>
        <time>2023-12-14T12:28:37Z</time>
      </trkpt>
      <trkpt lat="48.56839" lon="2.04156">
        <ele>65</ele>
        <time>2023-12-14T12:28:38Z</time>
      </trkpt>
      <trkpt lat="48.5684" lon="2.04149">
        <ele>65</ele>
        <time>2023-12-14T12:28:39Z</time>
      </trkpt>
      <trkpt lat="48.56841" lon="2.04142">
        <ele>65</ele>
        <time>2023-12-14T12:28:40Z</time>
      </trkpt>
      <trkpt lat="48.56841" lon="2.04135">
        <ele>65</ele>
        <time>2023-12-14T12:28:41Z</time>
      </trkpt>
      <trkpt lat="48.56842" lon="2.04128">
        <ele>65</ele>
        <time>2023-12-14T12:28:42Z</time>
      </trkpt>
      <trkpt lat="48.56843" lon="2.04121">
        <ele>65</ele>
        <time>2023-12-14T12:28:43Z</time>
      </trkpt>
      <trkpt lat="48.56844" lon="2.04113">
        <ele>64.6</ele>
        <time>2023-12-14T12:28:44Z</time>
      </trkpt>
      <trkpt lat="48.56844" lon="2.04106">
        <ele>64.2</ele>
        <time>2023-12-14T12:28:45Z</time>
      </trkpt>
      <trkpt lat="48.56845" lon="2.041">
        <ele>64.2</ele>
        <time>2023-12-14T12:28:46Z</time>
      </trkpt>
      <trkpt lat="48.56846" lon="2.04093">
        <ele>64.2</ele>
        <time>2023-12-14T12:28:47Z</time>
      </trkpt>
      <trkpt lat="48.56847" lon="2.04085">
        <ele>64.6</ele>
        <time>2023-12-14T12:28:48Z</time>
      </trkpt>
      <trkpt lat="48.56848" lon="2.04078">
        <ele>64.2</ele>
        <time>2023-12-14T12:28:49Z</time>
      </trkpt>
      <trkpt lat="48.56849" lon="2.04071">
        <ele>64.2</ele>
        <time>2023-12-14T12:28:50Z</time>
      </trkpt>
      <trkpt lat="48.5685" lon="2.04063">
        <ele>64.2</ele>
        <time>2023-12-14T12:28:51Z</time>
      </trkpt>
      <trkpt lat="48.56851" lon="2.04056">
        <ele>64.6</ele>
        <time>2023-12-14T12:28:52Z</time>
      </trkpt>
      <trkpt lat="48.56851" lon="2.04048">
        <ele>65.8</ele>
        <time>2023-12-14T12:28:53Z</time>
      </trkpt>
      <trkpt lat="48.56853" lon="2.04041">
        <ele>65.8</ele>
        <time>2023-12-14T12:28:54Z</time>
      </trkpt>
      <trkpt lat="48.56853" lon="2.04033">
        <ele>65.8</ele>
        <time>2023-12-14T12:28:55Z</time>
      </trkpt>
      <trkpt lat="48.56854" lon="2.04026">
        <ele>65.8</ele>
        <time>2023-12-14T12:28:56Z</time>
      </trkpt>
      <trkpt lat="48.56856" lon="2.04019">
        <ele>65.8</ele>
        <time>2023-12-14T12:28:57Z</time>
      </trkpt>
      <trkpt lat="48.56856" lon="2.04011">
        <ele>65.8</ele>
        <time>2023-12-14T12:28:58Z</time>
      </trkpt>
      <trkpt lat="48.56857" lon="2.04003">
        <ele>65.8</ele>
        <time>2023-12-14T12:28:59Z</time>
      </trkpt>
      <trkpt lat="48.56858" lon="2.03996">
        <ele>66.2</ele>
        <time>2023-12-14T12:29:00Z</time>
      </trkpt>
      <trkpt lat="48.56859" lon="2.03989">
        <ele>65.8</ele>
        <time>2023-12-14T12:29:01Z</time>
      </trkpt>
      <trkpt lat="48.5686" lon="2.03982">
        <ele>65.8</ele>
        <time>2023-12-14T12:29:02Z</time>
      </trkpt>
      <trkpt lat="48.56861" lon="2.03974">
        <ele>65.8</ele>
        <time>2023-12-14T12:29:03Z</time>
      </trkpt>
      <trkpt lat="48.56862" lon="2.03967">
        <ele>66.8</ele>
        <time>2023-12-14T12:29:04Z</time>
      </trkpt>
      <trkpt lat="48.56864" lon="2.0396">
        <ele>67.4</ele>
        <time>2023-12-14T12:29:05Z</time>
      </trkpt>
      <trkpt lat="48.56866" lon="2.03954">
        <ele>67.4</ele>
        <time>2023-12-14T12:29:06Z</time>
      </trkpt>
      <trkpt lat="48.56867" lon="2.03947">
        <ele>67.4</ele>
        <time>2023-12-14T12:29:07Z</time>
      </trkpt>
      <trkpt lat="48.56869" lon="2.03941">
        <ele>67.4</ele>
        <time>2023-12-14T12:29:08Z</time>
      </trkpt>
      <trkpt lat="48.56871" lon="2.03936">
        <ele>67.6</ele>
        <time>2023-12-14T12:29:09Z</time>
      </trkpt>
      <trkpt lat="48.56873" lon="2.0393">
        <ele>67.6</ele>
        <time>2023-12-14T12:29:10Z</time>
      </trkpt>
      <trkpt lat="48.56874" lon="2.03925">
        <ele>67.6</ele>
        <time>2023-12-14T12:29:11Z</time>
      </trkpt>
      <trkpt lat="48.56876" lon="2.0392">
        <ele>67.6</ele>
        <time>2023-12-14T12:29:12Z</time>
      </trkpt>
      <trkpt lat="48.56878" lon="2.03914">
        <ele>68.6</ele>
        <time>2023-12-14T12:29:13Z</time>
      </trkpt>
      <trkpt lat="48.56879" lon="2.03909">
        <ele>68.6</ele>
        <time>2023-12-14T12:29:14Z</time>
      </trkpt>
      <trkpt lat="48.56881" lon="2.03904">
        <ele>68.6</ele>
        <time>2023-12-14T12:29:15Z</time>
      </trkpt>
      <trkpt lat="48.56883" lon="2.03899">
        <ele>69.6</ele>
        <time>2023-12-14T12:29:16Z</time>
      </trkpt>
      <trkpt lat="48.56886" lon="2.03893">
        <ele>70</ele>
        <time>2023-12-14T12:29:17Z</time>
      </trkpt>
      <trkpt lat="48.56887" lon="2.03889">
        <ele>70</ele>
        <time>2023-12-14T12:29:18Z</time>
      </trkpt>
      <trkpt lat="48.5689" lon="2.03884">
        <ele>70</ele>
        <time>2023-12-14T12:29:19Z</time>
      </trkpt>
      <trkpt lat="48.56892" lon="2.0388">
        <ele>70.6</ele>
        <time>2023-12-14T12:29:20Z</time>
      </trkpt>
      <trkpt lat="48.56894" lon="2.03876">
        <ele>70.4</ele>
        <time>2023-12-14T12:29:21Z</time>
      </trkpt>
      <trkpt lat="48.56896" lon="2.03871">
        <ele>70.4</ele>
        <time>2023-12-14T12:29:22Z</time>
      </trkpt>
      <trkpt lat="48.56898" lon="2.03866">
        <ele>70.4</ele>
        <time>2023-12-14T12:29:23Z</time>
      </trkpt>
      <trkpt lat="48.569" lon="2.03862">
        <ele>71.2</ele>
        <time>2023-12-14T12:29:24Z</time>
      </trkpt>
      <trkpt lat="48.56903" lon="2.03857">
        <ele>72</ele>
        <time>2023-12-14T12:29:25Z</time>
      </trkpt>
      <trkpt lat="48.56904" lon="2.03852">
        <ele>72</ele>
        <time>2023-12-14T12:29:26Z</time>
      </trkpt>
      <trkpt lat="48.56907" lon="2.03847">
        <ele>72</ele>
        <time>2023-12-14T12:29:27Z</time>
      </trkpt>
      <trkpt lat="48.56909" lon="2.03842">
        <ele>72</ele>
        <time>2023-12-14T12:29:28Z</time>
      </trkpt>
      <trkpt lat="48.56911" lon="2.03838">
        <ele>72.8</ele>
        <time>2023-12-14T12:29:29Z</time>
      </trkpt>
      <trkpt lat="48.56913" lon="2.03832">
        <ele>72.8</ele>
        <time>2023-12-14T12:29:30Z</time>
      </trkpt>
      <trkpt lat="48.56915" lon="2.03826">
        <ele>72.8</ele>
        <time>2023-12-14T12:29:31Z</time>
      </trkpt>
      <trkpt lat="48.56917" lon="2.0382">
        <ele>72.8</ele>
        <time>2023-12-14T12:29:32Z</time>
      </trkpt>
      <trkpt lat="48.56918" lon="2.03815">
        <ele>73.2</ele>
        <time>2023-12-14T12:29:33Z</time>
      </trkpt>
      <trkpt lat="48.5692" lon="2.0381">
        <ele>73.2</ele>
        <time>2023-12-14T12:29:34Z</time>
      </trkpt>
      <trkpt lat="48.56922" lon="2.03805">
        <ele>73.2</ele>
        <time>2023-12-14T12:29:35Z</time>
      </trkpt>
      <trkpt lat="48.56924" lon="2.03799">
        <ele>73.2</ele>
        <time>2023-12-14T12:29:36Z</time>
      </trkpt>
      <trkpt lat="48.56926" lon="2.03794">
        <ele>74.2</ele>
        <time>2023-12-14T12:29:37Z</time>
      </trkpt>
      <trkpt lat="48.56927" lon="2.03788">
        <ele>74.2</ele>
        <time>2023-12-14T12:29:38Z</time>
      </trkpt>
      <trkpt lat="48.56929" lon="2.03783">
        <ele>74.2</ele>
        <time>2023-12-14T12:29:39Z</time>
      </trkpt>
      <trkpt lat="48.56931" lon="2.03777">
        <ele>74.2</ele>
        <time>2023-12-14T12:29:40Z</time>
      </trkpt>
      <trkpt lat="48.56933" lon="2.03771">
        <ele>74.6</ele>
        <time>2023-12-14T12:29:41Z</time>
      </trkpt>
      <trkpt lat="48.56935" lon="2.03765">
        <ele>74.6</ele>
        <time>2023-12-14T12:29:42Z</time>
      </trkpt>
      <trkpt lat="48.56937" lon="2.03759">
        <ele>74.6</ele>
        <time>2023-12-14T12:29:43Z</time>
      </trkpt>
      <trkpt lat="48.56939" lon="2.03753">
        <ele>75.2</ele>
        <time>2023-12-14T12:29:44Z</time>
      </trkpt>
      <trkpt lat="48.56941" lon="2.03748">
        <ele>75.2</ele>
        <time>2023-12-14T12:29:45Z</time>
      </trkpt>
      <trkpt lat="48.56943" lon="2.03742">
        <ele>75.2</ele>
        <time>2023-12-14T12:29:46Z</time>
      </trkpt>
      <trkpt lat="48.56945" lon="2.03736">
        <ele>75.2</ele>
        <time>2023-12-14T12:29:47Z</time>
      </trkpt>
      <trkpt lat="48.56947" lon="2.0373">
        <ele>75.6</ele>
        <time>2023-12-14T12:29:48Z</time>
      </trkpt>
      <trkpt lat="48.56949" lon="2.03725">
        <ele>75.6</ele>
        <time>2023-12-14T12:29:49Z</time>
      </trkpt>
      <trkpt lat="48.56951" lon="2.03719">
        <ele>75.6</ele>
        <time>2023-12-14T12:29:50Z</time>
      </trkpt>
      <trkpt lat="48.56953" lon="2.03713">
        <ele>75.6</ele>
        <time>2023-12-14T12:29:51Z</time>
      </trkpt>
      <trkpt lat="48.56955" lon="2.03707">
        <ele>76.6</ele>
        <time>2023-12-14T12:29:52Z</time>
      </trkpt>
      <trkpt lat="48.56956" lon="2.03702">
        <ele>77.2</ele>
        <time>2023-12-14T12:29:53Z</time>
      </trkpt>
      <trkpt lat="48.56958" lon="2.03697">
        <ele>77.2</ele>
        <time>2023-12-14T12:29:54Z</time>
      </trkpt>
      <trkpt lat="48.5696" lon="2.03692">
        <ele>77.2</ele>
        <time>2023-12-14T12:29:55Z</time>
      </trkpt>
      <trkpt lat="48.56962" lon="2.03687">
        <ele>77.2</ele>
        <time>2023-12-14T12:29:56Z</time>
      </trkpt>
      <trkpt lat="48.56963" lon="2.03682">
        <ele>78</ele>
        <time>2023-12-14T12:29:57Z</time>
      </trkpt>
      <trkpt lat="48.56965" lon="2.03676">
        <ele>78</ele>
        <time>2023-12-14T12:29:58Z</time>
      </trkpt>
      <trkpt lat="48.56967" lon="2.0367">
        <ele>78</ele>
        <time>2023-12-14T12:29:59Z</time>
      </trkpt>
      <trkpt lat="48.56968" lon="2.03664">
        <ele>78</ele>
        <time>2023-12-14T12:30:00Z</time>
      </trkpt>
      <trkpt lat="48.5697" lon="2.03658">
        <ele>78.2</ele>
        <time>2023-12-14T12:30:01Z</time>
      </trkpt>
      <trkpt lat="48.56972" lon="2.03652">
        <ele>78.2</ele>
        <time>2023-12-14T12:30:02Z</time>
      </trkpt>
      <trkpt lat="48.56974" lon="2.03646">
        <ele>78.2</ele>
        <time>2023-12-14T12:30:03Z</time>
      </trkpt>
      <trkpt lat="48.56975" lon="2.0364">
        <ele>78</ele>
        <time>2023-12-14T12:30:04Z</time>
      </trkpt>
      <trkpt lat="48.56977" lon="2.03635">
        <ele>78.2</ele>
        <time>2023-12-14T12:30:05Z</time>
      </trkpt>
      <trkpt lat="48.56979" lon="2.0363">
        <ele>78.2</ele>
        <time>2023-12-14T12:30:06Z</time>
      </trkpt>
      <trkpt lat="48.56981" lon="2.03625">
        <ele>78.2</ele>
        <time>2023-12-14T12:30:07Z</time>
      </trkpt>
      <trkpt lat="48.56982" lon="2.0362">
        <ele>78.4</ele>
        <time>2023-12-14T12:30:08Z</time>
      </trkpt>
      <trkpt lat="48.56984" lon="2.03615">
        <ele>78.6</ele>
        <time>2023-12-14T12:30:09Z</time>
      </trkpt>
      <trkpt lat="48.56985" lon="2.0361">
        <ele>78.6</ele>
        <time>2023-12-14T12:30:10Z</time>
      </trkpt>
      <trkpt lat="48.56987" lon="2.03606">
        <ele>78.6</ele>
        <time>2023-12-14T12:30:11Z</time>
      </trkpt>
      <trkpt lat="48.56989" lon="2.03601">
        <ele>78</ele>
        <time>2023-12-14T12:30:12Z</time>
      </trkpt>
      <trkpt lat="48.56991" lon="2.03596">
        <ele>77.6</ele>
        <time>2023-12-14T12:30:13Z</time>
      </trkpt>
      <trkpt lat="48.56992" lon="2.03591">
        <ele>77.6</ele>
        <time>2023-12-14T12:30:14Z</time>
      </trkpt>
      <trkpt lat="48.56995" lon="2.03585">
        <ele>77.6</ele>
        <time>2023-12-14T12:30:15Z</time>
      </trkpt>
      <trkpt lat="48.56997" lon="2.0358">
        <ele>76.8</ele>
        <time>2023-12-14T12:30:16Z</time>
      </trkpt>
      <trkpt lat="48.56999" lon="2.03574">
        <ele>76.6</ele>
        <time>2023-12-14T12:30:17Z</time>
      </trkpt>
      <trkpt lat="48.57002" lon="2.03567">
        <ele>76.6</ele>
        <time>2023-12-14T12:30:18Z</time>
      </trkpt>
      <trkpt lat="48.57005" lon="2.03561">
        <ele>76.6</ele>
        <time>2023-12-14T12:30:19Z</time>
      </trkpt>
      <trkpt lat="48.57008" lon="2.03554">
        <ele>75.6</ele>
        <time>2023-12-14T12:30:20Z</time>
      </trkpt>
      <trkpt lat="48.57011" lon="2.03547">
        <ele>74.6</ele>
        <time>2023-12-14T12:30:21Z</time>
      </trkpt>
      <trkpt lat="48.57013" lon="2.03541">
        <ele>74.6</ele>
        <time>2023-12-14T12:30:22Z</time>
      </trkpt>
      <trkpt lat="48.57015" lon="2.03536">
        <ele>74.6</ele>
        <time>2023-12-14T12:30:23Z</time>
      </trkpt>
      <trkpt lat="48.57017" lon="2.03531">
        <ele>75.2</ele>
        <time>2023-12-14T12:30:24Z</time>
      </trkpt>
      <trkpt lat="48.57018" lon="2.03529">
        <ele>75.4</ele>
        <time>2023-12-14T12:30:25Z</time>
      </trkpt>
      <trkpt lat="48.57019" lon="2.03527">
        <ele>75.4</ele>
        <time>2023-12-14T12:30:26Z</time>
      </trkpt>
      <trkpt lat="48.57019" lon="2.03525">
        <ele>75.4</ele>
        <time>2023-12-14T12:30:27Z</time>
      </trkpt>
      <trkpt lat="48.5702" lon="2.03523">
        <ele>75.4</ele>
        <time>2023-12-14T12:30:28Z</time>
      </trkpt>
      <trkpt lat="48.57021" lon="2.03519">
        <ele>75</ele>
        <time>2023-12-14T12:30:29Z</time>
      </trkpt>
      <trkpt lat="48.57021" lon="2.03514">
        <ele>75</ele>
        <time>2023-12-14T12:30:30Z</time>
      </trkpt>
      <trkpt lat="48.5702" lon="2.03508">
        <ele>75</ele>
        <time>2023-12-14T12:30:31Z</time>
      </trkpt>
      <trkpt lat="48.57019" lon="2.03502">
        <ele>74</ele>
        <time>2023-12-14T12:30:32Z</time>
      </trkpt>
      <trkpt lat="48.57016" lon="2.03495">
        <ele>73.8</ele>
        <time>2023-12-14T12:30:33Z</time>
      </trkpt>
      <trkpt lat="48.57014" lon="2.03487">
        <ele>73.8</ele>
        <time>2023-12-14T12:30:34Z</time>
      </trkpt>
      <trkpt lat="48.57011" lon="2.03479">
        <ele>73.8</ele>
        <time>2023-12-14T12:30:35Z</time>
      </trkpt>
      <trkpt lat="48.57007" lon="2.0347">
        <ele>72.8</ele>
        <time>2023-12-14T12:30:36Z</time>
      </trkpt>
      <trkpt lat="48.57004" lon="2.03461">
        <ele>69.8</ele>
        <time>2023-12-14T12:30:37Z</time>
      </trkpt>
      <trkpt lat="48.57" lon="2.03451">
        <ele>69.8</ele>
        <time>2023-12-14T12:30:38Z</time>
      </trkpt>
      <trkpt lat="48.56997" lon="2.03442">
        <ele>69.8</ele>
        <time>2023-12-14T12:30:39Z</time>
      </trkpt>
      <trkpt lat="48.56996" lon="2.03433">
        <ele>68.8</ele>
        <time>2023-12-14T12:30:40Z</time>
      </trkpt>
      <trkpt lat="48.56996" lon="2.03424">
        <ele>68.2</ele>
        <time>2023-12-14T12:30:41Z</time>
      </trkpt>
      <trkpt lat="48.56998" lon="2.03415">
        <ele>68.2</ele>
        <time>2023-12-14T12:30:42Z</time>
      </trkpt>
      <trkpt lat="48.57001" lon="2.03408">
        <ele>68.2</ele>
        <time>2023-12-14T12:30:43Z</time>
      </trkpt>
      <trkpt lat="48.57006" lon="2.03403">
        <ele>67.2</ele>
        <time>2023-12-14T12:30:44Z</time>
      </trkpt>
      <trkpt lat="48.57011" lon="2.034">
        <ele>66.4</ele>
        <time>2023-12-14T12:30:45Z</time>
      </trkpt>
      <trkpt lat="48.57015" lon="2.03398">
        <ele>66.4</ele>
        <time>2023-12-14T12:30:46Z</time>
      </trkpt>
      <trkpt lat="48.57019" lon="2.03395">
        <ele>66.4</ele>
        <time>2023-12-14T12:30:47Z</time>
      </trkpt>
      <trkpt lat="48.57023" lon="2.03392">
        <ele>67.4</ele>
        <time>2023-12-14T12:30:48Z</time>
      </trkpt>
      <trkpt lat="48.57027" lon="2.0339">
        <ele>67.6</ele>
        <time>2023-12-14T12:30:49Z</time>
      </trkpt>
      <trkpt lat="48.57031" lon="2.03388">
        <ele>67.6</ele>
        <time>2023-12-14T12:30:50Z</time>
      </trkpt>
      <trkpt lat="48.57035" lon="2.03386">
        <ele>67.6</ele>
        <time>2023-12-14T12:30:51Z</time>
      </trkpt>
      <trkpt lat="48.57038" lon="2.03383">
        <ele>68.6</ele>
        <time>2023-12-14T12:30:52Z</time>
      </trkpt>
      <trkpt lat="48.57042" lon="2.03381">
        <ele>69.6</ele>
        <time>2023-12-14T12:30:53Z</time>
      </trkpt>
      <trkpt lat="48.57046" lon="2.03378">
        <ele>69.6</ele>
        <time>2023-12-14T12:30:54Z</time>
      </trkpt>
      <trkpt lat="48.5705" lon="2.03376">
        <ele>69.6</ele>
        <time>2023-12-14T12:30:55Z</time>
      </trkpt>
      <trkpt lat="48.57053" lon="2.03374">
        <ele>69.6</ele>
        <time>2023-12-14T12:30:56Z</time>
      </trkpt>
      <trkpt lat="48.57057" lon="2.03371">
        <ele>70</ele>
        <time>2023-12-14T12:30:57Z</time>
      </trkpt>
      <trkpt lat="48.57061" lon="2.03369">
        <ele>70</ele>
        <time>2023-12-14T12:30:58Z</time>
      </trkpt>
      <trkpt lat="48.57065" lon="2.03366">
        <ele>70</ele>
        <time>2023-12-14T12:30:59Z</time>
      </trkpt>
      <trkpt lat="48.57069" lon="2.03363">
        <ele>69.8</ele>
        <time>2023-12-14T12:31:00Z</time>
      </trkpt>
      <trkpt lat="48.57072" lon="2.0336">
        <ele>69.8</ele>
        <time>2023-12-14T12:31:01Z</time>
      </trkpt>
      <trkpt lat="48.57076" lon="2.03356">
        <ele>69.8</ele>
        <time>2023-12-14T12:31:02Z</time>
      </trkpt>
      <trkpt lat="48.57079" lon="2.03352">
        <ele>69.8</ele>
        <time>2023-12-14T12:31:03Z</time>
      </trkpt>
      <trkpt lat="48.57083" lon="2.03348">
        <ele>69.8</ele>
        <time>2023-12-14T12:31:04Z</time>
      </trkpt>
      <trkpt lat="48.57087" lon="2.03345">
        <ele>70</ele>
        <time>2023-12-14T12:31:05Z</time>
      </trkpt>
      <trkpt lat="48.5709" lon="2.03341">
        <ele>70</ele>
        <time>2023-12-14T12:31:06Z</time>
      </trkpt>
      <trkpt lat="48.57094" lon="2.03337">
        <ele>70</ele>
        <time>2023-12-14T12:31:07Z</time>
      </trkpt>
      <trkpt lat="48.57098" lon="2.03333">
        <ele>70</ele>
        <time>2023-12-14T12:31:08Z</time>
      </trkpt>
      <trkpt lat="48.57102" lon="2.03329">
        <ele>69.8</ele>
        <time>2023-12-14T12:31:09Z</time>
      </trkpt>
      <trkpt lat="48.57106" lon="2.03326">
        <ele>69.8</ele>
        <time>2023-12-14T12:31:10Z</time>
      </trkpt>
      <trkpt lat="48.5711" lon="2.03322">
        <ele>69.8</ele>
        <time>2023-12-14T12:31:11Z</time>
      </trkpt>
      <trkpt lat="48.57114" lon="2.03318">
        <ele>69.8</ele>
        <time>2023-12-14T12:31:12Z</time>
      </trkpt>
      <trkpt lat="48.57118" lon="2.03315">
        <ele>70.2</ele>
        <time>2023-12-14T12:31:13Z</time>
      </trkpt>
      <trkpt lat="48.57122" lon="2.03312">
        <ele>70.2</ele>
        <time>2023-12-14T12:31:14Z</time>
      </trkpt>
      <trkpt lat="48.57127" lon="2.03309">
        <ele>70.2</ele>
        <time>2023-12-14T12:31:15Z</time>
      </trkpt>
      <trkpt lat="48.57131" lon="2.03305">
        <ele>70.6</ele>
        <time>2023-12-14T12:31:16Z</time>
      </trkpt>
      <trkpt lat="48.57135" lon="2.033">
        <ele>70.6</ele>
        <time>2023-12-14T12:31:17Z</time>
      </trkpt>
      <trkpt lat="48.5714" lon="2.03295">
        <ele>70.6</ele>
        <time>2023-12-14T12:31:18Z</time>
      </trkpt>
      <trkpt lat="48.57144" lon="2.03291">
        <ele>70.6</ele>
        <time>2023-12-14T12:31:19Z</time>
      </trkpt>
      <trkpt lat="48.57149" lon="2.03287">
        <ele>70</ele>
        <time>2023-12-14T12:31:20Z</time>
      </trkpt>
      <trkpt lat="48.57154" lon="2.03284">
        <ele>70.4</ele>
        <time>2023-12-14T12:31:21Z</time>
      </trkpt>
      <trkpt lat="48.57159" lon="2.03281">
        <ele>70.4</ele>
        <time>2023-12-14T12:31:22Z</time>
      </trkpt>
      <trkpt lat="48.57163" lon="2.03277">
        <ele>70.4</ele>
        <time>2023-12-14T12:31:23Z</time>
      </trkpt>
      <trkpt lat="48.57167" lon="2.03273">
        <ele>69.4</ele>
        <time>2023-12-14T12:31:24Z</time>
      </trkpt>
      <trkpt lat="48.57172" lon="2.03269">
        <ele>69.4</ele>
        <time>2023-12-14T12:31:25Z</time>
      </trkpt>
      <trkpt lat="48.57176" lon="2.03264">
        <ele>69.4</ele>
        <time>2023-12-14T12:31:26Z</time>
      </trkpt>
      <trkpt lat="48.57181" lon="2.03259">
        <ele>69.4</ele>
        <time>2023-12-14T12:31:27Z</time>
      </trkpt>
      <trkpt lat="48.57185" lon="2.03255">
        <ele>69.6</ele>
        <time>2023-12-14T12:31:28Z</time>
      </trkpt>
      <trkpt lat="48.5719" lon="2.03251">
        <ele>70</ele>
        <time>2023-12-14T12:31:29Z</time>
      </trkpt>
      <trkpt lat="48.57195" lon="2.03246">
        <ele>70</ele>
        <time>2023-12-14T12:31:30Z</time>
      </trkpt>
      <trkpt lat="48.572" lon="2.03242">
        <ele>70</ele>
        <time>2023-12-14T12:31:31Z</time>
      </trkpt>
      <trkpt lat="48.57205" lon="2.03238">
        <ele>70</ele>
        <time>2023-12-14T12:31:32Z</time>
      </trkpt>
      <trkpt lat="48.5721" lon="2.03233">
        <ele>69.4</ele>
        <time>2023-12-14T12:31:33Z</time>
      </trkpt>
      <trkpt lat="48.57215" lon="2.03229">
        <ele>69.4</ele>
        <time>2023-12-14T12:31:34Z</time>
      </trkpt>
      <trkpt lat="48.5722" lon="2.03224">
        <ele>69.4</ele>
        <time>2023-12-14T12:31:35Z</time>
      </trkpt>
      <trkpt lat="48.57225" lon="2.03221">
        <ele>69.4</ele>
        <time>2023-12-14T12:31:36Z</time>
      </trkpt>
      <trkpt lat="48.5723" lon="2.03216">
        <ele>68.8</ele>
        <time>2023-12-14T12:31:37Z</time>
      </trkpt>
      <trkpt lat="48.57235" lon="2.03212">
        <ele>68.8</ele>
        <time>2023-12-14T12:31:38Z</time>
      </trkpt>
      <trkpt lat="48.57239" lon="2.03208">
        <ele>68.8</ele>
        <time>2023-12-14T12:31:39Z</time>
      </trkpt>
      <trkpt lat="48.57243" lon="2.03204">
        <ele>68.8</ele>
        <time>2023-12-14T12:31:40Z</time>
      </trkpt>
      <trkpt lat="48.57247" lon="2.03199">
        <ele>69</ele>
        <time>2023-12-14T12:31:41Z</time>
      </trkpt>
      <trkpt lat="48.5725" lon="2.03194">
        <ele>69</ele>
        <time>2023-12-14T12:31:42Z</time>
      </trkpt>
      <trkpt lat="48.57254" lon="2.03189">
        <ele>69</ele>
        <time>2023-12-14T12:31:43Z</time>
      </trkpt>
      <trkpt lat="48.57258" lon="2.03185">
        <ele>69</ele>
        <time>2023-12-14T12:31:44Z</time>
      </trkpt>
      <trkpt lat="48.57261" lon="2.0318">
        <ele>68.6</ele>
        <time>2023-12-14T12:31:45Z</time>
      </trkpt>
      <trkpt lat="48.57265" lon="2.03175">
        <ele>68.6</ele>
        <time>2023-12-14T12:31:46Z</time>
      </trkpt>
      <trkpt lat="48.57268" lon="2.03169">
        <ele>68.6</ele>
        <time>2023-12-14T12:31:47Z</time>
      </trkpt>
      <trkpt lat="48.57272" lon="2.03163">
        <ele>68.6</ele>
        <time>2023-12-14T12:31:48Z</time>
      </trkpt>
      <trkpt lat="48.57276" lon="2.03157">
        <ele>68.4</ele>
        <time>2023-12-14T12:31:49Z</time>
      </trkpt>
      <trkpt lat="48.57279" lon="2.03151">
        <ele>68.4</ele>
        <time>2023-12-14T12:31:50Z</time>
      </trkpt>
      <trkpt lat="48.57283" lon="2.03146">
        <ele>68.4</ele>
        <time>2023-12-14T12:31:51Z</time>
      </trkpt>
      <trkpt lat="48.57286" lon="2.03141">
        <ele>67.4</ele>
        <time>2023-12-14T12:31:52Z</time>
      </trkpt>
      <trkpt lat="48.5729" lon="2.03135">
        <ele>67.4</ele>
        <time>2023-12-14T12:31:53Z</time>
      </trkpt>
      <trkpt lat="48.57293" lon="2.03129">
        <ele>67.4</ele>
        <time>2023-12-14T12:31:54Z</time>
      </trkpt>
      <trkpt lat="48.57297" lon="2.03123">
        <ele>67.4</ele>
        <time>2023-12-14T12:31:55Z</time>
      </trkpt>
      <trkpt lat="48.573" lon="2.03117">
        <ele>67.2</ele>
        <time>2023-12-14T12:31:56Z</time>
      </trkpt>
      <trkpt lat="48.57303" lon="2.03111">
        <ele>67.2</ele>
        <time>2023-12-14T12:31:57Z</time>
      </trkpt>
      <trkpt lat="48.57307" lon="2.03105">
        <ele>67.2</ele>
        <time>2023-12-14T12:31:58Z</time>
      </trkpt>
      <trkpt lat="48.57311" lon="2.03099">
        <ele>67.2</ele>
        <time>2023-12-14T12:31:59Z</time>
      </trkpt>
      <trkpt lat="48.57315" lon="2.03093">
        <ele>66.2</ele>
        <time>2023-12-14T12:32:00Z</time>
      </trkpt>
      <trkpt lat="48.57318" lon="2.03087">
        <ele>65.8</ele>
        <time>2023-12-14T12:32:01Z</time>
      </trkpt>
      <trkpt lat="48.57322" lon="2.03081">
        <ele>65.8</ele>
        <time>2023-12-14T12:32:02Z</time>
      </trkpt>
      <trkpt lat="48.57325" lon="2.03074">
        <ele>65.8</ele>
        <time>2023-12-14T12:32:03Z</time>
      </trkpt>
      <trkpt lat="48.57329" lon="2.03068">
        <ele>65.2</ele>
        <time>2023-12-14T12:32:04Z</time>
      </trkpt>
      <trkpt lat="48.57332" lon="2.03061">
        <ele>64.6</ele>
        <time>2023-12-14T12:32:05Z</time>
      </trkpt>
      <trkpt lat="48.57335" lon="2.03053">
        <ele>64.6</ele>
        <time>2023-12-14T12:32:06Z</time>
      </trkpt>
      <trkpt lat="48.57339" lon="2.03047">
        <ele>64.6</ele>
        <time>2023-12-14T12:32:07Z</time>
      </trkpt>
      <trkpt lat="48.57342" lon="2.0304">
        <ele>64.2</ele>
        <time>2023-12-14T12:32:08Z</time>
      </trkpt>
      <trkpt lat="48.57346" lon="2.03033">
        <ele>64.2</ele>
        <time>2023-12-14T12:32:09Z</time>
      </trkpt>
      <trkpt lat="48.5735" lon="2.03026">
        <ele>64.2</ele>
        <time>2023-12-14T12:32:10Z</time>
      </trkpt>
      <trkpt lat="48.57354" lon="2.03019">
        <ele>64.2</ele>
        <time>2023-12-14T12:32:11Z</time>
      </trkpt>
      <trkpt lat="48.57357" lon="2.03012">
        <ele>64.2</ele>
        <time>2023-12-14T12:32:12Z</time>
      </trkpt>
      <trkpt lat="48.57361" lon="2.03006">
        <ele>64.2</ele>
        <time>2023-12-14T12:32:13Z</time>
      </trkpt>
      <trkpt lat="48.57365" lon="2.03">
        <ele>64.2</ele>
        <time>2023-12-14T12:32:14Z</time>
      </trkpt>
      <trkpt lat="48.57367" lon="2.02995">
        <ele>64.2</ele>
        <time>2023-12-14T12:32:15Z</time>
      </trkpt>
      <trkpt lat="48.5737" lon="2.0299">
        <ele>64.4</ele>
        <time>2023-12-14T12:32:16Z</time>
      </trkpt>
      <trkpt lat="48.57372" lon="2.02984">
        <ele>65</ele>
        <time>2023-12-14T12:32:17Z</time>
      </trkpt>
      <trkpt lat="48.57375" lon="2.02979">
        <ele>65</ele>
        <time>2023-12-14T12:32:18Z</time>
      </trkpt>
      <trkpt lat="48.57378" lon="2.02975">
        <ele>65</ele>
        <time>2023-12-14T12:32:19Z</time>
      </trkpt>
      <trkpt lat="48.57381" lon="2.0297">
        <ele>65</ele>
        <time>2023-12-14T12:32:20Z</time>
      </trkpt>
      <trkpt lat="48.57385" lon="2.02966">
        <ele>64.6</ele>
        <time>2023-12-14T12:32:21Z</time>
      </trkpt>
      <trkpt lat="48.57389" lon="2.02962">
        <ele>64.6</ele>
        <time>2023-12-14T12:32:22Z</time>
      </trkpt>
      <trkpt lat="48.57393" lon="2.02956">
        <ele>64.6</ele>
        <time>2023-12-14T12:32:23Z</time>
      </trkpt>
      <trkpt lat="48.57397" lon="2.02951">
        <ele>64.6</ele>
        <time>2023-12-14T12:32:24Z</time>
      </trkpt>
      <trkpt lat="48.57401" lon="2.02946">
        <ele>64.4</ele>
        <time>2023-12-14T12:32:25Z</time>
      </trkpt>
      <trkpt lat="48.57405" lon="2.02943">
        <ele>64.4</ele>
        <time>2023-12-14T12:32:26Z</time>
      </trkpt>
      <trkpt lat="48.5741" lon="2.02938">
        <ele>64.4</ele>
        <time>2023-12-14T12:32:27Z</time>
      </trkpt>
      <trkpt lat="48.57415" lon="2.02933">
        <ele>63.4</ele>
        <time>2023-12-14T12:32:28Z</time>
      </trkpt>
      <trkpt lat="48.57419" lon="2.02929">
        <ele>63.6</ele>
        <time>2023-12-14T12:32:29Z</time>
      </trkpt>
      <trkpt lat="48.57424" lon="2.02925">
        <ele>63.6</ele>
        <time>2023-12-14T12:32:30Z</time>
      </trkpt>
      <trkpt lat="48.57429" lon="2.0292">
        <ele>63.6</ele>
        <time>2023-12-14T12:32:31Z</time>
      </trkpt>
      <trkpt lat="48.57433" lon="2.02917">
        <ele>63.2</ele>
        <time>2023-12-14T12:32:32Z</time>
      </trkpt>
      <trkpt lat="48.57438" lon="2.02913">
        <ele>63.4</ele>
        <time>2023-12-14T12:32:33Z</time>
      </trkpt>
      <trkpt lat="48.57442" lon="2.02909">
        <ele>63.4</ele>
        <time>2023-12-14T12:32:34Z</time>
      </trkpt>
      <trkpt lat="48.57447" lon="2.02905">
        <ele>63.4</ele>
        <time>2023-12-14T12:32:35Z</time>
      </trkpt>
      <trkpt lat="48.57451" lon="2.02902">
        <ele>63.4</ele>
        <time>2023-12-14T12:32:36Z</time>
      </trkpt>
      <trkpt lat="48.57456" lon="2.02898">
        <ele>64</ele>
        <time>2023-12-14T12:32:37Z</time>
      </trkpt>
      <trkpt lat="48.5746" lon="2.02895">
        <ele>64</ele>
        <time>2023-12-14T12:32:38Z</time>
      </trkpt>
      <trkpt lat="48.57464" lon="2.02892">
        <ele>64</ele>
        <time>2023-12-14T12:32:39Z</time>
      </trkpt>
      <trkpt lat="48.57469" lon="2.02888">
        <ele>64.6</ele>
        <time>2023-12-14T12:32:40Z</time>
      </trkpt>
      <trkpt lat="48.57473" lon="2.02884">
        <ele>65</ele>
        <time>2023-12-14T12:32:41Z</time>
      </trkpt>
      <trkpt lat="48.57477" lon="2.02881">
        <ele>65</ele>
        <time>2023-12-14T12:32:42Z</time>
      </trkpt>
      <trkpt lat="48.57481" lon="2.02877">
        <ele>65</ele>
        <time>2023-12-14T12:32:43Z</time>
      </trkpt>
      <trkpt lat="48.57486" lon="2.02874">
        <ele>64</ele>
        <time>2023-12-14T12:32:44Z</time>
      </trkpt>
      <trkpt lat="48.57489" lon="2.02869">
        <ele>63.6</ele>
        <time>2023-12-14T12:32:45Z</time>
      </trkpt>
      <trkpt lat="48.57494" lon="2.02865">
        <ele>63.6</ele>
        <time>2023-12-14T12:32:46Z</time>
      </trkpt>
      <trkpt lat="48.57498" lon="2.02862">
        <ele>63.6</ele>
        <time>2023-12-14T12:32:47Z</time>
      </trkpt>
      <trkpt lat="48.57503" lon="2.02858">
        <ele>63.6</ele>
        <time>2023-12-14T12:32:48Z</time>
      </trkpt>
      <trkpt lat="48.57508" lon="2.02854">
        <ele>63.2</ele>
        <time>2023-12-14T12:32:49Z</time>
      </trkpt>
      <trkpt lat="48.57512" lon="2.02851">
        <ele>63.2</ele>
        <time>2023-12-14T12:32:50Z</time>
      </trkpt>
      <trkpt lat="48.57517" lon="2.02848">
        <ele>63.2</ele>
        <time>2023-12-14T12:32:51Z</time>
      </trkpt>
      <trkpt lat="48.57521" lon="2.02845">
        <ele>64.2</ele>
        <time>2023-12-14T12:32:52Z</time>
      </trkpt>
      <trkpt lat="48.57526" lon="2.02842">
        <ele>64.4</ele>
        <time>2023-12-14T12:32:53Z</time>
      </trkpt>
      <trkpt lat="48.5753" lon="2.02839">
        <ele>64.4</ele>
        <time>2023-12-14T12:32:54Z</time>
      </trkpt>
      <trkpt lat="48.57535" lon="2.02835">
        <ele>64.4</ele>
        <time>2023-12-14T12:32:55Z</time>
      </trkpt>
      <trkpt lat="48.57539" lon="2.02832">
        <ele>64.4</ele>
        <time>2023-12-14T12:32:56Z</time>
      </trkpt>
      <trkpt lat="48.57544" lon="2.02828">
        <ele>64.4</ele>
        <time>2023-12-14T12:32:57Z</time>
      </trkpt>
      <trkpt lat="48.57548" lon="2.02824">
        <ele>64.4</ele>
        <time>2023-12-14T12:32:58Z</time>
      </trkpt>
      <trkpt lat="48.57553" lon="2.0282">
        <ele>64.4</ele>
        <time>2023-12-14T12:32:59Z</time>
      </trkpt>
      <trkpt lat="48.57558" lon="2.02817">
        <ele>64.4</ele>
        <time>2023-12-14T12:33:00Z</time>
      </trkpt>
      <trkpt lat="48.57562" lon="2.02813">
        <ele>65.4</ele>
        <time>2023-12-14T12:33:01Z</time>
      </trkpt>
      <trkpt lat="48.57567" lon="2.02809">
        <ele>65.4</ele>
        <time>2023-12-14T12:33:02Z</time>
      </trkpt>
      <trkpt lat="48.57571" lon="2.02805">
        <ele>65.4</ele>
        <time>2023-12-14T12:33:03Z</time>
      </trkpt>
      <trkpt lat="48.57576" lon="2.02801">
        <ele>65.4</ele>
        <time>2023-12-14T12:33:04Z</time>
      </trkpt>
      <trkpt lat="48.5758" lon="2.02797">
        <ele>65.8</ele>
        <time>2023-12-14T12:33:05Z</time>
      </trkpt>
      <trkpt lat="48.57585" lon="2.02793">
        <ele>65.8</ele>
        <time>2023-12-14T12:33:06Z</time>
      </trkpt>
      <trkpt lat="48.57589" lon="2.0279">
        <ele>65.8</ele>
        <time>2023-12-14T12:33:07Z</time>
      </trkpt>
      <trkpt lat="48.57594" lon="2.02786">
        <ele>66.4</ele>
        <time>2023-12-14T12:33:08Z</time>
      </trkpt>
      <trkpt lat="48.57598" lon="2.02782">
        <ele>66.4</ele>
        <time>2023-12-14T12:33:09Z</time>
      </trkpt>
      <trkpt lat="48.57602" lon="2.02778">
        <ele>66.4</ele>
        <time>2023-12-14T12:33:10Z</time>
      </trkpt>
      <trkpt lat="48.57607" lon="2.02774">
        <ele>66.4</ele>
        <time>2023-12-14T12:33:11Z</time>
      </trkpt>
      <trkpt lat="48.57611" lon="2.02769">
        <ele>66.4</ele>
        <time>2023-12-14T12:33:12Z</time>
      </trkpt>
      <trkpt lat="48.57615" lon="2.02765">
        <ele>66</ele>
        <time>2023-12-14T12:33:13Z</time>
      </trkpt>
      <trkpt lat="48.57619" lon="2.02761">
        <ele>66</ele>
        <time>2023-12-14T12:33:14Z</time>
      </trkpt>
      <trkpt lat="48.57624" lon="2.02756">
        <ele>66</ele>
        <time>2023-12-14T12:33:15Z</time>
      </trkpt>
      <trkpt lat="48.57628" lon="2.02752">
        <ele>66.2</ele>
        <time>2023-12-14T12:33:16Z</time>
      </trkpt>
      <trkpt lat="48.57632" lon="2.02747">
        <ele>66.6</ele>
        <time>2023-12-14T12:33:17Z</time>
      </trkpt>
      <trkpt lat="48.57636" lon="2.02742">
        <ele>66.6</ele>
        <time>2023-12-14T12:33:18Z</time>
      </trkpt>
      <trkpt lat="48.5764" lon="2.02737">
        <ele>66.6</ele>
        <time>2023-12-14T12:33:19Z</time>
      </trkpt>
      <trkpt lat="48.57644" lon="2.02732">
        <ele>67.6</ele>
        <time>2023-12-14T12:33:20Z</time>
      </trkpt>
      <trkpt lat="48.57648" lon="2.02727">
        <ele>67.8</ele>
        <time>2023-12-14T12:33:21Z</time>
      </trkpt>
      <trkpt lat="48.57652" lon="2.02722">
        <ele>67.8</ele>
        <time>2023-12-14T12:33:22Z</time>
      </trkpt>
      <trkpt lat="48.57655" lon="2.02717">
        <ele>67.8</ele>
        <time>2023-12-14T12:33:23Z</time>
      </trkpt>
      <trkpt lat="48.57659" lon="2.02711">
        <ele>67</ele>
        <time>2023-12-14T12:33:24Z</time>
      </trkpt>
      <trkpt lat="48.57664" lon="2.02706">
        <ele>67.4</ele>
        <time>2023-12-14T12:33:25Z</time>
      </trkpt>
      <trkpt lat="48.57668" lon="2.02701">
        <ele>67.4</ele>
        <time>2023-12-14T12:33:26Z</time>
      </trkpt>
      <trkpt lat="48.57672" lon="2.02696">
        <ele>67.4</ele>
        <time>2023-12-14T12:33:27Z</time>
      </trkpt>
      <trkpt lat="48.57676" lon="2.02692">
        <ele>67.4</ele>
        <time>2023-12-14T12:33:28Z</time>
      </trkpt>
      <trkpt lat="48.5768" lon="2.02687">
        <ele>67</ele>
        <time>2023-12-14T12:33:29Z</time>
      </trkpt>
      <trkpt lat="48.57685" lon="2.02682">
        <ele>67</ele>
        <time>2023-12-14T12:33:30Z</time>
      </trkpt>
      <trkpt lat="48.57689" lon="2.02678">
        <ele>67</ele>
        <time>2023-12-14T12:33:31Z</time>
      </trkpt>
      <trkpt lat="48.57694" lon="2.02673">
        <ele>67.4</ele>
        <time>2023-12-14T12:33:32Z</time>
      </trkpt>
      <trkpt lat="48.57698" lon="2.02669">
        <ele>67</ele>
        <time>2023-12-14T12:33:33Z</time>
      </trkpt>
      <trkpt lat="48.57703" lon="2.02665">
        <ele>67</ele>
        <time>2023-12-14T12:33:34Z</time>
      </trkpt>
      <trkpt lat="48.57707" lon="2.0266">
        <ele>67</ele>
        <time>2023-12-14T12:33:35Z</time>
      </trkpt>
      <trkpt lat="48.57712" lon="2.02656">
        <ele>68</ele>
        <time>2023-12-14T12:33:36Z</time>
      </trkpt>
      <trkpt lat="48.57716" lon="2.02653">
        <ele>68.2</ele>
        <time>2023-12-14T12:33:37Z</time>
      </trkpt>
      <trkpt lat="48.57721" lon="2.02649">
        <ele>68.2</ele>
        <time>2023-12-14T12:33:38Z</time>
      </trkpt>
      <trkpt lat="48.57725" lon="2.02645">
        <ele>68.2</ele>
        <time>2023-12-14T12:33:39Z</time>
      </trkpt>
      <trkpt lat="48.5773" lon="2.02641">
        <ele>68.2</ele>
        <time>2023-12-14T12:33:40Z</time>
      </trkpt>
      <trkpt lat="48.57734" lon="2.02637">
        <ele>67.6</ele>
        <time>2023-12-14T12:33:41Z</time>
      </trkpt>
      <trkpt lat="48.57738" lon="2.02633">
        <ele>67.6</ele>
        <time>2023-12-14T12:33:42Z</time>
      </trkpt>
      <trkpt lat="48.57743" lon="2.02629">
        <ele>67.6</ele>
        <time>2023-12-14T12:33:43Z</time>
      </trkpt>
      <trkpt lat="48.57747" lon="2.02625">
        <ele>68.4</ele>
        <time>2023-12-14T12:33:44Z</time>
      </trkpt>
      <trkpt lat="48.57751" lon="2.02621">
        <ele>68.4</ele>
        <time>2023-12-14T12:33:45Z</time>
      </trkpt>
      <trkpt lat="48.57755" lon="2.02618">
        <ele>68.4</ele>
        <time>2023-12-14T12:33:46Z</time>
      </trkpt>
      <trkpt lat="48.5776" lon="2.02614">
        <ele>68.4</ele>
        <time>2023-12-14T12:33:47Z</time>
      </trkpt>
      <trkpt lat="48.57764" lon="2.0261">
        <ele>68.4</ele>
        <time>2023-12-14T12:33:48Z</time>
      </trkpt>
      <trkpt lat="48.57768" lon="2.02606">
        <ele>68.6</ele>
        <time>2023-12-14T12:33:49Z</time>
      </trkpt>
      <trkpt lat="48.57773" lon="2.02602">
        <ele>68.6</ele>
        <time>2023-12-14T12:33:50Z</time>
      </trkpt>
      <trkpt lat="48.57777" lon="2.02599">
        <ele>68.6</ele>
        <time>2023-12-14T12:33:51Z</time>
      </trkpt>
      <trkpt lat="48.57781" lon="2.02595">
        <ele>68.6</ele>
        <time>2023-12-14T12:33:52Z</time>
      </trkpt>
      <trkpt lat="48.57786" lon="2.02591">
        <ele>69</ele>
        <time>2023-12-14T12:33:53Z</time>
      </trkpt>
      <trkpt lat="48.5779" lon="2.02587">
        <ele>69</ele>
        <time>2023-12-14T12:33:54Z</time>
      </trkpt>
      <trkpt lat="48.57794" lon="2.02583">
        <ele>69</ele>
        <time>2023-12-14T12:33:55Z</time>
      </trkpt>
      <trkpt lat="48.57799" lon="2.0258">
        <ele>68.8</ele>
        <time>2023-12-14T12:33:56Z</time>
      </trkpt>
      <trkpt lat="48.57803" lon="2.02575">
        <ele>69.2</ele>
        <time>2023-12-14T12:33:57Z</time>
      </trkpt>
      <trkpt lat="48.57807" lon="2.02571">
        <ele>69.2</ele>
        <time>2023-12-14T12:33:58Z</time>
      </trkpt>
      <trkpt lat="48.57812" lon="2.02567">
        <ele>69.2</ele>
        <time>2023-12-14T12:33:59Z</time>
      </trkpt>
      <trkpt lat="48.57816" lon="2.02564">
        <ele>69.2</ele>
        <time>2023-12-14T12:34:00Z</time>
      </trkpt>
      <trkpt lat="48.5782" lon="2.0256">
        <ele>69.2</ele>
        <time>2023-12-14T12:34:01Z</time>
      </trkpt>
      <trkpt lat="48.57825" lon="2.02556">
        <ele>69.2</ele>
        <time>2023-12-14T12:34:02Z</time>
      </trkpt>
      <trkpt lat="48.57829" lon="2.02552">
        <ele>69.2</ele>
        <time>2023-12-14T12:34:03Z</time>
      </trkpt>
      <trkpt lat="48.57833" lon="2.02548">
        <ele>69.8</ele>
        <time>2023-12-14T12:34:04Z</time>
      </trkpt>
      <trkpt lat="48.57838" lon="2.02544">
        <ele>69.6</ele>
        <time>2023-12-14T12:34:05Z</time>
      </trkpt>
      <trkpt lat="48.57842" lon="2.02541">
        <ele>69.6</ele>
        <time>2023-12-14T12:34:06Z</time>
      </trkpt>
      <trkpt lat="48.57846" lon="2.02537">
        <ele>69.6</ele>
        <time>2023-12-14T12:34:07Z</time>
      </trkpt>
      <trkpt lat="48.57851" lon="2.02533">
        <ele>70</ele>
        <time>2023-12-14T12:34:08Z</time>
      </trkpt>
      <trkpt lat="48.57855" lon="2.02529">
        <ele>70.4</ele>
        <time>2023-12-14T12:34:09Z</time>
      </trkpt>
      <trkpt lat="48.5786" lon="2.02525">
        <ele>70.4</ele>
        <time>2023-12-14T12:34:10Z</time>
      </trkpt>
      <trkpt lat="48.57864" lon="2.0252">
        <ele>70.4</ele>
        <time>2023-12-14T12:34:11Z</time>
      </trkpt>
      <trkpt lat="48.57868" lon="2.02516">
        <ele>71.2</ele>
        <time>2023-12-14T12:34:12Z</time>
      </trkpt>
      <trkpt lat="48.57873" lon="2.02512">
        <ele>70.8</ele>
        <time>2023-12-14T12:34:13Z</time>
      </trkpt>
      <trkpt lat="48.57877" lon="2.02509">
        <ele>70.8</ele>
        <time>2023-12-14T12:34:14Z</time>
      </trkpt>
      <trkpt lat="48.57882" lon="2.02505">
        <ele>70.8</ele>
        <time>2023-12-14T12:34:15Z</time>
      </trkpt>
      <trkpt lat="48.57886" lon="2.02501">
        <ele>70.8</ele>
        <time>2023-12-14T12:34:16Z</time>
      </trkpt>
      <trkpt lat="48.5789" lon="2.02497">
        <ele>71.2</ele>
        <time>2023-12-14T12:34:17Z</time>
      </trkpt>
      <trkpt lat="48.57895" lon="2.02493">
        <ele>71.2</ele>
        <time>2023-12-14T12:34:18Z</time>
      </trkpt>
      <trkpt lat="48.57899" lon="2.02489">
        <ele>71.2</ele>
        <time>2023-12-14T12:34:19Z</time>
      </trkpt>
      <trkpt lat="48.57904" lon="2.02485">
        <ele>70.4</ele>
        <time>2023-12-14T12:34:20Z</time>
      </trkpt>
      <trkpt lat="48.57908" lon="2.02481">
        <ele>69.8</ele>
        <time>2023-12-14T12:34:21Z</time>
      </trkpt>
      <trkpt lat="48.57912" lon="2.02477">
        <ele>69.8</ele>
        <time>2023-12-14T12:34:22Z</time>
      </trkpt>
      <trkpt lat="48.57916" lon="2.02474">
        <ele>69.8</ele>
        <time>2023-12-14T12:34:23Z</time>
      </trkpt>
      <trkpt lat="48.5792" lon="2.0247">
        <ele>70.8</ele>
        <time>2023-12-14T12:34:24Z</time>
      </trkpt>
      <trkpt lat="48.57925" lon="2.02466">
        <ele>71</ele>
        <time>2023-12-14T12:34:25Z</time>
      </trkpt>
      <trkpt lat="48.57929" lon="2.02462">
        <ele>71</ele>
        <time>2023-12-14T12:34:26Z</time>
      </trkpt>
      <trkpt lat="48.57933" lon="2.02459">
        <ele>71</ele>
        <time>2023-12-14T12:34:27Z</time>
      </trkpt>
      <trkpt lat="48.57937" lon="2.02455">
        <ele>71</ele>
        <time>2023-12-14T12:34:28Z</time>
      </trkpt>
      <trkpt lat="48.57942" lon="2.02451">
        <ele>71.8</ele>
        <time>2023-12-14T12:34:29Z</time>
      </trkpt>
      <trkpt lat="48.57946" lon="2.02447">
        <ele>71.8</ele>
        <time>2023-12-14T12:34:30Z</time>
      </trkpt>
      <trkpt lat="48.57951" lon="2.02442">
        <ele>71.8</ele>
        <time>2023-12-14T12:34:31Z</time>
      </trkpt>
      <trkpt lat="48.57955" lon="2.02438">
        <ele>71.8</ele>
        <time>2023-12-14T12:34:32Z</time>
      </trkpt>
      <trkpt lat="48.57959" lon="2.02434">
        <ele>71.4</ele>
        <time>2023-12-14T12:34:33Z</time>
      </trkpt>
      <trkpt lat="48.57964" lon="2.0243">
        <ele>71.4</ele>
        <time>2023-12-14T12:34:34Z</time>
      </trkpt>
      <trkpt lat="48.57969" lon="2.02426">
        <ele>71.4</ele>
        <time>2023-12-14T12:34:35Z</time>
      </trkpt>
      <trkpt lat="48.57974" lon="2.02422">
        <ele>70.8</ele>
        <time>2023-12-14T12:34:36Z</time>
      </trkpt>
      <trkpt lat="48.57978" lon="2.02417">
        <ele>71.2</ele>
        <time>2023-12-14T12:34:37Z</time>
      </trkpt>
      <trkpt lat="48.57983" lon="2.02413">
        <ele>71.2</ele>
        <time>2023-12-14T12:34:38Z</time>
      </trkpt>
      <trkpt lat="48.57988" lon="2.02408">
        <ele>71.2</ele>
        <time>2023-12-14T12:34:39Z</time>
      </trkpt>
      <trkpt lat="48.57993" lon="2.02404">
        <ele>70.2</ele>
        <time>2023-12-14T12:34:40Z</time>
      </trkpt>
      <trkpt lat="48.57998" lon="2.024">
        <ele>69.6</ele>
        <time>2023-12-14T12:34:41Z</time>
      </trkpt>
      <trkpt lat="48.58003" lon="2.02395">
        <ele>69.6</ele>
        <time>2023-12-14T12:34:42Z</time>
      </trkpt>
      <trkpt lat="48.58009" lon="2.02391">
        <ele>69.6</ele>
        <time>2023-12-14T12:34:43Z</time>
      </trkpt>
      <trkpt lat="48.58014" lon="2.02386">
        <ele>69.6</ele>
        <time>2023-12-14T12:34:44Z</time>
      </trkpt>
      <trkpt lat="48.5802" lon="2.02381">
        <ele>69</ele>
        <time>2023-12-14T12:34:45Z</time>
      </trkpt>
      <trkpt lat="48.58025" lon="2.02376">
        <ele>69</ele>
        <time>2023-12-14T12:34:46Z</time>
      </trkpt>
      <trkpt lat="48.58031" lon="2.02371">
        <ele>69</ele>
        <time>2023-12-14T12:34:47Z</time>
      </trkpt>
      <trkpt lat="48.58037" lon="2.02366">
        <ele>68</ele>
        <time>2023-12-14T12:34:48Z</time>
      </trkpt>
      <trkpt lat="48.58042" lon="2.02361">
        <ele>67.8</ele>
        <time>2023-12-14T12:34:49Z</time>
      </trkpt>
      <trkpt lat="48.58048" lon="2.02357">
        <ele>67.8</ele>
        <time>2023-12-14T12:34:50Z</time>
      </trkpt>
      <trkpt lat="48.58053" lon="2.02352">
        <ele>67.8</ele>
        <time>2023-12-14T12:34:51Z</time>
      </trkpt>
      <trkpt lat="48.58059" lon="2.02347">
        <ele>68.8</ele>
        <time>2023-12-14T12:34:52Z</time>
      </trkpt>
      <trkpt lat="48.58065" lon="2.02343">
        <ele>68</ele>
        <time>2023-12-14T12:34:53Z</time>
      </trkpt>
      <trkpt lat="48.5807" lon="2.02339">
        <ele>68</ele>
        <time>2023-12-14T12:34:54Z</time>
      </trkpt>
      <trkpt lat="48.58076" lon="2.02335">
        <ele>68</ele>
        <time>2023-12-14T12:34:55Z</time>
      </trkpt>
      <trkpt lat="48.58081" lon="2.02331">
        <ele>68</ele>
        <time>2023-12-14T12:34:56Z</time>
      </trkpt>
      <trkpt lat="48.58086" lon="2.02327">
        <ele>68.4</ele>
        <time>2023-12-14T12:34:57Z</time>
      </trkpt>
      <trkpt lat="48.58091" lon="2.02322">
        <ele>68.4</ele>
        <time>2023-12-14T12:34:58Z</time>
      </trkpt>
      <trkpt lat="48.58096" lon="2.02317">
        <ele>68.4</ele>
        <time>2023-12-14T12:34:59Z</time>
      </trkpt>
      <trkpt lat="48.58102" lon="2.02312">
        <ele>68.4</ele>
        <time>2023-12-14T12:35:00Z</time>
      </trkpt>
      <trkpt lat="48.58107" lon="2.02307">
        <ele>68.2</ele>
        <time>2023-12-14T12:35:01Z</time>
      </trkpt>
      <trkpt lat="48.58112" lon="2.02302">
        <ele>68.2</ele>
        <time>2023-12-14T12:35:02Z</time>
      </trkpt>
      <trkpt lat="48.58117" lon="2.02297">
        <ele>68.2</ele>
        <time>2023-12-14T12:35:03Z</time>
      </trkpt>
      <trkpt lat="48.58122" lon="2.02291">
        <ele>67.8</ele>
        <time>2023-12-14T12:35:04Z</time>
      </trkpt>
      <trkpt lat="48.58127" lon="2.02286">
        <ele>68.4</ele>
        <time>2023-12-14T12:35:05Z</time>
      </trkpt>
      <trkpt lat="48.58132" lon="2.0228">
        <ele>68.4</ele>
        <time>2023-12-14T12:35:06Z</time>
      </trkpt>
      <trkpt lat="48.58137" lon="2.02275">
        <ele>68.4</ele>
        <time>2023-12-14T12:35:07Z</time>
      </trkpt>
      <trkpt lat="48.58142" lon="2.0227">
        <ele>68</ele>
        <time>2023-12-14T12:35:08Z</time>
      </trkpt>
      <trkpt lat="48.58147" lon="2.02264">
        <ele>68</ele>
        <time>2023-12-14T12:35:09Z</time>
      </trkpt>
      <trkpt lat="48.58152" lon="2.02258">
        <ele>68</ele>
        <time>2023-12-14T12:35:10Z</time>
      </trkpt>
      <trkpt lat="48.58157" lon="2.02253">
        <ele>68</ele>
        <time>2023-12-14T12:35:11Z</time>
      </trkpt>
      <trkpt lat="48.58162" lon="2.02248">
        <ele>68</ele>
        <time>2023-12-14T12:35:12Z</time>
      </trkpt>
      <trkpt lat="48.58167" lon="2.02242">
        <ele>67.4</ele>
        <time>2023-12-14T12:35:13Z</time>
      </trkpt>
      <trkpt lat="48.58172" lon="2.02237">
        <ele>67.4</ele>
        <time>2023-12-14T12:35:14Z</time>
      </trkpt>
      <trkpt lat="48.58177" lon="2.02231">
        <ele>67.4</ele>
        <time>2023-12-14T12:35:15Z</time>
      </trkpt>
      <trkpt lat="48.58182" lon="2.02225">
        <ele>67.4</ele>
        <time>2023-12-14T12:35:16Z</time>
      </trkpt>
      <trkpt lat="48.58188" lon="2.02219">
        <ele>67.4</ele>
        <time>2023-12-14T12:35:17Z</time>
      </trkpt>
      <trkpt lat="48.58193" lon="2.02213">
        <ele>67.4</ele>
        <time>2023-12-14T12:35:18Z</time>
      </trkpt>
      <trkpt lat="48.58198" lon="2.02208">
        <ele>67.4</ele>
        <time>2023-12-14T12:35:19Z</time>
      </trkpt>
      <trkpt lat="48.58203" lon="2.02203">
        <ele>67</ele>
        <time>2023-12-14T12:35:20Z</time>
      </trkpt>
      <trkpt lat="48.58207" lon="2.02199">
        <ele>66.8</ele>
        <time>2023-12-14T12:35:21Z</time>
      </trkpt>
      <trkpt lat="48.58212" lon="2.02193">
        <ele>66.8</ele>
        <time>2023-12-14T12:35:22Z</time>
      </trkpt>
      <trkpt lat="48.58217" lon="2.02188">
        <ele>66.8</ele>
        <time>2023-12-14T12:35:23Z</time>
      </trkpt>
      <trkpt lat="48.58222" lon="2.02181">
        <ele>66.8</ele>
        <time>2023-12-14T12:35:24Z</time>
      </trkpt>
      <trkpt lat="48.58227" lon="2.02174">
        <ele>67.4</ele>
        <time>2023-12-14T12:35:25Z</time>
      </trkpt>
      <trkpt lat="48.58232" lon="2.02168">
        <ele>67.4</ele>
        <time>2023-12-14T12:35:26Z</time>
      </trkpt>
      <trkpt lat="48.58237" lon="2.02161">
        <ele>67.4</ele>
        <time>2023-12-14T12:35:27Z</time>
      </trkpt>
      <trkpt lat="48.58242" lon="2.02155">
        <ele>66.4</ele>
        <time>2023-12-14T12:35:28Z</time>
      </trkpt>
      <trkpt lat="48.58247" lon="2.02148">
        <ele>66.2</ele>
        <time>2023-12-14T12:35:29Z</time>
      </trkpt>
      <trkpt lat="48.58252" lon="2.02141">
        <ele>66.2</ele>
        <time>2023-12-14T12:35:30Z</time>
      </trkpt>
      <trkpt lat="48.58257" lon="2.02134">
        <ele>66.2</ele>
        <time>2023-12-14T12:35:31Z</time>
      </trkpt>
      <trkpt lat="48.58262" lon="2.02128">
        <ele>66.4</ele>
        <time>2023-12-14T12:35:32Z</time>
      </trkpt>
      <trkpt lat="48.58267" lon="2.02121">
        <ele>67</ele>
        <time>2023-12-14T12:35:33Z</time>
      </trkpt>
      <trkpt lat="48.58272" lon="2.02115">
        <ele>67</ele>
        <time>2023-12-14T12:35:34Z</time>
      </trkpt>
      <trkpt lat="48.58277" lon="2.02108">
        <ele>67</ele>
        <time>2023-12-14T12:35:35Z</time>
      </trkpt>
      <trkpt lat="48.58282" lon="2.02101">
        <ele>67</ele>
        <time>2023-12-14T12:35:36Z</time>
      </trkpt>
      <trkpt lat="48.58286" lon="2.02095">
        <ele>67</ele>
        <time>2023-12-14T12:35:37Z</time>
      </trkpt>
      <trkpt lat="48.58291" lon="2.02088">
        <ele>67</ele>
        <time>2023-12-14T12:35:38Z</time>
      </trkpt>
      <trkpt lat="48.58295" lon="2.02081">
        <ele>67</ele>
        <time>2023-12-14T12:35:39Z</time>
      </trkpt>
      <trkpt lat="48.58301" lon="2.02076">
        <ele>67</ele>
        <time>2023-12-14T12:35:40Z</time>
      </trkpt>
      <trkpt lat="48.58306" lon="2.02069">
        <ele>67</ele>
        <time>2023-12-14T12:35:41Z</time>
      </trkpt>
      <trkpt lat="48.58311" lon="2.02062">
        <ele>67</ele>
        <time>2023-12-14T12:35:42Z</time>
      </trkpt>
      <trkpt lat="48.58316" lon="2.02056">
        <ele>67</ele>
        <time>2023-12-14T12:35:43Z</time>
      </trkpt>
      <trkpt lat="48.58321" lon="2.02048">
        <ele>67</ele>
        <time>2023-12-14T12:35:44Z</time>
      </trkpt>
      <trkpt lat="48.58327" lon="2.02042">
        <ele>66.6</ele>
        <time>2023-12-14T12:35:45Z</time>
      </trkpt>
      <trkpt lat="48.58332" lon="2.02036">
        <ele>66.6</ele>
        <time>2023-12-14T12:35:46Z</time>
      </trkpt>
      <trkpt lat="48.58336" lon="2.02031">
        <ele>66.6</ele>
        <time>2023-12-14T12:35:47Z</time>
      </trkpt>
      <trkpt lat="48.58339" lon="2.02027">
        <ele>66.8</ele>
        <time>2023-12-14T12:35:48Z</time>
      </trkpt>
      <trkpt lat="48.58344" lon="2.02021">
        <ele>67</ele>
        <time>2023-12-14T12:35:49Z</time>
      </trkpt>
      <trkpt lat="48.58349" lon="2.02014">
        <ele>67</ele>
        <time>2023-12-14T12:35:50Z</time>
      </trkpt>
      <trkpt lat="48.58354" lon="2.02008">
        <ele>67</ele>
        <time>2023-12-14T12:35:51Z</time>
      </trkpt>
      <trkpt lat="48.58359" lon="2.02002">
        <ele>67</ele>
        <time>2023-12-14T12:35:52Z</time>
      </trkpt>
      <trkpt lat="48.58364" lon="2.01997">
        <ele>66.4</ele>
        <time>2023-12-14T12:35:53Z</time>
      </trkpt>
      <trkpt lat="48.58369" lon="2.01991">
        <ele>66.4</ele>
        <time>2023-12-14T12:35:54Z</time>
      </trkpt>
      <trkpt lat="48.58373" lon="2.01984">
        <ele>66.4</ele>
        <time>2023-12-14T12:35:55Z</time>
      </trkpt>
      <trkpt lat="48.58376" lon="2.01979">
        <ele>67.2</ele>
        <time>2023-12-14T12:35:56Z</time>
      </trkpt>
      <trkpt lat="48.5838" lon="2.01976">
        <ele>67.2</ele>
        <time>2023-12-14T12:35:57Z</time>
      </trkpt>
      <trkpt lat="48.58383" lon="2.01974">
        <ele>67.2</ele>
        <time>2023-12-14T12:35:58Z</time>
      </trkpt>
      <trkpt lat="48.58385" lon="2.01975">
        <ele>67.2</ele>
        <time>2023-12-14T12:35:59Z</time>
      </trkpt>
      <trkpt lat="48.5839" lon="2.01971">
        <ele>67.2</ele>
        <time>2023-12-14T12:36:00Z</time>
      </trkpt>
      <trkpt lat="48.58396" lon="2.01964">
        <ele>68</ele>
        <time>2023-12-14T12:36:01Z</time>
      </trkpt>
      <trkpt lat="48.58402" lon="2.01957">
        <ele>68</ele>
        <time>2023-12-14T12:36:02Z</time>
      </trkpt>
      <trkpt lat="48.58407" lon="2.0195">
        <ele>68</ele>
        <time>2023-12-14T12:36:03Z</time>
      </trkpt>
      <trkpt lat="48.58412" lon="2.01945">
        <ele>68</ele>
        <time>2023-12-14T12:36:04Z</time>
      </trkpt>
      <trkpt lat="48.58417" lon="2.01939">
        <ele>68.4</ele>
        <time>2023-12-14T12:36:05Z</time>
      </trkpt>
      <trkpt lat="48.58423" lon="2.01934">
        <ele>68.4</ele>
        <time>2023-12-14T12:36:06Z</time>
      </trkpt>
      <trkpt lat="48.58428" lon="2.01929">
        <ele>68.4</ele>
        <time>2023-12-14T12:36:07Z</time>
      </trkpt>
      <trkpt lat="48.58432" lon="2.01925">
        <ele>68.4</ele>
        <time>2023-12-14T12:36:08Z</time>
      </trkpt>
      <trkpt lat="48.58437" lon="2.0192">
        <ele>68.6</ele>
        <time>2023-12-14T12:36:09Z</time>
      </trkpt>
      <trkpt lat="48.58442" lon="2.01915">
        <ele>68.6</ele>
        <time>2023-12-14T12:36:10Z</time>
      </trkpt>
      <trkpt lat="48.58447" lon="2.01911">
        <ele>68.6</ele>
        <time>2023-12-14T12:36:11Z</time>
      </trkpt>
      <trkpt lat="48.58452" lon="2.01906">
        <ele>68.6</ele>
        <time>2023-12-14T12:36:12Z</time>
      </trkpt>
      <trkpt lat="48.58456" lon="2.01902">
        <ele>69.4</ele>
        <time>2023-12-14T12:36:13Z</time>
      </trkpt>
      <trkpt lat="48.5846" lon="2.01896">
        <ele>69.4</ele>
        <time>2023-12-14T12:36:14Z</time>
      </trkpt>
      <trkpt lat="48.58465" lon="2.01892">
        <ele>69.4</ele>
        <time>2023-12-14T12:36:15Z</time>
      </trkpt>
      <trkpt lat="48.58469" lon="2.01887">
        <ele>69.4</ele>
        <time>2023-12-14T12:36:16Z</time>
      </trkpt>
      <trkpt lat="48.58473" lon="2.01882">
        <ele>69.6</ele>
        <time>2023-12-14T12:36:17Z</time>
      </trkpt>
      <trkpt lat="48.58477" lon="2.01878">
        <ele>69.6</ele>
        <time>2023-12-14T12:36:18Z</time>
      </trkpt>
      <trkpt lat="48.58482" lon="2.01874">
        <ele>69.6</ele>
        <time>2023-12-14T12:36:19Z</time>
      </trkpt>
      <trkpt lat="48.58486" lon="2.0187">
        <ele>69.4</ele>
        <time>2023-12-14T12:36:20Z</time>
      </trkpt>
      <trkpt lat="48.58491" lon="2.01866">
        <ele>68.8</ele>
        <time>2023-12-14T12:36:21Z</time>
      </trkpt>
      <trkpt lat="48.58495" lon="2.01862">
        <ele>68.8</ele>
        <time>2023-12-14T12:36:22Z</time>
      </trkpt>
      <trkpt lat="48.58499" lon="2.01857">
        <ele>68.8</ele>
        <time>2023-12-14T12:36:23Z</time>
      </trkpt>
      <trkpt lat="48.58504" lon="2.01854">
        <ele>69</ele>
        <time>2023-12-14T12:36:24Z</time>
      </trkpt>
      <trkpt lat="48.58508" lon="2.0185">
        <ele>69</ele>
        <time>2023-12-14T12:36:25Z</time>
      </trkpt>
      <trkpt lat="48.58512" lon="2.01845">
        <ele>69</ele>
        <time>2023-12-14T12:36:26Z</time>
      </trkpt>
      <trkpt lat="48.58516" lon="2.01842">
        <ele>69</ele>
        <time>2023-12-14T12:36:27Z</time>
      </trkpt>
      <trkpt lat="48.58521" lon="2.01838">
        <ele>69.4</ele>
        <time>2023-12-14T12:36:28Z</time>
      </trkpt>
      <trkpt lat="48.58525" lon="2.01834">
        <ele>69.4</ele>
        <time>2023-12-14T12:36:29Z</time>
      </trkpt>
      <trkpt lat="48.58529" lon="2.0183">
        <ele>69.4</ele>
        <time>2023-12-14T12:36:30Z</time>
      </trkpt>
      <trkpt lat="48.58534" lon="2.01825">
        <ele>69.4</ele>
        <time>2023-12-14T12:36:31Z</time>
      </trkpt>
      <trkpt lat="48.58538" lon="2.01821">
        <ele>69.4</ele>
        <time>2023-12-14T12:36:32Z</time>
      </trkpt>
      <trkpt lat="48.58542" lon="2.01817">
        <ele>69.2</ele>
        <time>2023-12-14T12:36:33Z</time>
      </trkpt>
      <trkpt lat="48.58547" lon="2.01813">
        <ele>69.2</ele>
        <time>2023-12-14T12:36:34Z</time>
      </trkpt>
      <trkpt lat="48.58551" lon="2.01808">
        <ele>69.2</ele>
        <time>2023-12-14T12:36:35Z</time>
      </trkpt>
      <trkpt lat="48.58555" lon="2.01803">
        <ele>69.2</ele>
        <time>2023-12-14T12:36:36Z</time>
      </trkpt>
      <trkpt lat="48.5856" lon="2.01799">
        <ele>69</ele>
        <time>2023-12-14T12:36:37Z</time>
      </trkpt>
      <trkpt lat="48.58564" lon="2.01795">
        <ele>69</ele>
        <time>2023-12-14T12:36:38Z</time>
      </trkpt>
      <trkpt lat="48.58568" lon="2.01791">
        <ele>69</ele>
        <time>2023-12-14T12:36:39Z</time>
      </trkpt>
      <trkpt lat="48.58573" lon="2.01786">
        <ele>69.6</ele>
        <time>2023-12-14T12:36:40Z</time>
      </trkpt>
      <trkpt lat="48.58577" lon="2.01782">
        <ele>70</ele>
        <time>2023-12-14T12:36:41Z</time>
      </trkpt>
      <trkpt lat="48.58581" lon="2.01778">
        <ele>70</ele>
        <time>2023-12-14T12:36:42Z</time>
      </trkpt>
      <trkpt lat="48.58586" lon="2.01774">
        <ele>70</ele>
        <time>2023-12-14T12:36:43Z</time>
      </trkpt>
      <trkpt lat="48.5859" lon="2.0177">
        <ele>70</ele>
        <time>2023-12-14T12:36:44Z</time>
      </trkpt>
      <trkpt lat="48.58595" lon="2.01766">
        <ele>70.4</ele>
        <time>2023-12-14T12:36:45Z</time>
      </trkpt>
      <trkpt lat="48.58599" lon="2.01762">
        <ele>70.4</ele>
        <time>2023-12-14T12:36:46Z</time>
      </trkpt>
      <trkpt lat="48.58604" lon="2.01758">
        <ele>70.4</ele>
        <time>2023-12-14T12:36:47Z</time>
      </trkpt>
      <trkpt lat="48.58608" lon="2.01754">
        <ele>70.4</ele>
        <time>2023-12-14T12:36:48Z</time>
      </trkpt>
      <trkpt lat="48.58613" lon="2.01751">
        <ele>70.2</ele>
        <time>2023-12-14T12:36:49Z</time>
      </trkpt>
      <trkpt lat="48.58618" lon="2.01748">
        <ele>70.2</ele>
        <time>2023-12-14T12:36:50Z</time>
      </trkpt>
      <trkpt lat="48.58622" lon="2.01744">
        <ele>70.2</ele>
        <time>2023-12-14T12:36:51Z</time>
      </trkpt>
      <trkpt lat="48.58627" lon="2.01741">
        <ele>70.2</ele>
        <time>2023-12-14T12:36:52Z</time>
      </trkpt>
      <trkpt lat="48.58632" lon="2.01739">
        <ele>70.8</ele>
        <time>2023-12-14T12:36:53Z</time>
      </trkpt>
      <trkpt lat="48.58637" lon="2.01736">
        <ele>70.8</ele>
        <time>2023-12-14T12:36:54Z</time>
      </trkpt>
      <trkpt lat="48.58642" lon="2.01733">
        <ele>70.8</ele>
        <time>2023-12-14T12:36:55Z</time>
      </trkpt>
      <trkpt lat="48.58647" lon="2.01731">
        <ele>70.8</ele>
        <time>2023-12-14T12:36:56Z</time>
      </trkpt>
      <trkpt lat="48.58651" lon="2.01728">
        <ele>71.4</ele>
        <time>2023-12-14T12:36:57Z</time>
      </trkpt>
      <trkpt lat="48.58656" lon="2.01726">
        <ele>71.4</ele>
        <time>2023-12-14T12:36:58Z</time>
      </trkpt>
      <trkpt lat="48.58661" lon="2.01723">
        <ele>71.4</ele>
        <time>2023-12-14T12:36:59Z</time>
      </trkpt>
      <trkpt lat="48.58666" lon="2.01721">
        <ele>71.4</ele>
        <time>2023-12-14T12:37:00Z</time>
      </trkpt>
      <trkpt lat="48.58671" lon="2.01718">
        <ele>71</ele>
        <time>2023-12-14T12:37:01Z</time>
      </trkpt>
      <trkpt lat="48.58675" lon="2.01716">
        <ele>71</ele>
        <time>2023-12-14T12:37:02Z</time>
      </trkpt>
      <trkpt lat="48.5868" lon="2.01714">
        <ele>71</ele>
        <time>2023-12-14T12:37:03Z</time>
      </trkpt>
      <trkpt lat="48.58685" lon="2.01712">
        <ele>71.8</ele>
        <time>2023-12-14T12:37:04Z</time>
      </trkpt>
      <trkpt lat="48.5869" lon="2.0171">
        <ele>71.8</ele>
        <time>2023-12-14T12:37:05Z</time>
      </trkpt>
      <trkpt lat="48.58695" lon="2.01707">
        <ele>71.8</ele>
        <time>2023-12-14T12:37:06Z</time>
      </trkpt>
      <trkpt lat="48.587" lon="2.01705">
        <ele>71.8</ele>
        <time>2023-12-14T12:37:07Z</time>
      </trkpt>
      <trkpt lat="48.58704" lon="2.01702">
        <ele>71.8</ele>
        <time>2023-12-14T12:37:08Z</time>
      </trkpt>
      <trkpt lat="48.5871" lon="2.017">
        <ele>72</ele>
        <time>2023-12-14T12:37:09Z</time>
      </trkpt>
      <trkpt lat="48.58714" lon="2.01697">
        <ele>72</ele>
        <time>2023-12-14T12:37:10Z</time>
      </trkpt>
      <trkpt lat="48.58719" lon="2.01694">
        <ele>72</ele>
        <time>2023-12-14T12:37:11Z</time>
      </trkpt>
      <trkpt lat="48.58724" lon="2.01691">
        <ele>71.6</ele>
        <time>2023-12-14T12:37:12Z</time>
      </trkpt>
      <trkpt lat="48.58729" lon="2.01688">
        <ele>72</ele>
        <time>2023-12-14T12:37:13Z</time>
      </trkpt>
      <trkpt lat="48.58734" lon="2.01686">
        <ele>72</ele>
        <time>2023-12-14T12:37:14Z</time>
      </trkpt>
      <trkpt lat="48.58739" lon="2.01684">
        <ele>72</ele>
        <time>2023-12-14T12:37:15Z</time>
      </trkpt>
      <trkpt lat="48.58744" lon="2.01681">
        <ele>72</ele>
        <time>2023-12-14T12:37:16Z</time>
      </trkpt>
      <trkpt lat="48.58749" lon="2.01679">
        <ele>72</ele>
        <time>2023-12-14T12:37:17Z</time>
      </trkpt>
      <trkpt lat="48.58753" lon="2.01676">
        <ele>72</ele>
        <time>2023-12-14T12:37:18Z</time>
      </trkpt>
      <trkpt lat="48.58758" lon="2.01673">
        <ele>72</ele>
        <time>2023-12-14T12:37:19Z</time>
      </trkpt>
      <trkpt lat="48.58763" lon="2.0167">
        <ele>72</ele>
        <time>2023-12-14T12:37:20Z</time>
      </trkpt>
      <trkpt lat="48.58768" lon="2.01668">
        <ele>72.2</ele>
        <time>2023-12-14T12:37:21Z</time>
      </trkpt>
      <trkpt lat="48.58772" lon="2.01665">
        <ele>72.2</ele>
        <time>2023-12-14T12:37:22Z</time>
      </trkpt>
      <trkpt lat="48.58777" lon="2.01662">
        <ele>72.2</ele>
        <time>2023-12-14T12:37:23Z</time>
      </trkpt>
      <trkpt lat="48.58781" lon="2.01659">
        <ele>72.6</ele>
        <time>2023-12-14T12:37:24Z</time>
      </trkpt>
      <trkpt lat="48.58786" lon="2.01656">
        <ele>72.6</ele>
        <time>2023-12-14T12:37:25Z</time>
      </trkpt>
      <trkpt lat="48.58791" lon="2.01654">
        <ele>72.6</ele>
        <time>2023-12-14T12:37:26Z</time>
      </trkpt>
      <trkpt lat="48.58796" lon="2.01651">
        <ele>72.6</ele>
        <time>2023-12-14T12:37:27Z</time>
      </trkpt>
      <trkpt lat="48.588" lon="2.01649">
        <ele>73.4</ele>
        <time>2023-12-14T12:37:28Z</time>
      </trkpt>
      <trkpt lat="48.58805" lon="2.01647">
        <ele>73.4</ele>
        <time>2023-12-14T12:37:29Z</time>
      </trkpt>
      <trkpt lat="48.5881" lon="2.01644">
        <ele>73.4</ele>
        <time>2023-12-14T12:37:30Z</time>
      </trkpt>
      <trkpt lat="48.58815" lon="2.01642">
        <ele>73.4</ele>
        <time>2023-12-14T12:37:31Z</time>
      </trkpt>
      <trkpt lat="48.58819" lon="2.0164">
        <ele>73.4</ele>
        <time>2023-12-14T12:37:32Z</time>
      </trkpt>
      <trkpt lat="48.58824" lon="2.01637">
        <ele>74.6</ele>
        <time>2023-12-14T12:37:33Z</time>
      </trkpt>
      <trkpt lat="48.58829" lon="2.01635">
        <ele>74.6</ele>
        <time>2023-12-14T12:37:34Z</time>
      </trkpt>
      <trkpt lat="48.58834" lon="2.01633">
        <ele>74.6</ele>
        <time>2023-12-14T12:37:35Z</time>
      </trkpt>
      <trkpt lat="48.58839" lon="2.01631">
        <ele>73.6</ele>
        <time>2023-12-14T12:37:36Z</time>
      </trkpt>
      <trkpt lat="48.58844" lon="2.01628">
        <ele>73.2</ele>
        <time>2023-12-14T12:37:37Z</time>
      </trkpt>
      <trkpt lat="48.58849" lon="2.01625">
        <ele>73.2</ele>
        <time>2023-12-14T12:37:38Z</time>
      </trkpt>
      <trkpt lat="48.58854" lon="2.01623">
        <ele>73.2</ele>
        <time>2023-12-14T12:37:39Z</time>
      </trkpt>
      <trkpt lat="48.58859" lon="2.0162">
        <ele>73.2</ele>
        <time>2023-12-14T12:37:40Z</time>
      </trkpt>
      <trkpt lat="48.58864" lon="2.01618">
        <ele>72.6</ele>
        <time>2023-12-14T12:37:41Z</time>
      </trkpt>
      <trkpt lat="48.58869" lon="2.01615">
        <ele>72.6</ele>
        <time>2023-12-14T12:37:42Z</time>
      </trkpt>
      <trkpt lat="48.58874" lon="2.01612">
        <ele>72.6</ele>
        <time>2023-12-14T12:37:43Z</time>
      </trkpt>
      <trkpt lat="48.58879" lon="2.01609">
        <ele>72</ele>
        <time>2023-12-14T12:37:44Z</time>
      </trkpt>
      <trkpt lat="48.58885" lon="2.01606">
        <ele>72.6</ele>
        <time>2023-12-14T12:37:45Z</time>
      </trkpt>
      <trkpt lat="48.5889" lon="2.01603">
        <ele>72.6</ele>
        <time>2023-12-14T12:37:46Z</time>
      </trkpt>
      <trkpt lat="48.58895" lon="2.016">
        <ele>72.6</ele>
        <time>2023-12-14T12:37:47Z</time>
      </trkpt>
      <trkpt lat="48.58901" lon="2.01597">
        <ele>73</ele>
        <time>2023-12-14T12:37:48Z</time>
      </trkpt>
      <trkpt lat="48.58906" lon="2.01594">
        <ele>72.6</ele>
        <time>2023-12-14T12:37:49Z</time>
      </trkpt>
      <trkpt lat="48.58911" lon="2.01591">
        <ele>72.6</ele>
        <time>2023-12-14T12:37:50Z</time>
      </trkpt>
      <trkpt lat="48.58917" lon="2.01589">
        <ele>72.6</ele>
        <time>2023-12-14T12:37:51Z</time>
      </trkpt>
      <trkpt lat="48.58922" lon="2.01586">
        <ele>72.6</ele>
        <time>2023-12-14T12:37:52Z</time>
      </trkpt>
      <trkpt lat="48.58927" lon="2.01583">
        <ele>72.6</ele>
        <time>2023-12-14T12:37:53Z</time>
      </trkpt>
      <trkpt lat="48.58932" lon="2.01581">
        <ele>72.6</ele>
        <time>2023-12-14T12:37:54Z</time>
      </trkpt>
      <trkpt lat="48.58938" lon="2.01578">
        <ele>72.6</ele>
        <time>2023-12-14T12:37:55Z</time>
      </trkpt>
      <trkpt lat="48.58943" lon="2.01575">
        <ele>72.6</ele>
        <time>2023-12-14T12:37:56Z</time>
      </trkpt>
      <trkpt lat="48.58948" lon="2.01572">
        <ele>72.8</ele>
        <time>2023-12-14T12:37:57Z</time>
      </trkpt>
      <trkpt lat="48.58953" lon="2.0157">
        <ele>72.8</ele>
        <time>2023-12-14T12:37:58Z</time>
      </trkpt>
      <trkpt lat="48.58958" lon="2.01567">
        <ele>72.8</ele>
        <time>2023-12-14T12:37:59Z</time>
      </trkpt>
      <trkpt lat="48.58963" lon="2.01565">
        <ele>72.8</ele>
        <time>2023-12-14T12:38:00Z</time>
      </trkpt>
      <trkpt lat="48.58968" lon="2.01562">
        <ele>72.8</ele>
        <time>2023-12-14T12:38:01Z</time>
      </trkpt>
      <trkpt lat="48.58973" lon="2.0156">
        <ele>72.8</ele>
        <time>2023-12-14T12:38:02Z</time>
      </trkpt>
      <trkpt lat="48.58978" lon="2.01558">
        <ele>72.8</ele>
        <time>2023-12-14T12:38:03Z</time>
      </trkpt>
      <trkpt lat="48.58983" lon="2.01555">
        <ele>72.8</ele>
        <time>2023-12-14T12:38:04Z</time>
      </trkpt>
      <trkpt lat="48.58988" lon="2.01553">
        <ele>73.2</ele>
        <time>2023-12-14T12:38:05Z</time>
      </trkpt>
      <trkpt lat="48.58993" lon="2.01551">
        <ele>73.2</ele>
        <time>2023-12-14T12:38:06Z</time>
      </trkpt>
      <trkpt lat="48.58998" lon="2.0155">
        <ele>73.2</ele>
        <time>2023-12-14T12:38:07Z</time>
      </trkpt>
      <trkpt lat="48.59003" lon="2.01548">
        <ele>73.2</ele>
        <time>2023-12-14T12:38:08Z</time>
      </trkpt>
      <trkpt lat="48.59008" lon="2.01547">
        <ele>73.4</ele>
        <time>2023-12-14T12:38:09Z</time>
      </trkpt>
      <trkpt lat="48.59013" lon="2.01547">
        <ele>73.4</ele>
        <time>2023-12-14T12:38:10Z</time>
      </trkpt>
      <trkpt lat="48.59017" lon="2.01547">
        <ele>73.4</ele>
        <time>2023-12-14T12:38:11Z</time>
      </trkpt>
      <trkpt lat="48.59021" lon="2.01548">
        <ele>74.2</ele>
        <time>2023-12-14T12:38:12Z</time>
      </trkpt>
      <trkpt lat="48.59025" lon="2.0155">
        <ele>74.6</ele>
        <time>2023-12-14T12:38:13Z</time>
      </trkpt>
      <trkpt lat="48.59028" lon="2.01551">
        <ele>74.6</ele>
        <time>2023-12-14T12:38:14Z</time>
      </trkpt>
      <trkpt lat="48.59032" lon="2.01551">
        <ele>74.6</ele>
        <time>2023-12-14T12:38:15Z</time>
      </trkpt>
      <trkpt lat="48.59035" lon="2.01548">
        <ele>75</ele>
        <time>2023-12-14T12:38:16Z</time>
      </trkpt>
      <trkpt lat="48.59036" lon="2.01543">
        <ele>74</ele>
        <time>2023-12-14T12:38:17Z</time>
      </trkpt>
      <trkpt lat="48.59036" lon="2.01538">
        <ele>74</ele>
        <time>2023-12-14T12:38:18Z</time>
      </trkpt>
      <trkpt lat="48.59034" lon="2.01533">
        <ele>74</ele>
        <time>2023-12-14T12:38:19Z</time>
      </trkpt>
      <trkpt lat="48.59032" lon="2.01528">
        <ele>73.2</ele>
        <time>2023-12-14T12:38:20Z</time>
      </trkpt>
      <trkpt lat="48.5903" lon="2.01523">
        <ele>72.6</ele>
        <time>2023-12-14T12:38:21Z</time>
      </trkpt>
      <trkpt lat="48.59028" lon="2.01518">
        <ele>72.6</ele>
        <time>2023-12-14T12:38:22Z</time>
      </trkpt>
      <trkpt lat="48.59026" lon="2.01511">
        <ele>72.6</ele>
        <time>2023-12-14T12:38:23Z</time>
      </trkpt>
      <trkpt lat="48.59024" lon="2.01504">
        <ele>71.6</ele>
        <time>2023-12-14T12:38:24Z</time>
      </trkpt>
      <trkpt lat="48.59022" lon="2.01496">
        <ele>71</ele>
        <time>2023-12-14T12:38:25Z</time>
      </trkpt>
      <trkpt lat="48.5902" lon="2.01488">
        <ele>71</ele>
        <time>2023-12-14T12:38:26Z</time>
      </trkpt>
      <trkpt lat="48.59019" lon="2.01478">
        <ele>71</ele>
        <time>2023-12-14T12:38:27Z</time>
      </trkpt>
      <trkpt lat="48.59017" lon="2.01469">
        <ele>70</ele>
        <time>2023-12-14T12:38:28Z</time>
      </trkpt>
      <trkpt lat="48.59016" lon="2.01459">
        <ele>69</ele>
        <time>2023-12-14T12:38:29Z</time>
      </trkpt>
      <trkpt lat="48.59014" lon="2.01448">
        <ele>69</ele>
        <time>2023-12-14T12:38:30Z</time>
      </trkpt>
      <trkpt lat="48.59013" lon="2.01439">
        <ele>69</ele>
        <time>2023-12-14T12:38:31Z</time>
      </trkpt>
      <trkpt lat="48.59011" lon="2.01429">
        <ele>68</ele>
        <time>2023-12-14T12:38:32Z</time>
      </trkpt>
      <trkpt lat="48.5901" lon="2.01419">
        <ele>68.8</ele>
        <time>2023-12-14T12:38:33Z</time>
      </trkpt>
      <trkpt lat="48.59008" lon="2.01411">
        <ele>68.8</ele>
        <time>2023-12-14T12:38:34Z</time>
      </trkpt>
      <trkpt lat="48.59007" lon="2.01403">
        <ele>68.8</ele>
        <time>2023-12-14T12:38:35Z</time>
      </trkpt>
      <trkpt lat="48.59005" lon="2.01394">
        <ele>68.4</ele>
        <time>2023-12-14T12:38:36Z</time>
      </trkpt>
      <trkpt lat="48.59003" lon="2.01385">
        <ele>69</ele>
        <time>2023-12-14T12:38:37Z</time>
      </trkpt>
      <trkpt lat="48.59002" lon="2.01377">
        <ele>69</ele>
        <time>2023-12-14T12:38:38Z</time>
      </trkpt>
      <trkpt lat="48.59" lon="2.01369">
        <ele>69</ele>
        <time>2023-12-14T12:38:39Z</time>
      </trkpt>
      <trkpt lat="48.58999" lon="2.01361">
        <ele>69</ele>
        <time>2023-12-14T12:38:40Z</time>
      </trkpt>
      <trkpt lat="48.58998" lon="2.01354">
        <ele>69.2</ele>
        <time>2023-12-14T12:38:41Z</time>
      </trkpt>
      <trkpt lat="48.58997" lon="2.01347">
        <ele>69.2</ele>
        <time>2023-12-14T12:38:42Z</time>
      </trkpt>
      <trkpt lat="48.58995" lon="2.0134">
        <ele>69.2</ele>
        <time>2023-12-14T12:38:43Z</time>
      </trkpt>
      <trkpt lat="48.58994" lon="2.01333">
        <ele>70.2</ele>
        <time>2023-12-14T12:38:44Z</time>
      </trkpt>
      <trkpt lat="48.58993" lon="2.01326">
        <ele>70</ele>
        <time>2023-12-14T12:38:45Z</time>
      </trkpt>
      <trkpt lat="48.58992" lon="2.01319">
        <ele>70</ele>
        <time>2023-12-14T12:38:46Z</time>
      </trkpt>
      <trkpt lat="48.58991" lon="2.01313">
        <ele>70</ele>
        <time>2023-12-14T12:38:47Z</time>
      </trkpt>
      <trkpt lat="48.58989" lon="2.01307">
        <ele>70.8</ele>
        <time>2023-12-14T12:38:48Z</time>
      </trkpt>
      <trkpt lat="48.58988" lon="2.01301">
        <ele>70.6</ele>
        <time>2023-12-14T12:38:49Z</time>
      </trkpt>
      <trkpt lat="48.58987" lon="2.01294">
        <ele>70.6</ele>
        <time>2023-12-14T12:38:50Z</time>
      </trkpt>
      <trkpt lat="48.58986" lon="2.01288">
        <ele>70.6</ele>
        <time>2023-12-14T12:38:51Z</time>
      </trkpt>
      <trkpt lat="48.58985" lon="2.01282">
        <ele>71</ele>
        <time>2023-12-14T12:38:52Z</time>
      </trkpt>
      <trkpt lat="48.58984" lon="2.01276">
        <ele>71.6</ele>
        <time>2023-12-14T12:38:53Z</time>
      </trkpt>
      <trkpt lat="48.58983" lon="2.0127">
        <ele>71.6</ele>
        <time>2023-12-14T12:38:54Z</time>
      </trkpt>
      <trkpt lat="48.58982" lon="2.01264">
        <ele>71.6</ele>
        <time>2023-12-14T12:38:55Z</time>
      </trkpt>
      <trkpt lat="48.5898" lon="2.01258">
        <ele>71.6</ele>
        <time>2023-12-14T12:38:56Z</time>
      </trkpt>
      <trkpt lat="48.58979" lon="2.01252">
        <ele>71</ele>
        <time>2023-12-14T12:38:57Z</time>
      </trkpt>
      <trkpt lat="48.58978" lon="2.01246">
        <ele>71</ele>
        <time>2023-12-14T12:38:58Z</time>
      </trkpt>
      <trkpt lat="48.58977" lon="2.0124">
        <ele>71</ele>
        <time>2023-12-14T12:38:59Z</time>
      </trkpt>
      <trkpt lat="48.58976" lon="2.01234">
        <ele>72</ele>
        <time>2023-12-14T12:39:00Z</time>
      </trkpt>
      <trkpt lat="48.58975" lon="2.01228">
        <ele>72.8</ele>
        <time>2023-12-14T12:39:01Z</time>
      </trkpt>
      <trkpt lat="48.58974" lon="2.01222">
        <ele>72.8</ele>
        <time>2023-12-14T12:39:02Z</time>
      </trkpt>
      <trkpt lat="48.58972" lon="2.01217">
        <ele>72.8</ele>
        <time>2023-12-14T12:39:03Z</time>
      </trkpt>
      <trkpt lat="48.58971" lon="2.01211">
        <ele>73.6</ele>
        <time>2023-12-14T12:39:04Z</time>
      </trkpt>
      <trkpt lat="48.5897" lon="2.01205">
        <ele>72.8</ele>
        <time>2023-12-14T12:39:05Z</time>
      </trkpt>
      <trkpt lat="48.58969" lon="2.01199">
        <ele>72.8</ele>
        <time>2023-12-14T12:39:06Z</time>
      </trkpt>
      <trkpt lat="48.58968" lon="2.01193">
        <ele>72.8</ele>
        <time>2023-12-14T12:39:07Z</time>
      </trkpt>
      <trkpt lat="48.58967" lon="2.01187">
        <ele>73.4</ele>
        <time>2023-12-14T12:39:08Z</time>
      </trkpt>
      <trkpt lat="48.58966" lon="2.01181">
        <ele>74.2</ele>
        <time>2023-12-14T12:39:09Z</time>
      </trkpt>
      <trkpt lat="48.58966" lon="2.01176">
        <ele>74.2</ele>
        <time>2023-12-14T12:39:10Z</time>
      </trkpt>
      <trkpt lat="48.58965" lon="2.0117">
        <ele>74.2</ele>
        <time>2023-12-14T12:39:11Z</time>
      </trkpt>
      <trkpt lat="48.58965" lon="2.01164">
        <ele>73.8</ele>
        <time>2023-12-14T12:39:12Z</time>
      </trkpt>
      <trkpt lat="48.58963" lon="2.01158">
        <ele>74</ele>
        <time>2023-12-14T12:39:13Z</time>
      </trkpt>
      <trkpt lat="48.58963" lon="2.01153">
        <ele>74</ele>
        <time>2023-12-14T12:39:14Z</time>
      </trkpt>
      <trkpt lat="48.58962" lon="2.01147">
        <ele>74</ele>
        <time>2023-12-14T12:39:15Z</time>
      </trkpt>
      <trkpt lat="48.58961" lon="2.01141">
        <ele>74.2</ele>
        <time>2023-12-14T12:39:16Z</time>
      </trkpt>
      <trkpt lat="48.58961" lon="2.01136">
        <ele>74.4</ele>
        <time>2023-12-14T12:39:17Z</time>
      </trkpt>
      <trkpt lat="48.5896" lon="2.01131">
        <ele>74.4</ele>
        <time>2023-12-14T12:39:18Z</time>
      </trkpt>
      <trkpt lat="48.58959" lon="2.01125">
        <ele>74.4</ele>
        <time>2023-12-14T12:39:19Z</time>
      </trkpt>
      <trkpt lat="48.58958" lon="2.0112">
        <ele>74.4</ele>
        <time>2023-12-14T12:39:20Z</time>
      </trkpt>
      <trkpt lat="48.58958" lon="2.01114">
        <ele>74.6</ele>
        <time>2023-12-14T12:39:21Z</time>
      </trkpt>
      <trkpt lat="48.58957" lon="2.01109">
        <ele>74.6</ele>
        <time>2023-12-14T12:39:22Z</time>
      </trkpt>
      <trkpt lat="48.58956" lon="2.01103">
        <ele>74.6</ele>
        <time>2023-12-14T12:39:23Z</time>
      </trkpt>
      <trkpt lat="48.58956" lon="2.01097">
        <ele>75.6</ele>
        <time>2023-12-14T12:39:24Z</time>
      </trkpt>
      <trkpt lat="48.58955" lon="2.01092">
        <ele>75.6</ele>
        <time>2023-12-14T12:39:25Z</time>
      </trkpt>
      <trkpt lat="48.58954" lon="2.01086">
        <ele>75.6</ele>
        <time>2023-12-14T12:39:26Z</time>
      </trkpt>
      <trkpt lat="48.58953" lon="2.0108">
        <ele>75.6</ele>
        <time>2023-12-14T12:39:27Z</time>
      </trkpt>
      <trkpt lat="48.58952" lon="2.01074">
        <ele>76</ele>
        <time>2023-12-14T12:39:28Z</time>
      </trkpt>
      <trkpt lat="48.58951" lon="2.01069">
        <ele>76.2</ele>
        <time>2023-12-14T12:39:29Z</time>
      </trkpt>
      <trkpt lat="48.5895" lon="2.01063">
        <ele>76.2</ele>
        <time>2023-12-14T12:39:30Z</time>
      </trkpt>
      <trkpt lat="48.5895" lon="2.01057">
        <ele>76.2</ele>
        <time>2023-12-14T12:39:31Z</time>
      </trkpt>
      <trkpt lat="48.58949" lon="2.01052">
        <ele>76.2</ele>
        <time>2023-12-14T12:39:32Z</time>
      </trkpt>
      <trkpt lat="48.58948" lon="2.01046">
        <ele>76.6</ele>
        <time>2023-12-14T12:39:33Z</time>
      </trkpt>
      <trkpt lat="48.58947" lon="2.0104">
        <ele>76.6</ele>
        <time>2023-12-14T12:39:34Z</time>
      </trkpt>
      <trkpt lat="48.58946" lon="2.01034">
        <ele>76.6</ele>
        <time>2023-12-14T12:39:35Z</time>
      </trkpt>
      <trkpt lat="48.58945" lon="2.01029">
        <ele>76.6</ele>
        <time>2023-12-14T12:39:36Z</time>
      </trkpt>
      <trkpt lat="48.58945" lon="2.01024">
        <ele>76.6</ele>
        <time>2023-12-14T12:39:37Z</time>
      </trkpt>
      <trkpt lat="48.58944" lon="2.01018">
        <ele>76.6</ele>
        <time>2023-12-14T12:39:38Z</time>
      </trkpt>
      <trkpt lat="48.58944" lon="2.01013">
        <ele>76.6</ele>
        <time>2023-12-14T12:39:39Z</time>
      </trkpt>
      <trkpt lat="48.58943" lon="2.01008">
        <ele>77.4</ele>
        <time>2023-12-14T12:39:40Z</time>
      </trkpt>
      <trkpt lat="48.58943" lon="2.01003">
        <ele>77.6</ele>
        <time>2023-12-14T12:39:41Z</time>
      </trkpt>
      <trkpt lat="48.58942" lon="2.00997">
        <ele>77.6</ele>
        <time>2023-12-14T12:39:42Z</time>
      </trkpt>
      <trkpt lat="48.58941" lon="2.00992">
        <ele>77.6</ele>
        <time>2023-12-14T12:39:43Z</time>
      </trkpt>
      <trkpt lat="48.5894" lon="2.00987">
        <ele>77.8</ele>
        <time>2023-12-14T12:39:44Z</time>
      </trkpt>
      <trkpt lat="48.58939" lon="2.00982">
        <ele>78</ele>
        <time>2023-12-14T12:39:45Z</time>
      </trkpt>
      <trkpt lat="48.58938" lon="2.00976">
        <ele>78</ele>
        <time>2023-12-14T12:39:46Z</time>
      </trkpt>
      <trkpt lat="48.58937" lon="2.00971">
        <ele>78</ele>
        <time>2023-12-14T12:39:47Z</time>
      </trkpt>
      <trkpt lat="48.58937" lon="2.00966">
        <ele>78</ele>
        <time>2023-12-14T12:39:48Z</time>
      </trkpt>
      <trkpt lat="48.58937" lon="2.00961">
        <ele>78.2</ele>
        <time>2023-12-14T12:39:49Z</time>
      </trkpt>
      <trkpt lat="48.58935" lon="2.00957">
        <ele>78.2</ele>
        <time>2023-12-14T12:39:50Z</time>
      </trkpt>
      <trkpt lat="48.58935" lon="2.00952">
        <ele>78.2</ele>
        <time>2023-12-14T12:39:51Z</time>
      </trkpt>
      <trkpt lat="48.58934" lon="2.00947">
        <ele>78.6</ele>
        <time>2023-12-14T12:39:52Z</time>
      </trkpt>
      <trkpt lat="48.58933" lon="2.00942">
        <ele>78.6</ele>
        <time>2023-12-14T12:39:53Z</time>
      </trkpt>
      <trkpt lat="48.58932" lon="2.00936">
        <ele>78.6</ele>
        <time>2023-12-14T12:39:54Z</time>
      </trkpt>
      <trkpt lat="48.58932" lon="2.00929">
        <ele>78.6</ele>
        <time>2023-12-14T12:39:55Z</time>
      </trkpt>
      <trkpt lat="48.58931" lon="2.00922">
        <ele>78.8</ele>
        <time>2023-12-14T12:39:56Z</time>
      </trkpt>
      <trkpt lat="48.58931" lon="2.00917">
        <ele>78.8</ele>
        <time>2023-12-14T12:39:57Z</time>
      </trkpt>
      <trkpt lat="48.5893" lon="2.00912">
        <ele>78.8</ele>
        <time>2023-12-14T12:39:58Z</time>
      </trkpt>
      <trkpt lat="48.58929" lon="2.00905">
        <ele>78.8</ele>
        <time>2023-12-14T12:39:59Z</time>
      </trkpt>
      <trkpt lat="48.58929" lon="2.009">
        <ele>78.8</ele>
        <time>2023-12-14T12:40:00Z</time>
      </trkpt>
      <trkpt lat="48.58928" lon="2.00894">
        <ele>79</ele>
        <time>2023-12-14T12:40:01Z</time>
      </trkpt>
      <trkpt lat="48.58928" lon="2.00889">
        <ele>79</ele>
        <time>2023-12-14T12:40:02Z</time>
      </trkpt>
      <trkpt lat="48.58928" lon="2.00883">
        <ele>79</ele>
        <time>2023-12-14T12:40:03Z</time>
      </trkpt>
      <trkpt lat="48.58928" lon="2.00877">
        <ele>79</ele>
        <time>2023-12-14T12:40:04Z</time>
      </trkpt>
      <trkpt lat="48.58927" lon="2.0087">
        <ele>79.6</ele>
        <time>2023-12-14T12:40:05Z</time>
      </trkpt>
      <trkpt lat="48.58927" lon="2.00864">
        <ele>79.6</ele>
        <time>2023-12-14T12:40:06Z</time>
      </trkpt>
      <trkpt lat="48.58927" lon="2.00858">
        <ele>79.6</ele>
        <time>2023-12-14T12:40:07Z</time>
      </trkpt>
      <trkpt lat="48.58927" lon="2.00853">
        <ele>79.6</ele>
        <time>2023-12-14T12:40:08Z</time>
      </trkpt>
      <trkpt lat="48.58928" lon="2.00849">
        <ele>80.4</ele>
        <time>2023-12-14T12:40:09Z</time>
      </trkpt>
      <trkpt lat="48.58928" lon="2.00843">
        <ele>80.4</ele>
        <time>2023-12-14T12:40:10Z</time>
      </trkpt>
      <trkpt lat="48.58928" lon="2.00837">
        <ele>80.4</ele>
        <time>2023-12-14T12:40:11Z</time>
      </trkpt>
      <trkpt lat="48.58928" lon="2.0083">
        <ele>81.2</ele>
        <time>2023-12-14T12:40:12Z</time>
      </trkpt>
      <trkpt lat="48.58928" lon="2.00822">
        <ele>81.8</ele>
        <time>2023-12-14T12:40:13Z</time>
      </trkpt>
      <trkpt lat="48.58928" lon="2.00816">
        <ele>81.8</ele>
        <time>2023-12-14T12:40:14Z</time>
      </trkpt>
      <trkpt lat="48.58928" lon="2.00809">
        <ele>81.8</ele>
        <time>2023-12-14T12:40:15Z</time>
      </trkpt>
      <trkpt lat="48.58928" lon="2.00802">
        <ele>81.8</ele>
        <time>2023-12-14T12:40:16Z</time>
      </trkpt>
      <trkpt lat="48.58929" lon="2.00796">
        <ele>81.6</ele>
        <time>2023-12-14T12:40:17Z</time>
      </trkpt>
      <trkpt lat="48.58929" lon="2.00789">
        <ele>81.6</ele>
        <time>2023-12-14T12:40:18Z</time>
      </trkpt>
      <trkpt lat="48.5893" lon="2.00782">
        <ele>81.6</ele>
        <time>2023-12-14T12:40:19Z</time>
      </trkpt>
      <trkpt lat="48.58931" lon="2.00775">
        <ele>81.6</ele>
        <time>2023-12-14T12:40:20Z</time>
      </trkpt>
      <trkpt lat="48.58931" lon="2.00768">
        <ele>81.8</ele>
        <time>2023-12-14T12:40:21Z</time>
      </trkpt>
      <trkpt lat="48.58932" lon="2.00761">
        <ele>81.8</ele>
        <time>2023-12-14T12:40:22Z</time>
      </trkpt>
      <trkpt lat="48.58932" lon="2.00754">
        <ele>81.8</ele>
        <time>2023-12-14T12:40:23Z</time>
      </trkpt>
      <trkpt lat="48.58933" lon="2.00746">
        <ele>81.8</ele>
        <time>2023-12-14T12:40:24Z</time>
      </trkpt>
      <trkpt lat="48.58934" lon="2.00739">
        <ele>81.4</ele>
        <time>2023-12-14T12:40:25Z</time>
      </trkpt>
      <trkpt lat="48.58934" lon="2.00731">
        <ele>81.4</ele>
        <time>2023-12-14T12:40:26Z</time>
      </trkpt>
      <trkpt lat="48.58935" lon="2.00724">
        <ele>81.4</ele>
        <time>2023-12-14T12:40:27Z</time>
      </trkpt>
      <trkpt lat="48.58936" lon="2.00716">
        <ele>81.8</ele>
        <time>2023-12-14T12:40:28Z</time>
      </trkpt>
      <trkpt lat="48.58936" lon="2.00708">
        <ele>81.8</ele>
        <time>2023-12-14T12:40:29Z</time>
      </trkpt>
      <trkpt lat="48.58936" lon="2.00701">
        <ele>81.8</ele>
        <time>2023-12-14T12:40:30Z</time>
      </trkpt>
      <trkpt lat="48.58937" lon="2.00693">
        <ele>81.8</ele>
        <time>2023-12-14T12:40:31Z</time>
      </trkpt>
      <trkpt lat="48.58937" lon="2.00687">
        <ele>81.8</ele>
        <time>2023-12-14T12:40:32Z</time>
      </trkpt>
      <trkpt lat="48.58937" lon="2.00679">
        <ele>81.8</ele>
        <time>2023-12-14T12:40:33Z</time>
      </trkpt>
      <trkpt lat="48.58937" lon="2.0067">
        <ele>81.8</ele>
        <time>2023-12-14T12:40:34Z</time>
      </trkpt>
      <trkpt lat="48.58937" lon="2.0066">
        <ele>81.8</ele>
        <time>2023-12-14T12:40:35Z</time>
      </trkpt>
      <trkpt lat="48.58936" lon="2.00651">
        <ele>81.8</ele>
        <time>2023-12-14T12:40:36Z</time>
      </trkpt>
      <trkpt lat="48.58936" lon="2.00642">
        <ele>81.4</ele>
        <time>2023-12-14T12:40:37Z</time>
      </trkpt>
      <trkpt lat="48.58936" lon="2.00633">
        <ele>81.4</ele>
        <time>2023-12-14T12:40:38Z</time>
      </trkpt>
      <trkpt lat="48.58936" lon="2.00627">
        <ele>81.4</ele>
        <time>2023-12-14T12:40:39Z</time>
      </trkpt>
      <trkpt lat="48.58936" lon="2.00622">
        <ele>81.4</ele>
        <time>2023-12-14T12:40:40Z</time>
      </trkpt>
      <trkpt lat="48.58936" lon="2.00615">
        <ele>81.4</ele>
        <time>2023-12-14T12:40:41Z</time>
      </trkpt>
      <trkpt lat="48.58937" lon="2.00606">
        <ele>81.4</ele>
        <time>2023-12-14T12:40:42Z</time>
      </trkpt>
      <trkpt lat="48.58937" lon="2.00599">
        <ele>81.4</ele>
        <time>2023-12-14T12:40:43Z</time>
      </trkpt>
      <trkpt lat="48.58937" lon="2.00592">
        <ele>81.4</ele>
        <time>2023-12-14T12:40:44Z</time>
      </trkpt>
      <trkpt lat="48.58936" lon="2.00586">
        <ele>82</ele>
        <time>2023-12-14T12:40:45Z</time>
      </trkpt>
      <trkpt lat="48.58936" lon="2.00579">
        <ele>82</ele>
        <time>2023-12-14T12:40:46Z</time>
      </trkpt>
      <trkpt lat="48.58936" lon="2.00571">
        <ele>82</ele>
        <time>2023-12-14T12:40:47Z</time>
      </trkpt>
      <trkpt lat="48.58936" lon="2.00565">
        <ele>82.8</ele>
        <time>2023-12-14T12:40:48Z</time>
      </trkpt>
      <trkpt lat="48.58935" lon="2.00558">
        <ele>82.8</ele>
        <time>2023-12-14T12:40:49Z</time>
      </trkpt>
      <trkpt lat="48.58935" lon="2.0055">
        <ele>82.8</ele>
        <time>2023-12-14T12:40:50Z</time>
      </trkpt>
      <trkpt lat="48.58935" lon="2.00542">
        <ele>82.8</ele>
        <time>2023-12-14T12:40:51Z</time>
      </trkpt>
      <trkpt lat="48.58935" lon="2.00536">
        <ele>83.2</ele>
        <time>2023-12-14T12:40:52Z</time>
      </trkpt>
      <trkpt lat="48.58934" lon="2.00528">
        <ele>83.6</ele>
        <time>2023-12-14T12:40:53Z</time>
      </trkpt>
      <trkpt lat="48.58935" lon="2.0052">
        <ele>83.6</ele>
        <time>2023-12-14T12:40:54Z</time>
      </trkpt>
      <trkpt lat="48.58935" lon="2.00514">
        <ele>83.6</ele>
        <time>2023-12-14T12:40:55Z</time>
      </trkpt>
      <trkpt lat="48.58935" lon="2.00507">
        <ele>83.8</ele>
        <time>2023-12-14T12:40:56Z</time>
      </trkpt>
      <trkpt lat="48.58935" lon="2.00501">
        <ele>83.8</ele>
        <time>2023-12-14T12:40:57Z</time>
      </trkpt>
      <trkpt lat="48.58935" lon="2.00494">
        <ele>83.8</ele>
        <time>2023-12-14T12:40:58Z</time>
      </trkpt>
      <trkpt lat="48.58935" lon="2.00488">
        <ele>83.8</ele>
        <time>2023-12-14T12:40:59Z</time>
      </trkpt>
      <trkpt lat="48.58935" lon="2.00481">
        <ele>84</ele>
        <time>2023-12-14T12:41:00Z</time>
      </trkpt>
      <trkpt lat="48.58935" lon="2.00473">
        <ele>84</ele>
        <time>2023-12-14T12:41:01Z</time>
      </trkpt>
      <trkpt lat="48.58935" lon="2.00467">
        <ele>84</ele>
        <time>2023-12-14T12:41:02Z</time>
      </trkpt>
      <trkpt lat="48.58934" lon="2.0046">
        <ele>84</ele>
        <time>2023-12-14T12:41:03Z</time>
      </trkpt>
      <trkpt lat="48.58934" lon="2.00453">
        <ele>84</ele>
        <time>2023-12-14T12:41:04Z</time>
      </trkpt>
      <trkpt lat="48.58933" lon="2.00446">
        <ele>84.4</ele>
        <time>2023-12-14T12:41:05Z</time>
      </trkpt>
      <trkpt lat="48.58933" lon="2.00439">
        <ele>84.4</ele>
        <time>2023-12-14T12:41:06Z</time>
      </trkpt>
      <trkpt lat="48.58933" lon="2.00433">
        <ele>84.4</ele>
        <time>2023-12-14T12:41:07Z</time>
      </trkpt>
      <trkpt lat="48.58932" lon="2.00426">
        <ele>84.4</ele>
        <time>2023-12-14T12:41:08Z</time>
      </trkpt>
      <trkpt lat="48.58933" lon="2.0042">
        <ele>84.8</ele>
        <time>2023-12-14T12:41:09Z</time>
      </trkpt>
      <trkpt lat="48.58932" lon="2.00413">
        <ele>84.8</ele>
        <time>2023-12-14T12:41:10Z</time>
      </trkpt>
      <trkpt lat="48.58932" lon="2.00405">
        <ele>84.8</ele>
        <time>2023-12-14T12:41:11Z</time>
      </trkpt>
      <trkpt lat="48.58932" lon="2.00397">
        <ele>84.8</ele>
        <time>2023-12-14T12:41:12Z</time>
      </trkpt>
      <trkpt lat="48.58932" lon="2.0039">
        <ele>85.2</ele>
        <time>2023-12-14T12:41:13Z</time>
      </trkpt>
      <trkpt lat="48.58932" lon="2.00382">
        <ele>85.2</ele>
        <time>2023-12-14T12:41:14Z</time>
      </trkpt>
      <trkpt lat="48.58932" lon="2.00376">
        <ele>85.2</ele>
        <time>2023-12-14T12:41:15Z</time>
      </trkpt>
      <trkpt lat="48.58931" lon="2.00368">
        <ele>85.4</ele>
        <time>2023-12-14T12:41:16Z</time>
      </trkpt>
      <trkpt lat="48.58931" lon="2.00361">
        <ele>85.6</ele>
        <time>2023-12-14T12:41:17Z</time>
      </trkpt>
      <trkpt lat="48.58931" lon="2.00354">
        <ele>85.6</ele>
        <time>2023-12-14T12:41:18Z</time>
      </trkpt>
      <trkpt lat="48.58931" lon="2.00347">
        <ele>85.6</ele>
        <time>2023-12-14T12:41:19Z</time>
      </trkpt>
      <trkpt lat="48.5893" lon="2.0034">
        <ele>86.2</ele>
        <time>2023-12-14T12:41:20Z</time>
      </trkpt>
      <trkpt lat="48.5893" lon="2.00334">
        <ele>86.4</ele>
        <time>2023-12-14T12:41:21Z</time>
      </trkpt>
      <trkpt lat="48.58929" lon="2.00327">
        <ele>86.4</ele>
        <time>2023-12-14T12:41:22Z</time>
      </trkpt>
      <trkpt lat="48.58928" lon="2.00321">
        <ele>86.4</ele>
        <time>2023-12-14T12:41:23Z</time>
      </trkpt>
      <trkpt lat="48.58928" lon="2.00316">
        <ele>86.6</ele>
        <time>2023-12-14T12:41:24Z</time>
      </trkpt>
      <trkpt lat="48.58928" lon="2.00309">
        <ele>86.8</ele>
        <time>2023-12-14T12:41:25Z</time>
      </trkpt>
      <trkpt lat="48.58927" lon="2.00302">
        <ele>86.8</ele>
        <time>2023-12-14T12:41:26Z</time>
      </trkpt>
      <trkpt lat="48.58927" lon="2.00294">
        <ele>86.8</ele>
        <time>2023-12-14T12:41:27Z</time>
      </trkpt>
      <trkpt lat="48.58926" lon="2.00288">
        <ele>87.6</ele>
        <time>2023-12-14T12:41:28Z</time>
      </trkpt>
      <trkpt lat="48.58926" lon="2.00283">
        <ele>87.4</ele>
        <time>2023-12-14T12:41:29Z</time>
      </trkpt>
      <trkpt lat="48.58926" lon="2.00276">
        <ele>87.4</ele>
        <time>2023-12-14T12:41:30Z</time>
      </trkpt>
      <trkpt lat="48.58926" lon="2.0027">
        <ele>87.4</ele>
        <time>2023-12-14T12:41:31Z</time>
      </trkpt>
      <trkpt lat="48.58926" lon="2.00262">
        <ele>88.2</ele>
        <time>2023-12-14T12:41:32Z</time>
      </trkpt>
      <trkpt lat="48.58926" lon="2.00256">
        <ele>88.2</ele>
        <time>2023-12-14T12:41:33Z</time>
      </trkpt>
      <trkpt lat="48.58925" lon="2.0025">
        <ele>88.2</ele>
        <time>2023-12-14T12:41:34Z</time>
      </trkpt>
      <trkpt lat="48.58925" lon="2.00244">
        <ele>88.2</ele>
        <time>2023-12-14T12:41:35Z</time>
      </trkpt>
      <trkpt lat="48.58924" lon="2.00238">
        <ele>88.8</ele>
        <time>2023-12-14T12:41:36Z</time>
      </trkpt>
      <trkpt lat="48.58924" lon="2.00232">
        <ele>88.6</ele>
        <time>2023-12-14T12:41:37Z</time>
      </trkpt>
      <trkpt lat="48.58923" lon="2.00226">
        <ele>88.6</ele>
        <time>2023-12-14T12:41:38Z</time>
      </trkpt>
      <trkpt lat="48.58923" lon="2.00219">
        <ele>88.6</ele>
        <time>2023-12-14T12:41:39Z</time>
      </trkpt>
      <trkpt lat="48.58922" lon="2.00213">
        <ele>89</ele>
        <time>2023-12-14T12:41:40Z</time>
      </trkpt>
      <trkpt lat="48.58922" lon="2.00206">
        <ele>89</ele>
        <time>2023-12-14T12:41:41Z</time>
      </trkpt>
      <trkpt lat="48.58922" lon="2.00201">
        <ele>89</ele>
        <time>2023-12-14T12:41:42Z</time>
      </trkpt>
      <trkpt lat="48.58921" lon="2.00196">
        <ele>89</ele>
        <time>2023-12-14T12:41:43Z</time>
      </trkpt>
      <trkpt lat="48.5892" lon="2.0019">
        <ele>89</ele>
        <time>2023-12-14T12:41:44Z</time>
      </trkpt>
      <trkpt lat="48.58918" lon="2.00186">
        <ele>89.6</ele>
        <time>2023-12-14T12:41:45Z</time>
      </trkpt>
      <trkpt lat="48.58918" lon="2.00179">
        <ele>89.6</ele>
        <time>2023-12-14T12:41:46Z</time>
      </trkpt>
      <trkpt lat="48.58918" lon="2.00174">
        <ele>89.6</ele>
        <time>2023-12-14T12:41:47Z</time>
      </trkpt>
      <trkpt lat="48.58917" lon="2.00168">
        <ele>89.6</ele>
        <time>2023-12-14T12:41:48Z</time>
      </trkpt>
      <trkpt lat="48.58917" lon="2.0016">
        <ele>89.8</ele>
        <time>2023-12-14T12:41:49Z</time>
      </trkpt>
      <trkpt lat="48.58916" lon="2.00154">
        <ele>89.8</ele>
        <time>2023-12-14T12:41:50Z</time>
      </trkpt>
      <trkpt lat="48.58916" lon="2.00149">
        <ele>89.8</ele>
        <time>2023-12-14T12:41:51Z</time>
      </trkpt>
      <trkpt lat="48.58915" lon="2.00144">
        <ele>90.2</ele>
        <time>2023-12-14T12:41:52Z</time>
      </trkpt>
      <trkpt lat="48.58914" lon="2.00138">
        <ele>90.4</ele>
        <time>2023-12-14T12:41:53Z</time>
      </trkpt>
      <trkpt lat="48.58913" lon="2.0013">
        <ele>90.4</ele>
        <time>2023-12-14T12:41:54Z</time>
      </trkpt>
      <trkpt lat="48.58913" lon="2.00123">
        <ele>90.4</ele>
        <time>2023-12-14T12:41:55Z</time>
      </trkpt>
      <trkpt lat="48.58912" lon="2.00116">
        <ele>90.6</ele>
        <time>2023-12-14T12:41:56Z</time>
      </trkpt>
      <trkpt lat="48.58911" lon="2.00108">
        <ele>91.4</ele>
        <time>2023-12-14T12:41:57Z</time>
      </trkpt>
      <trkpt lat="48.5891" lon="2.00101">
        <ele>91.4</ele>
        <time>2023-12-14T12:41:58Z</time>
      </trkpt>
      <trkpt lat="48.58909" lon="2.00094">
        <ele>91.4</ele>
        <time>2023-12-14T12:41:59Z</time>
      </trkpt>
      <trkpt lat="48.58909" lon="2.00086">
        <ele>91.4</ele>
        <time>2023-12-14T12:42:00Z</time>
      </trkpt>
      <trkpt lat="48.58908" lon="2.0008">
        <ele>91.6</ele>
        <time>2023-12-14T12:42:01Z</time>
      </trkpt>
      <trkpt lat="48.58908" lon="2.00073">
        <ele>91.6</ele>
        <time>2023-12-14T12:42:02Z</time>
      </trkpt>
      <trkpt lat="48.58907" lon="2.00065">
        <ele>91.6</ele>
        <time>2023-12-14T12:42:03Z</time>
      </trkpt>
      <trkpt lat="48.58906" lon="2.00059">
        <ele>92.4</ele>
        <time>2023-12-14T12:42:04Z</time>
      </trkpt>
      <trkpt lat="48.58905" lon="2.00052">
        <ele>92.2</ele>
        <time>2023-12-14T12:42:05Z</time>
      </trkpt>
      <trkpt lat="48.58905" lon="2.00045">
        <ele>92.2</ele>
        <time>2023-12-14T12:42:06Z</time>
      </trkpt>
      <trkpt lat="48.58905" lon="2.00038">
        <ele>92.2</ele>
        <time>2023-12-14T12:42:07Z</time>
      </trkpt>
      <trkpt lat="48.58904" lon="2.00031">
        <ele>92.6</ele>
        <time>2023-12-14T12:42:08Z</time>
      </trkpt>
      <trkpt lat="48.58903" lon="2.00024">
        <ele>93.2</ele>
        <time>2023-12-14T12:42:09Z</time>
      </trkpt>
      <trkpt lat="48.58903" lon="2.00017">
        <ele>93.2</ele>
        <time>2023-12-14T12:42:10Z</time>
      </trkpt>
      <trkpt lat="48.58902" lon="2.00012">
        <ele>93.2</ele>
        <time>2023-12-14T12:42:11Z</time>
      </trkpt>
      <trkpt lat="48.58901" lon="2.00005">
        <ele>93.4</ele>
        <time>2023-12-14T12:42:12Z</time>
      </trkpt>
      <trkpt lat="48.58901" lon="2">
        <ele>93.4</ele>
        <time>2023-12-14T12:42:13Z</time>
      </trkpt>
      <trkpt lat="48.58901" lon="1.99995">
        <ele>93.4</ele>
        <time>2023-12-14T12:42:14Z</time>
      </trkpt>
      <trkpt lat="48.58901" lon="1.99989">
        <ele>93.4</ele>
        <time>2023-12-14T12:42:15Z</time>
      </trkpt>
      <trkpt lat="48.589" lon="1.99983">
        <ele>94</ele>
        <time>2023-12-14T12:42:16Z</time>
      </trkpt>
      <trkpt lat="48.589" lon="1.99977">
        <ele>94</ele>
        <time>2023-12-14T12:42:17Z</time>
      </trkpt>
      <trkpt lat="48.589" lon="1.99971">
        <ele>94</ele>
        <time>2023-12-14T12:42:18Z</time>
      </trkpt>
      <trkpt lat="48.58899" lon="1.99967">
        <ele>94</ele>
        <time>2023-12-14T12:42:19Z</time>
      </trkpt>
      <trkpt lat="48.58899" lon="1.99962">
        <ele>94.4</ele>
        <time>2023-12-14T12:42:20Z</time>
      </trkpt>
      <trkpt lat="48.58898" lon="1.99957">
        <ele>94.8</ele>
        <time>2023-12-14T12:42:21Z</time>
      </trkpt>
      <trkpt lat="48.58899" lon="1.99948">
        <ele>94.8</ele>
        <time>2023-12-14T12:42:22Z</time>
      </trkpt>
      <trkpt lat="48.58898" lon="1.99944">
        <ele>94.8</ele>
        <time>2023-12-14T12:42:23Z</time>
      </trkpt>
      <trkpt lat="48.58899" lon="1.99938">
        <ele>95.4</ele>
        <time>2023-12-14T12:42:24Z</time>
      </trkpt>
      <trkpt lat="48.58898" lon="1.99933">
        <ele>95.6</ele>
        <time>2023-12-14T12:42:25Z</time>
      </trkpt>
      <trkpt lat="48.58898" lon="1.99926">
        <ele>95.6</ele>
        <time>2023-12-14T12:42:26Z</time>
      </trkpt>
      <trkpt lat="48.58897" lon="1.9992">
        <ele>95.6</ele>
        <time>2023-12-14T12:42:27Z</time>
      </trkpt>
      <trkpt lat="48.58896" lon="1.99913">
        <ele>96.4</ele>
        <time>2023-12-14T12:42:28Z</time>
      </trkpt>
      <trkpt lat="48.58896" lon="1.99908">
        <ele>96.4</ele>
        <time>2023-12-14T12:42:29Z</time>
      </trkpt>
      <trkpt lat="48.58896" lon="1.99901">
        <ele>96.4</ele>
        <time>2023-12-14T12:42:30Z</time>
      </trkpt>
      <trkpt lat="48.58896" lon="1.99895">
        <ele>96.4</ele>
        <time>2023-12-14T12:42:31Z</time>
      </trkpt>
      <trkpt lat="48.58895" lon="1.99888">
        <ele>96.4</ele>
        <time>2023-12-14T12:42:32Z</time>
      </trkpt>
      <trkpt lat="48.58894" lon="1.99884">
        <ele>96.4</ele>
        <time>2023-12-14T12:42:33Z</time>
      </trkpt>
      <trkpt lat="48.58894" lon="1.99878">
        <ele>96.4</ele>
        <time>2023-12-14T12:42:34Z</time>
      </trkpt>
      <trkpt lat="48.58893" lon="1.99872">
        <ele>96.4</ele>
        <time>2023-12-14T12:42:35Z</time>
      </trkpt>
      <trkpt lat="48.58892" lon="1.99865">
        <ele>97</ele>
        <time>2023-12-14T12:42:36Z</time>
      </trkpt>
      <trkpt lat="48.58892" lon="1.99859">
        <ele>97.2</ele>
        <time>2023-12-14T12:42:37Z</time>
      </trkpt>
      <trkpt lat="48.58892" lon="1.99852">
        <ele>97.2</ele>
        <time>2023-12-14T12:42:38Z</time>
      </trkpt>
      <trkpt lat="48.58892" lon="1.99847">
        <ele>97.2</ele>
        <time>2023-12-14T12:42:39Z</time>
      </trkpt>
      <trkpt lat="48.58891" lon="1.99842">
        <ele>97.2</ele>
        <time>2023-12-14T12:42:40Z</time>
      </trkpt>
      <trkpt lat="48.58891" lon="1.99836">
        <ele>98</ele>
        <time>2023-12-14T12:42:41Z</time>
      </trkpt>
      <trkpt lat="48.5889" lon="1.99831">
        <ele>98</ele>
        <time>2023-12-14T12:42:42Z</time>
      </trkpt>
      <trkpt lat="48.5889" lon="1.99825">
        <ele>98</ele>
        <time>2023-12-14T12:42:43Z</time>
      </trkpt>
      <trkpt lat="48.58891" lon="1.9982">
        <ele>99</ele>
        <time>2023-12-14T12:42:44Z</time>
      </trkpt>
      <trkpt lat="48.58891" lon="1.99816">
        <ele>98.8</ele>
        <time>2023-12-14T12:42:45Z</time>
      </trkpt>
      <trkpt lat="48.5889" lon="1.99811">
        <ele>98.8</ele>
        <time>2023-12-14T12:42:46Z</time>
      </trkpt>
      <trkpt lat="48.5889" lon="1.99807">
        <ele>98.8</ele>
        <time>2023-12-14T12:42:47Z</time>
      </trkpt>
      <trkpt lat="48.58891" lon="1.998">
        <ele>98.8</ele>
        <time>2023-12-14T12:42:48Z</time>
      </trkpt>
      <trkpt lat="48.58891" lon="1.99795">
        <ele>99</ele>
        <time>2023-12-14T12:42:49Z</time>
      </trkpt>
      <trkpt lat="48.58892" lon="1.99789">
        <ele>99</ele>
        <time>2023-12-14T12:42:50Z</time>
      </trkpt>
      <trkpt lat="48.58893" lon="1.99784">
        <ele>99</ele>
        <time>2023-12-14T12:42:51Z</time>
      </trkpt>
      <trkpt lat="48.58893" lon="1.99778">
        <ele>99.6</ele>
        <time>2023-12-14T12:42:52Z</time>
      </trkpt>
      <trkpt lat="48.58893" lon="1.99772">
        <ele>100</ele>
        <time>2023-12-14T12:42:53Z</time>
      </trkpt>
      <trkpt lat="48.58892" lon="1.99765">
        <ele>100</ele>
        <time>2023-12-14T12:42:54Z</time>
      </trkpt>
      <trkpt lat="48.58893" lon="1.99757">
        <ele>100</ele>
        <time>2023-12-14T12:42:55Z</time>
      </trkpt>
      <trkpt lat="48.58893" lon="1.99752">
        <ele>101</ele>
        <time>2023-12-14T12:42:56Z</time>
      </trkpt>
      <trkpt lat="48.58893" lon="1.99747">
        <ele>101.2</ele>
        <time>2023-12-14T12:42:57Z</time>
      </trkpt>
      <trkpt lat="48.58893" lon="1.99741">
        <ele>101.2</ele>
        <time>2023-12-14T12:42:58Z</time>
      </trkpt>
      <trkpt lat="48.58894" lon="1.99734">
        <ele>101.2</ele>
        <time>2023-12-14T12:42:59Z</time>
      </trkpt>
      <trkpt lat="48.58894" lon="1.99728">
        <ele>100.6</ele>
        <time>2023-12-14T12:43:00Z</time>
      </trkpt>
      <trkpt lat="48.58895" lon="1.99722">
        <ele>101</ele>
        <time>2023-12-14T12:43:01Z</time>
      </trkpt>
      <trkpt lat="48.58895" lon="1.99715">
        <ele>101</ele>
        <time>2023-12-14T12:43:02Z</time>
      </trkpt>
      <trkpt lat="48.58896" lon="1.99708">
        <ele>101</ele>
        <time>2023-12-14T12:43:03Z</time>
      </trkpt>
      <trkpt lat="48.58896" lon="1.99701">
        <ele>101.6</ele>
        <time>2023-12-14T12:43:04Z</time>
      </trkpt>
      <trkpt lat="48.58896" lon="1.99693">
        <ele>102.4</ele>
        <time>2023-12-14T12:43:05Z</time>
      </trkpt>
      <trkpt lat="48.58897" lon="1.99685">
        <ele>102.4</ele>
        <time>2023-12-14T12:43:06Z</time>
      </trkpt>
      <trkpt lat="48.58897" lon="1.99679">
        <ele>102.4</ele>
        <time>2023-12-14T12:43:07Z</time>
      </trkpt>
      <trkpt lat="48.58897" lon="1.99671">
        <ele>103.2</ele>
        <time>2023-12-14T12:43:08Z</time>
      </trkpt>
      <trkpt lat="48.58898" lon="1.99665">
        <ele>103.6</ele>
        <time>2023-12-14T12:43:09Z</time>
      </trkpt>
      <trkpt lat="48.58899" lon="1.99658">
        <ele>103.6</ele>
        <time>2023-12-14T12:43:10Z</time>
      </trkpt>
      <trkpt lat="48.58899" lon="1.99652">
        <ele>103.6</ele>
        <time>2023-12-14T12:43:11Z</time>
      </trkpt>
      <trkpt lat="48.589" lon="1.99644">
        <ele>103.6</ele>
        <time>2023-12-14T12:43:12Z</time>
      </trkpt>
      <trkpt lat="48.589" lon="1.99637">
        <ele>103.6</ele>
        <time>2023-12-14T12:43:13Z</time>
      </trkpt>
      <trkpt lat="48.58901" lon="1.9963">
        <ele>103.6</ele>
        <time>2023-12-14T12:43:14Z</time>
      </trkpt>
      <trkpt lat="48.58901" lon="1.99623">
        <ele>103.6</ele>
        <time>2023-12-14T12:43:15Z</time>
      </trkpt>
      <trkpt lat="48.58901" lon="1.99617">
        <ele>103.6</ele>
        <time>2023-12-14T12:43:16Z</time>
      </trkpt>
      <trkpt lat="48.58902" lon="1.99611">
        <ele>104.8</ele>
        <time>2023-12-14T12:43:17Z</time>
      </trkpt>
      <trkpt lat="48.58902" lon="1.99606">
        <ele>104.8</ele>
        <time>2023-12-14T12:43:18Z</time>
      </trkpt>
      <trkpt lat="48.58902" lon="1.996">
        <ele>104.8</ele>
        <time>2023-12-14T12:43:19Z</time>
      </trkpt>
      <trkpt lat="48.58903" lon="1.99593">
        <ele>104.8</ele>
        <time>2023-12-14T12:43:20Z</time>
      </trkpt>
      <trkpt lat="48.58903" lon="1.99586">
        <ele>104.4</ele>
        <time>2023-12-14T12:43:21Z</time>
      </trkpt>
      <trkpt lat="48.58903" lon="1.99581">
        <ele>104.4</ele>
        <time>2023-12-14T12:43:22Z</time>
      </trkpt>
      <trkpt lat="48.58904" lon="1.99574">
        <ele>104.4</ele>
        <time>2023-12-14T12:43:23Z</time>
      </trkpt>
      <trkpt lat="48.58904" lon="1.99568">
        <ele>104.8</ele>
        <time>2023-12-14T12:43:24Z</time>
      </trkpt>
      <trkpt lat="48.58905" lon="1.99562">
        <ele>105.2</ele>
        <time>2023-12-14T12:43:25Z</time>
      </trkpt>
      <trkpt lat="48.58905" lon="1.99556">
        <ele>105.2</ele>
        <time>2023-12-14T12:43:26Z</time>
      </trkpt>
      <trkpt lat="48.58905" lon="1.9955">
        <ele>105.2</ele>
        <time>2023-12-14T12:43:27Z</time>
      </trkpt>
      <trkpt lat="48.58906" lon="1.99543">
        <ele>105.2</ele>
        <time>2023-12-14T12:43:28Z</time>
      </trkpt>
      <trkpt lat="48.58906" lon="1.99537">
        <ele>105.8</ele>
        <time>2023-12-14T12:43:29Z</time>
      </trkpt>
      <trkpt lat="48.58907" lon="1.9953">
        <ele>105.8</ele>
        <time>2023-12-14T12:43:30Z</time>
      </trkpt>
      <trkpt lat="48.58907" lon="1.99523">
        <ele>105.8</ele>
        <time>2023-12-14T12:43:31Z</time>
      </trkpt>
      <trkpt lat="48.58908" lon="1.99517">
        <ele>105.2</ele>
        <time>2023-12-14T12:43:32Z</time>
      </trkpt>
      <trkpt lat="48.58908" lon="1.9951">
        <ele>104.8</ele>
        <time>2023-12-14T12:43:33Z</time>
      </trkpt>
      <trkpt lat="48.58908" lon="1.99504">
        <ele>104.8</ele>
        <time>2023-12-14T12:43:34Z</time>
      </trkpt>
      <trkpt lat="48.58909" lon="1.99497">
        <ele>104.8</ele>
        <time>2023-12-14T12:43:35Z</time>
      </trkpt>
      <trkpt lat="48.5891" lon="1.9949">
        <ele>104.8</ele>
        <time>2023-12-14T12:43:36Z</time>
      </trkpt>
      <trkpt lat="48.5891" lon="1.99483">
        <ele>103.8</ele>
        <time>2023-12-14T12:43:37Z</time>
      </trkpt>
      <trkpt lat="48.5891" lon="1.99477">
        <ele>103.8</ele>
        <time>2023-12-14T12:43:38Z</time>
      </trkpt>
      <trkpt lat="48.5891" lon="1.99469">
        <ele>103.8</ele>
        <time>2023-12-14T12:43:39Z</time>
      </trkpt>
      <trkpt lat="48.5891" lon="1.99461">
        <ele>103.8</ele>
        <time>2023-12-14T12:43:40Z</time>
      </trkpt>
      <trkpt lat="48.58911" lon="1.99453">
        <ele>103.2</ele>
        <time>2023-12-14T12:43:41Z</time>
      </trkpt>
      <trkpt lat="48.58912" lon="1.99446">
        <ele>103.2</ele>
        <time>2023-12-14T12:43:42Z</time>
      </trkpt>
      <trkpt lat="48.58913" lon="1.99438">
        <ele>103.2</ele>
        <time>2023-12-14T12:43:43Z</time>
      </trkpt>
      <trkpt lat="48.58913" lon="1.99431">
        <ele>103</ele>
        <time>2023-12-14T12:43:44Z</time>
      </trkpt>
      <trkpt lat="48.58914" lon="1.99423">
        <ele>102</ele>
        <time>2023-12-14T12:43:45Z</time>
      </trkpt>
      <trkpt lat="48.58915" lon="1.99415">
        <ele>102</ele>
        <time>2023-12-14T12:43:46Z</time>
      </trkpt>
      <trkpt lat="48.58915" lon="1.99408">
        <ele>102</ele>
        <time>2023-12-14T12:43:47Z</time>
      </trkpt>
      <trkpt lat="48.58916" lon="1.994">
        <ele>102</ele>
        <time>2023-12-14T12:43:48Z</time>
      </trkpt>
      <trkpt lat="48.58917" lon="1.99392">
        <ele>101.4</ele>
        <time>2023-12-14T12:43:49Z</time>
      </trkpt>
      <trkpt lat="48.58918" lon="1.99383">
        <ele>101.4</ele>
        <time>2023-12-14T12:43:50Z</time>
      </trkpt>
      <trkpt lat="48.58918" lon="1.99374">
        <ele>101.4</ele>
        <time>2023-12-14T12:43:51Z</time>
      </trkpt>
      <trkpt lat="48.58919" lon="1.99367">
        <ele>101.4</ele>
        <time>2023-12-14T12:43:52Z</time>
      </trkpt>
      <trkpt lat="48.5892" lon="1.99358">
        <ele>101.4</ele>
        <time>2023-12-14T12:43:53Z</time>
      </trkpt>
      <trkpt lat="48.5892" lon="1.9935">
        <ele>101.4</ele>
        <time>2023-12-14T12:43:54Z</time>
      </trkpt>
      <trkpt lat="48.58921" lon="1.9934">
        <ele>101.4</ele>
        <time>2023-12-14T12:43:55Z</time>
      </trkpt>
      <trkpt lat="48.58921" lon="1.99331">
        <ele>100.4</ele>
        <time>2023-12-14T12:43:56Z</time>
      </trkpt>
      <trkpt lat="48.58921" lon="1.99322">
        <ele>100</ele>
        <time>2023-12-14T12:43:57Z</time>
      </trkpt>
      <trkpt lat="48.58922" lon="1.99312">
        <ele>100</ele>
        <time>2023-12-14T12:43:58Z</time>
      </trkpt>
      <trkpt lat="48.58923" lon="1.99301">
        <ele>100</ele>
        <time>2023-12-14T12:43:59Z</time>
      </trkpt>
      <trkpt lat="48.58923" lon="1.99288">
        <ele>99</ele>
        <time>2023-12-14T12:44:00Z</time>
      </trkpt>
      <trkpt lat="48.58924" lon="1.99275">
        <ele>97.8</ele>
        <time>2023-12-14T12:44:01Z</time>
      </trkpt>
      <trkpt lat="48.58924" lon="1.99264">
        <ele>97.8</ele>
        <time>2023-12-14T12:44:02Z</time>
      </trkpt>
      <trkpt lat="48.58925" lon="1.99252">
        <ele>97.8</ele>
        <time>2023-12-14T12:44:03Z</time>
      </trkpt>
      <trkpt lat="48.58925" lon="1.9924">
        <ele>96.8</ele>
        <time>2023-12-14T12:44:04Z</time>
      </trkpt>
      <trkpt lat="48.58926" lon="1.99229">
        <ele>96.4</ele>
        <time>2023-12-14T12:44:05Z</time>
      </trkpt>
      <trkpt lat="48.58927" lon="1.99217">
        <ele>96.4</ele>
        <time>2023-12-14T12:44:06Z</time>
      </trkpt>
      <trkpt lat="48.58928" lon="1.99207">
        <ele>96.4</ele>
        <time>2023-12-14T12:44:07Z</time>
      </trkpt>
      <trkpt lat="48.5893" lon="1.99196">
        <ele>95.4</ele>
        <time>2023-12-14T12:44:08Z</time>
      </trkpt>
      <trkpt lat="48.58932" lon="1.99185">
        <ele>94.6</ele>
        <time>2023-12-14T12:44:09Z</time>
      </trkpt>
      <trkpt lat="48.58934" lon="1.99175">
        <ele>94.6</ele>
        <time>2023-12-14T12:44:10Z</time>
      </trkpt>
      <trkpt lat="48.58937" lon="1.99165">
        <ele>94.6</ele>
        <time>2023-12-14T12:44:11Z</time>
      </trkpt>
      <trkpt lat="48.58939" lon="1.99155">
        <ele>94.6</ele>
        <time>2023-12-14T12:44:12Z</time>
      </trkpt>
      <trkpt lat="48.58942" lon="1.99147">
        <ele>94</ele>
        <time>2023-12-14T12:44:13Z</time>
      </trkpt>
      <trkpt lat="48.58945" lon="1.99138">
        <ele>94</ele>
        <time>2023-12-14T12:44:14Z</time>
      </trkpt>
      <trkpt lat="48.58947" lon="1.99127">
        <ele>94</ele>
        <time>2023-12-14T12:44:15Z</time>
      </trkpt>
      <trkpt lat="48.58949" lon="1.99116">
        <ele>94</ele>
        <time>2023-12-14T12:44:16Z</time>
      </trkpt>
      <trkpt lat="48.58952" lon="1.99106">
        <ele>93.6</ele>
        <time>2023-12-14T12:44:17Z</time>
      </trkpt>
      <trkpt lat="48.58954" lon="1.99098">
        <ele>93.6</ele>
        <time>2023-12-14T12:44:18Z</time>
      </trkpt>
      <trkpt lat="48.58955" lon="1.99092">
        <ele>93.6</ele>
        <time>2023-12-14T12:44:19Z</time>
      </trkpt>
      <trkpt lat="48.58957" lon="1.99086">
        <ele>94.6</ele>
        <time>2023-12-14T12:44:20Z</time>
      </trkpt>
      <trkpt lat="48.58958" lon="1.99082">
        <ele>94.6</ele>
        <time>2023-12-14T12:44:21Z</time>
      </trkpt>
      <trkpt lat="48.58959" lon="1.99079">
        <ele>94.6</ele>
        <time>2023-12-14T12:44:22Z</time>
      </trkpt>
      <trkpt lat="48.5896" lon="1.99077">
        <ele>94.6</ele>
        <time>2023-12-14T12:44:23Z</time>
      </trkpt>
      <trkpt lat="48.5896" lon="1.99076">
        <ele>95.4</ele>
        <time>2023-12-14T12:44:24Z</time>
      </trkpt>
      <trkpt lat="48.5896" lon="1.99076">
        <ele>95.2</ele>
        <time>2023-12-14T12:44:25Z</time>
      </trkpt>
      <trkpt lat="48.58961" lon="1.99057">
        <ele>95</ele>
        <time>2023-12-14T12:45:29Z</time>
      </trkpt>
      <trkpt lat="48.58963" lon="1.99058">
        <ele>95</ele>
        <time>2023-12-14T12:45:30Z</time>
      </trkpt>
      <trkpt lat="48.58965" lon="1.99059">
        <ele>95</ele>
        <time>2023-12-14T12:45:31Z</time>
      </trkpt>
      <trkpt lat="48.58967" lon="1.99061">
        <ele>95</ele>
        <time>2023-12-14T12:45:32Z</time>
      </trkpt>
      <trkpt lat="48.58969" lon="1.99063">
        <ele>94.8</ele>
        <time>2023-12-14T12:45:33Z</time>
      </trkpt>
      <trkpt lat="48.58972" lon="1.99065">
        <ele>94.8</ele>
        <time>2023-12-14T12:45:34Z</time>
      </trkpt>
      <trkpt lat="48.58974" lon="1.99067">
        <ele>94.8</ele>
        <time>2023-12-14T12:45:35Z</time>
      </trkpt>
      <trkpt lat="48.58978" lon="1.99068">
        <ele>93.8</ele>
        <time>2023-12-14T12:45:36Z</time>
      </trkpt>
      <trkpt lat="48.5898" lon="1.99071">
        <ele>94</ele>
        <time>2023-12-14T12:45:37Z</time>
      </trkpt>
      <trkpt lat="48.58984" lon="1.99073">
        <ele>94</ele>
        <time>2023-12-14T12:45:38Z</time>
      </trkpt>
      <trkpt lat="48.58987" lon="1.99076">
        <ele>94</ele>
        <time>2023-12-14T12:45:39Z</time>
      </trkpt>
      <trkpt lat="48.5899" lon="1.99078">
        <ele>94</ele>
        <time>2023-12-14T12:45:40Z</time>
      </trkpt>
      <trkpt lat="48.58994" lon="1.9908">
        <ele>94.2</ele>
        <time>2023-12-14T12:45:41Z</time>
      </trkpt>
      <trkpt lat="48.58998" lon="1.99082">
        <ele>94.2</ele>
        <time>2023-12-14T12:45:42Z</time>
      </trkpt>
      <trkpt lat="48.59002" lon="1.99083">
        <ele>94.2</ele>
        <time>2023-12-14T12:45:43Z</time>
      </trkpt>
      <trkpt lat="48.59006" lon="1.99086">
        <ele>94.2</ele>
        <time>2023-12-14T12:45:44Z</time>
      </trkpt>
      <trkpt lat="48.59009" lon="1.99088">
        <ele>95</ele>
        <time>2023-12-14T12:45:45Z</time>
      </trkpt>
      <trkpt lat="48.59013" lon="1.99091">
        <ele>95</ele>
        <time>2023-12-14T12:45:46Z</time>
      </trkpt>
      <trkpt lat="48.59017" lon="1.99093">
        <ele>95</ele>
        <time>2023-12-14T12:45:47Z</time>
      </trkpt>
      <trkpt lat="48.59021" lon="1.99096">
        <ele>95</ele>
        <time>2023-12-14T12:45:48Z</time>
      </trkpt>
      <trkpt lat="48.59024" lon="1.99098">
        <ele>95.4</ele>
        <time>2023-12-14T12:45:49Z</time>
      </trkpt>
      <trkpt lat="48.59028" lon="1.99101">
        <ele>95.4</ele>
        <time>2023-12-14T12:45:50Z</time>
      </trkpt>
      <trkpt lat="48.59032" lon="1.99103">
        <ele>95.4</ele>
        <time>2023-12-14T12:45:51Z</time>
      </trkpt>
      <trkpt lat="48.59036" lon="1.99105">
        <ele>96.4</ele>
        <time>2023-12-14T12:45:52Z</time>
      </trkpt>
      <trkpt lat="48.5904" lon="1.99107">
        <ele>96.4</ele>
        <time>2023-12-14T12:45:53Z</time>
      </trkpt>
      <trkpt lat="48.59044" lon="1.9911">
        <ele>96.4</ele>
        <time>2023-12-14T12:45:54Z</time>
      </trkpt>
      <trkpt lat="48.59048" lon="1.99112">
        <ele>96.4</ele>
        <time>2023-12-14T12:45:55Z</time>
      </trkpt>
      <trkpt lat="48.59051" lon="1.99115">
        <ele>96.4</ele>
        <time>2023-12-14T12:45:56Z</time>
      </trkpt>
      <trkpt lat="48.59055" lon="1.99118">
        <ele>96.6</ele>
        <time>2023-12-14T12:45:57Z</time>
      </trkpt>
      <trkpt lat="48.59058" lon="1.9912">
        <ele>96.6</ele>
        <time>2023-12-14T12:45:58Z</time>
      </trkpt>
      <trkpt lat="48.59062" lon="1.99123">
        <ele>96.6</ele>
        <time>2023-12-14T12:45:59Z</time>
      </trkpt>
      <trkpt lat="48.59066" lon="1.99125">
        <ele>96.6</ele>
        <time>2023-12-14T12:46:00Z</time>
      </trkpt>
      <trkpt lat="48.5907" lon="1.99127">
        <ele>96.2</ele>
        <time>2023-12-14T12:46:01Z</time>
      </trkpt>
      <trkpt lat="48.59073" lon="1.9913">
        <ele>96.2</ele>
        <time>2023-12-14T12:46:02Z</time>
      </trkpt>
      <trkpt lat="48.59076" lon="1.99132">
        <ele>96.2</ele>
        <time>2023-12-14T12:46:03Z</time>
      </trkpt>
      <trkpt lat="48.5908" lon="1.99134">
        <ele>96.8</ele>
        <time>2023-12-14T12:46:04Z</time>
      </trkpt>
      <trkpt lat="48.59084" lon="1.99136">
        <ele>97.2</ele>
        <time>2023-12-14T12:46:05Z</time>
      </trkpt>
      <trkpt lat="48.59088" lon="1.99138">
        <ele>97.2</ele>
        <time>2023-12-14T12:46:06Z</time>
      </trkpt>
      <trkpt lat="48.59092" lon="1.99141">
        <ele>97.2</ele>
        <time>2023-12-14T12:46:07Z</time>
      </trkpt>
      <trkpt lat="48.59095" lon="1.99143">
        <ele>97.6</ele>
        <time>2023-12-14T12:46:08Z</time>
      </trkpt>
      <trkpt lat="48.59099" lon="1.99146">
        <ele>97.6</ele>
        <time>2023-12-14T12:46:09Z</time>
      </trkpt>
      <trkpt lat="48.59103" lon="1.99148">
        <ele>97.6</ele>
        <time>2023-12-14T12:46:10Z</time>
      </trkpt>
      <trkpt lat="48.59107" lon="1.9915">
        <ele>97.6</ele>
        <time>2023-12-14T12:46:11Z</time>
      </trkpt>
      <trkpt lat="48.59111" lon="1.99152">
        <ele>98</ele>
        <time>2023-12-14T12:46:12Z</time>
      </trkpt>
      <trkpt lat="48.59115" lon="1.99154">
        <ele>98.2</ele>
        <time>2023-12-14T12:46:13Z</time>
      </trkpt>
      <trkpt lat="48.59119" lon="1.99157">
        <ele>98.2</ele>
        <time>2023-12-14T12:46:14Z</time>
      </trkpt>
      <trkpt lat="48.59123" lon="1.99159">
        <ele>98.2</ele>
        <time>2023-12-14T12:46:15Z</time>
      </trkpt>
      <trkpt lat="48.59127" lon="1.99161">
        <ele>99.2</ele>
        <time>2023-12-14T12:46:16Z</time>
      </trkpt>
      <trkpt lat="48.5913" lon="1.99164">
        <ele>99.8</ele>
        <time>2023-12-14T12:46:17Z</time>
      </trkpt>
      <trkpt lat="48.59134" lon="1.99166">
        <ele>99.8</ele>
        <time>2023-12-14T12:46:18Z</time>
      </trkpt>
      <trkpt lat="48.59138" lon="1.99168">
        <ele>99.8</ele>
        <time>2023-12-14T12:46:19Z</time>
      </trkpt>
      <trkpt lat="48.59142" lon="1.9917">
        <ele>99.8</ele>
        <time>2023-12-14T12:46:20Z</time>
      </trkpt>
      <trkpt lat="48.59146" lon="1.99172">
        <ele>99.8</ele>
        <time>2023-12-14T12:46:21Z</time>
      </trkpt>
      <trkpt lat="48.5915" lon="1.99174">
        <ele>99.8</ele>
        <time>2023-12-14T12:46:22Z</time>
      </trkpt>
      <trkpt lat="48.59154" lon="1.99176">
        <ele>99.8</ele>
        <time>2023-12-14T12:46:23Z</time>
      </trkpt>
      <trkpt lat="48.59158" lon="1.99178">
        <ele>100</ele>
        <time>2023-12-14T12:46:24Z</time>
      </trkpt>
      <trkpt lat="48.59162" lon="1.9918">
        <ele>99.8</ele>
        <time>2023-12-14T12:46:25Z</time>
      </trkpt>
      <trkpt lat="48.59167" lon="1.99181">
        <ele>99.8</ele>
        <time>2023-12-14T12:46:26Z</time>
      </trkpt>
      <trkpt lat="48.59171" lon="1.99183">
        <ele>99.8</ele>
        <time>2023-12-14T12:46:27Z</time>
      </trkpt>
      <trkpt lat="48.59175" lon="1.99184">
        <ele>100.8</ele>
        <time>2023-12-14T12:46:28Z</time>
      </trkpt>
      <trkpt lat="48.59179" lon="1.99186">
        <ele>100.8</ele>
        <time>2023-12-14T12:46:29Z</time>
      </trkpt>
      <trkpt lat="48.59183" lon="1.99187">
        <ele>100.8</ele>
        <time>2023-12-14T12:46:30Z</time>
      </trkpt>
      <trkpt lat="48.59187" lon="1.99189">
        <ele>100.8</ele>
        <time>2023-12-14T12:46:31Z</time>
      </trkpt>
      <trkpt lat="48.59191" lon="1.99191">
        <ele>100.8</ele>
        <time>2023-12-14T12:46:32Z</time>
      </trkpt>
      <trkpt lat="48.59195" lon="1.99192">
        <ele>101.2</ele>
        <time>2023-12-14T12:46:33Z</time>
      </trkpt>
      <trkpt lat="48.59199" lon="1.99194">
        <ele>101.2</ele>
        <time>2023-12-14T12:46:34Z</time>
      </trkpt>
      <trkpt lat="48.59202" lon="1.99196">
        <ele>101.2</ele>
        <time>2023-12-14T12:46:35Z</time>
      </trkpt>
      <trkpt lat="48.59205" lon="1.99198">
        <ele>101.2</ele>
        <time>2023-12-14T12:46:36Z</time>
      </trkpt>
      <trkpt lat="48.59209" lon="1.99199">
        <ele>102</ele>
        <time>2023-12-14T12:46:37Z</time>
      </trkpt>
      <trkpt lat="48.59213" lon="1.992">
        <ele>102</ele>
        <time>2023-12-14T12:46:38Z</time>
      </trkpt>
      <trkpt lat="48.59216" lon="1.99202">
        <ele>102</ele>
        <time>2023-12-14T12:46:39Z</time>
      </trkpt>
      <trkpt lat="48.59219" lon="1.99204">
        <ele>102.4</ele>
        <time>2023-12-14T12:46:40Z</time>
      </trkpt>
      <trkpt lat="48.59223" lon="1.99205">
        <ele>102.8</ele>
        <time>2023-12-14T12:46:41Z</time>
      </trkpt>
      <trkpt lat="48.59226" lon="1.99206">
        <ele>102.8</ele>
        <time>2023-12-14T12:46:42Z</time>
      </trkpt>
      <trkpt lat="48.59229" lon="1.99207">
        <ele>102.8</ele>
        <time>2023-12-14T12:46:43Z</time>
      </trkpt>
      <trkpt lat="48.59233" lon="1.99208">
        <ele>103</ele>
        <time>2023-12-14T12:46:44Z</time>
      </trkpt>
      <trkpt lat="48.59237" lon="1.9921">
        <ele>103</ele>
        <time>2023-12-14T12:46:45Z</time>
      </trkpt>
      <trkpt lat="48.5924" lon="1.99211">
        <ele>103</ele>
        <time>2023-12-14T12:46:46Z</time>
      </trkpt>
      <trkpt lat="48.59245" lon="1.99211">
        <ele>103</ele>
        <time>2023-12-14T12:46:47Z</time>
      </trkpt>
      <trkpt lat="48.59249" lon="1.99212">
        <ele>103.4</ele>
        <time>2023-12-14T12:46:48Z</time>
      </trkpt>
      <trkpt lat="48.59252" lon="1.99214">
        <ele>103.2</ele>
        <time>2023-12-14T12:46:49Z</time>
      </trkpt>
      <trkpt lat="48.59255" lon="1.99214">
        <ele>103.2</ele>
        <time>2023-12-14T12:46:50Z</time>
      </trkpt>
      <trkpt lat="48.59259" lon="1.99215">
        <ele>103.2</ele>
        <time>2023-12-14T12:46:51Z</time>
      </trkpt>
      <trkpt lat="48.59263" lon="1.99216">
        <ele>103.2</ele>
        <time>2023-12-14T12:46:52Z</time>
      </trkpt>
      <trkpt lat="48.59267" lon="1.99217">
        <ele>103.4</ele>
        <time>2023-12-14T12:46:53Z</time>
      </trkpt>
      <trkpt lat="48.5927" lon="1.99219">
        <ele>103.4</ele>
        <time>2023-12-14T12:46:54Z</time>
      </trkpt>
      <trkpt lat="48.59273" lon="1.99221">
        <ele>103.4</ele>
        <time>2023-12-14T12:46:55Z</time>
      </trkpt>
      <trkpt lat="48.59277" lon="1.99223">
        <ele>103.6</ele>
        <time>2023-12-14T12:46:56Z</time>
      </trkpt>
      <trkpt lat="48.59282" lon="1.99225">
        <ele>103.6</ele>
        <time>2023-12-14T12:46:57Z</time>
      </trkpt>
      <trkpt lat="48.59284" lon="1.99227">
        <ele>103.6</ele>
        <time>2023-12-14T12:46:58Z</time>
      </trkpt>
      <trkpt lat="48.59287" lon="1.99229">
        <ele>103.6</ele>
        <time>2023-12-14T12:46:59Z</time>
      </trkpt>
      <trkpt lat="48.59291" lon="1.99231">
        <ele>103.6</ele>
        <time>2023-12-14T12:47:00Z</time>
      </trkpt>
      <trkpt lat="48.59295" lon="1.99233">
        <ele>103.4</ele>
        <time>2023-12-14T12:47:01Z</time>
      </trkpt>
      <trkpt lat="48.59298" lon="1.99235">
        <ele>103.4</ele>
        <time>2023-12-14T12:47:02Z</time>
      </trkpt>
      <trkpt lat="48.59301" lon="1.99238">
        <ele>103.4</ele>
        <time>2023-12-14T12:47:03Z</time>
      </trkpt>
      <trkpt lat="48.59305" lon="1.99241">
        <ele>103.4</ele>
        <time>2023-12-14T12:47:04Z</time>
      </trkpt>
      <trkpt lat="48.5931" lon="1.99243">
        <ele>103</ele>
        <time>2023-12-14T12:47:05Z</time>
      </trkpt>
      <trkpt lat="48.59314" lon="1.99245">
        <ele>103</ele>
        <time>2023-12-14T12:47:06Z</time>
      </trkpt>
      <trkpt lat="48.59319" lon="1.99247">
        <ele>103</ele>
        <time>2023-12-14T12:47:07Z</time>
      </trkpt>
      <trkpt lat="48.59322" lon="1.99249">
        <ele>103.4</ele>
        <time>2023-12-14T12:47:08Z</time>
      </trkpt>
      <trkpt lat="48.59326" lon="1.99251">
        <ele>103</ele>
        <time>2023-12-14T12:47:09Z</time>
      </trkpt>
      <trkpt lat="48.59332" lon="1.99251">
        <ele>103</ele>
        <time>2023-12-14T12:47:10Z</time>
      </trkpt>
      <trkpt lat="48.59338" lon="1.99252">
        <ele>103</ele>
        <time>2023-12-14T12:47:11Z</time>
      </trkpt>
      <trkpt lat="48.59345" lon="1.99252">
        <ele>103</ele>
        <time>2023-12-14T12:47:12Z</time>
      </trkpt>
      <trkpt lat="48.59353" lon="1.99251">
        <ele>101.8</ele>
        <time>2023-12-14T12:47:13Z</time>
      </trkpt>
      <trkpt lat="48.5936" lon="1.99251">
        <ele>101.8</ele>
        <time>2023-12-14T12:47:14Z</time>
      </trkpt>
      <trkpt lat="48.59367" lon="1.99252">
        <ele>101.8</ele>
        <time>2023-12-14T12:47:15Z</time>
      </trkpt>
      <trkpt lat="48.59373" lon="1.99253">
        <ele>101.2</ele>
        <time>2023-12-14T12:47:16Z</time>
      </trkpt>
      <trkpt lat="48.59379" lon="1.99254">
        <ele>100.8</ele>
        <time>2023-12-14T12:47:17Z</time>
      </trkpt>
      <trkpt lat="48.59385" lon="1.99256">
        <ele>100.8</ele>
        <time>2023-12-14T12:47:18Z</time>
      </trkpt>
      <trkpt lat="48.59389" lon="1.99258">
        <ele>100.8</ele>
        <time>2023-12-14T12:47:19Z</time>
      </trkpt>
      <trkpt lat="48.59393" lon="1.99261">
        <ele>100.8</ele>
        <time>2023-12-14T12:47:20Z</time>
      </trkpt>
      <trkpt lat="48.59399" lon="1.99262">
        <ele>101</ele>
        <time>2023-12-14T12:47:21Z</time>
      </trkpt>
      <trkpt lat="48.59403" lon="1.99264">
        <ele>101</ele>
        <time>2023-12-14T12:47:22Z</time>
      </trkpt>
      <trkpt lat="48.59409" lon="1.99266">
        <ele>101</ele>
        <time>2023-12-14T12:47:23Z</time>
      </trkpt>
      <trkpt lat="48.59413" lon="1.99269">
        <ele>101</ele>
        <time>2023-12-14T12:47:24Z</time>
      </trkpt>
      <trkpt lat="48.59419" lon="1.99271">
        <ele>100.8</ele>
        <time>2023-12-14T12:47:25Z</time>
      </trkpt>
      <trkpt lat="48.59426" lon="1.99274">
        <ele>100.8</ele>
        <time>2023-12-14T12:47:26Z</time>
      </trkpt>
      <trkpt lat="48.59432" lon="1.99277">
        <ele>100.8</ele>
        <time>2023-12-14T12:47:27Z</time>
      </trkpt>
      <trkpt lat="48.59438" lon="1.9928">
        <ele>100</ele>
        <time>2023-12-14T12:47:28Z</time>
      </trkpt>
      <trkpt lat="48.59443" lon="1.99285">
        <ele>100.2</ele>
        <time>2023-12-14T12:47:29Z</time>
      </trkpt>
      <trkpt lat="48.59449" lon="1.99289">
        <ele>100.2</ele>
        <time>2023-12-14T12:47:30Z</time>
      </trkpt>
      <trkpt lat="48.59454" lon="1.99293">
        <ele>100.2</ele>
        <time>2023-12-14T12:47:31Z</time>
      </trkpt>
      <trkpt lat="48.59459" lon="1.99298">
        <ele>100.4</ele>
        <time>2023-12-14T12:47:32Z</time>
      </trkpt>
      <trkpt lat="48.59464" lon="1.99302">
        <ele>100.6</ele>
        <time>2023-12-14T12:47:33Z</time>
      </trkpt>
      <trkpt lat="48.5947" lon="1.99307">
        <ele>100.6</ele>
        <time>2023-12-14T12:47:34Z</time>
      </trkpt>
      <trkpt lat="48.59476" lon="1.99311">
        <ele>100.6</ele>
        <time>2023-12-14T12:47:35Z</time>
      </trkpt>
      <trkpt lat="48.59482" lon="1.99315">
        <ele>100.6</ele>
        <time>2023-12-14T12:47:36Z</time>
      </trkpt>
      <trkpt lat="48.59488" lon="1.9932">
        <ele>99.8</ele>
        <time>2023-12-14T12:47:37Z</time>
      </trkpt>
      <trkpt lat="48.59494" lon="1.99324">
        <ele>99.8</ele>
        <time>2023-12-14T12:47:38Z</time>
      </trkpt>
      <trkpt lat="48.59498" lon="1.99328">
        <ele>99.8</ele>
        <time>2023-12-14T12:47:39Z</time>
      </trkpt>
      <trkpt lat="48.59505" lon="1.99333">
        <ele>99</ele>
        <time>2023-12-14T12:47:40Z</time>
      </trkpt>
      <trkpt lat="48.59512" lon="1.99337">
        <ele>99.6</ele>
        <time>2023-12-14T12:47:41Z</time>
      </trkpt>
      <trkpt lat="48.59518" lon="1.9934">
        <ele>99.6</ele>
        <time>2023-12-14T12:47:42Z</time>
      </trkpt>
      <trkpt lat="48.59525" lon="1.99343">
        <ele>99.6</ele>
        <time>2023-12-14T12:47:43Z</time>
      </trkpt>
      <trkpt lat="48.59533" lon="1.99346">
        <ele>99.6</ele>
        <time>2023-12-14T12:47:44Z</time>
      </trkpt>
      <trkpt lat="48.5954" lon="1.99348">
        <ele>99.4</ele>
        <time>2023-12-14T12:47:45Z</time>
      </trkpt>
      <trkpt lat="48.59548" lon="1.99349">
        <ele>99.4</ele>
        <time>2023-12-14T12:47:46Z</time>
      </trkpt>
      <trkpt lat="48.59556" lon="1.9935">
        <ele>99.4</ele>
        <time>2023-12-14T12:47:47Z</time>
      </trkpt>
      <trkpt lat="48.59565" lon="1.99351">
        <ele>99.4</ele>
        <time>2023-12-14T12:47:48Z</time>
      </trkpt>
      <trkpt lat="48.59573" lon="1.99351">
        <ele>99</ele>
        <time>2023-12-14T12:47:49Z</time>
      </trkpt>
      <trkpt lat="48.59582" lon="1.99351">
        <ele>99</ele>
        <time>2023-12-14T12:47:50Z</time>
      </trkpt>
      <trkpt lat="48.59591" lon="1.99349">
        <ele>99</ele>
        <time>2023-12-14T12:47:51Z</time>
      </trkpt>
      <trkpt lat="48.59599" lon="1.99348">
        <ele>98</ele>
        <time>2023-12-14T12:47:52Z</time>
      </trkpt>
      <trkpt lat="48.59608" lon="1.99346">
        <ele>97.8</ele>
        <time>2023-12-14T12:47:53Z</time>
      </trkpt>
      <trkpt lat="48.59616" lon="1.99344">
        <ele>97.8</ele>
        <time>2023-12-14T12:47:54Z</time>
      </trkpt>
      <trkpt lat="48.59624" lon="1.99342">
        <ele>97.8</ele>
        <time>2023-12-14T12:47:55Z</time>
      </trkpt>
      <trkpt lat="48.59633" lon="1.99341">
        <ele>96.8</ele>
        <time>2023-12-14T12:47:56Z</time>
      </trkpt>
      <trkpt lat="48.59641" lon="1.99339">
        <ele>96</ele>
        <time>2023-12-14T12:47:57Z</time>
      </trkpt>
      <trkpt lat="48.5965" lon="1.99337">
        <ele>96</ele>
        <time>2023-12-14T12:47:58Z</time>
      </trkpt>
      <trkpt lat="48.59659" lon="1.99335">
        <ele>96</ele>
        <time>2023-12-14T12:47:59Z</time>
      </trkpt>
      <trkpt lat="48.59667" lon="1.99333">
        <ele>95.6</ele>
        <time>2023-12-14T12:48:00Z</time>
      </trkpt>
      <trkpt lat="48.59675" lon="1.99331">
        <ele>95.8</ele>
        <time>2023-12-14T12:48:01Z</time>
      </trkpt>
      <trkpt lat="48.59684" lon="1.9933">
        <ele>95.8</ele>
        <time>2023-12-14T12:48:02Z</time>
      </trkpt>
      <trkpt lat="48.59693" lon="1.99329">
        <ele>95.8</ele>
        <time>2023-12-14T12:48:03Z</time>
      </trkpt>
      <trkpt lat="48.59701" lon="1.99329">
        <ele>94.8</ele>
        <time>2023-12-14T12:48:04Z</time>
      </trkpt>
      <trkpt lat="48.5971" lon="1.99329">
        <ele>93.8</ele>
        <time>2023-12-14T12:48:05Z</time>
      </trkpt>
      <trkpt lat="48.59719" lon="1.99329">
        <ele>93.8</ele>
        <time>2023-12-14T12:48:06Z</time>
      </trkpt>
      <trkpt lat="48.59728" lon="1.9933">
        <ele>93.8</ele>
        <time>2023-12-14T12:48:07Z</time>
      </trkpt>
      <trkpt lat="48.59737" lon="1.99331">
        <ele>92.8</ele>
        <time>2023-12-14T12:48:08Z</time>
      </trkpt>
      <trkpt lat="48.59746" lon="1.99333">
        <ele>90.6</ele>
        <time>2023-12-14T12:48:09Z</time>
      </trkpt>
      <trkpt lat="48.59755" lon="1.99335">
        <ele>90.6</ele>
        <time>2023-12-14T12:48:10Z</time>
      </trkpt>
      <trkpt lat="48.59765" lon="1.99336">
        <ele>90.6</ele>
        <time>2023-12-14T12:48:11Z</time>
      </trkpt>
      <trkpt lat="48.59774" lon="1.99338">
        <ele>89.6</ele>
        <time>2023-12-14T12:48:12Z</time>
      </trkpt>
      <trkpt lat="48.59783" lon="1.99339">
        <ele>86.8</ele>
        <time>2023-12-14T12:48:13Z</time>
      </trkpt>
      <trkpt lat="48.59793" lon="1.99341">
        <ele>86.8</ele>
        <time>2023-12-14T12:48:14Z</time>
      </trkpt>
      <trkpt lat="48.59803" lon="1.99341">
        <ele>86.8</ele>
        <time>2023-12-14T12:48:15Z</time>
      </trkpt>
      <trkpt lat="48.59813" lon="1.99343">
        <ele>86.8</ele>
        <time>2023-12-14T12:48:16Z</time>
      </trkpt>
      <trkpt lat="48.59823" lon="1.99345">
        <ele>84.6</ele>
        <time>2023-12-14T12:48:17Z</time>
      </trkpt>
      <trkpt lat="48.59834" lon="1.99346">
        <ele>84.6</ele>
        <time>2023-12-14T12:48:18Z</time>
      </trkpt>
      <trkpt lat="48.59844" lon="1.99348">
        <ele>84.6</ele>
        <time>2023-12-14T12:48:19Z</time>
      </trkpt>
      <trkpt lat="48.59854" lon="1.99349">
        <ele>84.6</ele>
        <time>2023-12-14T12:48:20Z</time>
      </trkpt>
      <trkpt lat="48.59865" lon="1.99352">
        <ele>82.6</ele>
        <time>2023-12-14T12:48:21Z</time>
      </trkpt>
      <trkpt lat="48.59875" lon="1.99353">
        <ele>82.6</ele>
        <time>2023-12-14T12:48:22Z</time>
      </trkpt>
      <trkpt lat="48.59885" lon="1.99354">
        <ele>82.6</ele>
        <time>2023-12-14T12:48:23Z</time>
      </trkpt>
      <trkpt lat="48.59895" lon="1.99355">
        <ele>82</ele>
        <time>2023-12-14T12:48:24Z</time>
      </trkpt>
      <trkpt lat="48.59905" lon="1.99357">
        <ele>81.8</ele>
        <time>2023-12-14T12:48:25Z</time>
      </trkpt>
      <trkpt lat="48.59916" lon="1.99358">
        <ele>81.8</ele>
        <time>2023-12-14T12:48:26Z</time>
      </trkpt>
      <trkpt lat="48.59926" lon="1.99359">
        <ele>81.8</ele>
        <time>2023-12-14T12:48:27Z</time>
      </trkpt>
      <trkpt lat="48.59936" lon="1.9936">
        <ele>81.8</ele>
        <time>2023-12-14T12:48:28Z</time>
      </trkpt>
      <trkpt lat="48.59946" lon="1.99361">
        <ele>79.6</ele>
        <time>2023-12-14T12:48:29Z</time>
      </trkpt>
      <trkpt lat="48.59956" lon="1.99363">
        <ele>79.6</ele>
        <time>2023-12-14T12:48:30Z</time>
      </trkpt>
      <trkpt lat="48.59966" lon="1.99364">
        <ele>79.6</ele>
        <time>2023-12-14T12:48:31Z</time>
      </trkpt>
      <trkpt lat="48.59976" lon="1.99365">
        <ele>78.6</ele>
        <time>2023-12-14T12:48:32Z</time>
      </trkpt>
      <trkpt lat="48.59986" lon="1.99366">
        <ele>78.6</ele>
        <time>2023-12-14T12:48:33Z</time>
      </trkpt>
      <trkpt lat="48.59995" lon="1.99368">
        <ele>78.6</ele>
        <time>2023-12-14T12:48:34Z</time>
      </trkpt>
      <trkpt lat="48.60005" lon="1.99369">
        <ele>78.6</ele>
        <time>2023-12-14T12:48:35Z</time>
      </trkpt>
      <trkpt lat="48.60014" lon="1.9937">
        <ele>79.6</ele>
        <time>2023-12-14T12:48:36Z</time>
      </trkpt>
      <trkpt lat="48.60024" lon="1.99371">
        <ele>79</ele>
        <time>2023-12-14T12:48:37Z</time>
      </trkpt>
      <trkpt lat="48.60033" lon="1.99372">
        <ele>79</ele>
        <time>2023-12-14T12:48:38Z</time>
      </trkpt>
      <trkpt lat="48.60043" lon="1.99373">
        <ele>79</ele>
        <time>2023-12-14T12:48:39Z</time>
      </trkpt>
      <trkpt lat="48.60052" lon="1.99375">
        <ele>78</ele>
        <time>2023-12-14T12:48:40Z</time>
      </trkpt>
      <trkpt lat="48.60062" lon="1.99376">
        <ele>76.8</ele>
        <time>2023-12-14T12:48:41Z</time>
      </trkpt>
      <trkpt lat="48.60071" lon="1.99377">
        <ele>76.8</ele>
        <time>2023-12-14T12:48:42Z</time>
      </trkpt>
      <trkpt lat="48.60081" lon="1.99378">
        <ele>76.8</ele>
        <time>2023-12-14T12:48:43Z</time>
      </trkpt>
      <trkpt lat="48.6009" lon="1.99379">
        <ele>75.8</ele>
        <time>2023-12-14T12:48:44Z</time>
      </trkpt>
      <trkpt lat="48.60099" lon="1.9938">
        <ele>75.2</ele>
        <time>2023-12-14T12:48:45Z</time>
      </trkpt>
      <trkpt lat="48.60108" lon="1.99382">
        <ele>75.2</ele>
        <time>2023-12-14T12:48:46Z</time>
      </trkpt>
      <trkpt lat="48.60117" lon="1.99383">
        <ele>75.2</ele>
        <time>2023-12-14T12:48:47Z</time>
      </trkpt>
      <trkpt lat="48.60126" lon="1.99385">
        <ele>75.2</ele>
        <time>2023-12-14T12:48:48Z</time>
      </trkpt>
      <trkpt lat="48.60135" lon="1.99387">
        <ele>75.6</ele>
        <time>2023-12-14T12:48:49Z</time>
      </trkpt>
      <trkpt lat="48.60144" lon="1.99389">
        <ele>75.6</ele>
        <time>2023-12-14T12:48:50Z</time>
      </trkpt>
      <trkpt lat="48.60153" lon="1.99392">
        <ele>75.6</ele>
        <time>2023-12-14T12:48:51Z</time>
      </trkpt>
      <trkpt lat="48.60162" lon="1.99396">
        <ele>74.6</ele>
        <time>2023-12-14T12:48:52Z</time>
      </trkpt>
      <trkpt lat="48.6017" lon="1.994">
        <ele>75.4</ele>
        <time>2023-12-14T12:48:53Z</time>
      </trkpt>
      <trkpt lat="48.60178" lon="1.99405">
        <ele>75.4</ele>
        <time>2023-12-14T12:48:54Z</time>
      </trkpt>
      <trkpt lat="48.60186" lon="1.9941">
        <ele>75.4</ele>
        <time>2023-12-14T12:48:55Z</time>
      </trkpt>
      <trkpt lat="48.60194" lon="1.99417">
        <ele>74.8</ele>
        <time>2023-12-14T12:48:56Z</time>
      </trkpt>
      <trkpt lat="48.60201" lon="1.99423">
        <ele>75</ele>
        <time>2023-12-14T12:48:57Z</time>
      </trkpt>
      <trkpt lat="48.60209" lon="1.9943">
        <ele>75</ele>
        <time>2023-12-14T12:48:58Z</time>
      </trkpt>
      <trkpt lat="48.60215" lon="1.99438">
        <ele>75</ele>
        <time>2023-12-14T12:48:59Z</time>
      </trkpt>
      <trkpt lat="48.6022" lon="1.99445">
        <ele>74.4</ele>
        <time>2023-12-14T12:49:00Z</time>
      </trkpt>
      <trkpt lat="48.60224" lon="1.99453">
        <ele>74.6</ele>
        <time>2023-12-14T12:49:01Z</time>
      </trkpt>
      <trkpt lat="48.60231" lon="1.9946">
        <ele>74.6</ele>
        <time>2023-12-14T12:49:02Z</time>
      </trkpt>
      <trkpt lat="48.60236" lon="1.99468">
        <ele>74.6</ele>
        <time>2023-12-14T12:49:03Z</time>
      </trkpt>
      <trkpt lat="48.60241" lon="1.99475">
        <ele>74.6</ele>
        <time>2023-12-14T12:49:04Z</time>
      </trkpt>
      <trkpt lat="48.60247" lon="1.99482">
        <ele>75.8</ele>
        <time>2023-12-14T12:49:05Z</time>
      </trkpt>
      <trkpt lat="48.60252" lon="1.9949">
        <ele>75.8</ele>
        <time>2023-12-14T12:49:06Z</time>
      </trkpt>
      <trkpt lat="48.60257" lon="1.99496">
        <ele>75.8</ele>
        <time>2023-12-14T12:49:07Z</time>
      </trkpt>
      <trkpt lat="48.60261" lon="1.99503">
        <ele>75.8</ele>
        <time>2023-12-14T12:49:08Z</time>
      </trkpt>
      <trkpt lat="48.60266" lon="1.9951">
        <ele>76.6</ele>
        <time>2023-12-14T12:49:09Z</time>
      </trkpt>
      <trkpt lat="48.60271" lon="1.99517">
        <ele>76.6</ele>
        <time>2023-12-14T12:49:10Z</time>
      </trkpt>
      <trkpt lat="48.60276" lon="1.99524">
        <ele>76.6</ele>
        <time>2023-12-14T12:49:11Z</time>
      </trkpt>
      <trkpt lat="48.6028" lon="1.9953">
        <ele>76.6</ele>
        <time>2023-12-14T12:49:12Z</time>
      </trkpt>
      <trkpt lat="48.60284" lon="1.99536">
        <ele>76.8</ele>
        <time>2023-12-14T12:49:13Z</time>
      </trkpt>
      <trkpt lat="48.6029" lon="1.99542">
        <ele>76.8</ele>
        <time>2023-12-14T12:49:14Z</time>
      </trkpt>
      <trkpt lat="48.60294" lon="1.99548">
        <ele>76.8</ele>
        <time>2023-12-14T12:49:15Z</time>
      </trkpt>
      <trkpt lat="48.60298" lon="1.99554">
        <ele>77.8</ele>
        <time>2023-12-14T12:49:16Z</time>
      </trkpt>
      <trkpt lat="48.60303" lon="1.99559">
        <ele>78.4</ele>
        <time>2023-12-14T12:49:17Z</time>
      </trkpt>
      <trkpt lat="48.60307" lon="1.99564">
        <ele>78.4</ele>
        <time>2023-12-14T12:49:18Z</time>
      </trkpt>
      <trkpt lat="48.6031" lon="1.9957">
        <ele>78.4</ele>
        <time>2023-12-14T12:49:19Z</time>
      </trkpt>
      <trkpt lat="48.60314" lon="1.99575">
        <ele>79.4</ele>
        <time>2023-12-14T12:49:20Z</time>
      </trkpt>
      <trkpt lat="48.60316" lon="1.99581">
        <ele>79.6</ele>
        <time>2023-12-14T12:49:21Z</time>
      </trkpt>
      <trkpt lat="48.6032" lon="1.99585">
        <ele>79.6</ele>
        <time>2023-12-14T12:49:22Z</time>
      </trkpt>
      <trkpt lat="48.60323" lon="1.99589">
        <ele>79.6</ele>
        <time>2023-12-14T12:49:23Z</time>
      </trkpt>
      <trkpt lat="48.60327" lon="1.99593">
        <ele>79.6</ele>
        <time>2023-12-14T12:49:24Z</time>
      </trkpt>
      <trkpt lat="48.60331" lon="1.99597">
        <ele>80.8</ele>
        <time>2023-12-14T12:49:25Z</time>
      </trkpt>
      <trkpt lat="48.60335" lon="1.996">
        <ele>80.8</ele>
        <time>2023-12-14T12:49:26Z</time>
      </trkpt>
      <trkpt lat="48.6034" lon="1.99603">
        <ele>80.8</ele>
        <time>2023-12-14T12:49:27Z</time>
      </trkpt>
      <trkpt lat="48.60344" lon="1.99607">
        <ele>81.4</ele>
        <time>2023-12-14T12:49:28Z</time>
      </trkpt>
      <trkpt lat="48.60348" lon="1.9961">
        <ele>81.6</ele>
        <time>2023-12-14T12:49:29Z</time>
      </trkpt>
      <trkpt lat="48.60352" lon="1.99613">
        <ele>81.6</ele>
        <time>2023-12-14T12:49:30Z</time>
      </trkpt>
      <trkpt lat="48.60357" lon="1.99615">
        <ele>81.6</ele>
        <time>2023-12-14T12:49:31Z</time>
      </trkpt>
      <trkpt lat="48.60361" lon="1.99617">
        <ele>82.2</ele>
        <time>2023-12-14T12:49:32Z</time>
      </trkpt>
      <trkpt lat="48.60365" lon="1.99619">
        <ele>82.6</ele>
        <time>2023-12-14T12:49:33Z</time>
      </trkpt>
      <trkpt lat="48.60369" lon="1.99621">
        <ele>82.6</ele>
        <time>2023-12-14T12:49:34Z</time>
      </trkpt>
      <trkpt lat="48.60373" lon="1.99624">
        <ele>82.6</ele>
        <time>2023-12-14T12:49:35Z</time>
      </trkpt>
      <trkpt lat="48.60377" lon="1.99626">
        <ele>83.2</ele>
        <time>2023-12-14T12:49:36Z</time>
      </trkpt>
      <trkpt lat="48.6038" lon="1.99628">
        <ele>83.2</ele>
        <time>2023-12-14T12:49:37Z</time>
      </trkpt>
      <trkpt lat="48.60384" lon="1.99629">
        <ele>83.2</ele>
        <time>2023-12-14T12:49:38Z</time>
      </trkpt>
      <trkpt lat="48.60388" lon="1.9963">
        <ele>83.2</ele>
        <time>2023-12-14T12:49:39Z</time>
      </trkpt>
      <trkpt lat="48.60391" lon="1.99632">
        <ele>83.6</ele>
        <time>2023-12-14T12:49:40Z</time>
      </trkpt>
      <trkpt lat="48.60395" lon="1.99633">
        <ele>83.8</ele>
        <time>2023-12-14T12:49:41Z</time>
      </trkpt>
      <trkpt lat="48.60398" lon="1.99634">
        <ele>83.8</ele>
        <time>2023-12-14T12:49:42Z</time>
      </trkpt>
      <trkpt lat="48.60402" lon="1.99635">
        <ele>83.8</ele>
        <time>2023-12-14T12:49:43Z</time>
      </trkpt>
      <trkpt lat="48.60406" lon="1.99637">
        <ele>84.4</ele>
        <time>2023-12-14T12:49:44Z</time>
      </trkpt>
      <trkpt lat="48.6041" lon="1.99638">
        <ele>84.6</ele>
        <time>2023-12-14T12:49:45Z</time>
      </trkpt>
      <trkpt lat="48.60414" lon="1.99639">
        <ele>84.6</ele>
        <time>2023-12-14T12:49:46Z</time>
      </trkpt>
      <trkpt lat="48.60418" lon="1.9964">
        <ele>84.6</ele>
        <time>2023-12-14T12:49:47Z</time>
      </trkpt>
      <trkpt lat="48.60421" lon="1.9964">
        <ele>85.4</ele>
        <time>2023-12-14T12:49:48Z</time>
      </trkpt>
      <trkpt lat="48.60425" lon="1.99641">
        <ele>85.8</ele>
        <time>2023-12-14T12:49:49Z</time>
      </trkpt>
      <trkpt lat="48.60429" lon="1.99642">
        <ele>85.8</ele>
        <time>2023-12-14T12:49:50Z</time>
      </trkpt>
      <trkpt lat="48.60433" lon="1.99642">
        <ele>85.8</ele>
        <time>2023-12-14T12:49:51Z</time>
      </trkpt>
      <trkpt lat="48.60437" lon="1.99642">
        <ele>86.8</ele>
        <time>2023-12-14T12:49:52Z</time>
      </trkpt>
      <trkpt lat="48.60441" lon="1.99642">
        <ele>86.8</ele>
        <time>2023-12-14T12:49:53Z</time>
      </trkpt>
      <trkpt lat="48.60444" lon="1.99643">
        <ele>86.8</ele>
        <time>2023-12-14T12:49:54Z</time>
      </trkpt>
      <trkpt lat="48.60448" lon="1.99643">
        <ele>86.8</ele>
        <time>2023-12-14T12:49:55Z</time>
      </trkpt>
      <trkpt lat="48.60451" lon="1.99643">
        <ele>86.8</ele>
        <time>2023-12-14T12:49:56Z</time>
      </trkpt>
      <trkpt lat="48.60455" lon="1.99643">
        <ele>87</ele>
        <time>2023-12-14T12:49:57Z</time>
      </trkpt>
      <trkpt lat="48.60458" lon="1.99643">
        <ele>87</ele>
        <time>2023-12-14T12:49:58Z</time>
      </trkpt>
      <trkpt lat="48.60462" lon="1.99643">
        <ele>87</ele>
        <time>2023-12-14T12:49:59Z</time>
      </trkpt>
      <trkpt lat="48.60465" lon="1.99643">
        <ele>87.8</ele>
        <time>2023-12-14T12:50:00Z</time>
      </trkpt>
      <trkpt lat="48.60469" lon="1.99643">
        <ele>88.4</ele>
        <time>2023-12-14T12:50:01Z</time>
      </trkpt>
      <trkpt lat="48.60472" lon="1.99642">
        <ele>88.4</ele>
        <time>2023-12-14T12:50:02Z</time>
      </trkpt>
      <trkpt lat="48.60476" lon="1.99642">
        <ele>88.4</ele>
        <time>2023-12-14T12:50:03Z</time>
      </trkpt>
      <trkpt lat="48.60479" lon="1.99642">
        <ele>88.4</ele>
        <time>2023-12-14T12:50:04Z</time>
      </trkpt>
      <trkpt lat="48.60483" lon="1.99642">
        <ele>88.8</ele>
        <time>2023-12-14T12:50:05Z</time>
      </trkpt>
      <trkpt lat="48.60486" lon="1.99642">
        <ele>88.8</ele>
        <time>2023-12-14T12:50:06Z</time>
      </trkpt>
      <trkpt lat="48.6049" lon="1.99642">
        <ele>88.8</ele>
        <time>2023-12-14T12:50:07Z</time>
      </trkpt>
      <trkpt lat="48.60492" lon="1.99642">
        <ele>89</ele>
        <time>2023-12-14T12:50:08Z</time>
      </trkpt>
      <trkpt lat="48.60496" lon="1.99642">
        <ele>89.8</ele>
        <time>2023-12-14T12:50:09Z</time>
      </trkpt>
      <trkpt lat="48.60499" lon="1.99641">
        <ele>89.8</ele>
        <time>2023-12-14T12:50:10Z</time>
      </trkpt>
      <trkpt lat="48.60502" lon="1.99641">
        <ele>89.8</ele>
        <time>2023-12-14T12:50:11Z</time>
      </trkpt>
      <trkpt lat="48.60505" lon="1.99641">
        <ele>89.8</ele>
        <time>2023-12-14T12:50:12Z</time>
      </trkpt>
      <trkpt lat="48.60509" lon="1.99641">
        <ele>90.2</ele>
        <time>2023-12-14T12:50:13Z</time>
      </trkpt>
      <trkpt lat="48.60513" lon="1.9964">
        <ele>90.2</ele>
        <time>2023-12-14T12:50:14Z</time>
      </trkpt>
      <trkpt lat="48.60516" lon="1.99639">
        <ele>90.2</ele>
        <time>2023-12-14T12:50:15Z</time>
      </trkpt>
      <trkpt lat="48.6052" lon="1.99638">
        <ele>90.2</ele>
        <time>2023-12-14T12:50:16Z</time>
      </trkpt>
      <trkpt lat="48.60523" lon="1.99638">
        <ele>90.8</ele>
        <time>2023-12-14T12:50:17Z</time>
      </trkpt>
      <trkpt lat="48.60527" lon="1.99638">
        <ele>90.8</ele>
        <time>2023-12-14T12:50:18Z</time>
      </trkpt>
      <trkpt lat="48.6053" lon="1.99637">
        <ele>90.8</ele>
        <time>2023-12-14T12:50:19Z</time>
      </trkpt>
      <trkpt lat="48.60535" lon="1.99636">
        <ele>91.2</ele>
        <time>2023-12-14T12:50:20Z</time>
      </trkpt>
      <trkpt lat="48.60538" lon="1.99636">
        <ele>91.2</ele>
        <time>2023-12-14T12:50:21Z</time>
      </trkpt>
      <trkpt lat="48.60542" lon="1.99635">
        <ele>91.2</ele>
        <time>2023-12-14T12:50:22Z</time>
      </trkpt>
      <trkpt lat="48.60545" lon="1.99636">
        <ele>91.2</ele>
        <time>2023-12-14T12:50:23Z</time>
      </trkpt>
      <trkpt lat="48.60548" lon="1.99635">
        <ele>91.8</ele>
        <time>2023-12-14T12:50:24Z</time>
      </trkpt>
      <trkpt lat="48.60552" lon="1.99635">
        <ele>92.4</ele>
        <time>2023-12-14T12:50:25Z</time>
      </trkpt>
      <trkpt lat="48.60556" lon="1.99635">
        <ele>92.4</ele>
        <time>2023-12-14T12:50:26Z</time>
      </trkpt>
      <trkpt lat="48.6056" lon="1.99635">
        <ele>92.4</ele>
        <time>2023-12-14T12:50:27Z</time>
      </trkpt>
      <trkpt lat="48.60563" lon="1.99634">
        <ele>92.4</ele>
        <time>2023-12-14T12:50:28Z</time>
      </trkpt>
      <trkpt lat="48.60567" lon="1.99634">
        <ele>93.4</ele>
        <time>2023-12-14T12:50:29Z</time>
      </trkpt>
      <trkpt lat="48.60571" lon="1.99634">
        <ele>93.4</ele>
        <time>2023-12-14T12:50:30Z</time>
      </trkpt>
      <trkpt lat="48.60575" lon="1.99634">
        <ele>93.4</ele>
        <time>2023-12-14T12:50:31Z</time>
      </trkpt>
      <trkpt lat="48.60579" lon="1.99634">
        <ele>93.4</ele>
        <time>2023-12-14T12:50:32Z</time>
      </trkpt>
      <trkpt lat="48.60583" lon="1.99634">
        <ele>94.4</ele>
        <time>2023-12-14T12:50:33Z</time>
      </trkpt>
      <trkpt lat="48.60587" lon="1.99634">
        <ele>94.4</ele>
        <time>2023-12-14T12:50:34Z</time>
      </trkpt>
      <trkpt lat="48.60591" lon="1.99633">
        <ele>94.4</ele>
        <time>2023-12-14T12:50:35Z</time>
      </trkpt>
      <trkpt lat="48.60595" lon="1.99634">
        <ele>94</ele>
        <time>2023-12-14T12:50:36Z</time>
      </trkpt>
      <trkpt lat="48.60599" lon="1.99635">
        <ele>94.4</ele>
        <time>2023-12-14T12:50:37Z</time>
      </trkpt>
      <trkpt lat="48.60603" lon="1.99635">
        <ele>94.4</ele>
        <time>2023-12-14T12:50:38Z</time>
      </trkpt>
      <trkpt lat="48.60606" lon="1.99636">
        <ele>94.4</ele>
        <time>2023-12-14T12:50:39Z</time>
      </trkpt>
      <trkpt lat="48.6061" lon="1.99637">
        <ele>94.4</ele>
        <time>2023-12-14T12:50:40Z</time>
      </trkpt>
      <trkpt lat="48.60614" lon="1.99637">
        <ele>94.2</ele>
        <time>2023-12-14T12:50:41Z</time>
      </trkpt>
      <trkpt lat="48.60618" lon="1.99638">
        <ele>94.2</ele>
        <time>2023-12-14T12:50:42Z</time>
      </trkpt>
      <trkpt lat="48.60622" lon="1.99639">
        <ele>94.2</ele>
        <time>2023-12-14T12:50:43Z</time>
      </trkpt>
      <trkpt lat="48.60626" lon="1.9964">
        <ele>94.6</ele>
        <time>2023-12-14T12:50:44Z</time>
      </trkpt>
      <trkpt lat="48.6063" lon="1.99641">
        <ele>95</ele>
        <time>2023-12-14T12:50:45Z</time>
      </trkpt>
      <trkpt lat="48.60635" lon="1.99642">
        <ele>95</ele>
        <time>2023-12-14T12:50:46Z</time>
      </trkpt>
      <trkpt lat="48.60639" lon="1.99644">
        <ele>95</ele>
        <time>2023-12-14T12:50:47Z</time>
      </trkpt>
      <trkpt lat="48.60643" lon="1.99645">
        <ele>95</ele>
        <time>2023-12-14T12:50:48Z</time>
      </trkpt>
      <trkpt lat="48.60647" lon="1.99646">
        <ele>94.6</ele>
        <time>2023-12-14T12:50:49Z</time>
      </trkpt>
      <trkpt lat="48.60651" lon="1.99648">
        <ele>94.6</ele>
        <time>2023-12-14T12:50:50Z</time>
      </trkpt>
      <trkpt lat="48.60655" lon="1.9965">
        <ele>94.6</ele>
        <time>2023-12-14T12:50:51Z</time>
      </trkpt>
      <trkpt lat="48.60659" lon="1.99652">
        <ele>94.6</ele>
        <time>2023-12-14T12:50:52Z</time>
      </trkpt>
      <trkpt lat="48.60662" lon="1.99653">
        <ele>95</ele>
        <time>2023-12-14T12:50:53Z</time>
      </trkpt>
      <trkpt lat="48.60666" lon="1.99655">
        <ele>95</ele>
        <time>2023-12-14T12:50:54Z</time>
      </trkpt>
      <trkpt lat="48.60669" lon="1.99658">
        <ele>95</ele>
        <time>2023-12-14T12:50:55Z</time>
      </trkpt>
      <trkpt lat="48.60673" lon="1.9966">
        <ele>95</ele>
        <time>2023-12-14T12:50:56Z</time>
      </trkpt>
      <trkpt lat="48.60677" lon="1.99661">
        <ele>95.4</ele>
        <time>2023-12-14T12:50:57Z</time>
      </trkpt>
      <trkpt lat="48.60681" lon="1.99663">
        <ele>95.4</ele>
        <time>2023-12-14T12:50:58Z</time>
      </trkpt>
      <trkpt lat="48.60684" lon="1.99666">
        <ele>95.4</ele>
        <time>2023-12-14T12:50:59Z</time>
      </trkpt>
      <trkpt lat="48.60688" lon="1.99668">
        <ele>95.6</ele>
        <time>2023-12-14T12:51:00Z</time>
      </trkpt>
      <trkpt lat="48.60692" lon="1.9967">
        <ele>95.8</ele>
        <time>2023-12-14T12:51:01Z</time>
      </trkpt>
      <trkpt lat="48.60696" lon="1.99672">
        <ele>95.8</ele>
        <time>2023-12-14T12:51:02Z</time>
      </trkpt>
      <trkpt lat="48.607" lon="1.99674">
        <ele>95.8</ele>
        <time>2023-12-14T12:51:03Z</time>
      </trkpt>
      <trkpt lat="48.60704" lon="1.99676">
        <ele>96.4</ele>
        <time>2023-12-14T12:51:04Z</time>
      </trkpt>
      <trkpt lat="48.60708" lon="1.99677">
        <ele>96.8</ele>
        <time>2023-12-14T12:51:05Z</time>
      </trkpt>
      <trkpt lat="48.60711" lon="1.9968">
        <ele>96.8</ele>
        <time>2023-12-14T12:51:06Z</time>
      </trkpt>
      <trkpt lat="48.60715" lon="1.99681">
        <ele>96.8</ele>
        <time>2023-12-14T12:51:07Z</time>
      </trkpt>
      <trkpt lat="48.60718" lon="1.99683">
        <ele>96.8</ele>
        <time>2023-12-14T12:51:08Z</time>
      </trkpt>
      <trkpt lat="48.60721" lon="1.99684">
        <ele>97</ele>
        <time>2023-12-14T12:51:09Z</time>
      </trkpt>
      <trkpt lat="48.60726" lon="1.99686">
        <ele>97</ele>
        <time>2023-12-14T12:51:10Z</time>
      </trkpt>
      <trkpt lat="48.6073" lon="1.99688">
        <ele>97</ele>
        <time>2023-12-14T12:51:11Z</time>
      </trkpt>
      <trkpt lat="48.60734" lon="1.9969">
        <ele>97</ele>
        <time>2023-12-14T12:51:12Z</time>
      </trkpt>
      <trkpt lat="48.60738" lon="1.99691">
        <ele>97.8</ele>
        <time>2023-12-14T12:51:13Z</time>
      </trkpt>
      <trkpt lat="48.60742" lon="1.99693">
        <ele>97.8</ele>
        <time>2023-12-14T12:51:14Z</time>
      </trkpt>
      <trkpt lat="48.60747" lon="1.99694">
        <ele>97.8</ele>
        <time>2023-12-14T12:51:15Z</time>
      </trkpt>
      <trkpt lat="48.60751" lon="1.99695">
        <ele>97.6</ele>
        <time>2023-12-14T12:51:16Z</time>
      </trkpt>
      <trkpt lat="48.60755" lon="1.99697">
        <ele>97.8</ele>
        <time>2023-12-14T12:51:17Z</time>
      </trkpt>
      <trkpt lat="48.6076" lon="1.99699">
        <ele>97.8</ele>
        <time>2023-12-14T12:51:18Z</time>
      </trkpt>
      <trkpt lat="48.60764" lon="1.997">
        <ele>97.8</ele>
        <time>2023-12-14T12:51:19Z</time>
      </trkpt>
      <trkpt lat="48.60768" lon="1.99701">
        <ele>97.8</ele>
        <time>2023-12-14T12:51:20Z</time>
      </trkpt>
      <trkpt lat="48.60773" lon="1.99702">
        <ele>97.6</ele>
        <time>2023-12-14T12:51:21Z</time>
      </trkpt>
      <trkpt lat="48.60777" lon="1.99703">
        <ele>97.6</ele>
        <time>2023-12-14T12:51:22Z</time>
      </trkpt>
      <trkpt lat="48.60782" lon="1.99704">
        <ele>97.6</ele>
        <time>2023-12-14T12:51:23Z</time>
      </trkpt>
      <trkpt lat="48.60786" lon="1.99706">
        <ele>98</ele>
        <time>2023-12-14T12:51:24Z</time>
      </trkpt>
      <trkpt lat="48.6079" lon="1.99707">
        <ele>98.2</ele>
        <time>2023-12-14T12:51:25Z</time>
      </trkpt>
      <trkpt lat="48.60795" lon="1.99708">
        <ele>98.2</ele>
        <time>2023-12-14T12:51:26Z</time>
      </trkpt>
      <trkpt lat="48.60799" lon="1.9971">
        <ele>98.2</ele>
        <time>2023-12-14T12:51:27Z</time>
      </trkpt>
      <trkpt lat="48.60804" lon="1.99711">
        <ele>98.6</ele>
        <time>2023-12-14T12:51:28Z</time>
      </trkpt>
      <trkpt lat="48.60809" lon="1.99712">
        <ele>98.8</ele>
        <time>2023-12-14T12:51:29Z</time>
      </trkpt>
      <trkpt lat="48.60813" lon="1.99713">
        <ele>98.8</ele>
        <time>2023-12-14T12:51:30Z</time>
      </trkpt>
      <trkpt lat="48.60817" lon="1.99715">
        <ele>98.8</ele>
        <time>2023-12-14T12:51:31Z</time>
      </trkpt>
      <trkpt lat="48.60822" lon="1.99716">
        <ele>98.8</ele>
        <time>2023-12-14T12:51:32Z</time>
      </trkpt>
      <trkpt lat="48.60827" lon="1.99717">
        <ele>99.4</ele>
        <time>2023-12-14T12:51:33Z</time>
      </trkpt>
      <trkpt lat="48.60831" lon="1.99719">
        <ele>99.4</ele>
        <time>2023-12-14T12:51:34Z</time>
      </trkpt>
      <trkpt lat="48.60835" lon="1.9972">
        <ele>99.4</ele>
        <time>2023-12-14T12:51:35Z</time>
      </trkpt>
      <trkpt lat="48.6084" lon="1.99721">
        <ele>99.4</ele>
        <time>2023-12-14T12:51:36Z</time>
      </trkpt>
      <trkpt lat="48.60844" lon="1.99722">
        <ele>99.2</ele>
        <time>2023-12-14T12:51:37Z</time>
      </trkpt>
      <trkpt lat="48.60849" lon="1.99723">
        <ele>99.2</ele>
        <time>2023-12-14T12:51:38Z</time>
      </trkpt>
      <trkpt lat="48.60854" lon="1.99725">
        <ele>99.2</ele>
        <time>2023-12-14T12:51:39Z</time>
      </trkpt>
      <trkpt lat="48.60858" lon="1.99726">
        <ele>99.2</ele>
        <time>2023-12-14T12:51:40Z</time>
      </trkpt>
      <trkpt lat="48.60863" lon="1.99727">
        <ele>100</ele>
        <time>2023-12-14T12:51:41Z</time>
      </trkpt>
      <trkpt lat="48.60868" lon="1.99728">
        <ele>100</ele>
        <time>2023-12-14T12:51:42Z</time>
      </trkpt>
      <trkpt lat="48.60873" lon="1.99729">
        <ele>100</ele>
        <time>2023-12-14T12:51:43Z</time>
      </trkpt>
      <trkpt lat="48.60878" lon="1.9973">
        <ele>99.6</ele>
        <time>2023-12-14T12:51:44Z</time>
      </trkpt>
      <trkpt lat="48.60883" lon="1.99731">
        <ele>100</ele>
        <time>2023-12-14T12:51:45Z</time>
      </trkpt>
      <trkpt lat="48.60888" lon="1.99732">
        <ele>100</ele>
        <time>2023-12-14T12:51:46Z</time>
      </trkpt>
      <trkpt lat="48.60893" lon="1.99733">
        <ele>100</ele>
        <time>2023-12-14T12:51:47Z</time>
      </trkpt>
      <trkpt lat="48.60898" lon="1.99735">
        <ele>100.2</ele>
        <time>2023-12-14T12:51:48Z</time>
      </trkpt>
      <trkpt lat="48.60903" lon="1.99735">
        <ele>100.2</ele>
        <time>2023-12-14T12:51:49Z</time>
      </trkpt>
      <trkpt lat="48.60907" lon="1.99736">
        <ele>100.2</ele>
        <time>2023-12-14T12:51:50Z</time>
      </trkpt>
      <trkpt lat="48.60912" lon="1.99736">
        <ele>100.2</ele>
        <time>2023-12-14T12:51:51Z</time>
      </trkpt>
      <trkpt lat="48.60917" lon="1.99737">
        <ele>100.2</ele>
        <time>2023-12-14T12:51:52Z</time>
      </trkpt>
      <trkpt lat="48.60922" lon="1.99737">
        <ele>100.2</ele>
        <time>2023-12-14T12:51:53Z</time>
      </trkpt>
      <trkpt lat="48.60927" lon="1.99738">
        <ele>100.2</ele>
        <time>2023-12-14T12:51:54Z</time>
      </trkpt>
      <trkpt lat="48.60932" lon="1.99738">
        <ele>100.2</ele>
        <time>2023-12-14T12:51:55Z</time>
      </trkpt>
      <trkpt lat="48.60936" lon="1.99738">
        <ele>100.6</ele>
        <time>2023-12-14T12:51:56Z</time>
      </trkpt>
      <trkpt lat="48.6094" lon="1.99739">
        <ele>101</ele>
        <time>2023-12-14T12:51:57Z</time>
      </trkpt>
      <trkpt lat="48.60945" lon="1.9974">
        <ele>101</ele>
        <time>2023-12-14T12:51:58Z</time>
      </trkpt>
      <trkpt lat="48.60949" lon="1.9974">
        <ele>101</ele>
        <time>2023-12-14T12:51:59Z</time>
      </trkpt>
      <trkpt lat="48.60953" lon="1.99741">
        <ele>101</ele>
        <time>2023-12-14T12:52:00Z</time>
      </trkpt>
      <trkpt lat="48.60957" lon="1.99741">
        <ele>101.2</ele>
        <time>2023-12-14T12:52:01Z</time>
      </trkpt>
      <trkpt lat="48.60961" lon="1.99742">
        <ele>101.2</ele>
        <time>2023-12-14T12:52:02Z</time>
      </trkpt>
      <trkpt lat="48.60966" lon="1.99742">
        <ele>101.2</ele>
        <time>2023-12-14T12:52:03Z</time>
      </trkpt>
      <trkpt lat="48.60971" lon="1.99743">
        <ele>101.8</ele>
        <time>2023-12-14T12:52:04Z</time>
      </trkpt>
      <trkpt lat="48.60976" lon="1.99743">
        <ele>101.6</ele>
        <time>2023-12-14T12:52:05Z</time>
      </trkpt>
      <trkpt lat="48.6098" lon="1.99743">
        <ele>101.6</ele>
        <time>2023-12-14T12:52:06Z</time>
      </trkpt>
      <trkpt lat="48.60985" lon="1.99743">
        <ele>101.6</ele>
        <time>2023-12-14T12:52:07Z</time>
      </trkpt>
      <trkpt lat="48.60989" lon="1.99744">
        <ele>101.6</ele>
        <time>2023-12-14T12:52:08Z</time>
      </trkpt>
      <trkpt lat="48.60994" lon="1.99745">
        <ele>102</ele>
        <time>2023-12-14T12:52:09Z</time>
      </trkpt>
      <trkpt lat="48.60999" lon="1.99745">
        <ele>102</ele>
        <time>2023-12-14T12:52:10Z</time>
      </trkpt>
      <trkpt lat="48.61002" lon="1.99745">
        <ele>102</ele>
        <time>2023-12-14T12:52:11Z</time>
      </trkpt>
      <trkpt lat="48.61006" lon="1.99745">
        <ele>102</ele>
        <time>2023-12-14T12:52:12Z</time>
      </trkpt>
      <trkpt lat="48.61011" lon="1.99746">
        <ele>102.4</ele>
        <time>2023-12-14T12:52:13Z</time>
      </trkpt>
      <trkpt lat="48.61016" lon="1.99746">
        <ele>102.4</ele>
        <time>2023-12-14T12:52:14Z</time>
      </trkpt>
      <trkpt lat="48.61021" lon="1.99746">
        <ele>102.4</ele>
        <time>2023-12-14T12:52:15Z</time>
      </trkpt>
      <trkpt lat="48.61026" lon="1.99747">
        <ele>103</ele>
        <time>2023-12-14T12:52:16Z</time>
      </trkpt>
      <trkpt lat="48.61031" lon="1.99747">
        <ele>103.2</ele>
        <time>2023-12-14T12:52:17Z</time>
      </trkpt>
      <trkpt lat="48.61036" lon="1.99747">
        <ele>103.2</ele>
        <time>2023-12-14T12:52:18Z</time>
      </trkpt>
      <trkpt lat="48.61041" lon="1.99747">
        <ele>103.2</ele>
        <time>2023-12-14T12:52:19Z</time>
      </trkpt>
      <trkpt lat="48.61047" lon="1.99747">
        <ele>103.2</ele>
        <time>2023-12-14T12:52:20Z</time>
      </trkpt>
      <trkpt lat="48.61052" lon="1.99748">
        <ele>103.4</ele>
        <time>2023-12-14T12:52:21Z</time>
      </trkpt>
      <trkpt lat="48.61058" lon="1.99748">
        <ele>103.4</ele>
        <time>2023-12-14T12:52:22Z</time>
      </trkpt>
      <trkpt lat="48.61064" lon="1.99749">
        <ele>103.4</ele>
        <time>2023-12-14T12:52:23Z</time>
      </trkpt>
      <trkpt lat="48.61069" lon="1.99749">
        <ele>103.2</ele>
        <time>2023-12-14T12:52:24Z</time>
      </trkpt>
      <trkpt lat="48.61075" lon="1.99749">
        <ele>103.2</ele>
        <time>2023-12-14T12:52:25Z</time>
      </trkpt>
      <trkpt lat="48.6108" lon="1.9975">
        <ele>103.2</ele>
        <time>2023-12-14T12:52:26Z</time>
      </trkpt>
      <trkpt lat="48.61086" lon="1.99752">
        <ele>103.2</ele>
        <time>2023-12-14T12:52:27Z</time>
      </trkpt>
      <trkpt lat="48.61091" lon="1.99752">
        <ele>103.2</ele>
        <time>2023-12-14T12:52:28Z</time>
      </trkpt>
      <trkpt lat="48.61097" lon="1.99753">
        <ele>102.6</ele>
        <time>2023-12-14T12:52:29Z</time>
      </trkpt>
      <trkpt lat="48.61103" lon="1.99755">
        <ele>102.6</ele>
        <time>2023-12-14T12:52:30Z</time>
      </trkpt>
      <trkpt lat="48.61109" lon="1.99756">
        <ele>102.6</ele>
        <time>2023-12-14T12:52:31Z</time>
      </trkpt>
      <trkpt lat="48.61114" lon="1.99758">
        <ele>102.4</ele>
        <time>2023-12-14T12:52:32Z</time>
      </trkpt>
      <trkpt lat="48.6112" lon="1.9976">
        <ele>102.2</ele>
        <time>2023-12-14T12:52:33Z</time>
      </trkpt>
      <trkpt lat="48.61126" lon="1.99762">
        <ele>102.2</ele>
        <time>2023-12-14T12:52:34Z</time>
      </trkpt>
      <trkpt lat="48.61132" lon="1.99764">
        <ele>102.2</ele>
        <time>2023-12-14T12:52:35Z</time>
      </trkpt>
      <trkpt lat="48.61138" lon="1.99766">
        <ele>102.2</ele>
        <time>2023-12-14T12:52:36Z</time>
      </trkpt>
      <trkpt lat="48.61144" lon="1.99769">
        <ele>101.6</ele>
        <time>2023-12-14T12:52:37Z</time>
      </trkpt>
      <trkpt lat="48.6115" lon="1.99772">
        <ele>101.6</ele>
        <time>2023-12-14T12:52:38Z</time>
      </trkpt>
      <trkpt lat="48.61155" lon="1.99776">
        <ele>101.6</ele>
        <time>2023-12-14T12:52:39Z</time>
      </trkpt>
      <trkpt lat="48.6116" lon="1.9978">
        <ele>102</ele>
        <time>2023-12-14T12:52:40Z</time>
      </trkpt>
      <trkpt lat="48.61166" lon="1.99783">
        <ele>101.8</ele>
        <time>2023-12-14T12:52:41Z</time>
      </trkpt>
      <trkpt lat="48.61171" lon="1.99786">
        <ele>101.8</ele>
        <time>2023-12-14T12:52:42Z</time>
      </trkpt>
      <trkpt lat="48.61176" lon="1.99791">
        <ele>101.8</ele>
        <time>2023-12-14T12:52:43Z</time>
      </trkpt>
      <trkpt lat="48.6118" lon="1.99796">
        <ele>102.4</ele>
        <time>2023-12-14T12:52:44Z</time>
      </trkpt>
      <trkpt lat="48.61186" lon="1.998">
        <ele>102.4</ele>
        <time>2023-12-14T12:52:45Z</time>
      </trkpt>
      <trkpt lat="48.61191" lon="1.99804">
        <ele>102.4</ele>
        <time>2023-12-14T12:52:46Z</time>
      </trkpt>
      <trkpt lat="48.61196" lon="1.99808">
        <ele>102.4</ele>
        <time>2023-12-14T12:52:47Z</time>
      </trkpt>
      <trkpt lat="48.612" lon="1.99813">
        <ele>102.4</ele>
        <time>2023-12-14T12:52:48Z</time>
      </trkpt>
      <trkpt lat="48.61206" lon="1.99817">
        <ele>102.6</ele>
        <time>2023-12-14T12:52:49Z</time>
      </trkpt>
      <trkpt lat="48.61212" lon="1.99821">
        <ele>102.6</ele>
        <time>2023-12-14T12:52:50Z</time>
      </trkpt>
      <trkpt lat="48.61217" lon="1.99825">
        <ele>102.6</ele>
        <time>2023-12-14T12:52:51Z</time>
      </trkpt>
      <trkpt lat="48.61222" lon="1.99828">
        <ele>103.6</ele>
        <time>2023-12-14T12:52:52Z</time>
      </trkpt>
      <trkpt lat="48.61227" lon="1.99832">
        <ele>103.8</ele>
        <time>2023-12-14T12:52:53Z</time>
      </trkpt>
      <trkpt lat="48.61232" lon="1.99835">
        <ele>103.8</ele>
        <time>2023-12-14T12:52:54Z</time>
      </trkpt>
      <trkpt lat="48.61237" lon="1.99838">
        <ele>103.8</ele>
        <time>2023-12-14T12:52:55Z</time>
      </trkpt>
      <trkpt lat="48.61242" lon="1.99842">
        <ele>104.6</ele>
        <time>2023-12-14T12:52:56Z</time>
      </trkpt>
      <trkpt lat="48.61247" lon="1.99845">
        <ele>104.6</ele>
        <time>2023-12-14T12:52:57Z</time>
      </trkpt>
      <trkpt lat="48.61253" lon="1.99848">
        <ele>104.6</ele>
        <time>2023-12-14T12:52:58Z</time>
      </trkpt>
      <trkpt lat="48.61258" lon="1.99851">
        <ele>104.6</ele>
        <time>2023-12-14T12:52:59Z</time>
      </trkpt>
      <trkpt lat="48.61264" lon="1.99854">
        <ele>105.4</ele>
        <time>2023-12-14T12:53:00Z</time>
      </trkpt>
      <trkpt lat="48.61269" lon="1.99856">
        <ele>105.2</ele>
        <time>2023-12-14T12:53:01Z</time>
      </trkpt>
      <trkpt lat="48.61275" lon="1.99858">
        <ele>105.2</ele>
        <time>2023-12-14T12:53:02Z</time>
      </trkpt>
      <trkpt lat="48.61281" lon="1.9986">
        <ele>105.2</ele>
        <time>2023-12-14T12:53:03Z</time>
      </trkpt>
      <trkpt lat="48.61288" lon="1.99862">
        <ele>106</ele>
        <time>2023-12-14T12:53:04Z</time>
      </trkpt>
      <trkpt lat="48.61294" lon="1.99864">
        <ele>106.2</ele>
        <time>2023-12-14T12:53:05Z</time>
      </trkpt>
      <trkpt lat="48.613" lon="1.99866">
        <ele>106.2</ele>
        <time>2023-12-14T12:53:06Z</time>
      </trkpt>
      <trkpt lat="48.61306" lon="1.99868">
        <ele>106.2</ele>
        <time>2023-12-14T12:53:07Z</time>
      </trkpt>
      <trkpt lat="48.61312" lon="1.99869">
        <ele>106.2</ele>
        <time>2023-12-14T12:53:08Z</time>
      </trkpt>
      <trkpt lat="48.61318" lon="1.99871">
        <ele>106</ele>
        <time>2023-12-14T12:53:09Z</time>
      </trkpt>
      <trkpt lat="48.61324" lon="1.99873">
        <ele>106</ele>
        <time>2023-12-14T12:53:10Z</time>
      </trkpt>
      <trkpt lat="48.6133" lon="1.99875">
        <ele>106</ele>
        <time>2023-12-14T12:53:11Z</time>
      </trkpt>
      <trkpt lat="48.61335" lon="1.99877">
        <ele>106</ele>
        <time>2023-12-14T12:53:12Z</time>
      </trkpt>
      <trkpt lat="48.61342" lon="1.99878">
        <ele>105.4</ele>
        <time>2023-12-14T12:53:13Z</time>
      </trkpt>
      <trkpt lat="48.61348" lon="1.9988">
        <ele>105.4</ele>
        <time>2023-12-14T12:53:14Z</time>
      </trkpt>
      <trkpt lat="48.61354" lon="1.99882">
        <ele>105.4</ele>
        <time>2023-12-14T12:53:15Z</time>
      </trkpt>
      <trkpt lat="48.61361" lon="1.99884">
        <ele>105.2</ele>
        <time>2023-12-14T12:53:16Z</time>
      </trkpt>
      <trkpt lat="48.61368" lon="1.99886">
        <ele>104.2</ele>
        <time>2023-12-14T12:53:17Z</time>
      </trkpt>
      <trkpt lat="48.61374" lon="1.99889">
        <ele>104.2</ele>
        <time>2023-12-14T12:53:18Z</time>
      </trkpt>
      <trkpt lat="48.61381" lon="1.99891">
        <ele>104.2</ele>
        <time>2023-12-14T12:53:19Z</time>
      </trkpt>
      <trkpt lat="48.61388" lon="1.99893">
        <ele>104.2</ele>
        <time>2023-12-14T12:53:20Z</time>
      </trkpt>
      <trkpt lat="48.61394" lon="1.99895">
        <ele>103.4</ele>
        <time>2023-12-14T12:53:21Z</time>
      </trkpt>
      <trkpt lat="48.61401" lon="1.99898">
        <ele>103.4</ele>
        <time>2023-12-14T12:53:22Z</time>
      </trkpt>
      <trkpt lat="48.61408" lon="1.999">
        <ele>103.4</ele>
        <time>2023-12-14T12:53:23Z</time>
      </trkpt>
      <trkpt lat="48.61415" lon="1.99902">
        <ele>103.4</ele>
        <time>2023-12-14T12:53:24Z</time>
      </trkpt>
      <trkpt lat="48.61422" lon="1.99904">
        <ele>101.4</ele>
        <time>2023-12-14T12:53:25Z</time>
      </trkpt>
      <trkpt lat="48.61429" lon="1.99906">
        <ele>101.4</ele>
        <time>2023-12-14T12:53:26Z</time>
      </trkpt>
      <trkpt lat="48.61437" lon="1.99908">
        <ele>101.4</ele>
        <time>2023-12-14T12:53:27Z</time>
      </trkpt>
      <trkpt lat="48.61444" lon="1.9991">
        <ele>101.4</ele>
        <time>2023-12-14T12:53:28Z</time>
      </trkpt>
      <trkpt lat="48.61452" lon="1.99912">
        <ele>99.8</ele>
        <time>2023-12-14T12:53:29Z</time>
      </trkpt>
      <trkpt lat="48.6146" lon="1.99914">
        <ele>99.8</ele>
        <time>2023-12-14T12:53:30Z</time>
      </trkpt>
      <trkpt lat="48.61469" lon="1.99915">
        <ele>99.8</ele>
        <time>2023-12-14T12:53:31Z</time>
      </trkpt>
      <trkpt lat="48.61477" lon="1.99917">
        <ele>98.8</ele>
        <time>2023-12-14T12:53:32Z</time>
      </trkpt>
      <trkpt lat="48.61486" lon="1.99917">
        <ele>97</ele>
        <time>2023-12-14T12:53:33Z</time>
      </trkpt>
      <trkpt lat="48.61495" lon="1.99918">
        <ele>97</ele>
        <time>2023-12-14T12:53:34Z</time>
      </trkpt>
      <trkpt lat="48.61504" lon="1.99918">
        <ele>97</ele>
        <time>2023-12-14T12:53:35Z</time>
      </trkpt>
      <trkpt lat="48.61514" lon="1.99918">
        <ele>96</ele>
        <time>2023-12-14T12:53:36Z</time>
      </trkpt>
      <trkpt lat="48.61523" lon="1.99919">
        <ele>95.2</ele>
        <time>2023-12-14T12:53:37Z</time>
      </trkpt>
      <trkpt lat="48.61533" lon="1.9992">
        <ele>95.2</ele>
        <time>2023-12-14T12:53:38Z</time>
      </trkpt>
      <trkpt lat="48.61542" lon="1.99921">
        <ele>95.2</ele>
        <time>2023-12-14T12:53:39Z</time>
      </trkpt>
      <trkpt lat="48.61551" lon="1.99921">
        <ele>94.2</ele>
        <time>2023-12-14T12:53:40Z</time>
      </trkpt>
      <trkpt lat="48.6156" lon="1.99922">
        <ele>93.8</ele>
        <time>2023-12-14T12:53:41Z</time>
      </trkpt>
      <trkpt lat="48.6157" lon="1.99922">
        <ele>93.8</ele>
        <time>2023-12-14T12:53:42Z</time>
      </trkpt>
      <trkpt lat="48.61579" lon="1.99923">
        <ele>93.8</ele>
        <time>2023-12-14T12:53:43Z</time>
      </trkpt>
      <trkpt lat="48.61588" lon="1.99924">
        <ele>94</ele>
        <time>2023-12-14T12:53:44Z</time>
      </trkpt>
      <trkpt lat="48.61597" lon="1.99924">
        <ele>93</ele>
        <time>2023-12-14T12:53:45Z</time>
      </trkpt>
      <trkpt lat="48.61606" lon="1.99925">
        <ele>93</ele>
        <time>2023-12-14T12:53:46Z</time>
      </trkpt>
      <trkpt lat="48.61614" lon="1.99925">
        <ele>93</ele>
        <time>2023-12-14T12:53:47Z</time>
      </trkpt>
      <trkpt lat="48.61623" lon="1.99925">
        <ele>93.2</ele>
        <time>2023-12-14T12:53:48Z</time>
      </trkpt>
      <trkpt lat="48.61632" lon="1.99925">
        <ele>93</ele>
        <time>2023-12-14T12:53:49Z</time>
      </trkpt>
      <trkpt lat="48.61641" lon="1.99926">
        <ele>93</ele>
        <time>2023-12-14T12:53:50Z</time>
      </trkpt>
      <trkpt lat="48.61649" lon="1.99926">
        <ele>93</ele>
        <time>2023-12-14T12:53:51Z</time>
      </trkpt>
      <trkpt lat="48.61658" lon="1.99927">
        <ele>92.8</ele>
        <time>2023-12-14T12:53:52Z</time>
      </trkpt>
      <trkpt lat="48.61666" lon="1.99927">
        <ele>92.2</ele>
        <time>2023-12-14T12:53:53Z</time>
      </trkpt>
      <trkpt lat="48.61675" lon="1.99927">
        <ele>92.2</ele>
        <time>2023-12-14T12:53:54Z</time>
      </trkpt>
      <trkpt lat="48.61683" lon="1.99928">
        <ele>92.2</ele>
        <time>2023-12-14T12:53:55Z</time>
      </trkpt>
      <trkpt lat="48.61691" lon="1.99929">
        <ele>92.2</ele>
        <time>2023-12-14T12:53:56Z</time>
      </trkpt>
      <trkpt lat="48.61699" lon="1.99929">
        <ele>91.8</ele>
        <time>2023-12-14T12:53:57Z</time>
      </trkpt>
      <trkpt lat="48.61707" lon="1.9993">
        <ele>91.8</ele>
        <time>2023-12-14T12:53:58Z</time>
      </trkpt>
      <trkpt lat="48.61715" lon="1.99931">
        <ele>91.8</ele>
        <time>2023-12-14T12:53:59Z</time>
      </trkpt>
      <trkpt lat="48.61722" lon="1.99932">
        <ele>91.8</ele>
        <time>2023-12-14T12:54:00Z</time>
      </trkpt>
      <trkpt lat="48.6173" lon="1.99932">
        <ele>93.2</ele>
        <time>2023-12-14T12:54:01Z</time>
      </trkpt>
      <trkpt lat="48.61738" lon="1.99933">
        <ele>93.2</ele>
        <time>2023-12-14T12:54:02Z</time>
      </trkpt>
      <trkpt lat="48.61745" lon="1.99934">
        <ele>93.2</ele>
        <time>2023-12-14T12:54:03Z</time>
      </trkpt>
      <trkpt lat="48.61753" lon="1.99934">
        <ele>92.2</ele>
        <time>2023-12-14T12:54:04Z</time>
      </trkpt>
      <trkpt lat="48.6176" lon="1.99935">
        <ele>91.8</ele>
        <time>2023-12-14T12:54:05Z</time>
      </trkpt>
      <trkpt lat="48.61768" lon="1.99936">
        <ele>91.8</ele>
        <time>2023-12-14T12:54:06Z</time>
      </trkpt>
      <trkpt lat="48.61775" lon="1.99936">
        <ele>91.8</ele>
        <time>2023-12-14T12:54:07Z</time>
      </trkpt>
      <trkpt lat="48.61783" lon="1.99937">
        <ele>91.8</ele>
        <time>2023-12-14T12:54:08Z</time>
      </trkpt>
      <trkpt lat="48.6179" lon="1.99938">
        <ele>92.6</ele>
        <time>2023-12-14T12:54:09Z</time>
      </trkpt>
      <trkpt lat="48.61797" lon="1.99938">
        <ele>92.6</ele>
        <time>2023-12-14T12:54:10Z</time>
      </trkpt>
      <trkpt lat="48.61804" lon="1.99939">
        <ele>92.6</ele>
        <time>2023-12-14T12:54:11Z</time>
      </trkpt>
      <trkpt lat="48.61811" lon="1.99939">
        <ele>92.6</ele>
        <time>2023-12-14T12:54:12Z</time>
      </trkpt>
      <trkpt lat="48.61818" lon="1.99939">
        <ele>91.2</ele>
        <time>2023-12-14T12:54:13Z</time>
      </trkpt>
      <trkpt lat="48.61825" lon="1.99939">
        <ele>91.2</ele>
        <time>2023-12-14T12:54:14Z</time>
      </trkpt>
      <trkpt lat="48.61833" lon="1.99938">
        <ele>91.2</ele>
        <time>2023-12-14T12:54:15Z</time>
      </trkpt>
      <trkpt lat="48.6184" lon="1.99937">
        <ele>91.2</ele>
        <time>2023-12-14T12:54:16Z</time>
      </trkpt>
      <trkpt lat="48.61847" lon="1.99936">
        <ele>91.6</ele>
        <time>2023-12-14T12:54:17Z</time>
      </trkpt>
      <trkpt lat="48.61854" lon="1.99936">
        <ele>91.6</ele>
        <time>2023-12-14T12:54:18Z</time>
      </trkpt>
      <trkpt lat="48.61861" lon="1.99935">
        <ele>91.6</ele>
        <time>2023-12-14T12:54:19Z</time>
      </trkpt>
      <trkpt lat="48.61868" lon="1.99935">
        <ele>91.6</ele>
        <time>2023-12-14T12:54:20Z</time>
      </trkpt>
      <trkpt lat="48.61876" lon="1.99934">
        <ele>90.4</ele>
        <time>2023-12-14T12:54:21Z</time>
      </trkpt>
      <trkpt lat="48.61883" lon="1.99934">
        <ele>90.4</ele>
        <time>2023-12-14T12:54:22Z</time>
      </trkpt>
      <trkpt lat="48.6189" lon="1.99933">
        <ele>90.4</ele>
        <time>2023-12-14T12:54:23Z</time>
      </trkpt>
      <trkpt lat="48.61897" lon="1.99933">
        <ele>90.4</ele>
        <time>2023-12-14T12:54:24Z</time>
      </trkpt>
      <trkpt lat="48.61904" lon="1.99933">
        <ele>91.2</ele>
        <time>2023-12-14T12:54:25Z</time>
      </trkpt>
      <trkpt lat="48.61911" lon="1.99933">
        <ele>91.2</ele>
        <time>2023-12-14T12:54:26Z</time>
      </trkpt>
      <trkpt lat="48.61918" lon="1.99933">
        <ele>91.2</ele>
        <time>2023-12-14T12:54:27Z</time>
      </trkpt>
      <trkpt lat="48.61925" lon="1.99933">
        <ele>90.6</ele>
        <time>2023-12-14T12:54:28Z</time>
      </trkpt>
      <trkpt lat="48.61932" lon="1.99933">
        <ele>90.4</ele>
        <time>2023-12-14T12:54:29Z</time>
      </trkpt>
      <trkpt lat="48.61939" lon="1.99933">
        <ele>90.4</ele>
        <time>2023-12-14T12:54:30Z</time>
      </trkpt>
      <trkpt lat="48.61946" lon="1.99933">
        <ele>90.4</ele>
        <time>2023-12-14T12:54:31Z</time>
      </trkpt>
      <trkpt lat="48.61953" lon="1.99933">
        <ele>91.2</ele>
        <time>2023-12-14T12:54:32Z</time>
      </trkpt>
      <trkpt lat="48.6196" lon="1.99933">
        <ele>91.2</ele>
        <time>2023-12-14T12:54:33Z</time>
      </trkpt>
      <trkpt lat="48.61967" lon="1.99933">
        <ele>91.2</ele>
        <time>2023-12-14T12:54:34Z</time>
      </trkpt>
      <trkpt lat="48.61973" lon="1.99933">
        <ele>91.2</ele>
        <time>2023-12-14T12:54:35Z</time>
      </trkpt>
      <trkpt lat="48.61979" lon="1.99933">
        <ele>91.2</ele>
        <time>2023-12-14T12:54:36Z</time>
      </trkpt>
      <trkpt lat="48.61985" lon="1.99933">
        <ele>91.6</ele>
        <time>2023-12-14T12:54:37Z</time>
      </trkpt>
      <trkpt lat="48.61991" lon="1.99933">
        <ele>91.6</ele>
        <time>2023-12-14T12:54:38Z</time>
      </trkpt>
      <trkpt lat="48.61997" lon="1.99932">
        <ele>91.6</ele>
        <time>2023-12-14T12:54:39Z</time>
      </trkpt>
      <trkpt lat="48.62003" lon="1.99931">
        <ele>91.6</ele>
        <time>2023-12-14T12:54:40Z</time>
      </trkpt>
      <trkpt lat="48.62009" lon="1.99929">
        <ele>92</ele>
        <time>2023-12-14T12:54:41Z</time>
      </trkpt>
      <trkpt lat="48.62014" lon="1.99927">
        <ele>92</ele>
        <time>2023-12-14T12:54:42Z</time>
      </trkpt>
      <trkpt lat="48.62018" lon="1.99924">
        <ele>92</ele>
        <time>2023-12-14T12:54:43Z</time>
      </trkpt>
      <trkpt lat="48.62023" lon="1.99922">
        <ele>93</ele>
        <time>2023-12-14T12:54:44Z</time>
      </trkpt>
      <trkpt lat="48.62027" lon="1.99918">
        <ele>93.4</ele>
        <time>2023-12-14T12:54:45Z</time>
      </trkpt>
      <trkpt lat="48.62032" lon="1.99915">
        <ele>93.4</ele>
        <time>2023-12-14T12:54:46Z</time>
      </trkpt>
      <trkpt lat="48.62036" lon="1.99912">
        <ele>93.4</ele>
        <time>2023-12-14T12:54:47Z</time>
      </trkpt>
      <trkpt lat="48.62041" lon="1.99909">
        <ele>92.4</ele>
        <time>2023-12-14T12:54:48Z</time>
      </trkpt>
      <trkpt lat="48.62045" lon="1.99907">
        <ele>93.2</ele>
        <time>2023-12-14T12:54:49Z</time>
      </trkpt>
      <trkpt lat="48.6205" lon="1.99908">
        <ele>93.2</ele>
        <time>2023-12-14T12:54:50Z</time>
      </trkpt>
      <trkpt lat="48.62053" lon="1.99914">
        <ele>93.2</ele>
        <time>2023-12-14T12:54:51Z</time>
      </trkpt>
      <trkpt lat="48.62055" lon="1.9992">
        <ele>93.2</ele>
        <time>2023-12-14T12:54:52Z</time>
      </trkpt>
      <trkpt lat="48.62056" lon="1.99928">
        <ele>92.8</ele>
        <time>2023-12-14T12:54:53Z</time>
      </trkpt>
      <trkpt lat="48.62057" lon="1.99935">
        <ele>92.8</ele>
        <time>2023-12-14T12:54:54Z</time>
      </trkpt>
      <trkpt lat="48.62058" lon="1.99943">
        <ele>92.8</ele>
        <time>2023-12-14T12:54:55Z</time>
      </trkpt>
      <trkpt lat="48.62059" lon="1.99951">
        <ele>92.8</ele>
        <time>2023-12-14T12:54:56Z</time>
      </trkpt>
      <trkpt lat="48.6206" lon="1.99959">
        <ele>92.8</ele>
        <time>2023-12-14T12:54:57Z</time>
      </trkpt>
      <trkpt lat="48.62061" lon="1.99967">
        <ele>92.8</ele>
        <time>2023-12-14T12:54:58Z</time>
      </trkpt>
      <trkpt lat="48.62062" lon="1.99975">
        <ele>92.8</ele>
        <time>2023-12-14T12:54:59Z</time>
      </trkpt>
      <trkpt lat="48.62063" lon="1.99983">
        <ele>92.8</ele>
        <time>2023-12-14T12:55:00Z</time>
      </trkpt>
      <trkpt lat="48.62064" lon="1.99991">
        <ele>93.2</ele>
        <time>2023-12-14T12:55:01Z</time>
      </trkpt>
      <trkpt lat="48.62065" lon="1.99999">
        <ele>93.2</ele>
        <time>2023-12-14T12:55:02Z</time>
      </trkpt>
      <trkpt lat="48.62066" lon="2.00007">
        <ele>93.2</ele>
        <time>2023-12-14T12:55:03Z</time>
      </trkpt>
      <trkpt lat="48.62067" lon="2.00015">
        <ele>93.6</ele>
        <time>2023-12-14T12:55:04Z</time>
      </trkpt>
      <trkpt lat="48.62068" lon="2.00023">
        <ele>93.6</ele>
        <time>2023-12-14T12:55:05Z</time>
      </trkpt>
      <trkpt lat="48.6207" lon="2.00031">
        <ele>93.6</ele>
        <time>2023-12-14T12:55:06Z</time>
      </trkpt>
      <trkpt lat="48.62071" lon="2.00039">
        <ele>93.6</ele>
        <time>2023-12-14T12:55:07Z</time>
      </trkpt>
      <trkpt lat="48.62073" lon="2.00046">
        <ele>93.4</ele>
        <time>2023-12-14T12:55:08Z</time>
      </trkpt>
      <trkpt lat="48.62075" lon="2.00054">
        <ele>93</ele>
        <time>2023-12-14T12:55:09Z</time>
      </trkpt>
      <trkpt lat="48.62077" lon="2.00061">
        <ele>93</ele>
        <time>2023-12-14T12:55:10Z</time>
      </trkpt>
      <trkpt lat="48.62079" lon="2.00069">
        <ele>93</ele>
        <time>2023-12-14T12:55:11Z</time>
      </trkpt>
      <trkpt lat="48.62081" lon="2.00076">
        <ele>93.6</ele>
        <time>2023-12-14T12:55:12Z</time>
      </trkpt>
      <trkpt lat="48.62082" lon="2.00083">
        <ele>94</ele>
        <time>2023-12-14T12:55:13Z</time>
      </trkpt>
      <trkpt lat="48.62084" lon="2.0009">
        <ele>94</ele>
        <time>2023-12-14T12:55:14Z</time>
      </trkpt>
      <trkpt lat="48.62086" lon="2.00097">
        <ele>94</ele>
        <time>2023-12-14T12:55:15Z</time>
      </trkpt>
      <trkpt lat="48.62088" lon="2.00104">
        <ele>94.2</ele>
        <time>2023-12-14T12:55:16Z</time>
      </trkpt>
      <trkpt lat="48.62091" lon="2.0011">
        <ele>94.4</ele>
        <time>2023-12-14T12:55:17Z</time>
      </trkpt>
      <trkpt lat="48.62093" lon="2.00116">
        <ele>94.4</ele>
        <time>2023-12-14T12:55:18Z</time>
      </trkpt>
      <trkpt lat="48.62095" lon="2.00123">
        <ele>94.4</ele>
        <time>2023-12-14T12:55:19Z</time>
      </trkpt>
      <trkpt lat="48.62097" lon="2.0013">
        <ele>94.8</ele>
        <time>2023-12-14T12:55:20Z</time>
      </trkpt>
      <trkpt lat="48.62099" lon="2.00137">
        <ele>94.8</ele>
        <time>2023-12-14T12:55:21Z</time>
      </trkpt>
      <trkpt lat="48.62101" lon="2.00144">
        <ele>94.8</ele>
        <time>2023-12-14T12:55:22Z</time>
      </trkpt>
      <trkpt lat="48.62104" lon="2.0015">
        <ele>94.8</ele>
        <time>2023-12-14T12:55:23Z</time>
      </trkpt>
      <trkpt lat="48.62106" lon="2.00156">
        <ele>95.6</ele>
        <time>2023-12-14T12:55:24Z</time>
      </trkpt>
      <trkpt lat="48.62108" lon="2.00162">
        <ele>95.6</ele>
        <time>2023-12-14T12:55:25Z</time>
      </trkpt>
      <trkpt lat="48.6211" lon="2.00169">
        <ele>95.6</ele>
        <time>2023-12-14T12:55:26Z</time>
      </trkpt>
      <trkpt lat="48.62113" lon="2.00175">
        <ele>95.6</ele>
        <time>2023-12-14T12:55:27Z</time>
      </trkpt>
      <trkpt lat="48.62115" lon="2.00182">
        <ele>95.6</ele>
        <time>2023-12-14T12:55:28Z</time>
      </trkpt>
      <trkpt lat="48.62117" lon="2.00188">
        <ele>96</ele>
        <time>2023-12-14T12:55:29Z</time>
      </trkpt>
      <trkpt lat="48.62119" lon="2.00195">
        <ele>96</ele>
        <time>2023-12-14T12:55:30Z</time>
      </trkpt>
      <trkpt lat="48.62121" lon="2.00201">
        <ele>96</ele>
        <time>2023-12-14T12:55:31Z</time>
      </trkpt>
      <trkpt lat="48.62123" lon="2.00207">
        <ele>97</ele>
        <time>2023-12-14T12:55:32Z</time>
      </trkpt>
      <trkpt lat="48.62125" lon="2.00214">
        <ele>97</ele>
        <time>2023-12-14T12:55:33Z</time>
      </trkpt>
      <trkpt lat="48.62126" lon="2.00221">
        <ele>97</ele>
        <time>2023-12-14T12:55:34Z</time>
      </trkpt>
      <trkpt lat="48.62128" lon="2.00227">
        <ele>97</ele>
        <time>2023-12-14T12:55:35Z</time>
      </trkpt>
      <trkpt lat="48.62128" lon="2.00234">
        <ele>97</ele>
        <time>2023-12-14T12:55:36Z</time>
      </trkpt>
      <trkpt lat="48.62129" lon="2.00241">
        <ele>97.4</ele>
        <time>2023-12-14T12:55:37Z</time>
      </trkpt>
      <trkpt lat="48.62128" lon="2.00248">
        <ele>97.4</ele>
        <time>2023-12-14T12:55:38Z</time>
      </trkpt>
      <trkpt lat="48.62129" lon="2.00255">
        <ele>97.4</ele>
        <time>2023-12-14T12:55:39Z</time>
      </trkpt>
      <trkpt lat="48.6213" lon="2.00261">
        <ele>97.4</ele>
        <time>2023-12-14T12:55:40Z</time>
      </trkpt>
      <trkpt lat="48.62132" lon="2.00267">
        <ele>98</ele>
        <time>2023-12-14T12:55:41Z</time>
      </trkpt>
      <trkpt lat="48.62135" lon="2.00273">
        <ele>98</ele>
        <time>2023-12-14T12:55:42Z</time>
      </trkpt>
      <trkpt lat="48.62137" lon="2.00279">
        <ele>98</ele>
        <time>2023-12-14T12:55:43Z</time>
      </trkpt>
      <trkpt lat="48.6214" lon="2.00285">
        <ele>98</ele>
        <time>2023-12-14T12:55:44Z</time>
      </trkpt>
      <trkpt lat="48.62142" lon="2.00292">
        <ele>97.6</ele>
        <time>2023-12-14T12:55:45Z</time>
      </trkpt>
      <trkpt lat="48.62145" lon="2.00299">
        <ele>97.6</ele>
        <time>2023-12-14T12:55:46Z</time>
      </trkpt>
      <trkpt lat="48.62147" lon="2.00306">
        <ele>97.6</ele>
        <time>2023-12-14T12:55:47Z</time>
      </trkpt>
      <trkpt lat="48.62149" lon="2.00314">
        <ele>97.6</ele>
        <time>2023-12-14T12:55:48Z</time>
      </trkpt>
      <trkpt lat="48.62151" lon="2.00322">
        <ele>97.4</ele>
        <time>2023-12-14T12:55:49Z</time>
      </trkpt>
      <trkpt lat="48.62153" lon="2.0033">
        <ele>97.4</ele>
        <time>2023-12-14T12:55:50Z</time>
      </trkpt>
      <trkpt lat="48.62155" lon="2.00338">
        <ele>97.4</ele>
        <time>2023-12-14T12:55:51Z</time>
      </trkpt>
      <trkpt lat="48.62156" lon="2.00346">
        <ele>97.4</ele>
        <time>2023-12-14T12:55:52Z</time>
      </trkpt>
      <trkpt lat="48.62157" lon="2.00355">
        <ele>96.8</ele>
        <time>2023-12-14T12:55:53Z</time>
      </trkpt>
      <trkpt lat="48.62159" lon="2.00363">
        <ele>96.8</ele>
        <time>2023-12-14T12:55:54Z</time>
      </trkpt>
      <trkpt lat="48.6216" lon="2.00371">
        <ele>96.8</ele>
        <time>2023-12-14T12:55:55Z</time>
      </trkpt>
      <trkpt lat="48.62161" lon="2.00379">
        <ele>97</ele>
        <time>2023-12-14T12:55:56Z</time>
      </trkpt>
      <trkpt lat="48.62162" lon="2.00387">
        <ele>97.6</ele>
        <time>2023-12-14T12:55:57Z</time>
      </trkpt>
      <trkpt lat="48.62163" lon="2.00394">
        <ele>97.6</ele>
        <time>2023-12-14T12:55:58Z</time>
      </trkpt>
      <trkpt lat="48.62164" lon="2.00402">
        <ele>97.6</ele>
        <time>2023-12-14T12:55:59Z</time>
      </trkpt>
      <trkpt lat="48.62165" lon="2.0041">
        <ele>97.6</ele>
        <time>2023-12-14T12:56:00Z</time>
      </trkpt>
      <trkpt lat="48.62166" lon="2.00418">
        <ele>97.8</ele>
        <time>2023-12-14T12:56:01Z</time>
      </trkpt>
      <trkpt lat="48.62167" lon="2.00424">
        <ele>97.8</ele>
        <time>2023-12-14T12:56:02Z</time>
      </trkpt>
      <trkpt lat="48.62168" lon="2.00431">
        <ele>97.8</ele>
        <time>2023-12-14T12:56:03Z</time>
      </trkpt>
      <trkpt lat="48.6217" lon="2.0044">
        <ele>97.8</ele>
        <time>2023-12-14T12:56:04Z</time>
      </trkpt>
      <trkpt lat="48.62171" lon="2.00448">
        <ele>97.8</ele>
        <time>2023-12-14T12:56:05Z</time>
      </trkpt>
      <trkpt lat="48.62172" lon="2.00455">
        <ele>97.8</ele>
        <time>2023-12-14T12:56:06Z</time>
      </trkpt>
      <trkpt lat="48.62173" lon="2.00463">
        <ele>97.8</ele>
        <time>2023-12-14T12:56:07Z</time>
      </trkpt>
      <trkpt lat="48.62174" lon="2.00471">
        <ele>97.8</ele>
        <time>2023-12-14T12:56:08Z</time>
      </trkpt>
      <trkpt lat="48.62175" lon="2.00479">
        <ele>97.8</ele>
        <time>2023-12-14T12:56:09Z</time>
      </trkpt>
      <trkpt lat="48.62177" lon="2.00486">
        <ele>97.8</ele>
        <time>2023-12-14T12:56:10Z</time>
      </trkpt>
      <trkpt lat="48.62178" lon="2.00495">
        <ele>97.8</ele>
        <time>2023-12-14T12:56:11Z</time>
      </trkpt>
      <trkpt lat="48.62179" lon="2.00503">
        <ele>98.2</ele>
        <time>2023-12-14T12:56:12Z</time>
      </trkpt>
      <trkpt lat="48.6218" lon="2.00511">
        <ele>98</ele>
        <time>2023-12-14T12:56:13Z</time>
      </trkpt>
      <trkpt lat="48.62181" lon="2.00519">
        <ele>98</ele>
        <time>2023-12-14T12:56:14Z</time>
      </trkpt>
      <trkpt lat="48.62182" lon="2.00528">
        <ele>98</ele>
        <time>2023-12-14T12:56:15Z</time>
      </trkpt>
      <trkpt lat="48.62183" lon="2.00535">
        <ele>98</ele>
        <time>2023-12-14T12:56:16Z</time>
      </trkpt>
      <trkpt lat="48.62184" lon="2.00543">
        <ele>98.2</ele>
        <time>2023-12-14T12:56:17Z</time>
      </trkpt>
      <trkpt lat="48.62185" lon="2.00552">
        <ele>98.2</ele>
        <time>2023-12-14T12:56:18Z</time>
      </trkpt>
      <trkpt lat="48.62186" lon="2.0056">
        <ele>98.2</ele>
        <time>2023-12-14T12:56:19Z</time>
      </trkpt>
      <trkpt lat="48.62187" lon="2.00568">
        <ele>97.8</ele>
        <time>2023-12-14T12:56:20Z</time>
      </trkpt>
      <trkpt lat="48.62188" lon="2.00576">
        <ele>97.8</ele>
        <time>2023-12-14T12:56:21Z</time>
      </trkpt>
      <trkpt lat="48.62189" lon="2.00585">
        <ele>97.8</ele>
        <time>2023-12-14T12:56:22Z</time>
      </trkpt>
      <trkpt lat="48.62189" lon="2.00593">
        <ele>97.8</ele>
        <time>2023-12-14T12:56:23Z</time>
      </trkpt>
      <trkpt lat="48.6219" lon="2.00601">
        <ele>97.8</ele>
        <time>2023-12-14T12:56:24Z</time>
      </trkpt>
      <trkpt lat="48.62192" lon="2.00609">
        <ele>97.8</ele>
        <time>2023-12-14T12:56:25Z</time>
      </trkpt>
      <trkpt lat="48.62193" lon="2.00617">
        <ele>97.8</ele>
        <time>2023-12-14T12:56:26Z</time>
      </trkpt>
      <trkpt lat="48.62193" lon="2.00625">
        <ele>97.8</ele>
        <time>2023-12-14T12:56:27Z</time>
      </trkpt>
      <trkpt lat="48.62194" lon="2.00634">
        <ele>97.8</ele>
        <time>2023-12-14T12:56:28Z</time>
      </trkpt>
      <trkpt lat="48.62195" lon="2.00642">
        <ele>98</ele>
        <time>2023-12-14T12:56:29Z</time>
      </trkpt>
      <trkpt lat="48.62197" lon="2.0065">
        <ele>98</ele>
        <time>2023-12-14T12:56:30Z</time>
      </trkpt>
      <trkpt lat="48.62198" lon="2.00656">
        <ele>98</ele>
        <time>2023-12-14T12:56:31Z</time>
      </trkpt>
      <trkpt lat="48.62199" lon="2.00663">
        <ele>97.6</ele>
        <time>2023-12-14T12:56:32Z</time>
      </trkpt>
      <trkpt lat="48.622" lon="2.00671">
        <ele>98</ele>
        <time>2023-12-14T12:56:33Z</time>
      </trkpt>
      <trkpt lat="48.62201" lon="2.00679">
        <ele>98</ele>
        <time>2023-12-14T12:56:34Z</time>
      </trkpt>
      <trkpt lat="48.62202" lon="2.00686">
        <ele>98</ele>
        <time>2023-12-14T12:56:35Z</time>
      </trkpt>
      <trkpt lat="48.62202" lon="2.00695">
        <ele>98</ele>
        <time>2023-12-14T12:56:36Z</time>
      </trkpt>
      <trkpt lat="48.62203" lon="2.00705">
        <ele>98.6</ele>
        <time>2023-12-14T12:56:37Z</time>
      </trkpt>
      <trkpt lat="48.62204" lon="2.00713">
        <ele>98.6</ele>
        <time>2023-12-14T12:56:38Z</time>
      </trkpt>
      <trkpt lat="48.62204" lon="2.00722">
        <ele>98.6</ele>
        <time>2023-12-14T12:56:39Z</time>
      </trkpt>
      <trkpt lat="48.62205" lon="2.0073">
        <ele>99</ele>
        <time>2023-12-14T12:56:40Z</time>
      </trkpt>
      <trkpt lat="48.62205" lon="2.00739">
        <ele>99</ele>
        <time>2023-12-14T12:56:41Z</time>
      </trkpt>
      <trkpt lat="48.62206" lon="2.00747">
        <ele>99</ele>
        <time>2023-12-14T12:56:42Z</time>
      </trkpt>
      <trkpt lat="48.62206" lon="2.00756">
        <ele>99</ele>
        <time>2023-12-14T12:56:43Z</time>
      </trkpt>
      <trkpt lat="48.62207" lon="2.00765">
        <ele>99.6</ele>
        <time>2023-12-14T12:56:44Z</time>
      </trkpt>
      <trkpt lat="48.62208" lon="2.00773">
        <ele>100</ele>
        <time>2023-12-14T12:56:45Z</time>
      </trkpt>
      <trkpt lat="48.62209" lon="2.00781">
        <ele>100</ele>
        <time>2023-12-14T12:56:46Z</time>
      </trkpt>
      <trkpt lat="48.6221" lon="2.00788">
        <ele>100</ele>
        <time>2023-12-14T12:56:47Z</time>
      </trkpt>
      <trkpt lat="48.62211" lon="2.00795">
        <ele>100.8</ele>
        <time>2023-12-14T12:56:48Z</time>
      </trkpt>
      <trkpt lat="48.62212" lon="2.00803">
        <ele>101.4</ele>
        <time>2023-12-14T12:56:49Z</time>
      </trkpt>
      <trkpt lat="48.62212" lon="2.00809">
        <ele>101.4</ele>
        <time>2023-12-14T12:56:50Z</time>
      </trkpt>
      <trkpt lat="48.62213" lon="2.00816">
        <ele>101.4</ele>
        <time>2023-12-14T12:56:51Z</time>
      </trkpt>
      <trkpt lat="48.62214" lon="2.00823">
        <ele>101.6</ele>
        <time>2023-12-14T12:56:52Z</time>
      </trkpt>
      <trkpt lat="48.62215" lon="2.0083">
        <ele>102.4</ele>
        <time>2023-12-14T12:56:53Z</time>
      </trkpt>
      <trkpt lat="48.62215" lon="2.00836">
        <ele>102.4</ele>
        <time>2023-12-14T12:56:54Z</time>
      </trkpt>
      <trkpt lat="48.62216" lon="2.00843">
        <ele>102.4</ele>
        <time>2023-12-14T12:56:55Z</time>
      </trkpt>
      <trkpt lat="48.62217" lon="2.00849">
        <ele>103.4</ele>
        <time>2023-12-14T12:56:56Z</time>
      </trkpt>
      <trkpt lat="48.62218" lon="2.00856">
        <ele>103.6</ele>
        <time>2023-12-14T12:56:57Z</time>
      </trkpt>
      <trkpt lat="48.62219" lon="2.00862">
        <ele>103.6</ele>
        <time>2023-12-14T12:56:58Z</time>
      </trkpt>
      <trkpt lat="48.6222" lon="2.00868">
        <ele>103.6</ele>
        <time>2023-12-14T12:56:59Z</time>
      </trkpt>
      <trkpt lat="48.62221" lon="2.00874">
        <ele>103.6</ele>
        <time>2023-12-14T12:57:00Z</time>
      </trkpt>
      <trkpt lat="48.62222" lon="2.00881">
        <ele>104.6</ele>
        <time>2023-12-14T12:57:01Z</time>
      </trkpt>
      <trkpt lat="48.62223" lon="2.00887">
        <ele>104.6</ele>
        <time>2023-12-14T12:57:02Z</time>
      </trkpt>
      <trkpt lat="48.62225" lon="2.00894">
        <ele>104.6</ele>
        <time>2023-12-14T12:57:03Z</time>
      </trkpt>
      <trkpt lat="48.62226" lon="2.009">
        <ele>104.6</ele>
        <time>2023-12-14T12:57:04Z</time>
      </trkpt>
      <trkpt lat="48.62226" lon="2.00907">
        <ele>105.4</ele>
        <time>2023-12-14T12:57:05Z</time>
      </trkpt>
      <trkpt lat="48.62227" lon="2.00913">
        <ele>105.4</ele>
        <time>2023-12-14T12:57:06Z</time>
      </trkpt>
      <trkpt lat="48.62227" lon="2.0092">
        <ele>105.4</ele>
        <time>2023-12-14T12:57:07Z</time>
      </trkpt>
      <trkpt lat="48.62228" lon="2.00927">
        <ele>106</ele>
        <time>2023-12-14T12:57:08Z</time>
      </trkpt>
      <trkpt lat="48.62229" lon="2.00933">
        <ele>106.6</ele>
        <time>2023-12-14T12:57:09Z</time>
      </trkpt>
      <trkpt lat="48.6223" lon="2.0094">
        <ele>106.6</ele>
        <time>2023-12-14T12:57:10Z</time>
      </trkpt>
      <trkpt lat="48.6223" lon="2.00947">
        <ele>106.6</ele>
        <time>2023-12-14T12:57:11Z</time>
      </trkpt>
      <trkpt lat="48.62231" lon="2.00953">
        <ele>106.6</ele>
        <time>2023-12-14T12:57:12Z</time>
      </trkpt>
      <trkpt lat="48.62232" lon="2.0096">
        <ele>107</ele>
        <time>2023-12-14T12:57:13Z</time>
      </trkpt>
      <trkpt lat="48.62233" lon="2.00966">
        <ele>107</ele>
        <time>2023-12-14T12:57:14Z</time>
      </trkpt>
      <trkpt lat="48.62234" lon="2.00973">
        <ele>107</ele>
        <time>2023-12-14T12:57:15Z</time>
      </trkpt>
      <trkpt lat="48.62235" lon="2.00979">
        <ele>108</ele>
        <time>2023-12-14T12:57:16Z</time>
      </trkpt>
      <trkpt lat="48.62236" lon="2.00985">
        <ele>108.8</ele>
        <time>2023-12-14T12:57:17Z</time>
      </trkpt>
      <trkpt lat="48.62236" lon="2.00991">
        <ele>108.8</ele>
        <time>2023-12-14T12:57:18Z</time>
      </trkpt>
      <trkpt lat="48.62236" lon="2.00997">
        <ele>108.8</ele>
        <time>2023-12-14T12:57:19Z</time>
      </trkpt>
      <trkpt lat="48.62237" lon="2.01003">
        <ele>109.6</ele>
        <time>2023-12-14T12:57:20Z</time>
      </trkpt>
      <trkpt lat="48.62238" lon="2.01009">
        <ele>109.6</ele>
        <time>2023-12-14T12:57:21Z</time>
      </trkpt>
      <trkpt lat="48.62238" lon="2.01016">
        <ele>109.6</ele>
        <time>2023-12-14T12:57:22Z</time>
      </trkpt>
      <trkpt lat="48.62238" lon="2.01022">
        <ele>109.6</ele>
        <time>2023-12-14T12:57:23Z</time>
      </trkpt>
      <trkpt lat="48.62238" lon="2.01028">
        <ele>110.6</ele>
        <time>2023-12-14T12:57:24Z</time>
      </trkpt>
      <trkpt lat="48.6224" lon="2.01035">
        <ele>111.2</ele>
        <time>2023-12-14T12:57:25Z</time>
      </trkpt>
      <trkpt lat="48.6224" lon="2.01041">
        <ele>111.2</ele>
        <time>2023-12-14T12:57:26Z</time>
      </trkpt>
      <trkpt lat="48.62241" lon="2.01047">
        <ele>111.2</ele>
        <time>2023-12-14T12:57:27Z</time>
      </trkpt>
      <trkpt lat="48.62242" lon="2.01052">
        <ele>111.8</ele>
        <time>2023-12-14T12:57:28Z</time>
      </trkpt>
      <trkpt lat="48.62243" lon="2.01059">
        <ele>111.8</ele>
        <time>2023-12-14T12:57:29Z</time>
      </trkpt>
      <trkpt lat="48.62244" lon="2.01066">
        <ele>111.8</ele>
        <time>2023-12-14T12:57:30Z</time>
      </trkpt>
      <trkpt lat="48.62245" lon="2.01072">
        <ele>111.8</ele>
        <time>2023-12-14T12:57:31Z</time>
      </trkpt>
      <trkpt lat="48.62245" lon="2.0108">
        <ele>112.6</ele>
        <time>2023-12-14T12:57:32Z</time>
      </trkpt>
      <trkpt lat="48.62246" lon="2.01087">
        <ele>112.8</ele>
        <time>2023-12-14T12:57:33Z</time>
      </trkpt>
      <trkpt lat="48.62246" lon="2.01093">
        <ele>112.8</ele>
        <time>2023-12-14T12:57:34Z</time>
      </trkpt>
      <trkpt lat="48.62248" lon="2.01099">
        <ele>112.8</ele>
        <time>2023-12-14T12:57:35Z</time>
      </trkpt>
      <trkpt lat="48.62248" lon="2.01105">
        <ele>113.6</ele>
        <time>2023-12-14T12:57:36Z</time>
      </trkpt>
      <trkpt lat="48.62248" lon="2.01113">
        <ele>113.8</ele>
        <time>2023-12-14T12:57:37Z</time>
      </trkpt>
      <trkpt lat="48.62248" lon="2.0112">
        <ele>113.8</ele>
        <time>2023-12-14T12:57:38Z</time>
      </trkpt>
      <trkpt lat="48.62249" lon="2.01128">
        <ele>113.8</ele>
        <time>2023-12-14T12:57:39Z</time>
      </trkpt>
      <trkpt lat="48.62249" lon="2.01136">
        <ele>114.6</ele>
        <time>2023-12-14T12:57:40Z</time>
      </trkpt>
      <trkpt lat="48.62249" lon="2.01144">
        <ele>114.8</ele>
        <time>2023-12-14T12:57:41Z</time>
      </trkpt>
      <trkpt lat="48.62249" lon="2.01152">
        <ele>114.8</ele>
        <time>2023-12-14T12:57:42Z</time>
      </trkpt>
      <trkpt lat="48.62249" lon="2.0116">
        <ele>114.8</ele>
        <time>2023-12-14T12:57:43Z</time>
      </trkpt>
      <trkpt lat="48.62249" lon="2.01168">
        <ele>113.8</ele>
        <time>2023-12-14T12:57:44Z</time>
      </trkpt>
      <trkpt lat="48.6225" lon="2.01176">
        <ele>113.2</ele>
        <time>2023-12-14T12:57:45Z</time>
      </trkpt>
      <trkpt lat="48.6225" lon="2.01185">
        <ele>113.2</ele>
        <time>2023-12-14T12:57:46Z</time>
      </trkpt>
      <trkpt lat="48.6225" lon="2.01194">
        <ele>113.2</ele>
        <time>2023-12-14T12:57:47Z</time>
      </trkpt>
      <trkpt lat="48.6225" lon="2.01203">
        <ele>112.2</ele>
        <time>2023-12-14T12:57:48Z</time>
      </trkpt>
      <trkpt lat="48.6225" lon="2.01213">
        <ele>112.2</ele>
        <time>2023-12-14T12:57:49Z</time>
      </trkpt>
      <trkpt lat="48.6225" lon="2.01223">
        <ele>112.2</ele>
        <time>2023-12-14T12:57:50Z</time>
      </trkpt>
      <trkpt lat="48.6225" lon="2.01233">
        <ele>112.2</ele>
        <time>2023-12-14T12:57:51Z</time>
      </trkpt>
      <trkpt lat="48.6225" lon="2.01244">
        <ele>111.2</ele>
        <time>2023-12-14T12:57:52Z</time>
      </trkpt>
      <trkpt lat="48.62249" lon="2.01255">
        <ele>110.4</ele>
        <time>2023-12-14T12:57:53Z</time>
      </trkpt>
      <trkpt lat="48.62249" lon="2.01266">
        <ele>110.4</ele>
        <time>2023-12-14T12:57:54Z</time>
      </trkpt>
      <trkpt lat="48.62249" lon="2.01277">
        <ele>110.4</ele>
        <time>2023-12-14T12:57:55Z</time>
      </trkpt>
      <trkpt lat="48.62249" lon="2.01289">
        <ele>109.4</ele>
        <time>2023-12-14T12:57:56Z</time>
      </trkpt>
      <trkpt lat="48.62249" lon="2.013">
        <ele>109.6</ele>
        <time>2023-12-14T12:57:57Z</time>
      </trkpt>
      <trkpt lat="48.62249" lon="2.01312">
        <ele>109.6</ele>
        <time>2023-12-14T12:57:58Z</time>
      </trkpt>
      <trkpt lat="48.62249" lon="2.01324">
        <ele>109.6</ele>
        <time>2023-12-14T12:57:59Z</time>
      </trkpt>
      <trkpt lat="48.62249" lon="2.01335">
        <ele>108.6</ele>
        <time>2023-12-14T12:58:00Z</time>
      </trkpt>
      <trkpt lat="48.62249" lon="2.01347">
        <ele>108</ele>
        <time>2023-12-14T12:58:01Z</time>
      </trkpt>
      <trkpt lat="48.62249" lon="2.0136">
        <ele>108</ele>
        <time>2023-12-14T12:58:02Z</time>
      </trkpt>
      <trkpt lat="48.62249" lon="2.01372">
        <ele>108</ele>
        <time>2023-12-14T12:58:03Z</time>
      </trkpt>
      <trkpt lat="48.62249" lon="2.01384">
        <ele>107.8</ele>
        <time>2023-12-14T12:58:04Z</time>
      </trkpt>
      <trkpt lat="48.62249" lon="2.01397">
        <ele>107</ele>
        <time>2023-12-14T12:58:05Z</time>
      </trkpt>
      <trkpt lat="48.62248" lon="2.01409">
        <ele>107</ele>
        <time>2023-12-14T12:58:06Z</time>
      </trkpt>
      <trkpt lat="48.62248" lon="2.01422">
        <ele>107</ele>
        <time>2023-12-14T12:58:07Z</time>
      </trkpt>
      <trkpt lat="48.62248" lon="2.01434">
        <ele>106.2</ele>
        <time>2023-12-14T12:58:08Z</time>
      </trkpt>
      <trkpt lat="48.62248" lon="2.01447">
        <ele>106.4</ele>
        <time>2023-12-14T12:58:09Z</time>
      </trkpt>
      <trkpt lat="48.62248" lon="2.01459">
        <ele>106.4</ele>
        <time>2023-12-14T12:58:10Z</time>
      </trkpt>
      <trkpt lat="48.62248" lon="2.01472">
        <ele>106.4</ele>
        <time>2023-12-14T12:58:11Z</time>
      </trkpt>
      <trkpt lat="48.62248" lon="2.01485">
        <ele>105.8</ele>
        <time>2023-12-14T12:58:12Z</time>
      </trkpt>
      <trkpt lat="48.62248" lon="2.01497">
        <ele>105.6</ele>
        <time>2023-12-14T12:58:13Z</time>
      </trkpt>
      <trkpt lat="48.62248" lon="2.0151">
        <ele>105.6</ele>
        <time>2023-12-14T12:58:14Z</time>
      </trkpt>
      <trkpt lat="48.62248" lon="2.01522">
        <ele>105.6</ele>
        <time>2023-12-14T12:58:15Z</time>
      </trkpt>
      <trkpt lat="48.62247" lon="2.01535">
        <ele>105.6</ele>
        <time>2023-12-14T12:58:16Z</time>
      </trkpt>
      <trkpt lat="48.62248" lon="2.01548">
        <ele>105.4</ele>
        <time>2023-12-14T12:58:17Z</time>
      </trkpt>
      <trkpt lat="48.62247" lon="2.0156">
        <ele>105.4</ele>
        <time>2023-12-14T12:58:18Z</time>
      </trkpt>
      <trkpt lat="48.62247" lon="2.01573">
        <ele>105.4</ele>
        <time>2023-12-14T12:58:19Z</time>
      </trkpt>
      <trkpt lat="48.62248" lon="2.01585">
        <ele>105.4</ele>
        <time>2023-12-14T12:58:20Z</time>
      </trkpt>
      <trkpt lat="48.62248" lon="2.01598">
        <ele>105.2</ele>
        <time>2023-12-14T12:58:21Z</time>
      </trkpt>
      <trkpt lat="48.62248" lon="2.0161">
        <ele>105.2</ele>
        <time>2023-12-14T12:58:22Z</time>
      </trkpt>
      <trkpt lat="48.62249" lon="2.01623">
        <ele>105.2</ele>
        <time>2023-12-14T12:58:23Z</time>
      </trkpt>
      <trkpt lat="48.62248" lon="2.01635">
        <ele>105.2</ele>
        <time>2023-12-14T12:58:24Z</time>
      </trkpt>
      <trkpt lat="48.62248" lon="2.01647">
        <ele>105.2</ele>
        <time>2023-12-14T12:58:25Z</time>
      </trkpt>
      <trkpt lat="48.62247" lon="2.01659">
        <ele>105.2</ele>
        <time>2023-12-14T12:58:26Z</time>
      </trkpt>
      <trkpt lat="48.62245" lon="2.01671">
        <ele>105.2</ele>
        <time>2023-12-14T12:58:27Z</time>
      </trkpt>
      <trkpt lat="48.62242" lon="2.01682">
        <ele>105.2</ele>
        <time>2023-12-14T12:58:28Z</time>
      </trkpt>
      <trkpt lat="48.62241" lon="2.01694">
        <ele>106</ele>
        <time>2023-12-14T12:58:29Z</time>
      </trkpt>
      <trkpt lat="48.62241" lon="2.01702">
        <ele>106</ele>
        <time>2023-12-14T12:58:30Z</time>
      </trkpt>
      <trkpt lat="48.6224" lon="2.01713">
        <ele>106</ele>
        <time>2023-12-14T12:58:31Z</time>
      </trkpt>
      <trkpt lat="48.62239" lon="2.01725">
        <ele>106</ele>
        <time>2023-12-14T12:58:32Z</time>
      </trkpt>
      <trkpt lat="48.62238" lon="2.01737">
        <ele>105</ele>
        <time>2023-12-14T12:58:33Z</time>
      </trkpt>
      <trkpt lat="48.62236" lon="2.01749">
        <ele>105</ele>
        <time>2023-12-14T12:58:34Z</time>
      </trkpt>
      <trkpt lat="48.62235" lon="2.01761">
        <ele>105</ele>
        <time>2023-12-14T12:58:35Z</time>
      </trkpt>
      <trkpt lat="48.62234" lon="2.01773">
        <ele>105</ele>
        <time>2023-12-14T12:58:36Z</time>
      </trkpt>
      <trkpt lat="48.62234" lon="2.01784">
        <ele>104.8</ele>
        <time>2023-12-14T12:58:37Z</time>
      </trkpt>
      <trkpt lat="48.62233" lon="2.01795">
        <ele>104.8</ele>
        <time>2023-12-14T12:58:38Z</time>
      </trkpt>
      <trkpt lat="48.62233" lon="2.01807">
        <ele>104.8</ele>
        <time>2023-12-14T12:58:39Z</time>
      </trkpt>
      <trkpt lat="48.62233" lon="2.01819">
        <ele>104.8</ele>
        <time>2023-12-14T12:58:40Z</time>
      </trkpt>
      <trkpt lat="48.62232" lon="2.01829">
        <ele>104.8</ele>
        <time>2023-12-14T12:58:41Z</time>
      </trkpt>
      <trkpt lat="48.62232" lon="2.01838">
        <ele>104.8</ele>
        <time>2023-12-14T12:58:42Z</time>
      </trkpt>
      <trkpt lat="48.62232" lon="2.01847">
        <ele>104.8</ele>
        <time>2023-12-14T12:58:43Z</time>
      </trkpt>
      <trkpt lat="48.62233" lon="2.01856">
        <ele>105</ele>
        <time>2023-12-14T12:58:44Z</time>
      </trkpt>
      <trkpt lat="48.62235" lon="2.01863">
        <ele>105.4</ele>
        <time>2023-12-14T12:58:45Z</time>
      </trkpt>
      <trkpt lat="48.62238" lon="2.01868">
        <ele>105.4</ele>
        <time>2023-12-14T12:58:46Z</time>
      </trkpt>
      <trkpt lat="48.62242" lon="2.01871">
        <ele>105.4</ele>
        <time>2023-12-14T12:58:47Z</time>
      </trkpt>
      <trkpt lat="48.62244" lon="2.01873">
        <ele>106.2</ele>
        <time>2023-12-14T12:58:48Z</time>
      </trkpt>
      <trkpt lat="48.62247" lon="2.01874">
        <ele>106.2</ele>
        <time>2023-12-14T12:58:49Z</time>
      </trkpt>
      <trkpt lat="48.6225" lon="2.01875">
        <ele>106.2</ele>
        <time>2023-12-14T12:58:50Z</time>
      </trkpt>
      <trkpt lat="48.62252" lon="2.01876">
        <ele>106.2</ele>
        <time>2023-12-14T12:58:51Z</time>
      </trkpt>
      <trkpt lat="48.62254" lon="2.01877">
        <ele>106.2</ele>
        <time>2023-12-14T12:58:52Z</time>
      </trkpt>
      <trkpt lat="48.62255" lon="2.01876">
        <ele>106.6</ele>
        <time>2023-12-14T12:58:53Z</time>
      </trkpt>
      <trkpt lat="48.62256" lon="2.01873">
        <ele>106.6</ele>
        <time>2023-12-14T12:58:54Z</time>
      </trkpt>
      <trkpt lat="48.62255" lon="2.01871">
        <ele>106.6</ele>
        <time>2023-12-14T12:58:55Z</time>
      </trkpt>
      <trkpt lat="48.62253" lon="2.01868">
        <ele>106.6</ele>
        <time>2023-12-14T12:58:56Z</time>
      </trkpt>
      <trkpt lat="48.62251" lon="2.01864">
        <ele>106</ele>
        <time>2023-12-14T12:58:57Z</time>
      </trkpt>
      <trkpt lat="48.62249" lon="2.0186">
        <ele>106</ele>
        <time>2023-12-14T12:58:58Z</time>
      </trkpt>
      <trkpt lat="48.62248" lon="2.01855">
        <ele>106</ele>
        <time>2023-12-14T12:58:59Z</time>
      </trkpt>
      <trkpt lat="48.62246" lon="2.0185">
        <ele>105.4</ele>
        <time>2023-12-14T12:59:00Z</time>
      </trkpt>
      <trkpt lat="48.62246" lon="2.01845">
        <ele>105.4</ele>
        <time>2023-12-14T12:59:01Z</time>
      </trkpt>
      <trkpt lat="48.62248" lon="2.01841">
        <ele>105.4</ele>
        <time>2023-12-14T12:59:02Z</time>
      </trkpt>
      <trkpt lat="48.62251" lon="2.01837">
        <ele>105.4</ele>
        <time>2023-12-14T12:59:03Z</time>
      </trkpt>
      <trkpt lat="48.62254" lon="2.01834">
        <ele>105.4</ele>
        <time>2023-12-14T12:59:04Z</time>
      </trkpt>
      <trkpt lat="48.62257" lon="2.01832">
        <ele>105.8</ele>
        <time>2023-12-14T12:59:05Z</time>
      </trkpt>
      <trkpt lat="48.62259" lon="2.0183">
        <ele>105.8</ele>
        <time>2023-12-14T12:59:06Z</time>
      </trkpt>
      <trkpt lat="48.62261" lon="2.01828">
        <ele>105.8</ele>
        <time>2023-12-14T12:59:07Z</time>
      </trkpt>
      <trkpt lat="48.62262" lon="2.01825">
        <ele>106.4</ele>
        <time>2023-12-14T12:59:08Z</time>
      </trkpt>
      <trkpt lat="48.62262" lon="2.01824">
        <ele>106.4</ele>
        <time>2023-12-14T12:59:09Z</time>
      </trkpt>
      <trkpt lat="48.62262" lon="2.01823">
        <ele>106.4</ele>
        <time>2023-12-14T12:59:10Z</time>
      </trkpt>
      <trkpt lat="48.62262" lon="2.01822">
        <ele>106.4</ele>
        <time>2023-12-14T12:59:11Z</time>
      </trkpt>
      <trkpt lat="48.62262" lon="2.01822">
        <ele>106.6</ele>
        <time>2023-12-14T12:59:12Z</time>
      </trkpt>
    </trkseg>
  </trk>
</gpx>